<?xml version="1.0" encoding="UTF-8" standalone="no" ?>
<gpx xmlns="http://www.topografix.com/GPX/1/1" xmlns:xsi="http://www.w3.org/2001/XMLSchema-instance" xsi:schemaLocation="http://www.topografix.com/GPX/1/1 http://www.topografix.com/GPX/1/1/gpx.xsd" version="1.1" creator="VisuGPX - https://www.visugpx.com">
  <metadata>
    <name>Boucle au départ de Laragne passant par la vallée de la Blaisance, St Andre de Rosans le col de Palluel l'Epine Serres</name>
    <desc><![CDATA[Ce parcours est montant les premiers 26 km jusqu'au col de Flachière (870m). Puis c'est la descente sur St André de Rosans. Après s'être désaltérés à la fontaine du village on part en direction de la Baume 880 m et le col de Palluel 801 m. On rejoint la D994 pour aller à l'Epine, Montclus et Serres. A Serres nous prenons la direction de Mereuil, Lagrand avec un vent de face par bourrasques à 50 km/h. A 12h30 nous sommes à Laragne pas mécontents d'avoir bouclé ce joli circuit.]]></desc>
  </metadata>
  <trk>
    <name><![CDATA[Boucle au départ de Laragne passant par la vallée de la Blaisance, St Andre de Rosans le col de Palluel l'Epine Serres_1]]></name>
    <trkseg>
      <trkpt lat="44.31605" lon="5.8297">
        <ele>577</ele>
        <time>2019-06-07T06:57:58Z</time>
      </trkpt>
      <trkpt lat="44.31588" lon="5.82938">
        <ele>578</ele>
        <time>2019-06-07T06:59:59Z</time>
      </trkpt>
      <trkpt lat="44.31585" lon="5.82935">
        <ele>578</ele>
        <time>2019-06-07T07:00:00Z</time>
      </trkpt>
      <trkpt lat="44.31581" lon="5.82932">
        <ele>578</ele>
        <time>2019-06-07T07:00:01Z</time>
      </trkpt>
      <trkpt lat="44.31577" lon="5.82929">
        <ele>578</ele>
        <time>2019-06-07T07:00:02Z</time>
      </trkpt>
      <trkpt lat="44.31573" lon="5.82926">
        <ele>578</ele>
        <time>2019-06-07T07:00:03Z</time>
      </trkpt>
      <trkpt lat="44.31569" lon="5.82923">
        <ele>578</ele>
        <time>2019-06-07T07:00:04Z</time>
      </trkpt>
      <trkpt lat="44.31565" lon="5.8292">
        <ele>577</ele>
        <time>2019-06-07T07:00:05Z</time>
      </trkpt>
      <trkpt lat="44.31561" lon="5.82917">
        <ele>577</ele>
        <time>2019-06-07T07:00:06Z</time>
      </trkpt>
      <trkpt lat="44.31556" lon="5.82914">
        <ele>577</ele>
        <time>2019-06-07T07:00:07Z</time>
      </trkpt>
      <trkpt lat="44.31553" lon="5.82911">
        <ele>577</ele>
        <time>2019-06-07T07:00:08Z</time>
      </trkpt>
      <trkpt lat="44.31549" lon="5.82909">
        <ele>576</ele>
        <time>2019-06-07T07:00:09Z</time>
      </trkpt>
      <trkpt lat="44.31546" lon="5.82907">
        <ele>576</ele>
        <time>2019-06-07T07:00:10Z</time>
      </trkpt>
      <trkpt lat="44.31543" lon="5.82905">
        <ele>576</ele>
        <time>2019-06-07T07:00:11Z</time>
      </trkpt>
      <trkpt lat="44.3154" lon="5.82901">
        <ele>576</ele>
        <time>2019-06-07T07:00:12Z</time>
      </trkpt>
      <trkpt lat="44.31536" lon="5.82897">
        <ele>576</ele>
        <time>2019-06-07T07:00:13Z</time>
      </trkpt>
      <trkpt lat="44.31533" lon="5.82893">
        <ele>576</ele>
        <time>2019-06-07T07:00:14Z</time>
      </trkpt>
      <trkpt lat="44.3153" lon="5.82889">
        <ele>575</ele>
        <time>2019-06-07T07:00:15Z</time>
      </trkpt>
      <trkpt lat="44.31526" lon="5.82886">
        <ele>575</ele>
        <time>2019-06-07T07:00:16Z</time>
      </trkpt>
      <trkpt lat="44.31522" lon="5.82883">
        <ele>575</ele>
        <time>2019-06-07T07:00:17Z</time>
      </trkpt>
      <trkpt lat="44.31519" lon="5.8288">
        <ele>575</ele>
        <time>2019-06-07T07:00:18Z</time>
      </trkpt>
      <trkpt lat="44.31515" lon="5.82876">
        <ele>575</ele>
        <time>2019-06-07T07:00:19Z</time>
      </trkpt>
      <trkpt lat="44.31512" lon="5.82872">
        <ele>575</ele>
        <time>2019-06-07T07:00:20Z</time>
      </trkpt>
      <trkpt lat="44.31508" lon="5.8287">
        <ele>574</ele>
        <time>2019-06-07T07:00:21Z</time>
      </trkpt>
      <trkpt lat="44.31504" lon="5.8287">
        <ele>574</ele>
        <time>2019-06-07T07:00:22Z</time>
      </trkpt>
      <trkpt lat="44.315" lon="5.82872">
        <ele>573</ele>
        <time>2019-06-07T07:00:23Z</time>
      </trkpt>
      <trkpt lat="44.31496" lon="5.82876">
        <ele>573</ele>
        <time>2019-06-07T07:00:24Z</time>
      </trkpt>
      <trkpt lat="44.31493" lon="5.8288">
        <ele>572</ele>
        <time>2019-06-07T07:00:25Z</time>
      </trkpt>
      <trkpt lat="44.3149" lon="5.82884">
        <ele>571</ele>
        <time>2019-06-07T07:00:26Z</time>
      </trkpt>
      <trkpt lat="44.31487" lon="5.82889">
        <ele>570</ele>
        <time>2019-06-07T07:00:27Z</time>
      </trkpt>
      <trkpt lat="44.31484" lon="5.82893">
        <ele>570</ele>
        <time>2019-06-07T07:00:28Z</time>
      </trkpt>
      <trkpt lat="44.31482" lon="5.82897">
        <ele>569</ele>
        <time>2019-06-07T07:00:29Z</time>
      </trkpt>
      <trkpt lat="44.3148" lon="5.82902">
        <ele>569</ele>
        <time>2019-06-07T07:00:30Z</time>
      </trkpt>
      <trkpt lat="44.31477" lon="5.82907">
        <ele>569</ele>
        <time>2019-06-07T07:00:31Z</time>
      </trkpt>
      <trkpt lat="44.31473" lon="5.82912">
        <ele>569</ele>
        <time>2019-06-07T07:00:32Z</time>
      </trkpt>
      <trkpt lat="44.31469" lon="5.82917">
        <ele>569</ele>
        <time>2019-06-07T07:00:33Z</time>
      </trkpt>
      <trkpt lat="44.31466" lon="5.82922">
        <ele>569</ele>
        <time>2019-06-07T07:00:34Z</time>
      </trkpt>
      <trkpt lat="44.31463" lon="5.82926">
        <ele>569</ele>
        <time>2019-06-07T07:00:35Z</time>
      </trkpt>
      <trkpt lat="44.3146" lon="5.82931">
        <ele>569</ele>
        <time>2019-06-07T07:00:36Z</time>
      </trkpt>
      <trkpt lat="44.31456" lon="5.82936">
        <ele>569</ele>
        <time>2019-06-07T07:00:37Z</time>
      </trkpt>
      <trkpt lat="44.31453" lon="5.82941">
        <ele>569</ele>
        <time>2019-06-07T07:00:38Z</time>
      </trkpt>
      <trkpt lat="44.31449" lon="5.82946">
        <ele>568</ele>
        <time>2019-06-07T07:00:39Z</time>
      </trkpt>
      <trkpt lat="44.31445" lon="5.82952">
        <ele>567</ele>
        <time>2019-06-07T07:00:40Z</time>
      </trkpt>
      <trkpt lat="44.31441" lon="5.82957">
        <ele>567</ele>
        <time>2019-06-07T07:00:41Z</time>
      </trkpt>
      <trkpt lat="44.31438" lon="5.82962">
        <ele>567</ele>
        <time>2019-06-07T07:00:42Z</time>
      </trkpt>
      <trkpt lat="44.31434" lon="5.82967">
        <ele>567</ele>
        <time>2019-06-07T07:00:43Z</time>
      </trkpt>
      <trkpt lat="44.31431" lon="5.82972">
        <ele>566</ele>
        <time>2019-06-07T07:00:44Z</time>
      </trkpt>
      <trkpt lat="44.31427" lon="5.82977">
        <ele>566</ele>
        <time>2019-06-07T07:00:45Z</time>
      </trkpt>
      <trkpt lat="44.31424" lon="5.82982">
        <ele>566</ele>
        <time>2019-06-07T07:00:46Z</time>
      </trkpt>
      <trkpt lat="44.3142" lon="5.82988">
        <ele>566</ele>
        <time>2019-06-07T07:00:47Z</time>
      </trkpt>
      <trkpt lat="44.31417" lon="5.82993">
        <ele>566</ele>
        <time>2019-06-07T07:00:48Z</time>
      </trkpt>
      <trkpt lat="44.31413" lon="5.82999">
        <ele>566</ele>
        <time>2019-06-07T07:00:49Z</time>
      </trkpt>
      <trkpt lat="44.31409" lon="5.83005">
        <ele>566</ele>
        <time>2019-06-07T07:00:50Z</time>
      </trkpt>
      <trkpt lat="44.31406" lon="5.8301">
        <ele>566</ele>
        <time>2019-06-07T07:00:51Z</time>
      </trkpt>
      <trkpt lat="44.31402" lon="5.83015">
        <ele>566</ele>
        <time>2019-06-07T07:00:52Z</time>
      </trkpt>
      <trkpt lat="44.31398" lon="5.8302">
        <ele>566</ele>
        <time>2019-06-07T07:00:53Z</time>
      </trkpt>
      <trkpt lat="44.31395" lon="5.83025">
        <ele>566</ele>
        <time>2019-06-07T07:00:54Z</time>
      </trkpt>
      <trkpt lat="44.31391" lon="5.8303">
        <ele>566</ele>
        <time>2019-06-07T07:00:55Z</time>
      </trkpt>
      <trkpt lat="44.31388" lon="5.83034">
        <ele>566</ele>
        <time>2019-06-07T07:00:56Z</time>
      </trkpt>
      <trkpt lat="44.31385" lon="5.83039">
        <ele>566</ele>
        <time>2019-06-07T07:00:57Z</time>
      </trkpt>
      <trkpt lat="44.31381" lon="5.83043">
        <ele>566</ele>
        <time>2019-06-07T07:00:58Z</time>
      </trkpt>
      <trkpt lat="44.31378" lon="5.83048">
        <ele>566</ele>
        <time>2019-06-07T07:00:59Z</time>
      </trkpt>
      <trkpt lat="44.31376" lon="5.83053">
        <ele>566</ele>
        <time>2019-06-07T07:01:00Z</time>
      </trkpt>
      <trkpt lat="44.31373" lon="5.83058">
        <ele>566</ele>
        <time>2019-06-07T07:01:01Z</time>
      </trkpt>
      <trkpt lat="44.31371" lon="5.83063">
        <ele>566</ele>
        <time>2019-06-07T07:01:02Z</time>
      </trkpt>
      <trkpt lat="44.31368" lon="5.83068">
        <ele>566</ele>
        <time>2019-06-07T07:01:03Z</time>
      </trkpt>
      <trkpt lat="44.31366" lon="5.83074">
        <ele>566</ele>
        <time>2019-06-07T07:01:04Z</time>
      </trkpt>
      <trkpt lat="44.31364" lon="5.8308">
        <ele>566</ele>
        <time>2019-06-07T07:01:05Z</time>
      </trkpt>
      <trkpt lat="44.31361" lon="5.83087">
        <ele>566</ele>
        <time>2019-06-07T07:01:06Z</time>
      </trkpt>
      <trkpt lat="44.3136" lon="5.83092">
        <ele>566</ele>
        <time>2019-06-07T07:01:07Z</time>
      </trkpt>
      <trkpt lat="44.31359" lon="5.83095">
        <ele>566</ele>
        <time>2019-06-07T07:01:08Z</time>
      </trkpt>
      <trkpt lat="44.31356" lon="5.83099">
        <ele>566</ele>
        <time>2019-06-07T07:01:09Z</time>
      </trkpt>
      <trkpt lat="44.31353" lon="5.83101">
        <ele>566</ele>
        <time>2019-06-07T07:01:10Z</time>
      </trkpt>
      <trkpt lat="44.31351" lon="5.83101">
        <ele>566</ele>
        <time>2019-06-07T07:01:11Z</time>
      </trkpt>
      <trkpt lat="44.31349" lon="5.83099">
        <ele>566</ele>
        <time>2019-06-07T07:01:12Z</time>
      </trkpt>
      <trkpt lat="44.31347" lon="5.83096">
        <ele>566</ele>
        <time>2019-06-07T07:01:13Z</time>
      </trkpt>
      <trkpt lat="44.31346" lon="5.83093">
        <ele>566</ele>
        <time>2019-06-07T07:01:14Z</time>
      </trkpt>
      <trkpt lat="44.31345" lon="5.83088">
        <ele>566</ele>
        <time>2019-06-07T07:01:15Z</time>
      </trkpt>
      <trkpt lat="44.31345" lon="5.83083">
        <ele>566</ele>
        <time>2019-06-07T07:01:16Z</time>
      </trkpt>
      <trkpt lat="44.31345" lon="5.83078">
        <ele>566</ele>
        <time>2019-06-07T07:01:17Z</time>
      </trkpt>
      <trkpt lat="44.31345" lon="5.83073">
        <ele>566</ele>
        <time>2019-06-07T07:01:18Z</time>
      </trkpt>
      <trkpt lat="44.31345" lon="5.83068">
        <ele>566</ele>
        <time>2019-06-07T07:01:19Z</time>
      </trkpt>
      <trkpt lat="44.31345" lon="5.83062">
        <ele>566</ele>
        <time>2019-06-07T07:01:20Z</time>
      </trkpt>
      <trkpt lat="44.31347" lon="5.83055">
        <ele>566</ele>
        <time>2019-06-07T07:01:21Z</time>
      </trkpt>
      <trkpt lat="44.31349" lon="5.83049">
        <ele>566</ele>
        <time>2019-06-07T07:01:22Z</time>
      </trkpt>
      <trkpt lat="44.3135" lon="5.83042">
        <ele>566</ele>
        <time>2019-06-07T07:01:23Z</time>
      </trkpt>
      <trkpt lat="44.31351" lon="5.83035">
        <ele>566</ele>
        <time>2019-06-07T07:01:24Z</time>
      </trkpt>
      <trkpt lat="44.31353" lon="5.83028">
        <ele>567</ele>
        <time>2019-06-07T07:01:25Z</time>
      </trkpt>
      <trkpt lat="44.31354" lon="5.83021">
        <ele>567</ele>
        <time>2019-06-07T07:01:26Z</time>
      </trkpt>
      <trkpt lat="44.31355" lon="5.83013">
        <ele>567</ele>
        <time>2019-06-07T07:01:27Z</time>
      </trkpt>
      <trkpt lat="44.31356" lon="5.83005">
        <ele>567</ele>
        <time>2019-06-07T07:01:28Z</time>
      </trkpt>
      <trkpt lat="44.31357" lon="5.82997">
        <ele>567</ele>
        <time>2019-06-07T07:01:29Z</time>
      </trkpt>
      <trkpt lat="44.31358" lon="5.82989">
        <ele>567</ele>
        <time>2019-06-07T07:01:30Z</time>
      </trkpt>
      <trkpt lat="44.3136" lon="5.8298">
        <ele>567</ele>
        <time>2019-06-07T07:01:31Z</time>
      </trkpt>
      <trkpt lat="44.31361" lon="5.82971">
        <ele>567</ele>
        <time>2019-06-07T07:01:32Z</time>
      </trkpt>
      <trkpt lat="44.31362" lon="5.82961">
        <ele>567</ele>
        <time>2019-06-07T07:01:33Z</time>
      </trkpt>
      <trkpt lat="44.31363" lon="5.82951">
        <ele>567</ele>
        <time>2019-06-07T07:01:34Z</time>
      </trkpt>
      <trkpt lat="44.31364" lon="5.82942">
        <ele>567</ele>
        <time>2019-06-07T07:01:35Z</time>
      </trkpt>
      <trkpt lat="44.31365" lon="5.82932">
        <ele>567</ele>
        <time>2019-06-07T07:01:36Z</time>
      </trkpt>
      <trkpt lat="44.31366" lon="5.82923">
        <ele>567</ele>
        <time>2019-06-07T07:01:37Z</time>
      </trkpt>
      <trkpt lat="44.31367" lon="5.82913">
        <ele>567</ele>
        <time>2019-06-07T07:01:38Z</time>
      </trkpt>
      <trkpt lat="44.31368" lon="5.82904">
        <ele>567</ele>
        <time>2019-06-07T07:01:39Z</time>
      </trkpt>
      <trkpt lat="44.31369" lon="5.82895">
        <ele>567</ele>
        <time>2019-06-07T07:01:40Z</time>
      </trkpt>
      <trkpt lat="44.31369" lon="5.82886">
        <ele>567</ele>
        <time>2019-06-07T07:01:41Z</time>
      </trkpt>
      <trkpt lat="44.3137" lon="5.82876">
        <ele>567</ele>
        <time>2019-06-07T07:01:42Z</time>
      </trkpt>
      <trkpt lat="44.31371" lon="5.82867">
        <ele>567</ele>
        <time>2019-06-07T07:01:43Z</time>
      </trkpt>
      <trkpt lat="44.31372" lon="5.82858">
        <ele>567</ele>
        <time>2019-06-07T07:01:44Z</time>
      </trkpt>
      <trkpt lat="44.31373" lon="5.82849">
        <ele>567</ele>
        <time>2019-06-07T07:01:45Z</time>
      </trkpt>
      <trkpt lat="44.31374" lon="5.8284">
        <ele>567</ele>
        <time>2019-06-07T07:01:46Z</time>
      </trkpt>
      <trkpt lat="44.31374" lon="5.82831">
        <ele>567</ele>
        <time>2019-06-07T07:01:47Z</time>
      </trkpt>
      <trkpt lat="44.31376" lon="5.82823">
        <ele>567</ele>
        <time>2019-06-07T07:01:48Z</time>
      </trkpt>
      <trkpt lat="44.31377" lon="5.82814">
        <ele>567</ele>
        <time>2019-06-07T07:01:49Z</time>
      </trkpt>
      <trkpt lat="44.31377" lon="5.82806">
        <ele>567</ele>
        <time>2019-06-07T07:01:50Z</time>
      </trkpt>
      <trkpt lat="44.31379" lon="5.82797">
        <ele>567</ele>
        <time>2019-06-07T07:01:51Z</time>
      </trkpt>
      <trkpt lat="44.31379" lon="5.82788">
        <ele>567</ele>
        <time>2019-06-07T07:01:52Z</time>
      </trkpt>
      <trkpt lat="44.31379" lon="5.8278">
        <ele>567</ele>
        <time>2019-06-07T07:01:53Z</time>
      </trkpt>
      <trkpt lat="44.31379" lon="5.82771">
        <ele>567</ele>
        <time>2019-06-07T07:01:54Z</time>
      </trkpt>
      <trkpt lat="44.31379" lon="5.82762">
        <ele>567</ele>
        <time>2019-06-07T07:01:55Z</time>
      </trkpt>
      <trkpt lat="44.31379" lon="5.82754">
        <ele>567</ele>
        <time>2019-06-07T07:01:56Z</time>
      </trkpt>
      <trkpt lat="44.31379" lon="5.82746">
        <ele>567</ele>
        <time>2019-06-07T07:01:57Z</time>
      </trkpt>
      <trkpt lat="44.31379" lon="5.82737">
        <ele>567</ele>
        <time>2019-06-07T07:01:58Z</time>
      </trkpt>
      <trkpt lat="44.31378" lon="5.82729">
        <ele>567</ele>
        <time>2019-06-07T07:01:59Z</time>
      </trkpt>
      <trkpt lat="44.31377" lon="5.82721">
        <ele>567</ele>
        <time>2019-06-07T07:02:00Z</time>
      </trkpt>
      <trkpt lat="44.31376" lon="5.82713">
        <ele>567</ele>
        <time>2019-06-07T07:02:01Z</time>
      </trkpt>
      <trkpt lat="44.31375" lon="5.82706">
        <ele>567</ele>
        <time>2019-06-07T07:02:02Z</time>
      </trkpt>
      <trkpt lat="44.31375" lon="5.827">
        <ele>567</ele>
        <time>2019-06-07T07:02:03Z</time>
      </trkpt>
      <trkpt lat="44.31374" lon="5.82693">
        <ele>567</ele>
        <time>2019-06-07T07:02:04Z</time>
      </trkpt>
      <trkpt lat="44.31372" lon="5.82688">
        <ele>567</ele>
        <time>2019-06-07T07:02:05Z</time>
      </trkpt>
      <trkpt lat="44.31369" lon="5.82683">
        <ele>567</ele>
        <time>2019-06-07T07:02:06Z</time>
      </trkpt>
      <trkpt lat="44.31365" lon="5.82679">
        <ele>567</ele>
        <time>2019-06-07T07:02:07Z</time>
      </trkpt>
      <trkpt lat="44.3136" lon="5.82676">
        <ele>567</ele>
        <time>2019-06-07T07:02:08Z</time>
      </trkpt>
      <trkpt lat="44.31355" lon="5.82674">
        <ele>567</ele>
        <time>2019-06-07T07:02:09Z</time>
      </trkpt>
      <trkpt lat="44.3135" lon="5.82672">
        <ele>567</ele>
        <time>2019-06-07T07:02:10Z</time>
      </trkpt>
      <trkpt lat="44.31345" lon="5.8267">
        <ele>567</ele>
        <time>2019-06-07T07:02:11Z</time>
      </trkpt>
      <trkpt lat="44.3134" lon="5.82668">
        <ele>567</ele>
        <time>2019-06-07T07:02:12Z</time>
      </trkpt>
      <trkpt lat="44.31335" lon="5.82665">
        <ele>567</ele>
        <time>2019-06-07T07:02:13Z</time>
      </trkpt>
      <trkpt lat="44.3133" lon="5.82663">
        <ele>567</ele>
        <time>2019-06-07T07:02:14Z</time>
      </trkpt>
      <trkpt lat="44.31324" lon="5.8266">
        <ele>567</ele>
        <time>2019-06-07T07:02:15Z</time>
      </trkpt>
      <trkpt lat="44.31319" lon="5.82657">
        <ele>567</ele>
        <time>2019-06-07T07:02:16Z</time>
      </trkpt>
      <trkpt lat="44.31313" lon="5.82654">
        <ele>567</ele>
        <time>2019-06-07T07:02:17Z</time>
      </trkpt>
      <trkpt lat="44.31306" lon="5.82649">
        <ele>567</ele>
        <time>2019-06-07T07:02:18Z</time>
      </trkpt>
      <trkpt lat="44.31299" lon="5.82645">
        <ele>567</ele>
        <time>2019-06-07T07:02:19Z</time>
      </trkpt>
      <trkpt lat="44.31292" lon="5.8264">
        <ele>567</ele>
        <time>2019-06-07T07:02:20Z</time>
      </trkpt>
      <trkpt lat="44.31284" lon="5.82634">
        <ele>567</ele>
        <time>2019-06-07T07:02:21Z</time>
      </trkpt>
      <trkpt lat="44.31276" lon="5.8263">
        <ele>567</ele>
        <time>2019-06-07T07:02:22Z</time>
      </trkpt>
      <trkpt lat="44.31268" lon="5.82625">
        <ele>567</ele>
        <time>2019-06-07T07:02:23Z</time>
      </trkpt>
      <trkpt lat="44.3126" lon="5.8262">
        <ele>566</ele>
        <time>2019-06-07T07:02:24Z</time>
      </trkpt>
      <trkpt lat="44.31252" lon="5.82615">
        <ele>566</ele>
        <time>2019-06-07T07:02:25Z</time>
      </trkpt>
      <trkpt lat="44.31244" lon="5.82611">
        <ele>565</ele>
        <time>2019-06-07T07:02:26Z</time>
      </trkpt>
      <trkpt lat="44.31236" lon="5.82606">
        <ele>565</ele>
        <time>2019-06-07T07:02:27Z</time>
      </trkpt>
      <trkpt lat="44.31227" lon="5.82601">
        <ele>565</ele>
        <time>2019-06-07T07:02:28Z</time>
      </trkpt>
      <trkpt lat="44.31219" lon="5.82597">
        <ele>565</ele>
        <time>2019-06-07T07:02:29Z</time>
      </trkpt>
      <trkpt lat="44.31211" lon="5.82592">
        <ele>565</ele>
        <time>2019-06-07T07:02:30Z</time>
      </trkpt>
      <trkpt lat="44.31203" lon="5.82588">
        <ele>565</ele>
        <time>2019-06-07T07:02:31Z</time>
      </trkpt>
      <trkpt lat="44.31195" lon="5.82584">
        <ele>565</ele>
        <time>2019-06-07T07:02:32Z</time>
      </trkpt>
      <trkpt lat="44.31188" lon="5.82579">
        <ele>564</ele>
        <time>2019-06-07T07:02:33Z</time>
      </trkpt>
      <trkpt lat="44.31181" lon="5.82575">
        <ele>564</ele>
        <time>2019-06-07T07:02:34Z</time>
      </trkpt>
      <trkpt lat="44.31173" lon="5.82571">
        <ele>564</ele>
        <time>2019-06-07T07:02:35Z</time>
      </trkpt>
      <trkpt lat="44.31166" lon="5.82567">
        <ele>564</ele>
        <time>2019-06-07T07:02:36Z</time>
      </trkpt>
      <trkpt lat="44.31159" lon="5.82563">
        <ele>564</ele>
        <time>2019-06-07T07:02:37Z</time>
      </trkpt>
      <trkpt lat="44.31152" lon="5.82559">
        <ele>564</ele>
        <time>2019-06-07T07:02:38Z</time>
      </trkpt>
      <trkpt lat="44.31145" lon="5.82555">
        <ele>564</ele>
        <time>2019-06-07T07:02:39Z</time>
      </trkpt>
      <trkpt lat="44.31139" lon="5.82552">
        <ele>564</ele>
        <time>2019-06-07T07:02:40Z</time>
      </trkpt>
      <trkpt lat="44.31131" lon="5.82548">
        <ele>564</ele>
        <time>2019-06-07T07:02:41Z</time>
      </trkpt>
      <trkpt lat="44.31124" lon="5.82544">
        <ele>563</ele>
        <time>2019-06-07T07:02:42Z</time>
      </trkpt>
      <trkpt lat="44.31118" lon="5.82541">
        <ele>563</ele>
        <time>2019-06-07T07:02:43Z</time>
      </trkpt>
      <trkpt lat="44.3111" lon="5.82537">
        <ele>563</ele>
        <time>2019-06-07T07:02:44Z</time>
      </trkpt>
      <trkpt lat="44.31103" lon="5.82533">
        <ele>563</ele>
        <time>2019-06-07T07:02:45Z</time>
      </trkpt>
      <trkpt lat="44.31097" lon="5.82529">
        <ele>563</ele>
        <time>2019-06-07T07:02:46Z</time>
      </trkpt>
      <trkpt lat="44.3109" lon="5.82524">
        <ele>563</ele>
        <time>2019-06-07T07:02:47Z</time>
      </trkpt>
      <trkpt lat="44.31084" lon="5.82519">
        <ele>563</ele>
        <time>2019-06-07T07:02:48Z</time>
      </trkpt>
      <trkpt lat="44.31079" lon="5.82513">
        <ele>563</ele>
        <time>2019-06-07T07:02:49Z</time>
      </trkpt>
      <trkpt lat="44.31075" lon="5.82506">
        <ele>563</ele>
        <time>2019-06-07T07:02:50Z</time>
      </trkpt>
      <trkpt lat="44.31073" lon="5.82498">
        <ele>563</ele>
        <time>2019-06-07T07:02:51Z</time>
      </trkpt>
      <trkpt lat="44.31073" lon="5.82489">
        <ele>563</ele>
        <time>2019-06-07T07:02:52Z</time>
      </trkpt>
      <trkpt lat="44.31074" lon="5.82481">
        <ele>563</ele>
        <time>2019-06-07T07:02:53Z</time>
      </trkpt>
      <trkpt lat="44.31076" lon="5.82473">
        <ele>563</ele>
        <time>2019-06-07T07:02:54Z</time>
      </trkpt>
      <trkpt lat="44.31079" lon="5.82465">
        <ele>563</ele>
        <time>2019-06-07T07:02:55Z</time>
      </trkpt>
      <trkpt lat="44.31082" lon="5.82459">
        <ele>563</ele>
        <time>2019-06-07T07:02:56Z</time>
      </trkpt>
      <trkpt lat="44.31085" lon="5.82452">
        <ele>563</ele>
        <time>2019-06-07T07:02:57Z</time>
      </trkpt>
      <trkpt lat="44.31088" lon="5.82445">
        <ele>563</ele>
        <time>2019-06-07T07:02:58Z</time>
      </trkpt>
      <trkpt lat="44.31091" lon="5.82439">
        <ele>563</ele>
        <time>2019-06-07T07:02:59Z</time>
      </trkpt>
      <trkpt lat="44.31094" lon="5.82432">
        <ele>563</ele>
        <time>2019-06-07T07:03:00Z</time>
      </trkpt>
      <trkpt lat="44.31097" lon="5.82424">
        <ele>563</ele>
        <time>2019-06-07T07:03:01Z</time>
      </trkpt>
      <trkpt lat="44.31099" lon="5.82416">
        <ele>563</ele>
        <time>2019-06-07T07:03:02Z</time>
      </trkpt>
      <trkpt lat="44.31102" lon="5.82409">
        <ele>563</ele>
        <time>2019-06-07T07:03:03Z</time>
      </trkpt>
      <trkpt lat="44.31105" lon="5.824">
        <ele>563</ele>
        <time>2019-06-07T07:03:04Z</time>
      </trkpt>
      <trkpt lat="44.31107" lon="5.8239">
        <ele>563</ele>
        <time>2019-06-07T07:03:05Z</time>
      </trkpt>
      <trkpt lat="44.31107" lon="5.8238">
        <ele>563</ele>
        <time>2019-06-07T07:03:06Z</time>
      </trkpt>
      <trkpt lat="44.31108" lon="5.8237">
        <ele>563</ele>
        <time>2019-06-07T07:03:07Z</time>
      </trkpt>
      <trkpt lat="44.3111" lon="5.82361">
        <ele>563</ele>
        <time>2019-06-07T07:03:08Z</time>
      </trkpt>
      <trkpt lat="44.31114" lon="5.82351">
        <ele>563</ele>
        <time>2019-06-07T07:03:09Z</time>
      </trkpt>
      <trkpt lat="44.31118" lon="5.82343">
        <ele>562</ele>
        <time>2019-06-07T07:03:10Z</time>
      </trkpt>
      <trkpt lat="44.31122" lon="5.82335">
        <ele>562</ele>
        <time>2019-06-07T07:03:11Z</time>
      </trkpt>
      <trkpt lat="44.31127" lon="5.82329">
        <ele>562</ele>
        <time>2019-06-07T07:03:12Z</time>
      </trkpt>
      <trkpt lat="44.31131" lon="5.82322">
        <ele>562</ele>
        <time>2019-06-07T07:03:13Z</time>
      </trkpt>
      <trkpt lat="44.31136" lon="5.82315">
        <ele>562</ele>
        <time>2019-06-07T07:03:14Z</time>
      </trkpt>
      <trkpt lat="44.3114" lon="5.8231">
        <ele>562</ele>
        <time>2019-06-07T07:03:15Z</time>
      </trkpt>
      <trkpt lat="44.31143" lon="5.82304">
        <ele>562</ele>
        <time>2019-06-07T07:03:16Z</time>
      </trkpt>
      <trkpt lat="44.31146" lon="5.823">
        <ele>562</ele>
        <time>2019-06-07T07:03:17Z</time>
      </trkpt>
      <trkpt lat="44.31149" lon="5.82296">
        <ele>562</ele>
        <time>2019-06-07T07:03:18Z</time>
      </trkpt>
      <trkpt lat="44.31151" lon="5.82292">
        <ele>562</ele>
        <time>2019-06-07T07:03:19Z</time>
      </trkpt>
      <trkpt lat="44.31153" lon="5.82289">
        <ele>562</ele>
        <time>2019-06-07T07:03:20Z</time>
      </trkpt>
      <trkpt lat="44.31153" lon="5.82285">
        <ele>562</ele>
        <time>2019-06-07T07:03:21Z</time>
      </trkpt>
      <trkpt lat="44.31153" lon="5.82283">
        <ele>562</ele>
        <time>2019-06-07T07:03:22Z</time>
      </trkpt>
      <trkpt lat="44.31152" lon="5.82281">
        <ele>562</ele>
        <time>2019-06-07T07:03:23Z</time>
      </trkpt>
      <trkpt lat="44.31151" lon="5.8228">
        <ele>562</ele>
        <time>2019-06-07T07:03:24Z</time>
      </trkpt>
      <trkpt lat="44.3115" lon="5.8228">
        <ele>562</ele>
        <time>2019-06-07T07:03:37Z</time>
      </trkpt>
      <trkpt lat="44.3115" lon="5.82278">
        <ele>562</ele>
        <time>2019-06-07T07:03:46Z</time>
      </trkpt>
      <trkpt lat="44.3115" lon="5.82276">
        <ele>562</ele>
        <time>2019-06-07T07:03:47Z</time>
      </trkpt>
      <trkpt lat="44.31149" lon="5.82274">
        <ele>562</ele>
        <time>2019-06-07T07:03:48Z</time>
      </trkpt>
      <trkpt lat="44.31148" lon="5.82271">
        <ele>562</ele>
        <time>2019-06-07T07:03:49Z</time>
      </trkpt>
      <trkpt lat="44.31147" lon="5.82268">
        <ele>562</ele>
        <time>2019-06-07T07:03:50Z</time>
      </trkpt>
      <trkpt lat="44.31145" lon="5.82265">
        <ele>562</ele>
        <time>2019-06-07T07:03:51Z</time>
      </trkpt>
      <trkpt lat="44.31142" lon="5.82262">
        <ele>562</ele>
        <time>2019-06-07T07:03:52Z</time>
      </trkpt>
      <trkpt lat="44.31139" lon="5.82259">
        <ele>562</ele>
        <time>2019-06-07T07:03:53Z</time>
      </trkpt>
      <trkpt lat="44.31136" lon="5.82255">
        <ele>562</ele>
        <time>2019-06-07T07:03:54Z</time>
      </trkpt>
      <trkpt lat="44.31134" lon="5.82252">
        <ele>562</ele>
        <time>2019-06-07T07:03:55Z</time>
      </trkpt>
      <trkpt lat="44.31131" lon="5.82247">
        <ele>561</ele>
        <time>2019-06-07T07:03:56Z</time>
      </trkpt>
      <trkpt lat="44.31128" lon="5.82243">
        <ele>561</ele>
        <time>2019-06-07T07:03:57Z</time>
      </trkpt>
      <trkpt lat="44.31125" lon="5.82239">
        <ele>561</ele>
        <time>2019-06-07T07:03:58Z</time>
      </trkpt>
      <trkpt lat="44.31122" lon="5.82234">
        <ele>561</ele>
        <time>2019-06-07T07:03:59Z</time>
      </trkpt>
      <trkpt lat="44.31119" lon="5.82231">
        <ele>560</ele>
        <time>2019-06-07T07:04:00Z</time>
      </trkpt>
      <trkpt lat="44.31115" lon="5.82228">
        <ele>560</ele>
        <time>2019-06-07T07:04:01Z</time>
      </trkpt>
      <trkpt lat="44.31112" lon="5.82224">
        <ele>560</ele>
        <time>2019-06-07T07:04:02Z</time>
      </trkpt>
      <trkpt lat="44.31109" lon="5.82222">
        <ele>560</ele>
        <time>2019-06-07T07:04:03Z</time>
      </trkpt>
      <trkpt lat="44.31106" lon="5.82219">
        <ele>560</ele>
        <time>2019-06-07T07:04:04Z</time>
      </trkpt>
      <trkpt lat="44.31103" lon="5.82216">
        <ele>560</ele>
        <time>2019-06-07T07:04:05Z</time>
      </trkpt>
      <trkpt lat="44.31101" lon="5.82213">
        <ele>559</ele>
        <time>2019-06-07T07:04:06Z</time>
      </trkpt>
      <trkpt lat="44.31099" lon="5.8221">
        <ele>559</ele>
        <time>2019-06-07T07:04:07Z</time>
      </trkpt>
      <trkpt lat="44.31097" lon="5.82208">
        <ele>559</ele>
        <time>2019-06-07T07:04:08Z</time>
      </trkpt>
      <trkpt lat="44.31096" lon="5.82207">
        <ele>559</ele>
        <time>2019-06-07T07:04:09Z</time>
      </trkpt>
      <trkpt lat="44.31096" lon="5.82205">
        <ele>559</ele>
        <time>2019-06-07T07:04:10Z</time>
      </trkpt>
      <trkpt lat="44.31095" lon="5.82203">
        <ele>559</ele>
        <time>2019-06-07T07:04:11Z</time>
      </trkpt>
      <trkpt lat="44.31094" lon="5.82202">
        <ele>559</ele>
        <time>2019-06-07T07:04:12Z</time>
      </trkpt>
      <trkpt lat="44.31092" lon="5.822">
        <ele>559</ele>
        <time>2019-06-07T07:04:14Z</time>
      </trkpt>
      <trkpt lat="44.31092" lon="5.82198">
        <ele>559</ele>
        <time>2019-06-07T07:04:16Z</time>
      </trkpt>
      <trkpt lat="44.31091" lon="5.82197">
        <ele>559</ele>
        <time>2019-06-07T07:04:30Z</time>
      </trkpt>
      <trkpt lat="44.3109" lon="5.82196">
        <ele>559</ele>
        <time>2019-06-07T07:04:41Z</time>
      </trkpt>
      <trkpt lat="44.31089" lon="5.82194">
        <ele>559</ele>
        <time>2019-06-07T07:04:48Z</time>
      </trkpt>
      <trkpt lat="44.31089" lon="5.82192">
        <ele>559</ele>
        <time>2019-06-07T07:04:52Z</time>
      </trkpt>
      <trkpt lat="44.31088" lon="5.82191">
        <ele>559</ele>
        <time>2019-06-07T07:04:54Z</time>
      </trkpt>
      <trkpt lat="44.31088" lon="5.82189">
        <ele>559</ele>
        <time>2019-06-07T07:04:57Z</time>
      </trkpt>
      <trkpt lat="44.31087" lon="5.82188">
        <ele>559</ele>
        <time>2019-06-07T07:05:01Z</time>
      </trkpt>
      <trkpt lat="44.31086" lon="5.82188">
        <ele>559</ele>
        <time>2019-06-07T07:05:05Z</time>
      </trkpt>
      <trkpt lat="44.31086" lon="5.82189">
        <ele>559</ele>
        <time>2019-06-07T07:05:09Z</time>
      </trkpt>
      <trkpt lat="44.31084" lon="5.82187">
        <ele>559</ele>
        <time>2019-06-07T07:05:17Z</time>
      </trkpt>
      <trkpt lat="44.31083" lon="5.82186">
        <ele>559</ele>
        <time>2019-06-07T07:05:18Z</time>
      </trkpt>
      <trkpt lat="44.31081" lon="5.82185">
        <ele>559</ele>
        <time>2019-06-07T07:05:19Z</time>
      </trkpt>
      <trkpt lat="44.3108" lon="5.82184">
        <ele>559</ele>
        <time>2019-06-07T07:05:20Z</time>
      </trkpt>
      <trkpt lat="44.31079" lon="5.82182">
        <ele>559</ele>
        <time>2019-06-07T07:05:21Z</time>
      </trkpt>
      <trkpt lat="44.31078" lon="5.82179">
        <ele>559</ele>
        <time>2019-06-07T07:05:22Z</time>
      </trkpt>
      <trkpt lat="44.31076" lon="5.82178">
        <ele>559</ele>
        <time>2019-06-07T07:05:23Z</time>
      </trkpt>
      <trkpt lat="44.31074" lon="5.82176">
        <ele>559</ele>
        <time>2019-06-07T07:05:24Z</time>
      </trkpt>
      <trkpt lat="44.31072" lon="5.82174">
        <ele>559</ele>
        <time>2019-06-07T07:05:25Z</time>
      </trkpt>
      <trkpt lat="44.3107" lon="5.82171">
        <ele>559</ele>
        <time>2019-06-07T07:05:26Z</time>
      </trkpt>
      <trkpt lat="44.31068" lon="5.82169">
        <ele>559</ele>
        <time>2019-06-07T07:05:27Z</time>
      </trkpt>
      <trkpt lat="44.31066" lon="5.82167">
        <ele>559</ele>
        <time>2019-06-07T07:05:28Z</time>
      </trkpt>
      <trkpt lat="44.31064" lon="5.82164">
        <ele>559</ele>
        <time>2019-06-07T07:05:29Z</time>
      </trkpt>
      <trkpt lat="44.31062" lon="5.82161">
        <ele>559</ele>
        <time>2019-06-07T07:05:30Z</time>
      </trkpt>
      <trkpt lat="44.31059" lon="5.82157">
        <ele>559</ele>
        <time>2019-06-07T07:05:31Z</time>
      </trkpt>
      <trkpt lat="44.31057" lon="5.82154">
        <ele>559</ele>
        <time>2019-06-07T07:05:32Z</time>
      </trkpt>
      <trkpt lat="44.31055" lon="5.82152">
        <ele>559</ele>
        <time>2019-06-07T07:05:33Z</time>
      </trkpt>
      <trkpt lat="44.31052" lon="5.82148">
        <ele>559</ele>
        <time>2019-06-07T07:05:34Z</time>
      </trkpt>
      <trkpt lat="44.3105" lon="5.82144">
        <ele>559</ele>
        <time>2019-06-07T07:05:35Z</time>
      </trkpt>
      <trkpt lat="44.31047" lon="5.82141">
        <ele>559</ele>
        <time>2019-06-07T07:05:36Z</time>
      </trkpt>
      <trkpt lat="44.31044" lon="5.82137">
        <ele>559</ele>
        <time>2019-06-07T07:05:37Z</time>
      </trkpt>
      <trkpt lat="44.31041" lon="5.82132">
        <ele>559</ele>
        <time>2019-06-07T07:05:38Z</time>
      </trkpt>
      <trkpt lat="44.31039" lon="5.82129">
        <ele>559</ele>
        <time>2019-06-07T07:05:39Z</time>
      </trkpt>
      <trkpt lat="44.31036" lon="5.82125">
        <ele>559</ele>
        <time>2019-06-07T07:05:40Z</time>
      </trkpt>
      <trkpt lat="44.31033" lon="5.82122">
        <ele>559</ele>
        <time>2019-06-07T07:05:41Z</time>
      </trkpt>
      <trkpt lat="44.3103" lon="5.82118">
        <ele>559</ele>
        <time>2019-06-07T07:05:42Z</time>
      </trkpt>
      <trkpt lat="44.31026" lon="5.82114">
        <ele>559</ele>
        <time>2019-06-07T07:05:43Z</time>
      </trkpt>
      <trkpt lat="44.31024" lon="5.82109">
        <ele>559</ele>
        <time>2019-06-07T07:05:44Z</time>
      </trkpt>
      <trkpt lat="44.3102" lon="5.82105">
        <ele>558</ele>
        <time>2019-06-07T07:05:45Z</time>
      </trkpt>
      <trkpt lat="44.31017" lon="5.82101">
        <ele>558</ele>
        <time>2019-06-07T07:05:46Z</time>
      </trkpt>
      <trkpt lat="44.31014" lon="5.82097">
        <ele>558</ele>
        <time>2019-06-07T07:05:47Z</time>
      </trkpt>
      <trkpt lat="44.3101" lon="5.82093">
        <ele>558</ele>
        <time>2019-06-07T07:05:48Z</time>
      </trkpt>
      <trkpt lat="44.31007" lon="5.82088">
        <ele>558</ele>
        <time>2019-06-07T07:05:49Z</time>
      </trkpt>
      <trkpt lat="44.31003" lon="5.82084">
        <ele>558</ele>
        <time>2019-06-07T07:05:50Z</time>
      </trkpt>
      <trkpt lat="44.31" lon="5.8208">
        <ele>558</ele>
        <time>2019-06-07T07:05:51Z</time>
      </trkpt>
      <trkpt lat="44.30996" lon="5.82076">
        <ele>558</ele>
        <time>2019-06-07T07:05:52Z</time>
      </trkpt>
      <trkpt lat="44.30993" lon="5.82072">
        <ele>558</ele>
        <time>2019-06-07T07:05:53Z</time>
      </trkpt>
      <trkpt lat="44.30989" lon="5.82068">
        <ele>558</ele>
        <time>2019-06-07T07:05:54Z</time>
      </trkpt>
      <trkpt lat="44.30985" lon="5.82065">
        <ele>558</ele>
        <time>2019-06-07T07:05:55Z</time>
      </trkpt>
      <trkpt lat="44.30981" lon="5.82061">
        <ele>558</ele>
        <time>2019-06-07T07:05:56Z</time>
      </trkpt>
      <trkpt lat="44.30977" lon="5.82058">
        <ele>558</ele>
        <time>2019-06-07T07:05:57Z</time>
      </trkpt>
      <trkpt lat="44.30973" lon="5.82055">
        <ele>558</ele>
        <time>2019-06-07T07:05:58Z</time>
      </trkpt>
      <trkpt lat="44.30969" lon="5.82052">
        <ele>558</ele>
        <time>2019-06-07T07:05:59Z</time>
      </trkpt>
      <trkpt lat="44.30965" lon="5.82049">
        <ele>558</ele>
        <time>2019-06-07T07:06:00Z</time>
      </trkpt>
      <trkpt lat="44.3096" lon="5.82046">
        <ele>558</ele>
        <time>2019-06-07T07:06:01Z</time>
      </trkpt>
      <trkpt lat="44.30956" lon="5.82043">
        <ele>558</ele>
        <time>2019-06-07T07:06:02Z</time>
      </trkpt>
      <trkpt lat="44.30951" lon="5.82041">
        <ele>558</ele>
        <time>2019-06-07T07:06:03Z</time>
      </trkpt>
      <trkpt lat="44.30947" lon="5.82038">
        <ele>558</ele>
        <time>2019-06-07T07:06:04Z</time>
      </trkpt>
      <trkpt lat="44.30942" lon="5.82037">
        <ele>558</ele>
        <time>2019-06-07T07:06:05Z</time>
      </trkpt>
      <trkpt lat="44.30937" lon="5.82035">
        <ele>558</ele>
        <time>2019-06-07T07:06:06Z</time>
      </trkpt>
      <trkpt lat="44.30932" lon="5.82035">
        <ele>558</ele>
        <time>2019-06-07T07:06:07Z</time>
      </trkpt>
      <trkpt lat="44.30927" lon="5.82034">
        <ele>558</ele>
        <time>2019-06-07T07:06:08Z</time>
      </trkpt>
      <trkpt lat="44.30922" lon="5.82035">
        <ele>558</ele>
        <time>2019-06-07T07:06:09Z</time>
      </trkpt>
      <trkpt lat="44.30918" lon="5.82035">
        <ele>558</ele>
        <time>2019-06-07T07:06:10Z</time>
      </trkpt>
      <trkpt lat="44.30914" lon="5.82036">
        <ele>558</ele>
        <time>2019-06-07T07:06:11Z</time>
      </trkpt>
      <trkpt lat="44.30909" lon="5.82037">
        <ele>558</ele>
        <time>2019-06-07T07:06:12Z</time>
      </trkpt>
      <trkpt lat="44.30904" lon="5.82038">
        <ele>558</ele>
        <time>2019-06-07T07:06:13Z</time>
      </trkpt>
      <trkpt lat="44.309" lon="5.8204">
        <ele>558</ele>
        <time>2019-06-07T07:06:14Z</time>
      </trkpt>
      <trkpt lat="44.30895" lon="5.82041">
        <ele>558</ele>
        <time>2019-06-07T07:06:15Z</time>
      </trkpt>
      <trkpt lat="44.30891" lon="5.82042">
        <ele>558</ele>
        <time>2019-06-07T07:06:16Z</time>
      </trkpt>
      <trkpt lat="44.30886" lon="5.82044">
        <ele>558</ele>
        <time>2019-06-07T07:06:17Z</time>
      </trkpt>
      <trkpt lat="44.30882" lon="5.82045">
        <ele>558</ele>
        <time>2019-06-07T07:06:18Z</time>
      </trkpt>
      <trkpt lat="44.30878" lon="5.82047">
        <ele>558</ele>
        <time>2019-06-07T07:06:19Z</time>
      </trkpt>
      <trkpt lat="44.30874" lon="5.82048">
        <ele>558</ele>
        <time>2019-06-07T07:06:20Z</time>
      </trkpt>
      <trkpt lat="44.3087" lon="5.8205">
        <ele>558</ele>
        <time>2019-06-07T07:06:21Z</time>
      </trkpt>
      <trkpt lat="44.30866" lon="5.82051">
        <ele>558</ele>
        <time>2019-06-07T07:06:22Z</time>
      </trkpt>
      <trkpt lat="44.30862" lon="5.82052">
        <ele>558</ele>
        <time>2019-06-07T07:06:23Z</time>
      </trkpt>
      <trkpt lat="44.30857" lon="5.82054">
        <ele>558</ele>
        <time>2019-06-07T07:06:24Z</time>
      </trkpt>
      <trkpt lat="44.30853" lon="5.82055">
        <ele>558</ele>
        <time>2019-06-07T07:06:25Z</time>
      </trkpt>
      <trkpt lat="44.30849" lon="5.82056">
        <ele>558</ele>
        <time>2019-06-07T07:06:26Z</time>
      </trkpt>
      <trkpt lat="44.30844" lon="5.82058">
        <ele>558</ele>
        <time>2019-06-07T07:06:27Z</time>
      </trkpt>
      <trkpt lat="44.3084" lon="5.82059">
        <ele>558</ele>
        <time>2019-06-07T07:06:28Z</time>
      </trkpt>
      <trkpt lat="44.30836" lon="5.82061">
        <ele>558</ele>
        <time>2019-06-07T07:06:29Z</time>
      </trkpt>
      <trkpt lat="44.30832" lon="5.82062">
        <ele>558</ele>
        <time>2019-06-07T07:06:30Z</time>
      </trkpt>
      <trkpt lat="44.30827" lon="5.82063">
        <ele>558</ele>
        <time>2019-06-07T07:06:31Z</time>
      </trkpt>
      <trkpt lat="44.30822" lon="5.82064">
        <ele>558</ele>
        <time>2019-06-07T07:06:32Z</time>
      </trkpt>
      <trkpt lat="44.30818" lon="5.82066">
        <ele>558</ele>
        <time>2019-06-07T07:06:33Z</time>
      </trkpt>
      <trkpt lat="44.30814" lon="5.82068">
        <ele>558</ele>
        <time>2019-06-07T07:06:34Z</time>
      </trkpt>
      <trkpt lat="44.30809" lon="5.82069">
        <ele>558</ele>
        <time>2019-06-07T07:06:35Z</time>
      </trkpt>
      <trkpt lat="44.30804" lon="5.8207">
        <ele>558</ele>
        <time>2019-06-07T07:06:36Z</time>
      </trkpt>
      <trkpt lat="44.30799" lon="5.82072">
        <ele>558</ele>
        <time>2019-06-07T07:06:37Z</time>
      </trkpt>
      <trkpt lat="44.30794" lon="5.82073">
        <ele>558</ele>
        <time>2019-06-07T07:06:38Z</time>
      </trkpt>
      <trkpt lat="44.30789" lon="5.82075">
        <ele>558</ele>
        <time>2019-06-07T07:06:39Z</time>
      </trkpt>
      <trkpt lat="44.30784" lon="5.82077">
        <ele>558</ele>
        <time>2019-06-07T07:06:40Z</time>
      </trkpt>
      <trkpt lat="44.30779" lon="5.8208">
        <ele>558</ele>
        <time>2019-06-07T07:06:41Z</time>
      </trkpt>
      <trkpt lat="44.30774" lon="5.82082">
        <ele>558</ele>
        <time>2019-06-07T07:06:42Z</time>
      </trkpt>
      <trkpt lat="44.30769" lon="5.82084">
        <ele>558</ele>
        <time>2019-06-07T07:06:43Z</time>
      </trkpt>
      <trkpt lat="44.30765" lon="5.82086">
        <ele>558</ele>
        <time>2019-06-07T07:06:44Z</time>
      </trkpt>
      <trkpt lat="44.30761" lon="5.8209">
        <ele>558</ele>
        <time>2019-06-07T07:06:45Z</time>
      </trkpt>
      <trkpt lat="44.30756" lon="5.82093">
        <ele>558</ele>
        <time>2019-06-07T07:06:46Z</time>
      </trkpt>
      <trkpt lat="44.30753" lon="5.82097">
        <ele>558</ele>
        <time>2019-06-07T07:06:47Z</time>
      </trkpt>
      <trkpt lat="44.30749" lon="5.82102">
        <ele>558</ele>
        <time>2019-06-07T07:06:48Z</time>
      </trkpt>
      <trkpt lat="44.30746" lon="5.82107">
        <ele>558</ele>
        <time>2019-06-07T07:06:49Z</time>
      </trkpt>
      <trkpt lat="44.30743" lon="5.82113">
        <ele>558</ele>
        <time>2019-06-07T07:06:50Z</time>
      </trkpt>
      <trkpt lat="44.30741" lon="5.82118">
        <ele>558</ele>
        <time>2019-06-07T07:06:51Z</time>
      </trkpt>
      <trkpt lat="44.30739" lon="5.82125">
        <ele>558</ele>
        <time>2019-06-07T07:06:52Z</time>
      </trkpt>
      <trkpt lat="44.30737" lon="5.82131">
        <ele>558</ele>
        <time>2019-06-07T07:06:53Z</time>
      </trkpt>
      <trkpt lat="44.30734" lon="5.82137">
        <ele>558</ele>
        <time>2019-06-07T07:06:54Z</time>
      </trkpt>
      <trkpt lat="44.30732" lon="5.82143">
        <ele>558</ele>
        <time>2019-06-07T07:06:55Z</time>
      </trkpt>
      <trkpt lat="44.3073" lon="5.82149">
        <ele>558</ele>
        <time>2019-06-07T07:06:56Z</time>
      </trkpt>
      <trkpt lat="44.30728" lon="5.82154">
        <ele>558</ele>
        <time>2019-06-07T07:06:57Z</time>
      </trkpt>
      <trkpt lat="44.30726" lon="5.8216">
        <ele>558</ele>
        <time>2019-06-07T07:06:58Z</time>
      </trkpt>
      <trkpt lat="44.30724" lon="5.82165">
        <ele>559</ele>
        <time>2019-06-07T07:06:59Z</time>
      </trkpt>
      <trkpt lat="44.30722" lon="5.82171">
        <ele>559</ele>
        <time>2019-06-07T07:07:00Z</time>
      </trkpt>
      <trkpt lat="44.3072" lon="5.82178">
        <ele>559</ele>
        <time>2019-06-07T07:07:01Z</time>
      </trkpt>
      <trkpt lat="44.30717" lon="5.82184">
        <ele>559</ele>
        <time>2019-06-07T07:07:02Z</time>
      </trkpt>
      <trkpt lat="44.30714" lon="5.82189">
        <ele>559</ele>
        <time>2019-06-07T07:07:03Z</time>
      </trkpt>
      <trkpt lat="44.30712" lon="5.82196">
        <ele>559</ele>
        <time>2019-06-07T07:07:04Z</time>
      </trkpt>
      <trkpt lat="44.30709" lon="5.82201">
        <ele>559</ele>
        <time>2019-06-07T07:07:05Z</time>
      </trkpt>
      <trkpt lat="44.30707" lon="5.82206">
        <ele>559</ele>
        <time>2019-06-07T07:07:06Z</time>
      </trkpt>
      <trkpt lat="44.30705" lon="5.82211">
        <ele>559</ele>
        <time>2019-06-07T07:07:07Z</time>
      </trkpt>
      <trkpt lat="44.30702" lon="5.82216">
        <ele>559</ele>
        <time>2019-06-07T07:07:08Z</time>
      </trkpt>
      <trkpt lat="44.307" lon="5.82221">
        <ele>559</ele>
        <time>2019-06-07T07:07:09Z</time>
      </trkpt>
      <trkpt lat="44.30697" lon="5.82225">
        <ele>559</ele>
        <time>2019-06-07T07:07:10Z</time>
      </trkpt>
      <trkpt lat="44.30693" lon="5.82228">
        <ele>559</ele>
        <time>2019-06-07T07:07:11Z</time>
      </trkpt>
      <trkpt lat="44.3069" lon="5.82228">
        <ele>559</ele>
        <time>2019-06-07T07:07:12Z</time>
      </trkpt>
      <trkpt lat="44.30686" lon="5.82226">
        <ele>559</ele>
        <time>2019-06-07T07:07:13Z</time>
      </trkpt>
      <trkpt lat="44.30683" lon="5.82224">
        <ele>559</ele>
        <time>2019-06-07T07:07:14Z</time>
      </trkpt>
      <trkpt lat="44.30681" lon="5.82221">
        <ele>559</ele>
        <time>2019-06-07T07:07:15Z</time>
      </trkpt>
      <trkpt lat="44.30682" lon="5.82217">
        <ele>559</ele>
        <time>2019-06-07T07:07:16Z</time>
      </trkpt>
      <trkpt lat="44.30686" lon="5.82212">
        <ele>559</ele>
        <time>2019-06-07T07:07:17Z</time>
      </trkpt>
      <trkpt lat="44.3069" lon="5.82207">
        <ele>559</ele>
        <time>2019-06-07T07:07:18Z</time>
      </trkpt>
      <trkpt lat="44.30692" lon="5.82203">
        <ele>559</ele>
        <time>2019-06-07T07:07:19Z</time>
      </trkpt>
      <trkpt lat="44.30694" lon="5.82199">
        <ele>559</ele>
        <time>2019-06-07T07:07:20Z</time>
      </trkpt>
      <trkpt lat="44.30697" lon="5.82194">
        <ele>559</ele>
        <time>2019-06-07T07:07:21Z</time>
      </trkpt>
      <trkpt lat="44.307" lon="5.82189">
        <ele>559</ele>
        <time>2019-06-07T07:07:22Z</time>
      </trkpt>
      <trkpt lat="44.30702" lon="5.82184">
        <ele>559</ele>
        <time>2019-06-07T07:07:23Z</time>
      </trkpt>
      <trkpt lat="44.30705" lon="5.82179">
        <ele>559</ele>
        <time>2019-06-07T07:07:24Z</time>
      </trkpt>
      <trkpt lat="44.30707" lon="5.82174">
        <ele>559</ele>
        <time>2019-06-07T07:07:25Z</time>
      </trkpt>
      <trkpt lat="44.30709" lon="5.8217">
        <ele>559</ele>
        <time>2019-06-07T07:07:26Z</time>
      </trkpt>
      <trkpt lat="44.30711" lon="5.82165">
        <ele>560</ele>
        <time>2019-06-07T07:07:27Z</time>
      </trkpt>
      <trkpt lat="44.30712" lon="5.82161">
        <ele>560</ele>
        <time>2019-06-07T07:07:28Z</time>
      </trkpt>
      <trkpt lat="44.30713" lon="5.82156">
        <ele>561</ele>
        <time>2019-06-07T07:07:29Z</time>
      </trkpt>
      <trkpt lat="44.30714" lon="5.82152">
        <ele>561</ele>
        <time>2019-06-07T07:07:30Z</time>
      </trkpt>
      <trkpt lat="44.30715" lon="5.82147">
        <ele>561</ele>
        <time>2019-06-07T07:07:31Z</time>
      </trkpt>
      <trkpt lat="44.30716" lon="5.82142">
        <ele>562</ele>
        <time>2019-06-07T07:07:32Z</time>
      </trkpt>
      <trkpt lat="44.30716" lon="5.82137">
        <ele>562</ele>
        <time>2019-06-07T07:07:33Z</time>
      </trkpt>
      <trkpt lat="44.30717" lon="5.82132">
        <ele>562</ele>
        <time>2019-06-07T07:07:34Z</time>
      </trkpt>
      <trkpt lat="44.30718" lon="5.82128">
        <ele>563</ele>
        <time>2019-06-07T07:07:35Z</time>
      </trkpt>
      <trkpt lat="44.30718" lon="5.82123">
        <ele>563</ele>
        <time>2019-06-07T07:07:36Z</time>
      </trkpt>
      <trkpt lat="44.30718" lon="5.82119">
        <ele>563</ele>
        <time>2019-06-07T07:07:37Z</time>
      </trkpt>
      <trkpt lat="44.30718" lon="5.82114">
        <ele>564</ele>
        <time>2019-06-07T07:07:38Z</time>
      </trkpt>
      <trkpt lat="44.30718" lon="5.82109">
        <ele>564</ele>
        <time>2019-06-07T07:07:39Z</time>
      </trkpt>
      <trkpt lat="44.30717" lon="5.82105">
        <ele>565</ele>
        <time>2019-06-07T07:07:40Z</time>
      </trkpt>
      <trkpt lat="44.30716" lon="5.821">
        <ele>565</ele>
        <time>2019-06-07T07:07:41Z</time>
      </trkpt>
      <trkpt lat="44.30716" lon="5.82095">
        <ele>566</ele>
        <time>2019-06-07T07:07:42Z</time>
      </trkpt>
      <trkpt lat="44.30715" lon="5.8209">
        <ele>566</ele>
        <time>2019-06-07T07:07:43Z</time>
      </trkpt>
      <trkpt lat="44.30714" lon="5.82086">
        <ele>567</ele>
        <time>2019-06-07T07:07:44Z</time>
      </trkpt>
      <trkpt lat="44.30713" lon="5.82081">
        <ele>567</ele>
        <time>2019-06-07T07:07:45Z</time>
      </trkpt>
      <trkpt lat="44.30712" lon="5.82077">
        <ele>567</ele>
        <time>2019-06-07T07:07:46Z</time>
      </trkpt>
      <trkpt lat="44.30711" lon="5.82073">
        <ele>568</ele>
        <time>2019-06-07T07:07:47Z</time>
      </trkpt>
      <trkpt lat="44.30709" lon="5.82068">
        <ele>568</ele>
        <time>2019-06-07T07:07:48Z</time>
      </trkpt>
      <trkpt lat="44.30708" lon="5.82064">
        <ele>569</ele>
        <time>2019-06-07T07:07:49Z</time>
      </trkpt>
      <trkpt lat="44.30707" lon="5.82059">
        <ele>569</ele>
        <time>2019-06-07T07:07:50Z</time>
      </trkpt>
      <trkpt lat="44.30707" lon="5.82054">
        <ele>569</ele>
        <time>2019-06-07T07:07:51Z</time>
      </trkpt>
      <trkpt lat="44.30706" lon="5.8205">
        <ele>569</ele>
        <time>2019-06-07T07:07:52Z</time>
      </trkpt>
      <trkpt lat="44.30706" lon="5.82046">
        <ele>570</ele>
        <time>2019-06-07T07:07:53Z</time>
      </trkpt>
      <trkpt lat="44.30706" lon="5.82041">
        <ele>570</ele>
        <time>2019-06-07T07:07:54Z</time>
      </trkpt>
      <trkpt lat="44.30706" lon="5.82037">
        <ele>570</ele>
        <time>2019-06-07T07:07:55Z</time>
      </trkpt>
      <trkpt lat="44.30706" lon="5.82033">
        <ele>570</ele>
        <time>2019-06-07T07:07:56Z</time>
      </trkpt>
      <trkpt lat="44.30707" lon="5.82028">
        <ele>571</ele>
        <time>2019-06-07T07:07:57Z</time>
      </trkpt>
      <trkpt lat="44.30707" lon="5.82023">
        <ele>571</ele>
        <time>2019-06-07T07:07:58Z</time>
      </trkpt>
      <trkpt lat="44.30707" lon="5.82019">
        <ele>571</ele>
        <time>2019-06-07T07:07:59Z</time>
      </trkpt>
      <trkpt lat="44.30707" lon="5.82014">
        <ele>571</ele>
        <time>2019-06-07T07:08:00Z</time>
      </trkpt>
      <trkpt lat="44.30707" lon="5.82009">
        <ele>571</ele>
        <time>2019-06-07T07:08:01Z</time>
      </trkpt>
      <trkpt lat="44.30708" lon="5.82005">
        <ele>571</ele>
        <time>2019-06-07T07:08:02Z</time>
      </trkpt>
      <trkpt lat="44.30708" lon="5.82">
        <ele>572</ele>
        <time>2019-06-07T07:08:03Z</time>
      </trkpt>
      <trkpt lat="44.30708" lon="5.81996">
        <ele>572</ele>
        <time>2019-06-07T07:08:04Z</time>
      </trkpt>
      <trkpt lat="44.30709" lon="5.81991">
        <ele>572</ele>
        <time>2019-06-07T07:08:05Z</time>
      </trkpt>
      <trkpt lat="44.3071" lon="5.81987">
        <ele>572</ele>
        <time>2019-06-07T07:08:06Z</time>
      </trkpt>
      <trkpt lat="44.30711" lon="5.81982">
        <ele>572</ele>
        <time>2019-06-07T07:08:07Z</time>
      </trkpt>
      <trkpt lat="44.30712" lon="5.81978">
        <ele>572</ele>
        <time>2019-06-07T07:08:08Z</time>
      </trkpt>
      <trkpt lat="44.30713" lon="5.81974">
        <ele>572</ele>
        <time>2019-06-07T07:08:09Z</time>
      </trkpt>
      <trkpt lat="44.30714" lon="5.81969">
        <ele>572</ele>
        <time>2019-06-07T07:08:10Z</time>
      </trkpt>
      <trkpt lat="44.30714" lon="5.81964">
        <ele>573</ele>
        <time>2019-06-07T07:08:11Z</time>
      </trkpt>
      <trkpt lat="44.30715" lon="5.8196">
        <ele>573</ele>
        <time>2019-06-07T07:08:12Z</time>
      </trkpt>
      <trkpt lat="44.30716" lon="5.81956">
        <ele>573</ele>
        <time>2019-06-07T07:08:13Z</time>
      </trkpt>
      <trkpt lat="44.30716" lon="5.81952">
        <ele>573</ele>
        <time>2019-06-07T07:08:14Z</time>
      </trkpt>
      <trkpt lat="44.30717" lon="5.81948">
        <ele>574</ele>
        <time>2019-06-07T07:08:15Z</time>
      </trkpt>
      <trkpt lat="44.30718" lon="5.81944">
        <ele>574</ele>
        <time>2019-06-07T07:08:16Z</time>
      </trkpt>
      <trkpt lat="44.30719" lon="5.81939">
        <ele>574</ele>
        <time>2019-06-07T07:08:17Z</time>
      </trkpt>
      <trkpt lat="44.3072" lon="5.81934">
        <ele>574</ele>
        <time>2019-06-07T07:08:18Z</time>
      </trkpt>
      <trkpt lat="44.30721" lon="5.81929">
        <ele>575</ele>
        <time>2019-06-07T07:08:19Z</time>
      </trkpt>
      <trkpt lat="44.30722" lon="5.81925">
        <ele>575</ele>
        <time>2019-06-07T07:08:20Z</time>
      </trkpt>
      <trkpt lat="44.30723" lon="5.8192">
        <ele>576</ele>
        <time>2019-06-07T07:08:21Z</time>
      </trkpt>
      <trkpt lat="44.30724" lon="5.81916">
        <ele>576</ele>
        <time>2019-06-07T07:08:22Z</time>
      </trkpt>
      <trkpt lat="44.30724" lon="5.81911">
        <ele>576</ele>
        <time>2019-06-07T07:08:23Z</time>
      </trkpt>
      <trkpt lat="44.30725" lon="5.81907">
        <ele>577</ele>
        <time>2019-06-07T07:08:24Z</time>
      </trkpt>
      <trkpt lat="44.30726" lon="5.81902">
        <ele>577</ele>
        <time>2019-06-07T07:08:25Z</time>
      </trkpt>
      <trkpt lat="44.30727" lon="5.81898">
        <ele>577</ele>
        <time>2019-06-07T07:08:26Z</time>
      </trkpt>
      <trkpt lat="44.30728" lon="5.81893">
        <ele>577</ele>
        <time>2019-06-07T07:08:27Z</time>
      </trkpt>
      <trkpt lat="44.30729" lon="5.81889">
        <ele>578</ele>
        <time>2019-06-07T07:08:28Z</time>
      </trkpt>
      <trkpt lat="44.3073" lon="5.81885">
        <ele>578</ele>
        <time>2019-06-07T07:08:29Z</time>
      </trkpt>
      <trkpt lat="44.30731" lon="5.81881">
        <ele>578</ele>
        <time>2019-06-07T07:08:30Z</time>
      </trkpt>
      <trkpt lat="44.30732" lon="5.81876">
        <ele>579</ele>
        <time>2019-06-07T07:08:31Z</time>
      </trkpt>
      <trkpt lat="44.30733" lon="5.81872">
        <ele>579</ele>
        <time>2019-06-07T07:08:32Z</time>
      </trkpt>
      <trkpt lat="44.30734" lon="5.81867">
        <ele>579</ele>
        <time>2019-06-07T07:08:33Z</time>
      </trkpt>
      <trkpt lat="44.30735" lon="5.81863">
        <ele>580</ele>
        <time>2019-06-07T07:08:34Z</time>
      </trkpt>
      <trkpt lat="44.30735" lon="5.81858">
        <ele>580</ele>
        <time>2019-06-07T07:08:35Z</time>
      </trkpt>
      <trkpt lat="44.30736" lon="5.81854">
        <ele>580</ele>
        <time>2019-06-07T07:08:36Z</time>
      </trkpt>
      <trkpt lat="44.30737" lon="5.81849">
        <ele>581</ele>
        <time>2019-06-07T07:08:37Z</time>
      </trkpt>
      <trkpt lat="44.30738" lon="5.81845">
        <ele>581</ele>
        <time>2019-06-07T07:08:38Z</time>
      </trkpt>
      <trkpt lat="44.30739" lon="5.8184">
        <ele>581</ele>
        <time>2019-06-07T07:08:39Z</time>
      </trkpt>
      <trkpt lat="44.3074" lon="5.81836">
        <ele>582</ele>
        <time>2019-06-07T07:08:40Z</time>
      </trkpt>
      <trkpt lat="44.30742" lon="5.81832">
        <ele>582</ele>
        <time>2019-06-07T07:08:41Z</time>
      </trkpt>
      <trkpt lat="44.30743" lon="5.81828">
        <ele>582</ele>
        <time>2019-06-07T07:08:42Z</time>
      </trkpt>
      <trkpt lat="44.30744" lon="5.81824">
        <ele>582</ele>
        <time>2019-06-07T07:08:43Z</time>
      </trkpt>
      <trkpt lat="44.30745" lon="5.8182">
        <ele>583</ele>
        <time>2019-06-07T07:08:44Z</time>
      </trkpt>
      <trkpt lat="44.30746" lon="5.81817">
        <ele>583</ele>
        <time>2019-06-07T07:08:45Z</time>
      </trkpt>
      <trkpt lat="44.30748" lon="5.81813">
        <ele>583</ele>
        <time>2019-06-07T07:08:46Z</time>
      </trkpt>
      <trkpt lat="44.30749" lon="5.81809">
        <ele>583</ele>
        <time>2019-06-07T07:08:47Z</time>
      </trkpt>
      <trkpt lat="44.30751" lon="5.81805">
        <ele>584</ele>
        <time>2019-06-07T07:08:48Z</time>
      </trkpt>
      <trkpt lat="44.30753" lon="5.81801">
        <ele>584</ele>
        <time>2019-06-07T07:08:49Z</time>
      </trkpt>
      <trkpt lat="44.30753" lon="5.81797">
        <ele>584</ele>
        <time>2019-06-07T07:08:50Z</time>
      </trkpt>
      <trkpt lat="44.30754" lon="5.81792">
        <ele>585</ele>
        <time>2019-06-07T07:08:51Z</time>
      </trkpt>
      <trkpt lat="44.30755" lon="5.81788">
        <ele>585</ele>
        <time>2019-06-07T07:08:52Z</time>
      </trkpt>
      <trkpt lat="44.30756" lon="5.81783">
        <ele>585</ele>
        <time>2019-06-07T07:08:53Z</time>
      </trkpt>
      <trkpt lat="44.30757" lon="5.81779">
        <ele>586</ele>
        <time>2019-06-07T07:08:54Z</time>
      </trkpt>
      <trkpt lat="44.30758" lon="5.81775">
        <ele>586</ele>
        <time>2019-06-07T07:08:55Z</time>
      </trkpt>
      <trkpt lat="44.30759" lon="5.8177">
        <ele>586</ele>
        <time>2019-06-07T07:08:56Z</time>
      </trkpt>
      <trkpt lat="44.30761" lon="5.81766">
        <ele>587</ele>
        <time>2019-06-07T07:08:57Z</time>
      </trkpt>
      <trkpt lat="44.30762" lon="5.81762">
        <ele>587</ele>
        <time>2019-06-07T07:08:58Z</time>
      </trkpt>
      <trkpt lat="44.30763" lon="5.81758">
        <ele>587</ele>
        <time>2019-06-07T07:08:59Z</time>
      </trkpt>
      <trkpt lat="44.30764" lon="5.81754">
        <ele>588</ele>
        <time>2019-06-07T07:09:00Z</time>
      </trkpt>
      <trkpt lat="44.30766" lon="5.8175">
        <ele>588</ele>
        <time>2019-06-07T07:09:01Z</time>
      </trkpt>
      <trkpt lat="44.30767" lon="5.81746">
        <ele>588</ele>
        <time>2019-06-07T07:09:02Z</time>
      </trkpt>
      <trkpt lat="44.30769" lon="5.81742">
        <ele>588</ele>
        <time>2019-06-07T07:09:03Z</time>
      </trkpt>
      <trkpt lat="44.3077" lon="5.81739">
        <ele>588</ele>
        <time>2019-06-07T07:09:04Z</time>
      </trkpt>
      <trkpt lat="44.30771" lon="5.81735">
        <ele>589</ele>
        <time>2019-06-07T07:09:05Z</time>
      </trkpt>
      <trkpt lat="44.30772" lon="5.81731">
        <ele>589</ele>
        <time>2019-06-07T07:09:06Z</time>
      </trkpt>
      <trkpt lat="44.30774" lon="5.81727">
        <ele>589</ele>
        <time>2019-06-07T07:09:07Z</time>
      </trkpt>
      <trkpt lat="44.30775" lon="5.81723">
        <ele>589</ele>
        <time>2019-06-07T07:09:08Z</time>
      </trkpt>
      <trkpt lat="44.30777" lon="5.8172">
        <ele>589</ele>
        <time>2019-06-07T07:09:09Z</time>
      </trkpt>
      <trkpt lat="44.30779" lon="5.81716">
        <ele>589</ele>
        <time>2019-06-07T07:09:10Z</time>
      </trkpt>
      <trkpt lat="44.3078" lon="5.81712">
        <ele>590</ele>
        <time>2019-06-07T07:09:11Z</time>
      </trkpt>
      <trkpt lat="44.30782" lon="5.81708">
        <ele>590</ele>
        <time>2019-06-07T07:09:12Z</time>
      </trkpt>
      <trkpt lat="44.30783" lon="5.81704">
        <ele>591</ele>
        <time>2019-06-07T07:09:13Z</time>
      </trkpt>
      <trkpt lat="44.30785" lon="5.817">
        <ele>591</ele>
        <time>2019-06-07T07:09:14Z</time>
      </trkpt>
      <trkpt lat="44.30785" lon="5.81695">
        <ele>591</ele>
        <time>2019-06-07T07:09:15Z</time>
      </trkpt>
      <trkpt lat="44.30786" lon="5.81691">
        <ele>591</ele>
        <time>2019-06-07T07:09:16Z</time>
      </trkpt>
      <trkpt lat="44.30788" lon="5.81687">
        <ele>592</ele>
        <time>2019-06-07T07:09:17Z</time>
      </trkpt>
      <trkpt lat="44.30789" lon="5.81683">
        <ele>592</ele>
        <time>2019-06-07T07:09:18Z</time>
      </trkpt>
      <trkpt lat="44.30791" lon="5.81679">
        <ele>592</ele>
        <time>2019-06-07T07:09:19Z</time>
      </trkpt>
      <trkpt lat="44.30792" lon="5.81675">
        <ele>593</ele>
        <time>2019-06-07T07:09:20Z</time>
      </trkpt>
      <trkpt lat="44.30793" lon="5.81671">
        <ele>593</ele>
        <time>2019-06-07T07:09:21Z</time>
      </trkpt>
      <trkpt lat="44.30795" lon="5.81667">
        <ele>593</ele>
        <time>2019-06-07T07:09:22Z</time>
      </trkpt>
      <trkpt lat="44.30796" lon="5.81663">
        <ele>593</ele>
        <time>2019-06-07T07:09:23Z</time>
      </trkpt>
      <trkpt lat="44.30797" lon="5.81658">
        <ele>594</ele>
        <time>2019-06-07T07:09:24Z</time>
      </trkpt>
      <trkpt lat="44.30798" lon="5.81654">
        <ele>594</ele>
        <time>2019-06-07T07:09:25Z</time>
      </trkpt>
      <trkpt lat="44.30798" lon="5.81649">
        <ele>594</ele>
        <time>2019-06-07T07:09:26Z</time>
      </trkpt>
      <trkpt lat="44.30799" lon="5.81645">
        <ele>595</ele>
        <time>2019-06-07T07:09:27Z</time>
      </trkpt>
      <trkpt lat="44.308" lon="5.81641">
        <ele>595</ele>
        <time>2019-06-07T07:09:28Z</time>
      </trkpt>
      <trkpt lat="44.308" lon="5.81637">
        <ele>595</ele>
        <time>2019-06-07T07:09:29Z</time>
      </trkpt>
      <trkpt lat="44.30801" lon="5.81633">
        <ele>595</ele>
        <time>2019-06-07T07:09:30Z</time>
      </trkpt>
      <trkpt lat="44.30802" lon="5.81629">
        <ele>596</ele>
        <time>2019-06-07T07:09:31Z</time>
      </trkpt>
      <trkpt lat="44.30803" lon="5.81625">
        <ele>596</ele>
        <time>2019-06-07T07:09:32Z</time>
      </trkpt>
      <trkpt lat="44.30803" lon="5.81621">
        <ele>596</ele>
        <time>2019-06-07T07:09:33Z</time>
      </trkpt>
      <trkpt lat="44.30804" lon="5.81617">
        <ele>596</ele>
        <time>2019-06-07T07:09:34Z</time>
      </trkpt>
      <trkpt lat="44.30804" lon="5.81613">
        <ele>596</ele>
        <time>2019-06-07T07:09:35Z</time>
      </trkpt>
      <trkpt lat="44.30805" lon="5.8161">
        <ele>597</ele>
        <time>2019-06-07T07:09:36Z</time>
      </trkpt>
      <trkpt lat="44.30806" lon="5.81606">
        <ele>597</ele>
        <time>2019-06-07T07:09:37Z</time>
      </trkpt>
      <trkpt lat="44.30806" lon="5.81602">
        <ele>597</ele>
        <time>2019-06-07T07:09:38Z</time>
      </trkpt>
      <trkpt lat="44.30807" lon="5.81598">
        <ele>597</ele>
        <time>2019-06-07T07:09:39Z</time>
      </trkpt>
      <trkpt lat="44.30808" lon="5.81594">
        <ele>597</ele>
        <time>2019-06-07T07:09:40Z</time>
      </trkpt>
      <trkpt lat="44.30808" lon="5.8159">
        <ele>597</ele>
        <time>2019-06-07T07:09:41Z</time>
      </trkpt>
      <trkpt lat="44.30809" lon="5.81586">
        <ele>598</ele>
        <time>2019-06-07T07:09:42Z</time>
      </trkpt>
      <trkpt lat="44.30809" lon="5.81582">
        <ele>598</ele>
        <time>2019-06-07T07:09:43Z</time>
      </trkpt>
      <trkpt lat="44.30809" lon="5.81578">
        <ele>598</ele>
        <time>2019-06-07T07:09:44Z</time>
      </trkpt>
      <trkpt lat="44.3081" lon="5.81573">
        <ele>598</ele>
        <time>2019-06-07T07:09:45Z</time>
      </trkpt>
      <trkpt lat="44.3081" lon="5.81569">
        <ele>598</ele>
        <time>2019-06-07T07:09:46Z</time>
      </trkpt>
      <trkpt lat="44.30811" lon="5.81565">
        <ele>599</ele>
        <time>2019-06-07T07:09:47Z</time>
      </trkpt>
      <trkpt lat="44.30811" lon="5.8156">
        <ele>599</ele>
        <time>2019-06-07T07:09:48Z</time>
      </trkpt>
      <trkpt lat="44.30812" lon="5.81556">
        <ele>599</ele>
        <time>2019-06-07T07:09:49Z</time>
      </trkpt>
      <trkpt lat="44.30813" lon="5.81552">
        <ele>599</ele>
        <time>2019-06-07T07:09:50Z</time>
      </trkpt>
      <trkpt lat="44.30813" lon="5.81548">
        <ele>599</ele>
        <time>2019-06-07T07:09:51Z</time>
      </trkpt>
      <trkpt lat="44.30814" lon="5.81544">
        <ele>600</ele>
        <time>2019-06-07T07:09:52Z</time>
      </trkpt>
      <trkpt lat="44.30814" lon="5.8154">
        <ele>600</ele>
        <time>2019-06-07T07:09:53Z</time>
      </trkpt>
      <trkpt lat="44.30815" lon="5.81536">
        <ele>600</ele>
        <time>2019-06-07T07:09:54Z</time>
      </trkpt>
      <trkpt lat="44.30815" lon="5.81532">
        <ele>600</ele>
        <time>2019-06-07T07:09:55Z</time>
      </trkpt>
      <trkpt lat="44.30815" lon="5.81528">
        <ele>601</ele>
        <time>2019-06-07T07:09:56Z</time>
      </trkpt>
      <trkpt lat="44.30816" lon="5.81524">
        <ele>601</ele>
        <time>2019-06-07T07:09:57Z</time>
      </trkpt>
      <trkpt lat="44.30817" lon="5.8152">
        <ele>601</ele>
        <time>2019-06-07T07:09:58Z</time>
      </trkpt>
      <trkpt lat="44.30819" lon="5.81515">
        <ele>602</ele>
        <time>2019-06-07T07:09:59Z</time>
      </trkpt>
      <trkpt lat="44.30819" lon="5.81511">
        <ele>602</ele>
        <time>2019-06-07T07:10:00Z</time>
      </trkpt>
      <trkpt lat="44.3082" lon="5.81507">
        <ele>602</ele>
        <time>2019-06-07T07:10:01Z</time>
      </trkpt>
      <trkpt lat="44.30822" lon="5.81502">
        <ele>603</ele>
        <time>2019-06-07T07:10:02Z</time>
      </trkpt>
      <trkpt lat="44.30822" lon="5.81498">
        <ele>603</ele>
        <time>2019-06-07T07:10:03Z</time>
      </trkpt>
      <trkpt lat="44.30824" lon="5.81494">
        <ele>604</ele>
        <time>2019-06-07T07:10:04Z</time>
      </trkpt>
      <trkpt lat="44.30825" lon="5.8149">
        <ele>604</ele>
        <time>2019-06-07T07:10:05Z</time>
      </trkpt>
      <trkpt lat="44.30826" lon="5.81486">
        <ele>604</ele>
        <time>2019-06-07T07:10:06Z</time>
      </trkpt>
      <trkpt lat="44.30827" lon="5.81482">
        <ele>605</ele>
        <time>2019-06-07T07:10:07Z</time>
      </trkpt>
      <trkpt lat="44.30828" lon="5.81479">
        <ele>605</ele>
        <time>2019-06-07T07:10:08Z</time>
      </trkpt>
      <trkpt lat="44.30828" lon="5.81475">
        <ele>605</ele>
        <time>2019-06-07T07:10:09Z</time>
      </trkpt>
      <trkpt lat="44.30829" lon="5.81472">
        <ele>606</ele>
        <time>2019-06-07T07:10:10Z</time>
      </trkpt>
      <trkpt lat="44.3083" lon="5.81468">
        <ele>606</ele>
        <time>2019-06-07T07:10:11Z</time>
      </trkpt>
      <trkpt lat="44.30831" lon="5.81464">
        <ele>606</ele>
        <time>2019-06-07T07:10:12Z</time>
      </trkpt>
      <trkpt lat="44.30832" lon="5.8146">
        <ele>606</ele>
        <time>2019-06-07T07:10:13Z</time>
      </trkpt>
      <trkpt lat="44.30832" lon="5.81457">
        <ele>606</ele>
        <time>2019-06-07T07:10:14Z</time>
      </trkpt>
      <trkpt lat="44.30832" lon="5.81453">
        <ele>606</ele>
        <time>2019-06-07T07:10:15Z</time>
      </trkpt>
      <trkpt lat="44.30833" lon="5.81449">
        <ele>607</ele>
        <time>2019-06-07T07:10:16Z</time>
      </trkpt>
      <trkpt lat="44.30834" lon="5.81446">
        <ele>607</ele>
        <time>2019-06-07T07:10:17Z</time>
      </trkpt>
      <trkpt lat="44.30834" lon="5.81442">
        <ele>607</ele>
        <time>2019-06-07T07:10:18Z</time>
      </trkpt>
      <trkpt lat="44.30834" lon="5.81438">
        <ele>607</ele>
        <time>2019-06-07T07:10:19Z</time>
      </trkpt>
      <trkpt lat="44.30835" lon="5.81435">
        <ele>607</ele>
        <time>2019-06-07T07:10:20Z</time>
      </trkpt>
      <trkpt lat="44.30835" lon="5.81431">
        <ele>607</ele>
        <time>2019-06-07T07:10:21Z</time>
      </trkpt>
      <trkpt lat="44.30835" lon="5.81428">
        <ele>607</ele>
        <time>2019-06-07T07:10:22Z</time>
      </trkpt>
      <trkpt lat="44.30836" lon="5.81424">
        <ele>607</ele>
        <time>2019-06-07T07:10:23Z</time>
      </trkpt>
      <trkpt lat="44.30837" lon="5.8142">
        <ele>607</ele>
        <time>2019-06-07T07:10:24Z</time>
      </trkpt>
      <trkpt lat="44.30837" lon="5.81416">
        <ele>607</ele>
        <time>2019-06-07T07:10:25Z</time>
      </trkpt>
      <trkpt lat="44.30838" lon="5.81412">
        <ele>607</ele>
        <time>2019-06-07T07:10:26Z</time>
      </trkpt>
      <trkpt lat="44.30838" lon="5.81408">
        <ele>608</ele>
        <time>2019-06-07T07:10:27Z</time>
      </trkpt>
      <trkpt lat="44.30838" lon="5.81404">
        <ele>608</ele>
        <time>2019-06-07T07:10:28Z</time>
      </trkpt>
      <trkpt lat="44.30838" lon="5.81401">
        <ele>608</ele>
        <time>2019-06-07T07:10:29Z</time>
      </trkpt>
      <trkpt lat="44.30839" lon="5.81397">
        <ele>608</ele>
        <time>2019-06-07T07:10:30Z</time>
      </trkpt>
      <trkpt lat="44.30839" lon="5.81393">
        <ele>608</ele>
        <time>2019-06-07T07:10:31Z</time>
      </trkpt>
      <trkpt lat="44.3084" lon="5.81389">
        <ele>608</ele>
        <time>2019-06-07T07:10:32Z</time>
      </trkpt>
      <trkpt lat="44.3084" lon="5.81385">
        <ele>609</ele>
        <time>2019-06-07T07:10:33Z</time>
      </trkpt>
      <trkpt lat="44.3084" lon="5.81381">
        <ele>609</ele>
        <time>2019-06-07T07:10:34Z</time>
      </trkpt>
      <trkpt lat="44.3084" lon="5.81377">
        <ele>609</ele>
        <time>2019-06-07T07:10:35Z</time>
      </trkpt>
      <trkpt lat="44.30841" lon="5.81373">
        <ele>610</ele>
        <time>2019-06-07T07:10:36Z</time>
      </trkpt>
      <trkpt lat="44.30842" lon="5.81369">
        <ele>610</ele>
        <time>2019-06-07T07:10:37Z</time>
      </trkpt>
      <trkpt lat="44.30843" lon="5.81364">
        <ele>610</ele>
        <time>2019-06-07T07:10:38Z</time>
      </trkpt>
      <trkpt lat="44.30844" lon="5.8136">
        <ele>611</ele>
        <time>2019-06-07T07:10:39Z</time>
      </trkpt>
      <trkpt lat="44.30845" lon="5.81355">
        <ele>611</ele>
        <time>2019-06-07T07:10:40Z</time>
      </trkpt>
      <trkpt lat="44.30846" lon="5.8135">
        <ele>612</ele>
        <time>2019-06-07T07:10:41Z</time>
      </trkpt>
      <trkpt lat="44.30847" lon="5.81346">
        <ele>613</ele>
        <time>2019-06-07T07:10:42Z</time>
      </trkpt>
      <trkpt lat="44.30848" lon="5.81341">
        <ele>613</ele>
        <time>2019-06-07T07:10:43Z</time>
      </trkpt>
      <trkpt lat="44.30849" lon="5.81337">
        <ele>613</ele>
        <time>2019-06-07T07:10:44Z</time>
      </trkpt>
      <trkpt lat="44.3085" lon="5.81333">
        <ele>613</ele>
        <time>2019-06-07T07:10:45Z</time>
      </trkpt>
      <trkpt lat="44.30851" lon="5.81329">
        <ele>613</ele>
        <time>2019-06-07T07:10:46Z</time>
      </trkpt>
      <trkpt lat="44.30853" lon="5.81325">
        <ele>613</ele>
        <time>2019-06-07T07:10:47Z</time>
      </trkpt>
      <trkpt lat="44.30854" lon="5.81322">
        <ele>613</ele>
        <time>2019-06-07T07:10:48Z</time>
      </trkpt>
      <trkpt lat="44.30855" lon="5.81318">
        <ele>613</ele>
        <time>2019-06-07T07:10:49Z</time>
      </trkpt>
      <trkpt lat="44.30856" lon="5.81315">
        <ele>613</ele>
        <time>2019-06-07T07:10:50Z</time>
      </trkpt>
      <trkpt lat="44.30858" lon="5.81311">
        <ele>613</ele>
        <time>2019-06-07T07:10:51Z</time>
      </trkpt>
      <trkpt lat="44.30859" lon="5.81307">
        <ele>613</ele>
        <time>2019-06-07T07:10:52Z</time>
      </trkpt>
      <trkpt lat="44.30861" lon="5.81303">
        <ele>613</ele>
        <time>2019-06-07T07:10:53Z</time>
      </trkpt>
      <trkpt lat="44.30862" lon="5.81299">
        <ele>614</ele>
        <time>2019-06-07T07:10:54Z</time>
      </trkpt>
      <trkpt lat="44.30863" lon="5.81294">
        <ele>614</ele>
        <time>2019-06-07T07:10:55Z</time>
      </trkpt>
      <trkpt lat="44.30864" lon="5.8129">
        <ele>614</ele>
        <time>2019-06-07T07:10:56Z</time>
      </trkpt>
      <trkpt lat="44.30866" lon="5.81285">
        <ele>614</ele>
        <time>2019-06-07T07:10:57Z</time>
      </trkpt>
      <trkpt lat="44.30867" lon="5.81281">
        <ele>614</ele>
        <time>2019-06-07T07:10:58Z</time>
      </trkpt>
      <trkpt lat="44.30868" lon="5.81276">
        <ele>614</ele>
        <time>2019-06-07T07:10:59Z</time>
      </trkpt>
      <trkpt lat="44.30869" lon="5.81272">
        <ele>614</ele>
        <time>2019-06-07T07:11:00Z</time>
      </trkpt>
      <trkpt lat="44.3087" lon="5.81267">
        <ele>614</ele>
        <time>2019-06-07T07:11:01Z</time>
      </trkpt>
      <trkpt lat="44.30872" lon="5.81262">
        <ele>614</ele>
        <time>2019-06-07T07:11:02Z</time>
      </trkpt>
      <trkpt lat="44.30873" lon="5.81257">
        <ele>614</ele>
        <time>2019-06-07T07:11:03Z</time>
      </trkpt>
      <trkpt lat="44.30875" lon="5.81252">
        <ele>614</ele>
        <time>2019-06-07T07:11:04Z</time>
      </trkpt>
      <trkpt lat="44.30877" lon="5.81248">
        <ele>614</ele>
        <time>2019-06-07T07:11:05Z</time>
      </trkpt>
      <trkpt lat="44.30878" lon="5.81242">
        <ele>614</ele>
        <time>2019-06-07T07:11:06Z</time>
      </trkpt>
      <trkpt lat="44.3088" lon="5.81237">
        <ele>615</ele>
        <time>2019-06-07T07:11:07Z</time>
      </trkpt>
      <trkpt lat="44.30883" lon="5.81231">
        <ele>616</ele>
        <time>2019-06-07T07:11:08Z</time>
      </trkpt>
      <trkpt lat="44.30885" lon="5.81226">
        <ele>616</ele>
        <time>2019-06-07T07:11:09Z</time>
      </trkpt>
      <trkpt lat="44.30886" lon="5.81221">
        <ele>616</ele>
        <time>2019-06-07T07:11:10Z</time>
      </trkpt>
      <trkpt lat="44.30888" lon="5.81215">
        <ele>617</ele>
        <time>2019-06-07T07:11:11Z</time>
      </trkpt>
      <trkpt lat="44.3089" lon="5.81209">
        <ele>617</ele>
        <time>2019-06-07T07:11:12Z</time>
      </trkpt>
      <trkpt lat="44.30892" lon="5.81203">
        <ele>617</ele>
        <time>2019-06-07T07:11:13Z</time>
      </trkpt>
      <trkpt lat="44.30893" lon="5.81198">
        <ele>617</ele>
        <time>2019-06-07T07:11:14Z</time>
      </trkpt>
      <trkpt lat="44.30895" lon="5.81192">
        <ele>618</ele>
        <time>2019-06-07T07:11:15Z</time>
      </trkpt>
      <trkpt lat="44.30897" lon="5.81187">
        <ele>618</ele>
        <time>2019-06-07T07:11:16Z</time>
      </trkpt>
      <trkpt lat="44.30899" lon="5.81181">
        <ele>618</ele>
        <time>2019-06-07T07:11:17Z</time>
      </trkpt>
      <trkpt lat="44.30901" lon="5.81175">
        <ele>618</ele>
        <time>2019-06-07T07:11:18Z</time>
      </trkpt>
      <trkpt lat="44.30902" lon="5.8117">
        <ele>618</ele>
        <time>2019-06-07T07:11:19Z</time>
      </trkpt>
      <trkpt lat="44.30904" lon="5.81164">
        <ele>618</ele>
        <time>2019-06-07T07:11:20Z</time>
      </trkpt>
      <trkpt lat="44.30906" lon="5.81158">
        <ele>618</ele>
        <time>2019-06-07T07:11:21Z</time>
      </trkpt>
      <trkpt lat="44.30907" lon="5.81153">
        <ele>618</ele>
        <time>2019-06-07T07:11:22Z</time>
      </trkpt>
      <trkpt lat="44.30909" lon="5.81147">
        <ele>618</ele>
        <time>2019-06-07T07:11:23Z</time>
      </trkpt>
      <trkpt lat="44.30911" lon="5.81141">
        <ele>618</ele>
        <time>2019-06-07T07:11:24Z</time>
      </trkpt>
      <trkpt lat="44.30913" lon="5.81135">
        <ele>618</ele>
        <time>2019-06-07T07:11:25Z</time>
      </trkpt>
      <trkpt lat="44.30914" lon="5.81129">
        <ele>618</ele>
        <time>2019-06-07T07:11:26Z</time>
      </trkpt>
      <trkpt lat="44.30916" lon="5.81122">
        <ele>618</ele>
        <time>2019-06-07T07:11:27Z</time>
      </trkpt>
      <trkpt lat="44.30918" lon="5.81116">
        <ele>618</ele>
        <time>2019-06-07T07:11:28Z</time>
      </trkpt>
      <trkpt lat="44.3092" lon="5.81109">
        <ele>618</ele>
        <time>2019-06-07T07:11:29Z</time>
      </trkpt>
      <trkpt lat="44.30921" lon="5.81102">
        <ele>618</ele>
        <time>2019-06-07T07:11:30Z</time>
      </trkpt>
      <trkpt lat="44.30923" lon="5.81094">
        <ele>618</ele>
        <time>2019-06-07T07:11:31Z</time>
      </trkpt>
      <trkpt lat="44.30924" lon="5.81087">
        <ele>618</ele>
        <time>2019-06-07T07:11:32Z</time>
      </trkpt>
      <trkpt lat="44.30926" lon="5.8108">
        <ele>618</ele>
        <time>2019-06-07T07:11:33Z</time>
      </trkpt>
      <trkpt lat="44.30928" lon="5.81073">
        <ele>618</ele>
        <time>2019-06-07T07:11:34Z</time>
      </trkpt>
      <trkpt lat="44.30929" lon="5.81067">
        <ele>618</ele>
        <time>2019-06-07T07:11:35Z</time>
      </trkpt>
      <trkpt lat="44.30931" lon="5.81061">
        <ele>618</ele>
        <time>2019-06-07T07:11:36Z</time>
      </trkpt>
      <trkpt lat="44.30933" lon="5.81054">
        <ele>618</ele>
        <time>2019-06-07T07:11:37Z</time>
      </trkpt>
      <trkpt lat="44.30935" lon="5.81047">
        <ele>618</ele>
        <time>2019-06-07T07:11:38Z</time>
      </trkpt>
      <trkpt lat="44.30937" lon="5.8104">
        <ele>618</ele>
        <time>2019-06-07T07:11:39Z</time>
      </trkpt>
      <trkpt lat="44.30939" lon="5.81034">
        <ele>618</ele>
        <time>2019-06-07T07:11:40Z</time>
      </trkpt>
      <trkpt lat="44.30941" lon="5.81028">
        <ele>618</ele>
        <time>2019-06-07T07:11:41Z</time>
      </trkpt>
      <trkpt lat="44.30943" lon="5.81022">
        <ele>618</ele>
        <time>2019-06-07T07:11:42Z</time>
      </trkpt>
      <trkpt lat="44.30946" lon="5.81016">
        <ele>618</ele>
        <time>2019-06-07T07:11:43Z</time>
      </trkpt>
      <trkpt lat="44.30948" lon="5.8101">
        <ele>618</ele>
        <time>2019-06-07T07:11:44Z</time>
      </trkpt>
      <trkpt lat="44.30949" lon="5.81004">
        <ele>618</ele>
        <time>2019-06-07T07:11:45Z</time>
      </trkpt>
      <trkpt lat="44.30952" lon="5.80998">
        <ele>618</ele>
        <time>2019-06-07T07:11:46Z</time>
      </trkpt>
      <trkpt lat="44.30955" lon="5.80992">
        <ele>618</ele>
        <time>2019-06-07T07:11:47Z</time>
      </trkpt>
      <trkpt lat="44.30957" lon="5.80986">
        <ele>618</ele>
        <time>2019-06-07T07:11:48Z</time>
      </trkpt>
      <trkpt lat="44.3096" lon="5.80981">
        <ele>618</ele>
        <time>2019-06-07T07:11:49Z</time>
      </trkpt>
      <trkpt lat="44.30962" lon="5.80976">
        <ele>618</ele>
        <time>2019-06-07T07:11:50Z</time>
      </trkpt>
      <trkpt lat="44.30966" lon="5.80971">
        <ele>618</ele>
        <time>2019-06-07T07:11:51Z</time>
      </trkpt>
      <trkpt lat="44.30969" lon="5.80966">
        <ele>618</ele>
        <time>2019-06-07T07:11:52Z</time>
      </trkpt>
      <trkpt lat="44.30972" lon="5.80962">
        <ele>618</ele>
        <time>2019-06-07T07:11:53Z</time>
      </trkpt>
      <trkpt lat="44.30975" lon="5.80957">
        <ele>618</ele>
        <time>2019-06-07T07:11:54Z</time>
      </trkpt>
      <trkpt lat="44.30978" lon="5.80953">
        <ele>618</ele>
        <time>2019-06-07T07:11:55Z</time>
      </trkpt>
      <trkpt lat="44.3098" lon="5.80948">
        <ele>618</ele>
        <time>2019-06-07T07:11:56Z</time>
      </trkpt>
      <trkpt lat="44.30982" lon="5.80943">
        <ele>618</ele>
        <time>2019-06-07T07:11:57Z</time>
      </trkpt>
      <trkpt lat="44.30984" lon="5.80938">
        <ele>618</ele>
        <time>2019-06-07T07:11:58Z</time>
      </trkpt>
      <trkpt lat="44.30986" lon="5.80933">
        <ele>618</ele>
        <time>2019-06-07T07:11:59Z</time>
      </trkpt>
      <trkpt lat="44.30987" lon="5.80929">
        <ele>618</ele>
        <time>2019-06-07T07:12:00Z</time>
      </trkpt>
      <trkpt lat="44.30989" lon="5.80924">
        <ele>618</ele>
        <time>2019-06-07T07:12:01Z</time>
      </trkpt>
      <trkpt lat="44.30991" lon="5.80919">
        <ele>618</ele>
        <time>2019-06-07T07:12:02Z</time>
      </trkpt>
      <trkpt lat="44.30993" lon="5.80914">
        <ele>618</ele>
        <time>2019-06-07T07:12:03Z</time>
      </trkpt>
      <trkpt lat="44.30994" lon="5.80908">
        <ele>618</ele>
        <time>2019-06-07T07:12:04Z</time>
      </trkpt>
      <trkpt lat="44.30996" lon="5.80903">
        <ele>619</ele>
        <time>2019-06-07T07:12:05Z</time>
      </trkpt>
      <trkpt lat="44.30997" lon="5.80898">
        <ele>619</ele>
        <time>2019-06-07T07:12:06Z</time>
      </trkpt>
      <trkpt lat="44.30998" lon="5.80893">
        <ele>620</ele>
        <time>2019-06-07T07:12:07Z</time>
      </trkpt>
      <trkpt lat="44.30999" lon="5.80888">
        <ele>620</ele>
        <time>2019-06-07T07:12:08Z</time>
      </trkpt>
      <trkpt lat="44.31001" lon="5.80883">
        <ele>620</ele>
        <time>2019-06-07T07:12:09Z</time>
      </trkpt>
      <trkpt lat="44.31002" lon="5.80877">
        <ele>621</ele>
        <time>2019-06-07T07:12:10Z</time>
      </trkpt>
      <trkpt lat="44.31003" lon="5.80872">
        <ele>621</ele>
        <time>2019-06-07T07:12:11Z</time>
      </trkpt>
      <trkpt lat="44.31003" lon="5.80867">
        <ele>621</ele>
        <time>2019-06-07T07:12:12Z</time>
      </trkpt>
      <trkpt lat="44.31004" lon="5.80861">
        <ele>621</ele>
        <time>2019-06-07T07:12:13Z</time>
      </trkpt>
      <trkpt lat="44.31004" lon="5.80854">
        <ele>621</ele>
        <time>2019-06-07T07:12:14Z</time>
      </trkpt>
      <trkpt lat="44.31006" lon="5.80847">
        <ele>621</ele>
        <time>2019-06-07T07:12:15Z</time>
      </trkpt>
      <trkpt lat="44.31007" lon="5.8084">
        <ele>622</ele>
        <time>2019-06-07T07:12:16Z</time>
      </trkpt>
      <trkpt lat="44.31009" lon="5.80833">
        <ele>622</ele>
        <time>2019-06-07T07:12:17Z</time>
      </trkpt>
      <trkpt lat="44.31011" lon="5.80827">
        <ele>622</ele>
        <time>2019-06-07T07:12:18Z</time>
      </trkpt>
      <trkpt lat="44.31013" lon="5.8082">
        <ele>623</ele>
        <time>2019-06-07T07:12:19Z</time>
      </trkpt>
      <trkpt lat="44.31015" lon="5.80814">
        <ele>623</ele>
        <time>2019-06-07T07:12:20Z</time>
      </trkpt>
      <trkpt lat="44.31018" lon="5.80809">
        <ele>623</ele>
        <time>2019-06-07T07:12:21Z</time>
      </trkpt>
      <trkpt lat="44.3102" lon="5.80804">
        <ele>623</ele>
        <time>2019-06-07T07:12:22Z</time>
      </trkpt>
      <trkpt lat="44.31023" lon="5.80798">
        <ele>624</ele>
        <time>2019-06-07T07:12:23Z</time>
      </trkpt>
      <trkpt lat="44.31026" lon="5.80793">
        <ele>624</ele>
        <time>2019-06-07T07:12:24Z</time>
      </trkpt>
      <trkpt lat="44.31029" lon="5.80788">
        <ele>624</ele>
        <time>2019-06-07T07:12:25Z</time>
      </trkpt>
      <trkpt lat="44.31032" lon="5.80783">
        <ele>624</ele>
        <time>2019-06-07T07:12:26Z</time>
      </trkpt>
      <trkpt lat="44.31034" lon="5.80778">
        <ele>625</ele>
        <time>2019-06-07T07:12:27Z</time>
      </trkpt>
      <trkpt lat="44.31037" lon="5.80773">
        <ele>625</ele>
        <time>2019-06-07T07:12:28Z</time>
      </trkpt>
      <trkpt lat="44.31039" lon="5.80768">
        <ele>626</ele>
        <time>2019-06-07T07:12:29Z</time>
      </trkpt>
      <trkpt lat="44.31041" lon="5.80763">
        <ele>626</ele>
        <time>2019-06-07T07:12:30Z</time>
      </trkpt>
      <trkpt lat="44.31043" lon="5.80758">
        <ele>626</ele>
        <time>2019-06-07T07:12:31Z</time>
      </trkpt>
      <trkpt lat="44.31045" lon="5.80754">
        <ele>627</ele>
        <time>2019-06-07T07:12:32Z</time>
      </trkpt>
      <trkpt lat="44.31046" lon="5.80749">
        <ele>627</ele>
        <time>2019-06-07T07:12:33Z</time>
      </trkpt>
      <trkpt lat="44.31047" lon="5.80744">
        <ele>627</ele>
        <time>2019-06-07T07:12:34Z</time>
      </trkpt>
      <trkpt lat="44.31049" lon="5.80739">
        <ele>627</ele>
        <time>2019-06-07T07:12:35Z</time>
      </trkpt>
      <trkpt lat="44.3105" lon="5.80734">
        <ele>627</ele>
        <time>2019-06-07T07:12:36Z</time>
      </trkpt>
      <trkpt lat="44.31052" lon="5.80728">
        <ele>627</ele>
        <time>2019-06-07T07:12:37Z</time>
      </trkpt>
      <trkpt lat="44.31054" lon="5.80723">
        <ele>628</ele>
        <time>2019-06-07T07:12:38Z</time>
      </trkpt>
      <trkpt lat="44.31055" lon="5.80718">
        <ele>628</ele>
        <time>2019-06-07T07:12:39Z</time>
      </trkpt>
      <trkpt lat="44.31057" lon="5.80713">
        <ele>628</ele>
        <time>2019-06-07T07:12:40Z</time>
      </trkpt>
      <trkpt lat="44.31058" lon="5.80708">
        <ele>628</ele>
        <time>2019-06-07T07:12:41Z</time>
      </trkpt>
      <trkpt lat="44.3106" lon="5.80702">
        <ele>628</ele>
        <time>2019-06-07T07:12:42Z</time>
      </trkpt>
      <trkpt lat="44.31062" lon="5.80697">
        <ele>628</ele>
        <time>2019-06-07T07:12:43Z</time>
      </trkpt>
      <trkpt lat="44.31064" lon="5.80692">
        <ele>628</ele>
        <time>2019-06-07T07:12:44Z</time>
      </trkpt>
      <trkpt lat="44.31065" lon="5.80687">
        <ele>629</ele>
        <time>2019-06-07T07:12:45Z</time>
      </trkpt>
      <trkpt lat="44.31067" lon="5.80682">
        <ele>629</ele>
        <time>2019-06-07T07:12:46Z</time>
      </trkpt>
      <trkpt lat="44.31068" lon="5.80676">
        <ele>629</ele>
        <time>2019-06-07T07:12:47Z</time>
      </trkpt>
      <trkpt lat="44.3107" lon="5.80671">
        <ele>629</ele>
        <time>2019-06-07T07:12:48Z</time>
      </trkpt>
      <trkpt lat="44.31071" lon="5.80666">
        <ele>629</ele>
        <time>2019-06-07T07:12:49Z</time>
      </trkpt>
      <trkpt lat="44.31073" lon="5.8066">
        <ele>629</ele>
        <time>2019-06-07T07:12:50Z</time>
      </trkpt>
      <trkpt lat="44.31074" lon="5.80655">
        <ele>629</ele>
        <time>2019-06-07T07:12:51Z</time>
      </trkpt>
      <trkpt lat="44.31076" lon="5.80649">
        <ele>629</ele>
        <time>2019-06-07T07:12:52Z</time>
      </trkpt>
      <trkpt lat="44.31077" lon="5.80644">
        <ele>629</ele>
        <time>2019-06-07T07:12:53Z</time>
      </trkpt>
      <trkpt lat="44.31079" lon="5.80638">
        <ele>629</ele>
        <time>2019-06-07T07:12:54Z</time>
      </trkpt>
      <trkpt lat="44.31081" lon="5.80631">
        <ele>629</ele>
        <time>2019-06-07T07:12:55Z</time>
      </trkpt>
      <trkpt lat="44.31082" lon="5.80625">
        <ele>629</ele>
        <time>2019-06-07T07:12:56Z</time>
      </trkpt>
      <trkpt lat="44.31084" lon="5.80619">
        <ele>629</ele>
        <time>2019-06-07T07:12:57Z</time>
      </trkpt>
      <trkpt lat="44.31085" lon="5.80612">
        <ele>629</ele>
        <time>2019-06-07T07:12:58Z</time>
      </trkpt>
      <trkpt lat="44.31087" lon="5.80604">
        <ele>629</ele>
        <time>2019-06-07T07:12:59Z</time>
      </trkpt>
      <trkpt lat="44.31089" lon="5.80597">
        <ele>629</ele>
        <time>2019-06-07T07:13:00Z</time>
      </trkpt>
      <trkpt lat="44.31091" lon="5.80589">
        <ele>629</ele>
        <time>2019-06-07T07:13:01Z</time>
      </trkpt>
      <trkpt lat="44.31092" lon="5.80582">
        <ele>629</ele>
        <time>2019-06-07T07:13:02Z</time>
      </trkpt>
      <trkpt lat="44.31094" lon="5.80574">
        <ele>629</ele>
        <time>2019-06-07T07:13:03Z</time>
      </trkpt>
      <trkpt lat="44.31095" lon="5.80566">
        <ele>629</ele>
        <time>2019-06-07T07:13:04Z</time>
      </trkpt>
      <trkpt lat="44.31097" lon="5.80556">
        <ele>629</ele>
        <time>2019-06-07T07:13:05Z</time>
      </trkpt>
      <trkpt lat="44.31099" lon="5.80547">
        <ele>629</ele>
        <time>2019-06-07T07:13:06Z</time>
      </trkpt>
      <trkpt lat="44.31101" lon="5.80537">
        <ele>629</ele>
        <time>2019-06-07T07:13:07Z</time>
      </trkpt>
      <trkpt lat="44.31103" lon="5.80528">
        <ele>629</ele>
        <time>2019-06-07T07:13:08Z</time>
      </trkpt>
      <trkpt lat="44.31105" lon="5.80518">
        <ele>629</ele>
        <time>2019-06-07T07:13:09Z</time>
      </trkpt>
      <trkpt lat="44.31107" lon="5.80509">
        <ele>629</ele>
        <time>2019-06-07T07:13:10Z</time>
      </trkpt>
      <trkpt lat="44.3111" lon="5.805">
        <ele>629</ele>
        <time>2019-06-07T07:13:11Z</time>
      </trkpt>
      <trkpt lat="44.31113" lon="5.80492">
        <ele>629</ele>
        <time>2019-06-07T07:13:12Z</time>
      </trkpt>
      <trkpt lat="44.31115" lon="5.80484">
        <ele>629</ele>
        <time>2019-06-07T07:13:13Z</time>
      </trkpt>
      <trkpt lat="44.31118" lon="5.80476">
        <ele>629</ele>
        <time>2019-06-07T07:13:14Z</time>
      </trkpt>
      <trkpt lat="44.3112" lon="5.80469">
        <ele>629</ele>
        <time>2019-06-07T07:13:15Z</time>
      </trkpt>
      <trkpt lat="44.31121" lon="5.80461">
        <ele>629</ele>
        <time>2019-06-07T07:13:16Z</time>
      </trkpt>
      <trkpt lat="44.31121" lon="5.80452">
        <ele>629</ele>
        <time>2019-06-07T07:13:17Z</time>
      </trkpt>
      <trkpt lat="44.31122" lon="5.80444">
        <ele>629</ele>
        <time>2019-06-07T07:13:18Z</time>
      </trkpt>
      <trkpt lat="44.31122" lon="5.80436">
        <ele>629</ele>
        <time>2019-06-07T07:13:19Z</time>
      </trkpt>
      <trkpt lat="44.31121" lon="5.80428">
        <ele>629</ele>
        <time>2019-06-07T07:13:20Z</time>
      </trkpt>
      <trkpt lat="44.3112" lon="5.8042">
        <ele>629</ele>
        <time>2019-06-07T07:13:21Z</time>
      </trkpt>
      <trkpt lat="44.3112" lon="5.80411">
        <ele>629</ele>
        <time>2019-06-07T07:13:22Z</time>
      </trkpt>
      <trkpt lat="44.31119" lon="5.80403">
        <ele>629</ele>
        <time>2019-06-07T07:13:23Z</time>
      </trkpt>
      <trkpt lat="44.31119" lon="5.80395">
        <ele>629</ele>
        <time>2019-06-07T07:13:24Z</time>
      </trkpt>
      <trkpt lat="44.31119" lon="5.80386">
        <ele>629</ele>
        <time>2019-06-07T07:13:25Z</time>
      </trkpt>
      <trkpt lat="44.31118" lon="5.80378">
        <ele>629</ele>
        <time>2019-06-07T07:13:26Z</time>
      </trkpt>
      <trkpt lat="44.31118" lon="5.80369">
        <ele>629</ele>
        <time>2019-06-07T07:13:27Z</time>
      </trkpt>
      <trkpt lat="44.31118" lon="5.80361">
        <ele>629</ele>
        <time>2019-06-07T07:13:28Z</time>
      </trkpt>
      <trkpt lat="44.31117" lon="5.80352">
        <ele>629</ele>
        <time>2019-06-07T07:13:29Z</time>
      </trkpt>
      <trkpt lat="44.31117" lon="5.80343">
        <ele>629</ele>
        <time>2019-06-07T07:13:30Z</time>
      </trkpt>
      <trkpt lat="44.31116" lon="5.80334">
        <ele>629</ele>
        <time>2019-06-07T07:13:31Z</time>
      </trkpt>
      <trkpt lat="44.31116" lon="5.80325">
        <ele>628</ele>
        <time>2019-06-07T07:13:32Z</time>
      </trkpt>
      <trkpt lat="44.31117" lon="5.80315">
        <ele>628</ele>
        <time>2019-06-07T07:13:33Z</time>
      </trkpt>
      <trkpt lat="44.31118" lon="5.80306">
        <ele>628</ele>
        <time>2019-06-07T07:13:34Z</time>
      </trkpt>
      <trkpt lat="44.3112" lon="5.80296">
        <ele>628</ele>
        <time>2019-06-07T07:13:35Z</time>
      </trkpt>
      <trkpt lat="44.31123" lon="5.80286">
        <ele>628</ele>
        <time>2019-06-07T07:13:36Z</time>
      </trkpt>
      <trkpt lat="44.31126" lon="5.80276">
        <ele>628</ele>
        <time>2019-06-07T07:13:37Z</time>
      </trkpt>
      <trkpt lat="44.3113" lon="5.80267">
        <ele>628</ele>
        <time>2019-06-07T07:13:38Z</time>
      </trkpt>
      <trkpt lat="44.31134" lon="5.80257">
        <ele>628</ele>
        <time>2019-06-07T07:13:39Z</time>
      </trkpt>
      <trkpt lat="44.31139" lon="5.80248">
        <ele>628</ele>
        <time>2019-06-07T07:13:40Z</time>
      </trkpt>
      <trkpt lat="44.31143" lon="5.8024">
        <ele>628</ele>
        <time>2019-06-07T07:13:41Z</time>
      </trkpt>
      <trkpt lat="44.31147" lon="5.80232">
        <ele>628</ele>
        <time>2019-06-07T07:13:42Z</time>
      </trkpt>
      <trkpt lat="44.31152" lon="5.80223">
        <ele>628</ele>
        <time>2019-06-07T07:13:43Z</time>
      </trkpt>
      <trkpt lat="44.31157" lon="5.80213">
        <ele>628</ele>
        <time>2019-06-07T07:13:44Z</time>
      </trkpt>
      <trkpt lat="44.31161" lon="5.80204">
        <ele>628</ele>
        <time>2019-06-07T07:13:45Z</time>
      </trkpt>
      <trkpt lat="44.31165" lon="5.80194">
        <ele>628</ele>
        <time>2019-06-07T07:13:46Z</time>
      </trkpt>
      <trkpt lat="44.31169" lon="5.80184">
        <ele>628</ele>
        <time>2019-06-07T07:13:47Z</time>
      </trkpt>
      <trkpt lat="44.31173" lon="5.80173">
        <ele>628</ele>
        <time>2019-06-07T07:13:48Z</time>
      </trkpt>
      <trkpt lat="44.31176" lon="5.80162">
        <ele>628</ele>
        <time>2019-06-07T07:13:49Z</time>
      </trkpt>
      <trkpt lat="44.3118" lon="5.8015">
        <ele>628</ele>
        <time>2019-06-07T07:13:50Z</time>
      </trkpt>
      <trkpt lat="44.31183" lon="5.80138">
        <ele>627</ele>
        <time>2019-06-07T07:13:51Z</time>
      </trkpt>
      <trkpt lat="44.31187" lon="5.80125">
        <ele>627</ele>
        <time>2019-06-07T07:13:52Z</time>
      </trkpt>
      <trkpt lat="44.3119" lon="5.80112">
        <ele>627</ele>
        <time>2019-06-07T07:13:53Z</time>
      </trkpt>
      <trkpt lat="44.31195" lon="5.80101">
        <ele>627</ele>
        <time>2019-06-07T07:13:54Z</time>
      </trkpt>
      <trkpt lat="44.312" lon="5.80091">
        <ele>627</ele>
        <time>2019-06-07T07:13:55Z</time>
      </trkpt>
      <trkpt lat="44.31205" lon="5.80084">
        <ele>627</ele>
        <time>2019-06-07T07:13:56Z</time>
      </trkpt>
      <trkpt lat="44.31211" lon="5.80076">
        <ele>627</ele>
        <time>2019-06-07T07:13:57Z</time>
      </trkpt>
      <trkpt lat="44.31217" lon="5.80068">
        <ele>627</ele>
        <time>2019-06-07T07:13:58Z</time>
      </trkpt>
      <trkpt lat="44.31222" lon="5.80058">
        <ele>627</ele>
        <time>2019-06-07T07:13:59Z</time>
      </trkpt>
      <trkpt lat="44.31226" lon="5.80049">
        <ele>626</ele>
        <time>2019-06-07T07:14:00Z</time>
      </trkpt>
      <trkpt lat="44.31229" lon="5.80038">
        <ele>626</ele>
        <time>2019-06-07T07:14:01Z</time>
      </trkpt>
      <trkpt lat="44.3123" lon="5.80028">
        <ele>626</ele>
        <time>2019-06-07T07:14:02Z</time>
      </trkpt>
      <trkpt lat="44.31231" lon="5.80018">
        <ele>626</ele>
        <time>2019-06-07T07:14:03Z</time>
      </trkpt>
      <trkpt lat="44.31231" lon="5.80007">
        <ele>626</ele>
        <time>2019-06-07T07:14:04Z</time>
      </trkpt>
      <trkpt lat="44.31231" lon="5.79997">
        <ele>626</ele>
        <time>2019-06-07T07:14:05Z</time>
      </trkpt>
      <trkpt lat="44.31231" lon="5.79987">
        <ele>625</ele>
        <time>2019-06-07T07:14:06Z</time>
      </trkpt>
      <trkpt lat="44.31232" lon="5.79976">
        <ele>625</ele>
        <time>2019-06-07T07:14:07Z</time>
      </trkpt>
      <trkpt lat="44.31234" lon="5.79966">
        <ele>624</ele>
        <time>2019-06-07T07:14:08Z</time>
      </trkpt>
      <trkpt lat="44.31237" lon="5.79956">
        <ele>624</ele>
        <time>2019-06-07T07:14:09Z</time>
      </trkpt>
      <trkpt lat="44.31241" lon="5.79948">
        <ele>624</ele>
        <time>2019-06-07T07:14:10Z</time>
      </trkpt>
      <trkpt lat="44.31245" lon="5.79941">
        <ele>624</ele>
        <time>2019-06-07T07:14:11Z</time>
      </trkpt>
      <trkpt lat="44.3125" lon="5.79934">
        <ele>624</ele>
        <time>2019-06-07T07:14:12Z</time>
      </trkpt>
      <trkpt lat="44.31254" lon="5.79928">
        <ele>624</ele>
        <time>2019-06-07T07:14:13Z</time>
      </trkpt>
      <trkpt lat="44.31259" lon="5.79922">
        <ele>624</ele>
        <time>2019-06-07T07:14:14Z</time>
      </trkpt>
      <trkpt lat="44.31264" lon="5.79916">
        <ele>624</ele>
        <time>2019-06-07T07:14:15Z</time>
      </trkpt>
      <trkpt lat="44.3127" lon="5.79909">
        <ele>624</ele>
        <time>2019-06-07T07:14:16Z</time>
      </trkpt>
      <trkpt lat="44.31275" lon="5.79902">
        <ele>624</ele>
        <time>2019-06-07T07:14:17Z</time>
      </trkpt>
      <trkpt lat="44.31281" lon="5.79894">
        <ele>624</ele>
        <time>2019-06-07T07:14:18Z</time>
      </trkpt>
      <trkpt lat="44.31286" lon="5.79886">
        <ele>624</ele>
        <time>2019-06-07T07:14:19Z</time>
      </trkpt>
      <trkpt lat="44.31292" lon="5.79879">
        <ele>624</ele>
        <time>2019-06-07T07:14:20Z</time>
      </trkpt>
      <trkpt lat="44.31297" lon="5.79872">
        <ele>624</ele>
        <time>2019-06-07T07:14:21Z</time>
      </trkpt>
      <trkpt lat="44.31302" lon="5.79865">
        <ele>624</ele>
        <time>2019-06-07T07:14:22Z</time>
      </trkpt>
      <trkpt lat="44.31308" lon="5.79857">
        <ele>624</ele>
        <time>2019-06-07T07:14:23Z</time>
      </trkpt>
      <trkpt lat="44.31313" lon="5.79849">
        <ele>623</ele>
        <time>2019-06-07T07:14:24Z</time>
      </trkpt>
      <trkpt lat="44.31318" lon="5.79841">
        <ele>622</ele>
        <time>2019-06-07T07:14:25Z</time>
      </trkpt>
      <trkpt lat="44.31324" lon="5.79833">
        <ele>622</ele>
        <time>2019-06-07T07:14:26Z</time>
      </trkpt>
      <trkpt lat="44.31329" lon="5.79825">
        <ele>622</ele>
        <time>2019-06-07T07:14:27Z</time>
      </trkpt>
      <trkpt lat="44.31334" lon="5.79817">
        <ele>622</ele>
        <time>2019-06-07T07:14:28Z</time>
      </trkpt>
      <trkpt lat="44.31339" lon="5.7981">
        <ele>622</ele>
        <time>2019-06-07T07:14:29Z</time>
      </trkpt>
      <trkpt lat="44.31344" lon="5.79803">
        <ele>621</ele>
        <time>2019-06-07T07:14:30Z</time>
      </trkpt>
      <trkpt lat="44.31348" lon="5.79796">
        <ele>621</ele>
        <time>2019-06-07T07:14:31Z</time>
      </trkpt>
      <trkpt lat="44.31353" lon="5.79789">
        <ele>621</ele>
        <time>2019-06-07T07:14:32Z</time>
      </trkpt>
      <trkpt lat="44.31358" lon="5.79781">
        <ele>620</ele>
        <time>2019-06-07T07:14:33Z</time>
      </trkpt>
      <trkpt lat="44.31362" lon="5.79774">
        <ele>620</ele>
        <time>2019-06-07T07:14:34Z</time>
      </trkpt>
      <trkpt lat="44.31367" lon="5.79766">
        <ele>620</ele>
        <time>2019-06-07T07:14:35Z</time>
      </trkpt>
      <trkpt lat="44.31372" lon="5.79758">
        <ele>620</ele>
        <time>2019-06-07T07:14:36Z</time>
      </trkpt>
      <trkpt lat="44.31376" lon="5.7975">
        <ele>620</ele>
        <time>2019-06-07T07:14:37Z</time>
      </trkpt>
      <trkpt lat="44.3138" lon="5.79743">
        <ele>620</ele>
        <time>2019-06-07T07:14:38Z</time>
      </trkpt>
      <trkpt lat="44.31385" lon="5.79737">
        <ele>620</ele>
        <time>2019-06-07T07:14:39Z</time>
      </trkpt>
      <trkpt lat="44.31388" lon="5.7973">
        <ele>620</ele>
        <time>2019-06-07T07:14:40Z</time>
      </trkpt>
      <trkpt lat="44.31392" lon="5.79722">
        <ele>620</ele>
        <time>2019-06-07T07:14:41Z</time>
      </trkpt>
      <trkpt lat="44.31395" lon="5.79715">
        <ele>620</ele>
        <time>2019-06-07T07:14:42Z</time>
      </trkpt>
      <trkpt lat="44.31398" lon="5.79708">
        <ele>620</ele>
        <time>2019-06-07T07:14:43Z</time>
      </trkpt>
      <trkpt lat="44.31401" lon="5.79701">
        <ele>620</ele>
        <time>2019-06-07T07:14:44Z</time>
      </trkpt>
      <trkpt lat="44.31404" lon="5.79692">
        <ele>620</ele>
        <time>2019-06-07T07:14:45Z</time>
      </trkpt>
      <trkpt lat="44.31406" lon="5.79684">
        <ele>620</ele>
        <time>2019-06-07T07:14:46Z</time>
      </trkpt>
      <trkpt lat="44.31408" lon="5.79676">
        <ele>620</ele>
        <time>2019-06-07T07:14:47Z</time>
      </trkpt>
      <trkpt lat="44.3141" lon="5.79667">
        <ele>620</ele>
        <time>2019-06-07T07:14:48Z</time>
      </trkpt>
      <trkpt lat="44.31413" lon="5.79657">
        <ele>620</ele>
        <time>2019-06-07T07:14:49Z</time>
      </trkpt>
      <trkpt lat="44.31415" lon="5.79647">
        <ele>620</ele>
        <time>2019-06-07T07:14:50Z</time>
      </trkpt>
      <trkpt lat="44.31417" lon="5.79637">
        <ele>620</ele>
        <time>2019-06-07T07:14:51Z</time>
      </trkpt>
      <trkpt lat="44.3142" lon="5.79626">
        <ele>620</ele>
        <time>2019-06-07T07:14:52Z</time>
      </trkpt>
      <trkpt lat="44.31423" lon="5.79614">
        <ele>619</ele>
        <time>2019-06-07T07:14:53Z</time>
      </trkpt>
      <trkpt lat="44.31426" lon="5.79602">
        <ele>618</ele>
        <time>2019-06-07T07:14:54Z</time>
      </trkpt>
      <trkpt lat="44.31429" lon="5.7959">
        <ele>618</ele>
        <time>2019-06-07T07:14:55Z</time>
      </trkpt>
      <trkpt lat="44.31432" lon="5.79577">
        <ele>617</ele>
        <time>2019-06-07T07:14:56Z</time>
      </trkpt>
      <trkpt lat="44.31436" lon="5.79565">
        <ele>616</ele>
        <time>2019-06-07T07:14:57Z</time>
      </trkpt>
      <trkpt lat="44.31439" lon="5.79552">
        <ele>616</ele>
        <time>2019-06-07T07:14:58Z</time>
      </trkpt>
      <trkpt lat="44.31442" lon="5.7954">
        <ele>615</ele>
        <time>2019-06-07T07:14:59Z</time>
      </trkpt>
      <trkpt lat="44.31446" lon="5.79528">
        <ele>614</ele>
        <time>2019-06-07T07:15:00Z</time>
      </trkpt>
      <trkpt lat="44.31449" lon="5.79516">
        <ele>614</ele>
        <time>2019-06-07T07:15:01Z</time>
      </trkpt>
      <trkpt lat="44.31452" lon="5.79504">
        <ele>613</ele>
        <time>2019-06-07T07:15:02Z</time>
      </trkpt>
      <trkpt lat="44.31456" lon="5.79491">
        <ele>612</ele>
        <time>2019-06-07T07:15:03Z</time>
      </trkpt>
      <trkpt lat="44.31459" lon="5.79478">
        <ele>612</ele>
        <time>2019-06-07T07:15:04Z</time>
      </trkpt>
      <trkpt lat="44.31461" lon="5.79464">
        <ele>611</ele>
        <time>2019-06-07T07:15:05Z</time>
      </trkpt>
      <trkpt lat="44.31463" lon="5.79451">
        <ele>610</ele>
        <time>2019-06-07T07:15:06Z</time>
      </trkpt>
      <trkpt lat="44.31465" lon="5.79437">
        <ele>609</ele>
        <time>2019-06-07T07:15:07Z</time>
      </trkpt>
      <trkpt lat="44.31465" lon="5.79423">
        <ele>609</ele>
        <time>2019-06-07T07:15:08Z</time>
      </trkpt>
      <trkpt lat="44.31465" lon="5.7941">
        <ele>608</ele>
        <time>2019-06-07T07:15:09Z</time>
      </trkpt>
      <trkpt lat="44.31464" lon="5.79396">
        <ele>607</ele>
        <time>2019-06-07T07:15:10Z</time>
      </trkpt>
      <trkpt lat="44.31463" lon="5.79382">
        <ele>607</ele>
        <time>2019-06-07T07:15:10Z</time>
      </trkpt>
      <trkpt lat="44.31462" lon="5.79367">
        <ele>606</ele>
        <time>2019-06-07T07:15:11Z</time>
      </trkpt>
      <trkpt lat="44.31461" lon="5.79353">
        <ele>605</ele>
        <time>2019-06-07T07:15:13Z</time>
      </trkpt>
      <trkpt lat="44.31461" lon="5.79337">
        <ele>605</ele>
        <time>2019-06-07T07:15:13Z</time>
      </trkpt>
      <trkpt lat="44.31462" lon="5.79322">
        <ele>604</ele>
        <time>2019-06-07T07:15:14Z</time>
      </trkpt>
      <trkpt lat="44.31464" lon="5.79306">
        <ele>604</ele>
        <time>2019-06-07T07:15:15Z</time>
      </trkpt>
      <trkpt lat="44.31466" lon="5.7929">
        <ele>603</ele>
        <time>2019-06-07T07:15:16Z</time>
      </trkpt>
      <trkpt lat="44.31469" lon="5.79275">
        <ele>603</ele>
        <time>2019-06-07T07:15:18Z</time>
      </trkpt>
      <trkpt lat="44.31472" lon="5.79259">
        <ele>602</ele>
        <time>2019-06-07T07:15:18Z</time>
      </trkpt>
      <trkpt lat="44.31476" lon="5.79244">
        <ele>602</ele>
        <time>2019-06-07T07:15:19Z</time>
      </trkpt>
      <trkpt lat="44.3148" lon="5.79229">
        <ele>601</ele>
        <time>2019-06-07T07:15:20Z</time>
      </trkpt>
      <trkpt lat="44.31485" lon="5.79215">
        <ele>601</ele>
        <time>2019-06-07T07:15:21Z</time>
      </trkpt>
      <trkpt lat="44.31492" lon="5.79203">
        <ele>600</ele>
        <time>2019-06-07T07:15:22Z</time>
      </trkpt>
      <trkpt lat="44.31498" lon="5.7919">
        <ele>600</ele>
        <time>2019-06-07T07:15:23Z</time>
      </trkpt>
      <trkpt lat="44.31505" lon="5.79177">
        <ele>599</ele>
        <time>2019-06-07T07:15:24Z</time>
      </trkpt>
      <trkpt lat="44.31511" lon="5.79164">
        <ele>599</ele>
        <time>2019-06-07T07:15:25Z</time>
      </trkpt>
      <trkpt lat="44.31516" lon="5.7915">
        <ele>598</ele>
        <time>2019-06-07T07:15:26Z</time>
      </trkpt>
      <trkpt lat="44.3152" lon="5.79135">
        <ele>597</ele>
        <time>2019-06-07T07:15:27Z</time>
      </trkpt>
      <trkpt lat="44.31525" lon="5.7912">
        <ele>597</ele>
        <time>2019-06-07T07:15:29Z</time>
      </trkpt>
      <trkpt lat="44.31529" lon="5.79106">
        <ele>597</ele>
        <time>2019-06-07T07:15:29Z</time>
      </trkpt>
      <trkpt lat="44.31534" lon="5.79092">
        <ele>597</ele>
        <time>2019-06-07T07:15:30Z</time>
      </trkpt>
      <trkpt lat="44.31538" lon="5.79079">
        <ele>597</ele>
        <time>2019-06-07T07:15:32Z</time>
      </trkpt>
      <trkpt lat="44.31543" lon="5.79067">
        <ele>597</ele>
        <time>2019-06-07T07:15:33Z</time>
      </trkpt>
      <trkpt lat="44.31547" lon="5.79054">
        <ele>597</ele>
        <time>2019-06-07T07:15:34Z</time>
      </trkpt>
      <trkpt lat="44.31552" lon="5.79042">
        <ele>597</ele>
        <time>2019-06-07T07:15:35Z</time>
      </trkpt>
      <trkpt lat="44.31556" lon="5.79031">
        <ele>597</ele>
        <time>2019-06-07T07:15:36Z</time>
      </trkpt>
      <trkpt lat="44.31561" lon="5.79019">
        <ele>597</ele>
        <time>2019-06-07T07:15:37Z</time>
      </trkpt>
      <trkpt lat="44.31564" lon="5.79009">
        <ele>597</ele>
        <time>2019-06-07T07:15:38Z</time>
      </trkpt>
      <trkpt lat="44.31568" lon="5.79">
        <ele>597</ele>
        <time>2019-06-07T07:15:39Z</time>
      </trkpt>
      <trkpt lat="44.31571" lon="5.7899">
        <ele>597</ele>
        <time>2019-06-07T07:15:40Z</time>
      </trkpt>
      <trkpt lat="44.31574" lon="5.7898">
        <ele>597</ele>
        <time>2019-06-07T07:15:41Z</time>
      </trkpt>
      <trkpt lat="44.31575" lon="5.7897">
        <ele>597</ele>
        <time>2019-06-07T07:15:42Z</time>
      </trkpt>
      <trkpt lat="44.31577" lon="5.7896">
        <ele>597</ele>
        <time>2019-06-07T07:15:43Z</time>
      </trkpt>
      <trkpt lat="44.31579" lon="5.7895">
        <ele>597</ele>
        <time>2019-06-07T07:15:44Z</time>
      </trkpt>
      <trkpt lat="44.3158" lon="5.7894">
        <ele>597</ele>
        <time>2019-06-07T07:15:45Z</time>
      </trkpt>
      <trkpt lat="44.31581" lon="5.78931">
        <ele>597</ele>
        <time>2019-06-07T07:15:46Z</time>
      </trkpt>
      <trkpt lat="44.31582" lon="5.78922">
        <ele>597</ele>
        <time>2019-06-07T07:15:47Z</time>
      </trkpt>
      <trkpt lat="44.31583" lon="5.78913">
        <ele>597</ele>
        <time>2019-06-07T07:15:48Z</time>
      </trkpt>
      <trkpt lat="44.31583" lon="5.78904">
        <ele>597</ele>
        <time>2019-06-07T07:15:49Z</time>
      </trkpt>
      <trkpt lat="44.31584" lon="5.78895">
        <ele>597</ele>
        <time>2019-06-07T07:15:50Z</time>
      </trkpt>
      <trkpt lat="44.31585" lon="5.78886">
        <ele>597</ele>
        <time>2019-06-07T07:15:51Z</time>
      </trkpt>
      <trkpt lat="44.31585" lon="5.78878">
        <ele>597</ele>
        <time>2019-06-07T07:15:52Z</time>
      </trkpt>
      <trkpt lat="44.31586" lon="5.78871">
        <ele>597</ele>
        <time>2019-06-07T07:15:53Z</time>
      </trkpt>
      <trkpt lat="44.31587" lon="5.78863">
        <ele>597</ele>
        <time>2019-06-07T07:15:54Z</time>
      </trkpt>
      <trkpt lat="44.31588" lon="5.78856">
        <ele>597</ele>
        <time>2019-06-07T07:15:55Z</time>
      </trkpt>
      <trkpt lat="44.3159" lon="5.78849">
        <ele>597</ele>
        <time>2019-06-07T07:15:56Z</time>
      </trkpt>
      <trkpt lat="44.31591" lon="5.78843">
        <ele>597</ele>
        <time>2019-06-07T07:15:57Z</time>
      </trkpt>
      <trkpt lat="44.31592" lon="5.78837">
        <ele>597</ele>
        <time>2019-06-07T07:15:58Z</time>
      </trkpt>
      <trkpt lat="44.31593" lon="5.78831">
        <ele>597</ele>
        <time>2019-06-07T07:15:59Z</time>
      </trkpt>
      <trkpt lat="44.31595" lon="5.78825">
        <ele>597</ele>
        <time>2019-06-07T07:16:00Z</time>
      </trkpt>
      <trkpt lat="44.31596" lon="5.78819">
        <ele>597</ele>
        <time>2019-06-07T07:16:01Z</time>
      </trkpt>
      <trkpt lat="44.31597" lon="5.78813">
        <ele>597</ele>
        <time>2019-06-07T07:16:02Z</time>
      </trkpt>
      <trkpt lat="44.31597" lon="5.78807">
        <ele>597</ele>
        <time>2019-06-07T07:16:03Z</time>
      </trkpt>
      <trkpt lat="44.31598" lon="5.78801">
        <ele>597</ele>
        <time>2019-06-07T07:16:04Z</time>
      </trkpt>
      <trkpt lat="44.31598" lon="5.78796">
        <ele>598</ele>
        <time>2019-06-07T07:16:05Z</time>
      </trkpt>
      <trkpt lat="44.31599" lon="5.7879">
        <ele>598</ele>
        <time>2019-06-07T07:16:06Z</time>
      </trkpt>
      <trkpt lat="44.31599" lon="5.78785">
        <ele>598</ele>
        <time>2019-06-07T07:16:07Z</time>
      </trkpt>
      <trkpt lat="44.31599" lon="5.78779">
        <ele>598</ele>
        <time>2019-06-07T07:16:08Z</time>
      </trkpt>
      <trkpt lat="44.31599" lon="5.78773">
        <ele>599</ele>
        <time>2019-06-07T07:16:09Z</time>
      </trkpt>
      <trkpt lat="44.31599" lon="5.78768">
        <ele>599</ele>
        <time>2019-06-07T07:16:10Z</time>
      </trkpt>
      <trkpt lat="44.31599" lon="5.78763">
        <ele>599</ele>
        <time>2019-06-07T07:16:11Z</time>
      </trkpt>
      <trkpt lat="44.31599" lon="5.78757">
        <ele>599</ele>
        <time>2019-06-07T07:16:12Z</time>
      </trkpt>
      <trkpt lat="44.31599" lon="5.78752">
        <ele>599</ele>
        <time>2019-06-07T07:16:13Z</time>
      </trkpt>
      <trkpt lat="44.31599" lon="5.78747">
        <ele>599</ele>
        <time>2019-06-07T07:16:14Z</time>
      </trkpt>
      <trkpt lat="44.31599" lon="5.78742">
        <ele>599</ele>
        <time>2019-06-07T07:16:15Z</time>
      </trkpt>
      <trkpt lat="44.31599" lon="5.78736">
        <ele>599</ele>
        <time>2019-06-07T07:16:16Z</time>
      </trkpt>
      <trkpt lat="44.31599" lon="5.78731">
        <ele>599</ele>
        <time>2019-06-07T07:16:17Z</time>
      </trkpt>
      <trkpt lat="44.316" lon="5.78725">
        <ele>599</ele>
        <time>2019-06-07T07:16:18Z</time>
      </trkpt>
      <trkpt lat="44.316" lon="5.78719">
        <ele>599</ele>
        <time>2019-06-07T07:16:19Z</time>
      </trkpt>
      <trkpt lat="44.31599" lon="5.78713">
        <ele>599</ele>
        <time>2019-06-07T07:16:20Z</time>
      </trkpt>
      <trkpt lat="44.31599" lon="5.78708">
        <ele>599</ele>
        <time>2019-06-07T07:16:21Z</time>
      </trkpt>
      <trkpt lat="44.31599" lon="5.78702">
        <ele>600</ele>
        <time>2019-06-07T07:16:22Z</time>
      </trkpt>
      <trkpt lat="44.316" lon="5.78696">
        <ele>600</ele>
        <time>2019-06-07T07:16:23Z</time>
      </trkpt>
      <trkpt lat="44.316" lon="5.78691">
        <ele>600</ele>
        <time>2019-06-07T07:16:24Z</time>
      </trkpt>
      <trkpt lat="44.316" lon="5.78686">
        <ele>600</ele>
        <time>2019-06-07T07:16:25Z</time>
      </trkpt>
      <trkpt lat="44.316" lon="5.7868">
        <ele>600</ele>
        <time>2019-06-07T07:16:26Z</time>
      </trkpt>
      <trkpt lat="44.316" lon="5.78675">
        <ele>600</ele>
        <time>2019-06-07T07:16:27Z</time>
      </trkpt>
      <trkpt lat="44.316" lon="5.78669">
        <ele>600</ele>
        <time>2019-06-07T07:16:28Z</time>
      </trkpt>
      <trkpt lat="44.316" lon="5.78663">
        <ele>601</ele>
        <time>2019-06-07T07:16:29Z</time>
      </trkpt>
      <trkpt lat="44.316" lon="5.78658">
        <ele>601</ele>
        <time>2019-06-07T07:16:30Z</time>
      </trkpt>
      <trkpt lat="44.316" lon="5.78652">
        <ele>601</ele>
        <time>2019-06-07T07:16:31Z</time>
      </trkpt>
      <trkpt lat="44.316" lon="5.78646">
        <ele>602</ele>
        <time>2019-06-07T07:16:32Z</time>
      </trkpt>
      <trkpt lat="44.316" lon="5.7864">
        <ele>602</ele>
        <time>2019-06-07T07:16:33Z</time>
      </trkpt>
      <trkpt lat="44.316" lon="5.78635">
        <ele>602</ele>
        <time>2019-06-07T07:16:34Z</time>
      </trkpt>
      <trkpt lat="44.316" lon="5.78629">
        <ele>602</ele>
        <time>2019-06-07T07:16:35Z</time>
      </trkpt>
      <trkpt lat="44.31599" lon="5.78623">
        <ele>602</ele>
        <time>2019-06-07T07:16:36Z</time>
      </trkpt>
      <trkpt lat="44.316" lon="5.78618">
        <ele>602</ele>
        <time>2019-06-07T07:16:37Z</time>
      </trkpt>
      <trkpt lat="44.316" lon="5.78613">
        <ele>602</ele>
        <time>2019-06-07T07:16:38Z</time>
      </trkpt>
      <trkpt lat="44.31601" lon="5.78607">
        <ele>602</ele>
        <time>2019-06-07T07:16:39Z</time>
      </trkpt>
      <trkpt lat="44.31601" lon="5.78602">
        <ele>602</ele>
        <time>2019-06-07T07:16:40Z</time>
      </trkpt>
      <trkpt lat="44.31601" lon="5.78596">
        <ele>603</ele>
        <time>2019-06-07T07:16:41Z</time>
      </trkpt>
      <trkpt lat="44.31602" lon="5.78591">
        <ele>603</ele>
        <time>2019-06-07T07:16:42Z</time>
      </trkpt>
      <trkpt lat="44.31603" lon="5.78585">
        <ele>603</ele>
        <time>2019-06-07T07:16:43Z</time>
      </trkpt>
      <trkpt lat="44.31605" lon="5.78579">
        <ele>603</ele>
        <time>2019-06-07T07:16:44Z</time>
      </trkpt>
      <trkpt lat="44.31607" lon="5.78573">
        <ele>603</ele>
        <time>2019-06-07T07:16:45Z</time>
      </trkpt>
      <trkpt lat="44.3161" lon="5.78566">
        <ele>603</ele>
        <time>2019-06-07T07:16:46Z</time>
      </trkpt>
      <trkpt lat="44.31614" lon="5.7856">
        <ele>603</ele>
        <time>2019-06-07T07:16:47Z</time>
      </trkpt>
      <trkpt lat="44.31619" lon="5.78554">
        <ele>603</ele>
        <time>2019-06-07T07:16:48Z</time>
      </trkpt>
      <trkpt lat="44.31625" lon="5.78549">
        <ele>603</ele>
        <time>2019-06-07T07:16:49Z</time>
      </trkpt>
      <trkpt lat="44.31632" lon="5.78545">
        <ele>603</ele>
        <time>2019-06-07T07:16:50Z</time>
      </trkpt>
      <trkpt lat="44.31639" lon="5.78542">
        <ele>603</ele>
        <time>2019-06-07T07:16:51Z</time>
      </trkpt>
      <trkpt lat="44.31647" lon="5.78539">
        <ele>603</ele>
        <time>2019-06-07T07:16:52Z</time>
      </trkpt>
      <trkpt lat="44.31655" lon="5.78536">
        <ele>603</ele>
        <time>2019-06-07T07:16:53Z</time>
      </trkpt>
      <trkpt lat="44.31663" lon="5.78532">
        <ele>603</ele>
        <time>2019-06-07T07:16:54Z</time>
      </trkpt>
      <trkpt lat="44.31671" lon="5.78529">
        <ele>603</ele>
        <time>2019-06-07T07:16:55Z</time>
      </trkpt>
      <trkpt lat="44.31679" lon="5.78525">
        <ele>603</ele>
        <time>2019-06-07T07:16:56Z</time>
      </trkpt>
      <trkpt lat="44.31687" lon="5.78521">
        <ele>603</ele>
        <time>2019-06-07T07:16:57Z</time>
      </trkpt>
      <trkpt lat="44.31695" lon="5.78518">
        <ele>603</ele>
        <time>2019-06-07T07:16:58Z</time>
      </trkpt>
      <trkpt lat="44.31703" lon="5.78514">
        <ele>603</ele>
        <time>2019-06-07T07:16:59Z</time>
      </trkpt>
      <trkpt lat="44.31711" lon="5.78511">
        <ele>603</ele>
        <time>2019-06-07T07:17:00Z</time>
      </trkpt>
      <trkpt lat="44.3172" lon="5.78507">
        <ele>603</ele>
        <time>2019-06-07T07:17:01Z</time>
      </trkpt>
      <trkpt lat="44.31728" lon="5.78503">
        <ele>603</ele>
        <time>2019-06-07T07:17:02Z</time>
      </trkpt>
      <trkpt lat="44.31735" lon="5.78497">
        <ele>603</ele>
        <time>2019-06-07T07:17:03Z</time>
      </trkpt>
      <trkpt lat="44.31742" lon="5.78491">
        <ele>603</ele>
        <time>2019-06-07T07:17:04Z</time>
      </trkpt>
      <trkpt lat="44.31748" lon="5.78484">
        <ele>603</ele>
        <time>2019-06-07T07:17:05Z</time>
      </trkpt>
      <trkpt lat="44.31753" lon="5.78476">
        <ele>603</ele>
        <time>2019-06-07T07:17:06Z</time>
      </trkpt>
      <trkpt lat="44.31758" lon="5.78469">
        <ele>603</ele>
        <time>2019-06-07T07:17:07Z</time>
      </trkpt>
      <trkpt lat="44.31762" lon="5.78461">
        <ele>603</ele>
        <time>2019-06-07T07:17:08Z</time>
      </trkpt>
      <trkpt lat="44.31766" lon="5.78453">
        <ele>603</ele>
        <time>2019-06-07T07:17:09Z</time>
      </trkpt>
      <trkpt lat="44.3177" lon="5.78446">
        <ele>603</ele>
        <time>2019-06-07T07:17:10Z</time>
      </trkpt>
      <trkpt lat="44.31774" lon="5.78439">
        <ele>603</ele>
        <time>2019-06-07T07:17:11Z</time>
      </trkpt>
      <trkpt lat="44.31778" lon="5.78432">
        <ele>603</ele>
        <time>2019-06-07T07:17:12Z</time>
      </trkpt>
      <trkpt lat="44.31782" lon="5.78425">
        <ele>603</ele>
        <time>2019-06-07T07:17:13Z</time>
      </trkpt>
      <trkpt lat="44.31786" lon="5.78418">
        <ele>603</ele>
        <time>2019-06-07T07:17:14Z</time>
      </trkpt>
      <trkpt lat="44.3179" lon="5.78411">
        <ele>603</ele>
        <time>2019-06-07T07:17:15Z</time>
      </trkpt>
      <trkpt lat="44.31794" lon="5.78405">
        <ele>603</ele>
        <time>2019-06-07T07:17:16Z</time>
      </trkpt>
      <trkpt lat="44.31798" lon="5.78398">
        <ele>602</ele>
        <time>2019-06-07T07:17:17Z</time>
      </trkpt>
      <trkpt lat="44.31802" lon="5.78391">
        <ele>602</ele>
        <time>2019-06-07T07:17:18Z</time>
      </trkpt>
      <trkpt lat="44.31806" lon="5.78383">
        <ele>602</ele>
        <time>2019-06-07T07:17:19Z</time>
      </trkpt>
      <trkpt lat="44.3181" lon="5.78373">
        <ele>602</ele>
        <time>2019-06-07T07:17:20Z</time>
      </trkpt>
      <trkpt lat="44.31813" lon="5.78364">
        <ele>601</ele>
        <time>2019-06-07T07:17:21Z</time>
      </trkpt>
      <trkpt lat="44.31816" lon="5.78353">
        <ele>601</ele>
        <time>2019-06-07T07:17:22Z</time>
      </trkpt>
      <trkpt lat="44.31818" lon="5.78341">
        <ele>601</ele>
        <time>2019-06-07T07:17:23Z</time>
      </trkpt>
      <trkpt lat="44.31819" lon="5.7833">
        <ele>601</ele>
        <time>2019-06-07T07:17:24Z</time>
      </trkpt>
      <trkpt lat="44.31818" lon="5.78319">
        <ele>601</ele>
        <time>2019-06-07T07:17:25Z</time>
      </trkpt>
      <trkpt lat="44.31816" lon="5.78308">
        <ele>601</ele>
        <time>2019-06-07T07:17:26Z</time>
      </trkpt>
      <trkpt lat="44.31815" lon="5.78298">
        <ele>600</ele>
        <time>2019-06-07T07:17:27Z</time>
      </trkpt>
      <trkpt lat="44.31814" lon="5.78288">
        <ele>599</ele>
        <time>2019-06-07T07:17:28Z</time>
      </trkpt>
      <trkpt lat="44.31816" lon="5.78279">
        <ele>598</ele>
        <time>2019-06-07T07:17:29Z</time>
      </trkpt>
      <trkpt lat="44.31819" lon="5.78272">
        <ele>597</ele>
        <time>2019-06-07T07:17:30Z</time>
      </trkpt>
      <trkpt lat="44.31824" lon="5.78268">
        <ele>597</ele>
        <time>2019-06-07T07:17:31Z</time>
      </trkpt>
      <trkpt lat="44.31831" lon="5.78268">
        <ele>597</ele>
        <time>2019-06-07T07:17:32Z</time>
      </trkpt>
      <trkpt lat="44.31837" lon="5.78271">
        <ele>596</ele>
        <time>2019-06-07T07:17:33Z</time>
      </trkpt>
      <trkpt lat="44.31844" lon="5.78275">
        <ele>596</ele>
        <time>2019-06-07T07:17:34Z</time>
      </trkpt>
      <trkpt lat="44.31849" lon="5.78279">
        <ele>596</ele>
        <time>2019-06-07T07:17:35Z</time>
      </trkpt>
      <trkpt lat="44.31853" lon="5.78282">
        <ele>596</ele>
        <time>2019-06-07T07:17:36Z</time>
      </trkpt>
      <trkpt lat="44.31859" lon="5.78284">
        <ele>596</ele>
        <time>2019-06-07T07:17:37Z</time>
      </trkpt>
      <trkpt lat="44.31863" lon="5.78286">
        <ele>596</ele>
        <time>2019-06-07T07:17:38Z</time>
      </trkpt>
      <trkpt lat="44.31866" lon="5.78287">
        <ele>596</ele>
        <time>2019-06-07T07:17:39Z</time>
      </trkpt>
      <trkpt lat="44.31871" lon="5.78288">
        <ele>596</ele>
        <time>2019-06-07T07:17:40Z</time>
      </trkpt>
      <trkpt lat="44.31876" lon="5.78289">
        <ele>596</ele>
        <time>2019-06-07T07:17:41Z</time>
      </trkpt>
      <trkpt lat="44.31881" lon="5.78291">
        <ele>596</ele>
        <time>2019-06-07T07:17:42Z</time>
      </trkpt>
      <trkpt lat="44.31885" lon="5.78293">
        <ele>596</ele>
        <time>2019-06-07T07:17:43Z</time>
      </trkpt>
      <trkpt lat="44.31889" lon="5.78295">
        <ele>596</ele>
        <time>2019-06-07T07:17:44Z</time>
      </trkpt>
      <trkpt lat="44.31892" lon="5.78297">
        <ele>596</ele>
        <time>2019-06-07T07:17:45Z</time>
      </trkpt>
      <trkpt lat="44.31895" lon="5.783">
        <ele>596</ele>
        <time>2019-06-07T07:17:46Z</time>
      </trkpt>
      <trkpt lat="44.31898" lon="5.78301">
        <ele>596</ele>
        <time>2019-06-07T07:17:47Z</time>
      </trkpt>
      <trkpt lat="44.319" lon="5.78304">
        <ele>596</ele>
        <time>2019-06-07T07:17:48Z</time>
      </trkpt>
      <trkpt lat="44.31902" lon="5.78306">
        <ele>596</ele>
        <time>2019-06-07T07:17:49Z</time>
      </trkpt>
      <trkpt lat="44.31905" lon="5.78307">
        <ele>596</ele>
        <time>2019-06-07T07:17:50Z</time>
      </trkpt>
      <trkpt lat="44.31908" lon="5.78308">
        <ele>596</ele>
        <time>2019-06-07T07:17:51Z</time>
      </trkpt>
      <trkpt lat="44.31915" lon="5.78308">
        <ele>596</ele>
        <time>2019-06-07T07:17:52Z</time>
      </trkpt>
      <trkpt lat="44.31919" lon="5.78309">
        <ele>596</ele>
        <time>2019-06-07T07:17:53Z</time>
      </trkpt>
      <trkpt lat="44.31924" lon="5.78309">
        <ele>596</ele>
        <time>2019-06-07T07:17:54Z</time>
      </trkpt>
      <trkpt lat="44.31928" lon="5.78309">
        <ele>596</ele>
        <time>2019-06-07T07:17:55Z</time>
      </trkpt>
      <trkpt lat="44.31933" lon="5.78308">
        <ele>596</ele>
        <time>2019-06-07T07:17:56Z</time>
      </trkpt>
      <trkpt lat="44.31937" lon="5.78307">
        <ele>596</ele>
        <time>2019-06-07T07:17:57Z</time>
      </trkpt>
      <trkpt lat="44.31942" lon="5.78306">
        <ele>596</ele>
        <time>2019-06-07T07:17:58Z</time>
      </trkpt>
      <trkpt lat="44.31946" lon="5.78304">
        <ele>596</ele>
        <time>2019-06-07T07:17:59Z</time>
      </trkpt>
      <trkpt lat="44.3195" lon="5.78302">
        <ele>596</ele>
        <time>2019-06-07T07:18:00Z</time>
      </trkpt>
      <trkpt lat="44.31954" lon="5.783">
        <ele>596</ele>
        <time>2019-06-07T07:18:01Z</time>
      </trkpt>
      <trkpt lat="44.31958" lon="5.78298">
        <ele>597</ele>
        <time>2019-06-07T07:18:02Z</time>
      </trkpt>
      <trkpt lat="44.31962" lon="5.78296">
        <ele>597</ele>
        <time>2019-06-07T07:18:03Z</time>
      </trkpt>
      <trkpt lat="44.31966" lon="5.78293">
        <ele>597</ele>
        <time>2019-06-07T07:18:04Z</time>
      </trkpt>
      <trkpt lat="44.31971" lon="5.78289">
        <ele>598</ele>
        <time>2019-06-07T07:18:05Z</time>
      </trkpt>
      <trkpt lat="44.31975" lon="5.78286">
        <ele>598</ele>
        <time>2019-06-07T07:18:06Z</time>
      </trkpt>
      <trkpt lat="44.31979" lon="5.78283">
        <ele>599</ele>
        <time>2019-06-07T07:18:07Z</time>
      </trkpt>
      <trkpt lat="44.31984" lon="5.78279">
        <ele>599</ele>
        <time>2019-06-07T07:18:08Z</time>
      </trkpt>
      <trkpt lat="44.31988" lon="5.78275">
        <ele>599</ele>
        <time>2019-06-07T07:18:09Z</time>
      </trkpt>
      <trkpt lat="44.31993" lon="5.78271">
        <ele>600</ele>
        <time>2019-06-07T07:18:10Z</time>
      </trkpt>
      <trkpt lat="44.31998" lon="5.78267">
        <ele>600</ele>
        <time>2019-06-07T07:18:11Z</time>
      </trkpt>
      <trkpt lat="44.32003" lon="5.78263">
        <ele>600</ele>
        <time>2019-06-07T07:18:12Z</time>
      </trkpt>
      <trkpt lat="44.32008" lon="5.78258">
        <ele>600</ele>
        <time>2019-06-07T07:18:13Z</time>
      </trkpt>
      <trkpt lat="44.32013" lon="5.78254">
        <ele>600</ele>
        <time>2019-06-07T07:18:14Z</time>
      </trkpt>
      <trkpt lat="44.32018" lon="5.7825">
        <ele>600</ele>
        <time>2019-06-07T07:18:15Z</time>
      </trkpt>
      <trkpt lat="44.32023" lon="5.78245">
        <ele>600</ele>
        <time>2019-06-07T07:18:16Z</time>
      </trkpt>
      <trkpt lat="44.32028" lon="5.78241">
        <ele>600</ele>
        <time>2019-06-07T07:18:17Z</time>
      </trkpt>
      <trkpt lat="44.32032" lon="5.78236">
        <ele>600</ele>
        <time>2019-06-07T07:18:18Z</time>
      </trkpt>
      <trkpt lat="44.32037" lon="5.78231">
        <ele>600</ele>
        <time>2019-06-07T07:18:19Z</time>
      </trkpt>
      <trkpt lat="44.32042" lon="5.78227">
        <ele>600</ele>
        <time>2019-06-07T07:18:20Z</time>
      </trkpt>
      <trkpt lat="44.32047" lon="5.78222">
        <ele>600</ele>
        <time>2019-06-07T07:18:21Z</time>
      </trkpt>
      <trkpt lat="44.32052" lon="5.78218">
        <ele>600</ele>
        <time>2019-06-07T07:18:22Z</time>
      </trkpt>
      <trkpt lat="44.32056" lon="5.78213">
        <ele>600</ele>
        <time>2019-06-07T07:18:23Z</time>
      </trkpt>
      <trkpt lat="44.32061" lon="5.78208">
        <ele>600</ele>
        <time>2019-06-07T07:18:24Z</time>
      </trkpt>
      <trkpt lat="44.32065" lon="5.78204">
        <ele>600</ele>
        <time>2019-06-07T07:18:25Z</time>
      </trkpt>
      <trkpt lat="44.3207" lon="5.78199">
        <ele>600</ele>
        <time>2019-06-07T07:18:26Z</time>
      </trkpt>
      <trkpt lat="44.32074" lon="5.78195">
        <ele>600</ele>
        <time>2019-06-07T07:18:27Z</time>
      </trkpt>
      <trkpt lat="44.32078" lon="5.7819">
        <ele>600</ele>
        <time>2019-06-07T07:18:28Z</time>
      </trkpt>
      <trkpt lat="44.32083" lon="5.78185">
        <ele>600</ele>
        <time>2019-06-07T07:18:29Z</time>
      </trkpt>
      <trkpt lat="44.32087" lon="5.78181">
        <ele>600</ele>
        <time>2019-06-07T07:18:30Z</time>
      </trkpt>
      <trkpt lat="44.32091" lon="5.78176">
        <ele>600</ele>
        <time>2019-06-07T07:18:31Z</time>
      </trkpt>
      <trkpt lat="44.32096" lon="5.78172">
        <ele>600</ele>
        <time>2019-06-07T07:18:32Z</time>
      </trkpt>
      <trkpt lat="44.321" lon="5.78168">
        <ele>600</ele>
        <time>2019-06-07T07:18:33Z</time>
      </trkpt>
      <trkpt lat="44.32105" lon="5.78163">
        <ele>600</ele>
        <time>2019-06-07T07:18:34Z</time>
      </trkpt>
      <trkpt lat="44.32109" lon="5.78159">
        <ele>600</ele>
        <time>2019-06-07T07:18:35Z</time>
      </trkpt>
      <trkpt lat="44.32114" lon="5.78155">
        <ele>600</ele>
        <time>2019-06-07T07:18:36Z</time>
      </trkpt>
      <trkpt lat="44.32118" lon="5.7815">
        <ele>601</ele>
        <time>2019-06-07T07:18:37Z</time>
      </trkpt>
      <trkpt lat="44.32122" lon="5.78146">
        <ele>601</ele>
        <time>2019-06-07T07:18:38Z</time>
      </trkpt>
      <trkpt lat="44.32127" lon="5.78142">
        <ele>601</ele>
        <time>2019-06-07T07:18:39Z</time>
      </trkpt>
      <trkpt lat="44.32132" lon="5.78137">
        <ele>601</ele>
        <time>2019-06-07T07:18:40Z</time>
      </trkpt>
      <trkpt lat="44.32136" lon="5.78133">
        <ele>601</ele>
        <time>2019-06-07T07:18:41Z</time>
      </trkpt>
      <trkpt lat="44.32141" lon="5.78128">
        <ele>601</ele>
        <time>2019-06-07T07:18:42Z</time>
      </trkpt>
      <trkpt lat="44.32145" lon="5.78124">
        <ele>601</ele>
        <time>2019-06-07T07:18:43Z</time>
      </trkpt>
      <trkpt lat="44.3215" lon="5.78119">
        <ele>601</ele>
        <time>2019-06-07T07:18:44Z</time>
      </trkpt>
      <trkpt lat="44.32155" lon="5.78114">
        <ele>601</ele>
        <time>2019-06-07T07:18:45Z</time>
      </trkpt>
      <trkpt lat="44.32159" lon="5.78109">
        <ele>601</ele>
        <time>2019-06-07T07:18:46Z</time>
      </trkpt>
      <trkpt lat="44.32164" lon="5.78105">
        <ele>601</ele>
        <time>2019-06-07T07:18:47Z</time>
      </trkpt>
      <trkpt lat="44.3217" lon="5.781">
        <ele>601</ele>
        <time>2019-06-07T07:18:48Z</time>
      </trkpt>
      <trkpt lat="44.32175" lon="5.78096">
        <ele>601</ele>
        <time>2019-06-07T07:18:49Z</time>
      </trkpt>
      <trkpt lat="44.3218" lon="5.78091">
        <ele>601</ele>
        <time>2019-06-07T07:18:50Z</time>
      </trkpt>
      <trkpt lat="44.32185" lon="5.78087">
        <ele>601</ele>
        <time>2019-06-07T07:18:51Z</time>
      </trkpt>
      <trkpt lat="44.3219" lon="5.78082">
        <ele>601</ele>
        <time>2019-06-07T07:18:52Z</time>
      </trkpt>
      <trkpt lat="44.32196" lon="5.78079">
        <ele>601</ele>
        <time>2019-06-07T07:18:53Z</time>
      </trkpt>
      <trkpt lat="44.32201" lon="5.78075">
        <ele>602</ele>
        <time>2019-06-07T07:18:54Z</time>
      </trkpt>
      <trkpt lat="44.32207" lon="5.78072">
        <ele>602</ele>
        <time>2019-06-07T07:18:55Z</time>
      </trkpt>
      <trkpt lat="44.32213" lon="5.78068">
        <ele>602</ele>
        <time>2019-06-07T07:18:56Z</time>
      </trkpt>
      <trkpt lat="44.32219" lon="5.78065">
        <ele>602</ele>
        <time>2019-06-07T07:18:57Z</time>
      </trkpt>
      <trkpt lat="44.32224" lon="5.78061">
        <ele>602</ele>
        <time>2019-06-07T07:18:58Z</time>
      </trkpt>
      <trkpt lat="44.3223" lon="5.78057">
        <ele>602</ele>
        <time>2019-06-07T07:18:59Z</time>
      </trkpt>
      <trkpt lat="44.32236" lon="5.78054">
        <ele>602</ele>
        <time>2019-06-07T07:19:00Z</time>
      </trkpt>
      <trkpt lat="44.32241" lon="5.7805">
        <ele>602</ele>
        <time>2019-06-07T07:19:01Z</time>
      </trkpt>
      <trkpt lat="44.32247" lon="5.78046">
        <ele>602</ele>
        <time>2019-06-07T07:19:02Z</time>
      </trkpt>
      <trkpt lat="44.32253" lon="5.78043">
        <ele>602</ele>
        <time>2019-06-07T07:19:03Z</time>
      </trkpt>
      <trkpt lat="44.32259" lon="5.7804">
        <ele>602</ele>
        <time>2019-06-07T07:19:04Z</time>
      </trkpt>
      <trkpt lat="44.32264" lon="5.78036">
        <ele>602</ele>
        <time>2019-06-07T07:19:05Z</time>
      </trkpt>
      <trkpt lat="44.3227" lon="5.78033">
        <ele>602</ele>
        <time>2019-06-07T07:19:06Z</time>
      </trkpt>
      <trkpt lat="44.32276" lon="5.78029">
        <ele>602</ele>
        <time>2019-06-07T07:19:07Z</time>
      </trkpt>
      <trkpt lat="44.32282" lon="5.78025">
        <ele>602</ele>
        <time>2019-06-07T07:19:08Z</time>
      </trkpt>
      <trkpt lat="44.32288" lon="5.78022">
        <ele>602</ele>
        <time>2019-06-07T07:19:09Z</time>
      </trkpt>
      <trkpt lat="44.32294" lon="5.78018">
        <ele>602</ele>
        <time>2019-06-07T07:19:10Z</time>
      </trkpt>
      <trkpt lat="44.32301" lon="5.78014">
        <ele>602</ele>
        <time>2019-06-07T07:19:11Z</time>
      </trkpt>
      <trkpt lat="44.32307" lon="5.7801">
        <ele>602</ele>
        <time>2019-06-07T07:19:12Z</time>
      </trkpt>
      <trkpt lat="44.32313" lon="5.78005">
        <ele>602</ele>
        <time>2019-06-07T07:19:13Z</time>
      </trkpt>
      <trkpt lat="44.32319" lon="5.78001">
        <ele>602</ele>
        <time>2019-06-07T07:19:14Z</time>
      </trkpt>
      <trkpt lat="44.32325" lon="5.77997">
        <ele>602</ele>
        <time>2019-06-07T07:19:15Z</time>
      </trkpt>
      <trkpt lat="44.32331" lon="5.77993">
        <ele>602</ele>
        <time>2019-06-07T07:19:16Z</time>
      </trkpt>
      <trkpt lat="44.32338" lon="5.77988">
        <ele>602</ele>
        <time>2019-06-07T07:19:17Z</time>
      </trkpt>
      <trkpt lat="44.32344" lon="5.77985">
        <ele>602</ele>
        <time>2019-06-07T07:19:18Z</time>
      </trkpt>
      <trkpt lat="44.32351" lon="5.77981">
        <ele>602</ele>
        <time>2019-06-07T07:19:19Z</time>
      </trkpt>
      <trkpt lat="44.32357" lon="5.77977">
        <ele>602</ele>
        <time>2019-06-07T07:19:20Z</time>
      </trkpt>
      <trkpt lat="44.32363" lon="5.77973">
        <ele>602</ele>
        <time>2019-06-07T07:19:21Z</time>
      </trkpt>
      <trkpt lat="44.3237" lon="5.77969">
        <ele>602</ele>
        <time>2019-06-07T07:19:22Z</time>
      </trkpt>
      <trkpt lat="44.32376" lon="5.77965">
        <ele>602</ele>
        <time>2019-06-07T07:19:23Z</time>
      </trkpt>
      <trkpt lat="44.32383" lon="5.77962">
        <ele>602</ele>
        <time>2019-06-07T07:19:24Z</time>
      </trkpt>
      <trkpt lat="44.32389" lon="5.77958">
        <ele>602</ele>
        <time>2019-06-07T07:19:25Z</time>
      </trkpt>
      <trkpt lat="44.32396" lon="5.77954">
        <ele>602</ele>
        <time>2019-06-07T07:19:26Z</time>
      </trkpt>
      <trkpt lat="44.32402" lon="5.7795">
        <ele>602</ele>
        <time>2019-06-07T07:19:27Z</time>
      </trkpt>
      <trkpt lat="44.32408" lon="5.77947">
        <ele>602</ele>
        <time>2019-06-07T07:19:28Z</time>
      </trkpt>
      <trkpt lat="44.32414" lon="5.77943">
        <ele>602</ele>
        <time>2019-06-07T07:19:29Z</time>
      </trkpt>
      <trkpt lat="44.3242" lon="5.77939">
        <ele>602</ele>
        <time>2019-06-07T07:19:30Z</time>
      </trkpt>
      <trkpt lat="44.32427" lon="5.77936">
        <ele>602</ele>
        <time>2019-06-07T07:19:31Z</time>
      </trkpt>
      <trkpt lat="44.32433" lon="5.77931">
        <ele>602</ele>
        <time>2019-06-07T07:19:32Z</time>
      </trkpt>
      <trkpt lat="44.32439" lon="5.77927">
        <ele>602</ele>
        <time>2019-06-07T07:19:33Z</time>
      </trkpt>
      <trkpt lat="44.32445" lon="5.77923">
        <ele>602</ele>
        <time>2019-06-07T07:19:34Z</time>
      </trkpt>
      <trkpt lat="44.32451" lon="5.77919">
        <ele>602</ele>
        <time>2019-06-07T07:19:35Z</time>
      </trkpt>
      <trkpt lat="44.32457" lon="5.77915">
        <ele>602</ele>
        <time>2019-06-07T07:19:36Z</time>
      </trkpt>
      <trkpt lat="44.32463" lon="5.77911">
        <ele>602</ele>
        <time>2019-06-07T07:19:37Z</time>
      </trkpt>
      <trkpt lat="44.3247" lon="5.77906">
        <ele>602</ele>
        <time>2019-06-07T07:19:38Z</time>
      </trkpt>
      <trkpt lat="44.32475" lon="5.77901">
        <ele>602</ele>
        <time>2019-06-07T07:19:39Z</time>
      </trkpt>
      <trkpt lat="44.32481" lon="5.77896">
        <ele>602</ele>
        <time>2019-06-07T07:19:40Z</time>
      </trkpt>
      <trkpt lat="44.32487" lon="5.77891">
        <ele>602</ele>
        <time>2019-06-07T07:19:41Z</time>
      </trkpt>
      <trkpt lat="44.32493" lon="5.77886">
        <ele>602</ele>
        <time>2019-06-07T07:19:42Z</time>
      </trkpt>
      <trkpt lat="44.32499" lon="5.77881">
        <ele>602</ele>
        <time>2019-06-07T07:19:43Z</time>
      </trkpt>
      <trkpt lat="44.32505" lon="5.77877">
        <ele>602</ele>
        <time>2019-06-07T07:19:44Z</time>
      </trkpt>
      <trkpt lat="44.32511" lon="5.77872">
        <ele>602</ele>
        <time>2019-06-07T07:19:45Z</time>
      </trkpt>
      <trkpt lat="44.32516" lon="5.77867">
        <ele>602</ele>
        <time>2019-06-07T07:19:46Z</time>
      </trkpt>
      <trkpt lat="44.32522" lon="5.77862">
        <ele>602</ele>
        <time>2019-06-07T07:19:47Z</time>
      </trkpt>
      <trkpt lat="44.32528" lon="5.77857">
        <ele>602</ele>
        <time>2019-06-07T07:19:48Z</time>
      </trkpt>
      <trkpt lat="44.32534" lon="5.77851">
        <ele>602</ele>
        <time>2019-06-07T07:19:49Z</time>
      </trkpt>
      <trkpt lat="44.32539" lon="5.77846">
        <ele>602</ele>
        <time>2019-06-07T07:19:50Z</time>
      </trkpt>
      <trkpt lat="44.32545" lon="5.77841">
        <ele>602</ele>
        <time>2019-06-07T07:19:51Z</time>
      </trkpt>
      <trkpt lat="44.32551" lon="5.77835">
        <ele>602</ele>
        <time>2019-06-07T07:19:52Z</time>
      </trkpt>
      <trkpt lat="44.32556" lon="5.77829">
        <ele>602</ele>
        <time>2019-06-07T07:19:53Z</time>
      </trkpt>
      <trkpt lat="44.32562" lon="5.77824">
        <ele>602</ele>
        <time>2019-06-07T07:19:54Z</time>
      </trkpt>
      <trkpt lat="44.32568" lon="5.77818">
        <ele>602</ele>
        <time>2019-06-07T07:19:55Z</time>
      </trkpt>
      <trkpt lat="44.32574" lon="5.77814">
        <ele>602</ele>
        <time>2019-06-07T07:19:56Z</time>
      </trkpt>
      <trkpt lat="44.3258" lon="5.77809">
        <ele>602</ele>
        <time>2019-06-07T07:19:57Z</time>
      </trkpt>
      <trkpt lat="44.32586" lon="5.77805">
        <ele>602</ele>
        <time>2019-06-07T07:19:58Z</time>
      </trkpt>
      <trkpt lat="44.32593" lon="5.778">
        <ele>602</ele>
        <time>2019-06-07T07:19:59Z</time>
      </trkpt>
      <trkpt lat="44.32599" lon="5.77795">
        <ele>602</ele>
        <time>2019-06-07T07:20:00Z</time>
      </trkpt>
      <trkpt lat="44.32605" lon="5.7779">
        <ele>602</ele>
        <time>2019-06-07T07:20:01Z</time>
      </trkpt>
      <trkpt lat="44.32611" lon="5.77784">
        <ele>602</ele>
        <time>2019-06-07T07:20:02Z</time>
      </trkpt>
      <trkpt lat="44.32617" lon="5.77778">
        <ele>602</ele>
        <time>2019-06-07T07:20:03Z</time>
      </trkpt>
      <trkpt lat="44.32622" lon="5.77772">
        <ele>602</ele>
        <time>2019-06-07T07:20:04Z</time>
      </trkpt>
      <trkpt lat="44.32627" lon="5.77765">
        <ele>602</ele>
        <time>2019-06-07T07:20:05Z</time>
      </trkpt>
      <trkpt lat="44.32632" lon="5.77758">
        <ele>602</ele>
        <time>2019-06-07T07:20:06Z</time>
      </trkpt>
      <trkpt lat="44.32636" lon="5.77751">
        <ele>602</ele>
        <time>2019-06-07T07:20:07Z</time>
      </trkpt>
      <trkpt lat="44.3264" lon="5.77743">
        <ele>602</ele>
        <time>2019-06-07T07:20:08Z</time>
      </trkpt>
      <trkpt lat="44.32645" lon="5.77736">
        <ele>602</ele>
        <time>2019-06-07T07:20:09Z</time>
      </trkpt>
      <trkpt lat="44.32648" lon="5.77729">
        <ele>602</ele>
        <time>2019-06-07T07:20:10Z</time>
      </trkpt>
      <trkpt lat="44.32652" lon="5.77721">
        <ele>602</ele>
        <time>2019-06-07T07:20:11Z</time>
      </trkpt>
      <trkpt lat="44.32656" lon="5.77714">
        <ele>602</ele>
        <time>2019-06-07T07:20:12Z</time>
      </trkpt>
      <trkpt lat="44.32659" lon="5.77706">
        <ele>602</ele>
        <time>2019-06-07T07:20:13Z</time>
      </trkpt>
      <trkpt lat="44.32662" lon="5.77698">
        <ele>602</ele>
        <time>2019-06-07T07:20:14Z</time>
      </trkpt>
      <trkpt lat="44.32665" lon="5.77691">
        <ele>602</ele>
        <time>2019-06-07T07:20:15Z</time>
      </trkpt>
      <trkpt lat="44.32667" lon="5.77682">
        <ele>602</ele>
        <time>2019-06-07T07:20:16Z</time>
      </trkpt>
      <trkpt lat="44.32669" lon="5.77674">
        <ele>602</ele>
        <time>2019-06-07T07:20:17Z</time>
      </trkpt>
      <trkpt lat="44.32672" lon="5.77666">
        <ele>602</ele>
        <time>2019-06-07T07:20:18Z</time>
      </trkpt>
      <trkpt lat="44.32674" lon="5.77658">
        <ele>602</ele>
        <time>2019-06-07T07:20:19Z</time>
      </trkpt>
      <trkpt lat="44.32676" lon="5.77649">
        <ele>602</ele>
        <time>2019-06-07T07:20:20Z</time>
      </trkpt>
      <trkpt lat="44.32678" lon="5.77641">
        <ele>602</ele>
        <time>2019-06-07T07:20:21Z</time>
      </trkpt>
      <trkpt lat="44.3268" lon="5.77632">
        <ele>602</ele>
        <time>2019-06-07T07:20:22Z</time>
      </trkpt>
      <trkpt lat="44.32683" lon="5.77624">
        <ele>601</ele>
        <time>2019-06-07T07:20:23Z</time>
      </trkpt>
      <trkpt lat="44.32686" lon="5.77617">
        <ele>601</ele>
        <time>2019-06-07T07:20:24Z</time>
      </trkpt>
      <trkpt lat="44.3269" lon="5.77609">
        <ele>601</ele>
        <time>2019-06-07T07:20:25Z</time>
      </trkpt>
      <trkpt lat="44.32695" lon="5.77604">
        <ele>601</ele>
        <time>2019-06-07T07:20:26Z</time>
      </trkpt>
      <trkpt lat="44.32701" lon="5.77601">
        <ele>601</ele>
        <time>2019-06-07T07:20:27Z</time>
      </trkpt>
      <trkpt lat="44.32707" lon="5.77599">
        <ele>601</ele>
        <time>2019-06-07T07:20:28Z</time>
      </trkpt>
      <trkpt lat="44.32713" lon="5.77597">
        <ele>601</ele>
        <time>2019-06-07T07:20:29Z</time>
      </trkpt>
      <trkpt lat="44.3272" lon="5.77595">
        <ele>601</ele>
        <time>2019-06-07T07:20:30Z</time>
      </trkpt>
      <trkpt lat="44.32726" lon="5.77593">
        <ele>601</ele>
        <time>2019-06-07T07:20:31Z</time>
      </trkpt>
      <trkpt lat="44.32732" lon="5.77591">
        <ele>601</ele>
        <time>2019-06-07T07:20:32Z</time>
      </trkpt>
      <trkpt lat="44.32738" lon="5.77589">
        <ele>601</ele>
        <time>2019-06-07T07:20:33Z</time>
      </trkpt>
      <trkpt lat="44.32744" lon="5.77587">
        <ele>601</ele>
        <time>2019-06-07T07:20:34Z</time>
      </trkpt>
      <trkpt lat="44.3275" lon="5.77584">
        <ele>601</ele>
        <time>2019-06-07T07:20:35Z</time>
      </trkpt>
      <trkpt lat="44.32756" lon="5.77582">
        <ele>601</ele>
        <time>2019-06-07T07:20:36Z</time>
      </trkpt>
      <trkpt lat="44.32761" lon="5.7758">
        <ele>601</ele>
        <time>2019-06-07T07:20:37Z</time>
      </trkpt>
      <trkpt lat="44.32767" lon="5.77579">
        <ele>601</ele>
        <time>2019-06-07T07:20:38Z</time>
      </trkpt>
      <trkpt lat="44.32773" lon="5.77578">
        <ele>601</ele>
        <time>2019-06-07T07:20:39Z</time>
      </trkpt>
      <trkpt lat="44.32779" lon="5.77578">
        <ele>601</ele>
        <time>2019-06-07T07:20:40Z</time>
      </trkpt>
      <trkpt lat="44.32785" lon="5.77578">
        <ele>601</ele>
        <time>2019-06-07T07:20:41Z</time>
      </trkpt>
      <trkpt lat="44.32791" lon="5.77579">
        <ele>601</ele>
        <time>2019-06-07T07:20:42Z</time>
      </trkpt>
      <trkpt lat="44.32797" lon="5.7758">
        <ele>600</ele>
        <time>2019-06-07T07:20:43Z</time>
      </trkpt>
      <trkpt lat="44.32803" lon="5.77582">
        <ele>600</ele>
        <time>2019-06-07T07:20:44Z</time>
      </trkpt>
      <trkpt lat="44.3281" lon="5.77585">
        <ele>600</ele>
        <time>2019-06-07T07:20:45Z</time>
      </trkpt>
      <trkpt lat="44.32816" lon="5.77588">
        <ele>600</ele>
        <time>2019-06-07T07:20:46Z</time>
      </trkpt>
      <trkpt lat="44.32823" lon="5.7759">
        <ele>600</ele>
        <time>2019-06-07T07:20:47Z</time>
      </trkpt>
      <trkpt lat="44.3283" lon="5.77591">
        <ele>599</ele>
        <time>2019-06-07T07:20:48Z</time>
      </trkpt>
      <trkpt lat="44.32837" lon="5.77592">
        <ele>599</ele>
        <time>2019-06-07T07:20:49Z</time>
      </trkpt>
      <trkpt lat="44.32843" lon="5.77593">
        <ele>599</ele>
        <time>2019-06-07T07:20:50Z</time>
      </trkpt>
      <trkpt lat="44.3285" lon="5.77593">
        <ele>599</ele>
        <time>2019-06-07T07:20:51Z</time>
      </trkpt>
      <trkpt lat="44.32856" lon="5.77594">
        <ele>599</ele>
        <time>2019-06-07T07:20:52Z</time>
      </trkpt>
      <trkpt lat="44.32863" lon="5.77594">
        <ele>599</ele>
        <time>2019-06-07T07:20:53Z</time>
      </trkpt>
      <trkpt lat="44.3287" lon="5.77595">
        <ele>598</ele>
        <time>2019-06-07T07:20:54Z</time>
      </trkpt>
      <trkpt lat="44.32877" lon="5.77595">
        <ele>598</ele>
        <time>2019-06-07T07:20:55Z</time>
      </trkpt>
      <trkpt lat="44.32883" lon="5.77595">
        <ele>598</ele>
        <time>2019-06-07T07:20:56Z</time>
      </trkpt>
      <trkpt lat="44.3289" lon="5.77596">
        <ele>598</ele>
        <time>2019-06-07T07:20:57Z</time>
      </trkpt>
      <trkpt lat="44.32896" lon="5.77596">
        <ele>598</ele>
        <time>2019-06-07T07:20:58Z</time>
      </trkpt>
      <trkpt lat="44.32903" lon="5.77596">
        <ele>598</ele>
        <time>2019-06-07T07:20:59Z</time>
      </trkpt>
      <trkpt lat="44.3291" lon="5.77597">
        <ele>598</ele>
        <time>2019-06-07T07:21:00Z</time>
      </trkpt>
      <trkpt lat="44.32917" lon="5.77597">
        <ele>598</ele>
        <time>2019-06-07T07:21:01Z</time>
      </trkpt>
      <trkpt lat="44.32924" lon="5.77597">
        <ele>598</ele>
        <time>2019-06-07T07:21:02Z</time>
      </trkpt>
      <trkpt lat="44.3293" lon="5.77598">
        <ele>598</ele>
        <time>2019-06-07T07:21:03Z</time>
      </trkpt>
      <trkpt lat="44.32937" lon="5.77598">
        <ele>598</ele>
        <time>2019-06-07T07:21:04Z</time>
      </trkpt>
      <trkpt lat="44.32944" lon="5.77598">
        <ele>598</ele>
        <time>2019-06-07T07:21:05Z</time>
      </trkpt>
      <trkpt lat="44.3295" lon="5.77598">
        <ele>598</ele>
        <time>2019-06-07T07:21:06Z</time>
      </trkpt>
      <trkpt lat="44.32957" lon="5.77598">
        <ele>598</ele>
        <time>2019-06-07T07:21:07Z</time>
      </trkpt>
      <trkpt lat="44.32964" lon="5.77598">
        <ele>598</ele>
        <time>2019-06-07T07:21:08Z</time>
      </trkpt>
      <trkpt lat="44.3297" lon="5.77599">
        <ele>598</ele>
        <time>2019-06-07T07:21:09Z</time>
      </trkpt>
      <trkpt lat="44.32977" lon="5.77599">
        <ele>598</ele>
        <time>2019-06-07T07:21:10Z</time>
      </trkpt>
      <trkpt lat="44.32983" lon="5.77599">
        <ele>598</ele>
        <time>2019-06-07T07:21:11Z</time>
      </trkpt>
      <trkpt lat="44.3299" lon="5.77599">
        <ele>598</ele>
        <time>2019-06-07T07:21:12Z</time>
      </trkpt>
      <trkpt lat="44.32997" lon="5.77598">
        <ele>598</ele>
        <time>2019-06-07T07:21:13Z</time>
      </trkpt>
      <trkpt lat="44.33004" lon="5.77598">
        <ele>598</ele>
        <time>2019-06-07T07:21:14Z</time>
      </trkpt>
      <trkpt lat="44.33011" lon="5.77598">
        <ele>597</ele>
        <time>2019-06-07T07:21:15Z</time>
      </trkpt>
      <trkpt lat="44.33019" lon="5.77597">
        <ele>597</ele>
        <time>2019-06-07T07:21:16Z</time>
      </trkpt>
      <trkpt lat="44.33026" lon="5.77597">
        <ele>597</ele>
        <time>2019-06-07T07:21:17Z</time>
      </trkpt>
      <trkpt lat="44.33034" lon="5.77597">
        <ele>597</ele>
        <time>2019-06-07T07:21:18Z</time>
      </trkpt>
      <trkpt lat="44.33042" lon="5.77596">
        <ele>596</ele>
        <time>2019-06-07T07:21:19Z</time>
      </trkpt>
      <trkpt lat="44.3305" lon="5.77596">
        <ele>596</ele>
        <time>2019-06-07T07:21:20Z</time>
      </trkpt>
      <trkpt lat="44.33058" lon="5.77596">
        <ele>596</ele>
        <time>2019-06-07T07:21:21Z</time>
      </trkpt>
      <trkpt lat="44.33066" lon="5.77596">
        <ele>596</ele>
        <time>2019-06-07T07:21:22Z</time>
      </trkpt>
      <trkpt lat="44.33074" lon="5.77597">
        <ele>596</ele>
        <time>2019-06-07T07:21:23Z</time>
      </trkpt>
      <trkpt lat="44.33082" lon="5.77597">
        <ele>596</ele>
        <time>2019-06-07T07:21:24Z</time>
      </trkpt>
      <trkpt lat="44.33089" lon="5.77597">
        <ele>596</ele>
        <time>2019-06-07T07:21:25Z</time>
      </trkpt>
      <trkpt lat="44.33097" lon="5.77597">
        <ele>596</ele>
        <time>2019-06-07T07:21:26Z</time>
      </trkpt>
      <trkpt lat="44.33104" lon="5.77596">
        <ele>596</ele>
        <time>2019-06-07T07:21:27Z</time>
      </trkpt>
      <trkpt lat="44.33111" lon="5.77595">
        <ele>596</ele>
        <time>2019-06-07T07:21:28Z</time>
      </trkpt>
      <trkpt lat="44.33118" lon="5.77594">
        <ele>596</ele>
        <time>2019-06-07T07:21:29Z</time>
      </trkpt>
      <trkpt lat="44.33125" lon="5.77592">
        <ele>596</ele>
        <time>2019-06-07T07:21:30Z</time>
      </trkpt>
      <trkpt lat="44.33131" lon="5.77588">
        <ele>596</ele>
        <time>2019-06-07T07:21:31Z</time>
      </trkpt>
      <trkpt lat="44.33138" lon="5.77585">
        <ele>596</ele>
        <time>2019-06-07T07:21:32Z</time>
      </trkpt>
      <trkpt lat="44.33144" lon="5.77581">
        <ele>596</ele>
        <time>2019-06-07T07:21:33Z</time>
      </trkpt>
      <trkpt lat="44.3315" lon="5.77577">
        <ele>596</ele>
        <time>2019-06-07T07:21:34Z</time>
      </trkpt>
      <trkpt lat="44.33156" lon="5.77573">
        <ele>596</ele>
        <time>2019-06-07T07:21:35Z</time>
      </trkpt>
      <trkpt lat="44.33161" lon="5.77569">
        <ele>596</ele>
        <time>2019-06-07T07:21:36Z</time>
      </trkpt>
      <trkpt lat="44.33167" lon="5.77565">
        <ele>596</ele>
        <time>2019-06-07T07:21:37Z</time>
      </trkpt>
      <trkpt lat="44.33172" lon="5.77561">
        <ele>596</ele>
        <time>2019-06-07T07:21:38Z</time>
      </trkpt>
      <trkpt lat="44.33177" lon="5.77557">
        <ele>596</ele>
        <time>2019-06-07T07:21:39Z</time>
      </trkpt>
      <trkpt lat="44.33183" lon="5.77553">
        <ele>596</ele>
        <time>2019-06-07T07:21:40Z</time>
      </trkpt>
      <trkpt lat="44.33188" lon="5.77549">
        <ele>596</ele>
        <time>2019-06-07T07:21:41Z</time>
      </trkpt>
      <trkpt lat="44.33193" lon="5.77543">
        <ele>596</ele>
        <time>2019-06-07T07:21:42Z</time>
      </trkpt>
      <trkpt lat="44.33197" lon="5.77538">
        <ele>596</ele>
        <time>2019-06-07T07:21:43Z</time>
      </trkpt>
      <trkpt lat="44.33203" lon="5.77532">
        <ele>596</ele>
        <time>2019-06-07T07:21:44Z</time>
      </trkpt>
      <trkpt lat="44.33208" lon="5.77526">
        <ele>596</ele>
        <time>2019-06-07T07:21:45Z</time>
      </trkpt>
      <trkpt lat="44.33213" lon="5.77521">
        <ele>596</ele>
        <time>2019-06-07T07:21:46Z</time>
      </trkpt>
      <trkpt lat="44.33218" lon="5.77516">
        <ele>596</ele>
        <time>2019-06-07T07:21:47Z</time>
      </trkpt>
      <trkpt lat="44.33224" lon="5.77512">
        <ele>596</ele>
        <time>2019-06-07T07:21:48Z</time>
      </trkpt>
      <trkpt lat="44.3323" lon="5.77509">
        <ele>596</ele>
        <time>2019-06-07T07:21:49Z</time>
      </trkpt>
      <trkpt lat="44.33236" lon="5.77506">
        <ele>596</ele>
        <time>2019-06-07T07:21:50Z</time>
      </trkpt>
      <trkpt lat="44.33242" lon="5.77503">
        <ele>596</ele>
        <time>2019-06-07T07:21:51Z</time>
      </trkpt>
      <trkpt lat="44.33249" lon="5.77501">
        <ele>596</ele>
        <time>2019-06-07T07:21:52Z</time>
      </trkpt>
      <trkpt lat="44.33255" lon="5.77499">
        <ele>596</ele>
        <time>2019-06-07T07:21:53Z</time>
      </trkpt>
      <trkpt lat="44.33262" lon="5.77498">
        <ele>596</ele>
        <time>2019-06-07T07:21:54Z</time>
      </trkpt>
      <trkpt lat="44.33268" lon="5.77497">
        <ele>596</ele>
        <time>2019-06-07T07:21:55Z</time>
      </trkpt>
      <trkpt lat="44.33274" lon="5.77496">
        <ele>596</ele>
        <time>2019-06-07T07:21:56Z</time>
      </trkpt>
      <trkpt lat="44.3328" lon="5.77496">
        <ele>596</ele>
        <time>2019-06-07T07:21:57Z</time>
      </trkpt>
      <trkpt lat="44.33287" lon="5.77496">
        <ele>596</ele>
        <time>2019-06-07T07:21:58Z</time>
      </trkpt>
      <trkpt lat="44.33294" lon="5.77496">
        <ele>596</ele>
        <time>2019-06-07T07:21:59Z</time>
      </trkpt>
      <trkpt lat="44.333" lon="5.77496">
        <ele>596</ele>
        <time>2019-06-07T07:22:00Z</time>
      </trkpt>
      <trkpt lat="44.33307" lon="5.77496">
        <ele>596</ele>
        <time>2019-06-07T07:22:01Z</time>
      </trkpt>
      <trkpt lat="44.33313" lon="5.77496">
        <ele>596</ele>
        <time>2019-06-07T07:22:02Z</time>
      </trkpt>
      <trkpt lat="44.33319" lon="5.77497">
        <ele>596</ele>
        <time>2019-06-07T07:22:03Z</time>
      </trkpt>
      <trkpt lat="44.33324" lon="5.77497">
        <ele>596</ele>
        <time>2019-06-07T07:22:04Z</time>
      </trkpt>
      <trkpt lat="44.3333" lon="5.77497">
        <ele>596</ele>
        <time>2019-06-07T07:22:05Z</time>
      </trkpt>
      <trkpt lat="44.33335" lon="5.77497">
        <ele>596</ele>
        <time>2019-06-07T07:22:06Z</time>
      </trkpt>
      <trkpt lat="44.33341" lon="5.77498">
        <ele>596</ele>
        <time>2019-06-07T07:22:07Z</time>
      </trkpt>
      <trkpt lat="44.33346" lon="5.77499">
        <ele>596</ele>
        <time>2019-06-07T07:22:08Z</time>
      </trkpt>
      <trkpt lat="44.33352" lon="5.77499">
        <ele>596</ele>
        <time>2019-06-07T07:22:09Z</time>
      </trkpt>
      <trkpt lat="44.33357" lon="5.775">
        <ele>596</ele>
        <time>2019-06-07T07:22:10Z</time>
      </trkpt>
      <trkpt lat="44.33362" lon="5.775">
        <ele>596</ele>
        <time>2019-06-07T07:22:11Z</time>
      </trkpt>
      <trkpt lat="44.33367" lon="5.77501">
        <ele>596</ele>
        <time>2019-06-07T07:22:12Z</time>
      </trkpt>
      <trkpt lat="44.33372" lon="5.77501">
        <ele>596</ele>
        <time>2019-06-07T07:22:13Z</time>
      </trkpt>
      <trkpt lat="44.33377" lon="5.77501">
        <ele>597</ele>
        <time>2019-06-07T07:22:14Z</time>
      </trkpt>
      <trkpt lat="44.33382" lon="5.77502">
        <ele>597</ele>
        <time>2019-06-07T07:22:15Z</time>
      </trkpt>
      <trkpt lat="44.33386" lon="5.77502">
        <ele>597</ele>
        <time>2019-06-07T07:22:16Z</time>
      </trkpt>
      <trkpt lat="44.33391" lon="5.77503">
        <ele>598</ele>
        <time>2019-06-07T07:22:17Z</time>
      </trkpt>
      <trkpt lat="44.33396" lon="5.77503">
        <ele>598</ele>
        <time>2019-06-07T07:22:18Z</time>
      </trkpt>
      <trkpt lat="44.33401" lon="5.77503">
        <ele>598</ele>
        <time>2019-06-07T07:22:19Z</time>
      </trkpt>
      <trkpt lat="44.33406" lon="5.77503">
        <ele>598</ele>
        <time>2019-06-07T07:22:20Z</time>
      </trkpt>
      <trkpt lat="44.33411" lon="5.77504">
        <ele>599</ele>
        <time>2019-06-07T07:22:21Z</time>
      </trkpt>
      <trkpt lat="44.33417" lon="5.77505">
        <ele>599</ele>
        <time>2019-06-07T07:22:22Z</time>
      </trkpt>
      <trkpt lat="44.33423" lon="5.77507">
        <ele>599</ele>
        <time>2019-06-07T07:22:23Z</time>
      </trkpt>
      <trkpt lat="44.33429" lon="5.77508">
        <ele>599</ele>
        <time>2019-06-07T07:22:24Z</time>
      </trkpt>
      <trkpt lat="44.33435" lon="5.7751">
        <ele>599</ele>
        <time>2019-06-07T07:22:25Z</time>
      </trkpt>
      <trkpt lat="44.33441" lon="5.77511">
        <ele>599</ele>
        <time>2019-06-07T07:22:26Z</time>
      </trkpt>
      <trkpt lat="44.33447" lon="5.77513">
        <ele>599</ele>
        <time>2019-06-07T07:22:27Z</time>
      </trkpt>
      <trkpt lat="44.33454" lon="5.77514">
        <ele>599</ele>
        <time>2019-06-07T07:22:28Z</time>
      </trkpt>
      <trkpt lat="44.3346" lon="5.77515">
        <ele>599</ele>
        <time>2019-06-07T07:22:29Z</time>
      </trkpt>
      <trkpt lat="44.33466" lon="5.77516">
        <ele>599</ele>
        <time>2019-06-07T07:22:30Z</time>
      </trkpt>
      <trkpt lat="44.33473" lon="5.77518">
        <ele>599</ele>
        <time>2019-06-07T07:22:31Z</time>
      </trkpt>
      <trkpt lat="44.33479" lon="5.77519">
        <ele>599</ele>
        <time>2019-06-07T07:22:32Z</time>
      </trkpt>
      <trkpt lat="44.33485" lon="5.77521">
        <ele>599</ele>
        <time>2019-06-07T07:22:33Z</time>
      </trkpt>
      <trkpt lat="44.33492" lon="5.77522">
        <ele>599</ele>
        <time>2019-06-07T07:22:34Z</time>
      </trkpt>
      <trkpt lat="44.33498" lon="5.77524">
        <ele>599</ele>
        <time>2019-06-07T07:22:35Z</time>
      </trkpt>
      <trkpt lat="44.33505" lon="5.77526">
        <ele>599</ele>
        <time>2019-06-07T07:22:36Z</time>
      </trkpt>
      <trkpt lat="44.33511" lon="5.77527">
        <ele>599</ele>
        <time>2019-06-07T07:22:37Z</time>
      </trkpt>
      <trkpt lat="44.33517" lon="5.77528">
        <ele>599</ele>
        <time>2019-06-07T07:22:38Z</time>
      </trkpt>
      <trkpt lat="44.33523" lon="5.77529">
        <ele>599</ele>
        <time>2019-06-07T07:22:39Z</time>
      </trkpt>
      <trkpt lat="44.33529" lon="5.7753">
        <ele>599</ele>
        <time>2019-06-07T07:22:40Z</time>
      </trkpt>
      <trkpt lat="44.33535" lon="5.77531">
        <ele>599</ele>
        <time>2019-06-07T07:22:41Z</time>
      </trkpt>
      <trkpt lat="44.3354" lon="5.77533">
        <ele>599</ele>
        <time>2019-06-07T07:22:42Z</time>
      </trkpt>
      <trkpt lat="44.33545" lon="5.77534">
        <ele>599</ele>
        <time>2019-06-07T07:22:43Z</time>
      </trkpt>
      <trkpt lat="44.33549" lon="5.77534">
        <ele>599</ele>
        <time>2019-06-07T07:22:44Z</time>
      </trkpt>
      <trkpt lat="44.33554" lon="5.77536">
        <ele>599</ele>
        <time>2019-06-07T07:22:45Z</time>
      </trkpt>
      <trkpt lat="44.33558" lon="5.77537">
        <ele>599</ele>
        <time>2019-06-07T07:22:46Z</time>
      </trkpt>
      <trkpt lat="44.33562" lon="5.77539">
        <ele>599</ele>
        <time>2019-06-07T07:22:47Z</time>
      </trkpt>
      <trkpt lat="44.33567" lon="5.7754">
        <ele>599</ele>
        <time>2019-06-07T07:22:48Z</time>
      </trkpt>
      <trkpt lat="44.33571" lon="5.77541">
        <ele>599</ele>
        <time>2019-06-07T07:22:49Z</time>
      </trkpt>
      <trkpt lat="44.33575" lon="5.77541">
        <ele>599</ele>
        <time>2019-06-07T07:22:50Z</time>
      </trkpt>
      <trkpt lat="44.33579" lon="5.7754">
        <ele>599</ele>
        <time>2019-06-07T07:22:51Z</time>
      </trkpt>
      <trkpt lat="44.33583" lon="5.77538">
        <ele>599</ele>
        <time>2019-06-07T07:22:52Z</time>
      </trkpt>
      <trkpt lat="44.33588" lon="5.77535">
        <ele>599</ele>
        <time>2019-06-07T07:22:53Z</time>
      </trkpt>
      <trkpt lat="44.33591" lon="5.77532">
        <ele>599</ele>
        <time>2019-06-07T07:22:54Z</time>
      </trkpt>
      <trkpt lat="44.33595" lon="5.77528">
        <ele>599</ele>
        <time>2019-06-07T07:22:55Z</time>
      </trkpt>
      <trkpt lat="44.33598" lon="5.77525">
        <ele>599</ele>
        <time>2019-06-07T07:22:56Z</time>
      </trkpt>
      <trkpt lat="44.33601" lon="5.77521">
        <ele>599</ele>
        <time>2019-06-07T07:22:57Z</time>
      </trkpt>
      <trkpt lat="44.33604" lon="5.77517">
        <ele>599</ele>
        <time>2019-06-07T07:22:58Z</time>
      </trkpt>
      <trkpt lat="44.33607" lon="5.77513">
        <ele>600</ele>
        <time>2019-06-07T07:22:59Z</time>
      </trkpt>
      <trkpt lat="44.33609" lon="5.77508">
        <ele>600</ele>
        <time>2019-06-07T07:23:00Z</time>
      </trkpt>
      <trkpt lat="44.33612" lon="5.77505">
        <ele>600</ele>
        <time>2019-06-07T07:23:01Z</time>
      </trkpt>
      <trkpt lat="44.33616" lon="5.77504">
        <ele>601</ele>
        <time>2019-06-07T07:23:01Z</time>
      </trkpt>
      <trkpt lat="44.3362" lon="5.77503">
        <ele>601</ele>
        <time>2019-06-07T07:23:03Z</time>
      </trkpt>
      <trkpt lat="44.33623" lon="5.77503">
        <ele>601</ele>
        <time>2019-06-07T07:23:04Z</time>
      </trkpt>
      <trkpt lat="44.33626" lon="5.77504">
        <ele>601</ele>
        <time>2019-06-07T07:23:05Z</time>
      </trkpt>
      <trkpt lat="44.3363" lon="5.77505">
        <ele>601</ele>
        <time>2019-06-07T07:23:06Z</time>
      </trkpt>
      <trkpt lat="44.33634" lon="5.77507">
        <ele>601</ele>
        <time>2019-06-07T07:23:07Z</time>
      </trkpt>
      <trkpt lat="44.33637" lon="5.7751">
        <ele>601</ele>
        <time>2019-06-07T07:23:08Z</time>
      </trkpt>
      <trkpt lat="44.33641" lon="5.77512">
        <ele>601</ele>
        <time>2019-06-07T07:23:09Z</time>
      </trkpt>
      <trkpt lat="44.33644" lon="5.77514">
        <ele>601</ele>
        <time>2019-06-07T07:23:10Z</time>
      </trkpt>
      <trkpt lat="44.33648" lon="5.77515">
        <ele>601</ele>
        <time>2019-06-07T07:23:11Z</time>
      </trkpt>
      <trkpt lat="44.33653" lon="5.77517">
        <ele>601</ele>
        <time>2019-06-07T07:23:12Z</time>
      </trkpt>
      <trkpt lat="44.33656" lon="5.77518">
        <ele>601</ele>
        <time>2019-06-07T07:23:13Z</time>
      </trkpt>
      <trkpt lat="44.3366" lon="5.77519">
        <ele>601</ele>
        <time>2019-06-07T07:23:14Z</time>
      </trkpt>
      <trkpt lat="44.33664" lon="5.77521">
        <ele>602</ele>
        <time>2019-06-07T07:23:15Z</time>
      </trkpt>
      <trkpt lat="44.33667" lon="5.77522">
        <ele>602</ele>
        <time>2019-06-07T07:23:16Z</time>
      </trkpt>
      <trkpt lat="44.3367" lon="5.77524">
        <ele>602</ele>
        <time>2019-06-07T07:23:17Z</time>
      </trkpt>
      <trkpt lat="44.33673" lon="5.77525">
        <ele>603</ele>
        <time>2019-06-07T07:23:18Z</time>
      </trkpt>
      <trkpt lat="44.33676" lon="5.77527">
        <ele>603</ele>
        <time>2019-06-07T07:23:19Z</time>
      </trkpt>
      <trkpt lat="44.33679" lon="5.77528">
        <ele>603</ele>
        <time>2019-06-07T07:23:20Z</time>
      </trkpt>
      <trkpt lat="44.33682" lon="5.77529">
        <ele>603</ele>
        <time>2019-06-07T07:23:21Z</time>
      </trkpt>
      <trkpt lat="44.33685" lon="5.7753">
        <ele>603</ele>
        <time>2019-06-07T07:23:22Z</time>
      </trkpt>
      <trkpt lat="44.33688" lon="5.77531">
        <ele>603</ele>
        <time>2019-06-07T07:23:23Z</time>
      </trkpt>
      <trkpt lat="44.33692" lon="5.77532">
        <ele>603</ele>
        <time>2019-06-07T07:23:24Z</time>
      </trkpt>
      <trkpt lat="44.33695" lon="5.77534">
        <ele>603</ele>
        <time>2019-06-07T07:23:25Z</time>
      </trkpt>
      <trkpt lat="44.33698" lon="5.77534">
        <ele>603</ele>
        <time>2019-06-07T07:23:26Z</time>
      </trkpt>
      <trkpt lat="44.33702" lon="5.77535">
        <ele>604</ele>
        <time>2019-06-07T07:23:27Z</time>
      </trkpt>
      <trkpt lat="44.33706" lon="5.77536">
        <ele>604</ele>
        <time>2019-06-07T07:23:28Z</time>
      </trkpt>
      <trkpt lat="44.33709" lon="5.77537">
        <ele>605</ele>
        <time>2019-06-07T07:23:29Z</time>
      </trkpt>
      <trkpt lat="44.33712" lon="5.77538">
        <ele>605</ele>
        <time>2019-06-07T07:23:30Z</time>
      </trkpt>
      <trkpt lat="44.33716" lon="5.7754">
        <ele>606</ele>
        <time>2019-06-07T07:23:31Z</time>
      </trkpt>
      <trkpt lat="44.33719" lon="5.77542">
        <ele>606</ele>
        <time>2019-06-07T07:23:32Z</time>
      </trkpt>
      <trkpt lat="44.33722" lon="5.77543">
        <ele>606</ele>
        <time>2019-06-07T07:23:33Z</time>
      </trkpt>
      <trkpt lat="44.33725" lon="5.77544">
        <ele>607</ele>
        <time>2019-06-07T07:23:34Z</time>
      </trkpt>
      <trkpt lat="44.33728" lon="5.77545">
        <ele>607</ele>
        <time>2019-06-07T07:23:35Z</time>
      </trkpt>
      <trkpt lat="44.3373" lon="5.77547">
        <ele>607</ele>
        <time>2019-06-07T07:23:36Z</time>
      </trkpt>
      <trkpt lat="44.33733" lon="5.77548">
        <ele>608</ele>
        <time>2019-06-07T07:23:37Z</time>
      </trkpt>
      <trkpt lat="44.33737" lon="5.77549">
        <ele>608</ele>
        <time>2019-06-07T07:23:38Z</time>
      </trkpt>
      <trkpt lat="44.3374" lon="5.77551">
        <ele>608</ele>
        <time>2019-06-07T07:23:39Z</time>
      </trkpt>
      <trkpt lat="44.33743" lon="5.77552">
        <ele>609</ele>
        <time>2019-06-07T07:23:40Z</time>
      </trkpt>
      <trkpt lat="44.33746" lon="5.77554">
        <ele>609</ele>
        <time>2019-06-07T07:23:41Z</time>
      </trkpt>
      <trkpt lat="44.33748" lon="5.77556">
        <ele>610</ele>
        <time>2019-06-07T07:23:42Z</time>
      </trkpt>
      <trkpt lat="44.3375" lon="5.77558">
        <ele>611</ele>
        <time>2019-06-07T07:23:43Z</time>
      </trkpt>
      <trkpt lat="44.33752" lon="5.7756">
        <ele>611</ele>
        <time>2019-06-07T07:23:44Z</time>
      </trkpt>
      <trkpt lat="44.33755" lon="5.77561">
        <ele>611</ele>
        <time>2019-06-07T07:23:45Z</time>
      </trkpt>
      <trkpt lat="44.33758" lon="5.77563">
        <ele>612</ele>
        <time>2019-06-07T07:23:46Z</time>
      </trkpt>
      <trkpt lat="44.3376" lon="5.77564">
        <ele>612</ele>
        <time>2019-06-07T07:23:47Z</time>
      </trkpt>
      <trkpt lat="44.33763" lon="5.77566">
        <ele>613</ele>
        <time>2019-06-07T07:23:48Z</time>
      </trkpt>
      <trkpt lat="44.33766" lon="5.77568">
        <ele>614</ele>
        <time>2019-06-07T07:23:49Z</time>
      </trkpt>
      <trkpt lat="44.33768" lon="5.77569">
        <ele>614</ele>
        <time>2019-06-07T07:23:50Z</time>
      </trkpt>
      <trkpt lat="44.3377" lon="5.77571">
        <ele>615</ele>
        <time>2019-06-07T07:23:51Z</time>
      </trkpt>
      <trkpt lat="44.33773" lon="5.77573">
        <ele>616</ele>
        <time>2019-06-07T07:23:52Z</time>
      </trkpt>
      <trkpt lat="44.33775" lon="5.77575">
        <ele>617</ele>
        <time>2019-06-07T07:23:53Z</time>
      </trkpt>
      <trkpt lat="44.33777" lon="5.77577">
        <ele>617</ele>
        <time>2019-06-07T07:23:54Z</time>
      </trkpt>
      <trkpt lat="44.33779" lon="5.77578">
        <ele>618</ele>
        <time>2019-06-07T07:23:55Z</time>
      </trkpt>
      <trkpt lat="44.33781" lon="5.77579">
        <ele>618</ele>
        <time>2019-06-07T07:23:56Z</time>
      </trkpt>
      <trkpt lat="44.33784" lon="5.7758">
        <ele>619</ele>
        <time>2019-06-07T07:23:57Z</time>
      </trkpt>
      <trkpt lat="44.33786" lon="5.77581">
        <ele>619</ele>
        <time>2019-06-07T07:23:58Z</time>
      </trkpt>
      <trkpt lat="44.33789" lon="5.77583">
        <ele>619</ele>
        <time>2019-06-07T07:23:59Z</time>
      </trkpt>
      <trkpt lat="44.33791" lon="5.77584">
        <ele>619</ele>
        <time>2019-06-07T07:24:00Z</time>
      </trkpt>
      <trkpt lat="44.33794" lon="5.77585">
        <ele>619</ele>
        <time>2019-06-07T07:24:01Z</time>
      </trkpt>
      <trkpt lat="44.33797" lon="5.77587">
        <ele>619</ele>
        <time>2019-06-07T07:24:02Z</time>
      </trkpt>
      <trkpt lat="44.338" lon="5.77589">
        <ele>619</ele>
        <time>2019-06-07T07:24:03Z</time>
      </trkpt>
      <trkpt lat="44.33802" lon="5.77591">
        <ele>619</ele>
        <time>2019-06-07T07:24:04Z</time>
      </trkpt>
      <trkpt lat="44.33805" lon="5.77593">
        <ele>619</ele>
        <time>2019-06-07T07:24:05Z</time>
      </trkpt>
      <trkpt lat="44.33808" lon="5.77596">
        <ele>619</ele>
        <time>2019-06-07T07:24:06Z</time>
      </trkpt>
      <trkpt lat="44.33811" lon="5.77598">
        <ele>620</ele>
        <time>2019-06-07T07:24:07Z</time>
      </trkpt>
      <trkpt lat="44.33815" lon="5.776">
        <ele>620</ele>
        <time>2019-06-07T07:24:08Z</time>
      </trkpt>
      <trkpt lat="44.33818" lon="5.77602">
        <ele>620</ele>
        <time>2019-06-07T07:24:09Z</time>
      </trkpt>
      <trkpt lat="44.33821" lon="5.77605">
        <ele>621</ele>
        <time>2019-06-07T07:24:10Z</time>
      </trkpt>
      <trkpt lat="44.33824" lon="5.77608">
        <ele>621</ele>
        <time>2019-06-07T07:24:11Z</time>
      </trkpt>
      <trkpt lat="44.33827" lon="5.77611">
        <ele>622</ele>
        <time>2019-06-07T07:24:12Z</time>
      </trkpt>
      <trkpt lat="44.33829" lon="5.77615">
        <ele>622</ele>
        <time>2019-06-07T07:24:13Z</time>
      </trkpt>
      <trkpt lat="44.33832" lon="5.77618">
        <ele>622</ele>
        <time>2019-06-07T07:24:14Z</time>
      </trkpt>
      <trkpt lat="44.33835" lon="5.77622">
        <ele>622</ele>
        <time>2019-06-07T07:24:15Z</time>
      </trkpt>
      <trkpt lat="44.33838" lon="5.77625">
        <ele>622</ele>
        <time>2019-06-07T07:24:16Z</time>
      </trkpt>
      <trkpt lat="44.3384" lon="5.77629">
        <ele>623</ele>
        <time>2019-06-07T07:24:17Z</time>
      </trkpt>
      <trkpt lat="44.33843" lon="5.77632">
        <ele>623</ele>
        <time>2019-06-07T07:24:18Z</time>
      </trkpt>
      <trkpt lat="44.33846" lon="5.77635">
        <ele>623</ele>
        <time>2019-06-07T07:24:19Z</time>
      </trkpt>
      <trkpt lat="44.33849" lon="5.77639">
        <ele>623</ele>
        <time>2019-06-07T07:24:20Z</time>
      </trkpt>
      <trkpt lat="44.33852" lon="5.77642">
        <ele>623</ele>
        <time>2019-06-07T07:24:21Z</time>
      </trkpt>
      <trkpt lat="44.33855" lon="5.77645">
        <ele>623</ele>
        <time>2019-06-07T07:24:22Z</time>
      </trkpt>
      <trkpt lat="44.33858" lon="5.77649">
        <ele>623</ele>
        <time>2019-06-07T07:24:23Z</time>
      </trkpt>
      <trkpt lat="44.33861" lon="5.77652">
        <ele>623</ele>
        <time>2019-06-07T07:24:24Z</time>
      </trkpt>
      <trkpt lat="44.33865" lon="5.77655">
        <ele>623</ele>
        <time>2019-06-07T07:24:25Z</time>
      </trkpt>
      <trkpt lat="44.33868" lon="5.77657">
        <ele>623</ele>
        <time>2019-06-07T07:24:26Z</time>
      </trkpt>
      <trkpt lat="44.33872" lon="5.7766">
        <ele>623</ele>
        <time>2019-06-07T07:24:27Z</time>
      </trkpt>
      <trkpt lat="44.33875" lon="5.77662">
        <ele>623</ele>
        <time>2019-06-07T07:24:28Z</time>
      </trkpt>
      <trkpt lat="44.33878" lon="5.77664">
        <ele>623</ele>
        <time>2019-06-07T07:24:29Z</time>
      </trkpt>
      <trkpt lat="44.33881" lon="5.77665">
        <ele>623</ele>
        <time>2019-06-07T07:24:29Z</time>
      </trkpt>
      <trkpt lat="44.33885" lon="5.77665">
        <ele>623</ele>
        <time>2019-06-07T07:24:31Z</time>
      </trkpt>
      <trkpt lat="44.33888" lon="5.77666">
        <ele>623</ele>
        <time>2019-06-07T07:24:32Z</time>
      </trkpt>
      <trkpt lat="44.33892" lon="5.77666">
        <ele>623</ele>
        <time>2019-06-07T07:24:33Z</time>
      </trkpt>
      <trkpt lat="44.33896" lon="5.77666">
        <ele>623</ele>
        <time>2019-06-07T07:24:34Z</time>
      </trkpt>
      <trkpt lat="44.339" lon="5.77666">
        <ele>623</ele>
        <time>2019-06-07T07:24:35Z</time>
      </trkpt>
      <trkpt lat="44.33904" lon="5.77665">
        <ele>623</ele>
        <time>2019-06-07T07:24:36Z</time>
      </trkpt>
      <trkpt lat="44.33908" lon="5.77664">
        <ele>623</ele>
        <time>2019-06-07T07:24:37Z</time>
      </trkpt>
      <trkpt lat="44.33913" lon="5.77662">
        <ele>623</ele>
        <time>2019-06-07T07:24:38Z</time>
      </trkpt>
      <trkpt lat="44.33917" lon="5.7766">
        <ele>623</ele>
        <time>2019-06-07T07:24:39Z</time>
      </trkpt>
      <trkpt lat="44.3392" lon="5.77658">
        <ele>623</ele>
        <time>2019-06-07T07:24:40Z</time>
      </trkpt>
      <trkpt lat="44.33924" lon="5.77656">
        <ele>623</ele>
        <time>2019-06-07T07:24:41Z</time>
      </trkpt>
      <trkpt lat="44.33928" lon="5.77653">
        <ele>623</ele>
        <time>2019-06-07T07:24:42Z</time>
      </trkpt>
      <trkpt lat="44.33931" lon="5.77651">
        <ele>623</ele>
        <time>2019-06-07T07:24:43Z</time>
      </trkpt>
      <trkpt lat="44.33934" lon="5.77649">
        <ele>623</ele>
        <time>2019-06-07T07:24:44Z</time>
      </trkpt>
      <trkpt lat="44.33939" lon="5.77646">
        <ele>623</ele>
        <time>2019-06-07T07:24:45Z</time>
      </trkpt>
      <trkpt lat="44.33943" lon="5.77643">
        <ele>623</ele>
        <time>2019-06-07T07:24:46Z</time>
      </trkpt>
      <trkpt lat="44.33947" lon="5.7764">
        <ele>623</ele>
        <time>2019-06-07T07:24:47Z</time>
      </trkpt>
      <trkpt lat="44.3395" lon="5.77637">
        <ele>623</ele>
        <time>2019-06-07T07:24:48Z</time>
      </trkpt>
      <trkpt lat="44.33953" lon="5.77633">
        <ele>623</ele>
        <time>2019-06-07T07:24:49Z</time>
      </trkpt>
      <trkpt lat="44.33956" lon="5.7763">
        <ele>623</ele>
        <time>2019-06-07T07:24:50Z</time>
      </trkpt>
      <trkpt lat="44.3396" lon="5.77627">
        <ele>623</ele>
        <time>2019-06-07T07:24:51Z</time>
      </trkpt>
      <trkpt lat="44.33963" lon="5.77624">
        <ele>623</ele>
        <time>2019-06-07T07:24:52Z</time>
      </trkpt>
      <trkpt lat="44.33966" lon="5.7762">
        <ele>623</ele>
        <time>2019-06-07T07:24:53Z</time>
      </trkpt>
      <trkpt lat="44.33969" lon="5.77615">
        <ele>623</ele>
        <time>2019-06-07T07:24:54Z</time>
      </trkpt>
      <trkpt lat="44.33972" lon="5.77611">
        <ele>623</ele>
        <time>2019-06-07T07:24:55Z</time>
      </trkpt>
      <trkpt lat="44.33974" lon="5.77607">
        <ele>623</ele>
        <time>2019-06-07T07:24:56Z</time>
      </trkpt>
      <trkpt lat="44.33976" lon="5.77602">
        <ele>623</ele>
        <time>2019-06-07T07:24:57Z</time>
      </trkpt>
      <trkpt lat="44.33979" lon="5.77596">
        <ele>624</ele>
        <time>2019-06-07T07:24:58Z</time>
      </trkpt>
      <trkpt lat="44.33981" lon="5.77591">
        <ele>624</ele>
        <time>2019-06-07T07:24:59Z</time>
      </trkpt>
      <trkpt lat="44.33984" lon="5.77586">
        <ele>625</ele>
        <time>2019-06-07T07:25:00Z</time>
      </trkpt>
      <trkpt lat="44.33985" lon="5.77581">
        <ele>625</ele>
        <time>2019-06-07T07:25:01Z</time>
      </trkpt>
      <trkpt lat="44.33987" lon="5.77575">
        <ele>626</ele>
        <time>2019-06-07T07:25:02Z</time>
      </trkpt>
      <trkpt lat="44.33989" lon="5.7757">
        <ele>626</ele>
        <time>2019-06-07T07:25:03Z</time>
      </trkpt>
      <trkpt lat="44.33991" lon="5.77565">
        <ele>626</ele>
        <time>2019-06-07T07:25:04Z</time>
      </trkpt>
      <trkpt lat="44.33993" lon="5.77559">
        <ele>627</ele>
        <time>2019-06-07T07:25:05Z</time>
      </trkpt>
      <trkpt lat="44.33995" lon="5.77553">
        <ele>628</ele>
        <time>2019-06-07T07:25:06Z</time>
      </trkpt>
      <trkpt lat="44.33997" lon="5.77548">
        <ele>628</ele>
        <time>2019-06-07T07:25:07Z</time>
      </trkpt>
      <trkpt lat="44.33999" lon="5.77542">
        <ele>629</ele>
        <time>2019-06-07T07:25:08Z</time>
      </trkpt>
      <trkpt lat="44.34002" lon="5.77537">
        <ele>629</ele>
        <time>2019-06-07T07:25:09Z</time>
      </trkpt>
      <trkpt lat="44.34004" lon="5.77532">
        <ele>629</ele>
        <time>2019-06-07T07:25:10Z</time>
      </trkpt>
      <trkpt lat="44.34007" lon="5.77526">
        <ele>630</ele>
        <time>2019-06-07T07:25:11Z</time>
      </trkpt>
      <trkpt lat="44.34008" lon="5.77521">
        <ele>630</ele>
        <time>2019-06-07T07:25:12Z</time>
      </trkpt>
      <trkpt lat="44.3401" lon="5.77514">
        <ele>630</ele>
        <time>2019-06-07T07:25:13Z</time>
      </trkpt>
      <trkpt lat="44.3401" lon="5.77508">
        <ele>630</ele>
        <time>2019-06-07T07:25:14Z</time>
      </trkpt>
      <trkpt lat="44.3401" lon="5.77501">
        <ele>630</ele>
        <time>2019-06-07T07:25:15Z</time>
      </trkpt>
      <trkpt lat="44.3401" lon="5.77495">
        <ele>630</ele>
        <time>2019-06-07T07:25:16Z</time>
      </trkpt>
      <trkpt lat="44.34008" lon="5.77489">
        <ele>630</ele>
        <time>2019-06-07T07:25:17Z</time>
      </trkpt>
      <trkpt lat="44.34007" lon="5.77482">
        <ele>630</ele>
        <time>2019-06-07T07:25:18Z</time>
      </trkpt>
      <trkpt lat="44.34005" lon="5.77475">
        <ele>630</ele>
        <time>2019-06-07T07:25:19Z</time>
      </trkpt>
      <trkpt lat="44.34002" lon="5.77467">
        <ele>630</ele>
        <time>2019-06-07T07:25:20Z</time>
      </trkpt>
      <trkpt lat="44.33998" lon="5.77459">
        <ele>630</ele>
        <time>2019-06-07T07:25:21Z</time>
      </trkpt>
      <trkpt lat="44.33995" lon="5.77451">
        <ele>630</ele>
        <time>2019-06-07T07:25:22Z</time>
      </trkpt>
      <trkpt lat="44.33992" lon="5.77441">
        <ele>630</ele>
        <time>2019-06-07T07:25:23Z</time>
      </trkpt>
      <trkpt lat="44.33988" lon="5.77431">
        <ele>630</ele>
        <time>2019-06-07T07:25:24Z</time>
      </trkpt>
      <trkpt lat="44.33984" lon="5.7742">
        <ele>630</ele>
        <time>2019-06-07T07:25:25Z</time>
      </trkpt>
      <trkpt lat="44.33981" lon="5.77409">
        <ele>630</ele>
        <time>2019-06-07T07:25:25Z</time>
      </trkpt>
      <trkpt lat="44.33979" lon="5.77397">
        <ele>630</ele>
        <time>2019-06-07T07:25:27Z</time>
      </trkpt>
      <trkpt lat="44.33978" lon="5.77385">
        <ele>630</ele>
        <time>2019-06-07T07:25:28Z</time>
      </trkpt>
      <trkpt lat="44.33981" lon="5.77373">
        <ele>630</ele>
        <time>2019-06-07T07:25:29Z</time>
      </trkpt>
      <trkpt lat="44.33984" lon="5.77359">
        <ele>630</ele>
        <time>2019-06-07T07:25:30Z</time>
      </trkpt>
      <trkpt lat="44.33986" lon="5.77346">
        <ele>629</ele>
        <time>2019-06-07T07:25:31Z</time>
      </trkpt>
      <trkpt lat="44.33987" lon="5.77332">
        <ele>629</ele>
        <time>2019-06-07T07:25:31Z</time>
      </trkpt>
      <trkpt lat="44.33987" lon="5.77318">
        <ele>628</ele>
        <time>2019-06-07T07:25:32Z</time>
      </trkpt>
      <trkpt lat="44.33986" lon="5.77304">
        <ele>627</ele>
        <time>2019-06-07T07:25:33Z</time>
      </trkpt>
      <trkpt lat="44.33983" lon="5.7729">
        <ele>627</ele>
        <time>2019-06-07T07:25:34Z</time>
      </trkpt>
      <trkpt lat="44.3398" lon="5.77276">
        <ele>626</ele>
        <time>2019-06-07T07:25:35Z</time>
      </trkpt>
      <trkpt lat="44.33979" lon="5.77262">
        <ele>625</ele>
        <time>2019-06-07T07:25:36Z</time>
      </trkpt>
      <trkpt lat="44.33979" lon="5.77247">
        <ele>624</ele>
        <time>2019-06-07T07:25:37Z</time>
      </trkpt>
      <trkpt lat="44.3398" lon="5.77232">
        <ele>623</ele>
        <time>2019-06-07T07:25:38Z</time>
      </trkpt>
      <trkpt lat="44.33981" lon="5.77217">
        <ele>622</ele>
        <time>2019-06-07T07:25:39Z</time>
      </trkpt>
      <trkpt lat="44.33982" lon="5.77201">
        <ele>621</ele>
        <time>2019-06-07T07:25:40Z</time>
      </trkpt>
      <trkpt lat="44.33982" lon="5.77186">
        <ele>621</ele>
        <time>2019-06-07T07:25:41Z</time>
      </trkpt>
      <trkpt lat="44.33981" lon="5.7717">
        <ele>620</ele>
        <time>2019-06-07T07:25:42Z</time>
      </trkpt>
      <trkpt lat="44.33981" lon="5.77155">
        <ele>619</ele>
        <time>2019-06-07T07:25:43Z</time>
      </trkpt>
      <trkpt lat="44.33981" lon="5.77141">
        <ele>618</ele>
        <time>2019-06-07T07:25:44Z</time>
      </trkpt>
      <trkpt lat="44.33981" lon="5.77127">
        <ele>617</ele>
        <time>2019-06-07T07:25:45Z</time>
      </trkpt>
      <trkpt lat="44.33981" lon="5.77113">
        <ele>616</ele>
        <time>2019-06-07T07:25:47Z</time>
      </trkpt>
      <trkpt lat="44.33981" lon="5.77099">
        <ele>616</ele>
        <time>2019-06-07T07:25:48Z</time>
      </trkpt>
      <trkpt lat="44.33982" lon="5.77084">
        <ele>615</ele>
        <time>2019-06-07T07:25:49Z</time>
      </trkpt>
      <trkpt lat="44.33984" lon="5.77071">
        <ele>614</ele>
        <time>2019-06-07T07:25:50Z</time>
      </trkpt>
      <trkpt lat="44.33986" lon="5.77057">
        <ele>613</ele>
        <time>2019-06-07T07:25:51Z</time>
      </trkpt>
      <trkpt lat="44.33987" lon="5.77045">
        <ele>612</ele>
        <time>2019-06-07T07:25:52Z</time>
      </trkpt>
      <trkpt lat="44.3399" lon="5.77031">
        <ele>612</ele>
        <time>2019-06-07T07:25:53Z</time>
      </trkpt>
      <trkpt lat="44.33991" lon="5.77016">
        <ele>611</ele>
        <time>2019-06-07T07:25:53Z</time>
      </trkpt>
      <trkpt lat="44.33993" lon="5.77002">
        <ele>610</ele>
        <time>2019-06-07T07:25:54Z</time>
      </trkpt>
      <trkpt lat="44.33995" lon="5.76988">
        <ele>610</ele>
        <time>2019-06-07T07:25:55Z</time>
      </trkpt>
      <trkpt lat="44.33997" lon="5.76974">
        <ele>609</ele>
        <time>2019-06-07T07:25:56Z</time>
      </trkpt>
      <trkpt lat="44.33998" lon="5.7696">
        <ele>608</ele>
        <time>2019-06-07T07:25:58Z</time>
      </trkpt>
      <trkpt lat="44.34" lon="5.76946">
        <ele>608</ele>
        <time>2019-06-07T07:25:59Z</time>
      </trkpt>
      <trkpt lat="44.34002" lon="5.76933">
        <ele>607</ele>
        <time>2019-06-07T07:26:00Z</time>
      </trkpt>
      <trkpt lat="44.34003" lon="5.7692">
        <ele>607</ele>
        <time>2019-06-07T07:26:01Z</time>
      </trkpt>
      <trkpt lat="44.34005" lon="5.76908">
        <ele>606</ele>
        <time>2019-06-07T07:26:02Z</time>
      </trkpt>
      <trkpt lat="44.34008" lon="5.76896">
        <ele>606</ele>
        <time>2019-06-07T07:26:03Z</time>
      </trkpt>
      <trkpt lat="44.3401" lon="5.76885">
        <ele>605</ele>
        <time>2019-06-07T07:26:04Z</time>
      </trkpt>
      <trkpt lat="44.34012" lon="5.76873">
        <ele>605</ele>
        <time>2019-06-07T07:26:05Z</time>
      </trkpt>
      <trkpt lat="44.34015" lon="5.76862">
        <ele>604</ele>
        <time>2019-06-07T07:26:05Z</time>
      </trkpt>
      <trkpt lat="44.34017" lon="5.76851">
        <ele>604</ele>
        <time>2019-06-07T07:26:07Z</time>
      </trkpt>
      <trkpt lat="44.3402" lon="5.76839">
        <ele>603</ele>
        <time>2019-06-07T07:26:08Z</time>
      </trkpt>
      <trkpt lat="44.34022" lon="5.76828">
        <ele>603</ele>
        <time>2019-06-07T07:26:09Z</time>
      </trkpt>
      <trkpt lat="44.34023" lon="5.76816">
        <ele>602</ele>
        <time>2019-06-07T07:26:10Z</time>
      </trkpt>
      <trkpt lat="44.34024" lon="5.76803">
        <ele>602</ele>
        <time>2019-06-07T07:26:11Z</time>
      </trkpt>
      <trkpt lat="44.34024" lon="5.7679">
        <ele>602</ele>
        <time>2019-06-07T07:26:12Z</time>
      </trkpt>
      <trkpt lat="44.34023" lon="5.76778">
        <ele>601</ele>
        <time>2019-06-07T07:26:13Z</time>
      </trkpt>
      <trkpt lat="44.3402" lon="5.76767">
        <ele>601</ele>
        <time>2019-06-07T07:26:14Z</time>
      </trkpt>
      <trkpt lat="44.34018" lon="5.76756">
        <ele>601</ele>
        <time>2019-06-07T07:26:15Z</time>
      </trkpt>
      <trkpt lat="44.34017" lon="5.76746">
        <ele>600</ele>
        <time>2019-06-07T07:26:16Z</time>
      </trkpt>
      <trkpt lat="44.34016" lon="5.76736">
        <ele>599</ele>
        <time>2019-06-07T07:26:17Z</time>
      </trkpt>
      <trkpt lat="44.34015" lon="5.76726">
        <ele>598</ele>
        <time>2019-06-07T07:26:18Z</time>
      </trkpt>
      <trkpt lat="44.34015" lon="5.76717">
        <ele>598</ele>
        <time>2019-06-07T07:26:19Z</time>
      </trkpt>
      <trkpt lat="44.34017" lon="5.76707">
        <ele>597</ele>
        <time>2019-06-07T07:26:20Z</time>
      </trkpt>
      <trkpt lat="44.34021" lon="5.76698">
        <ele>597</ele>
        <time>2019-06-07T07:26:21Z</time>
      </trkpt>
      <trkpt lat="44.34027" lon="5.7669">
        <ele>596</ele>
        <time>2019-06-07T07:26:22Z</time>
      </trkpt>
      <trkpt lat="44.34033" lon="5.76685">
        <ele>596</ele>
        <time>2019-06-07T07:26:23Z</time>
      </trkpt>
      <trkpt lat="44.3404" lon="5.76681">
        <ele>596</ele>
        <time>2019-06-07T07:26:24Z</time>
      </trkpt>
      <trkpt lat="44.34047" lon="5.76677">
        <ele>595</ele>
        <time>2019-06-07T07:26:25Z</time>
      </trkpt>
      <trkpt lat="44.34054" lon="5.76671">
        <ele>595</ele>
        <time>2019-06-07T07:26:26Z</time>
      </trkpt>
      <trkpt lat="44.34059" lon="5.76664">
        <ele>595</ele>
        <time>2019-06-07T07:26:27Z</time>
      </trkpt>
      <trkpt lat="44.34062" lon="5.76656">
        <ele>595</ele>
        <time>2019-06-07T07:26:28Z</time>
      </trkpt>
      <trkpt lat="44.34061" lon="5.76649">
        <ele>595</ele>
        <time>2019-06-07T07:26:29Z</time>
      </trkpt>
      <trkpt lat="44.34059" lon="5.76642">
        <ele>595</ele>
        <time>2019-06-07T07:26:30Z</time>
      </trkpt>
      <trkpt lat="44.34055" lon="5.76635">
        <ele>595</ele>
        <time>2019-06-07T07:26:31Z</time>
      </trkpt>
      <trkpt lat="44.34051" lon="5.76628">
        <ele>595</ele>
        <time>2019-06-07T07:26:32Z</time>
      </trkpt>
      <trkpt lat="44.34048" lon="5.76622">
        <ele>595</ele>
        <time>2019-06-07T07:26:33Z</time>
      </trkpt>
      <trkpt lat="44.34045" lon="5.76615">
        <ele>595</ele>
        <time>2019-06-07T07:26:34Z</time>
      </trkpt>
      <trkpt lat="44.34042" lon="5.76608">
        <ele>595</ele>
        <time>2019-06-07T07:26:35Z</time>
      </trkpt>
      <trkpt lat="44.3404" lon="5.76602">
        <ele>595</ele>
        <time>2019-06-07T07:26:36Z</time>
      </trkpt>
      <trkpt lat="44.34038" lon="5.76595">
        <ele>595</ele>
        <time>2019-06-07T07:26:37Z</time>
      </trkpt>
      <trkpt lat="44.34035" lon="5.76588">
        <ele>595</ele>
        <time>2019-06-07T07:26:38Z</time>
      </trkpt>
      <trkpt lat="44.34034" lon="5.76581">
        <ele>595</ele>
        <time>2019-06-07T07:26:39Z</time>
      </trkpt>
      <trkpt lat="44.34033" lon="5.76574">
        <ele>595</ele>
        <time>2019-06-07T07:26:40Z</time>
      </trkpt>
      <trkpt lat="44.34033" lon="5.76566">
        <ele>595</ele>
        <time>2019-06-07T07:26:41Z</time>
      </trkpt>
      <trkpt lat="44.34034" lon="5.76558">
        <ele>595</ele>
        <time>2019-06-07T07:26:42Z</time>
      </trkpt>
      <trkpt lat="44.34036" lon="5.76551">
        <ele>595</ele>
        <time>2019-06-07T07:26:43Z</time>
      </trkpt>
      <trkpt lat="44.3404" lon="5.76544">
        <ele>595</ele>
        <time>2019-06-07T07:26:44Z</time>
      </trkpt>
      <trkpt lat="44.34043" lon="5.76538">
        <ele>595</ele>
        <time>2019-06-07T07:26:45Z</time>
      </trkpt>
      <trkpt lat="44.34046" lon="5.76531">
        <ele>595</ele>
        <time>2019-06-07T07:26:46Z</time>
      </trkpt>
      <trkpt lat="44.3405" lon="5.76525">
        <ele>595</ele>
        <time>2019-06-07T07:26:47Z</time>
      </trkpt>
      <trkpt lat="44.34053" lon="5.76518">
        <ele>596</ele>
        <time>2019-06-07T07:26:48Z</time>
      </trkpt>
      <trkpt lat="44.34057" lon="5.76512">
        <ele>596</ele>
        <time>2019-06-07T07:26:49Z</time>
      </trkpt>
      <trkpt lat="44.3406" lon="5.76506">
        <ele>596</ele>
        <time>2019-06-07T07:26:50Z</time>
      </trkpt>
      <trkpt lat="44.34063" lon="5.76499">
        <ele>596</ele>
        <time>2019-06-07T07:26:51Z</time>
      </trkpt>
      <trkpt lat="44.34067" lon="5.76493">
        <ele>596</ele>
        <time>2019-06-07T07:26:52Z</time>
      </trkpt>
      <trkpt lat="44.3407" lon="5.76486">
        <ele>596</ele>
        <time>2019-06-07T07:26:53Z</time>
      </trkpt>
      <trkpt lat="44.34073" lon="5.76479">
        <ele>596</ele>
        <time>2019-06-07T07:26:54Z</time>
      </trkpt>
      <trkpt lat="44.34076" lon="5.76473">
        <ele>596</ele>
        <time>2019-06-07T07:26:55Z</time>
      </trkpt>
      <trkpt lat="44.3408" lon="5.76467">
        <ele>596</ele>
        <time>2019-06-07T07:26:56Z</time>
      </trkpt>
      <trkpt lat="44.34083" lon="5.76461">
        <ele>596</ele>
        <time>2019-06-07T07:26:57Z</time>
      </trkpt>
      <trkpt lat="44.34086" lon="5.76454">
        <ele>596</ele>
        <time>2019-06-07T07:26:58Z</time>
      </trkpt>
      <trkpt lat="44.3409" lon="5.76448">
        <ele>596</ele>
        <time>2019-06-07T07:26:59Z</time>
      </trkpt>
      <trkpt lat="44.34093" lon="5.76442">
        <ele>596</ele>
        <time>2019-06-07T07:27:00Z</time>
      </trkpt>
      <trkpt lat="44.34097" lon="5.76436">
        <ele>596</ele>
        <time>2019-06-07T07:27:01Z</time>
      </trkpt>
      <trkpt lat="44.341" lon="5.7643">
        <ele>596</ele>
        <time>2019-06-07T07:27:02Z</time>
      </trkpt>
      <trkpt lat="44.34103" lon="5.76424">
        <ele>596</ele>
        <time>2019-06-07T07:27:03Z</time>
      </trkpt>
      <trkpt lat="44.34107" lon="5.76418">
        <ele>596</ele>
        <time>2019-06-07T07:27:04Z</time>
      </trkpt>
      <trkpt lat="44.3411" lon="5.76413">
        <ele>596</ele>
        <time>2019-06-07T07:27:05Z</time>
      </trkpt>
      <trkpt lat="44.34112" lon="5.76406">
        <ele>596</ele>
        <time>2019-06-07T07:27:06Z</time>
      </trkpt>
      <trkpt lat="44.34114" lon="5.76401">
        <ele>596</ele>
        <time>2019-06-07T07:27:07Z</time>
      </trkpt>
      <trkpt lat="44.34116" lon="5.76395">
        <ele>596</ele>
        <time>2019-06-07T07:27:08Z</time>
      </trkpt>
      <trkpt lat="44.34118" lon="5.76389">
        <ele>596</ele>
        <time>2019-06-07T07:27:09Z</time>
      </trkpt>
      <trkpt lat="44.34121" lon="5.76385">
        <ele>596</ele>
        <time>2019-06-07T07:27:10Z</time>
      </trkpt>
      <trkpt lat="44.34125" lon="5.76381">
        <ele>596</ele>
        <time>2019-06-07T07:27:11Z</time>
      </trkpt>
      <trkpt lat="44.34129" lon="5.76378">
        <ele>596</ele>
        <time>2019-06-07T07:27:12Z</time>
      </trkpt>
      <trkpt lat="44.34132" lon="5.76374">
        <ele>596</ele>
        <time>2019-06-07T07:27:13Z</time>
      </trkpt>
      <trkpt lat="44.34136" lon="5.76368">
        <ele>596</ele>
        <time>2019-06-07T07:27:14Z</time>
      </trkpt>
      <trkpt lat="44.34138" lon="5.76362">
        <ele>596</ele>
        <time>2019-06-07T07:27:15Z</time>
      </trkpt>
      <trkpt lat="44.3414" lon="5.76356">
        <ele>596</ele>
        <time>2019-06-07T07:27:16Z</time>
      </trkpt>
      <trkpt lat="44.34142" lon="5.76348">
        <ele>596</ele>
        <time>2019-06-07T07:27:17Z</time>
      </trkpt>
      <trkpt lat="44.34144" lon="5.76341">
        <ele>596</ele>
        <time>2019-06-07T07:27:18Z</time>
      </trkpt>
      <trkpt lat="44.34146" lon="5.76334">
        <ele>596</ele>
        <time>2019-06-07T07:27:19Z</time>
      </trkpt>
      <trkpt lat="44.34149" lon="5.76326">
        <ele>596</ele>
        <time>2019-06-07T07:27:19Z</time>
      </trkpt>
      <trkpt lat="44.34151" lon="5.76319">
        <ele>596</ele>
        <time>2019-06-07T07:27:21Z</time>
      </trkpt>
      <trkpt lat="44.34154" lon="5.76311">
        <ele>596</ele>
        <time>2019-06-07T07:27:21Z</time>
      </trkpt>
      <trkpt lat="44.34156" lon="5.76303">
        <ele>596</ele>
        <time>2019-06-07T07:27:23Z</time>
      </trkpt>
      <trkpt lat="44.34158" lon="5.76296">
        <ele>596</ele>
        <time>2019-06-07T07:27:23Z</time>
      </trkpt>
      <trkpt lat="44.3416" lon="5.76288">
        <ele>596</ele>
        <time>2019-06-07T07:27:25Z</time>
      </trkpt>
      <trkpt lat="44.34162" lon="5.7628">
        <ele>596</ele>
        <time>2019-06-07T07:27:25Z</time>
      </trkpt>
      <trkpt lat="44.34164" lon="5.76273">
        <ele>596</ele>
        <time>2019-06-07T07:27:27Z</time>
      </trkpt>
      <trkpt lat="44.34166" lon="5.76266">
        <ele>596</ele>
        <time>2019-06-07T07:27:27Z</time>
      </trkpt>
      <trkpt lat="44.34168" lon="5.76258">
        <ele>596</ele>
        <time>2019-06-07T07:27:29Z</time>
      </trkpt>
      <trkpt lat="44.3417" lon="5.7625">
        <ele>596</ele>
        <time>2019-06-07T07:27:29Z</time>
      </trkpt>
      <trkpt lat="44.34172" lon="5.76243">
        <ele>596</ele>
        <time>2019-06-07T07:27:31Z</time>
      </trkpt>
      <trkpt lat="44.34174" lon="5.76236">
        <ele>597</ele>
        <time>2019-06-07T07:27:32Z</time>
      </trkpt>
      <trkpt lat="44.34175" lon="5.76229">
        <ele>598</ele>
        <time>2019-06-07T07:27:33Z</time>
      </trkpt>
      <trkpt lat="44.34177" lon="5.76223">
        <ele>598</ele>
        <time>2019-06-07T07:27:34Z</time>
      </trkpt>
      <trkpt lat="44.34179" lon="5.76216">
        <ele>598</ele>
        <time>2019-06-07T07:27:35Z</time>
      </trkpt>
      <trkpt lat="44.34181" lon="5.7621">
        <ele>599</ele>
        <time>2019-06-07T07:27:36Z</time>
      </trkpt>
      <trkpt lat="44.34184" lon="5.76205">
        <ele>599</ele>
        <time>2019-06-07T07:27:37Z</time>
      </trkpt>
      <trkpt lat="44.34187" lon="5.76199">
        <ele>599</ele>
        <time>2019-06-07T07:27:38Z</time>
      </trkpt>
      <trkpt lat="44.3419" lon="5.76194">
        <ele>599</ele>
        <time>2019-06-07T07:27:39Z</time>
      </trkpt>
      <trkpt lat="44.34194" lon="5.76189">
        <ele>600</ele>
        <time>2019-06-07T07:27:40Z</time>
      </trkpt>
      <trkpt lat="44.34198" lon="5.76185">
        <ele>600</ele>
        <time>2019-06-07T07:27:41Z</time>
      </trkpt>
      <trkpt lat="44.34202" lon="5.76181">
        <ele>600</ele>
        <time>2019-06-07T07:27:42Z</time>
      </trkpt>
      <trkpt lat="44.34207" lon="5.76177">
        <ele>600</ele>
        <time>2019-06-07T07:27:43Z</time>
      </trkpt>
      <trkpt lat="44.34211" lon="5.76172">
        <ele>600</ele>
        <time>2019-06-07T07:27:44Z</time>
      </trkpt>
      <trkpt lat="44.34215" lon="5.76168">
        <ele>600</ele>
        <time>2019-06-07T07:27:45Z</time>
      </trkpt>
      <trkpt lat="44.3422" lon="5.76163">
        <ele>600</ele>
        <time>2019-06-07T07:27:46Z</time>
      </trkpt>
      <trkpt lat="44.34224" lon="5.7616">
        <ele>600</ele>
        <time>2019-06-07T07:27:47Z</time>
      </trkpt>
      <trkpt lat="44.34229" lon="5.76156">
        <ele>601</ele>
        <time>2019-06-07T07:27:48Z</time>
      </trkpt>
      <trkpt lat="44.34234" lon="5.76153">
        <ele>601</ele>
        <time>2019-06-07T07:27:49Z</time>
      </trkpt>
      <trkpt lat="44.34239" lon="5.7615">
        <ele>601</ele>
        <time>2019-06-07T07:27:49Z</time>
      </trkpt>
      <trkpt lat="44.34244" lon="5.76148">
        <ele>601</ele>
        <time>2019-06-07T07:27:51Z</time>
      </trkpt>
      <trkpt lat="44.3425" lon="5.76147">
        <ele>601</ele>
        <time>2019-06-07T07:27:52Z</time>
      </trkpt>
      <trkpt lat="44.34256" lon="5.76146">
        <ele>601</ele>
        <time>2019-06-07T07:27:53Z</time>
      </trkpt>
      <trkpt lat="44.34262" lon="5.76146">
        <ele>601</ele>
        <time>2019-06-07T07:27:54Z</time>
      </trkpt>
      <trkpt lat="44.34269" lon="5.76147">
        <ele>601</ele>
        <time>2019-06-07T07:27:55Z</time>
      </trkpt>
      <trkpt lat="44.34275" lon="5.76149">
        <ele>601</ele>
        <time>2019-06-07T07:27:55Z</time>
      </trkpt>
      <trkpt lat="44.34283" lon="5.76151">
        <ele>601</ele>
        <time>2019-06-07T07:27:56Z</time>
      </trkpt>
      <trkpt lat="44.3429" lon="5.76154">
        <ele>601</ele>
        <time>2019-06-07T07:27:58Z</time>
      </trkpt>
      <trkpt lat="44.34297" lon="5.76157">
        <ele>601</ele>
        <time>2019-06-07T07:27:59Z</time>
      </trkpt>
      <trkpt lat="44.34304" lon="5.7616">
        <ele>601</ele>
        <time>2019-06-07T07:28:00Z</time>
      </trkpt>
      <trkpt lat="44.34311" lon="5.76164">
        <ele>601</ele>
        <time>2019-06-07T07:28:01Z</time>
      </trkpt>
      <trkpt lat="44.34318" lon="5.76168">
        <ele>601</ele>
        <time>2019-06-07T07:28:02Z</time>
      </trkpt>
      <trkpt lat="44.34325" lon="5.76172">
        <ele>601</ele>
        <time>2019-06-07T07:28:03Z</time>
      </trkpt>
      <trkpt lat="44.34332" lon="5.76175">
        <ele>601</ele>
        <time>2019-06-07T07:28:04Z</time>
      </trkpt>
      <trkpt lat="44.34338" lon="5.76178">
        <ele>601</ele>
        <time>2019-06-07T07:28:05Z</time>
      </trkpt>
      <trkpt lat="44.34345" lon="5.76182">
        <ele>601</ele>
        <time>2019-06-07T07:28:06Z</time>
      </trkpt>
      <trkpt lat="44.34351" lon="5.76185">
        <ele>601</ele>
        <time>2019-06-07T07:28:07Z</time>
      </trkpt>
      <trkpt lat="44.34357" lon="5.76189">
        <ele>601</ele>
        <time>2019-06-07T07:28:08Z</time>
      </trkpt>
      <trkpt lat="44.34363" lon="5.76192">
        <ele>601</ele>
        <time>2019-06-07T07:28:09Z</time>
      </trkpt>
      <trkpt lat="44.34368" lon="5.76195">
        <ele>601</ele>
        <time>2019-06-07T07:28:09Z</time>
      </trkpt>
      <trkpt lat="44.34374" lon="5.76198">
        <ele>601</ele>
        <time>2019-06-07T07:28:11Z</time>
      </trkpt>
      <trkpt lat="44.3438" lon="5.76199">
        <ele>601</ele>
        <time>2019-06-07T07:28:12Z</time>
      </trkpt>
      <trkpt lat="44.34386" lon="5.76199">
        <ele>601</ele>
        <time>2019-06-07T07:28:13Z</time>
      </trkpt>
      <trkpt lat="44.34391" lon="5.76198">
        <ele>601</ele>
        <time>2019-06-07T07:28:14Z</time>
      </trkpt>
      <trkpt lat="44.34396" lon="5.76196">
        <ele>601</ele>
        <time>2019-06-07T07:28:15Z</time>
      </trkpt>
      <trkpt lat="44.344" lon="5.76192">
        <ele>601</ele>
        <time>2019-06-07T07:28:16Z</time>
      </trkpt>
      <trkpt lat="44.34404" lon="5.76187">
        <ele>601</ele>
        <time>2019-06-07T07:28:17Z</time>
      </trkpt>
      <trkpt lat="44.34406" lon="5.76182">
        <ele>601</ele>
        <time>2019-06-07T07:28:18Z</time>
      </trkpt>
      <trkpt lat="44.34408" lon="5.76175">
        <ele>601</ele>
        <time>2019-06-07T07:28:19Z</time>
      </trkpt>
      <trkpt lat="44.34409" lon="5.76169">
        <ele>601</ele>
        <time>2019-06-07T07:28:20Z</time>
      </trkpt>
      <trkpt lat="44.3441" lon="5.76162">
        <ele>601</ele>
        <time>2019-06-07T07:28:21Z</time>
      </trkpt>
      <trkpt lat="44.3441" lon="5.76154">
        <ele>601</ele>
        <time>2019-06-07T07:28:22Z</time>
      </trkpt>
      <trkpt lat="44.34411" lon="5.76147">
        <ele>601</ele>
        <time>2019-06-07T07:28:23Z</time>
      </trkpt>
      <trkpt lat="44.34411" lon="5.7614">
        <ele>601</ele>
        <time>2019-06-07T07:28:24Z</time>
      </trkpt>
      <trkpt lat="44.3441" lon="5.76134">
        <ele>601</ele>
        <time>2019-06-07T07:28:25Z</time>
      </trkpt>
      <trkpt lat="44.34411" lon="5.76127">
        <ele>601</ele>
        <time>2019-06-07T07:28:26Z</time>
      </trkpt>
      <trkpt lat="44.34411" lon="5.76121">
        <ele>601</ele>
        <time>2019-06-07T07:28:27Z</time>
      </trkpt>
      <trkpt lat="44.34411" lon="5.76114">
        <ele>602</ele>
        <time>2019-06-07T07:28:28Z</time>
      </trkpt>
      <trkpt lat="44.34411" lon="5.76107">
        <ele>602</ele>
        <time>2019-06-07T07:28:29Z</time>
      </trkpt>
      <trkpt lat="44.34411" lon="5.761">
        <ele>602</ele>
        <time>2019-06-07T07:28:30Z</time>
      </trkpt>
      <trkpt lat="44.34411" lon="5.76093">
        <ele>603</ele>
        <time>2019-06-07T07:28:31Z</time>
      </trkpt>
      <trkpt lat="44.34411" lon="5.76087">
        <ele>603</ele>
        <time>2019-06-07T07:28:32Z</time>
      </trkpt>
      <trkpt lat="44.34411" lon="5.7608">
        <ele>603</ele>
        <time>2019-06-07T07:28:33Z</time>
      </trkpt>
      <trkpt lat="44.34411" lon="5.76073">
        <ele>603</ele>
        <time>2019-06-07T07:28:34Z</time>
      </trkpt>
      <trkpt lat="44.34411" lon="5.76065">
        <ele>604</ele>
        <time>2019-06-07T07:28:35Z</time>
      </trkpt>
      <trkpt lat="44.34411" lon="5.76058">
        <ele>604</ele>
        <time>2019-06-07T07:28:36Z</time>
      </trkpt>
      <trkpt lat="44.34411" lon="5.76051">
        <ele>604</ele>
        <time>2019-06-07T07:28:37Z</time>
      </trkpt>
      <trkpt lat="44.34411" lon="5.76044">
        <ele>604</ele>
        <time>2019-06-07T07:28:38Z</time>
      </trkpt>
      <trkpt lat="44.34411" lon="5.76036">
        <ele>604</ele>
        <time>2019-06-07T07:28:39Z</time>
      </trkpt>
      <trkpt lat="44.34411" lon="5.76029">
        <ele>604</ele>
        <time>2019-06-07T07:28:40Z</time>
      </trkpt>
      <trkpt lat="44.34411" lon="5.76022">
        <ele>605</ele>
        <time>2019-06-07T07:28:41Z</time>
      </trkpt>
      <trkpt lat="44.34411" lon="5.76015">
        <ele>605</ele>
        <time>2019-06-07T07:28:42Z</time>
      </trkpt>
      <trkpt lat="44.34411" lon="5.76007">
        <ele>605</ele>
        <time>2019-06-07T07:28:43Z</time>
      </trkpt>
      <trkpt lat="44.34411" lon="5.76">
        <ele>605</ele>
        <time>2019-06-07T07:28:44Z</time>
      </trkpt>
      <trkpt lat="44.34411" lon="5.75993">
        <ele>605</ele>
        <time>2019-06-07T07:28:45Z</time>
      </trkpt>
      <trkpt lat="44.34411" lon="5.75986">
        <ele>606</ele>
        <time>2019-06-07T07:28:46Z</time>
      </trkpt>
      <trkpt lat="44.34411" lon="5.75978">
        <ele>606</ele>
        <time>2019-06-07T07:28:47Z</time>
      </trkpt>
      <trkpt lat="44.34411" lon="5.75971">
        <ele>606</ele>
        <time>2019-06-07T07:28:48Z</time>
      </trkpt>
      <trkpt lat="44.34411" lon="5.75963">
        <ele>606</ele>
        <time>2019-06-07T07:28:49Z</time>
      </trkpt>
      <trkpt lat="44.34411" lon="5.75955">
        <ele>606</ele>
        <time>2019-06-07T07:28:50Z</time>
      </trkpt>
      <trkpt lat="44.34412" lon="5.75948">
        <ele>607</ele>
        <time>2019-06-07T07:28:51Z</time>
      </trkpt>
      <trkpt lat="44.34413" lon="5.7594">
        <ele>607</ele>
        <time>2019-06-07T07:28:52Z</time>
      </trkpt>
      <trkpt lat="44.34414" lon="5.75932">
        <ele>607</ele>
        <time>2019-06-07T07:28:53Z</time>
      </trkpt>
      <trkpt lat="44.34415" lon="5.75924">
        <ele>607</ele>
        <time>2019-06-07T07:28:54Z</time>
      </trkpt>
      <trkpt lat="44.34417" lon="5.75917">
        <ele>607</ele>
        <time>2019-06-07T07:28:55Z</time>
      </trkpt>
      <trkpt lat="44.34419" lon="5.75909">
        <ele>607</ele>
        <time>2019-06-07T07:28:56Z</time>
      </trkpt>
      <trkpt lat="44.34421" lon="5.75902">
        <ele>607</ele>
        <time>2019-06-07T07:28:57Z</time>
      </trkpt>
      <trkpt lat="44.34424" lon="5.75895">
        <ele>607</ele>
        <time>2019-06-07T07:28:58Z</time>
      </trkpt>
      <trkpt lat="44.34426" lon="5.75887">
        <ele>607</ele>
        <time>2019-06-07T07:28:59Z</time>
      </trkpt>
      <trkpt lat="44.34429" lon="5.7588">
        <ele>607</ele>
        <time>2019-06-07T07:29:00Z</time>
      </trkpt>
      <trkpt lat="44.34432" lon="5.75873">
        <ele>607</ele>
        <time>2019-06-07T07:29:01Z</time>
      </trkpt>
      <trkpt lat="44.34435" lon="5.75866">
        <ele>607</ele>
        <time>2019-06-07T07:29:02Z</time>
      </trkpt>
      <trkpt lat="44.34438" lon="5.75859">
        <ele>608</ele>
        <time>2019-06-07T07:29:03Z</time>
      </trkpt>
      <trkpt lat="44.34441" lon="5.75852">
        <ele>608</ele>
        <time>2019-06-07T07:29:04Z</time>
      </trkpt>
      <trkpt lat="44.34444" lon="5.75845">
        <ele>608</ele>
        <time>2019-06-07T07:29:05Z</time>
      </trkpt>
      <trkpt lat="44.34446" lon="5.75838">
        <ele>608</ele>
        <time>2019-06-07T07:29:06Z</time>
      </trkpt>
      <trkpt lat="44.34449" lon="5.75831">
        <ele>608</ele>
        <time>2019-06-07T07:29:07Z</time>
      </trkpt>
      <trkpt lat="44.34452" lon="5.75824">
        <ele>608</ele>
        <time>2019-06-07T07:29:08Z</time>
      </trkpt>
      <trkpt lat="44.34454" lon="5.75817">
        <ele>608</ele>
        <time>2019-06-07T07:29:09Z</time>
      </trkpt>
      <trkpt lat="44.34457" lon="5.7581">
        <ele>608</ele>
        <time>2019-06-07T07:29:10Z</time>
      </trkpt>
      <trkpt lat="44.3446" lon="5.75803">
        <ele>608</ele>
        <time>2019-06-07T07:29:11Z</time>
      </trkpt>
      <trkpt lat="44.34463" lon="5.75796">
        <ele>608</ele>
        <time>2019-06-07T07:29:12Z</time>
      </trkpt>
      <trkpt lat="44.34466" lon="5.75789">
        <ele>609</ele>
        <time>2019-06-07T07:29:13Z</time>
      </trkpt>
      <trkpt lat="44.34469" lon="5.75782">
        <ele>609</ele>
        <time>2019-06-07T07:29:14Z</time>
      </trkpt>
      <trkpt lat="44.34472" lon="5.75774">
        <ele>609</ele>
        <time>2019-06-07T07:29:15Z</time>
      </trkpt>
      <trkpt lat="44.34475" lon="5.75767">
        <ele>609</ele>
        <time>2019-06-07T07:29:16Z</time>
      </trkpt>
      <trkpt lat="44.34478" lon="5.7576">
        <ele>609</ele>
        <time>2019-06-07T07:29:17Z</time>
      </trkpt>
      <trkpt lat="44.34481" lon="5.75752">
        <ele>609</ele>
        <time>2019-06-07T07:29:18Z</time>
      </trkpt>
      <trkpt lat="44.34484" lon="5.75745">
        <ele>609</ele>
        <time>2019-06-07T07:29:19Z</time>
      </trkpt>
      <trkpt lat="44.34487" lon="5.75737">
        <ele>609</ele>
        <time>2019-06-07T07:29:20Z</time>
      </trkpt>
      <trkpt lat="44.3449" lon="5.7573">
        <ele>609</ele>
        <time>2019-06-07T07:29:21Z</time>
      </trkpt>
      <trkpt lat="44.34493" lon="5.75723">
        <ele>610</ele>
        <time>2019-06-07T07:29:22Z</time>
      </trkpt>
      <trkpt lat="44.34496" lon="5.75715">
        <ele>610</ele>
        <time>2019-06-07T07:29:23Z</time>
      </trkpt>
      <trkpt lat="44.34499" lon="5.75708">
        <ele>610</ele>
        <time>2019-06-07T07:29:24Z</time>
      </trkpt>
      <trkpt lat="44.34502" lon="5.75701">
        <ele>610</ele>
        <time>2019-06-07T07:29:25Z</time>
      </trkpt>
      <trkpt lat="44.34504" lon="5.75694">
        <ele>610</ele>
        <time>2019-06-07T07:29:26Z</time>
      </trkpt>
      <trkpt lat="44.34507" lon="5.75686">
        <ele>610</ele>
        <time>2019-06-07T07:29:27Z</time>
      </trkpt>
      <trkpt lat="44.3451" lon="5.75679">
        <ele>610</ele>
        <time>2019-06-07T07:29:28Z</time>
      </trkpt>
      <trkpt lat="44.34513" lon="5.75672">
        <ele>610</ele>
        <time>2019-06-07T07:29:29Z</time>
      </trkpt>
      <trkpt lat="44.34516" lon="5.75665">
        <ele>610</ele>
        <time>2019-06-07T07:29:30Z</time>
      </trkpt>
      <trkpt lat="44.34519" lon="5.75657">
        <ele>610</ele>
        <time>2019-06-07T07:29:31Z</time>
      </trkpt>
      <trkpt lat="44.34521" lon="5.7565">
        <ele>610</ele>
        <time>2019-06-07T07:29:32Z</time>
      </trkpt>
      <trkpt lat="44.34525" lon="5.75643">
        <ele>610</ele>
        <time>2019-06-07T07:29:33Z</time>
      </trkpt>
      <trkpt lat="44.34527" lon="5.75636">
        <ele>610</ele>
        <time>2019-06-07T07:29:34Z</time>
      </trkpt>
      <trkpt lat="44.3453" lon="5.75629">
        <ele>611</ele>
        <time>2019-06-07T07:29:35Z</time>
      </trkpt>
      <trkpt lat="44.34533" lon="5.75622">
        <ele>611</ele>
        <time>2019-06-07T07:29:36Z</time>
      </trkpt>
      <trkpt lat="44.34536" lon="5.75614">
        <ele>611</ele>
        <time>2019-06-07T07:29:36Z</time>
      </trkpt>
      <trkpt lat="44.34539" lon="5.75607">
        <ele>611</ele>
        <time>2019-06-07T07:29:37Z</time>
      </trkpt>
      <trkpt lat="44.34542" lon="5.756">
        <ele>611</ele>
        <time>2019-06-07T07:29:39Z</time>
      </trkpt>
      <trkpt lat="44.34545" lon="5.75592">
        <ele>611</ele>
        <time>2019-06-07T07:29:40Z</time>
      </trkpt>
      <trkpt lat="44.34548" lon="5.75585">
        <ele>611</ele>
        <time>2019-06-07T07:29:41Z</time>
      </trkpt>
      <trkpt lat="44.34551" lon="5.75578">
        <ele>611</ele>
        <time>2019-06-07T07:29:41Z</time>
      </trkpt>
      <trkpt lat="44.34553" lon="5.75571">
        <ele>611</ele>
        <time>2019-06-07T07:29:43Z</time>
      </trkpt>
      <trkpt lat="44.34556" lon="5.75564">
        <ele>611</ele>
        <time>2019-06-07T07:29:44Z</time>
      </trkpt>
      <trkpt lat="44.34559" lon="5.75557">
        <ele>611</ele>
        <time>2019-06-07T07:29:45Z</time>
      </trkpt>
      <trkpt lat="44.34562" lon="5.7555">
        <ele>611</ele>
        <time>2019-06-07T07:29:46Z</time>
      </trkpt>
      <trkpt lat="44.34565" lon="5.75542">
        <ele>611</ele>
        <time>2019-06-07T07:29:47Z</time>
      </trkpt>
      <trkpt lat="44.34568" lon="5.75535">
        <ele>612</ele>
        <time>2019-06-07T07:29:48Z</time>
      </trkpt>
      <trkpt lat="44.34571" lon="5.75528">
        <ele>612</ele>
        <time>2019-06-07T07:29:49Z</time>
      </trkpt>
      <trkpt lat="44.34573" lon="5.75521">
        <ele>612</ele>
        <time>2019-06-07T07:29:50Z</time>
      </trkpt>
      <trkpt lat="44.34576" lon="5.75514">
        <ele>612</ele>
        <time>2019-06-07T07:29:51Z</time>
      </trkpt>
      <trkpt lat="44.34579" lon="5.75507">
        <ele>612</ele>
        <time>2019-06-07T07:29:52Z</time>
      </trkpt>
      <trkpt lat="44.34583" lon="5.755">
        <ele>612</ele>
        <time>2019-06-07T07:29:53Z</time>
      </trkpt>
      <trkpt lat="44.34586" lon="5.75493">
        <ele>612</ele>
        <time>2019-06-07T07:29:53Z</time>
      </trkpt>
      <trkpt lat="44.34588" lon="5.75486">
        <ele>612</ele>
        <time>2019-06-07T07:29:55Z</time>
      </trkpt>
      <trkpt lat="44.34591" lon="5.75478">
        <ele>612</ele>
        <time>2019-06-07T07:29:55Z</time>
      </trkpt>
      <trkpt lat="44.34594" lon="5.75471">
        <ele>612</ele>
        <time>2019-06-07T07:29:56Z</time>
      </trkpt>
      <trkpt lat="44.34597" lon="5.75464">
        <ele>612</ele>
        <time>2019-06-07T07:29:57Z</time>
      </trkpt>
      <trkpt lat="44.346" lon="5.75457">
        <ele>612</ele>
        <time>2019-06-07T07:29:59Z</time>
      </trkpt>
      <trkpt lat="44.34602" lon="5.7545">
        <ele>612</ele>
        <time>2019-06-07T07:30:00Z</time>
      </trkpt>
      <trkpt lat="44.34605" lon="5.75442">
        <ele>612</ele>
        <time>2019-06-07T07:30:00Z</time>
      </trkpt>
      <trkpt lat="44.34608" lon="5.75435">
        <ele>613</ele>
        <time>2019-06-07T07:30:01Z</time>
      </trkpt>
      <trkpt lat="44.34611" lon="5.75428">
        <ele>613</ele>
        <time>2019-06-07T07:30:02Z</time>
      </trkpt>
      <trkpt lat="44.34614" lon="5.7542">
        <ele>613</ele>
        <time>2019-06-07T07:30:03Z</time>
      </trkpt>
      <trkpt lat="44.34617" lon="5.75413">
        <ele>613</ele>
        <time>2019-06-07T07:30:04Z</time>
      </trkpt>
      <trkpt lat="44.3462" lon="5.75405">
        <ele>613</ele>
        <time>2019-06-07T07:30:06Z</time>
      </trkpt>
      <trkpt lat="44.34623" lon="5.75397">
        <ele>613</ele>
        <time>2019-06-07T07:30:06Z</time>
      </trkpt>
      <trkpt lat="44.34625" lon="5.7539">
        <ele>613</ele>
        <time>2019-06-07T07:30:07Z</time>
      </trkpt>
      <trkpt lat="44.34628" lon="5.75382">
        <ele>613</ele>
        <time>2019-06-07T07:30:08Z</time>
      </trkpt>
      <trkpt lat="44.34631" lon="5.75375">
        <ele>613</ele>
        <time>2019-06-07T07:30:09Z</time>
      </trkpt>
      <trkpt lat="44.34634" lon="5.75367">
        <ele>613</ele>
        <time>2019-06-07T07:30:11Z</time>
      </trkpt>
      <trkpt lat="44.34637" lon="5.7536">
        <ele>613</ele>
        <time>2019-06-07T07:30:11Z</time>
      </trkpt>
      <trkpt lat="44.3464" lon="5.75352">
        <ele>613</ele>
        <time>2019-06-07T07:30:12Z</time>
      </trkpt>
      <trkpt lat="44.34643" lon="5.75345">
        <ele>613</ele>
        <time>2019-06-07T07:30:13Z</time>
      </trkpt>
      <trkpt lat="44.34646" lon="5.75337">
        <ele>613</ele>
        <time>2019-06-07T07:30:14Z</time>
      </trkpt>
      <trkpt lat="44.34649" lon="5.7533">
        <ele>613</ele>
        <time>2019-06-07T07:30:16Z</time>
      </trkpt>
      <trkpt lat="44.34652" lon="5.75322">
        <ele>613</ele>
        <time>2019-06-07T07:30:16Z</time>
      </trkpt>
      <trkpt lat="44.34655" lon="5.75315">
        <ele>613</ele>
        <time>2019-06-07T07:30:17Z</time>
      </trkpt>
      <trkpt lat="44.34658" lon="5.75307">
        <ele>613</ele>
        <time>2019-06-07T07:30:18Z</time>
      </trkpt>
      <trkpt lat="44.34661" lon="5.753">
        <ele>613</ele>
        <time>2019-06-07T07:30:19Z</time>
      </trkpt>
      <trkpt lat="44.34664" lon="5.75292">
        <ele>613</ele>
        <time>2019-06-07T07:30:21Z</time>
      </trkpt>
      <trkpt lat="44.34667" lon="5.75285">
        <ele>613</ele>
        <time>2019-06-07T07:30:21Z</time>
      </trkpt>
      <trkpt lat="44.3467" lon="5.75277">
        <ele>613</ele>
        <time>2019-06-07T07:30:22Z</time>
      </trkpt>
      <trkpt lat="44.34673" lon="5.7527">
        <ele>613</ele>
        <time>2019-06-07T07:30:23Z</time>
      </trkpt>
      <trkpt lat="44.34676" lon="5.75262">
        <ele>613</ele>
        <time>2019-06-07T07:30:24Z</time>
      </trkpt>
      <trkpt lat="44.34679" lon="5.75254">
        <ele>613</ele>
        <time>2019-06-07T07:30:26Z</time>
      </trkpt>
      <trkpt lat="44.34681" lon="5.75247">
        <ele>613</ele>
        <time>2019-06-07T07:30:26Z</time>
      </trkpt>
      <trkpt lat="44.34684" lon="5.75239">
        <ele>613</ele>
        <time>2019-06-07T07:30:27Z</time>
      </trkpt>
      <trkpt lat="44.34688" lon="5.75232">
        <ele>613</ele>
        <time>2019-06-07T07:30:28Z</time>
      </trkpt>
      <trkpt lat="44.34691" lon="5.75224">
        <ele>614</ele>
        <time>2019-06-07T07:30:29Z</time>
      </trkpt>
      <trkpt lat="44.34694" lon="5.75217">
        <ele>614</ele>
        <time>2019-06-07T07:30:31Z</time>
      </trkpt>
      <trkpt lat="44.34697" lon="5.7521">
        <ele>614</ele>
        <time>2019-06-07T07:30:31Z</time>
      </trkpt>
      <trkpt lat="44.347" lon="5.75202">
        <ele>614</ele>
        <time>2019-06-07T07:30:32Z</time>
      </trkpt>
      <trkpt lat="44.34703" lon="5.75194">
        <ele>614</ele>
        <time>2019-06-07T07:30:33Z</time>
      </trkpt>
      <trkpt lat="44.34706" lon="5.75187">
        <ele>614</ele>
        <time>2019-06-07T07:30:34Z</time>
      </trkpt>
      <trkpt lat="44.34709" lon="5.75179">
        <ele>614</ele>
        <time>2019-06-07T07:30:36Z</time>
      </trkpt>
      <trkpt lat="44.34712" lon="5.75172">
        <ele>614</ele>
        <time>2019-06-07T07:30:36Z</time>
      </trkpt>
      <trkpt lat="44.34715" lon="5.75164">
        <ele>614</ele>
        <time>2019-06-07T07:30:37Z</time>
      </trkpt>
      <trkpt lat="44.34718" lon="5.75156">
        <ele>614</ele>
        <time>2019-06-07T07:30:38Z</time>
      </trkpt>
      <trkpt lat="44.34721" lon="5.75149">
        <ele>614</ele>
        <time>2019-06-07T07:30:39Z</time>
      </trkpt>
      <trkpt lat="44.34724" lon="5.75142">
        <ele>614</ele>
        <time>2019-06-07T07:30:41Z</time>
      </trkpt>
      <trkpt lat="44.34727" lon="5.75134">
        <ele>614</ele>
        <time>2019-06-07T07:30:41Z</time>
      </trkpt>
      <trkpt lat="44.3473" lon="5.75127">
        <ele>614</ele>
        <time>2019-06-07T07:30:42Z</time>
      </trkpt>
      <trkpt lat="44.34733" lon="5.75119">
        <ele>614</ele>
        <time>2019-06-07T07:30:43Z</time>
      </trkpt>
      <trkpt lat="44.34736" lon="5.75112">
        <ele>614</ele>
        <time>2019-06-07T07:30:44Z</time>
      </trkpt>
      <trkpt lat="44.34739" lon="5.75105">
        <ele>615</ele>
        <time>2019-06-07T07:30:46Z</time>
      </trkpt>
      <trkpt lat="44.34742" lon="5.75097">
        <ele>615</ele>
        <time>2019-06-07T07:30:46Z</time>
      </trkpt>
      <trkpt lat="44.34745" lon="5.7509">
        <ele>615</ele>
        <time>2019-06-07T07:30:47Z</time>
      </trkpt>
      <trkpt lat="44.34747" lon="5.75083">
        <ele>615</ele>
        <time>2019-06-07T07:30:48Z</time>
      </trkpt>
      <trkpt lat="44.3475" lon="5.75075">
        <ele>615</ele>
        <time>2019-06-07T07:30:49Z</time>
      </trkpt>
      <trkpt lat="44.34753" lon="5.75068">
        <ele>615</ele>
        <time>2019-06-07T07:30:51Z</time>
      </trkpt>
      <trkpt lat="44.34756" lon="5.75061">
        <ele>615</ele>
        <time>2019-06-07T07:30:51Z</time>
      </trkpt>
      <trkpt lat="44.34759" lon="5.75054">
        <ele>615</ele>
        <time>2019-06-07T07:30:52Z</time>
      </trkpt>
      <trkpt lat="44.34762" lon="5.75046">
        <ele>615</ele>
        <time>2019-06-07T07:30:53Z</time>
      </trkpt>
      <trkpt lat="44.34765" lon="5.75039">
        <ele>615</ele>
        <time>2019-06-07T07:30:54Z</time>
      </trkpt>
      <trkpt lat="44.34768" lon="5.75032">
        <ele>615</ele>
        <time>2019-06-07T07:30:56Z</time>
      </trkpt>
      <trkpt lat="44.34771" lon="5.75024">
        <ele>615</ele>
        <time>2019-06-07T07:30:56Z</time>
      </trkpt>
      <trkpt lat="44.34774" lon="5.75017">
        <ele>616</ele>
        <time>2019-06-07T07:30:57Z</time>
      </trkpt>
      <trkpt lat="44.34777" lon="5.7501">
        <ele>616</ele>
        <time>2019-06-07T07:30:59Z</time>
      </trkpt>
      <trkpt lat="44.3478" lon="5.75002">
        <ele>616</ele>
        <time>2019-06-07T07:30:59Z</time>
      </trkpt>
      <trkpt lat="44.34782" lon="5.74995">
        <ele>616</ele>
        <time>2019-06-07T07:31:01Z</time>
      </trkpt>
      <trkpt lat="44.34785" lon="5.74988">
        <ele>616</ele>
        <time>2019-06-07T07:31:01Z</time>
      </trkpt>
      <trkpt lat="44.34788" lon="5.7498">
        <ele>616</ele>
        <time>2019-06-07T07:31:02Z</time>
      </trkpt>
      <trkpt lat="44.34791" lon="5.74973">
        <ele>616</ele>
        <time>2019-06-07T07:31:03Z</time>
      </trkpt>
      <trkpt lat="44.34794" lon="5.74966">
        <ele>616</ele>
        <time>2019-06-07T07:31:05Z</time>
      </trkpt>
      <trkpt lat="44.34797" lon="5.74959">
        <ele>616</ele>
        <time>2019-06-07T07:31:06Z</time>
      </trkpt>
      <trkpt lat="44.348" lon="5.74952">
        <ele>616</ele>
        <time>2019-06-07T07:31:06Z</time>
      </trkpt>
      <trkpt lat="44.34803" lon="5.74944">
        <ele>616</ele>
        <time>2019-06-07T07:31:07Z</time>
      </trkpt>
      <trkpt lat="44.34806" lon="5.74937">
        <ele>617</ele>
        <time>2019-06-07T07:31:08Z</time>
      </trkpt>
      <trkpt lat="44.34809" lon="5.7493">
        <ele>617</ele>
        <time>2019-06-07T07:31:09Z</time>
      </trkpt>
      <trkpt lat="44.34811" lon="5.74922">
        <ele>617</ele>
        <time>2019-06-07T07:31:11Z</time>
      </trkpt>
      <trkpt lat="44.34814" lon="5.74915">
        <ele>617</ele>
        <time>2019-06-07T07:31:11Z</time>
      </trkpt>
      <trkpt lat="44.34817" lon="5.74907">
        <ele>617</ele>
        <time>2019-06-07T07:31:12Z</time>
      </trkpt>
      <trkpt lat="44.3482" lon="5.749">
        <ele>617</ele>
        <time>2019-06-07T07:31:13Z</time>
      </trkpt>
      <trkpt lat="44.34823" lon="5.74893">
        <ele>617</ele>
        <time>2019-06-07T07:31:14Z</time>
      </trkpt>
      <trkpt lat="44.34826" lon="5.74885">
        <ele>617</ele>
        <time>2019-06-07T07:31:16Z</time>
      </trkpt>
      <trkpt lat="44.34829" lon="5.74878">
        <ele>617</ele>
        <time>2019-06-07T07:31:17Z</time>
      </trkpt>
      <trkpt lat="44.34832" lon="5.74871">
        <ele>617</ele>
        <time>2019-06-07T07:31:17Z</time>
      </trkpt>
      <trkpt lat="44.34835" lon="5.74863">
        <ele>617</ele>
        <time>2019-06-07T07:31:18Z</time>
      </trkpt>
      <trkpt lat="44.34838" lon="5.74856">
        <ele>617</ele>
        <time>2019-06-07T07:31:19Z</time>
      </trkpt>
      <trkpt lat="44.34841" lon="5.74849">
        <ele>617</ele>
        <time>2019-06-07T07:31:21Z</time>
      </trkpt>
      <trkpt lat="44.34844" lon="5.74841">
        <ele>618</ele>
        <time>2019-06-07T07:31:21Z</time>
      </trkpt>
      <trkpt lat="44.34847" lon="5.74834">
        <ele>618</ele>
        <time>2019-06-07T07:31:23Z</time>
      </trkpt>
      <trkpt lat="44.3485" lon="5.74826">
        <ele>618</ele>
        <time>2019-06-07T07:31:24Z</time>
      </trkpt>
      <trkpt lat="44.34853" lon="5.74819">
        <ele>618</ele>
        <time>2019-06-07T07:31:25Z</time>
      </trkpt>
      <trkpt lat="44.34856" lon="5.74811">
        <ele>618</ele>
        <time>2019-06-07T07:31:25Z</time>
      </trkpt>
      <trkpt lat="44.34859" lon="5.74803">
        <ele>618</ele>
        <time>2019-06-07T07:31:27Z</time>
      </trkpt>
      <trkpt lat="44.34862" lon="5.74795">
        <ele>618</ele>
        <time>2019-06-07T07:31:28Z</time>
      </trkpt>
      <trkpt lat="44.34865" lon="5.74788">
        <ele>618</ele>
        <time>2019-06-07T07:31:29Z</time>
      </trkpt>
      <trkpt lat="44.34868" lon="5.7478">
        <ele>618</ele>
        <time>2019-06-07T07:31:30Z</time>
      </trkpt>
      <trkpt lat="44.34871" lon="5.74773">
        <ele>618</ele>
        <time>2019-06-07T07:31:30Z</time>
      </trkpt>
      <trkpt lat="44.34874" lon="5.74765">
        <ele>618</ele>
        <time>2019-06-07T07:31:32Z</time>
      </trkpt>
      <trkpt lat="44.34877" lon="5.74758">
        <ele>619</ele>
        <time>2019-06-07T07:31:33Z</time>
      </trkpt>
      <trkpt lat="44.3488" lon="5.74751">
        <ele>619</ele>
        <time>2019-06-07T07:31:34Z</time>
      </trkpt>
      <trkpt lat="44.34883" lon="5.74743">
        <ele>619</ele>
        <time>2019-06-07T07:31:35Z</time>
      </trkpt>
      <trkpt lat="44.34886" lon="5.74736">
        <ele>619</ele>
        <time>2019-06-07T07:31:35Z</time>
      </trkpt>
      <trkpt lat="44.34889" lon="5.74728">
        <ele>619</ele>
        <time>2019-06-07T07:31:36Z</time>
      </trkpt>
      <trkpt lat="44.34892" lon="5.74721">
        <ele>619</ele>
        <time>2019-06-07T07:31:38Z</time>
      </trkpt>
      <trkpt lat="44.34895" lon="5.74714">
        <ele>619</ele>
        <time>2019-06-07T07:31:38Z</time>
      </trkpt>
      <trkpt lat="44.34898" lon="5.74707">
        <ele>619</ele>
        <time>2019-06-07T07:31:39Z</time>
      </trkpt>
      <trkpt lat="44.34901" lon="5.74699">
        <ele>619</ele>
        <time>2019-06-07T07:31:40Z</time>
      </trkpt>
      <trkpt lat="44.34904" lon="5.74692">
        <ele>619</ele>
        <time>2019-06-07T07:31:41Z</time>
      </trkpt>
      <trkpt lat="44.34906" lon="5.74685">
        <ele>619</ele>
        <time>2019-06-07T07:31:43Z</time>
      </trkpt>
      <trkpt lat="44.34909" lon="5.74678">
        <ele>619</ele>
        <time>2019-06-07T07:31:43Z</time>
      </trkpt>
      <trkpt lat="44.34912" lon="5.7467">
        <ele>619</ele>
        <time>2019-06-07T07:31:44Z</time>
      </trkpt>
      <trkpt lat="44.34915" lon="5.74663">
        <ele>619</ele>
        <time>2019-06-07T07:31:45Z</time>
      </trkpt>
      <trkpt lat="44.34918" lon="5.74655">
        <ele>620</ele>
        <time>2019-06-07T07:31:46Z</time>
      </trkpt>
      <trkpt lat="44.34921" lon="5.74648">
        <ele>620</ele>
        <time>2019-06-07T07:31:48Z</time>
      </trkpt>
      <trkpt lat="44.34924" lon="5.74641">
        <ele>620</ele>
        <time>2019-06-07T07:31:48Z</time>
      </trkpt>
      <trkpt lat="44.34927" lon="5.74634">
        <ele>620</ele>
        <time>2019-06-07T07:31:49Z</time>
      </trkpt>
      <trkpt lat="44.3493" lon="5.74626">
        <ele>620</ele>
        <time>2019-06-07T07:31:50Z</time>
      </trkpt>
      <trkpt lat="44.34933" lon="5.74618">
        <ele>620</ele>
        <time>2019-06-07T07:31:51Z</time>
      </trkpt>
      <trkpt lat="44.34936" lon="5.74611">
        <ele>620</ele>
        <time>2019-06-07T07:31:53Z</time>
      </trkpt>
      <trkpt lat="44.34939" lon="5.74603">
        <ele>620</ele>
        <time>2019-06-07T07:31:53Z</time>
      </trkpt>
      <trkpt lat="44.34942" lon="5.74595">
        <ele>620</ele>
        <time>2019-06-07T07:31:55Z</time>
      </trkpt>
      <trkpt lat="44.34945" lon="5.74588">
        <ele>620</ele>
        <time>2019-06-07T07:31:55Z</time>
      </trkpt>
      <trkpt lat="44.34948" lon="5.7458">
        <ele>620</ele>
        <time>2019-06-07T07:31:56Z</time>
      </trkpt>
      <trkpt lat="44.34951" lon="5.74572">
        <ele>620</ele>
        <time>2019-06-07T07:31:57Z</time>
      </trkpt>
      <trkpt lat="44.34955" lon="5.74565">
        <ele>620</ele>
        <time>2019-06-07T07:31:59Z</time>
      </trkpt>
      <trkpt lat="44.34958" lon="5.74557">
        <ele>620</ele>
        <time>2019-06-07T07:31:59Z</time>
      </trkpt>
      <trkpt lat="44.34961" lon="5.74549">
        <ele>620</ele>
        <time>2019-06-07T07:32:00Z</time>
      </trkpt>
      <trkpt lat="44.34964" lon="5.74541">
        <ele>620</ele>
        <time>2019-06-07T07:32:01Z</time>
      </trkpt>
      <trkpt lat="44.34967" lon="5.74534">
        <ele>620</ele>
        <time>2019-06-07T07:32:02Z</time>
      </trkpt>
      <trkpt lat="44.3497" lon="5.74526">
        <ele>620</ele>
        <time>2019-06-07T07:32:03Z</time>
      </trkpt>
      <trkpt lat="44.34973" lon="5.74518">
        <ele>620</ele>
        <time>2019-06-07T07:32:05Z</time>
      </trkpt>
      <trkpt lat="44.34976" lon="5.7451">
        <ele>620</ele>
        <time>2019-06-07T07:32:05Z</time>
      </trkpt>
      <trkpt lat="44.34979" lon="5.74503">
        <ele>620</ele>
        <time>2019-06-07T07:32:06Z</time>
      </trkpt>
      <trkpt lat="44.34983" lon="5.74495">
        <ele>620</ele>
        <time>2019-06-07T07:32:07Z</time>
      </trkpt>
      <trkpt lat="44.34985" lon="5.74487">
        <ele>620</ele>
        <time>2019-06-07T07:32:08Z</time>
      </trkpt>
      <trkpt lat="44.34988" lon="5.74479">
        <ele>620</ele>
        <time>2019-06-07T07:32:10Z</time>
      </trkpt>
      <trkpt lat="44.34992" lon="5.74472">
        <ele>620</ele>
        <time>2019-06-07T07:32:10Z</time>
      </trkpt>
      <trkpt lat="44.34995" lon="5.74464">
        <ele>620</ele>
        <time>2019-06-07T07:32:11Z</time>
      </trkpt>
      <trkpt lat="44.34998" lon="5.74456">
        <ele>620</ele>
        <time>2019-06-07T07:32:12Z</time>
      </trkpt>
      <trkpt lat="44.35001" lon="5.74449">
        <ele>620</ele>
        <time>2019-06-07T07:32:13Z</time>
      </trkpt>
      <trkpt lat="44.35004" lon="5.74441">
        <ele>620</ele>
        <time>2019-06-07T07:32:15Z</time>
      </trkpt>
      <trkpt lat="44.35007" lon="5.74434">
        <ele>620</ele>
        <time>2019-06-07T07:32:15Z</time>
      </trkpt>
      <trkpt lat="44.35011" lon="5.74427">
        <ele>621</ele>
        <time>2019-06-07T07:32:16Z</time>
      </trkpt>
      <trkpt lat="44.35014" lon="5.74419">
        <ele>621</ele>
        <time>2019-06-07T07:32:17Z</time>
      </trkpt>
      <trkpt lat="44.35017" lon="5.74411">
        <ele>621</ele>
        <time>2019-06-07T07:32:18Z</time>
      </trkpt>
      <trkpt lat="44.3502" lon="5.74403">
        <ele>621</ele>
        <time>2019-06-07T07:32:20Z</time>
      </trkpt>
      <trkpt lat="44.35023" lon="5.74396">
        <ele>621</ele>
        <time>2019-06-07T07:32:20Z</time>
      </trkpt>
      <trkpt lat="44.35026" lon="5.74388">
        <ele>621</ele>
        <time>2019-06-07T07:32:21Z</time>
      </trkpt>
      <trkpt lat="44.35029" lon="5.7438">
        <ele>621</ele>
        <time>2019-06-07T07:32:22Z</time>
      </trkpt>
      <trkpt lat="44.35032" lon="5.74373">
        <ele>621</ele>
        <time>2019-06-07T07:32:23Z</time>
      </trkpt>
      <trkpt lat="44.35035" lon="5.74365">
        <ele>621</ele>
        <time>2019-06-07T07:32:25Z</time>
      </trkpt>
      <trkpt lat="44.35038" lon="5.74357">
        <ele>621</ele>
        <time>2019-06-07T07:32:26Z</time>
      </trkpt>
      <trkpt lat="44.35041" lon="5.74349">
        <ele>621</ele>
        <time>2019-06-07T07:32:26Z</time>
      </trkpt>
      <trkpt lat="44.35044" lon="5.74341">
        <ele>621</ele>
        <time>2019-06-07T07:32:27Z</time>
      </trkpt>
      <trkpt lat="44.35048" lon="5.74333">
        <ele>621</ele>
        <time>2019-06-07T07:32:29Z</time>
      </trkpt>
      <trkpt lat="44.35051" lon="5.74325">
        <ele>621</ele>
        <time>2019-06-07T07:32:30Z</time>
      </trkpt>
      <trkpt lat="44.35054" lon="5.74317">
        <ele>621</ele>
        <time>2019-06-07T07:32:30Z</time>
      </trkpt>
      <trkpt lat="44.35057" lon="5.74309">
        <ele>621</ele>
        <time>2019-06-07T07:32:31Z</time>
      </trkpt>
      <trkpt lat="44.35061" lon="5.743">
        <ele>621</ele>
        <time>2019-06-07T07:32:32Z</time>
      </trkpt>
      <trkpt lat="44.35064" lon="5.74292">
        <ele>621</ele>
        <time>2019-06-07T07:32:33Z</time>
      </trkpt>
      <trkpt lat="44.35067" lon="5.74284">
        <ele>621</ele>
        <time>2019-06-07T07:32:35Z</time>
      </trkpt>
      <trkpt lat="44.3507" lon="5.74276">
        <ele>621</ele>
        <time>2019-06-07T07:32:35Z</time>
      </trkpt>
      <trkpt lat="44.35073" lon="5.74268">
        <ele>621</ele>
        <time>2019-06-07T07:32:36Z</time>
      </trkpt>
      <trkpt lat="44.35077" lon="5.7426">
        <ele>621</ele>
        <time>2019-06-07T07:32:37Z</time>
      </trkpt>
      <trkpt lat="44.3508" lon="5.74252">
        <ele>621</ele>
        <time>2019-06-07T07:32:38Z</time>
      </trkpt>
      <trkpt lat="44.35083" lon="5.74244">
        <ele>621</ele>
        <time>2019-06-07T07:32:40Z</time>
      </trkpt>
      <trkpt lat="44.35086" lon="5.74236">
        <ele>621</ele>
        <time>2019-06-07T07:32:40Z</time>
      </trkpt>
      <trkpt lat="44.3509" lon="5.74228">
        <ele>621</ele>
        <time>2019-06-07T07:32:41Z</time>
      </trkpt>
      <trkpt lat="44.35093" lon="5.74221">
        <ele>621</ele>
        <time>2019-06-07T07:32:42Z</time>
      </trkpt>
      <trkpt lat="44.35096" lon="5.74213">
        <ele>621</ele>
        <time>2019-06-07T07:32:43Z</time>
      </trkpt>
      <trkpt lat="44.351" lon="5.74205">
        <ele>621</ele>
        <time>2019-06-07T07:32:45Z</time>
      </trkpt>
      <trkpt lat="44.35102" lon="5.74197">
        <ele>621</ele>
        <time>2019-06-07T07:32:45Z</time>
      </trkpt>
      <trkpt lat="44.35105" lon="5.74189">
        <ele>621</ele>
        <time>2019-06-07T07:32:47Z</time>
      </trkpt>
      <trkpt lat="44.35108" lon="5.7418">
        <ele>621</ele>
        <time>2019-06-07T07:32:47Z</time>
      </trkpt>
      <trkpt lat="44.35111" lon="5.74172">
        <ele>621</ele>
        <time>2019-06-07T07:32:48Z</time>
      </trkpt>
      <trkpt lat="44.35114" lon="5.74165">
        <ele>621</ele>
        <time>2019-06-07T07:32:50Z</time>
      </trkpt>
      <trkpt lat="44.35117" lon="5.74157">
        <ele>621</ele>
        <time>2019-06-07T07:32:50Z</time>
      </trkpt>
      <trkpt lat="44.3512" lon="5.7415">
        <ele>621</ele>
        <time>2019-06-07T07:32:51Z</time>
      </trkpt>
      <trkpt lat="44.35123" lon="5.74142">
        <ele>621</ele>
        <time>2019-06-07T07:32:53Z</time>
      </trkpt>
      <trkpt lat="44.35126" lon="5.74135">
        <ele>621</ele>
        <time>2019-06-07T07:32:53Z</time>
      </trkpt>
      <trkpt lat="44.35129" lon="5.74127">
        <ele>621</ele>
        <time>2019-06-07T07:32:55Z</time>
      </trkpt>
      <trkpt lat="44.35132" lon="5.7412">
        <ele>621</ele>
        <time>2019-06-07T07:32:56Z</time>
      </trkpt>
      <trkpt lat="44.35135" lon="5.74113">
        <ele>621</ele>
        <time>2019-06-07T07:32:57Z</time>
      </trkpt>
      <trkpt lat="44.35138" lon="5.74106">
        <ele>621</ele>
        <time>2019-06-07T07:32:58Z</time>
      </trkpt>
      <trkpt lat="44.35141" lon="5.74098">
        <ele>622</ele>
        <time>2019-06-07T07:32:59Z</time>
      </trkpt>
      <trkpt lat="44.35144" lon="5.74091">
        <ele>622</ele>
        <time>2019-06-07T07:33:00Z</time>
      </trkpt>
      <trkpt lat="44.35147" lon="5.74084">
        <ele>622</ele>
        <time>2019-06-07T07:33:00Z</time>
      </trkpt>
      <trkpt lat="44.3515" lon="5.74077">
        <ele>622</ele>
        <time>2019-06-07T07:33:01Z</time>
      </trkpt>
      <trkpt lat="44.35153" lon="5.7407">
        <ele>622</ele>
        <time>2019-06-07T07:33:03Z</time>
      </trkpt>
      <trkpt lat="44.35156" lon="5.74063">
        <ele>622</ele>
        <time>2019-06-07T07:33:03Z</time>
      </trkpt>
      <trkpt lat="44.35159" lon="5.74056">
        <ele>622</ele>
        <time>2019-06-07T07:33:05Z</time>
      </trkpt>
      <trkpt lat="44.35161" lon="5.74049">
        <ele>622</ele>
        <time>2019-06-07T07:33:05Z</time>
      </trkpt>
      <trkpt lat="44.35164" lon="5.74042">
        <ele>623</ele>
        <time>2019-06-07T07:33:06Z</time>
      </trkpt>
      <trkpt lat="44.35167" lon="5.74035">
        <ele>623</ele>
        <time>2019-06-07T07:33:07Z</time>
      </trkpt>
      <trkpt lat="44.3517" lon="5.74028">
        <ele>623</ele>
        <time>2019-06-07T07:33:08Z</time>
      </trkpt>
      <trkpt lat="44.35173" lon="5.7402">
        <ele>623</ele>
        <time>2019-06-07T07:33:09Z</time>
      </trkpt>
      <trkpt lat="44.35176" lon="5.74013">
        <ele>623</ele>
        <time>2019-06-07T07:33:11Z</time>
      </trkpt>
      <trkpt lat="44.35178" lon="5.74006">
        <ele>623</ele>
        <time>2019-06-07T07:33:11Z</time>
      </trkpt>
      <trkpt lat="44.35181" lon="5.73998">
        <ele>623</ele>
        <time>2019-06-07T07:33:12Z</time>
      </trkpt>
      <trkpt lat="44.35184" lon="5.73991">
        <ele>623</ele>
        <time>2019-06-07T07:33:13Z</time>
      </trkpt>
      <trkpt lat="44.35187" lon="5.73983">
        <ele>623</ele>
        <time>2019-06-07T07:33:15Z</time>
      </trkpt>
      <trkpt lat="44.3519" lon="5.73976">
        <ele>623</ele>
        <time>2019-06-07T07:33:15Z</time>
      </trkpt>
      <trkpt lat="44.35193" lon="5.73969">
        <ele>623</ele>
        <time>2019-06-07T07:33:17Z</time>
      </trkpt>
      <trkpt lat="44.35196" lon="5.73961">
        <ele>624</ele>
        <time>2019-06-07T07:33:18Z</time>
      </trkpt>
      <trkpt lat="44.35199" lon="5.73954">
        <ele>624</ele>
        <time>2019-06-07T07:33:18Z</time>
      </trkpt>
      <trkpt lat="44.35202" lon="5.73947">
        <ele>624</ele>
        <time>2019-06-07T07:33:19Z</time>
      </trkpt>
      <trkpt lat="44.35205" lon="5.73939">
        <ele>624</ele>
        <time>2019-06-07T07:33:21Z</time>
      </trkpt>
      <trkpt lat="44.35209" lon="5.73932">
        <ele>624</ele>
        <time>2019-06-07T07:33:22Z</time>
      </trkpt>
      <trkpt lat="44.35211" lon="5.73924">
        <ele>624</ele>
        <time>2019-06-07T07:33:23Z</time>
      </trkpt>
      <trkpt lat="44.35214" lon="5.73917">
        <ele>624</ele>
        <time>2019-06-07T07:33:23Z</time>
      </trkpt>
      <trkpt lat="44.35217" lon="5.7391">
        <ele>624</ele>
        <time>2019-06-07T07:33:24Z</time>
      </trkpt>
      <trkpt lat="44.3522" lon="5.73903">
        <ele>624</ele>
        <time>2019-06-07T07:33:25Z</time>
      </trkpt>
      <trkpt lat="44.35223" lon="5.73895">
        <ele>624</ele>
        <time>2019-06-07T07:33:27Z</time>
      </trkpt>
      <trkpt lat="44.35226" lon="5.73888">
        <ele>624</ele>
        <time>2019-06-07T07:33:28Z</time>
      </trkpt>
      <trkpt lat="44.35229" lon="5.73881">
        <ele>625</ele>
        <time>2019-06-07T07:33:29Z</time>
      </trkpt>
      <trkpt lat="44.35231" lon="5.73874">
        <ele>625</ele>
        <time>2019-06-07T07:33:29Z</time>
      </trkpt>
      <trkpt lat="44.35234" lon="5.73867">
        <ele>625</ele>
        <time>2019-06-07T07:33:30Z</time>
      </trkpt>
      <trkpt lat="44.35237" lon="5.7386">
        <ele>625</ele>
        <time>2019-06-07T07:33:32Z</time>
      </trkpt>
      <trkpt lat="44.35241" lon="5.73853">
        <ele>625</ele>
        <time>2019-06-07T07:33:33Z</time>
      </trkpt>
      <trkpt lat="44.35244" lon="5.73847">
        <ele>625</ele>
        <time>2019-06-07T07:33:33Z</time>
      </trkpt>
      <trkpt lat="44.35247" lon="5.7384">
        <ele>625</ele>
        <time>2019-06-07T07:33:34Z</time>
      </trkpt>
      <trkpt lat="44.3525" lon="5.73833">
        <ele>626</ele>
        <time>2019-06-07T07:33:35Z</time>
      </trkpt>
      <trkpt lat="44.35253" lon="5.73826">
        <ele>626</ele>
        <time>2019-06-07T07:33:37Z</time>
      </trkpt>
      <trkpt lat="44.35255" lon="5.73819">
        <ele>626</ele>
        <time>2019-06-07T07:33:37Z</time>
      </trkpt>
      <trkpt lat="44.35258" lon="5.73812">
        <ele>626</ele>
        <time>2019-06-07T07:33:38Z</time>
      </trkpt>
      <trkpt lat="44.35261" lon="5.73805">
        <ele>626</ele>
        <time>2019-06-07T07:33:39Z</time>
      </trkpt>
      <trkpt lat="44.35264" lon="5.73798">
        <ele>626</ele>
        <time>2019-06-07T07:33:40Z</time>
      </trkpt>
      <trkpt lat="44.35267" lon="5.73791">
        <ele>626</ele>
        <time>2019-06-07T07:33:42Z</time>
      </trkpt>
      <trkpt lat="44.3527" lon="5.73784">
        <ele>626</ele>
        <time>2019-06-07T07:33:42Z</time>
      </trkpt>
      <trkpt lat="44.35272" lon="5.73777">
        <ele>626</ele>
        <time>2019-06-07T07:33:43Z</time>
      </trkpt>
      <trkpt lat="44.35275" lon="5.73771">
        <ele>626</ele>
        <time>2019-06-07T07:33:44Z</time>
      </trkpt>
      <trkpt lat="44.35278" lon="5.73764">
        <ele>626</ele>
        <time>2019-06-07T07:33:45Z</time>
      </trkpt>
      <trkpt lat="44.3528" lon="5.73757">
        <ele>626</ele>
        <time>2019-06-07T07:33:47Z</time>
      </trkpt>
      <trkpt lat="44.35283" lon="5.7375">
        <ele>627</ele>
        <time>2019-06-07T07:33:47Z</time>
      </trkpt>
      <trkpt lat="44.35286" lon="5.73743">
        <ele>627</ele>
        <time>2019-06-07T07:33:48Z</time>
      </trkpt>
      <trkpt lat="44.35288" lon="5.73736">
        <ele>627</ele>
        <time>2019-06-07T07:33:49Z</time>
      </trkpt>
      <trkpt lat="44.35291" lon="5.73729">
        <ele>627</ele>
        <time>2019-06-07T07:33:50Z</time>
      </trkpt>
      <trkpt lat="44.35294" lon="5.73722">
        <ele>627</ele>
        <time>2019-06-07T07:33:52Z</time>
      </trkpt>
      <trkpt lat="44.35297" lon="5.73715">
        <ele>627</ele>
        <time>2019-06-07T07:33:52Z</time>
      </trkpt>
      <trkpt lat="44.35299" lon="5.73708">
        <ele>627</ele>
        <time>2019-06-07T07:33:53Z</time>
      </trkpt>
      <trkpt lat="44.35302" lon="5.73701">
        <ele>627</ele>
        <time>2019-06-07T07:33:54Z</time>
      </trkpt>
      <trkpt lat="44.35305" lon="5.73693">
        <ele>627</ele>
        <time>2019-06-07T07:33:55Z</time>
      </trkpt>
      <trkpt lat="44.35308" lon="5.73686">
        <ele>627</ele>
        <time>2019-06-07T07:33:57Z</time>
      </trkpt>
      <trkpt lat="44.35311" lon="5.73678">
        <ele>627</ele>
        <time>2019-06-07T07:33:57Z</time>
      </trkpt>
      <trkpt lat="44.35314" lon="5.73671">
        <ele>627</ele>
        <time>2019-06-07T07:33:59Z</time>
      </trkpt>
      <trkpt lat="44.35317" lon="5.73663">
        <ele>627</ele>
        <time>2019-06-07T07:33:59Z</time>
      </trkpt>
      <trkpt lat="44.3532" lon="5.73655">
        <ele>627</ele>
        <time>2019-06-07T07:34:00Z</time>
      </trkpt>
      <trkpt lat="44.35323" lon="5.73647">
        <ele>627</ele>
        <time>2019-06-07T07:34:02Z</time>
      </trkpt>
      <trkpt lat="44.35326" lon="5.7364">
        <ele>627</ele>
        <time>2019-06-07T07:34:02Z</time>
      </trkpt>
      <trkpt lat="44.3533" lon="5.73632">
        <ele>627</ele>
        <time>2019-06-07T07:34:03Z</time>
      </trkpt>
      <trkpt lat="44.35333" lon="5.73625">
        <ele>628</ele>
        <time>2019-06-07T07:34:04Z</time>
      </trkpt>
      <trkpt lat="44.35336" lon="5.73617">
        <ele>628</ele>
        <time>2019-06-07T07:34:05Z</time>
      </trkpt>
      <trkpt lat="44.35339" lon="5.73609">
        <ele>628</ele>
        <time>2019-06-07T07:34:07Z</time>
      </trkpt>
      <trkpt lat="44.35342" lon="5.73602">
        <ele>628</ele>
        <time>2019-06-07T07:34:07Z</time>
      </trkpt>
      <trkpt lat="44.35345" lon="5.73595">
        <ele>628</ele>
        <time>2019-06-07T07:34:08Z</time>
      </trkpt>
      <trkpt lat="44.35348" lon="5.73587">
        <ele>628</ele>
        <time>2019-06-07T07:34:09Z</time>
      </trkpt>
      <trkpt lat="44.35351" lon="5.7358">
        <ele>628</ele>
        <time>2019-06-07T07:34:10Z</time>
      </trkpt>
      <trkpt lat="44.35354" lon="5.73572">
        <ele>628</ele>
        <time>2019-06-07T07:34:12Z</time>
      </trkpt>
      <trkpt lat="44.35357" lon="5.73565">
        <ele>628</ele>
        <time>2019-06-07T07:34:12Z</time>
      </trkpt>
      <trkpt lat="44.3536" lon="5.73558">
        <ele>628</ele>
        <time>2019-06-07T07:34:13Z</time>
      </trkpt>
      <trkpt lat="44.35363" lon="5.73551">
        <ele>628</ele>
        <time>2019-06-07T07:34:14Z</time>
      </trkpt>
      <trkpt lat="44.35366" lon="5.73543">
        <ele>628</ele>
        <time>2019-06-07T07:34:15Z</time>
      </trkpt>
      <trkpt lat="44.35368" lon="5.73536">
        <ele>628</ele>
        <time>2019-06-07T07:34:17Z</time>
      </trkpt>
      <trkpt lat="44.35371" lon="5.73529">
        <ele>628</ele>
        <time>2019-06-07T07:34:17Z</time>
      </trkpt>
      <trkpt lat="44.35374" lon="5.73521">
        <ele>628</ele>
        <time>2019-06-07T07:34:18Z</time>
      </trkpt>
      <trkpt lat="44.35378" lon="5.73514">
        <ele>628</ele>
        <time>2019-06-07T07:34:19Z</time>
      </trkpt>
      <trkpt lat="44.35381" lon="5.73506">
        <ele>628</ele>
        <time>2019-06-07T07:34:20Z</time>
      </trkpt>
      <trkpt lat="44.35384" lon="5.73498">
        <ele>628</ele>
        <time>2019-06-07T07:34:22Z</time>
      </trkpt>
      <trkpt lat="44.35387" lon="5.73491">
        <ele>628</ele>
        <time>2019-06-07T07:34:22Z</time>
      </trkpt>
      <trkpt lat="44.3539" lon="5.73484">
        <ele>628</ele>
        <time>2019-06-07T07:34:23Z</time>
      </trkpt>
      <trkpt lat="44.35393" lon="5.73476">
        <ele>629</ele>
        <time>2019-06-07T07:34:24Z</time>
      </trkpt>
      <trkpt lat="44.35397" lon="5.73468">
        <ele>629</ele>
        <time>2019-06-07T07:34:25Z</time>
      </trkpt>
      <trkpt lat="44.354" lon="5.73461">
        <ele>629</ele>
        <time>2019-06-07T07:34:27Z</time>
      </trkpt>
      <trkpt lat="44.35403" lon="5.73454">
        <ele>629</ele>
        <time>2019-06-07T07:34:27Z</time>
      </trkpt>
      <trkpt lat="44.35405" lon="5.73446">
        <ele>629</ele>
        <time>2019-06-07T07:34:28Z</time>
      </trkpt>
      <trkpt lat="44.35408" lon="5.73439">
        <ele>629</ele>
        <time>2019-06-07T07:34:29Z</time>
      </trkpt>
      <trkpt lat="44.35411" lon="5.73431">
        <ele>629</ele>
        <time>2019-06-07T07:34:30Z</time>
      </trkpt>
      <trkpt lat="44.35414" lon="5.73424">
        <ele>629</ele>
        <time>2019-06-07T07:34:32Z</time>
      </trkpt>
      <trkpt lat="44.35417" lon="5.73417">
        <ele>630</ele>
        <time>2019-06-07T07:34:32Z</time>
      </trkpt>
      <trkpt lat="44.3542" lon="5.7341">
        <ele>630</ele>
        <time>2019-06-07T07:34:33Z</time>
      </trkpt>
      <trkpt lat="44.35423" lon="5.73402">
        <ele>630</ele>
        <time>2019-06-07T07:34:34Z</time>
      </trkpt>
      <trkpt lat="44.35425" lon="5.73395">
        <ele>630</ele>
        <time>2019-06-07T07:34:35Z</time>
      </trkpt>
      <trkpt lat="44.35428" lon="5.73388">
        <ele>630</ele>
        <time>2019-06-07T07:34:37Z</time>
      </trkpt>
      <trkpt lat="44.35431" lon="5.73381">
        <ele>631</ele>
        <time>2019-06-07T07:34:37Z</time>
      </trkpt>
      <trkpt lat="44.35434" lon="5.73374">
        <ele>631</ele>
        <time>2019-06-07T07:34:38Z</time>
      </trkpt>
      <trkpt lat="44.35437" lon="5.73367">
        <ele>631</ele>
        <time>2019-06-07T07:34:39Z</time>
      </trkpt>
      <trkpt lat="44.35439" lon="5.7336">
        <ele>631</ele>
        <time>2019-06-07T07:34:40Z</time>
      </trkpt>
      <trkpt lat="44.35442" lon="5.73353">
        <ele>631</ele>
        <time>2019-06-07T07:34:42Z</time>
      </trkpt>
      <trkpt lat="44.35445" lon="5.73346">
        <ele>632</ele>
        <time>2019-06-07T07:34:42Z</time>
      </trkpt>
      <trkpt lat="44.35447" lon="5.7334">
        <ele>632</ele>
        <time>2019-06-07T07:34:43Z</time>
      </trkpt>
      <trkpt lat="44.3545" lon="5.73333">
        <ele>632</ele>
        <time>2019-06-07T07:34:44Z</time>
      </trkpt>
      <trkpt lat="44.35452" lon="5.73326">
        <ele>632</ele>
        <time>2019-06-07T07:34:45Z</time>
      </trkpt>
      <trkpt lat="44.35455" lon="5.7332">
        <ele>632</ele>
        <time>2019-06-07T07:34:47Z</time>
      </trkpt>
      <trkpt lat="44.35458" lon="5.73313">
        <ele>633</ele>
        <time>2019-06-07T07:34:47Z</time>
      </trkpt>
      <trkpt lat="44.3546" lon="5.73307">
        <ele>633</ele>
        <time>2019-06-07T07:34:48Z</time>
      </trkpt>
      <trkpt lat="44.35463" lon="5.733">
        <ele>633</ele>
        <time>2019-06-07T07:34:49Z</time>
      </trkpt>
      <trkpt lat="44.35465" lon="5.73293">
        <ele>633</ele>
        <time>2019-06-07T07:34:50Z</time>
      </trkpt>
      <trkpt lat="44.35468" lon="5.73287">
        <ele>633</ele>
        <time>2019-06-07T07:34:52Z</time>
      </trkpt>
      <trkpt lat="44.35471" lon="5.7328">
        <ele>634</ele>
        <time>2019-06-07T07:34:52Z</time>
      </trkpt>
      <trkpt lat="44.35473" lon="5.73274">
        <ele>634</ele>
        <time>2019-06-07T07:34:53Z</time>
      </trkpt>
      <trkpt lat="44.35476" lon="5.73267">
        <ele>634</ele>
        <time>2019-06-07T07:34:54Z</time>
      </trkpt>
      <trkpt lat="44.35479" lon="5.73259">
        <ele>634</ele>
        <time>2019-06-07T07:34:55Z</time>
      </trkpt>
      <trkpt lat="44.35481" lon="5.73253">
        <ele>635</ele>
        <time>2019-06-07T07:34:57Z</time>
      </trkpt>
      <trkpt lat="44.35484" lon="5.73246">
        <ele>635</ele>
        <time>2019-06-07T07:34:57Z</time>
      </trkpt>
      <trkpt lat="44.35487" lon="5.73239">
        <ele>635</ele>
        <time>2019-06-07T07:34:59Z</time>
      </trkpt>
      <trkpt lat="44.3549" lon="5.73232">
        <ele>635</ele>
        <time>2019-06-07T07:34:59Z</time>
      </trkpt>
      <trkpt lat="44.35492" lon="5.73225">
        <ele>635</ele>
        <time>2019-06-07T07:35:00Z</time>
      </trkpt>
      <trkpt lat="44.35495" lon="5.73218">
        <ele>635</ele>
        <time>2019-06-07T07:35:02Z</time>
      </trkpt>
      <trkpt lat="44.35498" lon="5.73212">
        <ele>635</ele>
        <time>2019-06-07T07:35:02Z</time>
      </trkpt>
      <trkpt lat="44.355" lon="5.73205">
        <ele>635</ele>
        <time>2019-06-07T07:35:03Z</time>
      </trkpt>
      <trkpt lat="44.35503" lon="5.73198">
        <ele>636</ele>
        <time>2019-06-07T07:35:04Z</time>
      </trkpt>
      <trkpt lat="44.35506" lon="5.73191">
        <ele>636</ele>
        <time>2019-06-07T07:35:05Z</time>
      </trkpt>
      <trkpt lat="44.35509" lon="5.73184">
        <ele>636</ele>
        <time>2019-06-07T07:35:07Z</time>
      </trkpt>
      <trkpt lat="44.35512" lon="5.73178">
        <ele>636</ele>
        <time>2019-06-07T07:35:07Z</time>
      </trkpt>
      <trkpt lat="44.35514" lon="5.73171">
        <ele>636</ele>
        <time>2019-06-07T07:35:08Z</time>
      </trkpt>
      <trkpt lat="44.35517" lon="5.73164">
        <ele>636</ele>
        <time>2019-06-07T07:35:09Z</time>
      </trkpt>
      <trkpt lat="44.35519" lon="5.73158">
        <ele>637</ele>
        <time>2019-06-07T07:35:10Z</time>
      </trkpt>
      <trkpt lat="44.35522" lon="5.73151">
        <ele>637</ele>
        <time>2019-06-07T07:35:12Z</time>
      </trkpt>
      <trkpt lat="44.35525" lon="5.73144">
        <ele>637</ele>
        <time>2019-06-07T07:35:12Z</time>
      </trkpt>
      <trkpt lat="44.35527" lon="5.73138">
        <ele>637</ele>
        <time>2019-06-07T07:35:13Z</time>
      </trkpt>
      <trkpt lat="44.3553" lon="5.73131">
        <ele>637</ele>
        <time>2019-06-07T07:35:14Z</time>
      </trkpt>
      <trkpt lat="44.35533" lon="5.73125">
        <ele>637</ele>
        <time>2019-06-07T07:35:15Z</time>
      </trkpt>
      <trkpt lat="44.35535" lon="5.73118">
        <ele>638</ele>
        <time>2019-06-07T07:35:17Z</time>
      </trkpt>
      <trkpt lat="44.35538" lon="5.73111">
        <ele>638</ele>
        <time>2019-06-07T07:35:17Z</time>
      </trkpt>
      <trkpt lat="44.3554" lon="5.73104">
        <ele>638</ele>
        <time>2019-06-07T07:35:18Z</time>
      </trkpt>
      <trkpt lat="44.35543" lon="5.73098">
        <ele>638</ele>
        <time>2019-06-07T07:35:19Z</time>
      </trkpt>
      <trkpt lat="44.35546" lon="5.73091">
        <ele>638</ele>
        <time>2019-06-07T07:35:20Z</time>
      </trkpt>
      <trkpt lat="44.35549" lon="5.73084">
        <ele>638</ele>
        <time>2019-06-07T07:35:22Z</time>
      </trkpt>
      <trkpt lat="44.35551" lon="5.73077">
        <ele>638</ele>
        <time>2019-06-07T07:35:22Z</time>
      </trkpt>
      <trkpt lat="44.35554" lon="5.7307">
        <ele>639</ele>
        <time>2019-06-07T07:35:23Z</time>
      </trkpt>
      <trkpt lat="44.35557" lon="5.73063">
        <ele>639</ele>
        <time>2019-06-07T07:35:24Z</time>
      </trkpt>
      <trkpt lat="44.3556" lon="5.73057">
        <ele>639</ele>
        <time>2019-06-07T07:35:25Z</time>
      </trkpt>
      <trkpt lat="44.35563" lon="5.73049">
        <ele>639</ele>
        <time>2019-06-07T07:35:27Z</time>
      </trkpt>
      <trkpt lat="44.35565" lon="5.73042">
        <ele>639</ele>
        <time>2019-06-07T07:35:27Z</time>
      </trkpt>
      <trkpt lat="44.35568" lon="5.73036">
        <ele>639</ele>
        <time>2019-06-07T07:35:28Z</time>
      </trkpt>
      <trkpt lat="44.35571" lon="5.73029">
        <ele>639</ele>
        <time>2019-06-07T07:35:29Z</time>
      </trkpt>
      <trkpt lat="44.35574" lon="5.73022">
        <ele>639</ele>
        <time>2019-06-07T07:35:30Z</time>
      </trkpt>
      <trkpt lat="44.35576" lon="5.73015">
        <ele>639</ele>
        <time>2019-06-07T07:35:32Z</time>
      </trkpt>
      <trkpt lat="44.35579" lon="5.73008">
        <ele>639</ele>
        <time>2019-06-07T07:35:32Z</time>
      </trkpt>
      <trkpt lat="44.35582" lon="5.73001">
        <ele>639</ele>
        <time>2019-06-07T07:35:33Z</time>
      </trkpt>
      <trkpt lat="44.35585" lon="5.72994">
        <ele>639</ele>
        <time>2019-06-07T07:35:34Z</time>
      </trkpt>
      <trkpt lat="44.35588" lon="5.72987">
        <ele>640</ele>
        <time>2019-06-07T07:35:35Z</time>
      </trkpt>
      <trkpt lat="44.3559" lon="5.7298">
        <ele>640</ele>
        <time>2019-06-07T07:35:37Z</time>
      </trkpt>
      <trkpt lat="44.35593" lon="5.72973">
        <ele>640</ele>
        <time>2019-06-07T07:35:37Z</time>
      </trkpt>
      <trkpt lat="44.35596" lon="5.72966">
        <ele>640</ele>
        <time>2019-06-07T07:35:38Z</time>
      </trkpt>
      <trkpt lat="44.35599" lon="5.72959">
        <ele>640</ele>
        <time>2019-06-07T07:35:39Z</time>
      </trkpt>
      <trkpt lat="44.35602" lon="5.72952">
        <ele>640</ele>
        <time>2019-06-07T07:35:40Z</time>
      </trkpt>
      <trkpt lat="44.35604" lon="5.72945">
        <ele>640</ele>
        <time>2019-06-07T07:35:42Z</time>
      </trkpt>
      <trkpt lat="44.35607" lon="5.72938">
        <ele>640</ele>
        <time>2019-06-07T07:35:42Z</time>
      </trkpt>
      <trkpt lat="44.3561" lon="5.72931">
        <ele>640</ele>
        <time>2019-06-07T07:35:43Z</time>
      </trkpt>
      <trkpt lat="44.35613" lon="5.72924">
        <ele>640</ele>
        <time>2019-06-07T07:35:44Z</time>
      </trkpt>
      <trkpt lat="44.35615" lon="5.72917">
        <ele>641</ele>
        <time>2019-06-07T07:35:45Z</time>
      </trkpt>
      <trkpt lat="44.35618" lon="5.7291">
        <ele>641</ele>
        <time>2019-06-07T07:35:47Z</time>
      </trkpt>
      <trkpt lat="44.3562" lon="5.72902">
        <ele>641</ele>
        <time>2019-06-07T07:35:47Z</time>
      </trkpt>
      <trkpt lat="44.35621" lon="5.72894">
        <ele>641</ele>
        <time>2019-06-07T07:35:48Z</time>
      </trkpt>
      <trkpt lat="44.35622" lon="5.72886">
        <ele>641</ele>
        <time>2019-06-07T07:35:49Z</time>
      </trkpt>
      <trkpt lat="44.35623" lon="5.72877">
        <ele>641</ele>
        <time>2019-06-07T07:35:50Z</time>
      </trkpt>
      <trkpt lat="44.35623" lon="5.72868">
        <ele>641</ele>
        <time>2019-06-07T07:35:52Z</time>
      </trkpt>
      <trkpt lat="44.35623" lon="5.72858">
        <ele>641</ele>
        <time>2019-06-07T07:35:52Z</time>
      </trkpt>
      <trkpt lat="44.35623" lon="5.72849">
        <ele>641</ele>
        <time>2019-06-07T07:35:53Z</time>
      </trkpt>
      <trkpt lat="44.35623" lon="5.72839">
        <ele>641</ele>
        <time>2019-06-07T07:35:54Z</time>
      </trkpt>
      <trkpt lat="44.35622" lon="5.7283">
        <ele>641</ele>
        <time>2019-06-07T07:35:55Z</time>
      </trkpt>
      <trkpt lat="44.35622" lon="5.7282">
        <ele>641</ele>
        <time>2019-06-07T07:35:56Z</time>
      </trkpt>
      <trkpt lat="44.35621" lon="5.7281">
        <ele>641</ele>
        <time>2019-06-07T07:35:57Z</time>
      </trkpt>
      <trkpt lat="44.35621" lon="5.72801">
        <ele>641</ele>
        <time>2019-06-07T07:35:59Z</time>
      </trkpt>
      <trkpt lat="44.3562" lon="5.72792">
        <ele>641</ele>
        <time>2019-06-07T07:35:59Z</time>
      </trkpt>
      <trkpt lat="44.3562" lon="5.72783">
        <ele>641</ele>
        <time>2019-06-07T07:36:00Z</time>
      </trkpt>
      <trkpt lat="44.3562" lon="5.72774">
        <ele>641</ele>
        <time>2019-06-07T07:36:01Z</time>
      </trkpt>
      <trkpt lat="44.3562" lon="5.72765">
        <ele>641</ele>
        <time>2019-06-07T07:36:02Z</time>
      </trkpt>
      <trkpt lat="44.3562" lon="5.72756">
        <ele>641</ele>
        <time>2019-06-07T07:36:03Z</time>
      </trkpt>
      <trkpt lat="44.35619" lon="5.72747">
        <ele>641</ele>
        <time>2019-06-07T07:36:04Z</time>
      </trkpt>
      <trkpt lat="44.35619" lon="5.72738">
        <ele>641</ele>
        <time>2019-06-07T07:36:05Z</time>
      </trkpt>
      <trkpt lat="44.35618" lon="5.72729">
        <ele>641</ele>
        <time>2019-06-07T07:36:07Z</time>
      </trkpt>
      <trkpt lat="44.35617" lon="5.72721">
        <ele>641</ele>
        <time>2019-06-07T07:36:07Z</time>
      </trkpt>
      <trkpt lat="44.35617" lon="5.72713">
        <ele>642</ele>
        <time>2019-06-07T07:36:08Z</time>
      </trkpt>
      <trkpt lat="44.35617" lon="5.72705">
        <ele>642</ele>
        <time>2019-06-07T07:36:09Z</time>
      </trkpt>
      <trkpt lat="44.35616" lon="5.72696">
        <ele>642</ele>
        <time>2019-06-07T07:36:10Z</time>
      </trkpt>
      <trkpt lat="44.35616" lon="5.72688">
        <ele>643</ele>
        <time>2019-06-07T07:36:11Z</time>
      </trkpt>
      <trkpt lat="44.35616" lon="5.7268">
        <ele>643</ele>
        <time>2019-06-07T07:36:12Z</time>
      </trkpt>
      <trkpt lat="44.35615" lon="5.72672">
        <ele>644</ele>
        <time>2019-06-07T07:36:13Z</time>
      </trkpt>
      <trkpt lat="44.35615" lon="5.72663">
        <ele>644</ele>
        <time>2019-06-07T07:36:14Z</time>
      </trkpt>
      <trkpt lat="44.35615" lon="5.72655">
        <ele>644</ele>
        <time>2019-06-07T07:36:15Z</time>
      </trkpt>
      <trkpt lat="44.35614" lon="5.72647">
        <ele>645</ele>
        <time>2019-06-07T07:36:16Z</time>
      </trkpt>
      <trkpt lat="44.35614" lon="5.72639">
        <ele>645</ele>
        <time>2019-06-07T07:36:17Z</time>
      </trkpt>
      <trkpt lat="44.35614" lon="5.72631">
        <ele>645</ele>
        <time>2019-06-07T07:36:18Z</time>
      </trkpt>
      <trkpt lat="44.35614" lon="5.72623">
        <ele>645</ele>
        <time>2019-06-07T07:36:19Z</time>
      </trkpt>
      <trkpt lat="44.35614" lon="5.72615">
        <ele>646</ele>
        <time>2019-06-07T07:36:20Z</time>
      </trkpt>
      <trkpt lat="44.35614" lon="5.72607">
        <ele>646</ele>
        <time>2019-06-07T07:36:21Z</time>
      </trkpt>
      <trkpt lat="44.35613" lon="5.72599">
        <ele>646</ele>
        <time>2019-06-07T07:36:22Z</time>
      </trkpt>
      <trkpt lat="44.35613" lon="5.7259">
        <ele>646</ele>
        <time>2019-06-07T07:36:23Z</time>
      </trkpt>
      <trkpt lat="44.35612" lon="5.72582">
        <ele>646</ele>
        <time>2019-06-07T07:36:24Z</time>
      </trkpt>
      <trkpt lat="44.35612" lon="5.72575">
        <ele>646</ele>
        <time>2019-06-07T07:36:25Z</time>
      </trkpt>
      <trkpt lat="44.35612" lon="5.72566">
        <ele>647</ele>
        <time>2019-06-07T07:36:26Z</time>
      </trkpt>
      <trkpt lat="44.35611" lon="5.72558">
        <ele>647</ele>
        <time>2019-06-07T07:36:27Z</time>
      </trkpt>
      <trkpt lat="44.35611" lon="5.7255">
        <ele>647</ele>
        <time>2019-06-07T07:36:28Z</time>
      </trkpt>
      <trkpt lat="44.35611" lon="5.72542">
        <ele>647</ele>
        <time>2019-06-07T07:36:29Z</time>
      </trkpt>
      <trkpt lat="44.3561" lon="5.72534">
        <ele>647</ele>
        <time>2019-06-07T07:36:30Z</time>
      </trkpt>
      <trkpt lat="44.3561" lon="5.72526">
        <ele>647</ele>
        <time>2019-06-07T07:36:31Z</time>
      </trkpt>
      <trkpt lat="44.35609" lon="5.72518">
        <ele>647</ele>
        <time>2019-06-07T07:36:32Z</time>
      </trkpt>
      <trkpt lat="44.35609" lon="5.7251">
        <ele>647</ele>
        <time>2019-06-07T07:36:33Z</time>
      </trkpt>
      <trkpt lat="44.35609" lon="5.72502">
        <ele>647</ele>
        <time>2019-06-07T07:36:34Z</time>
      </trkpt>
      <trkpt lat="44.35608" lon="5.72494">
        <ele>647</ele>
        <time>2019-06-07T07:36:35Z</time>
      </trkpt>
      <trkpt lat="44.35608" lon="5.72486">
        <ele>647</ele>
        <time>2019-06-07T07:36:36Z</time>
      </trkpt>
      <trkpt lat="44.35608" lon="5.72477">
        <ele>648</ele>
        <time>2019-06-07T07:36:37Z</time>
      </trkpt>
      <trkpt lat="44.35608" lon="5.7247">
        <ele>648</ele>
        <time>2019-06-07T07:36:38Z</time>
      </trkpt>
      <trkpt lat="44.35608" lon="5.72462">
        <ele>648</ele>
        <time>2019-06-07T07:36:39Z</time>
      </trkpt>
      <trkpt lat="44.35607" lon="5.72454">
        <ele>648</ele>
        <time>2019-06-07T07:36:40Z</time>
      </trkpt>
      <trkpt lat="44.35607" lon="5.72447">
        <ele>649</ele>
        <time>2019-06-07T07:36:41Z</time>
      </trkpt>
      <trkpt lat="44.35607" lon="5.72439">
        <ele>649</ele>
        <time>2019-06-07T07:36:42Z</time>
      </trkpt>
      <trkpt lat="44.35607" lon="5.72431">
        <ele>649</ele>
        <time>2019-06-07T07:36:43Z</time>
      </trkpt>
      <trkpt lat="44.35606" lon="5.72423">
        <ele>649</ele>
        <time>2019-06-07T07:36:44Z</time>
      </trkpt>
      <trkpt lat="44.35606" lon="5.72415">
        <ele>649</ele>
        <time>2019-06-07T07:36:45Z</time>
      </trkpt>
      <trkpt lat="44.35606" lon="5.72408">
        <ele>649</ele>
        <time>2019-06-07T07:36:46Z</time>
      </trkpt>
      <trkpt lat="44.35605" lon="5.724">
        <ele>649</ele>
        <time>2019-06-07T07:36:47Z</time>
      </trkpt>
      <trkpt lat="44.35605" lon="5.72393">
        <ele>649</ele>
        <time>2019-06-07T07:36:48Z</time>
      </trkpt>
      <trkpt lat="44.35604" lon="5.72385">
        <ele>649</ele>
        <time>2019-06-07T07:36:49Z</time>
      </trkpt>
      <trkpt lat="44.35604" lon="5.72377">
        <ele>649</ele>
        <time>2019-06-07T07:36:50Z</time>
      </trkpt>
      <trkpt lat="44.35604" lon="5.72369">
        <ele>649</ele>
        <time>2019-06-07T07:36:51Z</time>
      </trkpt>
      <trkpt lat="44.35603" lon="5.72362">
        <ele>649</ele>
        <time>2019-06-07T07:36:52Z</time>
      </trkpt>
      <trkpt lat="44.35603" lon="5.72354">
        <ele>649</ele>
        <time>2019-06-07T07:36:53Z</time>
      </trkpt>
      <trkpt lat="44.35603" lon="5.72346">
        <ele>649</ele>
        <time>2019-06-07T07:36:54Z</time>
      </trkpt>
      <trkpt lat="44.35602" lon="5.72337">
        <ele>649</ele>
        <time>2019-06-07T07:36:55Z</time>
      </trkpt>
      <trkpt lat="44.35602" lon="5.7233">
        <ele>649</ele>
        <time>2019-06-07T07:36:56Z</time>
      </trkpt>
      <trkpt lat="44.35601" lon="5.72321">
        <ele>649</ele>
        <time>2019-06-07T07:36:57Z</time>
      </trkpt>
      <trkpt lat="44.35601" lon="5.72313">
        <ele>649</ele>
        <time>2019-06-07T07:36:59Z</time>
      </trkpt>
      <trkpt lat="44.35601" lon="5.72305">
        <ele>649</ele>
        <time>2019-06-07T07:36:59Z</time>
      </trkpt>
      <trkpt lat="44.35601" lon="5.72297">
        <ele>649</ele>
        <time>2019-06-07T07:37:00Z</time>
      </trkpt>
      <trkpt lat="44.35601" lon="5.72289">
        <ele>649</ele>
        <time>2019-06-07T07:37:01Z</time>
      </trkpt>
      <trkpt lat="44.35601" lon="5.72281">
        <ele>649</ele>
        <time>2019-06-07T07:37:02Z</time>
      </trkpt>
      <trkpt lat="44.35601" lon="5.72272">
        <ele>649</ele>
        <time>2019-06-07T07:37:03Z</time>
      </trkpt>
      <trkpt lat="44.35602" lon="5.72263">
        <ele>649</ele>
        <time>2019-06-07T07:37:04Z</time>
      </trkpt>
      <trkpt lat="44.35602" lon="5.72255">
        <ele>649</ele>
        <time>2019-06-07T07:37:05Z</time>
      </trkpt>
      <trkpt lat="44.35601" lon="5.72247">
        <ele>649</ele>
        <time>2019-06-07T07:37:06Z</time>
      </trkpt>
      <trkpt lat="44.35601" lon="5.72238">
        <ele>649</ele>
        <time>2019-06-07T07:37:07Z</time>
      </trkpt>
      <trkpt lat="44.356" lon="5.72229">
        <ele>649</ele>
        <time>2019-06-07T07:37:08Z</time>
      </trkpt>
      <trkpt lat="44.356" lon="5.7222">
        <ele>649</ele>
        <time>2019-06-07T07:37:09Z</time>
      </trkpt>
      <trkpt lat="44.356" lon="5.72211">
        <ele>649</ele>
        <time>2019-06-07T07:37:10Z</time>
      </trkpt>
      <trkpt lat="44.35599" lon="5.72202">
        <ele>649</ele>
        <time>2019-06-07T07:37:11Z</time>
      </trkpt>
      <trkpt lat="44.35598" lon="5.72193">
        <ele>649</ele>
        <time>2019-06-07T07:37:12Z</time>
      </trkpt>
      <trkpt lat="44.35598" lon="5.72184">
        <ele>649</ele>
        <time>2019-06-07T07:37:13Z</time>
      </trkpt>
      <trkpt lat="44.35597" lon="5.72175">
        <ele>649</ele>
        <time>2019-06-07T07:37:14Z</time>
      </trkpt>
      <trkpt lat="44.35597" lon="5.72166">
        <ele>649</ele>
        <time>2019-06-07T07:37:15Z</time>
      </trkpt>
      <trkpt lat="44.35596" lon="5.72157">
        <ele>649</ele>
        <time>2019-06-07T07:37:16Z</time>
      </trkpt>
      <trkpt lat="44.35596" lon="5.72148">
        <ele>649</ele>
        <time>2019-06-07T07:37:17Z</time>
      </trkpt>
      <trkpt lat="44.35596" lon="5.7214">
        <ele>649</ele>
        <time>2019-06-07T07:37:18Z</time>
      </trkpt>
      <trkpt lat="44.35595" lon="5.72131">
        <ele>649</ele>
        <time>2019-06-07T07:37:19Z</time>
      </trkpt>
      <trkpt lat="44.35595" lon="5.72122">
        <ele>649</ele>
        <time>2019-06-07T07:37:20Z</time>
      </trkpt>
      <trkpt lat="44.35595" lon="5.72113">
        <ele>649</ele>
        <time>2019-06-07T07:37:21Z</time>
      </trkpt>
      <trkpt lat="44.35595" lon="5.72105">
        <ele>649</ele>
        <time>2019-06-07T07:37:22Z</time>
      </trkpt>
      <trkpt lat="44.35595" lon="5.72096">
        <ele>649</ele>
        <time>2019-06-07T07:37:23Z</time>
      </trkpt>
      <trkpt lat="44.35595" lon="5.72087">
        <ele>649</ele>
        <time>2019-06-07T07:37:24Z</time>
      </trkpt>
      <trkpt lat="44.35595" lon="5.72079">
        <ele>649</ele>
        <time>2019-06-07T07:37:25Z</time>
      </trkpt>
      <trkpt lat="44.35594" lon="5.72071">
        <ele>649</ele>
        <time>2019-06-07T07:37:26Z</time>
      </trkpt>
      <trkpt lat="44.35594" lon="5.72062">
        <ele>649</ele>
        <time>2019-06-07T07:37:27Z</time>
      </trkpt>
      <trkpt lat="44.35593" lon="5.72054">
        <ele>649</ele>
        <time>2019-06-07T07:37:28Z</time>
      </trkpt>
      <trkpt lat="44.35593" lon="5.72045">
        <ele>649</ele>
        <time>2019-06-07T07:37:29Z</time>
      </trkpt>
      <trkpt lat="44.35593" lon="5.72037">
        <ele>649</ele>
        <time>2019-06-07T07:37:30Z</time>
      </trkpt>
      <trkpt lat="44.35593" lon="5.72029">
        <ele>649</ele>
        <time>2019-06-07T07:37:31Z</time>
      </trkpt>
      <trkpt lat="44.35592" lon="5.72021">
        <ele>649</ele>
        <time>2019-06-07T07:37:32Z</time>
      </trkpt>
      <trkpt lat="44.35592" lon="5.72013">
        <ele>649</ele>
        <time>2019-06-07T07:37:33Z</time>
      </trkpt>
      <trkpt lat="44.35592" lon="5.72005">
        <ele>649</ele>
        <time>2019-06-07T07:37:34Z</time>
      </trkpt>
      <trkpt lat="44.35592" lon="5.71997">
        <ele>649</ele>
        <time>2019-06-07T07:37:35Z</time>
      </trkpt>
      <trkpt lat="44.35592" lon="5.71989">
        <ele>649</ele>
        <time>2019-06-07T07:37:36Z</time>
      </trkpt>
      <trkpt lat="44.35592" lon="5.71981">
        <ele>649</ele>
        <time>2019-06-07T07:37:37Z</time>
      </trkpt>
      <trkpt lat="44.35591" lon="5.71973">
        <ele>649</ele>
        <time>2019-06-07T07:37:38Z</time>
      </trkpt>
      <trkpt lat="44.35591" lon="5.71965">
        <ele>650</ele>
        <time>2019-06-07T07:37:39Z</time>
      </trkpt>
      <trkpt lat="44.35591" lon="5.71957">
        <ele>650</ele>
        <time>2019-06-07T07:37:41Z</time>
      </trkpt>
      <trkpt lat="44.3559" lon="5.71948">
        <ele>650</ele>
        <time>2019-06-07T07:37:41Z</time>
      </trkpt>
      <trkpt lat="44.3559" lon="5.7194">
        <ele>650</ele>
        <time>2019-06-07T07:37:42Z</time>
      </trkpt>
      <trkpt lat="44.35591" lon="5.71931">
        <ele>650</ele>
        <time>2019-06-07T07:37:43Z</time>
      </trkpt>
      <trkpt lat="44.3559" lon="5.71922">
        <ele>650</ele>
        <time>2019-06-07T07:37:44Z</time>
      </trkpt>
      <trkpt lat="44.3559" lon="5.71914">
        <ele>650</ele>
        <time>2019-06-07T07:37:45Z</time>
      </trkpt>
      <trkpt lat="44.3559" lon="5.71905">
        <ele>650</ele>
        <time>2019-06-07T07:37:46Z</time>
      </trkpt>
      <trkpt lat="44.35589" lon="5.71897">
        <ele>650</ele>
        <time>2019-06-07T07:37:47Z</time>
      </trkpt>
      <trkpt lat="44.35588" lon="5.71888">
        <ele>650</ele>
        <time>2019-06-07T07:37:48Z</time>
      </trkpt>
      <trkpt lat="44.35588" lon="5.7188">
        <ele>650</ele>
        <time>2019-06-07T07:37:49Z</time>
      </trkpt>
      <trkpt lat="44.35588" lon="5.71872">
        <ele>650</ele>
        <time>2019-06-07T07:37:50Z</time>
      </trkpt>
      <trkpt lat="44.35588" lon="5.71863">
        <ele>650</ele>
        <time>2019-06-07T07:37:51Z</time>
      </trkpt>
      <trkpt lat="44.35587" lon="5.71855">
        <ele>650</ele>
        <time>2019-06-07T07:37:52Z</time>
      </trkpt>
      <trkpt lat="44.35587" lon="5.71846">
        <ele>650</ele>
        <time>2019-06-07T07:37:53Z</time>
      </trkpt>
      <trkpt lat="44.35587" lon="5.71838">
        <ele>650</ele>
        <time>2019-06-07T07:37:54Z</time>
      </trkpt>
      <trkpt lat="44.35587" lon="5.7183">
        <ele>650</ele>
        <time>2019-06-07T07:37:55Z</time>
      </trkpt>
      <trkpt lat="44.35587" lon="5.71821">
        <ele>650</ele>
        <time>2019-06-07T07:37:56Z</time>
      </trkpt>
      <trkpt lat="44.35586" lon="5.71812">
        <ele>650</ele>
        <time>2019-06-07T07:37:57Z</time>
      </trkpt>
      <trkpt lat="44.35585" lon="5.71803">
        <ele>650</ele>
        <time>2019-06-07T07:37:59Z</time>
      </trkpt>
      <trkpt lat="44.35585" lon="5.71795">
        <ele>651</ele>
        <time>2019-06-07T07:37:59Z</time>
      </trkpt>
      <trkpt lat="44.35584" lon="5.71786">
        <ele>651</ele>
        <time>2019-06-07T07:38:00Z</time>
      </trkpt>
      <trkpt lat="44.35584" lon="5.71778">
        <ele>652</ele>
        <time>2019-06-07T07:38:01Z</time>
      </trkpt>
      <trkpt lat="44.35584" lon="5.7177">
        <ele>652</ele>
        <time>2019-06-07T07:38:02Z</time>
      </trkpt>
      <trkpt lat="44.35584" lon="5.71762">
        <ele>652</ele>
        <time>2019-06-07T07:38:03Z</time>
      </trkpt>
      <trkpt lat="44.35583" lon="5.71754">
        <ele>653</ele>
        <time>2019-06-07T07:38:04Z</time>
      </trkpt>
      <trkpt lat="44.35583" lon="5.71746">
        <ele>653</ele>
        <time>2019-06-07T07:38:05Z</time>
      </trkpt>
      <trkpt lat="44.35583" lon="5.71738">
        <ele>653</ele>
        <time>2019-06-07T07:38:06Z</time>
      </trkpt>
      <trkpt lat="44.35583" lon="5.7173">
        <ele>653</ele>
        <time>2019-06-07T07:38:07Z</time>
      </trkpt>
      <trkpt lat="44.35582" lon="5.71722">
        <ele>653</ele>
        <time>2019-06-07T07:38:08Z</time>
      </trkpt>
      <trkpt lat="44.35582" lon="5.71715">
        <ele>653</ele>
        <time>2019-06-07T07:38:09Z</time>
      </trkpt>
      <trkpt lat="44.35582" lon="5.71707">
        <ele>653</ele>
        <time>2019-06-07T07:38:10Z</time>
      </trkpt>
      <trkpt lat="44.35581" lon="5.71699">
        <ele>653</ele>
        <time>2019-06-07T07:38:11Z</time>
      </trkpt>
      <trkpt lat="44.35581" lon="5.71691">
        <ele>653</ele>
        <time>2019-06-07T07:38:12Z</time>
      </trkpt>
      <trkpt lat="44.35581" lon="5.71683">
        <ele>654</ele>
        <time>2019-06-07T07:38:13Z</time>
      </trkpt>
      <trkpt lat="44.3558" lon="5.71675">
        <ele>654</ele>
        <time>2019-06-07T07:38:14Z</time>
      </trkpt>
      <trkpt lat="44.3558" lon="5.71668">
        <ele>654</ele>
        <time>2019-06-07T07:38:15Z</time>
      </trkpt>
      <trkpt lat="44.3558" lon="5.7166">
        <ele>654</ele>
        <time>2019-06-07T07:38:16Z</time>
      </trkpt>
      <trkpt lat="44.3558" lon="5.71653">
        <ele>655</ele>
        <time>2019-06-07T07:38:17Z</time>
      </trkpt>
      <trkpt lat="44.35579" lon="5.71645">
        <ele>655</ele>
        <time>2019-06-07T07:38:18Z</time>
      </trkpt>
      <trkpt lat="44.35579" lon="5.71638">
        <ele>655</ele>
        <time>2019-06-07T07:38:19Z</time>
      </trkpt>
      <trkpt lat="44.35579" lon="5.7163">
        <ele>655</ele>
        <time>2019-06-07T07:38:20Z</time>
      </trkpt>
      <trkpt lat="44.35579" lon="5.71622">
        <ele>655</ele>
        <time>2019-06-07T07:38:21Z</time>
      </trkpt>
      <trkpt lat="44.35579" lon="5.71614">
        <ele>655</ele>
        <time>2019-06-07T07:38:22Z</time>
      </trkpt>
      <trkpt lat="44.35578" lon="5.71606">
        <ele>655</ele>
        <time>2019-06-07T07:38:23Z</time>
      </trkpt>
      <trkpt lat="44.35578" lon="5.71599">
        <ele>655</ele>
        <time>2019-06-07T07:38:24Z</time>
      </trkpt>
      <trkpt lat="44.35578" lon="5.71591">
        <ele>655</ele>
        <time>2019-06-07T07:38:25Z</time>
      </trkpt>
      <trkpt lat="44.35578" lon="5.71583">
        <ele>655</ele>
        <time>2019-06-07T07:38:26Z</time>
      </trkpt>
      <trkpt lat="44.35577" lon="5.71575">
        <ele>655</ele>
        <time>2019-06-07T07:38:27Z</time>
      </trkpt>
      <trkpt lat="44.35577" lon="5.71568">
        <ele>655</ele>
        <time>2019-06-07T07:38:28Z</time>
      </trkpt>
      <trkpt lat="44.35577" lon="5.7156">
        <ele>655</ele>
        <time>2019-06-07T07:38:29Z</time>
      </trkpt>
      <trkpt lat="44.35576" lon="5.71553">
        <ele>656</ele>
        <time>2019-06-07T07:38:30Z</time>
      </trkpt>
      <trkpt lat="44.35576" lon="5.71546">
        <ele>656</ele>
        <time>2019-06-07T07:38:31Z</time>
      </trkpt>
      <trkpt lat="44.35575" lon="5.71539">
        <ele>656</ele>
        <time>2019-06-07T07:38:32Z</time>
      </trkpt>
      <trkpt lat="44.35575" lon="5.71532">
        <ele>656</ele>
        <time>2019-06-07T07:38:33Z</time>
      </trkpt>
      <trkpt lat="44.35575" lon="5.71525">
        <ele>656</ele>
        <time>2019-06-07T07:38:34Z</time>
      </trkpt>
      <trkpt lat="44.35575" lon="5.71518">
        <ele>657</ele>
        <time>2019-06-07T07:38:35Z</time>
      </trkpt>
      <trkpt lat="44.35575" lon="5.7151">
        <ele>657</ele>
        <time>2019-06-07T07:38:36Z</time>
      </trkpt>
      <trkpt lat="44.35574" lon="5.71503">
        <ele>657</ele>
        <time>2019-06-07T07:38:37Z</time>
      </trkpt>
      <trkpt lat="44.35574" lon="5.71496">
        <ele>657</ele>
        <time>2019-06-07T07:38:38Z</time>
      </trkpt>
      <trkpt lat="44.35574" lon="5.71489">
        <ele>657</ele>
        <time>2019-06-07T07:38:39Z</time>
      </trkpt>
      <trkpt lat="44.35574" lon="5.71482">
        <ele>657</ele>
        <time>2019-06-07T07:38:40Z</time>
      </trkpt>
      <trkpt lat="44.35574" lon="5.71475">
        <ele>657</ele>
        <time>2019-06-07T07:38:41Z</time>
      </trkpt>
      <trkpt lat="44.35573" lon="5.71468">
        <ele>657</ele>
        <time>2019-06-07T07:38:42Z</time>
      </trkpt>
      <trkpt lat="44.35573" lon="5.71461">
        <ele>657</ele>
        <time>2019-06-07T07:38:43Z</time>
      </trkpt>
      <trkpt lat="44.35573" lon="5.71454">
        <ele>657</ele>
        <time>2019-06-07T07:38:44Z</time>
      </trkpt>
      <trkpt lat="44.35573" lon="5.71447">
        <ele>657</ele>
        <time>2019-06-07T07:38:45Z</time>
      </trkpt>
      <trkpt lat="44.35573" lon="5.71441">
        <ele>658</ele>
        <time>2019-06-07T07:38:46Z</time>
      </trkpt>
      <trkpt lat="44.35572" lon="5.71434">
        <ele>658</ele>
        <time>2019-06-07T07:38:47Z</time>
      </trkpt>
      <trkpt lat="44.35572" lon="5.71428">
        <ele>658</ele>
        <time>2019-06-07T07:38:48Z</time>
      </trkpt>
      <trkpt lat="44.35572" lon="5.71421">
        <ele>658</ele>
        <time>2019-06-07T07:38:49Z</time>
      </trkpt>
      <trkpt lat="44.35572" lon="5.71414">
        <ele>658</ele>
        <time>2019-06-07T07:38:50Z</time>
      </trkpt>
      <trkpt lat="44.35572" lon="5.71409">
        <ele>659</ele>
        <time>2019-06-07T07:38:51Z</time>
      </trkpt>
      <trkpt lat="44.35571" lon="5.71403">
        <ele>659</ele>
        <time>2019-06-07T07:38:52Z</time>
      </trkpt>
      <trkpt lat="44.35571" lon="5.71396">
        <ele>660</ele>
        <time>2019-06-07T07:38:53Z</time>
      </trkpt>
      <trkpt lat="44.35571" lon="5.7139">
        <ele>660</ele>
        <time>2019-06-07T07:38:54Z</time>
      </trkpt>
      <trkpt lat="44.35571" lon="5.71384">
        <ele>660</ele>
        <time>2019-06-07T07:38:55Z</time>
      </trkpt>
      <trkpt lat="44.3557" lon="5.71378">
        <ele>661</ele>
        <time>2019-06-07T07:38:56Z</time>
      </trkpt>
      <trkpt lat="44.3557" lon="5.71372">
        <ele>661</ele>
        <time>2019-06-07T07:38:57Z</time>
      </trkpt>
      <trkpt lat="44.3557" lon="5.71365">
        <ele>661</ele>
        <time>2019-06-07T07:38:59Z</time>
      </trkpt>
      <trkpt lat="44.3557" lon="5.71359">
        <ele>662</ele>
        <time>2019-06-07T07:38:59Z</time>
      </trkpt>
      <trkpt lat="44.3557" lon="5.71353">
        <ele>662</ele>
        <time>2019-06-07T07:39:00Z</time>
      </trkpt>
      <trkpt lat="44.3557" lon="5.71348">
        <ele>662</ele>
        <time>2019-06-07T07:39:01Z</time>
      </trkpt>
      <trkpt lat="44.35569" lon="5.71343">
        <ele>662</ele>
        <time>2019-06-07T07:39:02Z</time>
      </trkpt>
      <trkpt lat="44.35569" lon="5.71337">
        <ele>663</ele>
        <time>2019-06-07T07:39:03Z</time>
      </trkpt>
      <trkpt lat="44.35569" lon="5.71332">
        <ele>663</ele>
        <time>2019-06-07T07:39:04Z</time>
      </trkpt>
      <trkpt lat="44.35569" lon="5.71327">
        <ele>663</ele>
        <time>2019-06-07T07:39:05Z</time>
      </trkpt>
      <trkpt lat="44.35568" lon="5.71321">
        <ele>663</ele>
        <time>2019-06-07T07:39:06Z</time>
      </trkpt>
      <trkpt lat="44.35567" lon="5.71315">
        <ele>663</ele>
        <time>2019-06-07T07:39:07Z</time>
      </trkpt>
      <trkpt lat="44.35566" lon="5.7131">
        <ele>663</ele>
        <time>2019-06-07T07:39:08Z</time>
      </trkpt>
      <trkpt lat="44.35564" lon="5.71304">
        <ele>663</ele>
        <time>2019-06-07T07:39:09Z</time>
      </trkpt>
      <trkpt lat="44.35563" lon="5.71299">
        <ele>663</ele>
        <time>2019-06-07T07:39:10Z</time>
      </trkpt>
      <trkpt lat="44.3556" lon="5.71293">
        <ele>664</ele>
        <time>2019-06-07T07:39:11Z</time>
      </trkpt>
      <trkpt lat="44.35558" lon="5.71288">
        <ele>664</ele>
        <time>2019-06-07T07:39:12Z</time>
      </trkpt>
      <trkpt lat="44.35555" lon="5.71283">
        <ele>664</ele>
        <time>2019-06-07T07:39:13Z</time>
      </trkpt>
      <trkpt lat="44.35553" lon="5.71278">
        <ele>664</ele>
        <time>2019-06-07T07:39:14Z</time>
      </trkpt>
      <trkpt lat="44.35551" lon="5.71273">
        <ele>664</ele>
        <time>2019-06-07T07:39:15Z</time>
      </trkpt>
      <trkpt lat="44.35548" lon="5.71267">
        <ele>664</ele>
        <time>2019-06-07T07:39:16Z</time>
      </trkpt>
      <trkpt lat="44.35546" lon="5.71262">
        <ele>664</ele>
        <time>2019-06-07T07:39:17Z</time>
      </trkpt>
      <trkpt lat="44.35545" lon="5.71256">
        <ele>664</ele>
        <time>2019-06-07T07:39:18Z</time>
      </trkpt>
      <trkpt lat="44.35543" lon="5.7125">
        <ele>664</ele>
        <time>2019-06-07T07:39:19Z</time>
      </trkpt>
      <trkpt lat="44.3554" lon="5.71245">
        <ele>664</ele>
        <time>2019-06-07T07:39:20Z</time>
      </trkpt>
      <trkpt lat="44.35538" lon="5.7124">
        <ele>664</ele>
        <time>2019-06-07T07:39:21Z</time>
      </trkpt>
      <trkpt lat="44.35535" lon="5.71234">
        <ele>664</ele>
        <time>2019-06-07T07:39:22Z</time>
      </trkpt>
      <trkpt lat="44.35532" lon="5.71228">
        <ele>664</ele>
        <time>2019-06-07T07:39:23Z</time>
      </trkpt>
      <trkpt lat="44.35529" lon="5.71222">
        <ele>664</ele>
        <time>2019-06-07T07:39:24Z</time>
      </trkpt>
      <trkpt lat="44.35527" lon="5.71216">
        <ele>664</ele>
        <time>2019-06-07T07:39:25Z</time>
      </trkpt>
      <trkpt lat="44.35523" lon="5.7121">
        <ele>664</ele>
        <time>2019-06-07T07:39:26Z</time>
      </trkpt>
      <trkpt lat="44.35521" lon="5.71205">
        <ele>664</ele>
        <time>2019-06-07T07:39:27Z</time>
      </trkpt>
      <trkpt lat="44.35518" lon="5.71199">
        <ele>665</ele>
        <time>2019-06-07T07:39:28Z</time>
      </trkpt>
      <trkpt lat="44.35516" lon="5.71193">
        <ele>665</ele>
        <time>2019-06-07T07:39:29Z</time>
      </trkpt>
      <trkpt lat="44.35513" lon="5.71186">
        <ele>666</ele>
        <time>2019-06-07T07:39:30Z</time>
      </trkpt>
      <trkpt lat="44.35509" lon="5.71181">
        <ele>666</ele>
        <time>2019-06-07T07:39:31Z</time>
      </trkpt>
      <trkpt lat="44.35507" lon="5.71175">
        <ele>667</ele>
        <time>2019-06-07T07:39:32Z</time>
      </trkpt>
      <trkpt lat="44.35504" lon="5.71169">
        <ele>667</ele>
        <time>2019-06-07T07:39:33Z</time>
      </trkpt>
      <trkpt lat="44.35501" lon="5.71163">
        <ele>667</ele>
        <time>2019-06-07T07:39:34Z</time>
      </trkpt>
      <trkpt lat="44.35499" lon="5.71156">
        <ele>668</ele>
        <time>2019-06-07T07:39:35Z</time>
      </trkpt>
      <trkpt lat="44.35497" lon="5.71149">
        <ele>668</ele>
        <time>2019-06-07T07:39:36Z</time>
      </trkpt>
      <trkpt lat="44.35495" lon="5.71142">
        <ele>668</ele>
        <time>2019-06-07T07:39:37Z</time>
      </trkpt>
      <trkpt lat="44.35493" lon="5.71136">
        <ele>668</ele>
        <time>2019-06-07T07:39:38Z</time>
      </trkpt>
      <trkpt lat="44.35491" lon="5.71129">
        <ele>668</ele>
        <time>2019-06-07T07:39:39Z</time>
      </trkpt>
      <trkpt lat="44.35489" lon="5.71123">
        <ele>668</ele>
        <time>2019-06-07T07:39:40Z</time>
      </trkpt>
      <trkpt lat="44.35488" lon="5.71116">
        <ele>668</ele>
        <time>2019-06-07T07:39:41Z</time>
      </trkpt>
      <trkpt lat="44.35487" lon="5.71109">
        <ele>668</ele>
        <time>2019-06-07T07:39:42Z</time>
      </trkpt>
      <trkpt lat="44.35485" lon="5.71101">
        <ele>668</ele>
        <time>2019-06-07T07:39:43Z</time>
      </trkpt>
      <trkpt lat="44.35484" lon="5.71094">
        <ele>668</ele>
        <time>2019-06-07T07:39:44Z</time>
      </trkpt>
      <trkpt lat="44.35484" lon="5.71086">
        <ele>668</ele>
        <time>2019-06-07T07:39:45Z</time>
      </trkpt>
      <trkpt lat="44.35483" lon="5.71079">
        <ele>668</ele>
        <time>2019-06-07T07:39:46Z</time>
      </trkpt>
      <trkpt lat="44.35483" lon="5.71071">
        <ele>668</ele>
        <time>2019-06-07T07:39:47Z</time>
      </trkpt>
      <trkpt lat="44.35483" lon="5.71064">
        <ele>668</ele>
        <time>2019-06-07T07:39:48Z</time>
      </trkpt>
      <trkpt lat="44.35483" lon="5.71056">
        <ele>668</ele>
        <time>2019-06-07T07:39:49Z</time>
      </trkpt>
      <trkpt lat="44.35483" lon="5.71048">
        <ele>668</ele>
        <time>2019-06-07T07:39:50Z</time>
      </trkpt>
      <trkpt lat="44.35484" lon="5.71041">
        <ele>668</ele>
        <time>2019-06-07T07:39:51Z</time>
      </trkpt>
      <trkpt lat="44.35484" lon="5.71034">
        <ele>668</ele>
        <time>2019-06-07T07:39:52Z</time>
      </trkpt>
      <trkpt lat="44.35485" lon="5.71027">
        <ele>668</ele>
        <time>2019-06-07T07:39:53Z</time>
      </trkpt>
      <trkpt lat="44.35485" lon="5.7102">
        <ele>668</ele>
        <time>2019-06-07T07:39:54Z</time>
      </trkpt>
      <trkpt lat="44.35485" lon="5.71013">
        <ele>668</ele>
        <time>2019-06-07T07:39:55Z</time>
      </trkpt>
      <trkpt lat="44.35486" lon="5.71006">
        <ele>668</ele>
        <time>2019-06-07T07:39:56Z</time>
      </trkpt>
      <trkpt lat="44.35486" lon="5.70998">
        <ele>668</ele>
        <time>2019-06-07T07:39:57Z</time>
      </trkpt>
      <trkpt lat="44.35486" lon="5.70991">
        <ele>668</ele>
        <time>2019-06-07T07:39:59Z</time>
      </trkpt>
      <trkpt lat="44.35486" lon="5.70984">
        <ele>668</ele>
        <time>2019-06-07T07:39:59Z</time>
      </trkpt>
      <trkpt lat="44.35486" lon="5.70976">
        <ele>668</ele>
        <time>2019-06-07T07:40:00Z</time>
      </trkpt>
      <trkpt lat="44.35486" lon="5.70969">
        <ele>669</ele>
        <time>2019-06-07T07:40:01Z</time>
      </trkpt>
      <trkpt lat="44.35486" lon="5.70962">
        <ele>669</ele>
        <time>2019-06-07T07:40:02Z</time>
      </trkpt>
      <trkpt lat="44.35485" lon="5.70955">
        <ele>669</ele>
        <time>2019-06-07T07:40:03Z</time>
      </trkpt>
      <trkpt lat="44.35485" lon="5.70948">
        <ele>669</ele>
        <time>2019-06-07T07:40:04Z</time>
      </trkpt>
      <trkpt lat="44.35484" lon="5.7094">
        <ele>669</ele>
        <time>2019-06-07T07:40:05Z</time>
      </trkpt>
      <trkpt lat="44.35483" lon="5.70933">
        <ele>669</ele>
        <time>2019-06-07T07:40:06Z</time>
      </trkpt>
      <trkpt lat="44.35481" lon="5.70927">
        <ele>669</ele>
        <time>2019-06-07T07:40:07Z</time>
      </trkpt>
      <trkpt lat="44.35478" lon="5.70921">
        <ele>669</ele>
        <time>2019-06-07T07:40:08Z</time>
      </trkpt>
      <trkpt lat="44.35476" lon="5.70916">
        <ele>669</ele>
        <time>2019-06-07T07:40:09Z</time>
      </trkpt>
      <trkpt lat="44.35472" lon="5.70911">
        <ele>669</ele>
        <time>2019-06-07T07:40:10Z</time>
      </trkpt>
      <trkpt lat="44.35469" lon="5.70906">
        <ele>669</ele>
        <time>2019-06-07T07:40:11Z</time>
      </trkpt>
      <trkpt lat="44.35466" lon="5.70903">
        <ele>670</ele>
        <time>2019-06-07T07:40:12Z</time>
      </trkpt>
      <trkpt lat="44.35462" lon="5.709">
        <ele>670</ele>
        <time>2019-06-07T07:40:13Z</time>
      </trkpt>
      <trkpt lat="44.35458" lon="5.70897">
        <ele>670</ele>
        <time>2019-06-07T07:40:14Z</time>
      </trkpt>
      <trkpt lat="44.35453" lon="5.70893">
        <ele>670</ele>
        <time>2019-06-07T07:40:15Z</time>
      </trkpt>
      <trkpt lat="44.35449" lon="5.7089">
        <ele>670</ele>
        <time>2019-06-07T07:40:16Z</time>
      </trkpt>
      <trkpt lat="44.35445" lon="5.70887">
        <ele>671</ele>
        <time>2019-06-07T07:40:17Z</time>
      </trkpt>
      <trkpt lat="44.3544" lon="5.70884">
        <ele>671</ele>
        <time>2019-06-07T07:40:18Z</time>
      </trkpt>
      <trkpt lat="44.35434" lon="5.70881">
        <ele>671</ele>
        <time>2019-06-07T07:40:19Z</time>
      </trkpt>
      <trkpt lat="44.3543" lon="5.70877">
        <ele>672</ele>
        <time>2019-06-07T07:40:20Z</time>
      </trkpt>
      <trkpt lat="44.35426" lon="5.70875">
        <ele>672</ele>
        <time>2019-06-07T07:40:21Z</time>
      </trkpt>
      <trkpt lat="44.35422" lon="5.70872">
        <ele>673</ele>
        <time>2019-06-07T07:40:22Z</time>
      </trkpt>
      <trkpt lat="44.35418" lon="5.70871">
        <ele>673</ele>
        <time>2019-06-07T07:40:23Z</time>
      </trkpt>
      <trkpt lat="44.35415" lon="5.7087">
        <ele>674</ele>
        <time>2019-06-07T07:40:24Z</time>
      </trkpt>
      <trkpt lat="44.3541" lon="5.70867">
        <ele>674</ele>
        <time>2019-06-07T07:40:25Z</time>
      </trkpt>
      <trkpt lat="44.35406" lon="5.70864">
        <ele>675</ele>
        <time>2019-06-07T07:40:26Z</time>
      </trkpt>
      <trkpt lat="44.35403" lon="5.7086">
        <ele>675</ele>
        <time>2019-06-07T07:40:27Z</time>
      </trkpt>
      <trkpt lat="44.35399" lon="5.70856">
        <ele>676</ele>
        <time>2019-06-07T07:40:28Z</time>
      </trkpt>
      <trkpt lat="44.35395" lon="5.70853">
        <ele>676</ele>
        <time>2019-06-07T07:40:29Z</time>
      </trkpt>
      <trkpt lat="44.35391" lon="5.7085">
        <ele>676</ele>
        <time>2019-06-07T07:40:30Z</time>
      </trkpt>
      <trkpt lat="44.35386" lon="5.70847">
        <ele>676</ele>
        <time>2019-06-07T07:40:31Z</time>
      </trkpt>
      <trkpt lat="44.35381" lon="5.70844">
        <ele>676</ele>
        <time>2019-06-07T07:40:32Z</time>
      </trkpt>
      <trkpt lat="44.35377" lon="5.70842">
        <ele>676</ele>
        <time>2019-06-07T07:40:33Z</time>
      </trkpt>
      <trkpt lat="44.35372" lon="5.7084">
        <ele>676</ele>
        <time>2019-06-07T07:40:34Z</time>
      </trkpt>
      <trkpt lat="44.35368" lon="5.70839">
        <ele>676</ele>
        <time>2019-06-07T07:40:35Z</time>
      </trkpt>
      <trkpt lat="44.35364" lon="5.70838">
        <ele>676</ele>
        <time>2019-06-07T07:40:36Z</time>
      </trkpt>
      <trkpt lat="44.35361" lon="5.70837">
        <ele>676</ele>
        <time>2019-06-07T07:40:37Z</time>
      </trkpt>
      <trkpt lat="44.35355" lon="5.70835">
        <ele>676</ele>
        <time>2019-06-07T07:40:38Z</time>
      </trkpt>
      <trkpt lat="44.35349" lon="5.70833">
        <ele>676</ele>
        <time>2019-06-07T07:40:39Z</time>
      </trkpt>
      <trkpt lat="44.35343" lon="5.7083">
        <ele>676</ele>
        <time>2019-06-07T07:40:40Z</time>
      </trkpt>
      <trkpt lat="44.35337" lon="5.70828">
        <ele>676</ele>
        <time>2019-06-07T07:40:41Z</time>
      </trkpt>
      <trkpt lat="44.35332" lon="5.70825">
        <ele>676</ele>
        <time>2019-06-07T07:40:42Z</time>
      </trkpt>
      <trkpt lat="44.35326" lon="5.70823">
        <ele>676</ele>
        <time>2019-06-07T07:40:43Z</time>
      </trkpt>
      <trkpt lat="44.35321" lon="5.70821">
        <ele>676</ele>
        <time>2019-06-07T07:40:44Z</time>
      </trkpt>
      <trkpt lat="44.35315" lon="5.70818">
        <ele>676</ele>
        <time>2019-06-07T07:40:45Z</time>
      </trkpt>
      <trkpt lat="44.35308" lon="5.70815">
        <ele>676</ele>
        <time>2019-06-07T07:40:46Z</time>
      </trkpt>
      <trkpt lat="44.35302" lon="5.70812">
        <ele>676</ele>
        <time>2019-06-07T07:40:47Z</time>
      </trkpt>
      <trkpt lat="44.35294" lon="5.70808">
        <ele>676</ele>
        <time>2019-06-07T07:40:48Z</time>
      </trkpt>
      <trkpt lat="44.35286" lon="5.70805">
        <ele>676</ele>
        <time>2019-06-07T07:40:49Z</time>
      </trkpt>
      <trkpt lat="44.35279" lon="5.70801">
        <ele>676</ele>
        <time>2019-06-07T07:40:50Z</time>
      </trkpt>
      <trkpt lat="44.35271" lon="5.70798">
        <ele>676</ele>
        <time>2019-06-07T07:40:51Z</time>
      </trkpt>
      <trkpt lat="44.35264" lon="5.70794">
        <ele>676</ele>
        <time>2019-06-07T07:40:52Z</time>
      </trkpt>
      <trkpt lat="44.35257" lon="5.7079">
        <ele>675</ele>
        <time>2019-06-07T07:40:53Z</time>
      </trkpt>
      <trkpt lat="44.3525" lon="5.70786">
        <ele>674</ele>
        <time>2019-06-07T07:40:54Z</time>
      </trkpt>
      <trkpt lat="44.35242" lon="5.70781">
        <ele>674</ele>
        <time>2019-06-07T07:40:55Z</time>
      </trkpt>
      <trkpt lat="44.35236" lon="5.70774">
        <ele>674</ele>
        <time>2019-06-07T07:40:56Z</time>
      </trkpt>
      <trkpt lat="44.35231" lon="5.70765">
        <ele>673</ele>
        <time>2019-06-07T07:40:57Z</time>
      </trkpt>
      <trkpt lat="44.35227" lon="5.70754">
        <ele>673</ele>
        <time>2019-06-07T07:40:59Z</time>
      </trkpt>
      <trkpt lat="44.35223" lon="5.70742">
        <ele>673</ele>
        <time>2019-06-07T07:40:59Z</time>
      </trkpt>
      <trkpt lat="44.35218" lon="5.70731">
        <ele>673</ele>
        <time>2019-06-07T07:41:00Z</time>
      </trkpt>
      <trkpt lat="44.35213" lon="5.70719">
        <ele>673</ele>
        <time>2019-06-07T07:41:01Z</time>
      </trkpt>
      <trkpt lat="44.35209" lon="5.70708">
        <ele>673</ele>
        <time>2019-06-07T07:41:02Z</time>
      </trkpt>
      <trkpt lat="44.35203" lon="5.70696">
        <ele>673</ele>
        <time>2019-06-07T07:41:03Z</time>
      </trkpt>
      <trkpt lat="44.35198" lon="5.70685">
        <ele>673</ele>
        <time>2019-06-07T07:41:04Z</time>
      </trkpt>
      <trkpt lat="44.35193" lon="5.70674">
        <ele>673</ele>
        <time>2019-06-07T07:41:05Z</time>
      </trkpt>
      <trkpt lat="44.35188" lon="5.70663">
        <ele>673</ele>
        <time>2019-06-07T07:41:06Z</time>
      </trkpt>
      <trkpt lat="44.35184" lon="5.70653">
        <ele>672</ele>
        <time>2019-06-07T07:41:07Z</time>
      </trkpt>
      <trkpt lat="44.3518" lon="5.70643">
        <ele>672</ele>
        <time>2019-06-07T07:41:08Z</time>
      </trkpt>
      <trkpt lat="44.35176" lon="5.70634">
        <ele>671</ele>
        <time>2019-06-07T07:41:09Z</time>
      </trkpt>
      <trkpt lat="44.35172" lon="5.70625">
        <ele>671</ele>
        <time>2019-06-07T07:41:10Z</time>
      </trkpt>
      <trkpt lat="44.35168" lon="5.70616">
        <ele>670</ele>
        <time>2019-06-07T07:41:11Z</time>
      </trkpt>
      <trkpt lat="44.35164" lon="5.70607">
        <ele>669</ele>
        <time>2019-06-07T07:41:12Z</time>
      </trkpt>
      <trkpt lat="44.3516" lon="5.70599">
        <ele>668</ele>
        <time>2019-06-07T07:41:13Z</time>
      </trkpt>
      <trkpt lat="44.35157" lon="5.7059">
        <ele>667</ele>
        <time>2019-06-07T07:41:14Z</time>
      </trkpt>
      <trkpt lat="44.35154" lon="5.70581">
        <ele>666</ele>
        <time>2019-06-07T07:41:15Z</time>
      </trkpt>
      <trkpt lat="44.3515" lon="5.70572">
        <ele>666</ele>
        <time>2019-06-07T07:41:16Z</time>
      </trkpt>
      <trkpt lat="44.35146" lon="5.70564">
        <ele>666</ele>
        <time>2019-06-07T07:41:17Z</time>
      </trkpt>
      <trkpt lat="44.35143" lon="5.70554">
        <ele>666</ele>
        <time>2019-06-07T07:41:18Z</time>
      </trkpt>
      <trkpt lat="44.35139" lon="5.70545">
        <ele>666</ele>
        <time>2019-06-07T07:41:19Z</time>
      </trkpt>
      <trkpt lat="44.35135" lon="5.70536">
        <ele>666</ele>
        <time>2019-06-07T07:41:20Z</time>
      </trkpt>
      <trkpt lat="44.35132" lon="5.70527">
        <ele>666</ele>
        <time>2019-06-07T07:41:21Z</time>
      </trkpt>
      <trkpt lat="44.35128" lon="5.70517">
        <ele>666</ele>
        <time>2019-06-07T07:41:22Z</time>
      </trkpt>
      <trkpt lat="44.35125" lon="5.70508">
        <ele>666</ele>
        <time>2019-06-07T07:41:23Z</time>
      </trkpt>
      <trkpt lat="44.35122" lon="5.70499">
        <ele>666</ele>
        <time>2019-06-07T07:41:24Z</time>
      </trkpt>
      <trkpt lat="44.35119" lon="5.70489">
        <ele>666</ele>
        <time>2019-06-07T07:41:25Z</time>
      </trkpt>
      <trkpt lat="44.35116" lon="5.70478">
        <ele>666</ele>
        <time>2019-06-07T07:41:26Z</time>
      </trkpt>
      <trkpt lat="44.35113" lon="5.70468">
        <ele>666</ele>
        <time>2019-06-07T07:41:27Z</time>
      </trkpt>
      <trkpt lat="44.35111" lon="5.70458">
        <ele>666</ele>
        <time>2019-06-07T07:41:28Z</time>
      </trkpt>
      <trkpt lat="44.35108" lon="5.70447">
        <ele>666</ele>
        <time>2019-06-07T07:41:29Z</time>
      </trkpt>
      <trkpt lat="44.35106" lon="5.70436">
        <ele>666</ele>
        <time>2019-06-07T07:41:30Z</time>
      </trkpt>
      <trkpt lat="44.35105" lon="5.70426">
        <ele>666</ele>
        <time>2019-06-07T07:41:31Z</time>
      </trkpt>
      <trkpt lat="44.35104" lon="5.70415">
        <ele>666</ele>
        <time>2019-06-07T07:41:32Z</time>
      </trkpt>
      <trkpt lat="44.35102" lon="5.70404">
        <ele>666</ele>
        <time>2019-06-07T07:41:33Z</time>
      </trkpt>
      <trkpt lat="44.35101" lon="5.70393">
        <ele>666</ele>
        <time>2019-06-07T07:41:34Z</time>
      </trkpt>
      <trkpt lat="44.35099" lon="5.70382">
        <ele>666</ele>
        <time>2019-06-07T07:41:35Z</time>
      </trkpt>
      <trkpt lat="44.35098" lon="5.70371">
        <ele>666</ele>
        <time>2019-06-07T07:41:36Z</time>
      </trkpt>
      <trkpt lat="44.35097" lon="5.7036">
        <ele>666</ele>
        <time>2019-06-07T07:41:37Z</time>
      </trkpt>
      <trkpt lat="44.35096" lon="5.7035">
        <ele>666</ele>
        <time>2019-06-07T07:41:38Z</time>
      </trkpt>
      <trkpt lat="44.35094" lon="5.70339">
        <ele>666</ele>
        <time>2019-06-07T07:41:39Z</time>
      </trkpt>
      <trkpt lat="44.35093" lon="5.70328">
        <ele>666</ele>
        <time>2019-06-07T07:41:40Z</time>
      </trkpt>
      <trkpt lat="44.35091" lon="5.70318">
        <ele>666</ele>
        <time>2019-06-07T07:41:41Z</time>
      </trkpt>
      <trkpt lat="44.3509" lon="5.70307">
        <ele>666</ele>
        <time>2019-06-07T07:41:42Z</time>
      </trkpt>
      <trkpt lat="44.35089" lon="5.70296">
        <ele>666</ele>
        <time>2019-06-07T07:41:43Z</time>
      </trkpt>
      <trkpt lat="44.35088" lon="5.70285">
        <ele>666</ele>
        <time>2019-06-07T07:41:44Z</time>
      </trkpt>
      <trkpt lat="44.35088" lon="5.70275">
        <ele>666</ele>
        <time>2019-06-07T07:41:45Z</time>
      </trkpt>
      <trkpt lat="44.35087" lon="5.70265">
        <ele>666</ele>
        <time>2019-06-07T07:41:46Z</time>
      </trkpt>
      <trkpt lat="44.35087" lon="5.70255">
        <ele>666</ele>
        <time>2019-06-07T07:41:47Z</time>
      </trkpt>
      <trkpt lat="44.35086" lon="5.70245">
        <ele>666</ele>
        <time>2019-06-07T07:41:48Z</time>
      </trkpt>
      <trkpt lat="44.35084" lon="5.70234">
        <ele>666</ele>
        <time>2019-06-07T07:41:49Z</time>
      </trkpt>
      <trkpt lat="44.35083" lon="5.70224">
        <ele>666</ele>
        <time>2019-06-07T07:41:50Z</time>
      </trkpt>
      <trkpt lat="44.35081" lon="5.70213">
        <ele>666</ele>
        <time>2019-06-07T07:41:51Z</time>
      </trkpt>
      <trkpt lat="44.3508" lon="5.70202">
        <ele>666</ele>
        <time>2019-06-07T07:41:52Z</time>
      </trkpt>
      <trkpt lat="44.3508" lon="5.70191">
        <ele>666</ele>
        <time>2019-06-07T07:41:53Z</time>
      </trkpt>
      <trkpt lat="44.35078" lon="5.7018">
        <ele>666</ele>
        <time>2019-06-07T07:41:54Z</time>
      </trkpt>
      <trkpt lat="44.35076" lon="5.70169">
        <ele>666</ele>
        <time>2019-06-07T07:41:55Z</time>
      </trkpt>
      <trkpt lat="44.35073" lon="5.70158">
        <ele>666</ele>
        <time>2019-06-07T07:41:56Z</time>
      </trkpt>
      <trkpt lat="44.35072" lon="5.70147">
        <ele>666</ele>
        <time>2019-06-07T07:41:57Z</time>
      </trkpt>
      <trkpt lat="44.3507" lon="5.70135">
        <ele>666</ele>
        <time>2019-06-07T07:41:59Z</time>
      </trkpt>
      <trkpt lat="44.35068" lon="5.70124">
        <ele>666</ele>
        <time>2019-06-07T07:41:59Z</time>
      </trkpt>
      <trkpt lat="44.35066" lon="5.70112">
        <ele>666</ele>
        <time>2019-06-07T07:42:00Z</time>
      </trkpt>
      <trkpt lat="44.35064" lon="5.701">
        <ele>666</ele>
        <time>2019-06-07T07:42:01Z</time>
      </trkpt>
      <trkpt lat="44.35061" lon="5.70088">
        <ele>666</ele>
        <time>2019-06-07T07:42:02Z</time>
      </trkpt>
      <trkpt lat="44.35059" lon="5.70076">
        <ele>666</ele>
        <time>2019-06-07T07:42:03Z</time>
      </trkpt>
      <trkpt lat="44.35057" lon="5.70064">
        <ele>666</ele>
        <time>2019-06-07T07:42:04Z</time>
      </trkpt>
      <trkpt lat="44.35055" lon="5.70051">
        <ele>667</ele>
        <time>2019-06-07T07:42:05Z</time>
      </trkpt>
      <trkpt lat="44.35053" lon="5.70039">
        <ele>667</ele>
        <time>2019-06-07T07:42:06Z</time>
      </trkpt>
      <trkpt lat="44.35049" lon="5.70028">
        <ele>667</ele>
        <time>2019-06-07T07:42:07Z</time>
      </trkpt>
      <trkpt lat="44.35045" lon="5.70017">
        <ele>667</ele>
        <time>2019-06-07T07:42:08Z</time>
      </trkpt>
      <trkpt lat="44.3504" lon="5.70007">
        <ele>667</ele>
        <time>2019-06-07T07:42:09Z</time>
      </trkpt>
      <trkpt lat="44.35034" lon="5.69998">
        <ele>667</ele>
        <time>2019-06-07T07:42:10Z</time>
      </trkpt>
      <trkpt lat="44.35027" lon="5.6999">
        <ele>667</ele>
        <time>2019-06-07T07:42:11Z</time>
      </trkpt>
      <trkpt lat="44.35022" lon="5.69983">
        <ele>667</ele>
        <time>2019-06-07T07:42:12Z</time>
      </trkpt>
      <trkpt lat="44.35015" lon="5.69977">
        <ele>667</ele>
        <time>2019-06-07T07:42:13Z</time>
      </trkpt>
      <trkpt lat="44.35008" lon="5.69971">
        <ele>667</ele>
        <time>2019-06-07T07:42:14Z</time>
      </trkpt>
      <trkpt lat="44.35001" lon="5.69966">
        <ele>667</ele>
        <time>2019-06-07T07:42:15Z</time>
      </trkpt>
      <trkpt lat="44.34994" lon="5.69962">
        <ele>667</ele>
        <time>2019-06-07T07:42:16Z</time>
      </trkpt>
      <trkpt lat="44.34986" lon="5.69959">
        <ele>667</ele>
        <time>2019-06-07T07:42:17Z</time>
      </trkpt>
      <trkpt lat="44.34978" lon="5.69955">
        <ele>667</ele>
        <time>2019-06-07T07:42:18Z</time>
      </trkpt>
      <trkpt lat="44.34971" lon="5.69951">
        <ele>667</ele>
        <time>2019-06-07T07:42:19Z</time>
      </trkpt>
      <trkpt lat="44.34963" lon="5.69947">
        <ele>667</ele>
        <time>2019-06-07T07:42:20Z</time>
      </trkpt>
      <trkpt lat="44.34955" lon="5.69943">
        <ele>667</ele>
        <time>2019-06-07T07:42:21Z</time>
      </trkpt>
      <trkpt lat="44.34947" lon="5.69938">
        <ele>667</ele>
        <time>2019-06-07T07:42:22Z</time>
      </trkpt>
      <trkpt lat="44.3494" lon="5.69932">
        <ele>667</ele>
        <time>2019-06-07T07:42:23Z</time>
      </trkpt>
      <trkpt lat="44.34934" lon="5.69926">
        <ele>667</ele>
        <time>2019-06-07T07:42:24Z</time>
      </trkpt>
      <trkpt lat="44.34929" lon="5.6992">
        <ele>667</ele>
        <time>2019-06-07T07:42:25Z</time>
      </trkpt>
      <trkpt lat="44.34923" lon="5.69915">
        <ele>667</ele>
        <time>2019-06-07T07:42:26Z</time>
      </trkpt>
      <trkpt lat="44.34917" lon="5.69911">
        <ele>667</ele>
        <time>2019-06-07T07:42:27Z</time>
      </trkpt>
      <trkpt lat="44.3491" lon="5.69908">
        <ele>667</ele>
        <time>2019-06-07T07:42:28Z</time>
      </trkpt>
      <trkpt lat="44.34903" lon="5.69905">
        <ele>667</ele>
        <time>2019-06-07T07:42:29Z</time>
      </trkpt>
      <trkpt lat="44.34897" lon="5.69902">
        <ele>667</ele>
        <time>2019-06-07T07:42:30Z</time>
      </trkpt>
      <trkpt lat="44.3489" lon="5.69899">
        <ele>667</ele>
        <time>2019-06-07T07:42:31Z</time>
      </trkpt>
      <trkpt lat="44.34882" lon="5.69895">
        <ele>667</ele>
        <time>2019-06-07T07:42:32Z</time>
      </trkpt>
      <trkpt lat="44.34877" lon="5.69892">
        <ele>667</ele>
        <time>2019-06-07T07:42:33Z</time>
      </trkpt>
      <trkpt lat="44.34871" lon="5.69888">
        <ele>667</ele>
        <time>2019-06-07T07:42:34Z</time>
      </trkpt>
      <trkpt lat="44.34865" lon="5.69885">
        <ele>667</ele>
        <time>2019-06-07T07:42:35Z</time>
      </trkpt>
      <trkpt lat="44.34858" lon="5.6988">
        <ele>667</ele>
        <time>2019-06-07T07:42:36Z</time>
      </trkpt>
      <trkpt lat="44.34852" lon="5.69875">
        <ele>667</ele>
        <time>2019-06-07T07:42:37Z</time>
      </trkpt>
      <trkpt lat="44.34847" lon="5.69869">
        <ele>667</ele>
        <time>2019-06-07T07:42:38Z</time>
      </trkpt>
      <trkpt lat="44.34843" lon="5.69861">
        <ele>667</ele>
        <time>2019-06-07T07:42:39Z</time>
      </trkpt>
      <trkpt lat="44.3484" lon="5.69853">
        <ele>667</ele>
        <time>2019-06-07T07:42:40Z</time>
      </trkpt>
      <trkpt lat="44.34837" lon="5.69845">
        <ele>667</ele>
        <time>2019-06-07T07:42:41Z</time>
      </trkpt>
      <trkpt lat="44.34834" lon="5.69837">
        <ele>667</ele>
        <time>2019-06-07T07:42:42Z</time>
      </trkpt>
      <trkpt lat="44.34831" lon="5.69828">
        <ele>667</ele>
        <time>2019-06-07T07:42:43Z</time>
      </trkpt>
      <trkpt lat="44.34828" lon="5.69819">
        <ele>667</ele>
        <time>2019-06-07T07:42:44Z</time>
      </trkpt>
      <trkpt lat="44.34827" lon="5.6981">
        <ele>667</ele>
        <time>2019-06-07T07:42:45Z</time>
      </trkpt>
      <trkpt lat="44.34825" lon="5.69801">
        <ele>667</ele>
        <time>2019-06-07T07:42:46Z</time>
      </trkpt>
      <trkpt lat="44.34824" lon="5.69792">
        <ele>667</ele>
        <time>2019-06-07T07:42:47Z</time>
      </trkpt>
      <trkpt lat="44.34824" lon="5.69783">
        <ele>667</ele>
        <time>2019-06-07T07:42:48Z</time>
      </trkpt>
      <trkpt lat="44.34824" lon="5.69774">
        <ele>667</ele>
        <time>2019-06-07T07:42:49Z</time>
      </trkpt>
      <trkpt lat="44.34824" lon="5.69765">
        <ele>667</ele>
        <time>2019-06-07T07:42:50Z</time>
      </trkpt>
      <trkpt lat="44.34824" lon="5.69756">
        <ele>667</ele>
        <time>2019-06-07T07:42:51Z</time>
      </trkpt>
      <trkpt lat="44.34824" lon="5.69747">
        <ele>667</ele>
        <time>2019-06-07T07:42:52Z</time>
      </trkpt>
      <trkpt lat="44.34824" lon="5.69738">
        <ele>668</ele>
        <time>2019-06-07T07:42:53Z</time>
      </trkpt>
      <trkpt lat="44.34824" lon="5.6973">
        <ele>668</ele>
        <time>2019-06-07T07:42:54Z</time>
      </trkpt>
      <trkpt lat="44.34824" lon="5.6972">
        <ele>668</ele>
        <time>2019-06-07T07:42:55Z</time>
      </trkpt>
      <trkpt lat="44.34825" lon="5.69711">
        <ele>668</ele>
        <time>2019-06-07T07:42:56Z</time>
      </trkpt>
      <trkpt lat="44.34825" lon="5.69702">
        <ele>668</ele>
        <time>2019-06-07T07:42:57Z</time>
      </trkpt>
      <trkpt lat="44.34825" lon="5.69693">
        <ele>668</ele>
        <time>2019-06-07T07:42:59Z</time>
      </trkpt>
      <trkpt lat="44.34825" lon="5.69684">
        <ele>669</ele>
        <time>2019-06-07T07:42:59Z</time>
      </trkpt>
      <trkpt lat="44.34826" lon="5.69674">
        <ele>669</ele>
        <time>2019-06-07T07:43:00Z</time>
      </trkpt>
      <trkpt lat="44.34826" lon="5.69665">
        <ele>669</ele>
        <time>2019-06-07T07:43:01Z</time>
      </trkpt>
      <trkpt lat="44.34827" lon="5.69656">
        <ele>669</ele>
        <time>2019-06-07T07:43:02Z</time>
      </trkpt>
      <trkpt lat="44.34828" lon="5.69647">
        <ele>670</ele>
        <time>2019-06-07T07:43:03Z</time>
      </trkpt>
      <trkpt lat="44.34829" lon="5.69638">
        <ele>670</ele>
        <time>2019-06-07T07:43:04Z</time>
      </trkpt>
      <trkpt lat="44.34829" lon="5.69629">
        <ele>670</ele>
        <time>2019-06-07T07:43:05Z</time>
      </trkpt>
      <trkpt lat="44.3483" lon="5.6962">
        <ele>670</ele>
        <time>2019-06-07T07:43:06Z</time>
      </trkpt>
      <trkpt lat="44.34831" lon="5.69611">
        <ele>670</ele>
        <time>2019-06-07T07:43:07Z</time>
      </trkpt>
      <trkpt lat="44.34832" lon="5.69602">
        <ele>671</ele>
        <time>2019-06-07T07:43:08Z</time>
      </trkpt>
      <trkpt lat="44.34833" lon="5.69593">
        <ele>671</ele>
        <time>2019-06-07T07:43:09Z</time>
      </trkpt>
      <trkpt lat="44.34834" lon="5.69584">
        <ele>671</ele>
        <time>2019-06-07T07:43:10Z</time>
      </trkpt>
      <trkpt lat="44.34835" lon="5.69575">
        <ele>671</ele>
        <time>2019-06-07T07:43:11Z</time>
      </trkpt>
      <trkpt lat="44.34836" lon="5.69566">
        <ele>671</ele>
        <time>2019-06-07T07:43:12Z</time>
      </trkpt>
      <trkpt lat="44.34837" lon="5.69558">
        <ele>671</ele>
        <time>2019-06-07T07:43:13Z</time>
      </trkpt>
      <trkpt lat="44.34839" lon="5.6955">
        <ele>671</ele>
        <time>2019-06-07T07:43:14Z</time>
      </trkpt>
      <trkpt lat="44.34841" lon="5.69541">
        <ele>671</ele>
        <time>2019-06-07T07:43:15Z</time>
      </trkpt>
      <trkpt lat="44.34843" lon="5.69533">
        <ele>671</ele>
        <time>2019-06-07T07:43:16Z</time>
      </trkpt>
      <trkpt lat="44.34844" lon="5.69524">
        <ele>671</ele>
        <time>2019-06-07T07:43:17Z</time>
      </trkpt>
      <trkpt lat="44.34846" lon="5.69516">
        <ele>671</ele>
        <time>2019-06-07T07:43:18Z</time>
      </trkpt>
      <trkpt lat="44.34847" lon="5.69507">
        <ele>671</ele>
        <time>2019-06-07T07:43:19Z</time>
      </trkpt>
      <trkpt lat="44.34848" lon="5.69497">
        <ele>671</ele>
        <time>2019-06-07T07:43:20Z</time>
      </trkpt>
      <trkpt lat="44.34848" lon="5.69489">
        <ele>671</ele>
        <time>2019-06-07T07:43:21Z</time>
      </trkpt>
      <trkpt lat="44.34849" lon="5.6948">
        <ele>671</ele>
        <time>2019-06-07T07:43:22Z</time>
      </trkpt>
      <trkpt lat="44.3485" lon="5.69471">
        <ele>671</ele>
        <time>2019-06-07T07:43:23Z</time>
      </trkpt>
      <trkpt lat="44.3485" lon="5.69462">
        <ele>671</ele>
        <time>2019-06-07T07:43:24Z</time>
      </trkpt>
      <trkpt lat="44.3485" lon="5.69453">
        <ele>671</ele>
        <time>2019-06-07T07:43:25Z</time>
      </trkpt>
      <trkpt lat="44.3485" lon="5.69444">
        <ele>671</ele>
        <time>2019-06-07T07:43:26Z</time>
      </trkpt>
      <trkpt lat="44.3485" lon="5.69434">
        <ele>671</ele>
        <time>2019-06-07T07:43:27Z</time>
      </trkpt>
      <trkpt lat="44.34851" lon="5.69425">
        <ele>671</ele>
        <time>2019-06-07T07:43:28Z</time>
      </trkpt>
      <trkpt lat="44.34851" lon="5.69416">
        <ele>671</ele>
        <time>2019-06-07T07:43:29Z</time>
      </trkpt>
      <trkpt lat="44.34851" lon="5.69407">
        <ele>671</ele>
        <time>2019-06-07T07:43:30Z</time>
      </trkpt>
      <trkpt lat="44.34851" lon="5.69398">
        <ele>671</ele>
        <time>2019-06-07T07:43:31Z</time>
      </trkpt>
      <trkpt lat="44.34852" lon="5.69389">
        <ele>671</ele>
        <time>2019-06-07T07:43:32Z</time>
      </trkpt>
      <trkpt lat="44.34852" lon="5.69379">
        <ele>671</ele>
        <time>2019-06-07T07:43:33Z</time>
      </trkpt>
      <trkpt lat="44.34853" lon="5.6937">
        <ele>671</ele>
        <time>2019-06-07T07:43:34Z</time>
      </trkpt>
      <trkpt lat="44.34853" lon="5.69361">
        <ele>672</ele>
        <time>2019-06-07T07:43:35Z</time>
      </trkpt>
      <trkpt lat="44.34853" lon="5.69352">
        <ele>672</ele>
        <time>2019-06-07T07:43:36Z</time>
      </trkpt>
      <trkpt lat="44.34853" lon="5.69343">
        <ele>672</ele>
        <time>2019-06-07T07:43:37Z</time>
      </trkpt>
      <trkpt lat="44.34853" lon="5.69335">
        <ele>673</ele>
        <time>2019-06-07T07:43:38Z</time>
      </trkpt>
      <trkpt lat="44.34854" lon="5.69326">
        <ele>673</ele>
        <time>2019-06-07T07:43:39Z</time>
      </trkpt>
      <trkpt lat="44.34855" lon="5.69317">
        <ele>673</ele>
        <time>2019-06-07T07:43:40Z</time>
      </trkpt>
      <trkpt lat="44.34856" lon="5.69309">
        <ele>673</ele>
        <time>2019-06-07T07:43:41Z</time>
      </trkpt>
      <trkpt lat="44.34858" lon="5.693">
        <ele>674</ele>
        <time>2019-06-07T07:43:42Z</time>
      </trkpt>
      <trkpt lat="44.34861" lon="5.69292">
        <ele>674</ele>
        <time>2019-06-07T07:43:43Z</time>
      </trkpt>
      <trkpt lat="44.34864" lon="5.69284">
        <ele>674</ele>
        <time>2019-06-07T07:43:44Z</time>
      </trkpt>
      <trkpt lat="44.34867" lon="5.69277">
        <ele>674</ele>
        <time>2019-06-07T07:43:45Z</time>
      </trkpt>
      <trkpt lat="44.34871" lon="5.69269">
        <ele>674</ele>
        <time>2019-06-07T07:43:46Z</time>
      </trkpt>
      <trkpt lat="44.34875" lon="5.69262">
        <ele>674</ele>
        <time>2019-06-07T07:43:47Z</time>
      </trkpt>
      <trkpt lat="44.34879" lon="5.69254">
        <ele>674</ele>
        <time>2019-06-07T07:43:48Z</time>
      </trkpt>
      <trkpt lat="44.34882" lon="5.69247">
        <ele>674</ele>
        <time>2019-06-07T07:43:49Z</time>
      </trkpt>
      <trkpt lat="44.34886" lon="5.6924">
        <ele>674</ele>
        <time>2019-06-07T07:43:50Z</time>
      </trkpt>
      <trkpt lat="44.3489" lon="5.69233">
        <ele>674</ele>
        <time>2019-06-07T07:43:51Z</time>
      </trkpt>
      <trkpt lat="44.34893" lon="5.69226">
        <ele>674</ele>
        <time>2019-06-07T07:43:52Z</time>
      </trkpt>
      <trkpt lat="44.34896" lon="5.69219">
        <ele>674</ele>
        <time>2019-06-07T07:43:53Z</time>
      </trkpt>
      <trkpt lat="44.349" lon="5.69212">
        <ele>674</ele>
        <time>2019-06-07T07:43:54Z</time>
      </trkpt>
      <trkpt lat="44.34903" lon="5.69205">
        <ele>674</ele>
        <time>2019-06-07T07:43:55Z</time>
      </trkpt>
      <trkpt lat="44.34905" lon="5.69197">
        <ele>674</ele>
        <time>2019-06-07T07:43:56Z</time>
      </trkpt>
      <trkpt lat="44.34908" lon="5.6919">
        <ele>674</ele>
        <time>2019-06-07T07:43:57Z</time>
      </trkpt>
      <trkpt lat="44.34911" lon="5.69182">
        <ele>674</ele>
        <time>2019-06-07T07:43:59Z</time>
      </trkpt>
      <trkpt lat="44.34913" lon="5.69174">
        <ele>674</ele>
        <time>2019-06-07T07:43:59Z</time>
      </trkpt>
      <trkpt lat="44.34916" lon="5.69168">
        <ele>674</ele>
        <time>2019-06-07T07:44:00Z</time>
      </trkpt>
      <trkpt lat="44.34918" lon="5.6916">
        <ele>674</ele>
        <time>2019-06-07T07:44:01Z</time>
      </trkpt>
      <trkpt lat="44.3492" lon="5.69151">
        <ele>674</ele>
        <time>2019-06-07T07:44:02Z</time>
      </trkpt>
      <trkpt lat="44.34923" lon="5.69143">
        <ele>674</ele>
        <time>2019-06-07T07:44:03Z</time>
      </trkpt>
      <trkpt lat="44.34925" lon="5.69136">
        <ele>674</ele>
        <time>2019-06-07T07:44:04Z</time>
      </trkpt>
      <trkpt lat="44.34928" lon="5.69128">
        <ele>674</ele>
        <time>2019-06-07T07:44:05Z</time>
      </trkpt>
      <trkpt lat="44.3493" lon="5.6912">
        <ele>674</ele>
        <time>2019-06-07T07:44:06Z</time>
      </trkpt>
      <trkpt lat="44.34933" lon="5.69112">
        <ele>674</ele>
        <time>2019-06-07T07:44:07Z</time>
      </trkpt>
      <trkpt lat="44.34935" lon="5.69104">
        <ele>674</ele>
        <time>2019-06-07T07:44:08Z</time>
      </trkpt>
      <trkpt lat="44.34938" lon="5.69096">
        <ele>674</ele>
        <time>2019-06-07T07:44:09Z</time>
      </trkpt>
      <trkpt lat="44.3494" lon="5.69088">
        <ele>674</ele>
        <time>2019-06-07T07:44:10Z</time>
      </trkpt>
      <trkpt lat="44.34943" lon="5.69079">
        <ele>674</ele>
        <time>2019-06-07T07:44:11Z</time>
      </trkpt>
      <trkpt lat="44.34945" lon="5.69071">
        <ele>675</ele>
        <time>2019-06-07T07:44:12Z</time>
      </trkpt>
      <trkpt lat="44.34948" lon="5.69063">
        <ele>675</ele>
        <time>2019-06-07T07:44:13Z</time>
      </trkpt>
      <trkpt lat="44.3495" lon="5.69056">
        <ele>675</ele>
        <time>2019-06-07T07:44:14Z</time>
      </trkpt>
      <trkpt lat="44.34952" lon="5.69047">
        <ele>676</ele>
        <time>2019-06-07T07:44:15Z</time>
      </trkpt>
      <trkpt lat="44.34954" lon="5.69039">
        <ele>676</ele>
        <time>2019-06-07T07:44:16Z</time>
      </trkpt>
      <trkpt lat="44.34957" lon="5.69032">
        <ele>676</ele>
        <time>2019-06-07T07:44:17Z</time>
      </trkpt>
      <trkpt lat="44.34959" lon="5.69024">
        <ele>677</ele>
        <time>2019-06-07T07:44:18Z</time>
      </trkpt>
      <trkpt lat="44.34961" lon="5.69017">
        <ele>677</ele>
        <time>2019-06-07T07:44:19Z</time>
      </trkpt>
      <trkpt lat="44.34964" lon="5.69009">
        <ele>677</ele>
        <time>2019-06-07T07:44:20Z</time>
      </trkpt>
      <trkpt lat="44.34966" lon="5.69001">
        <ele>678</ele>
        <time>2019-06-07T07:44:21Z</time>
      </trkpt>
      <trkpt lat="44.34968" lon="5.68994">
        <ele>678</ele>
        <time>2019-06-07T07:44:22Z</time>
      </trkpt>
      <trkpt lat="44.3497" lon="5.68986">
        <ele>678</ele>
        <time>2019-06-07T07:44:23Z</time>
      </trkpt>
      <trkpt lat="44.34971" lon="5.68978">
        <ele>678</ele>
        <time>2019-06-07T07:44:24Z</time>
      </trkpt>
      <trkpt lat="44.34972" lon="5.6897">
        <ele>678</ele>
        <time>2019-06-07T07:44:25Z</time>
      </trkpt>
      <trkpt lat="44.34974" lon="5.68963">
        <ele>679</ele>
        <time>2019-06-07T07:44:26Z</time>
      </trkpt>
      <trkpt lat="44.34975" lon="5.68954">
        <ele>679</ele>
        <time>2019-06-07T07:44:27Z</time>
      </trkpt>
      <trkpt lat="44.34975" lon="5.68947">
        <ele>679</ele>
        <time>2019-06-07T07:44:28Z</time>
      </trkpt>
      <trkpt lat="44.34975" lon="5.68939">
        <ele>679</ele>
        <time>2019-06-07T07:44:29Z</time>
      </trkpt>
      <trkpt lat="44.34976" lon="5.68931">
        <ele>679</ele>
        <time>2019-06-07T07:44:30Z</time>
      </trkpt>
      <trkpt lat="44.34977" lon="5.68923">
        <ele>679</ele>
        <time>2019-06-07T07:44:31Z</time>
      </trkpt>
      <trkpt lat="44.34977" lon="5.68915">
        <ele>679</ele>
        <time>2019-06-07T07:44:32Z</time>
      </trkpt>
      <trkpt lat="44.34977" lon="5.68907">
        <ele>679</ele>
        <time>2019-06-07T07:44:33Z</time>
      </trkpt>
      <trkpt lat="44.34977" lon="5.68899">
        <ele>679</ele>
        <time>2019-06-07T07:44:34Z</time>
      </trkpt>
      <trkpt lat="44.34978" lon="5.68891">
        <ele>679</ele>
        <time>2019-06-07T07:44:35Z</time>
      </trkpt>
      <trkpt lat="44.34978" lon="5.68883">
        <ele>679</ele>
        <time>2019-06-07T07:44:36Z</time>
      </trkpt>
      <trkpt lat="44.34978" lon="5.68874">
        <ele>679</ele>
        <time>2019-06-07T07:44:37Z</time>
      </trkpt>
      <trkpt lat="44.34978" lon="5.68866">
        <ele>679</ele>
        <time>2019-06-07T07:44:38Z</time>
      </trkpt>
      <trkpt lat="44.34979" lon="5.68858">
        <ele>679</ele>
        <time>2019-06-07T07:44:39Z</time>
      </trkpt>
      <trkpt lat="44.3498" lon="5.68851">
        <ele>679</ele>
        <time>2019-06-07T07:44:40Z</time>
      </trkpt>
      <trkpt lat="44.34981" lon="5.68843">
        <ele>679</ele>
        <time>2019-06-07T07:44:41Z</time>
      </trkpt>
      <trkpt lat="44.34982" lon="5.68836">
        <ele>679</ele>
        <time>2019-06-07T07:44:42Z</time>
      </trkpt>
      <trkpt lat="44.34985" lon="5.68829">
        <ele>679</ele>
        <time>2019-06-07T07:44:43Z</time>
      </trkpt>
      <trkpt lat="44.34987" lon="5.68822">
        <ele>679</ele>
        <time>2019-06-07T07:44:44Z</time>
      </trkpt>
      <trkpt lat="44.34989" lon="5.68815">
        <ele>679</ele>
        <time>2019-06-07T07:44:45Z</time>
      </trkpt>
      <trkpt lat="44.34991" lon="5.68808">
        <ele>679</ele>
        <time>2019-06-07T07:44:46Z</time>
      </trkpt>
      <trkpt lat="44.34994" lon="5.68801">
        <ele>679</ele>
        <time>2019-06-07T07:44:47Z</time>
      </trkpt>
      <trkpt lat="44.34996" lon="5.68793">
        <ele>679</ele>
        <time>2019-06-07T07:44:48Z</time>
      </trkpt>
      <trkpt lat="44.34998" lon="5.68785">
        <ele>679</ele>
        <time>2019-06-07T07:44:49Z</time>
      </trkpt>
      <trkpt lat="44.35" lon="5.68777">
        <ele>679</ele>
        <time>2019-06-07T07:44:50Z</time>
      </trkpt>
      <trkpt lat="44.35001" lon="5.68769">
        <ele>679</ele>
        <time>2019-06-07T07:44:51Z</time>
      </trkpt>
      <trkpt lat="44.35002" lon="5.6876">
        <ele>679</ele>
        <time>2019-06-07T07:44:52Z</time>
      </trkpt>
      <trkpt lat="44.35002" lon="5.68753">
        <ele>679</ele>
        <time>2019-06-07T07:44:53Z</time>
      </trkpt>
      <trkpt lat="44.35002" lon="5.68746">
        <ele>680</ele>
        <time>2019-06-07T07:44:54Z</time>
      </trkpt>
      <trkpt lat="44.35002" lon="5.68739">
        <ele>681</ele>
        <time>2019-06-07T07:44:55Z</time>
      </trkpt>
      <trkpt lat="44.35001" lon="5.68732">
        <ele>682</ele>
        <time>2019-06-07T07:44:56Z</time>
      </trkpt>
      <trkpt lat="44.35001" lon="5.68725">
        <ele>682</ele>
        <time>2019-06-07T07:44:57Z</time>
      </trkpt>
      <trkpt lat="44.35001" lon="5.68718">
        <ele>683</ele>
        <time>2019-06-07T07:44:59Z</time>
      </trkpt>
      <trkpt lat="44.35" lon="5.68711">
        <ele>684</ele>
        <time>2019-06-07T07:44:59Z</time>
      </trkpt>
      <trkpt lat="44.35" lon="5.68704">
        <ele>685</ele>
        <time>2019-06-07T07:45:00Z</time>
      </trkpt>
      <trkpt lat="44.34999" lon="5.68697">
        <ele>686</ele>
        <time>2019-06-07T07:45:01Z</time>
      </trkpt>
      <trkpt lat="44.34998" lon="5.6869">
        <ele>687</ele>
        <time>2019-06-07T07:45:02Z</time>
      </trkpt>
      <trkpt lat="44.34997" lon="5.68684">
        <ele>688</ele>
        <time>2019-06-07T07:45:03Z</time>
      </trkpt>
      <trkpt lat="44.34996" lon="5.68677">
        <ele>689</ele>
        <time>2019-06-07T07:45:04Z</time>
      </trkpt>
      <trkpt lat="44.34996" lon="5.6867">
        <ele>690</ele>
        <time>2019-06-07T07:45:05Z</time>
      </trkpt>
      <trkpt lat="44.34996" lon="5.68664">
        <ele>691</ele>
        <time>2019-06-07T07:45:06Z</time>
      </trkpt>
      <trkpt lat="44.34996" lon="5.68657">
        <ele>692</ele>
        <time>2019-06-07T07:45:07Z</time>
      </trkpt>
      <trkpt lat="44.34997" lon="5.68651">
        <ele>693</ele>
        <time>2019-06-07T07:45:08Z</time>
      </trkpt>
      <trkpt lat="44.34998" lon="5.68644">
        <ele>694</ele>
        <time>2019-06-07T07:45:09Z</time>
      </trkpt>
      <trkpt lat="44.34999" lon="5.68637">
        <ele>694</ele>
        <time>2019-06-07T07:45:10Z</time>
      </trkpt>
      <trkpt lat="44.35001" lon="5.6863">
        <ele>694</ele>
        <time>2019-06-07T07:45:11Z</time>
      </trkpt>
      <trkpt lat="44.35002" lon="5.68622">
        <ele>694</ele>
        <time>2019-06-07T07:45:12Z</time>
      </trkpt>
      <trkpt lat="44.35004" lon="5.68615">
        <ele>694</ele>
        <time>2019-06-07T07:45:13Z</time>
      </trkpt>
      <trkpt lat="44.35005" lon="5.68608">
        <ele>695</ele>
        <time>2019-06-07T07:45:14Z</time>
      </trkpt>
      <trkpt lat="44.35007" lon="5.68601">
        <ele>696</ele>
        <time>2019-06-07T07:45:15Z</time>
      </trkpt>
      <trkpt lat="44.3501" lon="5.68594">
        <ele>696</ele>
        <time>2019-06-07T07:45:16Z</time>
      </trkpt>
      <trkpt lat="44.35013" lon="5.68588">
        <ele>697</ele>
        <time>2019-06-07T07:45:17Z</time>
      </trkpt>
      <trkpt lat="44.35017" lon="5.68581">
        <ele>697</ele>
        <time>2019-06-07T07:45:18Z</time>
      </trkpt>
      <trkpt lat="44.35021" lon="5.68576">
        <ele>698</ele>
        <time>2019-06-07T07:45:19Z</time>
      </trkpt>
      <trkpt lat="44.35025" lon="5.68571">
        <ele>698</ele>
        <time>2019-06-07T07:45:20Z</time>
      </trkpt>
      <trkpt lat="44.35029" lon="5.68566">
        <ele>699</ele>
        <time>2019-06-07T07:45:21Z</time>
      </trkpt>
      <trkpt lat="44.35034" lon="5.68561">
        <ele>699</ele>
        <time>2019-06-07T07:45:22Z</time>
      </trkpt>
      <trkpt lat="44.35039" lon="5.68556">
        <ele>699</ele>
        <time>2019-06-07T07:45:23Z</time>
      </trkpt>
      <trkpt lat="44.35044" lon="5.68552">
        <ele>699</ele>
        <time>2019-06-07T07:45:24Z</time>
      </trkpt>
      <trkpt lat="44.35049" lon="5.68547">
        <ele>699</ele>
        <time>2019-06-07T07:45:25Z</time>
      </trkpt>
      <trkpt lat="44.35055" lon="5.68543">
        <ele>699</ele>
        <time>2019-06-07T07:45:26Z</time>
      </trkpt>
      <trkpt lat="44.3506" lon="5.68538">
        <ele>699</ele>
        <time>2019-06-07T07:45:27Z</time>
      </trkpt>
      <trkpt lat="44.35065" lon="5.68534">
        <ele>699</ele>
        <time>2019-06-07T07:45:28Z</time>
      </trkpt>
      <trkpt lat="44.3507" lon="5.68528">
        <ele>699</ele>
        <time>2019-06-07T07:45:29Z</time>
      </trkpt>
      <trkpt lat="44.35075" lon="5.68523">
        <ele>699</ele>
        <time>2019-06-07T07:45:30Z</time>
      </trkpt>
      <trkpt lat="44.3508" lon="5.68516">
        <ele>699</ele>
        <time>2019-06-07T07:45:31Z</time>
      </trkpt>
      <trkpt lat="44.35085" lon="5.6851">
        <ele>699</ele>
        <time>2019-06-07T07:45:32Z</time>
      </trkpt>
      <trkpt lat="44.35088" lon="5.68504">
        <ele>699</ele>
        <time>2019-06-07T07:45:33Z</time>
      </trkpt>
      <trkpt lat="44.35092" lon="5.68497">
        <ele>699</ele>
        <time>2019-06-07T07:45:34Z</time>
      </trkpt>
      <trkpt lat="44.35096" lon="5.6849">
        <ele>699</ele>
        <time>2019-06-07T07:45:35Z</time>
      </trkpt>
      <trkpt lat="44.35099" lon="5.68483">
        <ele>699</ele>
        <time>2019-06-07T07:45:36Z</time>
      </trkpt>
      <trkpt lat="44.35102" lon="5.68476">
        <ele>699</ele>
        <time>2019-06-07T07:45:37Z</time>
      </trkpt>
      <trkpt lat="44.35106" lon="5.68469">
        <ele>699</ele>
        <time>2019-06-07T07:45:38Z</time>
      </trkpt>
      <trkpt lat="44.35108" lon="5.68462">
        <ele>699</ele>
        <time>2019-06-07T07:45:39Z</time>
      </trkpt>
      <trkpt lat="44.35111" lon="5.68455">
        <ele>699</ele>
        <time>2019-06-07T07:45:40Z</time>
      </trkpt>
      <trkpt lat="44.35113" lon="5.68447">
        <ele>699</ele>
        <time>2019-06-07T07:45:41Z</time>
      </trkpt>
      <trkpt lat="44.35115" lon="5.6844">
        <ele>699</ele>
        <time>2019-06-07T07:45:42Z</time>
      </trkpt>
      <trkpt lat="44.35117" lon="5.68432">
        <ele>699</ele>
        <time>2019-06-07T07:45:43Z</time>
      </trkpt>
      <trkpt lat="44.35119" lon="5.68424">
        <ele>699</ele>
        <time>2019-06-07T07:45:44Z</time>
      </trkpt>
      <trkpt lat="44.35121" lon="5.68416">
        <ele>699</ele>
        <time>2019-06-07T07:45:45Z</time>
      </trkpt>
      <trkpt lat="44.35123" lon="5.68408">
        <ele>699</ele>
        <time>2019-06-07T07:45:46Z</time>
      </trkpt>
      <trkpt lat="44.35124" lon="5.684">
        <ele>699</ele>
        <time>2019-06-07T07:45:47Z</time>
      </trkpt>
      <trkpt lat="44.35124" lon="5.68392">
        <ele>699</ele>
        <time>2019-06-07T07:45:48Z</time>
      </trkpt>
      <trkpt lat="44.35125" lon="5.68384">
        <ele>699</ele>
        <time>2019-06-07T07:45:49Z</time>
      </trkpt>
      <trkpt lat="44.35125" lon="5.68375">
        <ele>699</ele>
        <time>2019-06-07T07:45:50Z</time>
      </trkpt>
      <trkpt lat="44.35126" lon="5.68367">
        <ele>699</ele>
        <time>2019-06-07T07:45:51Z</time>
      </trkpt>
      <trkpt lat="44.35127" lon="5.6836">
        <ele>699</ele>
        <time>2019-06-07T07:45:52Z</time>
      </trkpt>
      <trkpt lat="44.35128" lon="5.68352">
        <ele>698</ele>
        <time>2019-06-07T07:45:53Z</time>
      </trkpt>
      <trkpt lat="44.3513" lon="5.68344">
        <ele>698</ele>
        <time>2019-06-07T07:45:54Z</time>
      </trkpt>
      <trkpt lat="44.35131" lon="5.68337">
        <ele>697</ele>
        <time>2019-06-07T07:45:55Z</time>
      </trkpt>
      <trkpt lat="44.35133" lon="5.6833">
        <ele>696</ele>
        <time>2019-06-07T07:45:56Z</time>
      </trkpt>
      <trkpt lat="44.35136" lon="5.68322">
        <ele>695</ele>
        <time>2019-06-07T07:45:57Z</time>
      </trkpt>
      <trkpt lat="44.35138" lon="5.68314">
        <ele>694</ele>
        <time>2019-06-07T07:45:59Z</time>
      </trkpt>
      <trkpt lat="44.35141" lon="5.68306">
        <ele>694</ele>
        <time>2019-06-07T07:45:59Z</time>
      </trkpt>
      <trkpt lat="44.35144" lon="5.68299">
        <ele>694</ele>
        <time>2019-06-07T07:46:00Z</time>
      </trkpt>
      <trkpt lat="44.35147" lon="5.68291">
        <ele>694</ele>
        <time>2019-06-07T07:46:01Z</time>
      </trkpt>
      <trkpt lat="44.3515" lon="5.68283">
        <ele>694</ele>
        <time>2019-06-07T07:46:02Z</time>
      </trkpt>
      <trkpt lat="44.35153" lon="5.68275">
        <ele>694</ele>
        <time>2019-06-07T07:46:03Z</time>
      </trkpt>
      <trkpt lat="44.35156" lon="5.68268">
        <ele>694</ele>
        <time>2019-06-07T07:46:04Z</time>
      </trkpt>
      <trkpt lat="44.35159" lon="5.6826">
        <ele>694</ele>
        <time>2019-06-07T07:46:05Z</time>
      </trkpt>
      <trkpt lat="44.35162" lon="5.68253">
        <ele>694</ele>
        <time>2019-06-07T07:46:06Z</time>
      </trkpt>
      <trkpt lat="44.35165" lon="5.68246">
        <ele>694</ele>
        <time>2019-06-07T07:46:07Z</time>
      </trkpt>
      <trkpt lat="44.35167" lon="5.68237">
        <ele>694</ele>
        <time>2019-06-07T07:46:08Z</time>
      </trkpt>
      <trkpt lat="44.3517" lon="5.6823">
        <ele>694</ele>
        <time>2019-06-07T07:46:09Z</time>
      </trkpt>
      <trkpt lat="44.35173" lon="5.68223">
        <ele>694</ele>
        <time>2019-06-07T07:46:10Z</time>
      </trkpt>
      <trkpt lat="44.35175" lon="5.68215">
        <ele>694</ele>
        <time>2019-06-07T07:46:11Z</time>
      </trkpt>
      <trkpt lat="44.35178" lon="5.68207">
        <ele>694</ele>
        <time>2019-06-07T07:46:12Z</time>
      </trkpt>
      <trkpt lat="44.3518" lon="5.68198">
        <ele>694</ele>
        <time>2019-06-07T07:46:13Z</time>
      </trkpt>
      <trkpt lat="44.35181" lon="5.6819">
        <ele>694</ele>
        <time>2019-06-07T07:46:14Z</time>
      </trkpt>
      <trkpt lat="44.35182" lon="5.68182">
        <ele>694</ele>
        <time>2019-06-07T07:46:15Z</time>
      </trkpt>
      <trkpt lat="44.35183" lon="5.68174">
        <ele>694</ele>
        <time>2019-06-07T07:46:16Z</time>
      </trkpt>
      <trkpt lat="44.35185" lon="5.68165">
        <ele>694</ele>
        <time>2019-06-07T07:46:17Z</time>
      </trkpt>
      <trkpt lat="44.35186" lon="5.68156">
        <ele>694</ele>
        <time>2019-06-07T07:46:18Z</time>
      </trkpt>
      <trkpt lat="44.35188" lon="5.68148">
        <ele>694</ele>
        <time>2019-06-07T07:46:19Z</time>
      </trkpt>
      <trkpt lat="44.35189" lon="5.6814">
        <ele>694</ele>
        <time>2019-06-07T07:46:20Z</time>
      </trkpt>
      <trkpt lat="44.35192" lon="5.68132">
        <ele>694</ele>
        <time>2019-06-07T07:46:21Z</time>
      </trkpt>
      <trkpt lat="44.35195" lon="5.68124">
        <ele>694</ele>
        <time>2019-06-07T07:46:22Z</time>
      </trkpt>
      <trkpt lat="44.35199" lon="5.68117">
        <ele>694</ele>
        <time>2019-06-07T07:46:23Z</time>
      </trkpt>
      <trkpt lat="44.35202" lon="5.68109">
        <ele>694</ele>
        <time>2019-06-07T07:46:24Z</time>
      </trkpt>
      <trkpt lat="44.35207" lon="5.68102">
        <ele>694</ele>
        <time>2019-06-07T07:46:25Z</time>
      </trkpt>
      <trkpt lat="44.35211" lon="5.68095">
        <ele>694</ele>
        <time>2019-06-07T07:46:26Z</time>
      </trkpt>
      <trkpt lat="44.35215" lon="5.68087">
        <ele>694</ele>
        <time>2019-06-07T07:46:27Z</time>
      </trkpt>
      <trkpt lat="44.35219" lon="5.6808">
        <ele>694</ele>
        <time>2019-06-07T07:46:28Z</time>
      </trkpt>
      <trkpt lat="44.35223" lon="5.68073">
        <ele>694</ele>
        <time>2019-06-07T07:46:29Z</time>
      </trkpt>
      <trkpt lat="44.35227" lon="5.68066">
        <ele>694</ele>
        <time>2019-06-07T07:46:30Z</time>
      </trkpt>
      <trkpt lat="44.35231" lon="5.68058">
        <ele>694</ele>
        <time>2019-06-07T07:46:31Z</time>
      </trkpt>
      <trkpt lat="44.35235" lon="5.68051">
        <ele>694</ele>
        <time>2019-06-07T07:46:32Z</time>
      </trkpt>
      <trkpt lat="44.35239" lon="5.68044">
        <ele>694</ele>
        <time>2019-06-07T07:46:33Z</time>
      </trkpt>
      <trkpt lat="44.35243" lon="5.68038">
        <ele>694</ele>
        <time>2019-06-07T07:46:34Z</time>
      </trkpt>
      <trkpt lat="44.35247" lon="5.6803">
        <ele>694</ele>
        <time>2019-06-07T07:46:35Z</time>
      </trkpt>
      <trkpt lat="44.35251" lon="5.68023">
        <ele>694</ele>
        <time>2019-06-07T07:46:36Z</time>
      </trkpt>
      <trkpt lat="44.35255" lon="5.68016">
        <ele>694</ele>
        <time>2019-06-07T07:46:37Z</time>
      </trkpt>
      <trkpt lat="44.3526" lon="5.68008">
        <ele>694</ele>
        <time>2019-06-07T07:46:38Z</time>
      </trkpt>
      <trkpt lat="44.35265" lon="5.68">
        <ele>694</ele>
        <time>2019-06-07T07:46:39Z</time>
      </trkpt>
      <trkpt lat="44.35269" lon="5.67992">
        <ele>694</ele>
        <time>2019-06-07T07:46:40Z</time>
      </trkpt>
      <trkpt lat="44.35274" lon="5.67984">
        <ele>694</ele>
        <time>2019-06-07T07:46:41Z</time>
      </trkpt>
      <trkpt lat="44.35278" lon="5.67976">
        <ele>694</ele>
        <time>2019-06-07T07:46:42Z</time>
      </trkpt>
      <trkpt lat="44.35283" lon="5.67968">
        <ele>694</ele>
        <time>2019-06-07T07:46:43Z</time>
      </trkpt>
      <trkpt lat="44.35288" lon="5.6796">
        <ele>694</ele>
        <time>2019-06-07T07:46:44Z</time>
      </trkpt>
      <trkpt lat="44.35292" lon="5.67952">
        <ele>694</ele>
        <time>2019-06-07T07:46:45Z</time>
      </trkpt>
      <trkpt lat="44.35297" lon="5.67943">
        <ele>694</ele>
        <time>2019-06-07T07:46:47Z</time>
      </trkpt>
      <trkpt lat="44.35301" lon="5.67935">
        <ele>694</ele>
        <time>2019-06-07T07:46:47Z</time>
      </trkpt>
      <trkpt lat="44.35305" lon="5.67926">
        <ele>694</ele>
        <time>2019-06-07T07:46:48Z</time>
      </trkpt>
      <trkpt lat="44.3531" lon="5.67918">
        <ele>694</ele>
        <time>2019-06-07T07:46:49Z</time>
      </trkpt>
      <trkpt lat="44.35313" lon="5.6791">
        <ele>694</ele>
        <time>2019-06-07T07:46:50Z</time>
      </trkpt>
      <trkpt lat="44.35317" lon="5.67902">
        <ele>694</ele>
        <time>2019-06-07T07:46:51Z</time>
      </trkpt>
      <trkpt lat="44.3532" lon="5.67893">
        <ele>694</ele>
        <time>2019-06-07T07:46:52Z</time>
      </trkpt>
      <trkpt lat="44.35323" lon="5.67884">
        <ele>694</ele>
        <time>2019-06-07T07:46:53Z</time>
      </trkpt>
      <trkpt lat="44.35325" lon="5.67876">
        <ele>694</ele>
        <time>2019-06-07T07:46:54Z</time>
      </trkpt>
      <trkpt lat="44.35326" lon="5.67867">
        <ele>694</ele>
        <time>2019-06-07T07:46:55Z</time>
      </trkpt>
      <trkpt lat="44.35327" lon="5.67858">
        <ele>694</ele>
        <time>2019-06-07T07:46:56Z</time>
      </trkpt>
      <trkpt lat="44.35327" lon="5.67849">
        <ele>694</ele>
        <time>2019-06-07T07:46:57Z</time>
      </trkpt>
      <trkpt lat="44.35327" lon="5.6784">
        <ele>694</ele>
        <time>2019-06-07T07:46:59Z</time>
      </trkpt>
      <trkpt lat="44.35326" lon="5.6783">
        <ele>694</ele>
        <time>2019-06-07T07:46:59Z</time>
      </trkpt>
      <trkpt lat="44.35326" lon="5.67821">
        <ele>694</ele>
        <time>2019-06-07T07:47:00Z</time>
      </trkpt>
      <trkpt lat="44.35325" lon="5.67811">
        <ele>694</ele>
        <time>2019-06-07T07:47:01Z</time>
      </trkpt>
      <trkpt lat="44.35324" lon="5.67802">
        <ele>694</ele>
        <time>2019-06-07T07:47:02Z</time>
      </trkpt>
      <trkpt lat="44.35323" lon="5.67792">
        <ele>694</ele>
        <time>2019-06-07T07:47:03Z</time>
      </trkpt>
      <trkpt lat="44.35322" lon="5.67783">
        <ele>694</ele>
        <time>2019-06-07T07:47:04Z</time>
      </trkpt>
      <trkpt lat="44.35321" lon="5.67773">
        <ele>694</ele>
        <time>2019-06-07T07:47:05Z</time>
      </trkpt>
      <trkpt lat="44.3532" lon="5.67763">
        <ele>694</ele>
        <time>2019-06-07T07:47:06Z</time>
      </trkpt>
      <trkpt lat="44.35319" lon="5.67754">
        <ele>694</ele>
        <time>2019-06-07T07:47:07Z</time>
      </trkpt>
      <trkpt lat="44.35318" lon="5.67744">
        <ele>694</ele>
        <time>2019-06-07T07:47:08Z</time>
      </trkpt>
      <trkpt lat="44.35318" lon="5.67735">
        <ele>695</ele>
        <time>2019-06-07T07:47:09Z</time>
      </trkpt>
      <trkpt lat="44.35316" lon="5.67726">
        <ele>695</ele>
        <time>2019-06-07T07:47:10Z</time>
      </trkpt>
      <trkpt lat="44.35315" lon="5.67716">
        <ele>696</ele>
        <time>2019-06-07T07:47:11Z</time>
      </trkpt>
      <trkpt lat="44.35315" lon="5.67707">
        <ele>696</ele>
        <time>2019-06-07T07:47:12Z</time>
      </trkpt>
      <trkpt lat="44.35315" lon="5.67698">
        <ele>697</ele>
        <time>2019-06-07T07:47:13Z</time>
      </trkpt>
      <trkpt lat="44.35316" lon="5.67689">
        <ele>697</ele>
        <time>2019-06-07T07:47:14Z</time>
      </trkpt>
      <trkpt lat="44.35318" lon="5.67681">
        <ele>697</ele>
        <time>2019-06-07T07:47:15Z</time>
      </trkpt>
      <trkpt lat="44.35321" lon="5.67672">
        <ele>697</ele>
        <time>2019-06-07T07:47:16Z</time>
      </trkpt>
      <trkpt lat="44.35323" lon="5.67664">
        <ele>697</ele>
        <time>2019-06-07T07:47:17Z</time>
      </trkpt>
      <trkpt lat="44.35326" lon="5.67656">
        <ele>697</ele>
        <time>2019-06-07T07:47:18Z</time>
      </trkpt>
      <trkpt lat="44.35329" lon="5.67647">
        <ele>697</ele>
        <time>2019-06-07T07:47:19Z</time>
      </trkpt>
      <trkpt lat="44.35333" lon="5.67639">
        <ele>697</ele>
        <time>2019-06-07T07:47:20Z</time>
      </trkpt>
      <trkpt lat="44.35337" lon="5.67632">
        <ele>698</ele>
        <time>2019-06-07T07:47:21Z</time>
      </trkpt>
      <trkpt lat="44.3534" lon="5.67624">
        <ele>698</ele>
        <time>2019-06-07T07:47:22Z</time>
      </trkpt>
      <trkpt lat="44.35344" lon="5.67617">
        <ele>698</ele>
        <time>2019-06-07T07:47:23Z</time>
      </trkpt>
      <trkpt lat="44.35348" lon="5.67609">
        <ele>699</ele>
        <time>2019-06-07T07:47:24Z</time>
      </trkpt>
      <trkpt lat="44.35352" lon="5.67602">
        <ele>699</ele>
        <time>2019-06-07T07:47:25Z</time>
      </trkpt>
      <trkpt lat="44.35356" lon="5.67594">
        <ele>699</ele>
        <time>2019-06-07T07:47:26Z</time>
      </trkpt>
      <trkpt lat="44.3536" lon="5.67587">
        <ele>699</ele>
        <time>2019-06-07T07:47:27Z</time>
      </trkpt>
      <trkpt lat="44.35364" lon="5.67579">
        <ele>699</ele>
        <time>2019-06-07T07:47:28Z</time>
      </trkpt>
      <trkpt lat="44.35368" lon="5.67572">
        <ele>699</ele>
        <time>2019-06-07T07:47:29Z</time>
      </trkpt>
      <trkpt lat="44.35372" lon="5.67564">
        <ele>699</ele>
        <time>2019-06-07T07:47:30Z</time>
      </trkpt>
      <trkpt lat="44.35376" lon="5.67556">
        <ele>699</ele>
        <time>2019-06-07T07:47:31Z</time>
      </trkpt>
      <trkpt lat="44.35379" lon="5.67549">
        <ele>699</ele>
        <time>2019-06-07T07:47:32Z</time>
      </trkpt>
      <trkpt lat="44.35383" lon="5.67542">
        <ele>699</ele>
        <time>2019-06-07T07:47:33Z</time>
      </trkpt>
      <trkpt lat="44.35387" lon="5.67534">
        <ele>699</ele>
        <time>2019-06-07T07:47:34Z</time>
      </trkpt>
      <trkpt lat="44.3539" lon="5.67526">
        <ele>699</ele>
        <time>2019-06-07T07:47:35Z</time>
      </trkpt>
      <trkpt lat="44.35393" lon="5.67519">
        <ele>699</ele>
        <time>2019-06-07T07:47:36Z</time>
      </trkpt>
      <trkpt lat="44.35396" lon="5.67511">
        <ele>699</ele>
        <time>2019-06-07T07:47:37Z</time>
      </trkpt>
      <trkpt lat="44.35399" lon="5.67503">
        <ele>699</ele>
        <time>2019-06-07T07:47:38Z</time>
      </trkpt>
      <trkpt lat="44.35402" lon="5.67495">
        <ele>699</ele>
        <time>2019-06-07T07:47:39Z</time>
      </trkpt>
      <trkpt lat="44.35404" lon="5.67487">
        <ele>699</ele>
        <time>2019-06-07T07:47:40Z</time>
      </trkpt>
      <trkpt lat="44.35406" lon="5.6748">
        <ele>699</ele>
        <time>2019-06-07T07:47:41Z</time>
      </trkpt>
      <trkpt lat="44.35408" lon="5.67472">
        <ele>699</ele>
        <time>2019-06-07T07:47:42Z</time>
      </trkpt>
      <trkpt lat="44.35411" lon="5.67464">
        <ele>699</ele>
        <time>2019-06-07T07:47:43Z</time>
      </trkpt>
      <trkpt lat="44.35413" lon="5.67456">
        <ele>699</ele>
        <time>2019-06-07T07:47:44Z</time>
      </trkpt>
      <trkpt lat="44.35415" lon="5.67448">
        <ele>699</ele>
        <time>2019-06-07T07:47:45Z</time>
      </trkpt>
      <trkpt lat="44.35417" lon="5.6744">
        <ele>699</ele>
        <time>2019-06-07T07:47:46Z</time>
      </trkpt>
      <trkpt lat="44.3542" lon="5.67432">
        <ele>699</ele>
        <time>2019-06-07T07:47:47Z</time>
      </trkpt>
      <trkpt lat="44.35422" lon="5.67425">
        <ele>699</ele>
        <time>2019-06-07T07:47:48Z</time>
      </trkpt>
      <trkpt lat="44.35424" lon="5.67417">
        <ele>699</ele>
        <time>2019-06-07T07:47:49Z</time>
      </trkpt>
      <trkpt lat="44.35426" lon="5.6741">
        <ele>699</ele>
        <time>2019-06-07T07:47:50Z</time>
      </trkpt>
      <trkpt lat="44.35428" lon="5.67402">
        <ele>699</ele>
        <time>2019-06-07T07:47:51Z</time>
      </trkpt>
      <trkpt lat="44.3543" lon="5.67394">
        <ele>699</ele>
        <time>2019-06-07T07:47:52Z</time>
      </trkpt>
      <trkpt lat="44.35431" lon="5.67386">
        <ele>699</ele>
        <time>2019-06-07T07:47:53Z</time>
      </trkpt>
      <trkpt lat="44.35432" lon="5.67378">
        <ele>699</ele>
        <time>2019-06-07T07:47:54Z</time>
      </trkpt>
      <trkpt lat="44.35433" lon="5.67369">
        <ele>699</ele>
        <time>2019-06-07T07:47:55Z</time>
      </trkpt>
      <trkpt lat="44.35433" lon="5.67361">
        <ele>699</ele>
        <time>2019-06-07T07:47:56Z</time>
      </trkpt>
      <trkpt lat="44.35433" lon="5.67352">
        <ele>699</ele>
        <time>2019-06-07T07:47:57Z</time>
      </trkpt>
      <trkpt lat="44.35433" lon="5.67344">
        <ele>699</ele>
        <time>2019-06-07T07:47:59Z</time>
      </trkpt>
      <trkpt lat="44.35434" lon="5.67335">
        <ele>699</ele>
        <time>2019-06-07T07:47:59Z</time>
      </trkpt>
      <trkpt lat="44.35434" lon="5.67326">
        <ele>699</ele>
        <time>2019-06-07T07:48:00Z</time>
      </trkpt>
      <trkpt lat="44.35435" lon="5.67318">
        <ele>699</ele>
        <time>2019-06-07T07:48:01Z</time>
      </trkpt>
      <trkpt lat="44.35437" lon="5.6731">
        <ele>699</ele>
        <time>2019-06-07T07:48:02Z</time>
      </trkpt>
      <trkpt lat="44.35439" lon="5.67301">
        <ele>699</ele>
        <time>2019-06-07T07:48:03Z</time>
      </trkpt>
      <trkpt lat="44.35442" lon="5.67293">
        <ele>699</ele>
        <time>2019-06-07T07:48:04Z</time>
      </trkpt>
      <trkpt lat="44.35445" lon="5.67286">
        <ele>699</ele>
        <time>2019-06-07T07:48:05Z</time>
      </trkpt>
      <trkpt lat="44.35448" lon="5.67278">
        <ele>699</ele>
        <time>2019-06-07T07:48:06Z</time>
      </trkpt>
      <trkpt lat="44.35451" lon="5.67271">
        <ele>700</ele>
        <time>2019-06-07T07:48:07Z</time>
      </trkpt>
      <trkpt lat="44.35455" lon="5.67264">
        <ele>700</ele>
        <time>2019-06-07T07:48:08Z</time>
      </trkpt>
      <trkpt lat="44.35459" lon="5.67257">
        <ele>700</ele>
        <time>2019-06-07T07:48:09Z</time>
      </trkpt>
      <trkpt lat="44.35462" lon="5.67249">
        <ele>700</ele>
        <time>2019-06-07T07:48:10Z</time>
      </trkpt>
      <trkpt lat="44.35466" lon="5.67243">
        <ele>700</ele>
        <time>2019-06-07T07:48:11Z</time>
      </trkpt>
      <trkpt lat="44.3547" lon="5.67236">
        <ele>700</ele>
        <time>2019-06-07T07:48:12Z</time>
      </trkpt>
      <trkpt lat="44.35475" lon="5.6723">
        <ele>700</ele>
        <time>2019-06-07T07:48:13Z</time>
      </trkpt>
      <trkpt lat="44.35479" lon="5.67223">
        <ele>700</ele>
        <time>2019-06-07T07:48:14Z</time>
      </trkpt>
      <trkpt lat="44.35483" lon="5.67217">
        <ele>700</ele>
        <time>2019-06-07T07:48:15Z</time>
      </trkpt>
      <trkpt lat="44.35488" lon="5.67211">
        <ele>700</ele>
        <time>2019-06-07T07:48:16Z</time>
      </trkpt>
      <trkpt lat="44.35492" lon="5.67205">
        <ele>700</ele>
        <time>2019-06-07T07:48:17Z</time>
      </trkpt>
      <trkpt lat="44.35496" lon="5.672">
        <ele>700</ele>
        <time>2019-06-07T07:48:18Z</time>
      </trkpt>
      <trkpt lat="44.355" lon="5.67194">
        <ele>700</ele>
        <time>2019-06-07T07:48:19Z</time>
      </trkpt>
      <trkpt lat="44.35504" lon="5.67188">
        <ele>700</ele>
        <time>2019-06-07T07:48:20Z</time>
      </trkpt>
      <trkpt lat="44.35508" lon="5.67181">
        <ele>701</ele>
        <time>2019-06-07T07:48:21Z</time>
      </trkpt>
      <trkpt lat="44.35511" lon="5.67175">
        <ele>701</ele>
        <time>2019-06-07T07:48:22Z</time>
      </trkpt>
      <trkpt lat="44.35515" lon="5.67168">
        <ele>701</ele>
        <time>2019-06-07T07:48:23Z</time>
      </trkpt>
      <trkpt lat="44.35518" lon="5.67161">
        <ele>701</ele>
        <time>2019-06-07T07:48:24Z</time>
      </trkpt>
      <trkpt lat="44.35521" lon="5.67154">
        <ele>701</ele>
        <time>2019-06-07T07:48:25Z</time>
      </trkpt>
      <trkpt lat="44.35523" lon="5.67146">
        <ele>702</ele>
        <time>2019-06-07T07:48:26Z</time>
      </trkpt>
      <trkpt lat="44.35525" lon="5.67138">
        <ele>702</ele>
        <time>2019-06-07T07:48:27Z</time>
      </trkpt>
      <trkpt lat="44.35527" lon="5.6713">
        <ele>702</ele>
        <time>2019-06-07T07:48:28Z</time>
      </trkpt>
      <trkpt lat="44.35529" lon="5.67122">
        <ele>702</ele>
        <time>2019-06-07T07:48:29Z</time>
      </trkpt>
      <trkpt lat="44.35531" lon="5.67113">
        <ele>702</ele>
        <time>2019-06-07T07:48:30Z</time>
      </trkpt>
      <trkpt lat="44.35532" lon="5.67104">
        <ele>702</ele>
        <time>2019-06-07T07:48:31Z</time>
      </trkpt>
      <trkpt lat="44.35533" lon="5.67095">
        <ele>703</ele>
        <time>2019-06-07T07:48:32Z</time>
      </trkpt>
      <trkpt lat="44.35534" lon="5.67086">
        <ele>703</ele>
        <time>2019-06-07T07:48:33Z</time>
      </trkpt>
      <trkpt lat="44.35535" lon="5.67077">
        <ele>703</ele>
        <time>2019-06-07T07:48:34Z</time>
      </trkpt>
      <trkpt lat="44.35535" lon="5.67068">
        <ele>703</ele>
        <time>2019-06-07T07:48:35Z</time>
      </trkpt>
      <trkpt lat="44.35535" lon="5.67059">
        <ele>703</ele>
        <time>2019-06-07T07:48:36Z</time>
      </trkpt>
      <trkpt lat="44.35535" lon="5.6705">
        <ele>703</ele>
        <time>2019-06-07T07:48:37Z</time>
      </trkpt>
      <trkpt lat="44.35534" lon="5.67041">
        <ele>703</ele>
        <time>2019-06-07T07:48:38Z</time>
      </trkpt>
      <trkpt lat="44.35533" lon="5.67032">
        <ele>703</ele>
        <time>2019-06-07T07:48:39Z</time>
      </trkpt>
      <trkpt lat="44.35533" lon="5.67023">
        <ele>703</ele>
        <time>2019-06-07T07:48:40Z</time>
      </trkpt>
      <trkpt lat="44.35531" lon="5.67014">
        <ele>703</ele>
        <time>2019-06-07T07:48:41Z</time>
      </trkpt>
      <trkpt lat="44.35529" lon="5.67005">
        <ele>703</ele>
        <time>2019-06-07T07:48:42Z</time>
      </trkpt>
      <trkpt lat="44.35527" lon="5.66997">
        <ele>703</ele>
        <time>2019-06-07T07:48:43Z</time>
      </trkpt>
      <trkpt lat="44.35524" lon="5.66989">
        <ele>703</ele>
        <time>2019-06-07T07:48:44Z</time>
      </trkpt>
      <trkpt lat="44.3552" lon="5.66981">
        <ele>703</ele>
        <time>2019-06-07T07:48:45Z</time>
      </trkpt>
      <trkpt lat="44.35516" lon="5.66973">
        <ele>703</ele>
        <time>2019-06-07T07:48:46Z</time>
      </trkpt>
      <trkpt lat="44.35512" lon="5.66965">
        <ele>703</ele>
        <time>2019-06-07T07:48:47Z</time>
      </trkpt>
      <trkpt lat="44.35508" lon="5.66958">
        <ele>703</ele>
        <time>2019-06-07T07:48:48Z</time>
      </trkpt>
      <trkpt lat="44.35503" lon="5.6695">
        <ele>703</ele>
        <time>2019-06-07T07:48:49Z</time>
      </trkpt>
      <trkpt lat="44.35499" lon="5.66942">
        <ele>703</ele>
        <time>2019-06-07T07:48:50Z</time>
      </trkpt>
      <trkpt lat="44.35495" lon="5.66935">
        <ele>704</ele>
        <time>2019-06-07T07:48:51Z</time>
      </trkpt>
      <trkpt lat="44.35491" lon="5.66927">
        <ele>704</ele>
        <time>2019-06-07T07:48:52Z</time>
      </trkpt>
      <trkpt lat="44.35487" lon="5.6692">
        <ele>704</ele>
        <time>2019-06-07T07:48:53Z</time>
      </trkpt>
      <trkpt lat="44.35484" lon="5.66911">
        <ele>705</ele>
        <time>2019-06-07T07:48:54Z</time>
      </trkpt>
      <trkpt lat="44.3548" lon="5.66901">
        <ele>706</ele>
        <time>2019-06-07T07:48:55Z</time>
      </trkpt>
      <trkpt lat="44.35477" lon="5.66892">
        <ele>707</ele>
        <time>2019-06-07T07:48:56Z</time>
      </trkpt>
      <trkpt lat="44.35474" lon="5.66882">
        <ele>708</ele>
        <time>2019-06-07T07:48:57Z</time>
      </trkpt>
      <trkpt lat="44.35471" lon="5.66873">
        <ele>709</ele>
        <time>2019-06-07T07:48:59Z</time>
      </trkpt>
      <trkpt lat="44.35469" lon="5.66864">
        <ele>710</ele>
        <time>2019-06-07T07:48:59Z</time>
      </trkpt>
      <trkpt lat="44.35467" lon="5.66855">
        <ele>711</ele>
        <time>2019-06-07T07:49:00Z</time>
      </trkpt>
      <trkpt lat="44.35465" lon="5.66847">
        <ele>712</ele>
        <time>2019-06-07T07:49:01Z</time>
      </trkpt>
      <trkpt lat="44.35463" lon="5.66839">
        <ele>713</ele>
        <time>2019-06-07T07:49:02Z</time>
      </trkpt>
      <trkpt lat="44.35462" lon="5.6683">
        <ele>714</ele>
        <time>2019-06-07T07:49:03Z</time>
      </trkpt>
      <trkpt lat="44.3546" lon="5.66822">
        <ele>715</ele>
        <time>2019-06-07T07:49:04Z</time>
      </trkpt>
      <trkpt lat="44.35459" lon="5.66814">
        <ele>715</ele>
        <time>2019-06-07T07:49:05Z</time>
      </trkpt>
      <trkpt lat="44.35458" lon="5.66806">
        <ele>715</ele>
        <time>2019-06-07T07:49:06Z</time>
      </trkpt>
      <trkpt lat="44.35456" lon="5.66797">
        <ele>715</ele>
        <time>2019-06-07T07:49:07Z</time>
      </trkpt>
      <trkpt lat="44.35455" lon="5.66788">
        <ele>715</ele>
        <time>2019-06-07T07:49:08Z</time>
      </trkpt>
      <trkpt lat="44.35455" lon="5.6678">
        <ele>715</ele>
        <time>2019-06-07T07:49:09Z</time>
      </trkpt>
      <trkpt lat="44.35455" lon="5.66771">
        <ele>715</ele>
        <time>2019-06-07T07:49:10Z</time>
      </trkpt>
      <trkpt lat="44.35456" lon="5.66762">
        <ele>715</ele>
        <time>2019-06-07T07:49:11Z</time>
      </trkpt>
      <trkpt lat="44.35457" lon="5.66753">
        <ele>715</ele>
        <time>2019-06-07T07:49:12Z</time>
      </trkpt>
      <trkpt lat="44.35458" lon="5.66744">
        <ele>715</ele>
        <time>2019-06-07T07:49:13Z</time>
      </trkpt>
      <trkpt lat="44.3546" lon="5.66736">
        <ele>715</ele>
        <time>2019-06-07T07:49:14Z</time>
      </trkpt>
      <trkpt lat="44.35462" lon="5.66728">
        <ele>715</ele>
        <time>2019-06-07T07:49:15Z</time>
      </trkpt>
      <trkpt lat="44.35464" lon="5.6672">
        <ele>715</ele>
        <time>2019-06-07T07:49:16Z</time>
      </trkpt>
      <trkpt lat="44.35466" lon="5.66712">
        <ele>715</ele>
        <time>2019-06-07T07:49:17Z</time>
      </trkpt>
      <trkpt lat="44.35469" lon="5.66705">
        <ele>715</ele>
        <time>2019-06-07T07:49:18Z</time>
      </trkpt>
      <trkpt lat="44.35471" lon="5.66696">
        <ele>715</ele>
        <time>2019-06-07T07:49:19Z</time>
      </trkpt>
      <trkpt lat="44.35474" lon="5.66689">
        <ele>715</ele>
        <time>2019-06-07T07:49:20Z</time>
      </trkpt>
      <trkpt lat="44.35476" lon="5.66681">
        <ele>715</ele>
        <time>2019-06-07T07:49:21Z</time>
      </trkpt>
      <trkpt lat="44.3548" lon="5.66674">
        <ele>715</ele>
        <time>2019-06-07T07:49:22Z</time>
      </trkpt>
      <trkpt lat="44.35483" lon="5.66667">
        <ele>715</ele>
        <time>2019-06-07T07:49:23Z</time>
      </trkpt>
      <trkpt lat="44.35486" lon="5.66659">
        <ele>715</ele>
        <time>2019-06-07T07:49:24Z</time>
      </trkpt>
      <trkpt lat="44.35489" lon="5.66651">
        <ele>715</ele>
        <time>2019-06-07T07:49:25Z</time>
      </trkpt>
      <trkpt lat="44.35493" lon="5.66644">
        <ele>715</ele>
        <time>2019-06-07T07:49:26Z</time>
      </trkpt>
      <trkpt lat="44.35496" lon="5.66637">
        <ele>715</ele>
        <time>2019-06-07T07:49:27Z</time>
      </trkpt>
      <trkpt lat="44.355" lon="5.6663">
        <ele>715</ele>
        <time>2019-06-07T07:49:28Z</time>
      </trkpt>
      <trkpt lat="44.35503" lon="5.66624">
        <ele>715</ele>
        <time>2019-06-07T07:49:29Z</time>
      </trkpt>
      <trkpt lat="44.35507" lon="5.66617">
        <ele>715</ele>
        <time>2019-06-07T07:49:30Z</time>
      </trkpt>
      <trkpt lat="44.3551" lon="5.66611">
        <ele>715</ele>
        <time>2019-06-07T07:49:31Z</time>
      </trkpt>
      <trkpt lat="44.35514" lon="5.66605">
        <ele>715</ele>
        <time>2019-06-07T07:49:32Z</time>
      </trkpt>
      <trkpt lat="44.35518" lon="5.66598">
        <ele>715</ele>
        <time>2019-06-07T07:49:33Z</time>
      </trkpt>
      <trkpt lat="44.35522" lon="5.66591">
        <ele>715</ele>
        <time>2019-06-07T07:49:34Z</time>
      </trkpt>
      <trkpt lat="44.35526" lon="5.66585">
        <ele>715</ele>
        <time>2019-06-07T07:49:35Z</time>
      </trkpt>
      <trkpt lat="44.35529" lon="5.66579">
        <ele>715</ele>
        <time>2019-06-07T07:49:36Z</time>
      </trkpt>
      <trkpt lat="44.35533" lon="5.66573">
        <ele>715</ele>
        <time>2019-06-07T07:49:37Z</time>
      </trkpt>
      <trkpt lat="44.35537" lon="5.66568">
        <ele>715</ele>
        <time>2019-06-07T07:49:38Z</time>
      </trkpt>
      <trkpt lat="44.35541" lon="5.66562">
        <ele>715</ele>
        <time>2019-06-07T07:49:39Z</time>
      </trkpt>
      <trkpt lat="44.35545" lon="5.66555">
        <ele>715</ele>
        <time>2019-06-07T07:49:40Z</time>
      </trkpt>
      <trkpt lat="44.35549" lon="5.66549">
        <ele>715</ele>
        <time>2019-06-07T07:49:41Z</time>
      </trkpt>
      <trkpt lat="44.35553" lon="5.66543">
        <ele>715</ele>
        <time>2019-06-07T07:49:42Z</time>
      </trkpt>
      <trkpt lat="44.35556" lon="5.66537">
        <ele>715</ele>
        <time>2019-06-07T07:49:43Z</time>
      </trkpt>
      <trkpt lat="44.3556" lon="5.66529">
        <ele>715</ele>
        <time>2019-06-07T07:49:44Z</time>
      </trkpt>
      <trkpt lat="44.35563" lon="5.66521">
        <ele>715</ele>
        <time>2019-06-07T07:49:45Z</time>
      </trkpt>
      <trkpt lat="44.35566" lon="5.66512">
        <ele>715</ele>
        <time>2019-06-07T07:49:46Z</time>
      </trkpt>
      <trkpt lat="44.35568" lon="5.66504">
        <ele>715</ele>
        <time>2019-06-07T07:49:47Z</time>
      </trkpt>
      <trkpt lat="44.35571" lon="5.66495">
        <ele>715</ele>
        <time>2019-06-07T07:49:48Z</time>
      </trkpt>
      <trkpt lat="44.35573" lon="5.66486">
        <ele>715</ele>
        <time>2019-06-07T07:49:49Z</time>
      </trkpt>
      <trkpt lat="44.35576" lon="5.66477">
        <ele>715</ele>
        <time>2019-06-07T07:49:50Z</time>
      </trkpt>
      <trkpt lat="44.35579" lon="5.66469">
        <ele>715</ele>
        <time>2019-06-07T07:49:51Z</time>
      </trkpt>
      <trkpt lat="44.35582" lon="5.6646">
        <ele>716</ele>
        <time>2019-06-07T07:49:52Z</time>
      </trkpt>
      <trkpt lat="44.35584" lon="5.66452">
        <ele>716</ele>
        <time>2019-06-07T07:49:53Z</time>
      </trkpt>
      <trkpt lat="44.35586" lon="5.66443">
        <ele>716</ele>
        <time>2019-06-07T07:49:54Z</time>
      </trkpt>
      <trkpt lat="44.35588" lon="5.66435">
        <ele>716</ele>
        <time>2019-06-07T07:49:55Z</time>
      </trkpt>
      <trkpt lat="44.35591" lon="5.66426">
        <ele>716</ele>
        <time>2019-06-07T07:49:56Z</time>
      </trkpt>
      <trkpt lat="44.35593" lon="5.66418">
        <ele>717</ele>
        <time>2019-06-07T07:49:57Z</time>
      </trkpt>
      <trkpt lat="44.35595" lon="5.6641">
        <ele>717</ele>
        <time>2019-06-07T07:49:59Z</time>
      </trkpt>
      <trkpt lat="44.35598" lon="5.66402">
        <ele>718</ele>
        <time>2019-06-07T07:49:59Z</time>
      </trkpt>
      <trkpt lat="44.35601" lon="5.66395">
        <ele>718</ele>
        <time>2019-06-07T07:50:00Z</time>
      </trkpt>
      <trkpt lat="44.35603" lon="5.66387">
        <ele>718</ele>
        <time>2019-06-07T07:50:01Z</time>
      </trkpt>
      <trkpt lat="44.35606" lon="5.66379">
        <ele>718</ele>
        <time>2019-06-07T07:50:02Z</time>
      </trkpt>
      <trkpt lat="44.35608" lon="5.66372">
        <ele>718</ele>
        <time>2019-06-07T07:50:03Z</time>
      </trkpt>
      <trkpt lat="44.35611" lon="5.66364">
        <ele>718</ele>
        <time>2019-06-07T07:50:04Z</time>
      </trkpt>
      <trkpt lat="44.35614" lon="5.66357">
        <ele>718</ele>
        <time>2019-06-07T07:50:05Z</time>
      </trkpt>
      <trkpt lat="44.35617" lon="5.66351">
        <ele>718</ele>
        <time>2019-06-07T07:50:06Z</time>
      </trkpt>
      <trkpt lat="44.35619" lon="5.66344">
        <ele>718</ele>
        <time>2019-06-07T07:50:07Z</time>
      </trkpt>
      <trkpt lat="44.35622" lon="5.66338">
        <ele>718</ele>
        <time>2019-06-07T07:50:08Z</time>
      </trkpt>
      <trkpt lat="44.35625" lon="5.66331">
        <ele>718</ele>
        <time>2019-06-07T07:50:09Z</time>
      </trkpt>
      <trkpt lat="44.35629" lon="5.66325">
        <ele>718</ele>
        <time>2019-06-07T07:50:10Z</time>
      </trkpt>
      <trkpt lat="44.35632" lon="5.66317">
        <ele>718</ele>
        <time>2019-06-07T07:50:11Z</time>
      </trkpt>
      <trkpt lat="44.35635" lon="5.66311">
        <ele>718</ele>
        <time>2019-06-07T07:50:12Z</time>
      </trkpt>
      <trkpt lat="44.35638" lon="5.66304">
        <ele>718</ele>
        <time>2019-06-07T07:50:13Z</time>
      </trkpt>
      <trkpt lat="44.35642" lon="5.66296">
        <ele>718</ele>
        <time>2019-06-07T07:50:14Z</time>
      </trkpt>
      <trkpt lat="44.35645" lon="5.6629">
        <ele>718</ele>
        <time>2019-06-07T07:50:15Z</time>
      </trkpt>
      <trkpt lat="44.35648" lon="5.66283">
        <ele>718</ele>
        <time>2019-06-07T07:50:16Z</time>
      </trkpt>
      <trkpt lat="44.35651" lon="5.66275">
        <ele>718</ele>
        <time>2019-06-07T07:50:17Z</time>
      </trkpt>
      <trkpt lat="44.35655" lon="5.66267">
        <ele>718</ele>
        <time>2019-06-07T07:50:18Z</time>
      </trkpt>
      <trkpt lat="44.35658" lon="5.6626">
        <ele>718</ele>
        <time>2019-06-07T07:50:19Z</time>
      </trkpt>
      <trkpt lat="44.35661" lon="5.66253">
        <ele>718</ele>
        <time>2019-06-07T07:50:20Z</time>
      </trkpt>
      <trkpt lat="44.35664" lon="5.66246">
        <ele>718</ele>
        <time>2019-06-07T07:50:21Z</time>
      </trkpt>
      <trkpt lat="44.35667" lon="5.6624">
        <ele>718</ele>
        <time>2019-06-07T07:50:22Z</time>
      </trkpt>
      <trkpt lat="44.3567" lon="5.66233">
        <ele>718</ele>
        <time>2019-06-07T07:50:23Z</time>
      </trkpt>
      <trkpt lat="44.35672" lon="5.66227">
        <ele>718</ele>
        <time>2019-06-07T07:50:24Z</time>
      </trkpt>
      <trkpt lat="44.35675" lon="5.6622">
        <ele>718</ele>
        <time>2019-06-07T07:50:25Z</time>
      </trkpt>
      <trkpt lat="44.35678" lon="5.66214">
        <ele>718</ele>
        <time>2019-06-07T07:50:26Z</time>
      </trkpt>
      <trkpt lat="44.35681" lon="5.66207">
        <ele>718</ele>
        <time>2019-06-07T07:50:27Z</time>
      </trkpt>
      <trkpt lat="44.35684" lon="5.662">
        <ele>718</ele>
        <time>2019-06-07T07:50:28Z</time>
      </trkpt>
      <trkpt lat="44.35686" lon="5.66193">
        <ele>718</ele>
        <time>2019-06-07T07:50:29Z</time>
      </trkpt>
      <trkpt lat="44.35689" lon="5.66186">
        <ele>718</ele>
        <time>2019-06-07T07:50:30Z</time>
      </trkpt>
      <trkpt lat="44.35692" lon="5.6618">
        <ele>718</ele>
        <time>2019-06-07T07:50:31Z</time>
      </trkpt>
      <trkpt lat="44.35695" lon="5.66173">
        <ele>718</ele>
        <time>2019-06-07T07:50:32Z</time>
      </trkpt>
      <trkpt lat="44.35698" lon="5.66166">
        <ele>718</ele>
        <time>2019-06-07T07:50:33Z</time>
      </trkpt>
      <trkpt lat="44.357" lon="5.66159">
        <ele>719</ele>
        <time>2019-06-07T07:50:34Z</time>
      </trkpt>
      <trkpt lat="44.35702" lon="5.66152">
        <ele>719</ele>
        <time>2019-06-07T07:50:35Z</time>
      </trkpt>
      <trkpt lat="44.35704" lon="5.66145">
        <ele>719</ele>
        <time>2019-06-07T07:50:36Z</time>
      </trkpt>
      <trkpt lat="44.35707" lon="5.66138">
        <ele>720</ele>
        <time>2019-06-07T07:50:37Z</time>
      </trkpt>
      <trkpt lat="44.35709" lon="5.6613">
        <ele>720</ele>
        <time>2019-06-07T07:50:38Z</time>
      </trkpt>
      <trkpt lat="44.35711" lon="5.66123">
        <ele>720</ele>
        <time>2019-06-07T07:50:39Z</time>
      </trkpt>
      <trkpt lat="44.35713" lon="5.66116">
        <ele>721</ele>
        <time>2019-06-07T07:50:40Z</time>
      </trkpt>
      <trkpt lat="44.35715" lon="5.66108">
        <ele>721</ele>
        <time>2019-06-07T07:50:41Z</time>
      </trkpt>
      <trkpt lat="44.35717" lon="5.661">
        <ele>721</ele>
        <time>2019-06-07T07:50:42Z</time>
      </trkpt>
      <trkpt lat="44.35719" lon="5.66094">
        <ele>721</ele>
        <time>2019-06-07T07:50:43Z</time>
      </trkpt>
      <trkpt lat="44.35722" lon="5.66086">
        <ele>721</ele>
        <time>2019-06-07T07:50:44Z</time>
      </trkpt>
      <trkpt lat="44.35724" lon="5.66078">
        <ele>721</ele>
        <time>2019-06-07T07:50:45Z</time>
      </trkpt>
      <trkpt lat="44.35726" lon="5.6607">
        <ele>721</ele>
        <time>2019-06-07T07:50:46Z</time>
      </trkpt>
      <trkpt lat="44.35729" lon="5.66062">
        <ele>721</ele>
        <time>2019-06-07T07:50:47Z</time>
      </trkpt>
      <trkpt lat="44.35732" lon="5.66054">
        <ele>721</ele>
        <time>2019-06-07T07:50:48Z</time>
      </trkpt>
      <trkpt lat="44.35734" lon="5.66046">
        <ele>721</ele>
        <time>2019-06-07T07:50:49Z</time>
      </trkpt>
      <trkpt lat="44.35737" lon="5.66038">
        <ele>721</ele>
        <time>2019-06-07T07:50:50Z</time>
      </trkpt>
      <trkpt lat="44.3574" lon="5.66031">
        <ele>721</ele>
        <time>2019-06-07T07:50:51Z</time>
      </trkpt>
      <trkpt lat="44.35743" lon="5.66023">
        <ele>721</ele>
        <time>2019-06-07T07:50:52Z</time>
      </trkpt>
      <trkpt lat="44.35746" lon="5.66016">
        <ele>721</ele>
        <time>2019-06-07T07:50:53Z</time>
      </trkpt>
      <trkpt lat="44.3575" lon="5.66008">
        <ele>721</ele>
        <time>2019-06-07T07:50:54Z</time>
      </trkpt>
      <trkpt lat="44.35753" lon="5.66001">
        <ele>721</ele>
        <time>2019-06-07T07:50:55Z</time>
      </trkpt>
      <trkpt lat="44.35757" lon="5.65993">
        <ele>721</ele>
        <time>2019-06-07T07:50:56Z</time>
      </trkpt>
      <trkpt lat="44.3576" lon="5.65986">
        <ele>721</ele>
        <time>2019-06-07T07:50:57Z</time>
      </trkpt>
      <trkpt lat="44.35764" lon="5.65979">
        <ele>721</ele>
        <time>2019-06-07T07:50:59Z</time>
      </trkpt>
      <trkpt lat="44.35767" lon="5.65972">
        <ele>721</ele>
        <time>2019-06-07T07:50:59Z</time>
      </trkpt>
      <trkpt lat="44.35771" lon="5.65965">
        <ele>721</ele>
        <time>2019-06-07T07:51:00Z</time>
      </trkpt>
      <trkpt lat="44.35775" lon="5.65958">
        <ele>721</ele>
        <time>2019-06-07T07:51:01Z</time>
      </trkpt>
      <trkpt lat="44.35778" lon="5.65951">
        <ele>721</ele>
        <time>2019-06-07T07:51:02Z</time>
      </trkpt>
      <trkpt lat="44.35781" lon="5.65943">
        <ele>721</ele>
        <time>2019-06-07T07:51:03Z</time>
      </trkpt>
      <trkpt lat="44.35784" lon="5.65936">
        <ele>721</ele>
        <time>2019-06-07T07:51:04Z</time>
      </trkpt>
      <trkpt lat="44.35787" lon="5.65929">
        <ele>721</ele>
        <time>2019-06-07T07:51:05Z</time>
      </trkpt>
      <trkpt lat="44.3579" lon="5.65921">
        <ele>721</ele>
        <time>2019-06-07T07:51:06Z</time>
      </trkpt>
      <trkpt lat="44.35794" lon="5.65914">
        <ele>721</ele>
        <time>2019-06-07T07:51:07Z</time>
      </trkpt>
      <trkpt lat="44.35796" lon="5.65906">
        <ele>721</ele>
        <time>2019-06-07T07:51:08Z</time>
      </trkpt>
      <trkpt lat="44.35799" lon="5.65898">
        <ele>721</ele>
        <time>2019-06-07T07:51:09Z</time>
      </trkpt>
      <trkpt lat="44.35801" lon="5.6589">
        <ele>721</ele>
        <time>2019-06-07T07:51:10Z</time>
      </trkpt>
      <trkpt lat="44.35803" lon="5.65881">
        <ele>721</ele>
        <time>2019-06-07T07:51:11Z</time>
      </trkpt>
      <trkpt lat="44.35805" lon="5.65873">
        <ele>721</ele>
        <time>2019-06-07T07:51:12Z</time>
      </trkpt>
      <trkpt lat="44.35806" lon="5.65864">
        <ele>721</ele>
        <time>2019-06-07T07:51:13Z</time>
      </trkpt>
      <trkpt lat="44.35808" lon="5.65856">
        <ele>721</ele>
        <time>2019-06-07T07:51:14Z</time>
      </trkpt>
      <trkpt lat="44.35809" lon="5.65847">
        <ele>721</ele>
        <time>2019-06-07T07:51:15Z</time>
      </trkpt>
      <trkpt lat="44.35811" lon="5.65838">
        <ele>721</ele>
        <time>2019-06-07T07:51:16Z</time>
      </trkpt>
      <trkpt lat="44.35812" lon="5.6583">
        <ele>721</ele>
        <time>2019-06-07T07:51:17Z</time>
      </trkpt>
      <trkpt lat="44.35813" lon="5.65821">
        <ele>721</ele>
        <time>2019-06-07T07:51:18Z</time>
      </trkpt>
      <trkpt lat="44.35814" lon="5.65812">
        <ele>721</ele>
        <time>2019-06-07T07:51:19Z</time>
      </trkpt>
      <trkpt lat="44.35815" lon="5.65804">
        <ele>721</ele>
        <time>2019-06-07T07:51:20Z</time>
      </trkpt>
      <trkpt lat="44.35816" lon="5.65796">
        <ele>721</ele>
        <time>2019-06-07T07:51:21Z</time>
      </trkpt>
      <trkpt lat="44.35817" lon="5.65787">
        <ele>721</ele>
        <time>2019-06-07T07:51:22Z</time>
      </trkpt>
      <trkpt lat="44.35819" lon="5.65778">
        <ele>721</ele>
        <time>2019-06-07T07:51:23Z</time>
      </trkpt>
      <trkpt lat="44.3582" lon="5.6577">
        <ele>721</ele>
        <time>2019-06-07T07:51:24Z</time>
      </trkpt>
      <trkpt lat="44.35822" lon="5.65761">
        <ele>721</ele>
        <time>2019-06-07T07:51:25Z</time>
      </trkpt>
      <trkpt lat="44.35823" lon="5.65753">
        <ele>721</ele>
        <time>2019-06-07T07:51:26Z</time>
      </trkpt>
      <trkpt lat="44.35824" lon="5.65744">
        <ele>721</ele>
        <time>2019-06-07T07:51:27Z</time>
      </trkpt>
      <trkpt lat="44.35825" lon="5.65735">
        <ele>721</ele>
        <time>2019-06-07T07:51:28Z</time>
      </trkpt>
      <trkpt lat="44.35827" lon="5.65727">
        <ele>721</ele>
        <time>2019-06-07T07:51:29Z</time>
      </trkpt>
      <trkpt lat="44.35829" lon="5.65718">
        <ele>721</ele>
        <time>2019-06-07T07:51:30Z</time>
      </trkpt>
      <trkpt lat="44.3583" lon="5.65709">
        <ele>721</ele>
        <time>2019-06-07T07:51:31Z</time>
      </trkpt>
      <trkpt lat="44.35832" lon="5.65701">
        <ele>721</ele>
        <time>2019-06-07T07:51:32Z</time>
      </trkpt>
      <trkpt lat="44.35833" lon="5.65692">
        <ele>721</ele>
        <time>2019-06-07T07:51:33Z</time>
      </trkpt>
      <trkpt lat="44.35834" lon="5.65684">
        <ele>721</ele>
        <time>2019-06-07T07:51:34Z</time>
      </trkpt>
      <trkpt lat="44.35835" lon="5.65676">
        <ele>721</ele>
        <time>2019-06-07T07:51:35Z</time>
      </trkpt>
      <trkpt lat="44.35836" lon="5.65666">
        <ele>721</ele>
        <time>2019-06-07T07:51:36Z</time>
      </trkpt>
      <trkpt lat="44.35837" lon="5.65658">
        <ele>721</ele>
        <time>2019-06-07T07:51:37Z</time>
      </trkpt>
      <trkpt lat="44.35838" lon="5.65649">
        <ele>721</ele>
        <time>2019-06-07T07:51:38Z</time>
      </trkpt>
      <trkpt lat="44.35839" lon="5.6564">
        <ele>721</ele>
        <time>2019-06-07T07:51:39Z</time>
      </trkpt>
      <trkpt lat="44.35839" lon="5.65631">
        <ele>721</ele>
        <time>2019-06-07T07:51:40Z</time>
      </trkpt>
      <trkpt lat="44.3584" lon="5.65623">
        <ele>721</ele>
        <time>2019-06-07T07:51:41Z</time>
      </trkpt>
      <trkpt lat="44.35841" lon="5.65614">
        <ele>721</ele>
        <time>2019-06-07T07:51:42Z</time>
      </trkpt>
      <trkpt lat="44.35842" lon="5.65605">
        <ele>721</ele>
        <time>2019-06-07T07:51:43Z</time>
      </trkpt>
      <trkpt lat="44.35843" lon="5.65596">
        <ele>721</ele>
        <time>2019-06-07T07:51:44Z</time>
      </trkpt>
      <trkpt lat="44.35844" lon="5.65587">
        <ele>721</ele>
        <time>2019-06-07T07:51:45Z</time>
      </trkpt>
      <trkpt lat="44.35845" lon="5.65579">
        <ele>721</ele>
        <time>2019-06-07T07:51:46Z</time>
      </trkpt>
      <trkpt lat="44.35847" lon="5.6557">
        <ele>721</ele>
        <time>2019-06-07T07:51:47Z</time>
      </trkpt>
      <trkpt lat="44.35849" lon="5.65562">
        <ele>721</ele>
        <time>2019-06-07T07:51:48Z</time>
      </trkpt>
      <trkpt lat="44.35851" lon="5.65554">
        <ele>721</ele>
        <time>2019-06-07T07:51:49Z</time>
      </trkpt>
      <trkpt lat="44.35852" lon="5.65546">
        <ele>721</ele>
        <time>2019-06-07T07:51:50Z</time>
      </trkpt>
      <trkpt lat="44.35854" lon="5.65538">
        <ele>721</ele>
        <time>2019-06-07T07:51:51Z</time>
      </trkpt>
      <trkpt lat="44.35856" lon="5.6553">
        <ele>721</ele>
        <time>2019-06-07T07:51:52Z</time>
      </trkpt>
      <trkpt lat="44.35858" lon="5.65522">
        <ele>721</ele>
        <time>2019-06-07T07:51:53Z</time>
      </trkpt>
      <trkpt lat="44.3586" lon="5.65514">
        <ele>721</ele>
        <time>2019-06-07T07:51:54Z</time>
      </trkpt>
      <trkpt lat="44.35862" lon="5.65506">
        <ele>722</ele>
        <time>2019-06-07T07:51:55Z</time>
      </trkpt>
      <trkpt lat="44.35864" lon="5.65498">
        <ele>722</ele>
        <time>2019-06-07T07:51:56Z</time>
      </trkpt>
      <trkpt lat="44.35866" lon="5.65491">
        <ele>723</ele>
        <time>2019-06-07T07:51:57Z</time>
      </trkpt>
      <trkpt lat="44.35869" lon="5.65484">
        <ele>723</ele>
        <time>2019-06-07T07:51:59Z</time>
      </trkpt>
      <trkpt lat="44.35871" lon="5.65476">
        <ele>724</ele>
        <time>2019-06-07T07:51:59Z</time>
      </trkpt>
      <trkpt lat="44.35873" lon="5.65468">
        <ele>725</ele>
        <time>2019-06-07T07:52:00Z</time>
      </trkpt>
      <trkpt lat="44.35875" lon="5.65461">
        <ele>726</ele>
        <time>2019-06-07T07:52:01Z</time>
      </trkpt>
      <trkpt lat="44.35877" lon="5.65454">
        <ele>726</ele>
        <time>2019-06-07T07:52:02Z</time>
      </trkpt>
      <trkpt lat="44.35879" lon="5.65447">
        <ele>727</ele>
        <time>2019-06-07T07:52:03Z</time>
      </trkpt>
      <trkpt lat="44.35881" lon="5.6544">
        <ele>728</ele>
        <time>2019-06-07T07:52:04Z</time>
      </trkpt>
      <trkpt lat="44.35883" lon="5.65434">
        <ele>728</ele>
        <time>2019-06-07T07:52:05Z</time>
      </trkpt>
      <trkpt lat="44.35885" lon="5.65427">
        <ele>729</ele>
        <time>2019-06-07T07:52:06Z</time>
      </trkpt>
      <trkpt lat="44.35888" lon="5.65421">
        <ele>729</ele>
        <time>2019-06-07T07:52:07Z</time>
      </trkpt>
      <trkpt lat="44.3589" lon="5.65415">
        <ele>729</ele>
        <time>2019-06-07T07:52:08Z</time>
      </trkpt>
      <trkpt lat="44.35893" lon="5.65409">
        <ele>730</ele>
        <time>2019-06-07T07:52:09Z</time>
      </trkpt>
      <trkpt lat="44.35896" lon="5.65402">
        <ele>730</ele>
        <time>2019-06-07T07:52:10Z</time>
      </trkpt>
      <trkpt lat="44.35899" lon="5.65396">
        <ele>731</ele>
        <time>2019-06-07T07:52:11Z</time>
      </trkpt>
      <trkpt lat="44.35902" lon="5.6539">
        <ele>731</ele>
        <time>2019-06-07T07:52:12Z</time>
      </trkpt>
      <trkpt lat="44.35905" lon="5.65384">
        <ele>732</ele>
        <time>2019-06-07T07:52:13Z</time>
      </trkpt>
      <trkpt lat="44.35909" lon="5.65378">
        <ele>732</ele>
        <time>2019-06-07T07:52:14Z</time>
      </trkpt>
      <trkpt lat="44.35912" lon="5.65373">
        <ele>732</ele>
        <time>2019-06-07T07:52:15Z</time>
      </trkpt>
      <trkpt lat="44.35915" lon="5.65367">
        <ele>733</ele>
        <time>2019-06-07T07:52:16Z</time>
      </trkpt>
      <trkpt lat="44.35918" lon="5.65361">
        <ele>733</ele>
        <time>2019-06-07T07:52:17Z</time>
      </trkpt>
      <trkpt lat="44.35921" lon="5.65354">
        <ele>733</ele>
        <time>2019-06-07T07:52:18Z</time>
      </trkpt>
      <trkpt lat="44.35923" lon="5.65348">
        <ele>733</ele>
        <time>2019-06-07T07:52:19Z</time>
      </trkpt>
      <trkpt lat="44.35926" lon="5.65341">
        <ele>733</ele>
        <time>2019-06-07T07:52:20Z</time>
      </trkpt>
      <trkpt lat="44.35929" lon="5.65334">
        <ele>733</ele>
        <time>2019-06-07T07:52:21Z</time>
      </trkpt>
      <trkpt lat="44.35932" lon="5.65328">
        <ele>733</ele>
        <time>2019-06-07T07:52:22Z</time>
      </trkpt>
      <trkpt lat="44.35934" lon="5.65321">
        <ele>734</ele>
        <time>2019-06-07T07:52:23Z</time>
      </trkpt>
      <trkpt lat="44.35937" lon="5.65314">
        <ele>734</ele>
        <time>2019-06-07T07:52:24Z</time>
      </trkpt>
      <trkpt lat="44.3594" lon="5.65307">
        <ele>734</ele>
        <time>2019-06-07T07:52:25Z</time>
      </trkpt>
      <trkpt lat="44.35943" lon="5.65301">
        <ele>734</ele>
        <time>2019-06-07T07:52:26Z</time>
      </trkpt>
      <trkpt lat="44.35945" lon="5.65294">
        <ele>734</ele>
        <time>2019-06-07T07:52:27Z</time>
      </trkpt>
      <trkpt lat="44.35948" lon="5.65287">
        <ele>735</ele>
        <time>2019-06-07T07:52:28Z</time>
      </trkpt>
      <trkpt lat="44.35951" lon="5.65281">
        <ele>735</ele>
        <time>2019-06-07T07:52:29Z</time>
      </trkpt>
      <trkpt lat="44.35954" lon="5.65274">
        <ele>735</ele>
        <time>2019-06-07T07:52:30Z</time>
      </trkpt>
      <trkpt lat="44.35956" lon="5.65268">
        <ele>736</ele>
        <time>2019-06-07T07:52:31Z</time>
      </trkpt>
      <trkpt lat="44.35959" lon="5.65261">
        <ele>736</ele>
        <time>2019-06-07T07:52:32Z</time>
      </trkpt>
      <trkpt lat="44.35962" lon="5.65255">
        <ele>737</ele>
        <time>2019-06-07T07:52:33Z</time>
      </trkpt>
      <trkpt lat="44.35965" lon="5.65248">
        <ele>737</ele>
        <time>2019-06-07T07:52:34Z</time>
      </trkpt>
      <trkpt lat="44.35968" lon="5.65242">
        <ele>738</ele>
        <time>2019-06-07T07:52:35Z</time>
      </trkpt>
      <trkpt lat="44.35972" lon="5.65237">
        <ele>738</ele>
        <time>2019-06-07T07:52:36Z</time>
      </trkpt>
      <trkpt lat="44.35976" lon="5.65233">
        <ele>738</ele>
        <time>2019-06-07T07:52:37Z</time>
      </trkpt>
      <trkpt lat="44.35979" lon="5.65228">
        <ele>739</ele>
        <time>2019-06-07T07:52:38Z</time>
      </trkpt>
      <trkpt lat="44.35983" lon="5.65224">
        <ele>739</ele>
        <time>2019-06-07T07:52:39Z</time>
      </trkpt>
      <trkpt lat="44.35987" lon="5.65219">
        <ele>739</ele>
        <time>2019-06-07T07:52:40Z</time>
      </trkpt>
      <trkpt lat="44.35991" lon="5.65215">
        <ele>740</ele>
        <time>2019-06-07T07:52:41Z</time>
      </trkpt>
      <trkpt lat="44.35994" lon="5.65211">
        <ele>740</ele>
        <time>2019-06-07T07:52:42Z</time>
      </trkpt>
      <trkpt lat="44.35998" lon="5.65207">
        <ele>740</ele>
        <time>2019-06-07T07:52:43Z</time>
      </trkpt>
      <trkpt lat="44.36002" lon="5.65203">
        <ele>740</ele>
        <time>2019-06-07T07:52:44Z</time>
      </trkpt>
      <trkpt lat="44.36006" lon="5.65199">
        <ele>740</ele>
        <time>2019-06-07T07:52:45Z</time>
      </trkpt>
      <trkpt lat="44.3601" lon="5.65194">
        <ele>740</ele>
        <time>2019-06-07T07:52:46Z</time>
      </trkpt>
      <trkpt lat="44.36013" lon="5.65189">
        <ele>741</ele>
        <time>2019-06-07T07:52:47Z</time>
      </trkpt>
      <trkpt lat="44.36016" lon="5.65183">
        <ele>741</ele>
        <time>2019-06-07T07:52:48Z</time>
      </trkpt>
      <trkpt lat="44.3602" lon="5.65177">
        <ele>741</ele>
        <time>2019-06-07T07:52:49Z</time>
      </trkpt>
      <trkpt lat="44.36023" lon="5.65171">
        <ele>741</ele>
        <time>2019-06-07T07:52:50Z</time>
      </trkpt>
      <trkpt lat="44.36026" lon="5.65166">
        <ele>741</ele>
        <time>2019-06-07T07:52:51Z</time>
      </trkpt>
      <trkpt lat="44.36029" lon="5.65159">
        <ele>741</ele>
        <time>2019-06-07T07:52:52Z</time>
      </trkpt>
      <trkpt lat="44.36032" lon="5.65153">
        <ele>742</ele>
        <time>2019-06-07T07:52:53Z</time>
      </trkpt>
      <trkpt lat="44.36035" lon="5.65147">
        <ele>742</ele>
        <time>2019-06-07T07:52:54Z</time>
      </trkpt>
      <trkpt lat="44.36039" lon="5.65142">
        <ele>742</ele>
        <time>2019-06-07T07:52:55Z</time>
      </trkpt>
      <trkpt lat="44.36043" lon="5.65136">
        <ele>742</ele>
        <time>2019-06-07T07:52:56Z</time>
      </trkpt>
      <trkpt lat="44.36047" lon="5.65131">
        <ele>742</ele>
        <time>2019-06-07T07:52:57Z</time>
      </trkpt>
      <trkpt lat="44.36051" lon="5.65126">
        <ele>742</ele>
        <time>2019-06-07T07:52:59Z</time>
      </trkpt>
      <trkpt lat="44.36055" lon="5.65122">
        <ele>742</ele>
        <time>2019-06-07T07:52:59Z</time>
      </trkpt>
      <trkpt lat="44.3606" lon="5.65118">
        <ele>742</ele>
        <time>2019-06-07T07:53:00Z</time>
      </trkpt>
      <trkpt lat="44.36064" lon="5.65114">
        <ele>742</ele>
        <time>2019-06-07T07:53:01Z</time>
      </trkpt>
      <trkpt lat="44.36068" lon="5.65111">
        <ele>742</ele>
        <time>2019-06-07T07:53:02Z</time>
      </trkpt>
      <trkpt lat="44.36073" lon="5.65108">
        <ele>742</ele>
        <time>2019-06-07T07:53:03Z</time>
      </trkpt>
      <trkpt lat="44.36078" lon="5.65105">
        <ele>742</ele>
        <time>2019-06-07T07:53:04Z</time>
      </trkpt>
      <trkpt lat="44.36083" lon="5.65103">
        <ele>742</ele>
        <time>2019-06-07T07:53:05Z</time>
      </trkpt>
      <trkpt lat="44.36088" lon="5.65101">
        <ele>743</ele>
        <time>2019-06-07T07:53:06Z</time>
      </trkpt>
      <trkpt lat="44.36093" lon="5.65099">
        <ele>743</ele>
        <time>2019-06-07T07:53:07Z</time>
      </trkpt>
      <trkpt lat="44.36098" lon="5.65098">
        <ele>743</ele>
        <time>2019-06-07T07:53:08Z</time>
      </trkpt>
      <trkpt lat="44.36103" lon="5.65096">
        <ele>743</ele>
        <time>2019-06-07T07:53:09Z</time>
      </trkpt>
      <trkpt lat="44.36108" lon="5.65095">
        <ele>743</ele>
        <time>2019-06-07T07:53:10Z</time>
      </trkpt>
      <trkpt lat="44.36113" lon="5.65093">
        <ele>743</ele>
        <time>2019-06-07T07:53:11Z</time>
      </trkpt>
      <trkpt lat="44.36119" lon="5.6509">
        <ele>743</ele>
        <time>2019-06-07T07:53:12Z</time>
      </trkpt>
      <trkpt lat="44.36124" lon="5.65088">
        <ele>743</ele>
        <time>2019-06-07T07:53:13Z</time>
      </trkpt>
      <trkpt lat="44.36129" lon="5.65083">
        <ele>743</ele>
        <time>2019-06-07T07:53:14Z</time>
      </trkpt>
      <trkpt lat="44.36134" lon="5.65078">
        <ele>743</ele>
        <time>2019-06-07T07:53:15Z</time>
      </trkpt>
      <trkpt lat="44.36139" lon="5.65074">
        <ele>743</ele>
        <time>2019-06-07T07:53:16Z</time>
      </trkpt>
      <trkpt lat="44.36143" lon="5.65069">
        <ele>743</ele>
        <time>2019-06-07T07:53:17Z</time>
      </trkpt>
      <trkpt lat="44.36148" lon="5.65064">
        <ele>744</ele>
        <time>2019-06-07T07:53:18Z</time>
      </trkpt>
      <trkpt lat="44.36153" lon="5.65058">
        <ele>744</ele>
        <time>2019-06-07T07:53:19Z</time>
      </trkpt>
      <trkpt lat="44.36157" lon="5.65053">
        <ele>745</ele>
        <time>2019-06-07T07:53:20Z</time>
      </trkpt>
      <trkpt lat="44.36161" lon="5.65046">
        <ele>745</ele>
        <time>2019-06-07T07:53:21Z</time>
      </trkpt>
      <trkpt lat="44.36165" lon="5.6504">
        <ele>745</ele>
        <time>2019-06-07T07:53:22Z</time>
      </trkpt>
      <trkpt lat="44.36169" lon="5.65033">
        <ele>746</ele>
        <time>2019-06-07T07:53:23Z</time>
      </trkpt>
      <trkpt lat="44.36174" lon="5.65025">
        <ele>746</ele>
        <time>2019-06-07T07:53:24Z</time>
      </trkpt>
      <trkpt lat="44.36178" lon="5.65017">
        <ele>746</ele>
        <time>2019-06-07T07:53:25Z</time>
      </trkpt>
      <trkpt lat="44.36181" lon="5.65008">
        <ele>746</ele>
        <time>2019-06-07T07:53:26Z</time>
      </trkpt>
      <trkpt lat="44.36184" lon="5.64998">
        <ele>746</ele>
        <time>2019-06-07T07:53:27Z</time>
      </trkpt>
      <trkpt lat="44.36187" lon="5.64989">
        <ele>746</ele>
        <time>2019-06-07T07:53:28Z</time>
      </trkpt>
      <trkpt lat="44.36189" lon="5.64978">
        <ele>746</ele>
        <time>2019-06-07T07:53:29Z</time>
      </trkpt>
      <trkpt lat="44.36191" lon="5.64968">
        <ele>746</ele>
        <time>2019-06-07T07:53:30Z</time>
      </trkpt>
      <trkpt lat="44.36193" lon="5.64957">
        <ele>746</ele>
        <time>2019-06-07T07:53:31Z</time>
      </trkpt>
      <trkpt lat="44.36195" lon="5.64947">
        <ele>746</ele>
        <time>2019-06-07T07:53:32Z</time>
      </trkpt>
      <trkpt lat="44.36196" lon="5.64936">
        <ele>746</ele>
        <time>2019-06-07T07:53:33Z</time>
      </trkpt>
      <trkpt lat="44.36198" lon="5.64926">
        <ele>746</ele>
        <time>2019-06-07T07:53:34Z</time>
      </trkpt>
      <trkpt lat="44.36199" lon="5.64915">
        <ele>746</ele>
        <time>2019-06-07T07:53:35Z</time>
      </trkpt>
      <trkpt lat="44.362" lon="5.64905">
        <ele>746</ele>
        <time>2019-06-07T07:53:36Z</time>
      </trkpt>
      <trkpt lat="44.36201" lon="5.64894">
        <ele>746</ele>
        <time>2019-06-07T07:53:37Z</time>
      </trkpt>
      <trkpt lat="44.36203" lon="5.64884">
        <ele>746</ele>
        <time>2019-06-07T07:53:38Z</time>
      </trkpt>
      <trkpt lat="44.36205" lon="5.64874">
        <ele>746</ele>
        <time>2019-06-07T07:53:39Z</time>
      </trkpt>
      <trkpt lat="44.36206" lon="5.64862">
        <ele>746</ele>
        <time>2019-06-07T07:53:40Z</time>
      </trkpt>
      <trkpt lat="44.36208" lon="5.64852">
        <ele>746</ele>
        <time>2019-06-07T07:53:41Z</time>
      </trkpt>
      <trkpt lat="44.36209" lon="5.64841">
        <ele>746</ele>
        <time>2019-06-07T07:53:42Z</time>
      </trkpt>
      <trkpt lat="44.36211" lon="5.64829">
        <ele>746</ele>
        <time>2019-06-07T07:53:43Z</time>
      </trkpt>
      <trkpt lat="44.36212" lon="5.64818">
        <ele>746</ele>
        <time>2019-06-07T07:53:44Z</time>
      </trkpt>
      <trkpt lat="44.36214" lon="5.64807">
        <ele>746</ele>
        <time>2019-06-07T07:53:45Z</time>
      </trkpt>
      <trkpt lat="44.36215" lon="5.64795">
        <ele>746</ele>
        <time>2019-06-07T07:53:46Z</time>
      </trkpt>
      <trkpt lat="44.36217" lon="5.64784">
        <ele>746</ele>
        <time>2019-06-07T07:53:47Z</time>
      </trkpt>
      <trkpt lat="44.36219" lon="5.64773">
        <ele>746</ele>
        <time>2019-06-07T07:53:48Z</time>
      </trkpt>
      <trkpt lat="44.3622" lon="5.64763">
        <ele>746</ele>
        <time>2019-06-07T07:53:49Z</time>
      </trkpt>
      <trkpt lat="44.36221" lon="5.64752">
        <ele>746</ele>
        <time>2019-06-07T07:53:50Z</time>
      </trkpt>
      <trkpt lat="44.36222" lon="5.64742">
        <ele>746</ele>
        <time>2019-06-07T07:53:51Z</time>
      </trkpt>
      <trkpt lat="44.36224" lon="5.64731">
        <ele>746</ele>
        <time>2019-06-07T07:53:52Z</time>
      </trkpt>
      <trkpt lat="44.36225" lon="5.64721">
        <ele>746</ele>
        <time>2019-06-07T07:53:53Z</time>
      </trkpt>
      <trkpt lat="44.36227" lon="5.64711">
        <ele>746</ele>
        <time>2019-06-07T07:53:54Z</time>
      </trkpt>
      <trkpt lat="44.36229" lon="5.64701">
        <ele>746</ele>
        <time>2019-06-07T07:53:55Z</time>
      </trkpt>
      <trkpt lat="44.3623" lon="5.64691">
        <ele>746</ele>
        <time>2019-06-07T07:53:56Z</time>
      </trkpt>
      <trkpt lat="44.36232" lon="5.64681">
        <ele>746</ele>
        <time>2019-06-07T07:53:57Z</time>
      </trkpt>
      <trkpt lat="44.36233" lon="5.64671">
        <ele>746</ele>
        <time>2019-06-07T07:53:59Z</time>
      </trkpt>
      <trkpt lat="44.36234" lon="5.64661">
        <ele>746</ele>
        <time>2019-06-07T07:53:59Z</time>
      </trkpt>
      <trkpt lat="44.36235" lon="5.64651">
        <ele>746</ele>
        <time>2019-06-07T07:54:00Z</time>
      </trkpt>
      <trkpt lat="44.36237" lon="5.64641">
        <ele>746</ele>
        <time>2019-06-07T07:54:01Z</time>
      </trkpt>
      <trkpt lat="44.36238" lon="5.64632">
        <ele>746</ele>
        <time>2019-06-07T07:54:02Z</time>
      </trkpt>
      <trkpt lat="44.3624" lon="5.64622">
        <ele>746</ele>
        <time>2019-06-07T07:54:03Z</time>
      </trkpt>
      <trkpt lat="44.3624" lon="5.64612">
        <ele>746</ele>
        <time>2019-06-07T07:54:04Z</time>
      </trkpt>
      <trkpt lat="44.36242" lon="5.64602">
        <ele>746</ele>
        <time>2019-06-07T07:54:05Z</time>
      </trkpt>
      <trkpt lat="44.36243" lon="5.64593">
        <ele>746</ele>
        <time>2019-06-07T07:54:06Z</time>
      </trkpt>
      <trkpt lat="44.36245" lon="5.64583">
        <ele>746</ele>
        <time>2019-06-07T07:54:07Z</time>
      </trkpt>
      <trkpt lat="44.36246" lon="5.64574">
        <ele>746</ele>
        <time>2019-06-07T07:54:08Z</time>
      </trkpt>
      <trkpt lat="44.36247" lon="5.64566">
        <ele>746</ele>
        <time>2019-06-07T07:54:09Z</time>
      </trkpt>
      <trkpt lat="44.36249" lon="5.64556">
        <ele>746</ele>
        <time>2019-06-07T07:54:10Z</time>
      </trkpt>
      <trkpt lat="44.3625" lon="5.64548">
        <ele>746</ele>
        <time>2019-06-07T07:54:11Z</time>
      </trkpt>
      <trkpt lat="44.36252" lon="5.64539">
        <ele>746</ele>
        <time>2019-06-07T07:54:12Z</time>
      </trkpt>
      <trkpt lat="44.36253" lon="5.6453">
        <ele>746</ele>
        <time>2019-06-07T07:54:13Z</time>
      </trkpt>
      <trkpt lat="44.36255" lon="5.64521">
        <ele>746</ele>
        <time>2019-06-07T07:54:14Z</time>
      </trkpt>
      <trkpt lat="44.36256" lon="5.64512">
        <ele>746</ele>
        <time>2019-06-07T07:54:15Z</time>
      </trkpt>
      <trkpt lat="44.36257" lon="5.64503">
        <ele>746</ele>
        <time>2019-06-07T07:54:16Z</time>
      </trkpt>
      <trkpt lat="44.36259" lon="5.64495">
        <ele>746</ele>
        <time>2019-06-07T07:54:17Z</time>
      </trkpt>
      <trkpt lat="44.3626" lon="5.64486">
        <ele>746</ele>
        <time>2019-06-07T07:54:18Z</time>
      </trkpt>
      <trkpt lat="44.36261" lon="5.64477">
        <ele>746</ele>
        <time>2019-06-07T07:54:19Z</time>
      </trkpt>
      <trkpt lat="44.36263" lon="5.64469">
        <ele>746</ele>
        <time>2019-06-07T07:54:20Z</time>
      </trkpt>
      <trkpt lat="44.36264" lon="5.6446">
        <ele>746</ele>
        <time>2019-06-07T07:54:21Z</time>
      </trkpt>
      <trkpt lat="44.36266" lon="5.64452">
        <ele>746</ele>
        <time>2019-06-07T07:54:22Z</time>
      </trkpt>
      <trkpt lat="44.36267" lon="5.64443">
        <ele>746</ele>
        <time>2019-06-07T07:54:23Z</time>
      </trkpt>
      <trkpt lat="44.36269" lon="5.64434">
        <ele>746</ele>
        <time>2019-06-07T07:54:24Z</time>
      </trkpt>
      <trkpt lat="44.36271" lon="5.64426">
        <ele>746</ele>
        <time>2019-06-07T07:54:25Z</time>
      </trkpt>
      <trkpt lat="44.36273" lon="5.64417">
        <ele>746</ele>
        <time>2019-06-07T07:54:26Z</time>
      </trkpt>
      <trkpt lat="44.36275" lon="5.64408">
        <ele>745</ele>
        <time>2019-06-07T07:54:27Z</time>
      </trkpt>
      <trkpt lat="44.36277" lon="5.64399">
        <ele>745</ele>
        <time>2019-06-07T07:54:28Z</time>
      </trkpt>
      <trkpt lat="44.3628" lon="5.64391">
        <ele>745</ele>
        <time>2019-06-07T07:54:29Z</time>
      </trkpt>
      <trkpt lat="44.36283" lon="5.64382">
        <ele>744</ele>
        <time>2019-06-07T07:54:30Z</time>
      </trkpt>
      <trkpt lat="44.36286" lon="5.64373">
        <ele>744</ele>
        <time>2019-06-07T07:54:31Z</time>
      </trkpt>
      <trkpt lat="44.36289" lon="5.64364">
        <ele>744</ele>
        <time>2019-06-07T07:54:32Z</time>
      </trkpt>
      <trkpt lat="44.36292" lon="5.64355">
        <ele>743</ele>
        <time>2019-06-07T07:54:33Z</time>
      </trkpt>
      <trkpt lat="44.36294" lon="5.64345">
        <ele>743</ele>
        <time>2019-06-07T07:54:34Z</time>
      </trkpt>
      <trkpt lat="44.36297" lon="5.64336">
        <ele>743</ele>
        <time>2019-06-07T07:54:35Z</time>
      </trkpt>
      <trkpt lat="44.36299" lon="5.64327">
        <ele>743</ele>
        <time>2019-06-07T07:54:36Z</time>
      </trkpt>
      <trkpt lat="44.36301" lon="5.64317">
        <ele>742</ele>
        <time>2019-06-07T07:54:37Z</time>
      </trkpt>
      <trkpt lat="44.36303" lon="5.64308">
        <ele>742</ele>
        <time>2019-06-07T07:54:38Z</time>
      </trkpt>
      <trkpt lat="44.36306" lon="5.64298">
        <ele>742</ele>
        <time>2019-06-07T07:54:39Z</time>
      </trkpt>
      <trkpt lat="44.36307" lon="5.64288">
        <ele>742</ele>
        <time>2019-06-07T07:54:40Z</time>
      </trkpt>
      <trkpt lat="44.36308" lon="5.64279">
        <ele>742</ele>
        <time>2019-06-07T07:54:41Z</time>
      </trkpt>
      <trkpt lat="44.3631" lon="5.64269">
        <ele>742</ele>
        <time>2019-06-07T07:54:42Z</time>
      </trkpt>
      <trkpt lat="44.36311" lon="5.64259">
        <ele>742</ele>
        <time>2019-06-07T07:54:43Z</time>
      </trkpt>
      <trkpt lat="44.36312" lon="5.64249">
        <ele>742</ele>
        <time>2019-06-07T07:54:44Z</time>
      </trkpt>
      <trkpt lat="44.36313" lon="5.6424">
        <ele>742</ele>
        <time>2019-06-07T07:54:45Z</time>
      </trkpt>
      <trkpt lat="44.36314" lon="5.6423">
        <ele>742</ele>
        <time>2019-06-07T07:54:46Z</time>
      </trkpt>
      <trkpt lat="44.36315" lon="5.64221">
        <ele>742</ele>
        <time>2019-06-07T07:54:47Z</time>
      </trkpt>
      <trkpt lat="44.36316" lon="5.64211">
        <ele>742</ele>
        <time>2019-06-07T07:54:48Z</time>
      </trkpt>
      <trkpt lat="44.36317" lon="5.64202">
        <ele>742</ele>
        <time>2019-06-07T07:54:49Z</time>
      </trkpt>
      <trkpt lat="44.36318" lon="5.64192">
        <ele>742</ele>
        <time>2019-06-07T07:54:50Z</time>
      </trkpt>
      <trkpt lat="44.36319" lon="5.64183">
        <ele>742</ele>
        <time>2019-06-07T07:54:51Z</time>
      </trkpt>
      <trkpt lat="44.36319" lon="5.64173">
        <ele>742</ele>
        <time>2019-06-07T07:54:52Z</time>
      </trkpt>
      <trkpt lat="44.3632" lon="5.64154">
        <ele>742</ele>
        <time>2019-06-07T07:54:54Z</time>
      </trkpt>
      <trkpt lat="44.36321" lon="5.64145">
        <ele>742</ele>
        <time>2019-06-07T07:54:55Z</time>
      </trkpt>
      <trkpt lat="44.36321" lon="5.64135">
        <ele>742</ele>
        <time>2019-06-07T07:54:56Z</time>
      </trkpt>
      <trkpt lat="44.36321" lon="5.64126">
        <ele>742</ele>
        <time>2019-06-07T07:54:57Z</time>
      </trkpt>
      <trkpt lat="44.3632" lon="5.64117">
        <ele>742</ele>
        <time>2019-06-07T07:54:59Z</time>
      </trkpt>
      <trkpt lat="44.36321" lon="5.64108">
        <ele>742</ele>
        <time>2019-06-07T07:54:59Z</time>
      </trkpt>
      <trkpt lat="44.3632" lon="5.64098">
        <ele>742</ele>
        <time>2019-06-07T07:55:00Z</time>
      </trkpt>
      <trkpt lat="44.3632" lon="5.64089">
        <ele>742</ele>
        <time>2019-06-07T07:55:01Z</time>
      </trkpt>
      <trkpt lat="44.36319" lon="5.6408">
        <ele>742</ele>
        <time>2019-06-07T07:55:02Z</time>
      </trkpt>
      <trkpt lat="44.36319" lon="5.64071">
        <ele>742</ele>
        <time>2019-06-07T07:55:03Z</time>
      </trkpt>
      <trkpt lat="44.3632" lon="5.64062">
        <ele>742</ele>
        <time>2019-06-07T07:55:04Z</time>
      </trkpt>
      <trkpt lat="44.3632" lon="5.64054">
        <ele>742</ele>
        <time>2019-06-07T07:55:05Z</time>
      </trkpt>
      <trkpt lat="44.3632" lon="5.64046">
        <ele>742</ele>
        <time>2019-06-07T07:55:06Z</time>
      </trkpt>
      <trkpt lat="44.36319" lon="5.64037">
        <ele>742</ele>
        <time>2019-06-07T07:55:07Z</time>
      </trkpt>
      <trkpt lat="44.36319" lon="5.64028">
        <ele>741</ele>
        <time>2019-06-07T07:55:08Z</time>
      </trkpt>
      <trkpt lat="44.36319" lon="5.64019">
        <ele>740</ele>
        <time>2019-06-07T07:55:09Z</time>
      </trkpt>
      <trkpt lat="44.36319" lon="5.6401">
        <ele>739</ele>
        <time>2019-06-07T07:55:10Z</time>
      </trkpt>
      <trkpt lat="44.36319" lon="5.64001">
        <ele>738</ele>
        <time>2019-06-07T07:55:11Z</time>
      </trkpt>
      <trkpt lat="44.36319" lon="5.63992">
        <ele>737</ele>
        <time>2019-06-07T07:55:12Z</time>
      </trkpt>
      <trkpt lat="44.36319" lon="5.63984">
        <ele>736</ele>
        <time>2019-06-07T07:55:13Z</time>
      </trkpt>
      <trkpt lat="44.36319" lon="5.63975">
        <ele>735</ele>
        <time>2019-06-07T07:55:14Z</time>
      </trkpt>
      <trkpt lat="44.36319" lon="5.63965">
        <ele>734</ele>
        <time>2019-06-07T07:55:15Z</time>
      </trkpt>
      <trkpt lat="44.36319" lon="5.63956">
        <ele>734</ele>
        <time>2019-06-07T07:55:16Z</time>
      </trkpt>
      <trkpt lat="44.36319" lon="5.63946">
        <ele>733</ele>
        <time>2019-06-07T07:55:17Z</time>
      </trkpt>
      <trkpt lat="44.36318" lon="5.63937">
        <ele>733</ele>
        <time>2019-06-07T07:55:18Z</time>
      </trkpt>
      <trkpt lat="44.36318" lon="5.63927">
        <ele>733</ele>
        <time>2019-06-07T07:55:19Z</time>
      </trkpt>
      <trkpt lat="44.36317" lon="5.63918">
        <ele>733</ele>
        <time>2019-06-07T07:55:20Z</time>
      </trkpt>
      <trkpt lat="44.36317" lon="5.63909">
        <ele>733</ele>
        <time>2019-06-07T07:55:21Z</time>
      </trkpt>
      <trkpt lat="44.36317" lon="5.639">
        <ele>733</ele>
        <time>2019-06-07T07:55:22Z</time>
      </trkpt>
      <trkpt lat="44.36317" lon="5.63891">
        <ele>733</ele>
        <time>2019-06-07T07:55:23Z</time>
      </trkpt>
      <trkpt lat="44.36317" lon="5.63881">
        <ele>733</ele>
        <time>2019-06-07T07:55:24Z</time>
      </trkpt>
      <trkpt lat="44.36316" lon="5.63873">
        <ele>733</ele>
        <time>2019-06-07T07:55:25Z</time>
      </trkpt>
      <trkpt lat="44.36316" lon="5.63864">
        <ele>733</ele>
        <time>2019-06-07T07:55:26Z</time>
      </trkpt>
      <trkpt lat="44.36316" lon="5.63855">
        <ele>733</ele>
        <time>2019-06-07T07:55:27Z</time>
      </trkpt>
      <trkpt lat="44.36316" lon="5.63847">
        <ele>733</ele>
        <time>2019-06-07T07:55:28Z</time>
      </trkpt>
      <trkpt lat="44.36317" lon="5.6384">
        <ele>733</ele>
        <time>2019-06-07T07:55:29Z</time>
      </trkpt>
      <trkpt lat="44.36317" lon="5.63832">
        <ele>733</ele>
        <time>2019-06-07T07:55:30Z</time>
      </trkpt>
      <trkpt lat="44.36319" lon="5.63823">
        <ele>733</ele>
        <time>2019-06-07T07:55:31Z</time>
      </trkpt>
      <trkpt lat="44.3632" lon="5.63814">
        <ele>733</ele>
        <time>2019-06-07T07:55:32Z</time>
      </trkpt>
      <trkpt lat="44.36321" lon="5.63805">
        <ele>733</ele>
        <time>2019-06-07T07:55:33Z</time>
      </trkpt>
      <trkpt lat="44.36323" lon="5.63797">
        <ele>734</ele>
        <time>2019-06-07T07:55:34Z</time>
      </trkpt>
      <trkpt lat="44.36325" lon="5.63789">
        <ele>735</ele>
        <time>2019-06-07T07:55:35Z</time>
      </trkpt>
      <trkpt lat="44.36327" lon="5.63781">
        <ele>736</ele>
        <time>2019-06-07T07:55:36Z</time>
      </trkpt>
      <trkpt lat="44.36329" lon="5.63772">
        <ele>737</ele>
        <time>2019-06-07T07:55:37Z</time>
      </trkpt>
      <trkpt lat="44.36331" lon="5.63763">
        <ele>737</ele>
        <time>2019-06-07T07:55:38Z</time>
      </trkpt>
      <trkpt lat="44.36333" lon="5.63755">
        <ele>738</ele>
        <time>2019-06-07T07:55:39Z</time>
      </trkpt>
      <trkpt lat="44.36335" lon="5.63747">
        <ele>738</ele>
        <time>2019-06-07T07:55:40Z</time>
      </trkpt>
      <trkpt lat="44.36337" lon="5.63738">
        <ele>738</ele>
        <time>2019-06-07T07:55:41Z</time>
      </trkpt>
      <trkpt lat="44.36338" lon="5.6373">
        <ele>738</ele>
        <time>2019-06-07T07:55:42Z</time>
      </trkpt>
      <trkpt lat="44.3634" lon="5.63722">
        <ele>738</ele>
        <time>2019-06-07T07:55:43Z</time>
      </trkpt>
      <trkpt lat="44.36341" lon="5.63713">
        <ele>738</ele>
        <time>2019-06-07T07:55:44Z</time>
      </trkpt>
      <trkpt lat="44.36342" lon="5.63704">
        <ele>738</ele>
        <time>2019-06-07T07:55:45Z</time>
      </trkpt>
      <trkpt lat="44.36343" lon="5.63696">
        <ele>738</ele>
        <time>2019-06-07T07:55:46Z</time>
      </trkpt>
      <trkpt lat="44.36344" lon="5.63688">
        <ele>738</ele>
        <time>2019-06-07T07:55:47Z</time>
      </trkpt>
      <trkpt lat="44.36344" lon="5.6368">
        <ele>738</ele>
        <time>2019-06-07T07:55:48Z</time>
      </trkpt>
      <trkpt lat="44.36344" lon="5.63671">
        <ele>738</ele>
        <time>2019-06-07T07:55:49Z</time>
      </trkpt>
      <trkpt lat="44.36344" lon="5.63663">
        <ele>738</ele>
        <time>2019-06-07T07:55:50Z</time>
      </trkpt>
      <trkpt lat="44.36343" lon="5.63655">
        <ele>738</ele>
        <time>2019-06-07T07:55:51Z</time>
      </trkpt>
      <trkpt lat="44.36341" lon="5.63646">
        <ele>738</ele>
        <time>2019-06-07T07:55:52Z</time>
      </trkpt>
      <trkpt lat="44.3634" lon="5.63637">
        <ele>738</ele>
        <time>2019-06-07T07:55:53Z</time>
      </trkpt>
      <trkpt lat="44.36339" lon="5.63629">
        <ele>738</ele>
        <time>2019-06-07T07:55:54Z</time>
      </trkpt>
      <trkpt lat="44.36338" lon="5.63621">
        <ele>738</ele>
        <time>2019-06-07T07:55:55Z</time>
      </trkpt>
      <trkpt lat="44.36337" lon="5.63612">
        <ele>738</ele>
        <time>2019-06-07T07:55:56Z</time>
      </trkpt>
      <trkpt lat="44.36336" lon="5.63602">
        <ele>739</ele>
        <time>2019-06-07T07:55:57Z</time>
      </trkpt>
      <trkpt lat="44.36335" lon="5.63593">
        <ele>740</ele>
        <time>2019-06-07T07:55:59Z</time>
      </trkpt>
      <trkpt lat="44.36334" lon="5.63583">
        <ele>741</ele>
        <time>2019-06-07T07:55:59Z</time>
      </trkpt>
      <trkpt lat="44.36334" lon="5.63574">
        <ele>742</ele>
        <time>2019-06-07T07:56:00Z</time>
      </trkpt>
      <trkpt lat="44.36334" lon="5.63565">
        <ele>743</ele>
        <time>2019-06-07T07:56:01Z</time>
      </trkpt>
      <trkpt lat="44.36333" lon="5.63555">
        <ele>744</ele>
        <time>2019-06-07T07:56:02Z</time>
      </trkpt>
      <trkpt lat="44.36333" lon="5.63545">
        <ele>745</ele>
        <time>2019-06-07T07:56:03Z</time>
      </trkpt>
      <trkpt lat="44.36332" lon="5.63535">
        <ele>746</ele>
        <time>2019-06-07T07:56:04Z</time>
      </trkpt>
      <trkpt lat="44.36331" lon="5.63526">
        <ele>747</ele>
        <time>2019-06-07T07:56:05Z</time>
      </trkpt>
      <trkpt lat="44.3633" lon="5.63515">
        <ele>748</ele>
        <time>2019-06-07T07:56:06Z</time>
      </trkpt>
      <trkpt lat="44.36329" lon="5.63506">
        <ele>749</ele>
        <time>2019-06-07T07:56:07Z</time>
      </trkpt>
      <trkpt lat="44.36328" lon="5.63495">
        <ele>750</ele>
        <time>2019-06-07T07:56:08Z</time>
      </trkpt>
      <trkpt lat="44.36328" lon="5.63485">
        <ele>751</ele>
        <time>2019-06-07T07:56:09Z</time>
      </trkpt>
      <trkpt lat="44.36327" lon="5.63475">
        <ele>752</ele>
        <time>2019-06-07T07:56:10Z</time>
      </trkpt>
      <trkpt lat="44.36326" lon="5.63465">
        <ele>753</ele>
        <time>2019-06-07T07:56:11Z</time>
      </trkpt>
      <trkpt lat="44.36323" lon="5.63455">
        <ele>754</ele>
        <time>2019-06-07T07:56:12Z</time>
      </trkpt>
      <trkpt lat="44.3632" lon="5.63446">
        <ele>755</ele>
        <time>2019-06-07T07:56:13Z</time>
      </trkpt>
      <trkpt lat="44.36318" lon="5.63437">
        <ele>756</ele>
        <time>2019-06-07T07:56:14Z</time>
      </trkpt>
      <trkpt lat="44.36315" lon="5.63427">
        <ele>757</ele>
        <time>2019-06-07T07:56:15Z</time>
      </trkpt>
      <trkpt lat="44.36312" lon="5.63418">
        <ele>758</ele>
        <time>2019-06-07T07:56:16Z</time>
      </trkpt>
      <trkpt lat="44.36309" lon="5.63409">
        <ele>758</ele>
        <time>2019-06-07T07:56:17Z</time>
      </trkpt>
      <trkpt lat="44.36306" lon="5.634">
        <ele>759</ele>
        <time>2019-06-07T07:56:18Z</time>
      </trkpt>
      <trkpt lat="44.36303" lon="5.63392">
        <ele>759</ele>
        <time>2019-06-07T07:56:19Z</time>
      </trkpt>
      <trkpt lat="44.36301" lon="5.63384">
        <ele>759</ele>
        <time>2019-06-07T07:56:20Z</time>
      </trkpt>
      <trkpt lat="44.36299" lon="5.63377">
        <ele>759</ele>
        <time>2019-06-07T07:56:21Z</time>
      </trkpt>
      <trkpt lat="44.36295" lon="5.63368">
        <ele>759</ele>
        <time>2019-06-07T07:56:22Z</time>
      </trkpt>
      <trkpt lat="44.36293" lon="5.63359">
        <ele>759</ele>
        <time>2019-06-07T07:56:23Z</time>
      </trkpt>
      <trkpt lat="44.3629" lon="5.63351">
        <ele>760</ele>
        <time>2019-06-07T07:56:24Z</time>
      </trkpt>
      <trkpt lat="44.36285" lon="5.63342">
        <ele>761</ele>
        <time>2019-06-07T07:56:25Z</time>
      </trkpt>
      <trkpt lat="44.36281" lon="5.63334">
        <ele>762</ele>
        <time>2019-06-07T07:56:26Z</time>
      </trkpt>
      <trkpt lat="44.36277" lon="5.63326">
        <ele>763</ele>
        <time>2019-06-07T07:56:27Z</time>
      </trkpt>
      <trkpt lat="44.36272" lon="5.63318">
        <ele>764</ele>
        <time>2019-06-07T07:56:28Z</time>
      </trkpt>
      <trkpt lat="44.36269" lon="5.63312">
        <ele>765</ele>
        <time>2019-06-07T07:56:29Z</time>
      </trkpt>
      <trkpt lat="44.36266" lon="5.63306">
        <ele>765</ele>
        <time>2019-06-07T07:56:30Z</time>
      </trkpt>
      <trkpt lat="44.36264" lon="5.633">
        <ele>765</ele>
        <time>2019-06-07T07:56:31Z</time>
      </trkpt>
      <trkpt lat="44.36261" lon="5.63294">
        <ele>765</ele>
        <time>2019-06-07T07:56:32Z</time>
      </trkpt>
      <trkpt lat="44.36258" lon="5.63288">
        <ele>765</ele>
        <time>2019-06-07T07:56:33Z</time>
      </trkpt>
      <trkpt lat="44.36255" lon="5.63281">
        <ele>764</ele>
        <time>2019-06-07T07:56:34Z</time>
      </trkpt>
      <trkpt lat="44.36251" lon="5.63275">
        <ele>763</ele>
        <time>2019-06-07T07:56:35Z</time>
      </trkpt>
      <trkpt lat="44.36247" lon="5.63268">
        <ele>762</ele>
        <time>2019-06-07T07:56:36Z</time>
      </trkpt>
      <trkpt lat="44.36243" lon="5.63261">
        <ele>762</ele>
        <time>2019-06-07T07:56:37Z</time>
      </trkpt>
      <trkpt lat="44.3624" lon="5.63254">
        <ele>761</ele>
        <time>2019-06-07T07:56:38Z</time>
      </trkpt>
      <trkpt lat="44.36237" lon="5.63247">
        <ele>761</ele>
        <time>2019-06-07T07:56:39Z</time>
      </trkpt>
      <trkpt lat="44.36235" lon="5.6324">
        <ele>760</ele>
        <time>2019-06-07T07:56:40Z</time>
      </trkpt>
      <trkpt lat="44.36232" lon="5.63232">
        <ele>759</ele>
        <time>2019-06-07T07:56:41Z</time>
      </trkpt>
      <trkpt lat="44.3623" lon="5.63224">
        <ele>758</ele>
        <time>2019-06-07T07:56:42Z</time>
      </trkpt>
      <trkpt lat="44.36228" lon="5.63215">
        <ele>758</ele>
        <time>2019-06-07T07:56:43Z</time>
      </trkpt>
      <trkpt lat="44.36227" lon="5.63207">
        <ele>757</ele>
        <time>2019-06-07T07:56:44Z</time>
      </trkpt>
      <trkpt lat="44.36224" lon="5.63199">
        <ele>756</ele>
        <time>2019-06-07T07:56:45Z</time>
      </trkpt>
      <trkpt lat="44.36222" lon="5.63191">
        <ele>755</ele>
        <time>2019-06-07T07:56:46Z</time>
      </trkpt>
      <trkpt lat="44.36221" lon="5.63182">
        <ele>754</ele>
        <time>2019-06-07T07:56:47Z</time>
      </trkpt>
      <trkpt lat="44.3622" lon="5.63173">
        <ele>753</ele>
        <time>2019-06-07T07:56:48Z</time>
      </trkpt>
      <trkpt lat="44.36219" lon="5.63165">
        <ele>752</ele>
        <time>2019-06-07T07:56:49Z</time>
      </trkpt>
      <trkpt lat="44.36218" lon="5.63156">
        <ele>751</ele>
        <time>2019-06-07T07:56:50Z</time>
      </trkpt>
      <trkpt lat="44.36216" lon="5.63147">
        <ele>750</ele>
        <time>2019-06-07T07:56:51Z</time>
      </trkpt>
      <trkpt lat="44.36214" lon="5.63137">
        <ele>749</ele>
        <time>2019-06-07T07:56:52Z</time>
      </trkpt>
      <trkpt lat="44.36213" lon="5.63128">
        <ele>749</ele>
        <time>2019-06-07T07:56:53Z</time>
      </trkpt>
      <trkpt lat="44.3621" lon="5.63118">
        <ele>749</ele>
        <time>2019-06-07T07:56:54Z</time>
      </trkpt>
      <trkpt lat="44.36208" lon="5.63109">
        <ele>749</ele>
        <time>2019-06-07T07:56:55Z</time>
      </trkpt>
      <trkpt lat="44.36206" lon="5.63099">
        <ele>749</ele>
        <time>2019-06-07T07:56:56Z</time>
      </trkpt>
      <trkpt lat="44.36203" lon="5.63089">
        <ele>749</ele>
        <time>2019-06-07T07:56:57Z</time>
      </trkpt>
      <trkpt lat="44.36201" lon="5.6308">
        <ele>749</ele>
        <time>2019-06-07T07:56:58Z</time>
      </trkpt>
      <trkpt lat="44.36198" lon="5.6307">
        <ele>749</ele>
        <time>2019-06-07T07:56:59Z</time>
      </trkpt>
      <trkpt lat="44.36196" lon="5.63062">
        <ele>750</ele>
        <time>2019-06-07T07:57:00Z</time>
      </trkpt>
      <trkpt lat="44.36194" lon="5.63053">
        <ele>750</ele>
        <time>2019-06-07T07:57:01Z</time>
      </trkpt>
      <trkpt lat="44.36192" lon="5.63044">
        <ele>751</ele>
        <time>2019-06-07T07:57:02Z</time>
      </trkpt>
      <trkpt lat="44.3619" lon="5.63035">
        <ele>751</ele>
        <time>2019-06-07T07:57:03Z</time>
      </trkpt>
      <trkpt lat="44.36188" lon="5.63026">
        <ele>752</ele>
        <time>2019-06-07T07:57:04Z</time>
      </trkpt>
      <trkpt lat="44.36185" lon="5.63017">
        <ele>752</ele>
        <time>2019-06-07T07:57:05Z</time>
      </trkpt>
      <trkpt lat="44.36183" lon="5.63008">
        <ele>752</ele>
        <time>2019-06-07T07:57:06Z</time>
      </trkpt>
      <trkpt lat="44.36181" lon="5.62999">
        <ele>753</ele>
        <time>2019-06-07T07:57:07Z</time>
      </trkpt>
      <trkpt lat="44.36179" lon="5.6299">
        <ele>754</ele>
        <time>2019-06-07T07:57:08Z</time>
      </trkpt>
      <trkpt lat="44.36177" lon="5.62981">
        <ele>755</ele>
        <time>2019-06-07T07:57:09Z</time>
      </trkpt>
      <trkpt lat="44.36176" lon="5.62973">
        <ele>756</ele>
        <time>2019-06-07T07:57:10Z</time>
      </trkpt>
      <trkpt lat="44.36174" lon="5.62964">
        <ele>756</ele>
        <time>2019-06-07T07:57:11Z</time>
      </trkpt>
      <trkpt lat="44.36172" lon="5.62955">
        <ele>756</ele>
        <time>2019-06-07T07:57:12Z</time>
      </trkpt>
      <trkpt lat="44.36171" lon="5.62946">
        <ele>757</ele>
        <time>2019-06-07T07:57:13Z</time>
      </trkpt>
      <trkpt lat="44.36169" lon="5.62937">
        <ele>758</ele>
        <time>2019-06-07T07:57:14Z</time>
      </trkpt>
      <trkpt lat="44.36167" lon="5.62928">
        <ele>759</ele>
        <time>2019-06-07T07:57:15Z</time>
      </trkpt>
      <trkpt lat="44.36164" lon="5.62919">
        <ele>760</ele>
        <time>2019-06-07T07:57:16Z</time>
      </trkpt>
      <trkpt lat="44.36162" lon="5.6291">
        <ele>761</ele>
        <time>2019-06-07T07:57:17Z</time>
      </trkpt>
      <trkpt lat="44.3616" lon="5.62902">
        <ele>762</ele>
        <time>2019-06-07T07:57:18Z</time>
      </trkpt>
      <trkpt lat="44.36158" lon="5.62894">
        <ele>763</ele>
        <time>2019-06-07T07:57:19Z</time>
      </trkpt>
      <trkpt lat="44.36155" lon="5.62886">
        <ele>763</ele>
        <time>2019-06-07T07:57:20Z</time>
      </trkpt>
      <trkpt lat="44.36153" lon="5.62878">
        <ele>763</ele>
        <time>2019-06-07T07:57:21Z</time>
      </trkpt>
      <trkpt lat="44.3615" lon="5.6287">
        <ele>763</ele>
        <time>2019-06-07T07:57:22Z</time>
      </trkpt>
      <trkpt lat="44.36148" lon="5.62862">
        <ele>763</ele>
        <time>2019-06-07T07:57:23Z</time>
      </trkpt>
      <trkpt lat="44.36145" lon="5.62855">
        <ele>763</ele>
        <time>2019-06-07T07:57:24Z</time>
      </trkpt>
      <trkpt lat="44.36142" lon="5.62847">
        <ele>763</ele>
        <time>2019-06-07T07:57:25Z</time>
      </trkpt>
      <trkpt lat="44.36139" lon="5.6284">
        <ele>763</ele>
        <time>2019-06-07T07:57:26Z</time>
      </trkpt>
      <trkpt lat="44.36135" lon="5.62832">
        <ele>763</ele>
        <time>2019-06-07T07:57:27Z</time>
      </trkpt>
      <trkpt lat="44.36132" lon="5.62826">
        <ele>763</ele>
        <time>2019-06-07T07:57:28Z</time>
      </trkpt>
      <trkpt lat="44.36129" lon="5.62819">
        <ele>763</ele>
        <time>2019-06-07T07:57:29Z</time>
      </trkpt>
      <trkpt lat="44.36126" lon="5.62811">
        <ele>763</ele>
        <time>2019-06-07T07:57:30Z</time>
      </trkpt>
      <trkpt lat="44.36124" lon="5.62804">
        <ele>762</ele>
        <time>2019-06-07T07:57:31Z</time>
      </trkpt>
      <trkpt lat="44.36108" lon="5.62768">
        <ele>761</ele>
        <time>2019-06-07T07:57:36Z</time>
      </trkpt>
      <trkpt lat="44.36105" lon="5.6276">
        <ele>760</ele>
        <time>2019-06-07T07:57:37Z</time>
      </trkpt>
      <trkpt lat="44.36102" lon="5.62752">
        <ele>758</ele>
        <time>2019-06-07T07:57:38Z</time>
      </trkpt>
      <trkpt lat="44.36098" lon="5.62745">
        <ele>756</ele>
        <time>2019-06-07T07:57:39Z</time>
      </trkpt>
      <trkpt lat="44.36095" lon="5.62737">
        <ele>755</ele>
        <time>2019-06-07T07:57:40Z</time>
      </trkpt>
      <trkpt lat="44.36092" lon="5.62729">
        <ele>754</ele>
        <time>2019-06-07T07:57:41Z</time>
      </trkpt>
      <trkpt lat="44.3609" lon="5.62721">
        <ele>753</ele>
        <time>2019-06-07T07:57:42Z</time>
      </trkpt>
      <trkpt lat="44.36088" lon="5.62713">
        <ele>752</ele>
        <time>2019-06-07T07:57:43Z</time>
      </trkpt>
      <trkpt lat="44.36086" lon="5.62704">
        <ele>751</ele>
        <time>2019-06-07T07:57:44Z</time>
      </trkpt>
      <trkpt lat="44.36084" lon="5.62696">
        <ele>750</ele>
        <time>2019-06-07T07:57:45Z</time>
      </trkpt>
      <trkpt lat="44.36082" lon="5.62687">
        <ele>750</ele>
        <time>2019-06-07T07:57:46Z</time>
      </trkpt>
      <trkpt lat="44.36081" lon="5.62678">
        <ele>750</ele>
        <time>2019-06-07T07:57:47Z</time>
      </trkpt>
      <trkpt lat="44.36081" lon="5.62669">
        <ele>750</ele>
        <time>2019-06-07T07:57:48Z</time>
      </trkpt>
      <trkpt lat="44.36079" lon="5.6266">
        <ele>750</ele>
        <time>2019-06-07T07:57:49Z</time>
      </trkpt>
      <trkpt lat="44.36079" lon="5.62652">
        <ele>750</ele>
        <time>2019-06-07T07:57:50Z</time>
      </trkpt>
      <trkpt lat="44.36079" lon="5.62644">
        <ele>750</ele>
        <time>2019-06-07T07:57:51Z</time>
      </trkpt>
      <trkpt lat="44.36078" lon="5.62636">
        <ele>750</ele>
        <time>2019-06-07T07:57:52Z</time>
      </trkpt>
      <trkpt lat="44.36078" lon="5.62627">
        <ele>750</ele>
        <time>2019-06-07T07:57:53Z</time>
      </trkpt>
      <trkpt lat="44.36077" lon="5.62619">
        <ele>750</ele>
        <time>2019-06-07T07:57:54Z</time>
      </trkpt>
      <trkpt lat="44.36077" lon="5.62611">
        <ele>749</ele>
        <time>2019-06-07T07:57:55Z</time>
      </trkpt>
      <trkpt lat="44.36076" lon="5.62603">
        <ele>749</ele>
        <time>2019-06-07T07:57:56Z</time>
      </trkpt>
      <trkpt lat="44.36076" lon="5.62594">
        <ele>748</ele>
        <time>2019-06-07T07:57:57Z</time>
      </trkpt>
      <trkpt lat="44.36075" lon="5.62585">
        <ele>748</ele>
        <time>2019-06-07T07:57:59Z</time>
      </trkpt>
      <trkpt lat="44.36074" lon="5.62577">
        <ele>748</ele>
        <time>2019-06-07T07:57:59Z</time>
      </trkpt>
      <trkpt lat="44.36074" lon="5.62569">
        <ele>748</ele>
        <time>2019-06-07T07:58:00Z</time>
      </trkpt>
      <trkpt lat="44.36074" lon="5.62561">
        <ele>748</ele>
        <time>2019-06-07T07:58:01Z</time>
      </trkpt>
      <trkpt lat="44.36072" lon="5.62554">
        <ele>748</ele>
        <time>2019-06-07T07:58:02Z</time>
      </trkpt>
      <trkpt lat="44.36071" lon="5.62546">
        <ele>748</ele>
        <time>2019-06-07T07:58:03Z</time>
      </trkpt>
      <trkpt lat="44.36071" lon="5.62538">
        <ele>748</ele>
        <time>2019-06-07T07:58:04Z</time>
      </trkpt>
      <trkpt lat="44.36071" lon="5.62529">
        <ele>748</ele>
        <time>2019-06-07T07:58:05Z</time>
      </trkpt>
      <trkpt lat="44.36071" lon="5.6252">
        <ele>748</ele>
        <time>2019-06-07T07:58:06Z</time>
      </trkpt>
      <trkpt lat="44.36071" lon="5.62512">
        <ele>749</ele>
        <time>2019-06-07T07:58:07Z</time>
      </trkpt>
      <trkpt lat="44.36071" lon="5.62505">
        <ele>750</ele>
        <time>2019-06-07T07:58:08Z</time>
      </trkpt>
      <trkpt lat="44.3607" lon="5.62497">
        <ele>751</ele>
        <time>2019-06-07T07:58:09Z</time>
      </trkpt>
      <trkpt lat="44.3607" lon="5.62488">
        <ele>752</ele>
        <time>2019-06-07T07:58:10Z</time>
      </trkpt>
      <trkpt lat="44.36069" lon="5.6248">
        <ele>753</ele>
        <time>2019-06-07T07:58:11Z</time>
      </trkpt>
      <trkpt lat="44.36069" lon="5.62473">
        <ele>754</ele>
        <time>2019-06-07T07:58:12Z</time>
      </trkpt>
      <trkpt lat="44.3607" lon="5.62465">
        <ele>755</ele>
        <time>2019-06-07T07:58:13Z</time>
      </trkpt>
      <trkpt lat="44.3607" lon="5.62457">
        <ele>755</ele>
        <time>2019-06-07T07:58:14Z</time>
      </trkpt>
      <trkpt lat="44.36071" lon="5.6245">
        <ele>755</ele>
        <time>2019-06-07T07:58:15Z</time>
      </trkpt>
      <trkpt lat="44.36073" lon="5.62443">
        <ele>756</ele>
        <time>2019-06-07T07:58:16Z</time>
      </trkpt>
      <trkpt lat="44.36074" lon="5.62436">
        <ele>756</ele>
        <time>2019-06-07T07:58:17Z</time>
      </trkpt>
      <trkpt lat="44.36076" lon="5.62429">
        <ele>756</ele>
        <time>2019-06-07T07:58:18Z</time>
      </trkpt>
      <trkpt lat="44.36078" lon="5.62422">
        <ele>757</ele>
        <time>2019-06-07T07:58:19Z</time>
      </trkpt>
      <trkpt lat="44.36081" lon="5.62415">
        <ele>757</ele>
        <time>2019-06-07T07:58:20Z</time>
      </trkpt>
      <trkpt lat="44.36083" lon="5.62408">
        <ele>757</ele>
        <time>2019-06-07T07:58:21Z</time>
      </trkpt>
      <trkpt lat="44.36085" lon="5.62401">
        <ele>758</ele>
        <time>2019-06-07T07:58:22Z</time>
      </trkpt>
      <trkpt lat="44.36088" lon="5.62395">
        <ele>758</ele>
        <time>2019-06-07T07:58:23Z</time>
      </trkpt>
      <trkpt lat="44.3609" lon="5.62388">
        <ele>759</ele>
        <time>2019-06-07T07:58:24Z</time>
      </trkpt>
      <trkpt lat="44.36093" lon="5.62382">
        <ele>759</ele>
        <time>2019-06-07T07:58:25Z</time>
      </trkpt>
      <trkpt lat="44.36095" lon="5.62374">
        <ele>759</ele>
        <time>2019-06-07T07:58:26Z</time>
      </trkpt>
      <trkpt lat="44.36097" lon="5.62367">
        <ele>760</ele>
        <time>2019-06-07T07:58:27Z</time>
      </trkpt>
      <trkpt lat="44.36099" lon="5.6236">
        <ele>761</ele>
        <time>2019-06-07T07:58:28Z</time>
      </trkpt>
      <trkpt lat="44.361" lon="5.62353">
        <ele>761</ele>
        <time>2019-06-07T07:58:29Z</time>
      </trkpt>
      <trkpt lat="44.36101" lon="5.62346">
        <ele>762</ele>
        <time>2019-06-07T07:58:30Z</time>
      </trkpt>
      <trkpt lat="44.36102" lon="5.62339">
        <ele>762</ele>
        <time>2019-06-07T07:58:31Z</time>
      </trkpt>
      <trkpt lat="44.36102" lon="5.62331">
        <ele>763</ele>
        <time>2019-06-07T07:58:32Z</time>
      </trkpt>
      <trkpt lat="44.36102" lon="5.62324">
        <ele>763</ele>
        <time>2019-06-07T07:58:33Z</time>
      </trkpt>
      <trkpt lat="44.36102" lon="5.62317">
        <ele>763</ele>
        <time>2019-06-07T07:58:34Z</time>
      </trkpt>
      <trkpt lat="44.36102" lon="5.62309">
        <ele>763</ele>
        <time>2019-06-07T07:58:35Z</time>
      </trkpt>
      <trkpt lat="44.36102" lon="5.62301">
        <ele>763</ele>
        <time>2019-06-07T07:58:36Z</time>
      </trkpt>
      <trkpt lat="44.36102" lon="5.62293">
        <ele>763</ele>
        <time>2019-06-07T07:58:37Z</time>
      </trkpt>
      <trkpt lat="44.36102" lon="5.62285">
        <ele>763</ele>
        <time>2019-06-07T07:58:38Z</time>
      </trkpt>
      <trkpt lat="44.36102" lon="5.62277">
        <ele>763</ele>
        <time>2019-06-07T07:58:39Z</time>
      </trkpt>
      <trkpt lat="44.36101" lon="5.62268">
        <ele>764</ele>
        <time>2019-06-07T07:58:40Z</time>
      </trkpt>
      <trkpt lat="44.36101" lon="5.6226">
        <ele>764</ele>
        <time>2019-06-07T07:58:41Z</time>
      </trkpt>
      <trkpt lat="44.36101" lon="5.62252">
        <ele>764</ele>
        <time>2019-06-07T07:58:42Z</time>
      </trkpt>
      <trkpt lat="44.361" lon="5.62244">
        <ele>764</ele>
        <time>2019-06-07T07:58:43Z</time>
      </trkpt>
      <trkpt lat="44.36099" lon="5.62236">
        <ele>765</ele>
        <time>2019-06-07T07:58:44Z</time>
      </trkpt>
      <trkpt lat="44.36099" lon="5.62228">
        <ele>765</ele>
        <time>2019-06-07T07:58:45Z</time>
      </trkpt>
      <trkpt lat="44.36098" lon="5.62221">
        <ele>766</ele>
        <time>2019-06-07T07:58:46Z</time>
      </trkpt>
      <trkpt lat="44.36097" lon="5.62213">
        <ele>766</ele>
        <time>2019-06-07T07:58:47Z</time>
      </trkpt>
      <trkpt lat="44.36096" lon="5.62206">
        <ele>766</ele>
        <time>2019-06-07T07:58:48Z</time>
      </trkpt>
      <trkpt lat="44.36095" lon="5.62198">
        <ele>767</ele>
        <time>2019-06-07T07:58:49Z</time>
      </trkpt>
      <trkpt lat="44.36093" lon="5.62191">
        <ele>767</ele>
        <time>2019-06-07T07:58:50Z</time>
      </trkpt>
      <trkpt lat="44.36092" lon="5.62183">
        <ele>767</ele>
        <time>2019-06-07T07:58:51Z</time>
      </trkpt>
      <trkpt lat="44.3609" lon="5.62176">
        <ele>767</ele>
        <time>2019-06-07T07:58:52Z</time>
      </trkpt>
      <trkpt lat="44.36088" lon="5.62169">
        <ele>768</ele>
        <time>2019-06-07T07:58:53Z</time>
      </trkpt>
      <trkpt lat="44.36087" lon="5.62161">
        <ele>768</ele>
        <time>2019-06-07T07:58:54Z</time>
      </trkpt>
      <trkpt lat="44.36085" lon="5.62154">
        <ele>768</ele>
        <time>2019-06-07T07:58:55Z</time>
      </trkpt>
      <trkpt lat="44.36083" lon="5.62147">
        <ele>768</ele>
        <time>2019-06-07T07:58:56Z</time>
      </trkpt>
      <trkpt lat="44.36081" lon="5.6214">
        <ele>768</ele>
        <time>2019-06-07T07:58:57Z</time>
      </trkpt>
      <trkpt lat="44.36079" lon="5.62133">
        <ele>768</ele>
        <time>2019-06-07T07:58:59Z</time>
      </trkpt>
      <trkpt lat="44.36076" lon="5.62126">
        <ele>768</ele>
        <time>2019-06-07T07:58:59Z</time>
      </trkpt>
      <trkpt lat="44.36074" lon="5.62119">
        <ele>768</ele>
        <time>2019-06-07T07:59:00Z</time>
      </trkpt>
      <trkpt lat="44.36071" lon="5.62113">
        <ele>768</ele>
        <time>2019-06-07T07:59:01Z</time>
      </trkpt>
      <trkpt lat="44.36069" lon="5.62106">
        <ele>768</ele>
        <time>2019-06-07T07:59:02Z</time>
      </trkpt>
      <trkpt lat="44.36066" lon="5.62099">
        <ele>768</ele>
        <time>2019-06-07T07:59:03Z</time>
      </trkpt>
      <trkpt lat="44.36063" lon="5.62092">
        <ele>768</ele>
        <time>2019-06-07T07:59:04Z</time>
      </trkpt>
      <trkpt lat="44.36059" lon="5.62086">
        <ele>768</ele>
        <time>2019-06-07T07:59:05Z</time>
      </trkpt>
      <trkpt lat="44.36056" lon="5.62079">
        <ele>768</ele>
        <time>2019-06-07T07:59:06Z</time>
      </trkpt>
      <trkpt lat="44.36053" lon="5.62073">
        <ele>768</ele>
        <time>2019-06-07T07:59:07Z</time>
      </trkpt>
      <trkpt lat="44.3605" lon="5.62066">
        <ele>768</ele>
        <time>2019-06-07T07:59:08Z</time>
      </trkpt>
      <trkpt lat="44.36047" lon="5.62059">
        <ele>768</ele>
        <time>2019-06-07T07:59:09Z</time>
      </trkpt>
      <trkpt lat="44.36043" lon="5.62053">
        <ele>768</ele>
        <time>2019-06-07T07:59:10Z</time>
      </trkpt>
      <trkpt lat="44.36039" lon="5.62046">
        <ele>768</ele>
        <time>2019-06-07T07:59:11Z</time>
      </trkpt>
      <trkpt lat="44.36036" lon="5.62039">
        <ele>768</ele>
        <time>2019-06-07T07:59:12Z</time>
      </trkpt>
      <trkpt lat="44.36034" lon="5.62033">
        <ele>768</ele>
        <time>2019-06-07T07:59:13Z</time>
      </trkpt>
      <trkpt lat="44.36031" lon="5.62027">
        <ele>769</ele>
        <time>2019-06-07T07:59:14Z</time>
      </trkpt>
      <trkpt lat="44.36027" lon="5.6202">
        <ele>769</ele>
        <time>2019-06-07T07:59:15Z</time>
      </trkpt>
      <trkpt lat="44.36024" lon="5.62013">
        <ele>769</ele>
        <time>2019-06-07T07:59:16Z</time>
      </trkpt>
      <trkpt lat="44.36021" lon="5.62007">
        <ele>769</ele>
        <time>2019-06-07T07:59:17Z</time>
      </trkpt>
      <trkpt lat="44.36018" lon="5.62">
        <ele>769</ele>
        <time>2019-06-07T07:59:18Z</time>
      </trkpt>
      <trkpt lat="44.36015" lon="5.61993">
        <ele>769</ele>
        <time>2019-06-07T07:59:19Z</time>
      </trkpt>
      <trkpt lat="44.36013" lon="5.61985">
        <ele>769</ele>
        <time>2019-06-07T07:59:20Z</time>
      </trkpt>
      <trkpt lat="44.3601" lon="5.61978">
        <ele>769</ele>
        <time>2019-06-07T07:59:21Z</time>
      </trkpt>
      <trkpt lat="44.36007" lon="5.61971">
        <ele>769</ele>
        <time>2019-06-07T07:59:22Z</time>
      </trkpt>
      <trkpt lat="44.36005" lon="5.61963">
        <ele>770</ele>
        <time>2019-06-07T07:59:23Z</time>
      </trkpt>
      <trkpt lat="44.36002" lon="5.61955">
        <ele>770</ele>
        <time>2019-06-07T07:59:24Z</time>
      </trkpt>
      <trkpt lat="44.36" lon="5.61947">
        <ele>771</ele>
        <time>2019-06-07T07:59:25Z</time>
      </trkpt>
      <trkpt lat="44.35998" lon="5.61939">
        <ele>771</ele>
        <time>2019-06-07T07:59:26Z</time>
      </trkpt>
      <trkpt lat="44.35996" lon="5.61932">
        <ele>772</ele>
        <time>2019-06-07T07:59:27Z</time>
      </trkpt>
      <trkpt lat="44.35994" lon="5.61924">
        <ele>772</ele>
        <time>2019-06-07T07:59:28Z</time>
      </trkpt>
      <trkpt lat="44.35993" lon="5.61916">
        <ele>772</ele>
        <time>2019-06-07T07:59:29Z</time>
      </trkpt>
      <trkpt lat="44.35991" lon="5.61908">
        <ele>773</ele>
        <time>2019-06-07T07:59:30Z</time>
      </trkpt>
      <trkpt lat="44.3599" lon="5.619">
        <ele>773</ele>
        <time>2019-06-07T07:59:31Z</time>
      </trkpt>
      <trkpt lat="44.35988" lon="5.61893">
        <ele>773</ele>
        <time>2019-06-07T07:59:32Z</time>
      </trkpt>
      <trkpt lat="44.35987" lon="5.61884">
        <ele>773</ele>
        <time>2019-06-07T07:59:33Z</time>
      </trkpt>
      <trkpt lat="44.35986" lon="5.61877">
        <ele>773</ele>
        <time>2019-06-07T07:59:34Z</time>
      </trkpt>
      <trkpt lat="44.35984" lon="5.61869">
        <ele>773</ele>
        <time>2019-06-07T07:59:35Z</time>
      </trkpt>
      <trkpt lat="44.35983" lon="5.61861">
        <ele>773</ele>
        <time>2019-06-07T07:59:36Z</time>
      </trkpt>
      <trkpt lat="44.35982" lon="5.61853">
        <ele>773</ele>
        <time>2019-06-07T07:59:37Z</time>
      </trkpt>
      <trkpt lat="44.3598" lon="5.61845">
        <ele>773</ele>
        <time>2019-06-07T07:59:38Z</time>
      </trkpt>
      <trkpt lat="44.35979" lon="5.61837">
        <ele>773</ele>
        <time>2019-06-07T07:59:39Z</time>
      </trkpt>
      <trkpt lat="44.35977" lon="5.6183">
        <ele>773</ele>
        <time>2019-06-07T07:59:40Z</time>
      </trkpt>
      <trkpt lat="44.35976" lon="5.61821">
        <ele>773</ele>
        <time>2019-06-07T07:59:41Z</time>
      </trkpt>
      <trkpt lat="44.35975" lon="5.61813">
        <ele>773</ele>
        <time>2019-06-07T07:59:42Z</time>
      </trkpt>
      <trkpt lat="44.35974" lon="5.61805">
        <ele>773</ele>
        <time>2019-06-07T07:59:43Z</time>
      </trkpt>
      <trkpt lat="44.35974" lon="5.61796">
        <ele>773</ele>
        <time>2019-06-07T07:59:44Z</time>
      </trkpt>
      <trkpt lat="44.35973" lon="5.61788">
        <ele>773</ele>
        <time>2019-06-07T07:59:45Z</time>
      </trkpt>
      <trkpt lat="44.35973" lon="5.61779">
        <ele>773</ele>
        <time>2019-06-07T07:59:46Z</time>
      </trkpt>
      <trkpt lat="44.35973" lon="5.61771">
        <ele>773</ele>
        <time>2019-06-07T07:59:47Z</time>
      </trkpt>
      <trkpt lat="44.35973" lon="5.61763">
        <ele>773</ele>
        <time>2019-06-07T07:59:48Z</time>
      </trkpt>
      <trkpt lat="44.35974" lon="5.61754">
        <ele>773</ele>
        <time>2019-06-07T07:59:49Z</time>
      </trkpt>
      <trkpt lat="44.35975" lon="5.61746">
        <ele>773</ele>
        <time>2019-06-07T07:59:50Z</time>
      </trkpt>
      <trkpt lat="44.35976" lon="5.61738">
        <ele>773</ele>
        <time>2019-06-07T07:59:51Z</time>
      </trkpt>
      <trkpt lat="44.35977" lon="5.6173">
        <ele>773</ele>
        <time>2019-06-07T07:59:52Z</time>
      </trkpt>
      <trkpt lat="44.35979" lon="5.61721">
        <ele>773</ele>
        <time>2019-06-07T07:59:53Z</time>
      </trkpt>
      <trkpt lat="44.3598" lon="5.61713">
        <ele>773</ele>
        <time>2019-06-07T07:59:54Z</time>
      </trkpt>
      <trkpt lat="44.35982" lon="5.61705">
        <ele>773</ele>
        <time>2019-06-07T07:59:55Z</time>
      </trkpt>
      <trkpt lat="44.35983" lon="5.61697">
        <ele>773</ele>
        <time>2019-06-07T07:59:56Z</time>
      </trkpt>
      <trkpt lat="44.35985" lon="5.61689">
        <ele>773</ele>
        <time>2019-06-07T07:59:57Z</time>
      </trkpt>
      <trkpt lat="44.35986" lon="5.61681">
        <ele>773</ele>
        <time>2019-06-07T07:59:58Z</time>
      </trkpt>
      <trkpt lat="44.35988" lon="5.61673">
        <ele>773</ele>
        <time>2019-06-07T07:59:59Z</time>
      </trkpt>
      <trkpt lat="44.3599" lon="5.61665">
        <ele>773</ele>
        <time>2019-06-07T08:00:00Z</time>
      </trkpt>
      <trkpt lat="44.35991" lon="5.61657">
        <ele>773</ele>
        <time>2019-06-07T08:00:01Z</time>
      </trkpt>
      <trkpt lat="44.35993" lon="5.61649">
        <ele>773</ele>
        <time>2019-06-07T08:00:02Z</time>
      </trkpt>
      <trkpt lat="44.35994" lon="5.61641">
        <ele>773</ele>
        <time>2019-06-07T08:00:03Z</time>
      </trkpt>
      <trkpt lat="44.35995" lon="5.61633">
        <ele>773</ele>
        <time>2019-06-07T08:00:04Z</time>
      </trkpt>
      <trkpt lat="44.35996" lon="5.61625">
        <ele>773</ele>
        <time>2019-06-07T08:00:05Z</time>
      </trkpt>
      <trkpt lat="44.35997" lon="5.61618">
        <ele>773</ele>
        <time>2019-06-07T08:00:06Z</time>
      </trkpt>
      <trkpt lat="44.35997" lon="5.6161">
        <ele>773</ele>
        <time>2019-06-07T08:00:07Z</time>
      </trkpt>
      <trkpt lat="44.35997" lon="5.61602">
        <ele>773</ele>
        <time>2019-06-07T08:00:08Z</time>
      </trkpt>
      <trkpt lat="44.35998" lon="5.61594">
        <ele>773</ele>
        <time>2019-06-07T08:00:09Z</time>
      </trkpt>
      <trkpt lat="44.35999" lon="5.61586">
        <ele>773</ele>
        <time>2019-06-07T08:00:10Z</time>
      </trkpt>
      <trkpt lat="44.35999" lon="5.61578">
        <ele>773</ele>
        <time>2019-06-07T08:00:11Z</time>
      </trkpt>
      <trkpt lat="44.36" lon="5.6157">
        <ele>773</ele>
        <time>2019-06-07T08:00:12Z</time>
      </trkpt>
      <trkpt lat="44.36" lon="5.61561">
        <ele>773</ele>
        <time>2019-06-07T08:00:13Z</time>
      </trkpt>
      <trkpt lat="44.36001" lon="5.61553">
        <ele>773</ele>
        <time>2019-06-07T08:00:14Z</time>
      </trkpt>
      <trkpt lat="44.36002" lon="5.61546">
        <ele>773</ele>
        <time>2019-06-07T08:00:15Z</time>
      </trkpt>
      <trkpt lat="44.36003" lon="5.61538">
        <ele>773</ele>
        <time>2019-06-07T08:00:16Z</time>
      </trkpt>
      <trkpt lat="44.36004" lon="5.6153">
        <ele>773</ele>
        <time>2019-06-07T08:00:17Z</time>
      </trkpt>
      <trkpt lat="44.36005" lon="5.61522">
        <ele>773</ele>
        <time>2019-06-07T08:00:18Z</time>
      </trkpt>
      <trkpt lat="44.36006" lon="5.61514">
        <ele>773</ele>
        <time>2019-06-07T08:00:19Z</time>
      </trkpt>
      <trkpt lat="44.36006" lon="5.61506">
        <ele>773</ele>
        <time>2019-06-07T08:00:20Z</time>
      </trkpt>
      <trkpt lat="44.36006" lon="5.61498">
        <ele>773</ele>
        <time>2019-06-07T08:00:21Z</time>
      </trkpt>
      <trkpt lat="44.36005" lon="5.6149">
        <ele>773</ele>
        <time>2019-06-07T08:00:22Z</time>
      </trkpt>
      <trkpt lat="44.36005" lon="5.61482">
        <ele>773</ele>
        <time>2019-06-07T08:00:23Z</time>
      </trkpt>
      <trkpt lat="44.36004" lon="5.61473">
        <ele>773</ele>
        <time>2019-06-07T08:00:24Z</time>
      </trkpt>
      <trkpt lat="44.36002" lon="5.61465">
        <ele>773</ele>
        <time>2019-06-07T08:00:25Z</time>
      </trkpt>
      <trkpt lat="44.36001" lon="5.61457">
        <ele>773</ele>
        <time>2019-06-07T08:00:26Z</time>
      </trkpt>
      <trkpt lat="44.36" lon="5.6145">
        <ele>773</ele>
        <time>2019-06-07T08:00:27Z</time>
      </trkpt>
      <trkpt lat="44.35997" lon="5.61442">
        <ele>773</ele>
        <time>2019-06-07T08:00:28Z</time>
      </trkpt>
      <trkpt lat="44.35995" lon="5.61434">
        <ele>773</ele>
        <time>2019-06-07T08:00:29Z</time>
      </trkpt>
      <trkpt lat="44.35993" lon="5.61427">
        <ele>773</ele>
        <time>2019-06-07T08:00:30Z</time>
      </trkpt>
      <trkpt lat="44.35989" lon="5.61419">
        <ele>773</ele>
        <time>2019-06-07T08:00:31Z</time>
      </trkpt>
      <trkpt lat="44.35986" lon="5.6141">
        <ele>773</ele>
        <time>2019-06-07T08:00:32Z</time>
      </trkpt>
      <trkpt lat="44.35982" lon="5.61403">
        <ele>774</ele>
        <time>2019-06-07T08:00:33Z</time>
      </trkpt>
      <trkpt lat="44.35979" lon="5.61395">
        <ele>775</ele>
        <time>2019-06-07T08:00:34Z</time>
      </trkpt>
      <trkpt lat="44.35976" lon="5.61389">
        <ele>776</ele>
        <time>2019-06-07T08:00:35Z</time>
      </trkpt>
      <trkpt lat="44.35972" lon="5.61382">
        <ele>776</ele>
        <time>2019-06-07T08:00:36Z</time>
      </trkpt>
      <trkpt lat="44.35968" lon="5.61377">
        <ele>777</ele>
        <time>2019-06-07T08:00:37Z</time>
      </trkpt>
      <trkpt lat="44.35965" lon="5.61371">
        <ele>777</ele>
        <time>2019-06-07T08:00:38Z</time>
      </trkpt>
      <trkpt lat="44.35961" lon="5.61366">
        <ele>777</ele>
        <time>2019-06-07T08:00:39Z</time>
      </trkpt>
      <trkpt lat="44.35957" lon="5.61361">
        <ele>777</ele>
        <time>2019-06-07T08:00:40Z</time>
      </trkpt>
      <trkpt lat="44.35952" lon="5.61356">
        <ele>777</ele>
        <time>2019-06-07T08:00:41Z</time>
      </trkpt>
      <trkpt lat="44.35947" lon="5.61351">
        <ele>777</ele>
        <time>2019-06-07T08:00:42Z</time>
      </trkpt>
      <trkpt lat="44.35942" lon="5.61346">
        <ele>777</ele>
        <time>2019-06-07T08:00:43Z</time>
      </trkpt>
      <trkpt lat="44.35938" lon="5.61341">
        <ele>777</ele>
        <time>2019-06-07T08:00:44Z</time>
      </trkpt>
      <trkpt lat="44.35933" lon="5.61336">
        <ele>778</ele>
        <time>2019-06-07T08:00:45Z</time>
      </trkpt>
      <trkpt lat="44.35929" lon="5.6133">
        <ele>779</ele>
        <time>2019-06-07T08:00:46Z</time>
      </trkpt>
      <trkpt lat="44.35925" lon="5.61325">
        <ele>779</ele>
        <time>2019-06-07T08:00:47Z</time>
      </trkpt>
      <trkpt lat="44.35922" lon="5.61318">
        <ele>780</ele>
        <time>2019-06-07T08:00:48Z</time>
      </trkpt>
      <trkpt lat="44.35918" lon="5.61312">
        <ele>780</ele>
        <time>2019-06-07T08:00:49Z</time>
      </trkpt>
      <trkpt lat="44.35916" lon="5.61306">
        <ele>781</ele>
        <time>2019-06-07T08:00:50Z</time>
      </trkpt>
      <trkpt lat="44.35914" lon="5.61299">
        <ele>782</ele>
        <time>2019-06-07T08:00:51Z</time>
      </trkpt>
      <trkpt lat="44.35913" lon="5.61293">
        <ele>783</ele>
        <time>2019-06-07T08:00:52Z</time>
      </trkpt>
      <trkpt lat="44.35913" lon="5.61285">
        <ele>783</ele>
        <time>2019-06-07T08:00:53Z</time>
      </trkpt>
      <trkpt lat="44.35913" lon="5.61279">
        <ele>783</ele>
        <time>2019-06-07T08:00:54Z</time>
      </trkpt>
      <trkpt lat="44.35914" lon="5.61272">
        <ele>784</ele>
        <time>2019-06-07T08:00:55Z</time>
      </trkpt>
      <trkpt lat="44.35915" lon="5.61266">
        <ele>784</ele>
        <time>2019-06-07T08:00:56Z</time>
      </trkpt>
      <trkpt lat="44.35917" lon="5.61259">
        <ele>784</ele>
        <time>2019-06-07T08:00:57Z</time>
      </trkpt>
      <trkpt lat="44.35918" lon="5.61253">
        <ele>784</ele>
        <time>2019-06-07T08:00:58Z</time>
      </trkpt>
      <trkpt lat="44.3592" lon="5.61247">
        <ele>784</ele>
        <time>2019-06-07T08:00:59Z</time>
      </trkpt>
      <trkpt lat="44.3592" lon="5.6124">
        <ele>784</ele>
        <time>2019-06-07T08:01:00Z</time>
      </trkpt>
      <trkpt lat="44.35921" lon="5.61233">
        <ele>784</ele>
        <time>2019-06-07T08:01:01Z</time>
      </trkpt>
      <trkpt lat="44.35921" lon="5.61226">
        <ele>785</ele>
        <time>2019-06-07T08:01:02Z</time>
      </trkpt>
      <trkpt lat="44.3592" lon="5.61219">
        <ele>785</ele>
        <time>2019-06-07T08:01:03Z</time>
      </trkpt>
      <trkpt lat="44.3592" lon="5.61212">
        <ele>785</ele>
        <time>2019-06-07T08:01:04Z</time>
      </trkpt>
      <trkpt lat="44.35918" lon="5.61205">
        <ele>785</ele>
        <time>2019-06-07T08:01:05Z</time>
      </trkpt>
      <trkpt lat="44.35917" lon="5.61198">
        <ele>785</ele>
        <time>2019-06-07T08:01:06Z</time>
      </trkpt>
      <trkpt lat="44.35916" lon="5.6119">
        <ele>785</ele>
        <time>2019-06-07T08:01:07Z</time>
      </trkpt>
      <trkpt lat="44.35915" lon="5.61183">
        <ele>785</ele>
        <time>2019-06-07T08:01:08Z</time>
      </trkpt>
      <trkpt lat="44.35913" lon="5.61176">
        <ele>785</ele>
        <time>2019-06-07T08:01:09Z</time>
      </trkpt>
      <trkpt lat="44.35912" lon="5.61168">
        <ele>785</ele>
        <time>2019-06-07T08:01:10Z</time>
      </trkpt>
      <trkpt lat="44.3591" lon="5.61161">
        <ele>785</ele>
        <time>2019-06-07T08:01:11Z</time>
      </trkpt>
      <trkpt lat="44.35909" lon="5.61154">
        <ele>785</ele>
        <time>2019-06-07T08:01:12Z</time>
      </trkpt>
      <trkpt lat="44.35908" lon="5.61146">
        <ele>785</ele>
        <time>2019-06-07T08:01:13Z</time>
      </trkpt>
      <trkpt lat="44.35907" lon="5.6114">
        <ele>785</ele>
        <time>2019-06-07T08:01:14Z</time>
      </trkpt>
      <trkpt lat="44.35905" lon="5.61133">
        <ele>785</ele>
        <time>2019-06-07T08:01:15Z</time>
      </trkpt>
      <trkpt lat="44.35904" lon="5.61126">
        <ele>785</ele>
        <time>2019-06-07T08:01:16Z</time>
      </trkpt>
      <trkpt lat="44.35902" lon="5.6112">
        <ele>785</ele>
        <time>2019-06-07T08:01:17Z</time>
      </trkpt>
      <trkpt lat="44.35901" lon="5.61114">
        <ele>785</ele>
        <time>2019-06-07T08:01:18Z</time>
      </trkpt>
      <trkpt lat="44.35899" lon="5.61107">
        <ele>785</ele>
        <time>2019-06-07T08:01:19Z</time>
      </trkpt>
      <trkpt lat="44.35898" lon="5.611">
        <ele>785</ele>
        <time>2019-06-07T08:01:20Z</time>
      </trkpt>
      <trkpt lat="44.35896" lon="5.61093">
        <ele>785</ele>
        <time>2019-06-07T08:01:21Z</time>
      </trkpt>
      <trkpt lat="44.35895" lon="5.61086">
        <ele>785</ele>
        <time>2019-06-07T08:01:22Z</time>
      </trkpt>
      <trkpt lat="44.35894" lon="5.61078">
        <ele>785</ele>
        <time>2019-06-07T08:01:23Z</time>
      </trkpt>
      <trkpt lat="44.35893" lon="5.61071">
        <ele>785</ele>
        <time>2019-06-07T08:01:24Z</time>
      </trkpt>
      <trkpt lat="44.35891" lon="5.61063">
        <ele>785</ele>
        <time>2019-06-07T08:01:25Z</time>
      </trkpt>
      <trkpt lat="44.3589" lon="5.61056">
        <ele>785</ele>
        <time>2019-06-07T08:01:26Z</time>
      </trkpt>
      <trkpt lat="44.35888" lon="5.61048">
        <ele>785</ele>
        <time>2019-06-07T08:01:27Z</time>
      </trkpt>
      <trkpt lat="44.35886" lon="5.61039">
        <ele>785</ele>
        <time>2019-06-07T08:01:28Z</time>
      </trkpt>
      <trkpt lat="44.35885" lon="5.6103">
        <ele>785</ele>
        <time>2019-06-07T08:01:29Z</time>
      </trkpt>
      <trkpt lat="44.35884" lon="5.61021">
        <ele>785</ele>
        <time>2019-06-07T08:01:30Z</time>
      </trkpt>
      <trkpt lat="44.35883" lon="5.61012">
        <ele>786</ele>
        <time>2019-06-07T08:01:31Z</time>
      </trkpt>
      <trkpt lat="44.35882" lon="5.61003">
        <ele>787</ele>
        <time>2019-06-07T08:01:32Z</time>
      </trkpt>
      <trkpt lat="44.35881" lon="5.60993">
        <ele>788</ele>
        <time>2019-06-07T08:01:33Z</time>
      </trkpt>
      <trkpt lat="44.3588" lon="5.60984">
        <ele>789</ele>
        <time>2019-06-07T08:01:34Z</time>
      </trkpt>
      <trkpt lat="44.3588" lon="5.60975">
        <ele>789</ele>
        <time>2019-06-07T08:01:35Z</time>
      </trkpt>
      <trkpt lat="44.3588" lon="5.60966">
        <ele>789</ele>
        <time>2019-06-07T08:01:36Z</time>
      </trkpt>
      <trkpt lat="44.35881" lon="5.60957">
        <ele>789</ele>
        <time>2019-06-07T08:01:37Z</time>
      </trkpt>
      <trkpt lat="44.35882" lon="5.60948">
        <ele>789</ele>
        <time>2019-06-07T08:01:38Z</time>
      </trkpt>
      <trkpt lat="44.35882" lon="5.60938">
        <ele>789</ele>
        <time>2019-06-07T08:01:39Z</time>
      </trkpt>
      <trkpt lat="44.35883" lon="5.60929">
        <ele>789</ele>
        <time>2019-06-07T08:01:40Z</time>
      </trkpt>
      <trkpt lat="44.35884" lon="5.60919">
        <ele>789</ele>
        <time>2019-06-07T08:01:41Z</time>
      </trkpt>
      <trkpt lat="44.35885" lon="5.6091">
        <ele>789</ele>
        <time>2019-06-07T08:01:42Z</time>
      </trkpt>
      <trkpt lat="44.35886" lon="5.609">
        <ele>789</ele>
        <time>2019-06-07T08:01:43Z</time>
      </trkpt>
      <trkpt lat="44.35887" lon="5.6089">
        <ele>789</ele>
        <time>2019-06-07T08:01:44Z</time>
      </trkpt>
      <trkpt lat="44.35888" lon="5.60881">
        <ele>790</ele>
        <time>2019-06-07T08:01:45Z</time>
      </trkpt>
      <trkpt lat="44.35888" lon="5.60871">
        <ele>790</ele>
        <time>2019-06-07T08:01:46Z</time>
      </trkpt>
      <trkpt lat="44.35888" lon="5.60861">
        <ele>791</ele>
        <time>2019-06-07T08:01:47Z</time>
      </trkpt>
      <trkpt lat="44.35888" lon="5.60852">
        <ele>791</ele>
        <time>2019-06-07T08:01:48Z</time>
      </trkpt>
      <trkpt lat="44.35888" lon="5.60842">
        <ele>791</ele>
        <time>2019-06-07T08:01:49Z</time>
      </trkpt>
      <trkpt lat="44.35889" lon="5.60833">
        <ele>791</ele>
        <time>2019-06-07T08:01:50Z</time>
      </trkpt>
      <trkpt lat="44.35889" lon="5.60823">
        <ele>792</ele>
        <time>2019-06-07T08:01:51Z</time>
      </trkpt>
      <trkpt lat="44.3589" lon="5.60813">
        <ele>792</ele>
        <time>2019-06-07T08:01:52Z</time>
      </trkpt>
      <trkpt lat="44.3589" lon="5.60804">
        <ele>792</ele>
        <time>2019-06-07T08:01:53Z</time>
      </trkpt>
      <trkpt lat="44.35891" lon="5.60794">
        <ele>792</ele>
        <time>2019-06-07T08:01:54Z</time>
      </trkpt>
      <trkpt lat="44.35892" lon="5.60785">
        <ele>792</ele>
        <time>2019-06-07T08:01:55Z</time>
      </trkpt>
      <trkpt lat="44.35893" lon="5.60776">
        <ele>792</ele>
        <time>2019-06-07T08:01:56Z</time>
      </trkpt>
      <trkpt lat="44.35895" lon="5.60768">
        <ele>792</ele>
        <time>2019-06-07T08:01:57Z</time>
      </trkpt>
      <trkpt lat="44.35898" lon="5.60759">
        <ele>792</ele>
        <time>2019-06-07T08:01:58Z</time>
      </trkpt>
      <trkpt lat="44.35902" lon="5.60752">
        <ele>792</ele>
        <time>2019-06-07T08:01:59Z</time>
      </trkpt>
      <trkpt lat="44.35905" lon="5.60745">
        <ele>792</ele>
        <time>2019-06-07T08:02:00Z</time>
      </trkpt>
      <trkpt lat="44.35909" lon="5.60738">
        <ele>792</ele>
        <time>2019-06-07T08:02:01Z</time>
      </trkpt>
      <trkpt lat="44.35913" lon="5.60731">
        <ele>792</ele>
        <time>2019-06-07T08:02:02Z</time>
      </trkpt>
      <trkpt lat="44.35917" lon="5.60725">
        <ele>792</ele>
        <time>2019-06-07T08:02:03Z</time>
      </trkpt>
      <trkpt lat="44.35922" lon="5.60719">
        <ele>792</ele>
        <time>2019-06-07T08:02:04Z</time>
      </trkpt>
      <trkpt lat="44.35926" lon="5.60713">
        <ele>792</ele>
        <time>2019-06-07T08:02:05Z</time>
      </trkpt>
      <trkpt lat="44.3593" lon="5.60707">
        <ele>792</ele>
        <time>2019-06-07T08:02:06Z</time>
      </trkpt>
      <trkpt lat="44.35934" lon="5.607">
        <ele>792</ele>
        <time>2019-06-07T08:02:07Z</time>
      </trkpt>
      <trkpt lat="44.35939" lon="5.60693">
        <ele>792</ele>
        <time>2019-06-07T08:02:08Z</time>
      </trkpt>
      <trkpt lat="44.35942" lon="5.60687">
        <ele>792</ele>
        <time>2019-06-07T08:02:09Z</time>
      </trkpt>
      <trkpt lat="44.35946" lon="5.6068">
        <ele>792</ele>
        <time>2019-06-07T08:02:10Z</time>
      </trkpt>
      <trkpt lat="44.35949" lon="5.60674">
        <ele>792</ele>
        <time>2019-06-07T08:02:11Z</time>
      </trkpt>
      <trkpt lat="44.35953" lon="5.60667">
        <ele>792</ele>
        <time>2019-06-07T08:02:12Z</time>
      </trkpt>
      <trkpt lat="44.35956" lon="5.6066">
        <ele>792</ele>
        <time>2019-06-07T08:02:13Z</time>
      </trkpt>
      <trkpt lat="44.35959" lon="5.60652">
        <ele>792</ele>
        <time>2019-06-07T08:02:14Z</time>
      </trkpt>
      <trkpt lat="44.35963" lon="5.60645">
        <ele>792</ele>
        <time>2019-06-07T08:02:15Z</time>
      </trkpt>
      <trkpt lat="44.35966" lon="5.60638">
        <ele>792</ele>
        <time>2019-06-07T08:02:16Z</time>
      </trkpt>
      <trkpt lat="44.35968" lon="5.60631">
        <ele>792</ele>
        <time>2019-06-07T08:02:17Z</time>
      </trkpt>
      <trkpt lat="44.35971" lon="5.60624">
        <ele>792</ele>
        <time>2019-06-07T08:02:18Z</time>
      </trkpt>
      <trkpt lat="44.35973" lon="5.60617">
        <ele>791</ele>
        <time>2019-06-07T08:02:19Z</time>
      </trkpt>
      <trkpt lat="44.35975" lon="5.6061">
        <ele>791</ele>
        <time>2019-06-07T08:02:20Z</time>
      </trkpt>
      <trkpt lat="44.35976" lon="5.60603">
        <ele>791</ele>
        <time>2019-06-07T08:02:21Z</time>
      </trkpt>
      <trkpt lat="44.35978" lon="5.60595">
        <ele>790</ele>
        <time>2019-06-07T08:02:22Z</time>
      </trkpt>
      <trkpt lat="44.35979" lon="5.60588">
        <ele>790</ele>
        <time>2019-06-07T08:02:23Z</time>
      </trkpt>
      <trkpt lat="44.35981" lon="5.60581">
        <ele>790</ele>
        <time>2019-06-07T08:02:24Z</time>
      </trkpt>
      <trkpt lat="44.35983" lon="5.60575">
        <ele>790</ele>
        <time>2019-06-07T08:02:25Z</time>
      </trkpt>
      <trkpt lat="44.35984" lon="5.60569">
        <ele>790</ele>
        <time>2019-06-07T08:02:26Z</time>
      </trkpt>
      <trkpt lat="44.35987" lon="5.60563">
        <ele>790</ele>
        <time>2019-06-07T08:02:27Z</time>
      </trkpt>
      <trkpt lat="44.35989" lon="5.60558">
        <ele>790</ele>
        <time>2019-06-07T08:02:28Z</time>
      </trkpt>
      <trkpt lat="44.35991" lon="5.60553">
        <ele>790</ele>
        <time>2019-06-07T08:02:29Z</time>
      </trkpt>
      <trkpt lat="44.35992" lon="5.60548">
        <ele>790</ele>
        <time>2019-06-07T08:02:30Z</time>
      </trkpt>
      <trkpt lat="44.35992" lon="5.60542">
        <ele>790</ele>
        <time>2019-06-07T08:02:31Z</time>
      </trkpt>
      <trkpt lat="44.35993" lon="5.60537">
        <ele>790</ele>
        <time>2019-06-07T08:02:32Z</time>
      </trkpt>
      <trkpt lat="44.35993" lon="5.60534">
        <ele>790</ele>
        <time>2019-06-07T08:02:33Z</time>
      </trkpt>
      <trkpt lat="44.35992" lon="5.60532">
        <ele>790</ele>
        <time>2019-06-07T08:02:34Z</time>
      </trkpt>
      <trkpt lat="44.35993" lon="5.6053">
        <ele>790</ele>
        <time>2019-06-07T08:02:39Z</time>
      </trkpt>
      <trkpt lat="44.35993" lon="5.60529">
        <ele>788</ele>
        <time>2019-06-07T08:02:53Z</time>
      </trkpt>
      <trkpt lat="44.35994" lon="5.60526">
        <ele>787</ele>
        <time>2019-06-07T08:02:58Z</time>
      </trkpt>
      <trkpt lat="44.35995" lon="5.60525">
        <ele>786</ele>
        <time>2019-06-07T08:02:59Z</time>
      </trkpt>
      <trkpt lat="44.35996" lon="5.60522">
        <ele>786</ele>
        <time>2019-06-07T08:03:00Z</time>
      </trkpt>
      <trkpt lat="44.35997" lon="5.60519">
        <ele>786</ele>
        <time>2019-06-07T08:03:01Z</time>
      </trkpt>
      <trkpt lat="44.35998" lon="5.60514">
        <ele>785</ele>
        <time>2019-06-07T08:03:02Z</time>
      </trkpt>
      <trkpt lat="44.35999" lon="5.6051">
        <ele>785</ele>
        <time>2019-06-07T08:03:03Z</time>
      </trkpt>
      <trkpt lat="44.36" lon="5.60505">
        <ele>785</ele>
        <time>2019-06-07T08:03:04Z</time>
      </trkpt>
      <trkpt lat="44.36002" lon="5.60499">
        <ele>785</ele>
        <time>2019-06-07T08:03:05Z</time>
      </trkpt>
      <trkpt lat="44.36002" lon="5.60494">
        <ele>785</ele>
        <time>2019-06-07T08:03:06Z</time>
      </trkpt>
      <trkpt lat="44.36002" lon="5.60489">
        <ele>785</ele>
        <time>2019-06-07T08:03:07Z</time>
      </trkpt>
      <trkpt lat="44.36001" lon="5.60483">
        <ele>785</ele>
        <time>2019-06-07T08:03:08Z</time>
      </trkpt>
      <trkpt lat="44.36" lon="5.60478">
        <ele>785</ele>
        <time>2019-06-07T08:03:09Z</time>
      </trkpt>
      <trkpt lat="44.36" lon="5.60473">
        <ele>785</ele>
        <time>2019-06-07T08:03:10Z</time>
      </trkpt>
      <trkpt lat="44.35999" lon="5.60467">
        <ele>785</ele>
        <time>2019-06-07T08:03:11Z</time>
      </trkpt>
      <trkpt lat="44.35996" lon="5.60461">
        <ele>785</ele>
        <time>2019-06-07T08:03:12Z</time>
      </trkpt>
      <trkpt lat="44.35994" lon="5.60456">
        <ele>785</ele>
        <time>2019-06-07T08:03:13Z</time>
      </trkpt>
      <trkpt lat="44.35992" lon="5.60451">
        <ele>786</ele>
        <time>2019-06-07T08:03:14Z</time>
      </trkpt>
      <trkpt lat="44.3599" lon="5.60446">
        <ele>787</ele>
        <time>2019-06-07T08:03:15Z</time>
      </trkpt>
      <trkpt lat="44.35989" lon="5.60441">
        <ele>788</ele>
        <time>2019-06-07T08:03:16Z</time>
      </trkpt>
      <trkpt lat="44.35988" lon="5.60436">
        <ele>789</ele>
        <time>2019-06-07T08:03:17Z</time>
      </trkpt>
      <trkpt lat="44.35986" lon="5.60432">
        <ele>790</ele>
        <time>2019-06-07T08:03:18Z</time>
      </trkpt>
      <trkpt lat="44.35986" lon="5.60427">
        <ele>791</ele>
        <time>2019-06-07T08:03:19Z</time>
      </trkpt>
      <trkpt lat="44.35985" lon="5.60422">
        <ele>791</ele>
        <time>2019-06-07T08:03:20Z</time>
      </trkpt>
      <trkpt lat="44.35984" lon="5.60417">
        <ele>791</ele>
        <time>2019-06-07T08:03:21Z</time>
      </trkpt>
      <trkpt lat="44.35982" lon="5.60412">
        <ele>791</ele>
        <time>2019-06-07T08:03:22Z</time>
      </trkpt>
      <trkpt lat="44.35981" lon="5.60406">
        <ele>792</ele>
        <time>2019-06-07T08:03:23Z</time>
      </trkpt>
      <trkpt lat="44.3598" lon="5.60401">
        <ele>792</ele>
        <time>2019-06-07T08:03:24Z</time>
      </trkpt>
      <trkpt lat="44.35979" lon="5.60396">
        <ele>793</ele>
        <time>2019-06-07T08:03:25Z</time>
      </trkpt>
      <trkpt lat="44.35979" lon="5.60391">
        <ele>793</ele>
        <time>2019-06-07T08:03:26Z</time>
      </trkpt>
      <trkpt lat="44.35979" lon="5.60385">
        <ele>793</ele>
        <time>2019-06-07T08:03:27Z</time>
      </trkpt>
      <trkpt lat="44.35978" lon="5.60378">
        <ele>793</ele>
        <time>2019-06-07T08:03:28Z</time>
      </trkpt>
      <trkpt lat="44.35977" lon="5.60371">
        <ele>793</ele>
        <time>2019-06-07T08:03:29Z</time>
      </trkpt>
      <trkpt lat="44.35977" lon="5.60364">
        <ele>793</ele>
        <time>2019-06-07T08:03:30Z</time>
      </trkpt>
      <trkpt lat="44.35976" lon="5.60357">
        <ele>793</ele>
        <time>2019-06-07T08:03:31Z</time>
      </trkpt>
      <trkpt lat="44.35976" lon="5.6035">
        <ele>793</ele>
        <time>2019-06-07T08:03:32Z</time>
      </trkpt>
      <trkpt lat="44.35975" lon="5.60343">
        <ele>793</ele>
        <time>2019-06-07T08:03:33Z</time>
      </trkpt>
      <trkpt lat="44.35975" lon="5.60335">
        <ele>793</ele>
        <time>2019-06-07T08:03:34Z</time>
      </trkpt>
      <trkpt lat="44.35974" lon="5.60327">
        <ele>793</ele>
        <time>2019-06-07T08:03:35Z</time>
      </trkpt>
      <trkpt lat="44.35974" lon="5.6032">
        <ele>793</ele>
        <time>2019-06-07T08:03:36Z</time>
      </trkpt>
      <trkpt lat="44.35974" lon="5.60312">
        <ele>793</ele>
        <time>2019-06-07T08:03:37Z</time>
      </trkpt>
      <trkpt lat="44.35973" lon="5.60304">
        <ele>793</ele>
        <time>2019-06-07T08:03:38Z</time>
      </trkpt>
      <trkpt lat="44.35973" lon="5.60296">
        <ele>793</ele>
        <time>2019-06-07T08:03:39Z</time>
      </trkpt>
      <trkpt lat="44.35973" lon="5.60288">
        <ele>793</ele>
        <time>2019-06-07T08:03:40Z</time>
      </trkpt>
      <trkpt lat="44.35973" lon="5.6028">
        <ele>793</ele>
        <time>2019-06-07T08:03:41Z</time>
      </trkpt>
      <trkpt lat="44.35973" lon="5.60271">
        <ele>793</ele>
        <time>2019-06-07T08:03:42Z</time>
      </trkpt>
      <trkpt lat="44.35973" lon="5.60263">
        <ele>793</ele>
        <time>2019-06-07T08:03:43Z</time>
      </trkpt>
      <trkpt lat="44.35974" lon="5.60255">
        <ele>793</ele>
        <time>2019-06-07T08:03:44Z</time>
      </trkpt>
      <trkpt lat="44.35975" lon="5.60248">
        <ele>793</ele>
        <time>2019-06-07T08:03:45Z</time>
      </trkpt>
      <trkpt lat="44.35976" lon="5.6024">
        <ele>793</ele>
        <time>2019-06-07T08:03:46Z</time>
      </trkpt>
      <trkpt lat="44.35978" lon="5.60233">
        <ele>793</ele>
        <time>2019-06-07T08:03:47Z</time>
      </trkpt>
      <trkpt lat="44.35981" lon="5.60225">
        <ele>793</ele>
        <time>2019-06-07T08:03:48Z</time>
      </trkpt>
      <trkpt lat="44.35983" lon="5.60218">
        <ele>793</ele>
        <time>2019-06-07T08:03:49Z</time>
      </trkpt>
      <trkpt lat="44.35985" lon="5.60211">
        <ele>793</ele>
        <time>2019-06-07T08:03:50Z</time>
      </trkpt>
      <trkpt lat="44.35987" lon="5.60204">
        <ele>793</ele>
        <time>2019-06-07T08:03:51Z</time>
      </trkpt>
      <trkpt lat="44.3599" lon="5.60197">
        <ele>793</ele>
        <time>2019-06-07T08:03:52Z</time>
      </trkpt>
      <trkpt lat="44.35993" lon="5.6019">
        <ele>793</ele>
        <time>2019-06-07T08:03:53Z</time>
      </trkpt>
      <trkpt lat="44.35995" lon="5.60184">
        <ele>793</ele>
        <time>2019-06-07T08:03:54Z</time>
      </trkpt>
      <trkpt lat="44.35998" lon="5.60177">
        <ele>793</ele>
        <time>2019-06-07T08:03:55Z</time>
      </trkpt>
      <trkpt lat="44.36001" lon="5.60171">
        <ele>793</ele>
        <time>2019-06-07T08:03:56Z</time>
      </trkpt>
      <trkpt lat="44.36004" lon="5.60164">
        <ele>793</ele>
        <time>2019-06-07T08:03:57Z</time>
      </trkpt>
      <trkpt lat="44.36007" lon="5.60157">
        <ele>793</ele>
        <time>2019-06-07T08:03:58Z</time>
      </trkpt>
      <trkpt lat="44.3601" lon="5.6015">
        <ele>793</ele>
        <time>2019-06-07T08:03:59Z</time>
      </trkpt>
      <trkpt lat="44.36014" lon="5.60144">
        <ele>793</ele>
        <time>2019-06-07T08:04:00Z</time>
      </trkpt>
      <trkpt lat="44.36017" lon="5.60138">
        <ele>793</ele>
        <time>2019-06-07T08:04:01Z</time>
      </trkpt>
      <trkpt lat="44.36021" lon="5.60132">
        <ele>793</ele>
        <time>2019-06-07T08:04:02Z</time>
      </trkpt>
      <trkpt lat="44.36024" lon="5.60125">
        <ele>793</ele>
        <time>2019-06-07T08:04:03Z</time>
      </trkpt>
      <trkpt lat="44.36028" lon="5.60119">
        <ele>793</ele>
        <time>2019-06-07T08:04:04Z</time>
      </trkpt>
      <trkpt lat="44.36031" lon="5.60113">
        <ele>793</ele>
        <time>2019-06-07T08:04:05Z</time>
      </trkpt>
      <trkpt lat="44.36035" lon="5.60108">
        <ele>793</ele>
        <time>2019-06-07T08:04:06Z</time>
      </trkpt>
      <trkpt lat="44.3604" lon="5.60103">
        <ele>793</ele>
        <time>2019-06-07T08:04:07Z</time>
      </trkpt>
      <trkpt lat="44.36044" lon="5.60099">
        <ele>793</ele>
        <time>2019-06-07T08:04:08Z</time>
      </trkpt>
      <trkpt lat="44.3605" lon="5.60095">
        <ele>793</ele>
        <time>2019-06-07T08:04:09Z</time>
      </trkpt>
      <trkpt lat="44.36055" lon="5.60092">
        <ele>793</ele>
        <time>2019-06-07T08:04:10Z</time>
      </trkpt>
      <trkpt lat="44.3606" lon="5.60089">
        <ele>793</ele>
        <time>2019-06-07T08:04:11Z</time>
      </trkpt>
      <trkpt lat="44.36065" lon="5.60086">
        <ele>793</ele>
        <time>2019-06-07T08:04:12Z</time>
      </trkpt>
      <trkpt lat="44.36071" lon="5.60083">
        <ele>793</ele>
        <time>2019-06-07T08:04:13Z</time>
      </trkpt>
      <trkpt lat="44.36076" lon="5.6008">
        <ele>793</ele>
        <time>2019-06-07T08:04:14Z</time>
      </trkpt>
      <trkpt lat="44.36081" lon="5.60076">
        <ele>793</ele>
        <time>2019-06-07T08:04:15Z</time>
      </trkpt>
      <trkpt lat="44.36087" lon="5.60072">
        <ele>793</ele>
        <time>2019-06-07T08:04:16Z</time>
      </trkpt>
      <trkpt lat="44.36092" lon="5.60068">
        <ele>793</ele>
        <time>2019-06-07T08:04:17Z</time>
      </trkpt>
      <trkpt lat="44.36096" lon="5.60064">
        <ele>793</ele>
        <time>2019-06-07T08:04:18Z</time>
      </trkpt>
      <trkpt lat="44.36101" lon="5.60059">
        <ele>793</ele>
        <time>2019-06-07T08:04:19Z</time>
      </trkpt>
      <trkpt lat="44.36106" lon="5.60056">
        <ele>793</ele>
        <time>2019-06-07T08:04:20Z</time>
      </trkpt>
      <trkpt lat="44.3611" lon="5.60052">
        <ele>793</ele>
        <time>2019-06-07T08:04:21Z</time>
      </trkpt>
      <trkpt lat="44.36115" lon="5.60048">
        <ele>793</ele>
        <time>2019-06-07T08:04:22Z</time>
      </trkpt>
      <trkpt lat="44.36119" lon="5.60044">
        <ele>794</ele>
        <time>2019-06-07T08:04:23Z</time>
      </trkpt>
      <trkpt lat="44.36123" lon="5.6004">
        <ele>794</ele>
        <time>2019-06-07T08:04:24Z</time>
      </trkpt>
      <trkpt lat="44.36127" lon="5.60035">
        <ele>795</ele>
        <time>2019-06-07T08:04:25Z</time>
      </trkpt>
      <trkpt lat="44.36131" lon="5.60031">
        <ele>795</ele>
        <time>2019-06-07T08:04:26Z</time>
      </trkpt>
      <trkpt lat="44.36135" lon="5.60027">
        <ele>795</ele>
        <time>2019-06-07T08:04:27Z</time>
      </trkpt>
      <trkpt lat="44.36139" lon="5.60022">
        <ele>795</ele>
        <time>2019-06-07T08:04:28Z</time>
      </trkpt>
      <trkpt lat="44.36143" lon="5.60018">
        <ele>796</ele>
        <time>2019-06-07T08:04:29Z</time>
      </trkpt>
      <trkpt lat="44.36146" lon="5.60013">
        <ele>796</ele>
        <time>2019-06-07T08:04:30Z</time>
      </trkpt>
      <trkpt lat="44.3615" lon="5.60008">
        <ele>796</ele>
        <time>2019-06-07T08:04:31Z</time>
      </trkpt>
      <trkpt lat="44.36153" lon="5.60003">
        <ele>796</ele>
        <time>2019-06-07T08:04:32Z</time>
      </trkpt>
      <trkpt lat="44.36156" lon="5.59997">
        <ele>797</ele>
        <time>2019-06-07T08:04:33Z</time>
      </trkpt>
      <trkpt lat="44.36159" lon="5.59992">
        <ele>797</ele>
        <time>2019-06-07T08:04:34Z</time>
      </trkpt>
      <trkpt lat="44.36163" lon="5.59986">
        <ele>797</ele>
        <time>2019-06-07T08:04:35Z</time>
      </trkpt>
      <trkpt lat="44.36166" lon="5.5998">
        <ele>797</ele>
        <time>2019-06-07T08:04:36Z</time>
      </trkpt>
      <trkpt lat="44.36169" lon="5.59974">
        <ele>797</ele>
        <time>2019-06-07T08:04:37Z</time>
      </trkpt>
      <trkpt lat="44.36172" lon="5.59968">
        <ele>797</ele>
        <time>2019-06-07T08:04:38Z</time>
      </trkpt>
      <trkpt lat="44.36175" lon="5.59962">
        <ele>797</ele>
        <time>2019-06-07T08:04:39Z</time>
      </trkpt>
      <trkpt lat="44.36179" lon="5.59955">
        <ele>798</ele>
        <time>2019-06-07T08:04:40Z</time>
      </trkpt>
      <trkpt lat="44.36182" lon="5.59948">
        <ele>798</ele>
        <time>2019-06-07T08:04:41Z</time>
      </trkpt>
      <trkpt lat="44.36185" lon="5.59942">
        <ele>798</ele>
        <time>2019-06-07T08:04:42Z</time>
      </trkpt>
      <trkpt lat="44.36189" lon="5.59935">
        <ele>798</ele>
        <time>2019-06-07T08:04:43Z</time>
      </trkpt>
      <trkpt lat="44.36193" lon="5.59929">
        <ele>798</ele>
        <time>2019-06-07T08:04:44Z</time>
      </trkpt>
      <trkpt lat="44.36197" lon="5.59922">
        <ele>798</ele>
        <time>2019-06-07T08:04:45Z</time>
      </trkpt>
      <trkpt lat="44.36201" lon="5.59915">
        <ele>798</ele>
        <time>2019-06-07T08:04:46Z</time>
      </trkpt>
      <trkpt lat="44.36205" lon="5.59908">
        <ele>798</ele>
        <time>2019-06-07T08:04:47Z</time>
      </trkpt>
      <trkpt lat="44.36209" lon="5.59902">
        <ele>798</ele>
        <time>2019-06-07T08:04:48Z</time>
      </trkpt>
      <trkpt lat="44.36213" lon="5.59895">
        <ele>798</ele>
        <time>2019-06-07T08:04:49Z</time>
      </trkpt>
      <trkpt lat="44.36216" lon="5.59888">
        <ele>798</ele>
        <time>2019-06-07T08:04:50Z</time>
      </trkpt>
      <trkpt lat="44.36221" lon="5.59881">
        <ele>798</ele>
        <time>2019-06-07T08:04:51Z</time>
      </trkpt>
      <trkpt lat="44.36225" lon="5.59874">
        <ele>798</ele>
        <time>2019-06-07T08:04:52Z</time>
      </trkpt>
      <trkpt lat="44.36229" lon="5.59867">
        <ele>798</ele>
        <time>2019-06-07T08:04:53Z</time>
      </trkpt>
      <trkpt lat="44.36233" lon="5.59861">
        <ele>798</ele>
        <time>2019-06-07T08:04:54Z</time>
      </trkpt>
      <trkpt lat="44.36237" lon="5.59854">
        <ele>798</ele>
        <time>2019-06-07T08:04:55Z</time>
      </trkpt>
      <trkpt lat="44.36241" lon="5.59846">
        <ele>798</ele>
        <time>2019-06-07T08:04:56Z</time>
      </trkpt>
      <trkpt lat="44.36245" lon="5.59839">
        <ele>798</ele>
        <time>2019-06-07T08:04:57Z</time>
      </trkpt>
      <trkpt lat="44.36249" lon="5.59832">
        <ele>798</ele>
        <time>2019-06-07T08:04:58Z</time>
      </trkpt>
      <trkpt lat="44.36253" lon="5.59825">
        <ele>798</ele>
        <time>2019-06-07T08:04:59Z</time>
      </trkpt>
      <trkpt lat="44.36258" lon="5.59818">
        <ele>798</ele>
        <time>2019-06-07T08:05:00Z</time>
      </trkpt>
      <trkpt lat="44.36262" lon="5.59811">
        <ele>798</ele>
        <time>2019-06-07T08:05:01Z</time>
      </trkpt>
      <trkpt lat="44.36266" lon="5.59804">
        <ele>798</ele>
        <time>2019-06-07T08:05:02Z</time>
      </trkpt>
      <trkpt lat="44.36271" lon="5.59797">
        <ele>798</ele>
        <time>2019-06-07T08:05:03Z</time>
      </trkpt>
      <trkpt lat="44.36274" lon="5.5979">
        <ele>798</ele>
        <time>2019-06-07T08:05:04Z</time>
      </trkpt>
      <trkpt lat="44.36279" lon="5.59783">
        <ele>798</ele>
        <time>2019-06-07T08:05:05Z</time>
      </trkpt>
      <trkpt lat="44.36283" lon="5.59776">
        <ele>798</ele>
        <time>2019-06-07T08:05:06Z</time>
      </trkpt>
      <trkpt lat="44.36287" lon="5.59769">
        <ele>798</ele>
        <time>2019-06-07T08:05:07Z</time>
      </trkpt>
      <trkpt lat="44.36291" lon="5.59762">
        <ele>798</ele>
        <time>2019-06-07T08:05:08Z</time>
      </trkpt>
      <trkpt lat="44.36295" lon="5.59756">
        <ele>798</ele>
        <time>2019-06-07T08:05:09Z</time>
      </trkpt>
      <trkpt lat="44.36298" lon="5.59749">
        <ele>798</ele>
        <time>2019-06-07T08:05:10Z</time>
      </trkpt>
      <trkpt lat="44.36302" lon="5.59742">
        <ele>798</ele>
        <time>2019-06-07T08:05:11Z</time>
      </trkpt>
      <trkpt lat="44.36305" lon="5.59736">
        <ele>798</ele>
        <time>2019-06-07T08:05:12Z</time>
      </trkpt>
      <trkpt lat="44.36309" lon="5.59729">
        <ele>798</ele>
        <time>2019-06-07T08:05:13Z</time>
      </trkpt>
      <trkpt lat="44.36312" lon="5.59722">
        <ele>798</ele>
        <time>2019-06-07T08:05:14Z</time>
      </trkpt>
      <trkpt lat="44.36315" lon="5.59716">
        <ele>798</ele>
        <time>2019-06-07T08:05:15Z</time>
      </trkpt>
      <trkpt lat="44.36317" lon="5.59709">
        <ele>799</ele>
        <time>2019-06-07T08:05:16Z</time>
      </trkpt>
      <trkpt lat="44.3632" lon="5.59703">
        <ele>799</ele>
        <time>2019-06-07T08:05:17Z</time>
      </trkpt>
      <trkpt lat="44.36322" lon="5.59696">
        <ele>799</ele>
        <time>2019-06-07T08:05:18Z</time>
      </trkpt>
      <trkpt lat="44.36324" lon="5.59689">
        <ele>799</ele>
        <time>2019-06-07T08:05:19Z</time>
      </trkpt>
      <trkpt lat="44.36325" lon="5.59682">
        <ele>799</ele>
        <time>2019-06-07T08:05:20Z</time>
      </trkpt>
      <trkpt lat="44.36326" lon="5.59674">
        <ele>799</ele>
        <time>2019-06-07T08:05:21Z</time>
      </trkpt>
      <trkpt lat="44.36327" lon="5.59666">
        <ele>800</ele>
        <time>2019-06-07T08:05:22Z</time>
      </trkpt>
      <trkpt lat="44.36328" lon="5.59659">
        <ele>800</ele>
        <time>2019-06-07T08:05:23Z</time>
      </trkpt>
      <trkpt lat="44.36329" lon="5.59651">
        <ele>800</ele>
        <time>2019-06-07T08:05:24Z</time>
      </trkpt>
      <trkpt lat="44.36329" lon="5.59643">
        <ele>800</ele>
        <time>2019-06-07T08:05:25Z</time>
      </trkpt>
      <trkpt lat="44.36329" lon="5.59635">
        <ele>800</ele>
        <time>2019-06-07T08:05:26Z</time>
      </trkpt>
      <trkpt lat="44.36329" lon="5.59627">
        <ele>800</ele>
        <time>2019-06-07T08:05:27Z</time>
      </trkpt>
      <trkpt lat="44.36328" lon="5.59619">
        <ele>800</ele>
        <time>2019-06-07T08:05:28Z</time>
      </trkpt>
      <trkpt lat="44.36327" lon="5.59611">
        <ele>800</ele>
        <time>2019-06-07T08:05:29Z</time>
      </trkpt>
      <trkpt lat="44.36326" lon="5.59602">
        <ele>800</ele>
        <time>2019-06-07T08:05:30Z</time>
      </trkpt>
      <trkpt lat="44.36324" lon="5.59594">
        <ele>800</ele>
        <time>2019-06-07T08:05:31Z</time>
      </trkpt>
      <trkpt lat="44.36323" lon="5.59586">
        <ele>800</ele>
        <time>2019-06-07T08:05:32Z</time>
      </trkpt>
      <trkpt lat="44.36321" lon="5.59578">
        <ele>800</ele>
        <time>2019-06-07T08:05:33Z</time>
      </trkpt>
      <trkpt lat="44.36319" lon="5.5957">
        <ele>800</ele>
        <time>2019-06-07T08:05:34Z</time>
      </trkpt>
      <trkpt lat="44.36317" lon="5.59561">
        <ele>800</ele>
        <time>2019-06-07T08:05:35Z</time>
      </trkpt>
      <trkpt lat="44.36315" lon="5.59553">
        <ele>800</ele>
        <time>2019-06-07T08:05:36Z</time>
      </trkpt>
      <trkpt lat="44.36313" lon="5.59545">
        <ele>800</ele>
        <time>2019-06-07T08:05:37Z</time>
      </trkpt>
      <trkpt lat="44.36311" lon="5.59537">
        <ele>800</ele>
        <time>2019-06-07T08:05:38Z</time>
      </trkpt>
      <trkpt lat="44.36309" lon="5.59529">
        <ele>800</ele>
        <time>2019-06-07T08:05:39Z</time>
      </trkpt>
      <trkpt lat="44.36308" lon="5.59522">
        <ele>800</ele>
        <time>2019-06-07T08:05:40Z</time>
      </trkpt>
      <trkpt lat="44.36306" lon="5.59515">
        <ele>800</ele>
        <time>2019-06-07T08:05:41Z</time>
      </trkpt>
      <trkpt lat="44.36303" lon="5.59507">
        <ele>800</ele>
        <time>2019-06-07T08:05:42Z</time>
      </trkpt>
      <trkpt lat="44.36301" lon="5.59499">
        <ele>800</ele>
        <time>2019-06-07T08:05:43Z</time>
      </trkpt>
      <trkpt lat="44.36297" lon="5.59491">
        <ele>800</ele>
        <time>2019-06-07T08:05:44Z</time>
      </trkpt>
      <trkpt lat="44.36295" lon="5.59484">
        <ele>800</ele>
        <time>2019-06-07T08:05:45Z</time>
      </trkpt>
      <trkpt lat="44.36292" lon="5.59477">
        <ele>800</ele>
        <time>2019-06-07T08:05:46Z</time>
      </trkpt>
      <trkpt lat="44.36289" lon="5.5947">
        <ele>800</ele>
        <time>2019-06-07T08:05:47Z</time>
      </trkpt>
      <trkpt lat="44.36286" lon="5.59462">
        <ele>800</ele>
        <time>2019-06-07T08:05:48Z</time>
      </trkpt>
      <trkpt lat="44.36283" lon="5.59455">
        <ele>801</ele>
        <time>2019-06-07T08:05:49Z</time>
      </trkpt>
      <trkpt lat="44.3628" lon="5.59448">
        <ele>801</ele>
        <time>2019-06-07T08:05:50Z</time>
      </trkpt>
      <trkpt lat="44.36277" lon="5.5944">
        <ele>802</ele>
        <time>2019-06-07T08:05:51Z</time>
      </trkpt>
      <trkpt lat="44.36274" lon="5.59433">
        <ele>803</ele>
        <time>2019-06-07T08:05:52Z</time>
      </trkpt>
      <trkpt lat="44.36272" lon="5.59425">
        <ele>804</ele>
        <time>2019-06-07T08:05:53Z</time>
      </trkpt>
      <trkpt lat="44.3627" lon="5.59418">
        <ele>805</ele>
        <time>2019-06-07T08:05:54Z</time>
      </trkpt>
      <trkpt lat="44.36268" lon="5.59411">
        <ele>806</ele>
        <time>2019-06-07T08:05:55Z</time>
      </trkpt>
      <trkpt lat="44.36267" lon="5.59404">
        <ele>806</ele>
        <time>2019-06-07T08:05:56Z</time>
      </trkpt>
      <trkpt lat="44.36267" lon="5.59397">
        <ele>807</ele>
        <time>2019-06-07T08:05:57Z</time>
      </trkpt>
      <trkpt lat="44.36267" lon="5.59389">
        <ele>807</ele>
        <time>2019-06-07T08:05:58Z</time>
      </trkpt>
      <trkpt lat="44.36267" lon="5.59382">
        <ele>807</ele>
        <time>2019-06-07T08:05:59Z</time>
      </trkpt>
      <trkpt lat="44.36267" lon="5.59375">
        <ele>807</ele>
        <time>2019-06-07T08:06:00Z</time>
      </trkpt>
      <trkpt lat="44.36269" lon="5.59368">
        <ele>807</ele>
        <time>2019-06-07T08:06:01Z</time>
      </trkpt>
      <trkpt lat="44.36269" lon="5.59361">
        <ele>807</ele>
        <time>2019-06-07T08:06:02Z</time>
      </trkpt>
      <trkpt lat="44.36269" lon="5.59353">
        <ele>807</ele>
        <time>2019-06-07T08:06:03Z</time>
      </trkpt>
      <trkpt lat="44.3627" lon="5.59346">
        <ele>807</ele>
        <time>2019-06-07T08:06:04Z</time>
      </trkpt>
      <trkpt lat="44.3627" lon="5.59338">
        <ele>807</ele>
        <time>2019-06-07T08:06:05Z</time>
      </trkpt>
      <trkpt lat="44.3627" lon="5.5933">
        <ele>807</ele>
        <time>2019-06-07T08:06:06Z</time>
      </trkpt>
      <trkpt lat="44.36271" lon="5.59321">
        <ele>807</ele>
        <time>2019-06-07T08:06:07Z</time>
      </trkpt>
      <trkpt lat="44.36271" lon="5.59313">
        <ele>807</ele>
        <time>2019-06-07T08:06:08Z</time>
      </trkpt>
      <trkpt lat="44.3627" lon="5.59305">
        <ele>807</ele>
        <time>2019-06-07T08:06:09Z</time>
      </trkpt>
      <trkpt lat="44.3627" lon="5.59296">
        <ele>807</ele>
        <time>2019-06-07T08:06:10Z</time>
      </trkpt>
      <trkpt lat="44.36269" lon="5.59287">
        <ele>807</ele>
        <time>2019-06-07T08:06:11Z</time>
      </trkpt>
      <trkpt lat="44.36269" lon="5.59277">
        <ele>807</ele>
        <time>2019-06-07T08:06:12Z</time>
      </trkpt>
      <trkpt lat="44.36269" lon="5.59268">
        <ele>807</ele>
        <time>2019-06-07T08:06:13Z</time>
      </trkpt>
      <trkpt lat="44.36269" lon="5.59258">
        <ele>807</ele>
        <time>2019-06-07T08:06:14Z</time>
      </trkpt>
      <trkpt lat="44.36269" lon="5.59249">
        <ele>807</ele>
        <time>2019-06-07T08:06:15Z</time>
      </trkpt>
      <trkpt lat="44.36269" lon="5.59239">
        <ele>807</ele>
        <time>2019-06-07T08:06:16Z</time>
      </trkpt>
      <trkpt lat="44.36269" lon="5.5923">
        <ele>807</ele>
        <time>2019-06-07T08:06:17Z</time>
      </trkpt>
      <trkpt lat="44.36269" lon="5.5922">
        <ele>807</ele>
        <time>2019-06-07T08:06:18Z</time>
      </trkpt>
      <trkpt lat="44.36268" lon="5.5921">
        <ele>807</ele>
        <time>2019-06-07T08:06:19Z</time>
      </trkpt>
      <trkpt lat="44.36268" lon="5.59201">
        <ele>807</ele>
        <time>2019-06-07T08:06:20Z</time>
      </trkpt>
      <trkpt lat="44.36268" lon="5.59191">
        <ele>807</ele>
        <time>2019-06-07T08:06:21Z</time>
      </trkpt>
      <trkpt lat="44.36268" lon="5.59182">
        <ele>807</ele>
        <time>2019-06-07T08:06:22Z</time>
      </trkpt>
      <trkpt lat="44.36268" lon="5.59172">
        <ele>807</ele>
        <time>2019-06-07T08:06:23Z</time>
      </trkpt>
      <trkpt lat="44.36267" lon="5.59163">
        <ele>807</ele>
        <time>2019-06-07T08:06:24Z</time>
      </trkpt>
      <trkpt lat="44.36267" lon="5.59154">
        <ele>807</ele>
        <time>2019-06-07T08:06:25Z</time>
      </trkpt>
      <trkpt lat="44.36267" lon="5.59145">
        <ele>807</ele>
        <time>2019-06-07T08:06:26Z</time>
      </trkpt>
      <trkpt lat="44.36267" lon="5.59136">
        <ele>807</ele>
        <time>2019-06-07T08:06:27Z</time>
      </trkpt>
      <trkpt lat="44.36267" lon="5.59127">
        <ele>807</ele>
        <time>2019-06-07T08:06:28Z</time>
      </trkpt>
      <trkpt lat="44.36267" lon="5.59118">
        <ele>807</ele>
        <time>2019-06-07T08:06:29Z</time>
      </trkpt>
      <trkpt lat="44.36266" lon="5.59109">
        <ele>807</ele>
        <time>2019-06-07T08:06:30Z</time>
      </trkpt>
      <trkpt lat="44.36266" lon="5.591">
        <ele>807</ele>
        <time>2019-06-07T08:06:31Z</time>
      </trkpt>
      <trkpt lat="44.36266" lon="5.59091">
        <ele>807</ele>
        <time>2019-06-07T08:06:32Z</time>
      </trkpt>
      <trkpt lat="44.36266" lon="5.59082">
        <ele>807</ele>
        <time>2019-06-07T08:06:33Z</time>
      </trkpt>
      <trkpt lat="44.36265" lon="5.59073">
        <ele>807</ele>
        <time>2019-06-07T08:06:34Z</time>
      </trkpt>
      <trkpt lat="44.36265" lon="5.59064">
        <ele>807</ele>
        <time>2019-06-07T08:06:35Z</time>
      </trkpt>
      <trkpt lat="44.36265" lon="5.59055">
        <ele>807</ele>
        <time>2019-06-07T08:06:36Z</time>
      </trkpt>
      <trkpt lat="44.36265" lon="5.59046">
        <ele>807</ele>
        <time>2019-06-07T08:06:37Z</time>
      </trkpt>
      <trkpt lat="44.36265" lon="5.59037">
        <ele>807</ele>
        <time>2019-06-07T08:06:38Z</time>
      </trkpt>
      <trkpt lat="44.36265" lon="5.59028">
        <ele>807</ele>
        <time>2019-06-07T08:06:39Z</time>
      </trkpt>
      <trkpt lat="44.36266" lon="5.5902">
        <ele>807</ele>
        <time>2019-06-07T08:06:40Z</time>
      </trkpt>
      <trkpt lat="44.36268" lon="5.59011">
        <ele>807</ele>
        <time>2019-06-07T08:06:41Z</time>
      </trkpt>
      <trkpt lat="44.3627" lon="5.59002">
        <ele>807</ele>
        <time>2019-06-07T08:06:42Z</time>
      </trkpt>
      <trkpt lat="44.36273" lon="5.58993">
        <ele>807</ele>
        <time>2019-06-07T08:06:43Z</time>
      </trkpt>
      <trkpt lat="44.36277" lon="5.58986">
        <ele>807</ele>
        <time>2019-06-07T08:06:44Z</time>
      </trkpt>
      <trkpt lat="44.36281" lon="5.58979">
        <ele>807</ele>
        <time>2019-06-07T08:06:45Z</time>
      </trkpt>
      <trkpt lat="44.36285" lon="5.58972">
        <ele>807</ele>
        <time>2019-06-07T08:06:46Z</time>
      </trkpt>
      <trkpt lat="44.36289" lon="5.58966">
        <ele>807</ele>
        <time>2019-06-07T08:06:47Z</time>
      </trkpt>
      <trkpt lat="44.36293" lon="5.5896">
        <ele>807</ele>
        <time>2019-06-07T08:06:48Z</time>
      </trkpt>
      <trkpt lat="44.36298" lon="5.58954">
        <ele>807</ele>
        <time>2019-06-07T08:06:49Z</time>
      </trkpt>
      <trkpt lat="44.36302" lon="5.58948">
        <ele>807</ele>
        <time>2019-06-07T08:06:50Z</time>
      </trkpt>
      <trkpt lat="44.36306" lon="5.58942">
        <ele>807</ele>
        <time>2019-06-07T08:06:51Z</time>
      </trkpt>
      <trkpt lat="44.3631" lon="5.58936">
        <ele>807</ele>
        <time>2019-06-07T08:06:52Z</time>
      </trkpt>
      <trkpt lat="44.36314" lon="5.58929">
        <ele>807</ele>
        <time>2019-06-07T08:06:53Z</time>
      </trkpt>
      <trkpt lat="44.36317" lon="5.58923">
        <ele>807</ele>
        <time>2019-06-07T08:06:54Z</time>
      </trkpt>
      <trkpt lat="44.3632" lon="5.58916">
        <ele>807</ele>
        <time>2019-06-07T08:06:55Z</time>
      </trkpt>
      <trkpt lat="44.36324" lon="5.58909">
        <ele>807</ele>
        <time>2019-06-07T08:06:56Z</time>
      </trkpt>
      <trkpt lat="44.36327" lon="5.58901">
        <ele>807</ele>
        <time>2019-06-07T08:06:57Z</time>
      </trkpt>
      <trkpt lat="44.3633" lon="5.58894">
        <ele>807</ele>
        <time>2019-06-07T08:06:58Z</time>
      </trkpt>
      <trkpt lat="44.36333" lon="5.58887">
        <ele>807</ele>
        <time>2019-06-07T08:06:59Z</time>
      </trkpt>
      <trkpt lat="44.36336" lon="5.5888">
        <ele>807</ele>
        <time>2019-06-07T08:07:00Z</time>
      </trkpt>
      <trkpt lat="44.36339" lon="5.58873">
        <ele>807</ele>
        <time>2019-06-07T08:07:01Z</time>
      </trkpt>
      <trkpt lat="44.36342" lon="5.58865">
        <ele>807</ele>
        <time>2019-06-07T08:07:02Z</time>
      </trkpt>
      <trkpt lat="44.36345" lon="5.58858">
        <ele>807</ele>
        <time>2019-06-07T08:07:03Z</time>
      </trkpt>
      <trkpt lat="44.36348" lon="5.5885">
        <ele>807</ele>
        <time>2019-06-07T08:07:04Z</time>
      </trkpt>
      <trkpt lat="44.3635" lon="5.58842">
        <ele>807</ele>
        <time>2019-06-07T08:07:05Z</time>
      </trkpt>
      <trkpt lat="44.36353" lon="5.58834">
        <ele>807</ele>
        <time>2019-06-07T08:07:06Z</time>
      </trkpt>
      <trkpt lat="44.36355" lon="5.58826">
        <ele>807</ele>
        <time>2019-06-07T08:07:07Z</time>
      </trkpt>
      <trkpt lat="44.36357" lon="5.58818">
        <ele>807</ele>
        <time>2019-06-07T08:07:08Z</time>
      </trkpt>
      <trkpt lat="44.36358" lon="5.5881">
        <ele>807</ele>
        <time>2019-06-07T08:07:09Z</time>
      </trkpt>
      <trkpt lat="44.36359" lon="5.58801">
        <ele>807</ele>
        <time>2019-06-07T08:07:10Z</time>
      </trkpt>
      <trkpt lat="44.3636" lon="5.58792">
        <ele>807</ele>
        <time>2019-06-07T08:07:11Z</time>
      </trkpt>
      <trkpt lat="44.3636" lon="5.58783">
        <ele>808</ele>
        <time>2019-06-07T08:07:12Z</time>
      </trkpt>
      <trkpt lat="44.3636" lon="5.58775">
        <ele>808</ele>
        <time>2019-06-07T08:07:13Z</time>
      </trkpt>
      <trkpt lat="44.3636" lon="5.58766">
        <ele>808</ele>
        <time>2019-06-07T08:07:14Z</time>
      </trkpt>
      <trkpt lat="44.3636" lon="5.58757">
        <ele>809</ele>
        <time>2019-06-07T08:07:15Z</time>
      </trkpt>
      <trkpt lat="44.36359" lon="5.58749">
        <ele>809</ele>
        <time>2019-06-07T08:07:16Z</time>
      </trkpt>
      <trkpt lat="44.36359" lon="5.5874">
        <ele>809</ele>
        <time>2019-06-07T08:07:17Z</time>
      </trkpt>
      <trkpt lat="44.36357" lon="5.58732">
        <ele>809</ele>
        <time>2019-06-07T08:07:18Z</time>
      </trkpt>
      <trkpt lat="44.36356" lon="5.58723">
        <ele>810</ele>
        <time>2019-06-07T08:07:19Z</time>
      </trkpt>
      <trkpt lat="44.36354" lon="5.58715">
        <ele>810</ele>
        <time>2019-06-07T08:07:20Z</time>
      </trkpt>
      <trkpt lat="44.36352" lon="5.58707">
        <ele>810</ele>
        <time>2019-06-07T08:07:21Z</time>
      </trkpt>
      <trkpt lat="44.3635" lon="5.58698">
        <ele>811</ele>
        <time>2019-06-07T08:07:22Z</time>
      </trkpt>
      <trkpt lat="44.36348" lon="5.5869">
        <ele>811</ele>
        <time>2019-06-07T08:07:23Z</time>
      </trkpt>
      <trkpt lat="44.36346" lon="5.58682">
        <ele>812</ele>
        <time>2019-06-07T08:07:24Z</time>
      </trkpt>
      <trkpt lat="44.36345" lon="5.58674">
        <ele>812</ele>
        <time>2019-06-07T08:07:25Z</time>
      </trkpt>
      <trkpt lat="44.36343" lon="5.58665">
        <ele>812</ele>
        <time>2019-06-07T08:07:26Z</time>
      </trkpt>
      <trkpt lat="44.36342" lon="5.58657">
        <ele>813</ele>
        <time>2019-06-07T08:07:27Z</time>
      </trkpt>
      <trkpt lat="44.36341" lon="5.58649">
        <ele>813</ele>
        <time>2019-06-07T08:07:28Z</time>
      </trkpt>
      <trkpt lat="44.36341" lon="5.5864">
        <ele>813</ele>
        <time>2019-06-07T08:07:29Z</time>
      </trkpt>
      <trkpt lat="44.36341" lon="5.58632">
        <ele>813</ele>
        <time>2019-06-07T08:07:30Z</time>
      </trkpt>
      <trkpt lat="44.36342" lon="5.58624">
        <ele>814</ele>
        <time>2019-06-07T08:07:31Z</time>
      </trkpt>
      <trkpt lat="44.36343" lon="5.58616">
        <ele>814</ele>
        <time>2019-06-07T08:07:32Z</time>
      </trkpt>
      <trkpt lat="44.36344" lon="5.58608">
        <ele>814</ele>
        <time>2019-06-07T08:07:33Z</time>
      </trkpt>
      <trkpt lat="44.36345" lon="5.586">
        <ele>814</ele>
        <time>2019-06-07T08:07:34Z</time>
      </trkpt>
      <trkpt lat="44.36346" lon="5.58592">
        <ele>814</ele>
        <time>2019-06-07T08:07:35Z</time>
      </trkpt>
      <trkpt lat="44.36347" lon="5.58583">
        <ele>814</ele>
        <time>2019-06-07T08:07:36Z</time>
      </trkpt>
      <trkpt lat="44.36348" lon="5.58575">
        <ele>814</ele>
        <time>2019-06-07T08:07:37Z</time>
      </trkpt>
      <trkpt lat="44.36348" lon="5.58566">
        <ele>814</ele>
        <time>2019-06-07T08:07:38Z</time>
      </trkpt>
      <trkpt lat="44.36349" lon="5.58558">
        <ele>814</ele>
        <time>2019-06-07T08:07:39Z</time>
      </trkpt>
      <trkpt lat="44.3635" lon="5.58549">
        <ele>814</ele>
        <time>2019-06-07T08:07:40Z</time>
      </trkpt>
      <trkpt lat="44.36351" lon="5.5854">
        <ele>814</ele>
        <time>2019-06-07T08:07:41Z</time>
      </trkpt>
      <trkpt lat="44.36352" lon="5.58532">
        <ele>814</ele>
        <time>2019-06-07T08:07:42Z</time>
      </trkpt>
      <trkpt lat="44.36353" lon="5.58524">
        <ele>814</ele>
        <time>2019-06-07T08:07:43Z</time>
      </trkpt>
      <trkpt lat="44.36354" lon="5.58516">
        <ele>814</ele>
        <time>2019-06-07T08:07:44Z</time>
      </trkpt>
      <trkpt lat="44.36354" lon="5.58508">
        <ele>814</ele>
        <time>2019-06-07T08:07:45Z</time>
      </trkpt>
      <trkpt lat="44.36354" lon="5.585">
        <ele>814</ele>
        <time>2019-06-07T08:07:46Z</time>
      </trkpt>
      <trkpt lat="44.36355" lon="5.58492">
        <ele>814</ele>
        <time>2019-06-07T08:07:47Z</time>
      </trkpt>
      <trkpt lat="44.36355" lon="5.58484">
        <ele>814</ele>
        <time>2019-06-07T08:07:48Z</time>
      </trkpt>
      <trkpt lat="44.36356" lon="5.58475">
        <ele>814</ele>
        <time>2019-06-07T08:07:49Z</time>
      </trkpt>
      <trkpt lat="44.36356" lon="5.58468">
        <ele>814</ele>
        <time>2019-06-07T08:07:50Z</time>
      </trkpt>
      <trkpt lat="44.36356" lon="5.5846">
        <ele>814</ele>
        <time>2019-06-07T08:07:51Z</time>
      </trkpt>
      <trkpt lat="44.36355" lon="5.58452">
        <ele>814</ele>
        <time>2019-06-07T08:07:52Z</time>
      </trkpt>
      <trkpt lat="44.36354" lon="5.58445">
        <ele>814</ele>
        <time>2019-06-07T08:07:53Z</time>
      </trkpt>
      <trkpt lat="44.36351" lon="5.58438">
        <ele>814</ele>
        <time>2019-06-07T08:07:54Z</time>
      </trkpt>
      <trkpt lat="44.36346" lon="5.58433">
        <ele>815</ele>
        <time>2019-06-07T08:07:55Z</time>
      </trkpt>
      <trkpt lat="44.36342" lon="5.58428">
        <ele>815</ele>
        <time>2019-06-07T08:07:56Z</time>
      </trkpt>
      <trkpt lat="44.36338" lon="5.58423">
        <ele>815</ele>
        <time>2019-06-07T08:07:57Z</time>
      </trkpt>
      <trkpt lat="44.36333" lon="5.58419">
        <ele>815</ele>
        <time>2019-06-07T08:07:58Z</time>
      </trkpt>
      <trkpt lat="44.36329" lon="5.58414">
        <ele>816</ele>
        <time>2019-06-07T08:07:59Z</time>
      </trkpt>
      <trkpt lat="44.36324" lon="5.5841">
        <ele>816</ele>
        <time>2019-06-07T08:08:00Z</time>
      </trkpt>
      <trkpt lat="44.36319" lon="5.58406">
        <ele>816</ele>
        <time>2019-06-07T08:08:01Z</time>
      </trkpt>
      <trkpt lat="44.36315" lon="5.58402">
        <ele>816</ele>
        <time>2019-06-07T08:08:02Z</time>
      </trkpt>
      <trkpt lat="44.3631" lon="5.58398">
        <ele>816</ele>
        <time>2019-06-07T08:08:03Z</time>
      </trkpt>
      <trkpt lat="44.36305" lon="5.58395">
        <ele>816</ele>
        <time>2019-06-07T08:08:04Z</time>
      </trkpt>
      <trkpt lat="44.363" lon="5.58392">
        <ele>816</ele>
        <time>2019-06-07T08:08:05Z</time>
      </trkpt>
      <trkpt lat="44.36295" lon="5.58388">
        <ele>817</ele>
        <time>2019-06-07T08:08:06Z</time>
      </trkpt>
      <trkpt lat="44.36289" lon="5.58386">
        <ele>817</ele>
        <time>2019-06-07T08:08:07Z</time>
      </trkpt>
      <trkpt lat="44.36283" lon="5.58384">
        <ele>817</ele>
        <time>2019-06-07T08:08:08Z</time>
      </trkpt>
      <trkpt lat="44.36278" lon="5.58383">
        <ele>817</ele>
        <time>2019-06-07T08:08:09Z</time>
      </trkpt>
      <trkpt lat="44.36272" lon="5.58382">
        <ele>818</ele>
        <time>2019-06-07T08:08:10Z</time>
      </trkpt>
      <trkpt lat="44.36267" lon="5.58382">
        <ele>818</ele>
        <time>2019-06-07T08:08:11Z</time>
      </trkpt>
      <trkpt lat="44.36261" lon="5.58383">
        <ele>818</ele>
        <time>2019-06-07T08:08:12Z</time>
      </trkpt>
      <trkpt lat="44.36256" lon="5.58383">
        <ele>819</ele>
        <time>2019-06-07T08:08:13Z</time>
      </trkpt>
      <trkpt lat="44.36251" lon="5.58384">
        <ele>819</ele>
        <time>2019-06-07T08:08:14Z</time>
      </trkpt>
      <trkpt lat="44.36246" lon="5.58385">
        <ele>819</ele>
        <time>2019-06-07T08:08:15Z</time>
      </trkpt>
      <trkpt lat="44.36241" lon="5.58385">
        <ele>819</ele>
        <time>2019-06-07T08:08:16Z</time>
      </trkpt>
      <trkpt lat="44.36235" lon="5.58385">
        <ele>820</ele>
        <time>2019-06-07T08:08:17Z</time>
      </trkpt>
      <trkpt lat="44.3623" lon="5.58385">
        <ele>820</ele>
        <time>2019-06-07T08:08:18Z</time>
      </trkpt>
      <trkpt lat="44.36225" lon="5.58384">
        <ele>820</ele>
        <time>2019-06-07T08:08:19Z</time>
      </trkpt>
      <trkpt lat="44.3622" lon="5.58383">
        <ele>820</ele>
        <time>2019-06-07T08:08:20Z</time>
      </trkpt>
      <trkpt lat="44.36215" lon="5.58382">
        <ele>821</ele>
        <time>2019-06-07T08:08:21Z</time>
      </trkpt>
      <trkpt lat="44.3621" lon="5.5838">
        <ele>821</ele>
        <time>2019-06-07T08:08:22Z</time>
      </trkpt>
      <trkpt lat="44.36206" lon="5.58378">
        <ele>821</ele>
        <time>2019-06-07T08:08:23Z</time>
      </trkpt>
      <trkpt lat="44.36201" lon="5.58376">
        <ele>821</ele>
        <time>2019-06-07T08:08:24Z</time>
      </trkpt>
      <trkpt lat="44.36196" lon="5.58373">
        <ele>821</ele>
        <time>2019-06-07T08:08:25Z</time>
      </trkpt>
      <trkpt lat="44.36192" lon="5.58371">
        <ele>821</ele>
        <time>2019-06-07T08:08:26Z</time>
      </trkpt>
      <trkpt lat="44.36187" lon="5.58369">
        <ele>821</ele>
        <time>2019-06-07T08:08:27Z</time>
      </trkpt>
      <trkpt lat="44.36182" lon="5.58366">
        <ele>821</ele>
        <time>2019-06-07T08:08:28Z</time>
      </trkpt>
      <trkpt lat="44.36177" lon="5.58364">
        <ele>821</ele>
        <time>2019-06-07T08:08:29Z</time>
      </trkpt>
      <trkpt lat="44.36172" lon="5.58361">
        <ele>821</ele>
        <time>2019-06-07T08:08:30Z</time>
      </trkpt>
      <trkpt lat="44.36168" lon="5.58358">
        <ele>822</ele>
        <time>2019-06-07T08:08:31Z</time>
      </trkpt>
      <trkpt lat="44.36163" lon="5.58356">
        <ele>822</ele>
        <time>2019-06-07T08:08:32Z</time>
      </trkpt>
      <trkpt lat="44.36158" lon="5.58354">
        <ele>822</ele>
        <time>2019-06-07T08:08:33Z</time>
      </trkpt>
      <trkpt lat="44.36153" lon="5.58352">
        <ele>822</ele>
        <time>2019-06-07T08:08:34Z</time>
      </trkpt>
      <trkpt lat="44.36148" lon="5.58349">
        <ele>822</ele>
        <time>2019-06-07T08:08:35Z</time>
      </trkpt>
      <trkpt lat="44.36143" lon="5.58347">
        <ele>822</ele>
        <time>2019-06-07T08:08:36Z</time>
      </trkpt>
      <trkpt lat="44.36138" lon="5.58345">
        <ele>823</ele>
        <time>2019-06-07T08:08:37Z</time>
      </trkpt>
      <trkpt lat="44.36133" lon="5.58342">
        <ele>823</ele>
        <time>2019-06-07T08:08:38Z</time>
      </trkpt>
      <trkpt lat="44.36128" lon="5.5834">
        <ele>823</ele>
        <time>2019-06-07T08:08:39Z</time>
      </trkpt>
      <trkpt lat="44.36123" lon="5.58337">
        <ele>823</ele>
        <time>2019-06-07T08:08:40Z</time>
      </trkpt>
      <trkpt lat="44.36118" lon="5.58335">
        <ele>824</ele>
        <time>2019-06-07T08:08:41Z</time>
      </trkpt>
      <trkpt lat="44.36113" lon="5.58333">
        <ele>824</ele>
        <time>2019-06-07T08:08:42Z</time>
      </trkpt>
      <trkpt lat="44.36108" lon="5.5833">
        <ele>824</ele>
        <time>2019-06-07T08:08:43Z</time>
      </trkpt>
      <trkpt lat="44.36104" lon="5.58328">
        <ele>824</ele>
        <time>2019-06-07T08:08:44Z</time>
      </trkpt>
      <trkpt lat="44.36099" lon="5.58326">
        <ele>825</ele>
        <time>2019-06-07T08:08:45Z</time>
      </trkpt>
      <trkpt lat="44.36095" lon="5.58323">
        <ele>825</ele>
        <time>2019-06-07T08:08:46Z</time>
      </trkpt>
      <trkpt lat="44.3609" lon="5.58321">
        <ele>825</ele>
        <time>2019-06-07T08:08:47Z</time>
      </trkpt>
      <trkpt lat="44.36085" lon="5.58319">
        <ele>825</ele>
        <time>2019-06-07T08:08:48Z</time>
      </trkpt>
      <trkpt lat="44.3608" lon="5.58318">
        <ele>826</ele>
        <time>2019-06-07T08:08:49Z</time>
      </trkpt>
      <trkpt lat="44.36075" lon="5.58316">
        <ele>826</ele>
        <time>2019-06-07T08:08:50Z</time>
      </trkpt>
      <trkpt lat="44.3607" lon="5.58315">
        <ele>826</ele>
        <time>2019-06-07T08:08:51Z</time>
      </trkpt>
      <trkpt lat="44.36065" lon="5.58313">
        <ele>827</ele>
        <time>2019-06-07T08:08:52Z</time>
      </trkpt>
      <trkpt lat="44.3606" lon="5.58312">
        <ele>827</ele>
        <time>2019-06-07T08:08:53Z</time>
      </trkpt>
      <trkpt lat="44.36055" lon="5.58311">
        <ele>827</ele>
        <time>2019-06-07T08:08:54Z</time>
      </trkpt>
      <trkpt lat="44.3605" lon="5.58311">
        <ele>827</ele>
        <time>2019-06-07T08:08:55Z</time>
      </trkpt>
      <trkpt lat="44.36045" lon="5.5831">
        <ele>828</ele>
        <time>2019-06-07T08:08:56Z</time>
      </trkpt>
      <trkpt lat="44.3604" lon="5.58309">
        <ele>828</ele>
        <time>2019-06-07T08:08:57Z</time>
      </trkpt>
      <trkpt lat="44.36035" lon="5.58309">
        <ele>828</ele>
        <time>2019-06-07T08:08:58Z</time>
      </trkpt>
      <trkpt lat="44.3603" lon="5.58309">
        <ele>828</ele>
        <time>2019-06-07T08:08:59Z</time>
      </trkpt>
      <trkpt lat="44.36025" lon="5.58309">
        <ele>829</ele>
        <time>2019-06-07T08:09:00Z</time>
      </trkpt>
      <trkpt lat="44.3602" lon="5.58309">
        <ele>829</ele>
        <time>2019-06-07T08:09:01Z</time>
      </trkpt>
      <trkpt lat="44.36015" lon="5.5831">
        <ele>829</ele>
        <time>2019-06-07T08:09:02Z</time>
      </trkpt>
      <trkpt lat="44.3601" lon="5.5831">
        <ele>829</ele>
        <time>2019-06-07T08:09:03Z</time>
      </trkpt>
      <trkpt lat="44.36005" lon="5.58311">
        <ele>829</ele>
        <time>2019-06-07T08:09:04Z</time>
      </trkpt>
      <trkpt lat="44.35999" lon="5.58311">
        <ele>829</ele>
        <time>2019-06-07T08:09:05Z</time>
      </trkpt>
      <trkpt lat="44.35994" lon="5.58311">
        <ele>829</ele>
        <time>2019-06-07T08:09:06Z</time>
      </trkpt>
      <trkpt lat="44.35989" lon="5.58311">
        <ele>829</ele>
        <time>2019-06-07T08:09:07Z</time>
      </trkpt>
      <trkpt lat="44.35984" lon="5.58311">
        <ele>829</ele>
        <time>2019-06-07T08:09:08Z</time>
      </trkpt>
      <trkpt lat="44.35978" lon="5.58312">
        <ele>829</ele>
        <time>2019-06-07T08:09:09Z</time>
      </trkpt>
      <trkpt lat="44.35973" lon="5.58312">
        <ele>830</ele>
        <time>2019-06-07T08:09:10Z</time>
      </trkpt>
      <trkpt lat="44.35968" lon="5.58312">
        <ele>830</ele>
        <time>2019-06-07T08:09:11Z</time>
      </trkpt>
      <trkpt lat="44.35963" lon="5.58312">
        <ele>830</ele>
        <time>2019-06-07T08:09:12Z</time>
      </trkpt>
      <trkpt lat="44.35957" lon="5.58311">
        <ele>830</ele>
        <time>2019-06-07T08:09:13Z</time>
      </trkpt>
      <trkpt lat="44.35952" lon="5.58311">
        <ele>830</ele>
        <time>2019-06-07T08:09:14Z</time>
      </trkpt>
      <trkpt lat="44.35947" lon="5.5831">
        <ele>830</ele>
        <time>2019-06-07T08:09:15Z</time>
      </trkpt>
      <trkpt lat="44.35942" lon="5.58309">
        <ele>831</ele>
        <time>2019-06-07T08:09:16Z</time>
      </trkpt>
      <trkpt lat="44.35937" lon="5.58308">
        <ele>831</ele>
        <time>2019-06-07T08:09:17Z</time>
      </trkpt>
      <trkpt lat="44.35932" lon="5.58307">
        <ele>831</ele>
        <time>2019-06-07T08:09:18Z</time>
      </trkpt>
      <trkpt lat="44.35928" lon="5.58305">
        <ele>831</ele>
        <time>2019-06-07T08:09:19Z</time>
      </trkpt>
      <trkpt lat="44.35923" lon="5.58303">
        <ele>831</ele>
        <time>2019-06-07T08:09:20Z</time>
      </trkpt>
      <trkpt lat="44.35918" lon="5.58301">
        <ele>832</ele>
        <time>2019-06-07T08:09:21Z</time>
      </trkpt>
      <trkpt lat="44.35913" lon="5.58298">
        <ele>832</ele>
        <time>2019-06-07T08:09:22Z</time>
      </trkpt>
      <trkpt lat="44.35908" lon="5.58295">
        <ele>832</ele>
        <time>2019-06-07T08:09:23Z</time>
      </trkpt>
      <trkpt lat="44.35903" lon="5.58293">
        <ele>832</ele>
        <time>2019-06-07T08:09:24Z</time>
      </trkpt>
      <trkpt lat="44.35898" lon="5.5829">
        <ele>833</ele>
        <time>2019-06-07T08:09:25Z</time>
      </trkpt>
      <trkpt lat="44.35894" lon="5.58286">
        <ele>833</ele>
        <time>2019-06-07T08:09:26Z</time>
      </trkpt>
      <trkpt lat="44.35889" lon="5.58282">
        <ele>833</ele>
        <time>2019-06-07T08:09:27Z</time>
      </trkpt>
      <trkpt lat="44.35885" lon="5.58278">
        <ele>833</ele>
        <time>2019-06-07T08:09:28Z</time>
      </trkpt>
      <trkpt lat="44.35881" lon="5.58273">
        <ele>834</ele>
        <time>2019-06-07T08:09:29Z</time>
      </trkpt>
      <trkpt lat="44.35878" lon="5.58268">
        <ele>834</ele>
        <time>2019-06-07T08:09:30Z</time>
      </trkpt>
      <trkpt lat="44.35875" lon="5.58262">
        <ele>834</ele>
        <time>2019-06-07T08:09:31Z</time>
      </trkpt>
      <trkpt lat="44.35871" lon="5.58256">
        <ele>834</ele>
        <time>2019-06-07T08:09:32Z</time>
      </trkpt>
      <trkpt lat="44.35869" lon="5.58249">
        <ele>834</ele>
        <time>2019-06-07T08:09:33Z</time>
      </trkpt>
      <trkpt lat="44.35867" lon="5.58243">
        <ele>834</ele>
        <time>2019-06-07T08:09:34Z</time>
      </trkpt>
      <trkpt lat="44.35864" lon="5.58237">
        <ele>834</ele>
        <time>2019-06-07T08:09:35Z</time>
      </trkpt>
      <trkpt lat="44.35861" lon="5.5823">
        <ele>834</ele>
        <time>2019-06-07T08:09:36Z</time>
      </trkpt>
      <trkpt lat="44.35858" lon="5.58225">
        <ele>834</ele>
        <time>2019-06-07T08:09:37Z</time>
      </trkpt>
      <trkpt lat="44.35855" lon="5.5822">
        <ele>834</ele>
        <time>2019-06-07T08:09:38Z</time>
      </trkpt>
      <trkpt lat="44.35851" lon="5.58215">
        <ele>834</ele>
        <time>2019-06-07T08:09:39Z</time>
      </trkpt>
      <trkpt lat="44.35847" lon="5.58211">
        <ele>834</ele>
        <time>2019-06-07T08:09:40Z</time>
      </trkpt>
      <trkpt lat="44.35843" lon="5.58206">
        <ele>834</ele>
        <time>2019-06-07T08:09:41Z</time>
      </trkpt>
      <trkpt lat="44.35838" lon="5.58202">
        <ele>834</ele>
        <time>2019-06-07T08:09:42Z</time>
      </trkpt>
      <trkpt lat="44.35834" lon="5.58198">
        <ele>835</ele>
        <time>2019-06-07T08:09:43Z</time>
      </trkpt>
      <trkpt lat="44.3583" lon="5.58194">
        <ele>835</ele>
        <time>2019-06-07T08:09:44Z</time>
      </trkpt>
      <trkpt lat="44.35825" lon="5.5819">
        <ele>835</ele>
        <time>2019-06-07T08:09:45Z</time>
      </trkpt>
      <trkpt lat="44.35821" lon="5.58186">
        <ele>836</ele>
        <time>2019-06-07T08:09:46Z</time>
      </trkpt>
      <trkpt lat="44.35816" lon="5.58182">
        <ele>836</ele>
        <time>2019-06-07T08:09:47Z</time>
      </trkpt>
      <trkpt lat="44.35811" lon="5.58179">
        <ele>836</ele>
        <time>2019-06-07T08:09:48Z</time>
      </trkpt>
      <trkpt lat="44.35807" lon="5.58175">
        <ele>836</ele>
        <time>2019-06-07T08:09:49Z</time>
      </trkpt>
      <trkpt lat="44.35802" lon="5.58172">
        <ele>837</ele>
        <time>2019-06-07T08:09:50Z</time>
      </trkpt>
      <trkpt lat="44.35797" lon="5.58168">
        <ele>837</ele>
        <time>2019-06-07T08:09:51Z</time>
      </trkpt>
      <trkpt lat="44.35793" lon="5.58164">
        <ele>837</ele>
        <time>2019-06-07T08:09:52Z</time>
      </trkpt>
      <trkpt lat="44.35788" lon="5.5816">
        <ele>837</ele>
        <time>2019-06-07T08:09:53Z</time>
      </trkpt>
      <trkpt lat="44.35783" lon="5.58156">
        <ele>837</ele>
        <time>2019-06-07T08:09:54Z</time>
      </trkpt>
      <trkpt lat="44.3578" lon="5.58152">
        <ele>837</ele>
        <time>2019-06-07T08:09:55Z</time>
      </trkpt>
      <trkpt lat="44.35775" lon="5.58146">
        <ele>837</ele>
        <time>2019-06-07T08:09:56Z</time>
      </trkpt>
      <trkpt lat="44.35772" lon="5.5814">
        <ele>837</ele>
        <time>2019-06-07T08:09:57Z</time>
      </trkpt>
      <trkpt lat="44.35769" lon="5.58134">
        <ele>837</ele>
        <time>2019-06-07T08:09:58Z</time>
      </trkpt>
      <trkpt lat="44.35766" lon="5.58128">
        <ele>837</ele>
        <time>2019-06-07T08:09:59Z</time>
      </trkpt>
      <trkpt lat="44.35764" lon="5.58121">
        <ele>838</ele>
        <time>2019-06-07T08:10:00Z</time>
      </trkpt>
      <trkpt lat="44.35762" lon="5.58114">
        <ele>838</ele>
        <time>2019-06-07T08:10:01Z</time>
      </trkpt>
      <trkpt lat="44.3576" lon="5.58108">
        <ele>838</ele>
        <time>2019-06-07T08:10:02Z</time>
      </trkpt>
      <trkpt lat="44.35759" lon="5.58101">
        <ele>838</ele>
        <time>2019-06-07T08:10:03Z</time>
      </trkpt>
      <trkpt lat="44.35757" lon="5.58095">
        <ele>838</ele>
        <time>2019-06-07T08:10:04Z</time>
      </trkpt>
      <trkpt lat="44.35756" lon="5.58088">
        <ele>838</ele>
        <time>2019-06-07T08:10:05Z</time>
      </trkpt>
      <trkpt lat="44.35754" lon="5.58082">
        <ele>838</ele>
        <time>2019-06-07T08:10:06Z</time>
      </trkpt>
      <trkpt lat="44.35754" lon="5.58075">
        <ele>838</ele>
        <time>2019-06-07T08:10:07Z</time>
      </trkpt>
      <trkpt lat="44.35753" lon="5.58069">
        <ele>838</ele>
        <time>2019-06-07T08:10:08Z</time>
      </trkpt>
      <trkpt lat="44.35752" lon="5.58062">
        <ele>838</ele>
        <time>2019-06-07T08:10:09Z</time>
      </trkpt>
      <trkpt lat="44.35751" lon="5.58056">
        <ele>838</ele>
        <time>2019-06-07T08:10:10Z</time>
      </trkpt>
      <trkpt lat="44.35749" lon="5.58049">
        <ele>838</ele>
        <time>2019-06-07T08:10:11Z</time>
      </trkpt>
      <trkpt lat="44.35748" lon="5.58043">
        <ele>838</ele>
        <time>2019-06-07T08:10:12Z</time>
      </trkpt>
      <trkpt lat="44.35747" lon="5.58037">
        <ele>838</ele>
        <time>2019-06-07T08:10:13Z</time>
      </trkpt>
      <trkpt lat="44.35746" lon="5.5803">
        <ele>838</ele>
        <time>2019-06-07T08:10:14Z</time>
      </trkpt>
      <trkpt lat="44.35745" lon="5.58024">
        <ele>838</ele>
        <time>2019-06-07T08:10:15Z</time>
      </trkpt>
      <trkpt lat="44.35744" lon="5.58017">
        <ele>838</ele>
        <time>2019-06-07T08:10:16Z</time>
      </trkpt>
      <trkpt lat="44.35743" lon="5.58011">
        <ele>838</ele>
        <time>2019-06-07T08:10:17Z</time>
      </trkpt>
      <trkpt lat="44.35742" lon="5.58004">
        <ele>838</ele>
        <time>2019-06-07T08:10:18Z</time>
      </trkpt>
      <trkpt lat="44.35741" lon="5.57998">
        <ele>838</ele>
        <time>2019-06-07T08:10:19Z</time>
      </trkpt>
      <trkpt lat="44.3574" lon="5.57992">
        <ele>838</ele>
        <time>2019-06-07T08:10:20Z</time>
      </trkpt>
      <trkpt lat="44.35738" lon="5.57985">
        <ele>838</ele>
        <time>2019-06-07T08:10:21Z</time>
      </trkpt>
      <trkpt lat="44.35738" lon="5.57979">
        <ele>838</ele>
        <time>2019-06-07T08:10:22Z</time>
      </trkpt>
      <trkpt lat="44.35736" lon="5.57973">
        <ele>838</ele>
        <time>2019-06-07T08:10:23Z</time>
      </trkpt>
      <trkpt lat="44.35735" lon="5.57967">
        <ele>838</ele>
        <time>2019-06-07T08:10:24Z</time>
      </trkpt>
      <trkpt lat="44.35734" lon="5.57961">
        <ele>838</ele>
        <time>2019-06-07T08:10:25Z</time>
      </trkpt>
      <trkpt lat="44.35733" lon="5.57955">
        <ele>838</ele>
        <time>2019-06-07T08:10:26Z</time>
      </trkpt>
      <trkpt lat="44.35732" lon="5.57949">
        <ele>838</ele>
        <time>2019-06-07T08:10:27Z</time>
      </trkpt>
      <trkpt lat="44.35731" lon="5.57943">
        <ele>838</ele>
        <time>2019-06-07T08:10:28Z</time>
      </trkpt>
      <trkpt lat="44.3573" lon="5.57937">
        <ele>838</ele>
        <time>2019-06-07T08:10:29Z</time>
      </trkpt>
      <trkpt lat="44.35728" lon="5.57931">
        <ele>838</ele>
        <time>2019-06-07T08:10:30Z</time>
      </trkpt>
      <trkpt lat="44.35727" lon="5.57925">
        <ele>838</ele>
        <time>2019-06-07T08:10:31Z</time>
      </trkpt>
      <trkpt lat="44.35727" lon="5.57919">
        <ele>838</ele>
        <time>2019-06-07T08:10:32Z</time>
      </trkpt>
      <trkpt lat="44.35726" lon="5.57913">
        <ele>838</ele>
        <time>2019-06-07T08:10:33Z</time>
      </trkpt>
      <trkpt lat="44.35725" lon="5.57907">
        <ele>838</ele>
        <time>2019-06-07T08:10:34Z</time>
      </trkpt>
      <trkpt lat="44.35725" lon="5.579">
        <ele>838</ele>
        <time>2019-06-07T08:10:35Z</time>
      </trkpt>
      <trkpt lat="44.35725" lon="5.57894">
        <ele>838</ele>
        <time>2019-06-07T08:10:36Z</time>
      </trkpt>
      <trkpt lat="44.35725" lon="5.57888">
        <ele>838</ele>
        <time>2019-06-07T08:10:37Z</time>
      </trkpt>
      <trkpt lat="44.35725" lon="5.57881">
        <ele>838</ele>
        <time>2019-06-07T08:10:38Z</time>
      </trkpt>
      <trkpt lat="44.35725" lon="5.57874">
        <ele>838</ele>
        <time>2019-06-07T08:10:39Z</time>
      </trkpt>
      <trkpt lat="44.35725" lon="5.57868">
        <ele>838</ele>
        <time>2019-06-07T08:10:40Z</time>
      </trkpt>
      <trkpt lat="44.35725" lon="5.57862">
        <ele>838</ele>
        <time>2019-06-07T08:10:41Z</time>
      </trkpt>
      <trkpt lat="44.35726" lon="5.57855">
        <ele>838</ele>
        <time>2019-06-07T08:10:42Z</time>
      </trkpt>
      <trkpt lat="44.35726" lon="5.57849">
        <ele>838</ele>
        <time>2019-06-07T08:10:43Z</time>
      </trkpt>
      <trkpt lat="44.35726" lon="5.57843">
        <ele>838</ele>
        <time>2019-06-07T08:10:44Z</time>
      </trkpt>
      <trkpt lat="44.35726" lon="5.57836">
        <ele>838</ele>
        <time>2019-06-07T08:10:45Z</time>
      </trkpt>
      <trkpt lat="44.35726" lon="5.5783">
        <ele>838</ele>
        <time>2019-06-07T08:10:46Z</time>
      </trkpt>
      <trkpt lat="44.35726" lon="5.57824">
        <ele>838</ele>
        <time>2019-06-07T08:10:47Z</time>
      </trkpt>
      <trkpt lat="44.35725" lon="5.57818">
        <ele>838</ele>
        <time>2019-06-07T08:10:48Z</time>
      </trkpt>
      <trkpt lat="44.35725" lon="5.57811">
        <ele>838</ele>
        <time>2019-06-07T08:10:49Z</time>
      </trkpt>
      <trkpt lat="44.35724" lon="5.57806">
        <ele>838</ele>
        <time>2019-06-07T08:10:50Z</time>
      </trkpt>
      <trkpt lat="44.35723" lon="5.578">
        <ele>838</ele>
        <time>2019-06-07T08:10:51Z</time>
      </trkpt>
      <trkpt lat="44.35722" lon="5.57795">
        <ele>838</ele>
        <time>2019-06-07T08:10:52Z</time>
      </trkpt>
      <trkpt lat="44.35721" lon="5.57789">
        <ele>838</ele>
        <time>2019-06-07T08:10:53Z</time>
      </trkpt>
      <trkpt lat="44.35719" lon="5.57784">
        <ele>838</ele>
        <time>2019-06-07T08:10:54Z</time>
      </trkpt>
      <trkpt lat="44.35718" lon="5.57778">
        <ele>838</ele>
        <time>2019-06-07T08:10:55Z</time>
      </trkpt>
      <trkpt lat="44.35717" lon="5.57772">
        <ele>838</ele>
        <time>2019-06-07T08:10:56Z</time>
      </trkpt>
      <trkpt lat="44.35716" lon="5.57766">
        <ele>838</ele>
        <time>2019-06-07T08:10:57Z</time>
      </trkpt>
      <trkpt lat="44.35714" lon="5.5776">
        <ele>838</ele>
        <time>2019-06-07T08:10:58Z</time>
      </trkpt>
      <trkpt lat="44.35713" lon="5.57753">
        <ele>838</ele>
        <time>2019-06-07T08:10:59Z</time>
      </trkpt>
      <trkpt lat="44.35712" lon="5.57747">
        <ele>838</ele>
        <time>2019-06-07T08:11:00Z</time>
      </trkpt>
      <trkpt lat="44.35712" lon="5.5774">
        <ele>838</ele>
        <time>2019-06-07T08:11:01Z</time>
      </trkpt>
      <trkpt lat="44.35711" lon="5.57733">
        <ele>838</ele>
        <time>2019-06-07T08:11:02Z</time>
      </trkpt>
      <trkpt lat="44.3571" lon="5.57727">
        <ele>838</ele>
        <time>2019-06-07T08:11:03Z</time>
      </trkpt>
      <trkpt lat="44.3571" lon="5.5772">
        <ele>838</ele>
        <time>2019-06-07T08:11:04Z</time>
      </trkpt>
      <trkpt lat="44.35709" lon="5.57714">
        <ele>839</ele>
        <time>2019-06-07T08:11:05Z</time>
      </trkpt>
      <trkpt lat="44.35709" lon="5.57707">
        <ele>839</ele>
        <time>2019-06-07T08:11:06Z</time>
      </trkpt>
      <trkpt lat="44.35709" lon="5.57701">
        <ele>839</ele>
        <time>2019-06-07T08:11:07Z</time>
      </trkpt>
      <trkpt lat="44.35708" lon="5.57695">
        <ele>840</ele>
        <time>2019-06-07T08:11:08Z</time>
      </trkpt>
      <trkpt lat="44.35708" lon="5.57689">
        <ele>840</ele>
        <time>2019-06-07T08:11:09Z</time>
      </trkpt>
      <trkpt lat="44.35707" lon="5.57682">
        <ele>841</ele>
        <time>2019-06-07T08:11:10Z</time>
      </trkpt>
      <trkpt lat="44.35707" lon="5.57676">
        <ele>841</ele>
        <time>2019-06-07T08:11:11Z</time>
      </trkpt>
      <trkpt lat="44.35707" lon="5.5767">
        <ele>842</ele>
        <time>2019-06-07T08:11:12Z</time>
      </trkpt>
      <trkpt lat="44.35706" lon="5.57664">
        <ele>842</ele>
        <time>2019-06-07T08:11:13Z</time>
      </trkpt>
      <trkpt lat="44.35706" lon="5.57658">
        <ele>842</ele>
        <time>2019-06-07T08:11:14Z</time>
      </trkpt>
      <trkpt lat="44.35706" lon="5.57652">
        <ele>842</ele>
        <time>2019-06-07T08:11:15Z</time>
      </trkpt>
      <trkpt lat="44.35705" lon="5.57645">
        <ele>843</ele>
        <time>2019-06-07T08:11:16Z</time>
      </trkpt>
      <trkpt lat="44.35705" lon="5.57639">
        <ele>843</ele>
        <time>2019-06-07T08:11:17Z</time>
      </trkpt>
      <trkpt lat="44.35704" lon="5.57632">
        <ele>843</ele>
        <time>2019-06-07T08:11:18Z</time>
      </trkpt>
      <trkpt lat="44.35704" lon="5.57626">
        <ele>843</ele>
        <time>2019-06-07T08:11:19Z</time>
      </trkpt>
      <trkpt lat="44.35705" lon="5.57619">
        <ele>843</ele>
        <time>2019-06-07T08:11:20Z</time>
      </trkpt>
      <trkpt lat="44.35706" lon="5.57612">
        <ele>843</ele>
        <time>2019-06-07T08:11:21Z</time>
      </trkpt>
      <trkpt lat="44.35707" lon="5.57604">
        <ele>843</ele>
        <time>2019-06-07T08:11:22Z</time>
      </trkpt>
      <trkpt lat="44.35708" lon="5.57596">
        <ele>843</ele>
        <time>2019-06-07T08:11:23Z</time>
      </trkpt>
      <trkpt lat="44.35709" lon="5.57587">
        <ele>843</ele>
        <time>2019-06-07T08:11:24Z</time>
      </trkpt>
      <trkpt lat="44.3571" lon="5.57578">
        <ele>843</ele>
        <time>2019-06-07T08:11:25Z</time>
      </trkpt>
      <trkpt lat="44.35711" lon="5.57568">
        <ele>843</ele>
        <time>2019-06-07T08:11:26Z</time>
      </trkpt>
      <trkpt lat="44.35711" lon="5.57558">
        <ele>843</ele>
        <time>2019-06-07T08:11:27Z</time>
      </trkpt>
      <trkpt lat="44.35712" lon="5.57548">
        <ele>843</ele>
        <time>2019-06-07T08:11:28Z</time>
      </trkpt>
      <trkpt lat="44.35714" lon="5.57537">
        <ele>843</ele>
        <time>2019-06-07T08:11:29Z</time>
      </trkpt>
      <trkpt lat="44.35715" lon="5.57526">
        <ele>843</ele>
        <time>2019-06-07T08:11:30Z</time>
      </trkpt>
      <trkpt lat="44.35718" lon="5.57515">
        <ele>843</ele>
        <time>2019-06-07T08:11:31Z</time>
      </trkpt>
      <trkpt lat="44.35721" lon="5.57504">
        <ele>843</ele>
        <time>2019-06-07T08:11:32Z</time>
      </trkpt>
      <trkpt lat="44.35725" lon="5.57493">
        <ele>843</ele>
        <time>2019-06-07T08:11:33Z</time>
      </trkpt>
      <trkpt lat="44.35731" lon="5.57483">
        <ele>843</ele>
        <time>2019-06-07T08:11:34Z</time>
      </trkpt>
      <trkpt lat="44.35736" lon="5.57474">
        <ele>842</ele>
        <time>2019-06-07T08:11:35Z</time>
      </trkpt>
      <trkpt lat="44.35742" lon="5.57464">
        <ele>842</ele>
        <time>2019-06-07T08:11:36Z</time>
      </trkpt>
      <trkpt lat="44.35746" lon="5.57452">
        <ele>841</ele>
        <time>2019-06-07T08:11:37Z</time>
      </trkpt>
      <trkpt lat="44.3575" lon="5.57441">
        <ele>841</ele>
        <time>2019-06-07T08:11:38Z</time>
      </trkpt>
      <trkpt lat="44.35753" lon="5.57428">
        <ele>840</ele>
        <time>2019-06-07T08:11:39Z</time>
      </trkpt>
      <trkpt lat="44.35755" lon="5.57415">
        <ele>839</ele>
        <time>2019-06-07T08:11:40Z</time>
      </trkpt>
      <trkpt lat="44.35757" lon="5.57402">
        <ele>839</ele>
        <time>2019-06-07T08:11:41Z</time>
      </trkpt>
      <trkpt lat="44.35758" lon="5.57388">
        <ele>838</ele>
        <time>2019-06-07T08:11:42Z</time>
      </trkpt>
      <trkpt lat="44.35759" lon="5.57374">
        <ele>837</ele>
        <time>2019-06-07T08:11:43Z</time>
      </trkpt>
      <trkpt lat="44.35761" lon="5.5736">
        <ele>837</ele>
        <time>2019-06-07T08:11:44Z</time>
      </trkpt>
      <trkpt lat="44.35762" lon="5.57346">
        <ele>836</ele>
        <time>2019-06-07T08:11:45Z</time>
      </trkpt>
      <trkpt lat="44.35764" lon="5.57332">
        <ele>835</ele>
        <time>2019-06-07T08:11:46Z</time>
      </trkpt>
      <trkpt lat="44.35765" lon="5.57318">
        <ele>835</ele>
        <time>2019-06-07T08:11:47Z</time>
      </trkpt>
      <trkpt lat="44.35765" lon="5.57303">
        <ele>834</ele>
        <time>2019-06-07T08:11:48Z</time>
      </trkpt>
      <trkpt lat="44.35766" lon="5.57289">
        <ele>833</ele>
        <time>2019-06-07T08:11:49Z</time>
      </trkpt>
      <trkpt lat="44.35767" lon="5.57274">
        <ele>833</ele>
        <time>2019-06-07T08:11:50Z</time>
      </trkpt>
      <trkpt lat="44.35768" lon="5.5726">
        <ele>832</ele>
        <time>2019-06-07T08:11:51Z</time>
      </trkpt>
      <trkpt lat="44.3577" lon="5.57248">
        <ele>832</ele>
        <time>2019-06-07T08:11:52Z</time>
      </trkpt>
      <trkpt lat="44.35773" lon="5.57236">
        <ele>831</ele>
        <time>2019-06-07T08:11:53Z</time>
      </trkpt>
      <trkpt lat="44.35778" lon="5.57227">
        <ele>831</ele>
        <time>2019-06-07T08:11:54Z</time>
      </trkpt>
      <trkpt lat="44.35783" lon="5.57218">
        <ele>830</ele>
        <time>2019-06-07T08:11:55Z</time>
      </trkpt>
      <trkpt lat="44.35787" lon="5.57208">
        <ele>830</ele>
        <time>2019-06-07T08:11:56Z</time>
      </trkpt>
      <trkpt lat="44.35789" lon="5.57198">
        <ele>829</ele>
        <time>2019-06-07T08:11:57Z</time>
      </trkpt>
      <trkpt lat="44.35789" lon="5.57187">
        <ele>829</ele>
        <time>2019-06-07T08:11:59Z</time>
      </trkpt>
      <trkpt lat="44.35786" lon="5.57176">
        <ele>828</ele>
        <time>2019-06-07T08:11:59Z</time>
      </trkpt>
      <trkpt lat="44.3578" lon="5.57166">
        <ele>828</ele>
        <time>2019-06-07T08:12:00Z</time>
      </trkpt>
      <trkpt lat="44.35773" lon="5.5716">
        <ele>828</ele>
        <time>2019-06-07T08:12:01Z</time>
      </trkpt>
      <trkpt lat="44.35765" lon="5.57152">
        <ele>828</ele>
        <time>2019-06-07T08:12:02Z</time>
      </trkpt>
      <trkpt lat="44.35759" lon="5.57142">
        <ele>828</ele>
        <time>2019-06-07T08:12:03Z</time>
      </trkpt>
      <trkpt lat="44.35752" lon="5.57132">
        <ele>828</ele>
        <time>2019-06-07T08:12:04Z</time>
      </trkpt>
      <trkpt lat="44.35747" lon="5.5712">
        <ele>828</ele>
        <time>2019-06-07T08:12:05Z</time>
      </trkpt>
      <trkpt lat="44.35741" lon="5.57109">
        <ele>828</ele>
        <time>2019-06-07T08:12:06Z</time>
      </trkpt>
      <trkpt lat="44.35733" lon="5.57099">
        <ele>828</ele>
        <time>2019-06-07T08:12:07Z</time>
      </trkpt>
      <trkpt lat="44.35726" lon="5.5709">
        <ele>828</ele>
        <time>2019-06-07T08:12:08Z</time>
      </trkpt>
      <trkpt lat="44.35719" lon="5.57081">
        <ele>827</ele>
        <time>2019-06-07T08:12:09Z</time>
      </trkpt>
      <trkpt lat="44.35712" lon="5.57071">
        <ele>827</ele>
        <time>2019-06-07T08:12:10Z</time>
      </trkpt>
      <trkpt lat="44.35705" lon="5.57061">
        <ele>827</ele>
        <time>2019-06-07T08:12:11Z</time>
      </trkpt>
      <trkpt lat="44.35698" lon="5.57051">
        <ele>827</ele>
        <time>2019-06-07T08:12:12Z</time>
      </trkpt>
      <trkpt lat="44.35691" lon="5.5704">
        <ele>826</ele>
        <time>2019-06-07T08:12:13Z</time>
      </trkpt>
      <trkpt lat="44.35684" lon="5.57029">
        <ele>826</ele>
        <time>2019-06-07T08:12:14Z</time>
      </trkpt>
      <trkpt lat="44.35677" lon="5.57018">
        <ele>826</ele>
        <time>2019-06-07T08:12:15Z</time>
      </trkpt>
      <trkpt lat="44.35672" lon="5.57007">
        <ele>825</ele>
        <time>2019-06-07T08:12:16Z</time>
      </trkpt>
      <trkpt lat="44.35667" lon="5.56995">
        <ele>825</ele>
        <time>2019-06-07T08:12:17Z</time>
      </trkpt>
      <trkpt lat="44.35662" lon="5.56983">
        <ele>825</ele>
        <time>2019-06-07T08:12:18Z</time>
      </trkpt>
      <trkpt lat="44.35656" lon="5.56971">
        <ele>824</ele>
        <time>2019-06-07T08:12:19Z</time>
      </trkpt>
      <trkpt lat="44.35651" lon="5.56959">
        <ele>824</ele>
        <time>2019-06-07T08:12:20Z</time>
      </trkpt>
      <trkpt lat="44.35645" lon="5.56949">
        <ele>824</ele>
        <time>2019-06-07T08:12:21Z</time>
      </trkpt>
      <trkpt lat="44.35639" lon="5.56939">
        <ele>823</ele>
        <time>2019-06-07T08:12:22Z</time>
      </trkpt>
      <trkpt lat="44.35632" lon="5.56929">
        <ele>823</ele>
        <time>2019-06-07T08:12:23Z</time>
      </trkpt>
      <trkpt lat="44.35625" lon="5.5692">
        <ele>822</ele>
        <time>2019-06-07T08:12:24Z</time>
      </trkpt>
      <trkpt lat="44.35619" lon="5.5691">
        <ele>822</ele>
        <time>2019-06-07T08:12:25Z</time>
      </trkpt>
      <trkpt lat="44.35612" lon="5.56899">
        <ele>821</ele>
        <time>2019-06-07T08:12:26Z</time>
      </trkpt>
      <trkpt lat="44.35608" lon="5.56888">
        <ele>821</ele>
        <time>2019-06-07T08:12:27Z</time>
      </trkpt>
      <trkpt lat="44.35603" lon="5.56875">
        <ele>820</ele>
        <time>2019-06-07T08:12:28Z</time>
      </trkpt>
      <trkpt lat="44.35601" lon="5.56862">
        <ele>820</ele>
        <time>2019-06-07T08:12:29Z</time>
      </trkpt>
      <trkpt lat="44.356" lon="5.56849">
        <ele>819</ele>
        <time>2019-06-07T08:12:30Z</time>
      </trkpt>
      <trkpt lat="44.35598" lon="5.56836">
        <ele>818</ele>
        <time>2019-06-07T08:12:31Z</time>
      </trkpt>
      <trkpt lat="44.35596" lon="5.56823">
        <ele>818</ele>
        <time>2019-06-07T08:12:32Z</time>
      </trkpt>
      <trkpt lat="44.35592" lon="5.56811">
        <ele>817</ele>
        <time>2019-06-07T08:12:33Z</time>
      </trkpt>
      <trkpt lat="44.35586" lon="5.56801">
        <ele>816</ele>
        <time>2019-06-07T08:12:34Z</time>
      </trkpt>
      <trkpt lat="44.35579" lon="5.56791">
        <ele>815</ele>
        <time>2019-06-07T08:12:35Z</time>
      </trkpt>
      <trkpt lat="44.35572" lon="5.56783">
        <ele>815</ele>
        <time>2019-06-07T08:12:36Z</time>
      </trkpt>
      <trkpt lat="44.35565" lon="5.56773">
        <ele>814</ele>
        <time>2019-06-07T08:12:37Z</time>
      </trkpt>
      <trkpt lat="44.3556" lon="5.56762">
        <ele>814</ele>
        <time>2019-06-07T08:12:38Z</time>
      </trkpt>
      <trkpt lat="44.35557" lon="5.56749">
        <ele>813</ele>
        <time>2019-06-07T08:12:39Z</time>
      </trkpt>
      <trkpt lat="44.35556" lon="5.56735">
        <ele>812</ele>
        <time>2019-06-07T08:12:40Z</time>
      </trkpt>
      <trkpt lat="44.35557" lon="5.56721">
        <ele>812</ele>
        <time>2019-06-07T08:12:41Z</time>
      </trkpt>
      <trkpt lat="44.35561" lon="5.56708">
        <ele>811</ele>
        <time>2019-06-07T08:12:42Z</time>
      </trkpt>
      <trkpt lat="44.35565" lon="5.56695">
        <ele>810</ele>
        <time>2019-06-07T08:12:43Z</time>
      </trkpt>
      <trkpt lat="44.35571" lon="5.56682">
        <ele>809</ele>
        <time>2019-06-07T08:12:44Z</time>
      </trkpt>
      <trkpt lat="44.35577" lon="5.56669">
        <ele>808</ele>
        <time>2019-06-07T08:12:45Z</time>
      </trkpt>
      <trkpt lat="44.35582" lon="5.56656">
        <ele>807</ele>
        <time>2019-06-07T08:12:46Z</time>
      </trkpt>
      <trkpt lat="44.35588" lon="5.56644">
        <ele>806</ele>
        <time>2019-06-07T08:12:47Z</time>
      </trkpt>
      <trkpt lat="44.35594" lon="5.56632">
        <ele>805</ele>
        <time>2019-06-07T08:12:48Z</time>
      </trkpt>
      <trkpt lat="44.356" lon="5.56619">
        <ele>805</ele>
        <time>2019-06-07T08:12:49Z</time>
      </trkpt>
      <trkpt lat="44.35605" lon="5.56606">
        <ele>804</ele>
        <time>2019-06-07T08:12:50Z</time>
      </trkpt>
      <trkpt lat="44.35609" lon="5.56592">
        <ele>803</ele>
        <time>2019-06-07T08:12:51Z</time>
      </trkpt>
      <trkpt lat="44.35612" lon="5.56578">
        <ele>802</ele>
        <time>2019-06-07T08:12:52Z</time>
      </trkpt>
      <trkpt lat="44.35616" lon="5.56565">
        <ele>801</ele>
        <time>2019-06-07T08:12:53Z</time>
      </trkpt>
      <trkpt lat="44.3562" lon="5.56553">
        <ele>801</ele>
        <time>2019-06-07T08:12:54Z</time>
      </trkpt>
      <trkpt lat="44.35626" lon="5.56541">
        <ele>800</ele>
        <time>2019-06-07T08:12:55Z</time>
      </trkpt>
      <trkpt lat="44.35631" lon="5.5653">
        <ele>799</ele>
        <time>2019-06-07T08:12:56Z</time>
      </trkpt>
      <trkpt lat="44.35635" lon="5.56517">
        <ele>799</ele>
        <time>2019-06-07T08:12:57Z</time>
      </trkpt>
      <trkpt lat="44.35636" lon="5.56504">
        <ele>798</ele>
        <time>2019-06-07T08:12:58Z</time>
      </trkpt>
      <trkpt lat="44.35635" lon="5.56491">
        <ele>798</ele>
        <time>2019-06-07T08:12:59Z</time>
      </trkpt>
      <trkpt lat="44.35632" lon="5.56479">
        <ele>797</ele>
        <time>2019-06-07T08:13:00Z</time>
      </trkpt>
      <trkpt lat="44.35627" lon="5.56468">
        <ele>797</ele>
        <time>2019-06-07T08:13:01Z</time>
      </trkpt>
      <trkpt lat="44.35622" lon="5.56457">
        <ele>797</ele>
        <time>2019-06-07T08:13:02Z</time>
      </trkpt>
      <trkpt lat="44.35618" lon="5.56446">
        <ele>797</ele>
        <time>2019-06-07T08:13:03Z</time>
      </trkpt>
      <trkpt lat="44.35615" lon="5.56434">
        <ele>796</ele>
        <time>2019-06-07T08:13:04Z</time>
      </trkpt>
      <trkpt lat="44.35614" lon="5.56422">
        <ele>796</ele>
        <time>2019-06-07T08:13:05Z</time>
      </trkpt>
      <trkpt lat="44.35615" lon="5.56409">
        <ele>796</ele>
        <time>2019-06-07T08:13:06Z</time>
      </trkpt>
      <trkpt lat="44.35619" lon="5.56396">
        <ele>795</ele>
        <time>2019-06-07T08:13:07Z</time>
      </trkpt>
      <trkpt lat="44.35625" lon="5.56386">
        <ele>795</ele>
        <time>2019-06-07T08:13:08Z</time>
      </trkpt>
      <trkpt lat="44.35633" lon="5.56378">
        <ele>794</ele>
        <time>2019-06-07T08:13:09Z</time>
      </trkpt>
      <trkpt lat="44.35641" lon="5.56373">
        <ele>793</ele>
        <time>2019-06-07T08:13:10Z</time>
      </trkpt>
      <trkpt lat="44.3565" lon="5.5637">
        <ele>793</ele>
        <time>2019-06-07T08:13:11Z</time>
      </trkpt>
      <trkpt lat="44.35658" lon="5.56368">
        <ele>792</ele>
        <time>2019-06-07T08:13:12Z</time>
      </trkpt>
      <trkpt lat="44.35666" lon="5.56364">
        <ele>792</ele>
        <time>2019-06-07T08:13:13Z</time>
      </trkpt>
      <trkpt lat="44.35672" lon="5.56357">
        <ele>792</ele>
        <time>2019-06-07T08:13:14Z</time>
      </trkpt>
      <trkpt lat="44.35675" lon="5.56348">
        <ele>791</ele>
        <time>2019-06-07T08:13:15Z</time>
      </trkpt>
      <trkpt lat="44.35675" lon="5.56337">
        <ele>791</ele>
        <time>2019-06-07T08:13:16Z</time>
      </trkpt>
      <trkpt lat="44.35673" lon="5.56325">
        <ele>790</ele>
        <time>2019-06-07T08:13:17Z</time>
      </trkpt>
      <trkpt lat="44.35671" lon="5.56312">
        <ele>790</ele>
        <time>2019-06-07T08:13:18Z</time>
      </trkpt>
      <trkpt lat="44.3567" lon="5.563">
        <ele>789</ele>
        <time>2019-06-07T08:13:19Z</time>
      </trkpt>
      <trkpt lat="44.35671" lon="5.56287">
        <ele>789</ele>
        <time>2019-06-07T08:13:20Z</time>
      </trkpt>
      <trkpt lat="44.35674" lon="5.56275">
        <ele>789</ele>
        <time>2019-06-07T08:13:21Z</time>
      </trkpt>
      <trkpt lat="44.35679" lon="5.56264">
        <ele>788</ele>
        <time>2019-06-07T08:13:22Z</time>
      </trkpt>
      <trkpt lat="44.35685" lon="5.56254">
        <ele>788</ele>
        <time>2019-06-07T08:13:23Z</time>
      </trkpt>
      <trkpt lat="44.35692" lon="5.56245">
        <ele>787</ele>
        <time>2019-06-07T08:13:24Z</time>
      </trkpt>
      <trkpt lat="44.357" lon="5.56236">
        <ele>786</ele>
        <time>2019-06-07T08:13:25Z</time>
      </trkpt>
      <trkpt lat="44.35708" lon="5.5623">
        <ele>786</ele>
        <time>2019-06-07T08:13:26Z</time>
      </trkpt>
      <trkpt lat="44.35717" lon="5.56225">
        <ele>785</ele>
        <time>2019-06-07T08:13:27Z</time>
      </trkpt>
      <trkpt lat="44.35725" lon="5.56223">
        <ele>785</ele>
        <time>2019-06-07T08:13:28Z</time>
      </trkpt>
      <trkpt lat="44.35733" lon="5.56221">
        <ele>785</ele>
        <time>2019-06-07T08:13:29Z</time>
      </trkpt>
      <trkpt lat="44.35742" lon="5.56219">
        <ele>785</ele>
        <time>2019-06-07T08:13:30Z</time>
      </trkpt>
      <trkpt lat="44.3575" lon="5.56216">
        <ele>785</ele>
        <time>2019-06-07T08:13:31Z</time>
      </trkpt>
      <trkpt lat="44.35756" lon="5.5621">
        <ele>785</ele>
        <time>2019-06-07T08:13:32Z</time>
      </trkpt>
      <trkpt lat="44.35761" lon="5.56201">
        <ele>784</ele>
        <time>2019-06-07T08:13:33Z</time>
      </trkpt>
      <trkpt lat="44.35764" lon="5.56191">
        <ele>784</ele>
        <time>2019-06-07T08:13:34Z</time>
      </trkpt>
      <trkpt lat="44.35766" lon="5.5618">
        <ele>784</ele>
        <time>2019-06-07T08:13:35Z</time>
      </trkpt>
      <trkpt lat="44.3577" lon="5.5617">
        <ele>783</ele>
        <time>2019-06-07T08:13:36Z</time>
      </trkpt>
      <trkpt lat="44.35775" lon="5.56159">
        <ele>782</ele>
        <time>2019-06-07T08:13:37Z</time>
      </trkpt>
      <trkpt lat="44.35782" lon="5.56149">
        <ele>781</ele>
        <time>2019-06-07T08:13:38Z</time>
      </trkpt>
      <trkpt lat="44.35788" lon="5.5614">
        <ele>780</ele>
        <time>2019-06-07T08:13:39Z</time>
      </trkpt>
      <trkpt lat="44.35796" lon="5.56131">
        <ele>780</ele>
        <time>2019-06-07T08:13:40Z</time>
      </trkpt>
      <trkpt lat="44.35803" lon="5.56121">
        <ele>779</ele>
        <time>2019-06-07T08:13:41Z</time>
      </trkpt>
      <trkpt lat="44.35809" lon="5.56111">
        <ele>778</ele>
        <time>2019-06-07T08:13:42Z</time>
      </trkpt>
      <trkpt lat="44.35816" lon="5.56102">
        <ele>778</ele>
        <time>2019-06-07T08:13:43Z</time>
      </trkpt>
      <trkpt lat="44.35823" lon="5.56092">
        <ele>777</ele>
        <time>2019-06-07T08:13:44Z</time>
      </trkpt>
      <trkpt lat="44.3583" lon="5.56082">
        <ele>777</ele>
        <time>2019-06-07T08:13:45Z</time>
      </trkpt>
      <trkpt lat="44.35838" lon="5.56073">
        <ele>776</ele>
        <time>2019-06-07T08:13:46Z</time>
      </trkpt>
      <trkpt lat="44.35845" lon="5.56063">
        <ele>776</ele>
        <time>2019-06-07T08:13:47Z</time>
      </trkpt>
      <trkpt lat="44.35852" lon="5.56052">
        <ele>775</ele>
        <time>2019-06-07T08:13:48Z</time>
      </trkpt>
      <trkpt lat="44.35859" lon="5.56042">
        <ele>775</ele>
        <time>2019-06-07T08:13:49Z</time>
      </trkpt>
      <trkpt lat="44.35866" lon="5.56032">
        <ele>775</ele>
        <time>2019-06-07T08:13:50Z</time>
      </trkpt>
      <trkpt lat="44.35873" lon="5.56021">
        <ele>774</ele>
        <time>2019-06-07T08:13:51Z</time>
      </trkpt>
      <trkpt lat="44.35881" lon="5.56011">
        <ele>774</ele>
        <time>2019-06-07T08:13:52Z</time>
      </trkpt>
      <trkpt lat="44.35888" lon="5.56">
        <ele>773</ele>
        <time>2019-06-07T08:13:53Z</time>
      </trkpt>
      <trkpt lat="44.35895" lon="5.55989">
        <ele>773</ele>
        <time>2019-06-07T08:13:54Z</time>
      </trkpt>
      <trkpt lat="44.35902" lon="5.55979">
        <ele>773</ele>
        <time>2019-06-07T08:13:55Z</time>
      </trkpt>
      <trkpt lat="44.3591" lon="5.55968">
        <ele>772</ele>
        <time>2019-06-07T08:13:56Z</time>
      </trkpt>
      <trkpt lat="44.35918" lon="5.55957">
        <ele>772</ele>
        <time>2019-06-07T08:13:57Z</time>
      </trkpt>
      <trkpt lat="44.35925" lon="5.55946">
        <ele>771</ele>
        <time>2019-06-07T08:13:58Z</time>
      </trkpt>
      <trkpt lat="44.35932" lon="5.55935">
        <ele>770</ele>
        <time>2019-06-07T08:13:59Z</time>
      </trkpt>
      <trkpt lat="44.35938" lon="5.55923">
        <ele>770</ele>
        <time>2019-06-07T08:14:00Z</time>
      </trkpt>
      <trkpt lat="44.35942" lon="5.55911">
        <ele>769</ele>
        <time>2019-06-07T08:14:01Z</time>
      </trkpt>
      <trkpt lat="44.35945" lon="5.55899">
        <ele>768</ele>
        <time>2019-06-07T08:14:02Z</time>
      </trkpt>
      <trkpt lat="44.35948" lon="5.55886">
        <ele>768</ele>
        <time>2019-06-07T08:14:03Z</time>
      </trkpt>
      <trkpt lat="44.35951" lon="5.55872">
        <ele>767</ele>
        <time>2019-06-07T08:14:04Z</time>
      </trkpt>
      <trkpt lat="44.35955" lon="5.5586">
        <ele>766</ele>
        <time>2019-06-07T08:14:05Z</time>
      </trkpt>
      <trkpt lat="44.3596" lon="5.55847">
        <ele>765</ele>
        <time>2019-06-07T08:14:06Z</time>
      </trkpt>
      <trkpt lat="44.35966" lon="5.55834">
        <ele>765</ele>
        <time>2019-06-07T08:14:07Z</time>
      </trkpt>
      <trkpt lat="44.35972" lon="5.55823">
        <ele>764</ele>
        <time>2019-06-07T08:14:08Z</time>
      </trkpt>
      <trkpt lat="44.35979" lon="5.55812">
        <ele>763</ele>
        <time>2019-06-07T08:14:09Z</time>
      </trkpt>
      <trkpt lat="44.35986" lon="5.55802">
        <ele>763</ele>
        <time>2019-06-07T08:14:10Z</time>
      </trkpt>
      <trkpt lat="44.35993" lon="5.55793">
        <ele>762</ele>
        <time>2019-06-07T08:14:11Z</time>
      </trkpt>
      <trkpt lat="44.36001" lon="5.55783">
        <ele>762</ele>
        <time>2019-06-07T08:14:12Z</time>
      </trkpt>
      <trkpt lat="44.36008" lon="5.55774">
        <ele>761</ele>
        <time>2019-06-07T08:14:13Z</time>
      </trkpt>
      <trkpt lat="44.36016" lon="5.55765">
        <ele>761</ele>
        <time>2019-06-07T08:14:14Z</time>
      </trkpt>
      <trkpt lat="44.36023" lon="5.55756">
        <ele>760</ele>
        <time>2019-06-07T08:14:15Z</time>
      </trkpt>
      <trkpt lat="44.3603" lon="5.55747">
        <ele>760</ele>
        <time>2019-06-07T08:14:16Z</time>
      </trkpt>
      <trkpt lat="44.36037" lon="5.55737">
        <ele>760</ele>
        <time>2019-06-07T08:14:17Z</time>
      </trkpt>
      <trkpt lat="44.36043" lon="5.55727">
        <ele>759</ele>
        <time>2019-06-07T08:14:18Z</time>
      </trkpt>
      <trkpt lat="44.36048" lon="5.55716">
        <ele>759</ele>
        <time>2019-06-07T08:14:19Z</time>
      </trkpt>
      <trkpt lat="44.36054" lon="5.55705">
        <ele>758</ele>
        <time>2019-06-07T08:14:20Z</time>
      </trkpt>
      <trkpt lat="44.36059" lon="5.55694">
        <ele>758</ele>
        <time>2019-06-07T08:14:21Z</time>
      </trkpt>
      <trkpt lat="44.36065" lon="5.55683">
        <ele>758</ele>
        <time>2019-06-07T08:14:22Z</time>
      </trkpt>
      <trkpt lat="44.36071" lon="5.55672">
        <ele>757</ele>
        <time>2019-06-07T08:14:23Z</time>
      </trkpt>
      <trkpt lat="44.36078" lon="5.55662">
        <ele>757</ele>
        <time>2019-06-07T08:14:24Z</time>
      </trkpt>
      <trkpt lat="44.36085" lon="5.55653">
        <ele>756</ele>
        <time>2019-06-07T08:14:25Z</time>
      </trkpt>
      <trkpt lat="44.36093" lon="5.55644">
        <ele>756</ele>
        <time>2019-06-07T08:14:26Z</time>
      </trkpt>
      <trkpt lat="44.361" lon="5.55634">
        <ele>755</ele>
        <time>2019-06-07T08:14:27Z</time>
      </trkpt>
      <trkpt lat="44.36107" lon="5.55624">
        <ele>755</ele>
        <time>2019-06-07T08:14:28Z</time>
      </trkpt>
      <trkpt lat="44.36114" lon="5.55614">
        <ele>754</ele>
        <time>2019-06-07T08:14:29Z</time>
      </trkpt>
      <trkpt lat="44.3612" lon="5.55602">
        <ele>754</ele>
        <time>2019-06-07T08:14:30Z</time>
      </trkpt>
      <trkpt lat="44.36125" lon="5.5559">
        <ele>753</ele>
        <time>2019-06-07T08:14:31Z</time>
      </trkpt>
      <trkpt lat="44.36131" lon="5.55578">
        <ele>752</ele>
        <time>2019-06-07T08:14:32Z</time>
      </trkpt>
      <trkpt lat="44.36136" lon="5.55566">
        <ele>752</ele>
        <time>2019-06-07T08:14:33Z</time>
      </trkpt>
      <trkpt lat="44.36142" lon="5.55554">
        <ele>751</ele>
        <time>2019-06-07T08:14:34Z</time>
      </trkpt>
      <trkpt lat="44.36148" lon="5.55542">
        <ele>751</ele>
        <time>2019-06-07T08:14:35Z</time>
      </trkpt>
      <trkpt lat="44.36155" lon="5.55532">
        <ele>750</ele>
        <time>2019-06-07T08:14:36Z</time>
      </trkpt>
      <trkpt lat="44.36162" lon="5.55523">
        <ele>750</ele>
        <time>2019-06-07T08:14:37Z</time>
      </trkpt>
      <trkpt lat="44.3617" lon="5.55514">
        <ele>749</ele>
        <time>2019-06-07T08:14:38Z</time>
      </trkpt>
      <trkpt lat="44.36178" lon="5.55506">
        <ele>749</ele>
        <time>2019-06-07T08:14:39Z</time>
      </trkpt>
      <trkpt lat="44.36186" lon="5.555">
        <ele>748</ele>
        <time>2019-06-07T08:14:40Z</time>
      </trkpt>
      <trkpt lat="44.36194" lon="5.55494">
        <ele>748</ele>
        <time>2019-06-07T08:14:41Z</time>
      </trkpt>
      <trkpt lat="44.36203" lon="5.5549">
        <ele>748</ele>
        <time>2019-06-07T08:14:42Z</time>
      </trkpt>
      <trkpt lat="44.36211" lon="5.55487">
        <ele>747</ele>
        <time>2019-06-07T08:14:43Z</time>
      </trkpt>
      <trkpt lat="44.3622" lon="5.55484">
        <ele>747</ele>
        <time>2019-06-07T08:14:44Z</time>
      </trkpt>
      <trkpt lat="44.36228" lon="5.55482">
        <ele>747</ele>
        <time>2019-06-07T08:14:45Z</time>
      </trkpt>
      <trkpt lat="44.36236" lon="5.55479">
        <ele>746</ele>
        <time>2019-06-07T08:14:46Z</time>
      </trkpt>
      <trkpt lat="44.36244" lon="5.55476">
        <ele>746</ele>
        <time>2019-06-07T08:14:47Z</time>
      </trkpt>
      <trkpt lat="44.36252" lon="5.55474">
        <ele>746</ele>
        <time>2019-06-07T08:14:48Z</time>
      </trkpt>
      <trkpt lat="44.3626" lon="5.55471">
        <ele>745</ele>
        <time>2019-06-07T08:14:49Z</time>
      </trkpt>
      <trkpt lat="44.36268" lon="5.55467">
        <ele>745</ele>
        <time>2019-06-07T08:14:50Z</time>
      </trkpt>
      <trkpt lat="44.36276" lon="5.55465">
        <ele>745</ele>
        <time>2019-06-07T08:14:51Z</time>
      </trkpt>
      <trkpt lat="44.36285" lon="5.55462">
        <ele>744</ele>
        <time>2019-06-07T08:14:52Z</time>
      </trkpt>
      <trkpt lat="44.36293" lon="5.55458">
        <ele>744</ele>
        <time>2019-06-07T08:14:53Z</time>
      </trkpt>
      <trkpt lat="44.36301" lon="5.55453">
        <ele>743</ele>
        <time>2019-06-07T08:14:54Z</time>
      </trkpt>
      <trkpt lat="44.36309" lon="5.55446">
        <ele>743</ele>
        <time>2019-06-07T08:14:55Z</time>
      </trkpt>
      <trkpt lat="44.36317" lon="5.55439">
        <ele>742</ele>
        <time>2019-06-07T08:14:56Z</time>
      </trkpt>
      <trkpt lat="44.36324" lon="5.55429">
        <ele>742</ele>
        <time>2019-06-07T08:14:57Z</time>
      </trkpt>
      <trkpt lat="44.3633" lon="5.5542">
        <ele>742</ele>
        <time>2019-06-07T08:14:58Z</time>
      </trkpt>
      <trkpt lat="44.36337" lon="5.55411">
        <ele>741</ele>
        <time>2019-06-07T08:14:59Z</time>
      </trkpt>
      <trkpt lat="44.36344" lon="5.55404">
        <ele>741</ele>
        <time>2019-06-07T08:15:00Z</time>
      </trkpt>
      <trkpt lat="44.36353" lon="5.55399">
        <ele>741</ele>
        <time>2019-06-07T08:15:01Z</time>
      </trkpt>
      <trkpt lat="44.36361" lon="5.55397">
        <ele>740</ele>
        <time>2019-06-07T08:15:02Z</time>
      </trkpt>
      <trkpt lat="44.3637" lon="5.55399">
        <ele>740</ele>
        <time>2019-06-07T08:15:03Z</time>
      </trkpt>
      <trkpt lat="44.36377" lon="5.55404">
        <ele>739</ele>
        <time>2019-06-07T08:15:04Z</time>
      </trkpt>
      <trkpt lat="44.36383" lon="5.55412">
        <ele>738</ele>
        <time>2019-06-07T08:15:05Z</time>
      </trkpt>
      <trkpt lat="44.36388" lon="5.55422">
        <ele>738</ele>
        <time>2019-06-07T08:15:06Z</time>
      </trkpt>
      <trkpt lat="44.36391" lon="5.55434">
        <ele>738</ele>
        <time>2019-06-07T08:15:07Z</time>
      </trkpt>
      <trkpt lat="44.36394" lon="5.55444">
        <ele>737</ele>
        <time>2019-06-07T08:15:08Z</time>
      </trkpt>
      <trkpt lat="44.36398" lon="5.55455">
        <ele>737</ele>
        <time>2019-06-07T08:15:09Z</time>
      </trkpt>
      <trkpt lat="44.36402" lon="5.55465">
        <ele>737</ele>
        <time>2019-06-07T08:15:10Z</time>
      </trkpt>
      <trkpt lat="44.36407" lon="5.55474">
        <ele>736</ele>
        <time>2019-06-07T08:15:11Z</time>
      </trkpt>
      <trkpt lat="44.36412" lon="5.55479">
        <ele>736</ele>
        <time>2019-06-07T08:15:12Z</time>
      </trkpt>
      <trkpt lat="44.3642" lon="5.55481">
        <ele>736</ele>
        <time>2019-06-07T08:15:13Z</time>
      </trkpt>
      <trkpt lat="44.36427" lon="5.55481">
        <ele>736</ele>
        <time>2019-06-07T08:15:14Z</time>
      </trkpt>
      <trkpt lat="44.36434" lon="5.55478">
        <ele>736</ele>
        <time>2019-06-07T08:15:15Z</time>
      </trkpt>
      <trkpt lat="44.3644" lon="5.55473">
        <ele>735</ele>
        <time>2019-06-07T08:15:16Z</time>
      </trkpt>
      <trkpt lat="44.36446" lon="5.55468">
        <ele>735</ele>
        <time>2019-06-07T08:15:17Z</time>
      </trkpt>
      <trkpt lat="44.36453" lon="5.55463">
        <ele>735</ele>
        <time>2019-06-07T08:15:18Z</time>
      </trkpt>
      <trkpt lat="44.36459" lon="5.55457">
        <ele>734</ele>
        <time>2019-06-07T08:15:19Z</time>
      </trkpt>
      <trkpt lat="44.36465" lon="5.5545">
        <ele>734</ele>
        <time>2019-06-07T08:15:20Z</time>
      </trkpt>
      <trkpt lat="44.36472" lon="5.55442">
        <ele>733</ele>
        <time>2019-06-07T08:15:21Z</time>
      </trkpt>
      <trkpt lat="44.36477" lon="5.55433">
        <ele>733</ele>
        <time>2019-06-07T08:15:22Z</time>
      </trkpt>
      <trkpt lat="44.36482" lon="5.55423">
        <ele>732</ele>
        <time>2019-06-07T08:15:23Z</time>
      </trkpt>
      <trkpt lat="44.36486" lon="5.55412">
        <ele>732</ele>
        <time>2019-06-07T08:15:24Z</time>
      </trkpt>
      <trkpt lat="44.36488" lon="5.554">
        <ele>731</ele>
        <time>2019-06-07T08:15:25Z</time>
      </trkpt>
      <trkpt lat="44.36489" lon="5.55386">
        <ele>731</ele>
        <time>2019-06-07T08:15:26Z</time>
      </trkpt>
      <trkpt lat="44.3649" lon="5.55373">
        <ele>730</ele>
        <time>2019-06-07T08:15:27Z</time>
      </trkpt>
      <trkpt lat="44.3649" lon="5.55359">
        <ele>729</ele>
        <time>2019-06-07T08:15:28Z</time>
      </trkpt>
      <trkpt lat="44.36489" lon="5.55345">
        <ele>729</ele>
        <time>2019-06-07T08:15:29Z</time>
      </trkpt>
      <trkpt lat="44.36489" lon="5.55331">
        <ele>728</ele>
        <time>2019-06-07T08:15:30Z</time>
      </trkpt>
      <trkpt lat="44.3649" lon="5.55317">
        <ele>727</ele>
        <time>2019-06-07T08:15:31Z</time>
      </trkpt>
      <trkpt lat="44.36492" lon="5.55303">
        <ele>727</ele>
        <time>2019-06-07T08:15:32Z</time>
      </trkpt>
      <trkpt lat="44.36494" lon="5.5529">
        <ele>726</ele>
        <time>2019-06-07T08:15:33Z</time>
      </trkpt>
      <trkpt lat="44.36498" lon="5.55278">
        <ele>725</ele>
        <time>2019-06-07T08:15:34Z</time>
      </trkpt>
      <trkpt lat="44.36504" lon="5.55267">
        <ele>725</ele>
        <time>2019-06-07T08:15:35Z</time>
      </trkpt>
      <trkpt lat="44.36511" lon="5.55259">
        <ele>724</ele>
        <time>2019-06-07T08:15:36Z</time>
      </trkpt>
      <trkpt lat="44.36518" lon="5.55251">
        <ele>724</ele>
        <time>2019-06-07T08:15:37Z</time>
      </trkpt>
      <trkpt lat="44.36526" lon="5.55245">
        <ele>724</ele>
        <time>2019-06-07T08:15:38Z</time>
      </trkpt>
      <trkpt lat="44.36533" lon="5.55238">
        <ele>723</ele>
        <time>2019-06-07T08:15:39Z</time>
      </trkpt>
      <trkpt lat="44.36541" lon="5.55231">
        <ele>723</ele>
        <time>2019-06-07T08:15:40Z</time>
      </trkpt>
      <trkpt lat="44.36549" lon="5.55223">
        <ele>723</ele>
        <time>2019-06-07T08:15:41Z</time>
      </trkpt>
      <trkpt lat="44.36556" lon="5.55215">
        <ele>722</ele>
        <time>2019-06-07T08:15:42Z</time>
      </trkpt>
      <trkpt lat="44.36563" lon="5.55207">
        <ele>722</ele>
        <time>2019-06-07T08:15:43Z</time>
      </trkpt>
      <trkpt lat="44.3657" lon="5.552">
        <ele>721</ele>
        <time>2019-06-07T08:15:44Z</time>
      </trkpt>
      <trkpt lat="44.36578" lon="5.55192">
        <ele>721</ele>
        <time>2019-06-07T08:15:45Z</time>
      </trkpt>
      <trkpt lat="44.36585" lon="5.55184">
        <ele>720</ele>
        <time>2019-06-07T08:15:46Z</time>
      </trkpt>
      <trkpt lat="44.36593" lon="5.55177">
        <ele>720</ele>
        <time>2019-06-07T08:15:47Z</time>
      </trkpt>
      <trkpt lat="44.36602" lon="5.5517">
        <ele>719</ele>
        <time>2019-06-07T08:15:48Z</time>
      </trkpt>
      <trkpt lat="44.3661" lon="5.55163">
        <ele>719</ele>
        <time>2019-06-07T08:15:49Z</time>
      </trkpt>
      <trkpt lat="44.36618" lon="5.55158">
        <ele>718</ele>
        <time>2019-06-07T08:15:50Z</time>
      </trkpt>
      <trkpt lat="44.36627" lon="5.55152">
        <ele>718</ele>
        <time>2019-06-07T08:15:51Z</time>
      </trkpt>
      <trkpt lat="44.36635" lon="5.55146">
        <ele>717</ele>
        <time>2019-06-07T08:15:52Z</time>
      </trkpt>
      <trkpt lat="44.36643" lon="5.55139">
        <ele>717</ele>
        <time>2019-06-07T08:15:53Z</time>
      </trkpt>
      <trkpt lat="44.3665" lon="5.55131">
        <ele>716</ele>
        <time>2019-06-07T08:15:54Z</time>
      </trkpt>
      <trkpt lat="44.36656" lon="5.55121">
        <ele>716</ele>
        <time>2019-06-07T08:15:55Z</time>
      </trkpt>
      <trkpt lat="44.3666" lon="5.55109">
        <ele>715</ele>
        <time>2019-06-07T08:15:56Z</time>
      </trkpt>
      <trkpt lat="44.36664" lon="5.55096">
        <ele>715</ele>
        <time>2019-06-07T08:15:57Z</time>
      </trkpt>
      <trkpt lat="44.36667" lon="5.55083">
        <ele>714</ele>
        <time>2019-06-07T08:15:58Z</time>
      </trkpt>
      <trkpt lat="44.3667" lon="5.5507">
        <ele>714</ele>
        <time>2019-06-07T08:15:59Z</time>
      </trkpt>
      <trkpt lat="44.36673" lon="5.55056">
        <ele>713</ele>
        <time>2019-06-07T08:16:00Z</time>
      </trkpt>
      <trkpt lat="44.36674" lon="5.55043">
        <ele>713</ele>
        <time>2019-06-07T08:16:01Z</time>
      </trkpt>
      <trkpt lat="44.36676" lon="5.5503">
        <ele>712</ele>
        <time>2019-06-07T08:16:02Z</time>
      </trkpt>
      <trkpt lat="44.36677" lon="5.55017">
        <ele>712</ele>
        <time>2019-06-07T08:16:03Z</time>
      </trkpt>
      <trkpt lat="44.36676" lon="5.55003">
        <ele>711</ele>
        <time>2019-06-07T08:16:04Z</time>
      </trkpt>
      <trkpt lat="44.36676" lon="5.5499">
        <ele>711</ele>
        <time>2019-06-07T08:16:05Z</time>
      </trkpt>
      <trkpt lat="44.36675" lon="5.54977">
        <ele>710</ele>
        <time>2019-06-07T08:16:06Z</time>
      </trkpt>
      <trkpt lat="44.36675" lon="5.54964">
        <ele>710</ele>
        <time>2019-06-07T08:16:07Z</time>
      </trkpt>
      <trkpt lat="44.36674" lon="5.54951">
        <ele>709</ele>
        <time>2019-06-07T08:16:08Z</time>
      </trkpt>
      <trkpt lat="44.36674" lon="5.54938">
        <ele>709</ele>
        <time>2019-06-07T08:16:09Z</time>
      </trkpt>
      <trkpt lat="44.36673" lon="5.54924">
        <ele>708</ele>
        <time>2019-06-07T08:16:10Z</time>
      </trkpt>
      <trkpt lat="44.36672" lon="5.54911">
        <ele>708</ele>
        <time>2019-06-07T08:16:11Z</time>
      </trkpt>
      <trkpt lat="44.36671" lon="5.54898">
        <ele>707</ele>
        <time>2019-06-07T08:16:12Z</time>
      </trkpt>
      <trkpt lat="44.36671" lon="5.54884">
        <ele>707</ele>
        <time>2019-06-07T08:16:13Z</time>
      </trkpt>
      <trkpt lat="44.36672" lon="5.54871">
        <ele>707</ele>
        <time>2019-06-07T08:16:14Z</time>
      </trkpt>
      <trkpt lat="44.36674" lon="5.54858">
        <ele>707</ele>
        <time>2019-06-07T08:16:15Z</time>
      </trkpt>
      <trkpt lat="44.36676" lon="5.54846">
        <ele>706</ele>
        <time>2019-06-07T08:16:16Z</time>
      </trkpt>
      <trkpt lat="44.36679" lon="5.54835">
        <ele>706</ele>
        <time>2019-06-07T08:16:17Z</time>
      </trkpt>
      <trkpt lat="44.36682" lon="5.54823">
        <ele>706</ele>
        <time>2019-06-07T08:16:18Z</time>
      </trkpt>
      <trkpt lat="44.36686" lon="5.54812">
        <ele>706</ele>
        <time>2019-06-07T08:16:19Z</time>
      </trkpt>
      <trkpt lat="44.36689" lon="5.548">
        <ele>705</ele>
        <time>2019-06-07T08:16:20Z</time>
      </trkpt>
      <trkpt lat="44.36693" lon="5.54788">
        <ele>705</ele>
        <time>2019-06-07T08:16:21Z</time>
      </trkpt>
      <trkpt lat="44.36697" lon="5.54776">
        <ele>704</ele>
        <time>2019-06-07T08:16:22Z</time>
      </trkpt>
      <trkpt lat="44.36702" lon="5.54764">
        <ele>704</ele>
        <time>2019-06-07T08:16:23Z</time>
      </trkpt>
      <trkpt lat="44.36708" lon="5.54752">
        <ele>703</ele>
        <time>2019-06-07T08:16:24Z</time>
      </trkpt>
      <trkpt lat="44.36713" lon="5.54741">
        <ele>703</ele>
        <time>2019-06-07T08:16:25Z</time>
      </trkpt>
      <trkpt lat="44.3672" lon="5.5473">
        <ele>703</ele>
        <time>2019-06-07T08:16:26Z</time>
      </trkpt>
      <trkpt lat="44.36727" lon="5.5472">
        <ele>702</ele>
        <time>2019-06-07T08:16:27Z</time>
      </trkpt>
      <trkpt lat="44.36735" lon="5.54711">
        <ele>702</ele>
        <time>2019-06-07T08:16:28Z</time>
      </trkpt>
      <trkpt lat="44.36743" lon="5.54704">
        <ele>702</ele>
        <time>2019-06-07T08:16:29Z</time>
      </trkpt>
      <trkpt lat="44.36752" lon="5.54697">
        <ele>702</ele>
        <time>2019-06-07T08:16:30Z</time>
      </trkpt>
      <trkpt lat="44.3676" lon="5.54692">
        <ele>702</ele>
        <time>2019-06-07T08:16:31Z</time>
      </trkpt>
      <trkpt lat="44.36769" lon="5.54689">
        <ele>702</ele>
        <time>2019-06-07T08:16:32Z</time>
      </trkpt>
      <trkpt lat="44.36778" lon="5.54687">
        <ele>701</ele>
        <time>2019-06-07T08:16:33Z</time>
      </trkpt>
      <trkpt lat="44.36787" lon="5.54685">
        <ele>701</ele>
        <time>2019-06-07T08:16:34Z</time>
      </trkpt>
      <trkpt lat="44.36796" lon="5.54684">
        <ele>701</ele>
        <time>2019-06-07T08:16:35Z</time>
      </trkpt>
      <trkpt lat="44.36806" lon="5.54684">
        <ele>700</ele>
        <time>2019-06-07T08:16:36Z</time>
      </trkpt>
      <trkpt lat="44.36816" lon="5.54683">
        <ele>700</ele>
        <time>2019-06-07T08:16:37Z</time>
      </trkpt>
      <trkpt lat="44.36826" lon="5.54681">
        <ele>699</ele>
        <time>2019-06-07T08:16:38Z</time>
      </trkpt>
      <trkpt lat="44.36834" lon="5.5468">
        <ele>699</ele>
        <time>2019-06-07T08:16:39Z</time>
      </trkpt>
      <trkpt lat="44.36843" lon="5.54677">
        <ele>699</ele>
        <time>2019-06-07T08:16:40Z</time>
      </trkpt>
      <trkpt lat="44.3685" lon="5.54672">
        <ele>699</ele>
        <time>2019-06-07T08:16:41Z</time>
      </trkpt>
      <trkpt lat="44.36855" lon="5.54665">
        <ele>699</ele>
        <time>2019-06-07T08:16:42Z</time>
      </trkpt>
      <trkpt lat="44.36859" lon="5.54657">
        <ele>698</ele>
        <time>2019-06-07T08:16:43Z</time>
      </trkpt>
      <trkpt lat="44.3686" lon="5.54647">
        <ele>698</ele>
        <time>2019-06-07T08:16:44Z</time>
      </trkpt>
      <trkpt lat="44.36859" lon="5.54637">
        <ele>698</ele>
        <time>2019-06-07T08:16:45Z</time>
      </trkpt>
      <trkpt lat="44.36855" lon="5.54628">
        <ele>698</ele>
        <time>2019-06-07T08:16:46Z</time>
      </trkpt>
      <trkpt lat="44.36852" lon="5.54619">
        <ele>698</ele>
        <time>2019-06-07T08:16:47Z</time>
      </trkpt>
      <trkpt lat="44.36847" lon="5.54611">
        <ele>698</ele>
        <time>2019-06-07T08:16:48Z</time>
      </trkpt>
      <trkpt lat="44.36843" lon="5.54602">
        <ele>698</ele>
        <time>2019-06-07T08:16:49Z</time>
      </trkpt>
      <trkpt lat="44.36839" lon="5.54594">
        <ele>698</ele>
        <time>2019-06-07T08:16:50Z</time>
      </trkpt>
      <trkpt lat="44.36835" lon="5.54586">
        <ele>698</ele>
        <time>2019-06-07T08:16:51Z</time>
      </trkpt>
      <trkpt lat="44.36832" lon="5.54577">
        <ele>698</ele>
        <time>2019-06-07T08:16:52Z</time>
      </trkpt>
      <trkpt lat="44.36828" lon="5.54569">
        <ele>698</ele>
        <time>2019-06-07T08:16:53Z</time>
      </trkpt>
      <trkpt lat="44.36825" lon="5.54561">
        <ele>698</ele>
        <time>2019-06-07T08:16:54Z</time>
      </trkpt>
      <trkpt lat="44.36821" lon="5.54554">
        <ele>698</ele>
        <time>2019-06-07T08:16:55Z</time>
      </trkpt>
      <trkpt lat="44.36818" lon="5.54546">
        <ele>698</ele>
        <time>2019-06-07T08:16:56Z</time>
      </trkpt>
      <trkpt lat="44.36814" lon="5.54538">
        <ele>698</ele>
        <time>2019-06-07T08:16:57Z</time>
      </trkpt>
      <trkpt lat="44.36811" lon="5.5453">
        <ele>698</ele>
        <time>2019-06-07T08:16:58Z</time>
      </trkpt>
      <trkpt lat="44.36807" lon="5.54522">
        <ele>698</ele>
        <time>2019-06-07T08:16:59Z</time>
      </trkpt>
      <trkpt lat="44.36803" lon="5.54514">
        <ele>698</ele>
        <time>2019-06-07T08:17:00Z</time>
      </trkpt>
      <trkpt lat="44.368" lon="5.54505">
        <ele>698</ele>
        <time>2019-06-07T08:17:01Z</time>
      </trkpt>
      <trkpt lat="44.36797" lon="5.54497">
        <ele>698</ele>
        <time>2019-06-07T08:17:02Z</time>
      </trkpt>
      <trkpt lat="44.36794" lon="5.54489">
        <ele>698</ele>
        <time>2019-06-07T08:17:03Z</time>
      </trkpt>
      <trkpt lat="44.36791" lon="5.5448">
        <ele>698</ele>
        <time>2019-06-07T08:17:04Z</time>
      </trkpt>
      <trkpt lat="44.36789" lon="5.54471">
        <ele>698</ele>
        <time>2019-06-07T08:17:05Z</time>
      </trkpt>
      <trkpt lat="44.36786" lon="5.54463">
        <ele>698</ele>
        <time>2019-06-07T08:17:06Z</time>
      </trkpt>
      <trkpt lat="44.36784" lon="5.54454">
        <ele>698</ele>
        <time>2019-06-07T08:17:07Z</time>
      </trkpt>
      <trkpt lat="44.36782" lon="5.54445">
        <ele>698</ele>
        <time>2019-06-07T08:17:08Z</time>
      </trkpt>
      <trkpt lat="44.36779" lon="5.54437">
        <ele>698</ele>
        <time>2019-06-07T08:17:09Z</time>
      </trkpt>
      <trkpt lat="44.36777" lon="5.54428">
        <ele>698</ele>
        <time>2019-06-07T08:17:10Z</time>
      </trkpt>
      <trkpt lat="44.36775" lon="5.54419">
        <ele>698</ele>
        <time>2019-06-07T08:17:11Z</time>
      </trkpt>
      <trkpt lat="44.36772" lon="5.5441">
        <ele>698</ele>
        <time>2019-06-07T08:17:12Z</time>
      </trkpt>
      <trkpt lat="44.3677" lon="5.54401">
        <ele>698</ele>
        <time>2019-06-07T08:17:13Z</time>
      </trkpt>
      <trkpt lat="44.36767" lon="5.54392">
        <ele>698</ele>
        <time>2019-06-07T08:17:14Z</time>
      </trkpt>
      <trkpt lat="44.36764" lon="5.54383">
        <ele>698</ele>
        <time>2019-06-07T08:17:15Z</time>
      </trkpt>
      <trkpt lat="44.36761" lon="5.54375">
        <ele>698</ele>
        <time>2019-06-07T08:17:16Z</time>
      </trkpt>
      <trkpt lat="44.36759" lon="5.54365">
        <ele>698</ele>
        <time>2019-06-07T08:17:17Z</time>
      </trkpt>
      <trkpt lat="44.36756" lon="5.54356">
        <ele>698</ele>
        <time>2019-06-07T08:17:18Z</time>
      </trkpt>
      <trkpt lat="44.36754" lon="5.54347">
        <ele>698</ele>
        <time>2019-06-07T08:17:19Z</time>
      </trkpt>
      <trkpt lat="44.36752" lon="5.54338">
        <ele>698</ele>
        <time>2019-06-07T08:17:20Z</time>
      </trkpt>
      <trkpt lat="44.36751" lon="5.54327">
        <ele>698</ele>
        <time>2019-06-07T08:17:21Z</time>
      </trkpt>
      <trkpt lat="44.3675" lon="5.54317">
        <ele>698</ele>
        <time>2019-06-07T08:17:22Z</time>
      </trkpt>
      <trkpt lat="44.3675" lon="5.54307">
        <ele>698</ele>
        <time>2019-06-07T08:17:23Z</time>
      </trkpt>
      <trkpt lat="44.36751" lon="5.54295">
        <ele>698</ele>
        <time>2019-06-07T08:17:24Z</time>
      </trkpt>
      <trkpt lat="44.36752" lon="5.54284">
        <ele>698</ele>
        <time>2019-06-07T08:17:25Z</time>
      </trkpt>
      <trkpt lat="44.36753" lon="5.54273">
        <ele>698</ele>
        <time>2019-06-07T08:17:26Z</time>
      </trkpt>
      <trkpt lat="44.36754" lon="5.54261">
        <ele>698</ele>
        <time>2019-06-07T08:17:27Z</time>
      </trkpt>
      <trkpt lat="44.36755" lon="5.54249">
        <ele>697</ele>
        <time>2019-06-07T08:17:28Z</time>
      </trkpt>
      <trkpt lat="44.36757" lon="5.54237">
        <ele>697</ele>
        <time>2019-06-07T08:17:29Z</time>
      </trkpt>
      <trkpt lat="44.36758" lon="5.54225">
        <ele>696</ele>
        <time>2019-06-07T08:17:30Z</time>
      </trkpt>
      <trkpt lat="44.3676" lon="5.54214">
        <ele>695</ele>
        <time>2019-06-07T08:17:31Z</time>
      </trkpt>
      <trkpt lat="44.36761" lon="5.54202">
        <ele>695</ele>
        <time>2019-06-07T08:17:32Z</time>
      </trkpt>
      <trkpt lat="44.36763" lon="5.54191">
        <ele>694</ele>
        <time>2019-06-07T08:17:33Z</time>
      </trkpt>
      <trkpt lat="44.36764" lon="5.54179">
        <ele>693</ele>
        <time>2019-06-07T08:17:34Z</time>
      </trkpt>
      <trkpt lat="44.36765" lon="5.54168">
        <ele>693</ele>
        <time>2019-06-07T08:17:35Z</time>
      </trkpt>
      <trkpt lat="44.36766" lon="5.54157">
        <ele>692</ele>
        <time>2019-06-07T08:17:36Z</time>
      </trkpt>
      <trkpt lat="44.36766" lon="5.54146">
        <ele>692</ele>
        <time>2019-06-07T08:17:37Z</time>
      </trkpt>
      <trkpt lat="44.36766" lon="5.54135">
        <ele>691</ele>
        <time>2019-06-07T08:17:38Z</time>
      </trkpt>
      <trkpt lat="44.36766" lon="5.54123">
        <ele>691</ele>
        <time>2019-06-07T08:17:39Z</time>
      </trkpt>
      <trkpt lat="44.36765" lon="5.54112">
        <ele>691</ele>
        <time>2019-06-07T08:17:40Z</time>
      </trkpt>
      <trkpt lat="44.36765" lon="5.541">
        <ele>690</ele>
        <time>2019-06-07T08:17:41Z</time>
      </trkpt>
      <trkpt lat="44.36764" lon="5.54088">
        <ele>689</ele>
        <time>2019-06-07T08:17:42Z</time>
      </trkpt>
      <trkpt lat="44.36763" lon="5.54076">
        <ele>689</ele>
        <time>2019-06-07T08:17:43Z</time>
      </trkpt>
      <trkpt lat="44.36763" lon="5.54063">
        <ele>688</ele>
        <time>2019-06-07T08:17:44Z</time>
      </trkpt>
      <trkpt lat="44.36762" lon="5.54051">
        <ele>688</ele>
        <time>2019-06-07T08:17:45Z</time>
      </trkpt>
      <trkpt lat="44.36761" lon="5.54039">
        <ele>688</ele>
        <time>2019-06-07T08:17:46Z</time>
      </trkpt>
      <trkpt lat="44.3676" lon="5.54027">
        <ele>688</ele>
        <time>2019-06-07T08:17:47Z</time>
      </trkpt>
      <trkpt lat="44.36759" lon="5.54015">
        <ele>688</ele>
        <time>2019-06-07T08:17:48Z</time>
      </trkpt>
      <trkpt lat="44.36755" lon="5.54004">
        <ele>688</ele>
        <time>2019-06-07T08:17:49Z</time>
      </trkpt>
      <trkpt lat="44.36751" lon="5.53993">
        <ele>688</ele>
        <time>2019-06-07T08:17:50Z</time>
      </trkpt>
      <trkpt lat="44.36745" lon="5.53982">
        <ele>688</ele>
        <time>2019-06-07T08:17:51Z</time>
      </trkpt>
      <trkpt lat="44.36739" lon="5.53972">
        <ele>688</ele>
        <time>2019-06-07T08:17:52Z</time>
      </trkpt>
      <trkpt lat="44.36734" lon="5.53962">
        <ele>688</ele>
        <time>2019-06-07T08:17:53Z</time>
      </trkpt>
      <trkpt lat="44.36728" lon="5.53952">
        <ele>688</ele>
        <time>2019-06-07T08:17:54Z</time>
      </trkpt>
      <trkpt lat="44.36722" lon="5.53941">
        <ele>687</ele>
        <time>2019-06-07T08:17:55Z</time>
      </trkpt>
      <trkpt lat="44.36716" lon="5.53931">
        <ele>687</ele>
        <time>2019-06-07T08:17:56Z</time>
      </trkpt>
      <trkpt lat="44.36711" lon="5.5392">
        <ele>687</ele>
        <time>2019-06-07T08:17:57Z</time>
      </trkpt>
      <trkpt lat="44.36706" lon="5.5391">
        <ele>687</ele>
        <time>2019-06-07T08:17:58Z</time>
      </trkpt>
      <trkpt lat="44.36703" lon="5.53899">
        <ele>686</ele>
        <time>2019-06-07T08:17:59Z</time>
      </trkpt>
      <trkpt lat="44.36701" lon="5.53888">
        <ele>686</ele>
        <time>2019-06-07T08:18:00Z</time>
      </trkpt>
      <trkpt lat="44.367" lon="5.53876">
        <ele>686</ele>
        <time>2019-06-07T08:18:01Z</time>
      </trkpt>
      <trkpt lat="44.367" lon="5.53863">
        <ele>686</ele>
        <time>2019-06-07T08:18:02Z</time>
      </trkpt>
      <trkpt lat="44.36701" lon="5.53851">
        <ele>686</ele>
        <time>2019-06-07T08:18:03Z</time>
      </trkpt>
      <trkpt lat="44.36703" lon="5.53839">
        <ele>685</ele>
        <time>2019-06-07T08:18:04Z</time>
      </trkpt>
      <trkpt lat="44.36707" lon="5.53827">
        <ele>685</ele>
        <time>2019-06-07T08:18:05Z</time>
      </trkpt>
      <trkpt lat="44.3671" lon="5.53815">
        <ele>684</ele>
        <time>2019-06-07T08:18:06Z</time>
      </trkpt>
      <trkpt lat="44.36714" lon="5.53803">
        <ele>684</ele>
        <time>2019-06-07T08:18:07Z</time>
      </trkpt>
      <trkpt lat="44.36718" lon="5.53791">
        <ele>683</ele>
        <time>2019-06-07T08:18:08Z</time>
      </trkpt>
      <trkpt lat="44.36724" lon="5.5378">
        <ele>682</ele>
        <time>2019-06-07T08:18:09Z</time>
      </trkpt>
      <trkpt lat="44.3673" lon="5.5377">
        <ele>682</ele>
        <time>2019-06-07T08:18:10Z</time>
      </trkpt>
      <trkpt lat="44.36736" lon="5.5376">
        <ele>681</ele>
        <time>2019-06-07T08:18:11Z</time>
      </trkpt>
      <trkpt lat="44.36744" lon="5.53751">
        <ele>681</ele>
        <time>2019-06-07T08:18:12Z</time>
      </trkpt>
      <trkpt lat="44.36752" lon="5.53744">
        <ele>680</ele>
        <time>2019-06-07T08:18:13Z</time>
      </trkpt>
      <trkpt lat="44.36761" lon="5.53737">
        <ele>679</ele>
        <time>2019-06-07T08:18:14Z</time>
      </trkpt>
      <trkpt lat="44.36769" lon="5.53729">
        <ele>679</ele>
        <time>2019-06-07T08:18:15Z</time>
      </trkpt>
      <trkpt lat="44.36777" lon="5.53721">
        <ele>678</ele>
        <time>2019-06-07T08:18:16Z</time>
      </trkpt>
      <trkpt lat="44.36784" lon="5.53712">
        <ele>678</ele>
        <time>2019-06-07T08:18:17Z</time>
      </trkpt>
      <trkpt lat="44.36791" lon="5.53702">
        <ele>678</ele>
        <time>2019-06-07T08:18:18Z</time>
      </trkpt>
      <trkpt lat="44.36797" lon="5.53692">
        <ele>678</ele>
        <time>2019-06-07T08:18:19Z</time>
      </trkpt>
      <trkpt lat="44.36802" lon="5.53682">
        <ele>677</ele>
        <time>2019-06-07T08:18:20Z</time>
      </trkpt>
      <trkpt lat="44.36807" lon="5.53672">
        <ele>677</ele>
        <time>2019-06-07T08:18:21Z</time>
      </trkpt>
      <trkpt lat="44.36812" lon="5.5366">
        <ele>677</ele>
        <time>2019-06-07T08:18:22Z</time>
      </trkpt>
      <trkpt lat="44.36816" lon="5.53649">
        <ele>677</ele>
        <time>2019-06-07T08:18:23Z</time>
      </trkpt>
      <trkpt lat="44.3682" lon="5.53638">
        <ele>677</ele>
        <time>2019-06-07T08:18:24Z</time>
      </trkpt>
      <trkpt lat="44.36824" lon="5.53627">
        <ele>677</ele>
        <time>2019-06-07T08:18:25Z</time>
      </trkpt>
      <trkpt lat="44.36828" lon="5.53616">
        <ele>676</ele>
        <time>2019-06-07T08:18:26Z</time>
      </trkpt>
      <trkpt lat="44.36832" lon="5.53605">
        <ele>676</ele>
        <time>2019-06-07T08:18:27Z</time>
      </trkpt>
      <trkpt lat="44.36836" lon="5.53594">
        <ele>676</ele>
        <time>2019-06-07T08:18:28Z</time>
      </trkpt>
      <trkpt lat="44.3684" lon="5.53583">
        <ele>676</ele>
        <time>2019-06-07T08:18:29Z</time>
      </trkpt>
      <trkpt lat="44.36844" lon="5.53573">
        <ele>676</ele>
        <time>2019-06-07T08:18:30Z</time>
      </trkpt>
      <trkpt lat="44.36848" lon="5.53561">
        <ele>676</ele>
        <time>2019-06-07T08:18:31Z</time>
      </trkpt>
      <trkpt lat="44.36852" lon="5.5355">
        <ele>676</ele>
        <time>2019-06-07T08:18:32Z</time>
      </trkpt>
      <trkpt lat="44.36856" lon="5.5354">
        <ele>675</ele>
        <time>2019-06-07T08:18:33Z</time>
      </trkpt>
      <trkpt lat="44.3686" lon="5.53528">
        <ele>675</ele>
        <time>2019-06-07T08:18:34Z</time>
      </trkpt>
      <trkpt lat="44.36863" lon="5.53517">
        <ele>675</ele>
        <time>2019-06-07T08:18:35Z</time>
      </trkpt>
      <trkpt lat="44.36867" lon="5.53506">
        <ele>675</ele>
        <time>2019-06-07T08:18:36Z</time>
      </trkpt>
      <trkpt lat="44.3687" lon="5.53495">
        <ele>675</ele>
        <time>2019-06-07T08:18:37Z</time>
      </trkpt>
      <trkpt lat="44.36873" lon="5.53483">
        <ele>674</ele>
        <time>2019-06-07T08:18:38Z</time>
      </trkpt>
      <trkpt lat="44.36876" lon="5.53472">
        <ele>674</ele>
        <time>2019-06-07T08:18:39Z</time>
      </trkpt>
      <trkpt lat="44.36878" lon="5.5346">
        <ele>674</ele>
        <time>2019-06-07T08:18:40Z</time>
      </trkpt>
      <trkpt lat="44.36879" lon="5.53447">
        <ele>673</ele>
        <time>2019-06-07T08:18:41Z</time>
      </trkpt>
      <trkpt lat="44.36881" lon="5.53435">
        <ele>673</ele>
        <time>2019-06-07T08:18:42Z</time>
      </trkpt>
      <trkpt lat="44.36884" lon="5.53423">
        <ele>673</ele>
        <time>2019-06-07T08:18:43Z</time>
      </trkpt>
      <trkpt lat="44.36887" lon="5.53412">
        <ele>672</ele>
        <time>2019-06-07T08:18:44Z</time>
      </trkpt>
      <trkpt lat="44.36892" lon="5.53401">
        <ele>672</ele>
        <time>2019-06-07T08:18:45Z</time>
      </trkpt>
      <trkpt lat="44.36897" lon="5.53392">
        <ele>672</ele>
        <time>2019-06-07T08:18:46Z</time>
      </trkpt>
      <trkpt lat="44.36903" lon="5.53382">
        <ele>672</ele>
        <time>2019-06-07T08:18:47Z</time>
      </trkpt>
      <trkpt lat="44.36909" lon="5.53373">
        <ele>671</ele>
        <time>2019-06-07T08:18:48Z</time>
      </trkpt>
      <trkpt lat="44.36915" lon="5.53364">
        <ele>671</ele>
        <time>2019-06-07T08:18:49Z</time>
      </trkpt>
      <trkpt lat="44.36921" lon="5.53355">
        <ele>671</ele>
        <time>2019-06-07T08:18:50Z</time>
      </trkpt>
      <trkpt lat="44.36927" lon="5.53347">
        <ele>671</ele>
        <time>2019-06-07T08:18:51Z</time>
      </trkpt>
      <trkpt lat="44.36934" lon="5.53338">
        <ele>671</ele>
        <time>2019-06-07T08:18:52Z</time>
      </trkpt>
      <trkpt lat="44.3694" lon="5.5333">
        <ele>670</ele>
        <time>2019-06-07T08:18:53Z</time>
      </trkpt>
      <trkpt lat="44.36946" lon="5.53322">
        <ele>670</ele>
        <time>2019-06-07T08:18:54Z</time>
      </trkpt>
      <trkpt lat="44.36953" lon="5.53313">
        <ele>670</ele>
        <time>2019-06-07T08:18:55Z</time>
      </trkpt>
      <trkpt lat="44.36958" lon="5.53304">
        <ele>670</ele>
        <time>2019-06-07T08:18:56Z</time>
      </trkpt>
      <trkpt lat="44.36964" lon="5.53296">
        <ele>669</ele>
        <time>2019-06-07T08:18:57Z</time>
      </trkpt>
      <trkpt lat="44.3697" lon="5.53289">
        <ele>669</ele>
        <time>2019-06-07T08:18:58Z</time>
      </trkpt>
      <trkpt lat="44.36977" lon="5.53284">
        <ele>669</ele>
        <time>2019-06-07T08:18:59Z</time>
      </trkpt>
      <trkpt lat="44.36985" lon="5.53281">
        <ele>669</ele>
        <time>2019-06-07T08:19:00Z</time>
      </trkpt>
      <trkpt lat="44.36993" lon="5.53282">
        <ele>668</ele>
        <time>2019-06-07T08:19:01Z</time>
      </trkpt>
      <trkpt lat="44.37" lon="5.53287">
        <ele>668</ele>
        <time>2019-06-07T08:19:02Z</time>
      </trkpt>
      <trkpt lat="44.37008" lon="5.53293">
        <ele>668</ele>
        <time>2019-06-07T08:19:03Z</time>
      </trkpt>
      <trkpt lat="44.37014" lon="5.533">
        <ele>668</ele>
        <time>2019-06-07T08:19:04Z</time>
      </trkpt>
      <trkpt lat="44.37021" lon="5.53306">
        <ele>667</ele>
        <time>2019-06-07T08:19:05Z</time>
      </trkpt>
      <trkpt lat="44.37029" lon="5.53313">
        <ele>667</ele>
        <time>2019-06-07T08:19:06Z</time>
      </trkpt>
      <trkpt lat="44.37037" lon="5.53319">
        <ele>667</ele>
        <time>2019-06-07T08:19:07Z</time>
      </trkpt>
      <trkpt lat="44.37045" lon="5.53323">
        <ele>666</ele>
        <time>2019-06-07T08:19:08Z</time>
      </trkpt>
      <trkpt lat="44.37054" lon="5.53326">
        <ele>666</ele>
        <time>2019-06-07T08:19:09Z</time>
      </trkpt>
      <trkpt lat="44.37062" lon="5.53326">
        <ele>666</ele>
        <time>2019-06-07T08:19:10Z</time>
      </trkpt>
      <trkpt lat="44.37071" lon="5.53325">
        <ele>666</ele>
        <time>2019-06-07T08:19:11Z</time>
      </trkpt>
      <trkpt lat="44.37079" lon="5.53321">
        <ele>666</ele>
        <time>2019-06-07T08:19:12Z</time>
      </trkpt>
      <trkpt lat="44.37086" lon="5.53315">
        <ele>666</ele>
        <time>2019-06-07T08:19:13Z</time>
      </trkpt>
      <trkpt lat="44.37093" lon="5.53308">
        <ele>666</ele>
        <time>2019-06-07T08:19:14Z</time>
      </trkpt>
      <trkpt lat="44.37099" lon="5.533">
        <ele>665</ele>
        <time>2019-06-07T08:19:15Z</time>
      </trkpt>
      <trkpt lat="44.37105" lon="5.53292">
        <ele>665</ele>
        <time>2019-06-07T08:19:16Z</time>
      </trkpt>
      <trkpt lat="44.37111" lon="5.53285">
        <ele>665</ele>
        <time>2019-06-07T08:19:17Z</time>
      </trkpt>
      <trkpt lat="44.37117" lon="5.53276">
        <ele>664</ele>
        <time>2019-06-07T08:19:18Z</time>
      </trkpt>
      <trkpt lat="44.37123" lon="5.53268">
        <ele>664</ele>
        <time>2019-06-07T08:19:19Z</time>
      </trkpt>
      <trkpt lat="44.37129" lon="5.5326">
        <ele>664</ele>
        <time>2019-06-07T08:19:20Z</time>
      </trkpt>
      <trkpt lat="44.37134" lon="5.53252">
        <ele>664</ele>
        <time>2019-06-07T08:19:21Z</time>
      </trkpt>
      <trkpt lat="44.37139" lon="5.53243">
        <ele>664</ele>
        <time>2019-06-07T08:19:22Z</time>
      </trkpt>
      <trkpt lat="44.37143" lon="5.53235">
        <ele>664</ele>
        <time>2019-06-07T08:19:23Z</time>
      </trkpt>
      <trkpt lat="44.37145" lon="5.53226">
        <ele>664</ele>
        <time>2019-06-07T08:19:24Z</time>
      </trkpt>
      <trkpt lat="44.37146" lon="5.53217">
        <ele>664</ele>
        <time>2019-06-07T08:19:25Z</time>
      </trkpt>
      <trkpt lat="44.37146" lon="5.53208">
        <ele>664</ele>
        <time>2019-06-07T08:19:26Z</time>
      </trkpt>
      <trkpt lat="44.37145" lon="5.53201">
        <ele>664</ele>
        <time>2019-06-07T08:19:27Z</time>
      </trkpt>
      <trkpt lat="44.37143" lon="5.53194">
        <ele>664</ele>
        <time>2019-06-07T08:19:28Z</time>
      </trkpt>
      <trkpt lat="44.3714" lon="5.53187">
        <ele>664</ele>
        <time>2019-06-07T08:19:29Z</time>
      </trkpt>
      <trkpt lat="44.37137" lon="5.5318">
        <ele>664</ele>
        <time>2019-06-07T08:19:30Z</time>
      </trkpt>
      <trkpt lat="44.37135" lon="5.53173">
        <ele>664</ele>
        <time>2019-06-07T08:19:31Z</time>
      </trkpt>
      <trkpt lat="44.37133" lon="5.53166">
        <ele>664</ele>
        <time>2019-06-07T08:19:32Z</time>
      </trkpt>
      <trkpt lat="44.3713" lon="5.53159">
        <ele>664</ele>
        <time>2019-06-07T08:19:33Z</time>
      </trkpt>
      <trkpt lat="44.37128" lon="5.53152">
        <ele>664</ele>
        <time>2019-06-07T08:19:34Z</time>
      </trkpt>
      <trkpt lat="44.37125" lon="5.53145">
        <ele>664</ele>
        <time>2019-06-07T08:19:35Z</time>
      </trkpt>
      <trkpt lat="44.37123" lon="5.53139">
        <ele>664</ele>
        <time>2019-06-07T08:19:36Z</time>
      </trkpt>
      <trkpt lat="44.37121" lon="5.53132">
        <ele>664</ele>
        <time>2019-06-07T08:19:37Z</time>
      </trkpt>
      <trkpt lat="44.37119" lon="5.53126">
        <ele>664</ele>
        <time>2019-06-07T08:19:38Z</time>
      </trkpt>
      <trkpt lat="44.37117" lon="5.5312">
        <ele>664</ele>
        <time>2019-06-07T08:19:39Z</time>
      </trkpt>
      <trkpt lat="44.37116" lon="5.53113">
        <ele>664</ele>
        <time>2019-06-07T08:19:40Z</time>
      </trkpt>
      <trkpt lat="44.37114" lon="5.53107">
        <ele>664</ele>
        <time>2019-06-07T08:19:41Z</time>
      </trkpt>
      <trkpt lat="44.37112" lon="5.531">
        <ele>664</ele>
        <time>2019-06-07T08:19:42Z</time>
      </trkpt>
      <trkpt lat="44.37109" lon="5.53094">
        <ele>664</ele>
        <time>2019-06-07T08:19:43Z</time>
      </trkpt>
      <trkpt lat="44.37107" lon="5.53087">
        <ele>664</ele>
        <time>2019-06-07T08:19:44Z</time>
      </trkpt>
      <trkpt lat="44.37104" lon="5.53081">
        <ele>664</ele>
        <time>2019-06-07T08:19:45Z</time>
      </trkpt>
      <trkpt lat="44.37102" lon="5.53074">
        <ele>664</ele>
        <time>2019-06-07T08:19:46Z</time>
      </trkpt>
      <trkpt lat="44.37099" lon="5.53067">
        <ele>664</ele>
        <time>2019-06-07T08:19:47Z</time>
      </trkpt>
      <trkpt lat="44.37097" lon="5.5306">
        <ele>664</ele>
        <time>2019-06-07T08:19:48Z</time>
      </trkpt>
      <trkpt lat="44.37095" lon="5.53053">
        <ele>664</ele>
        <time>2019-06-07T08:19:49Z</time>
      </trkpt>
      <trkpt lat="44.37093" lon="5.53046">
        <ele>664</ele>
        <time>2019-06-07T08:19:50Z</time>
      </trkpt>
      <trkpt lat="44.37092" lon="5.53039">
        <ele>664</ele>
        <time>2019-06-07T08:19:51Z</time>
      </trkpt>
      <trkpt lat="44.37093" lon="5.53031">
        <ele>665</ele>
        <time>2019-06-07T08:19:52Z</time>
      </trkpt>
      <trkpt lat="44.37094" lon="5.53024">
        <ele>665</ele>
        <time>2019-06-07T08:19:53Z</time>
      </trkpt>
      <trkpt lat="44.37096" lon="5.53018">
        <ele>665</ele>
        <time>2019-06-07T08:19:54Z</time>
      </trkpt>
      <trkpt lat="44.37098" lon="5.53013">
        <ele>666</ele>
        <time>2019-06-07T08:19:55Z</time>
      </trkpt>
      <trkpt lat="44.37101" lon="5.53009">
        <ele>666</ele>
        <time>2019-06-07T08:19:56Z</time>
      </trkpt>
      <trkpt lat="44.37104" lon="5.53005">
        <ele>666</ele>
        <time>2019-06-07T08:19:57Z</time>
      </trkpt>
      <trkpt lat="44.37107" lon="5.53001">
        <ele>666</ele>
        <time>2019-06-07T08:19:58Z</time>
      </trkpt>
      <trkpt lat="44.37111" lon="5.52997">
        <ele>666</ele>
        <time>2019-06-07T08:19:59Z</time>
      </trkpt>
      <trkpt lat="44.37114" lon="5.52993">
        <ele>666</ele>
        <time>2019-06-07T08:20:00Z</time>
      </trkpt>
      <trkpt lat="44.37117" lon="5.52988">
        <ele>667</ele>
        <time>2019-06-07T08:20:01Z</time>
      </trkpt>
      <trkpt lat="44.3712" lon="5.52983">
        <ele>667</ele>
        <time>2019-06-07T08:20:02Z</time>
      </trkpt>
      <trkpt lat="44.37122" lon="5.52977">
        <ele>667</ele>
        <time>2019-06-07T08:20:03Z</time>
      </trkpt>
      <trkpt lat="44.37124" lon="5.52971">
        <ele>667</ele>
        <time>2019-06-07T08:20:04Z</time>
      </trkpt>
      <trkpt lat="44.37125" lon="5.52964">
        <ele>667</ele>
        <time>2019-06-07T08:20:05Z</time>
      </trkpt>
      <trkpt lat="44.37125" lon="5.52959">
        <ele>667</ele>
        <time>2019-06-07T08:20:06Z</time>
      </trkpt>
      <trkpt lat="44.37125" lon="5.52953">
        <ele>667</ele>
        <time>2019-06-07T08:20:07Z</time>
      </trkpt>
      <trkpt lat="44.37125" lon="5.52947">
        <ele>667</ele>
        <time>2019-06-07T08:20:08Z</time>
      </trkpt>
      <trkpt lat="44.37125" lon="5.52941">
        <ele>667</ele>
        <time>2019-06-07T08:20:09Z</time>
      </trkpt>
      <trkpt lat="44.37125" lon="5.52935">
        <ele>667</ele>
        <time>2019-06-07T08:20:10Z</time>
      </trkpt>
      <trkpt lat="44.37125" lon="5.52928">
        <ele>667</ele>
        <time>2019-06-07T08:20:11Z</time>
      </trkpt>
      <trkpt lat="44.37125" lon="5.52923">
        <ele>668</ele>
        <time>2019-06-07T08:20:12Z</time>
      </trkpt>
      <trkpt lat="44.37125" lon="5.52917">
        <ele>668</ele>
        <time>2019-06-07T08:20:13Z</time>
      </trkpt>
      <trkpt lat="44.37126" lon="5.52912">
        <ele>669</ele>
        <time>2019-06-07T08:20:14Z</time>
      </trkpt>
      <trkpt lat="44.37128" lon="5.52906">
        <ele>669</ele>
        <time>2019-06-07T08:20:15Z</time>
      </trkpt>
      <trkpt lat="44.37129" lon="5.529">
        <ele>669</ele>
        <time>2019-06-07T08:20:16Z</time>
      </trkpt>
      <trkpt lat="44.3713" lon="5.52893">
        <ele>670</ele>
        <time>2019-06-07T08:20:17Z</time>
      </trkpt>
      <trkpt lat="44.37131" lon="5.52887">
        <ele>670</ele>
        <time>2019-06-07T08:20:18Z</time>
      </trkpt>
      <trkpt lat="44.37132" lon="5.52881">
        <ele>671</ele>
        <time>2019-06-07T08:20:19Z</time>
      </trkpt>
      <trkpt lat="44.37133" lon="5.52875">
        <ele>671</ele>
        <time>2019-06-07T08:20:20Z</time>
      </trkpt>
      <trkpt lat="44.37134" lon="5.52869">
        <ele>671</ele>
        <time>2019-06-07T08:20:21Z</time>
      </trkpt>
      <trkpt lat="44.37135" lon="5.52864">
        <ele>671</ele>
        <time>2019-06-07T08:20:22Z</time>
      </trkpt>
      <trkpt lat="44.37135" lon="5.52858">
        <ele>671</ele>
        <time>2019-06-07T08:20:23Z</time>
      </trkpt>
      <trkpt lat="44.37135" lon="5.52852">
        <ele>671</ele>
        <time>2019-06-07T08:20:24Z</time>
      </trkpt>
      <trkpt lat="44.37135" lon="5.52846">
        <ele>671</ele>
        <time>2019-06-07T08:20:25Z</time>
      </trkpt>
      <trkpt lat="44.37134" lon="5.52841">
        <ele>671</ele>
        <time>2019-06-07T08:20:26Z</time>
      </trkpt>
      <trkpt lat="44.37134" lon="5.52835">
        <ele>671</ele>
        <time>2019-06-07T08:20:27Z</time>
      </trkpt>
      <trkpt lat="44.37133" lon="5.5283">
        <ele>671</ele>
        <time>2019-06-07T08:20:28Z</time>
      </trkpt>
      <trkpt lat="44.37133" lon="5.52825">
        <ele>672</ele>
        <time>2019-06-07T08:20:29Z</time>
      </trkpt>
      <trkpt lat="44.37132" lon="5.52819">
        <ele>672</ele>
        <time>2019-06-07T08:20:30Z</time>
      </trkpt>
      <trkpt lat="44.37131" lon="5.52814">
        <ele>672</ele>
        <time>2019-06-07T08:20:31Z</time>
      </trkpt>
      <trkpt lat="44.3713" lon="5.52809">
        <ele>672</ele>
        <time>2019-06-07T08:20:32Z</time>
      </trkpt>
      <trkpt lat="44.3713" lon="5.52803">
        <ele>672</ele>
        <time>2019-06-07T08:20:33Z</time>
      </trkpt>
      <trkpt lat="44.37128" lon="5.52798">
        <ele>673</ele>
        <time>2019-06-07T08:20:34Z</time>
      </trkpt>
      <trkpt lat="44.37127" lon="5.52792">
        <ele>673</ele>
        <time>2019-06-07T08:20:35Z</time>
      </trkpt>
      <trkpt lat="44.37126" lon="5.52787">
        <ele>673</ele>
        <time>2019-06-07T08:20:36Z</time>
      </trkpt>
      <trkpt lat="44.37125" lon="5.52782">
        <ele>673</ele>
        <time>2019-06-07T08:20:37Z</time>
      </trkpt>
      <trkpt lat="44.37123" lon="5.52777">
        <ele>674</ele>
        <time>2019-06-07T08:20:38Z</time>
      </trkpt>
      <trkpt lat="44.37122" lon="5.52773">
        <ele>674</ele>
        <time>2019-06-07T08:20:39Z</time>
      </trkpt>
      <trkpt lat="44.37121" lon="5.52768">
        <ele>674</ele>
        <time>2019-06-07T08:20:40Z</time>
      </trkpt>
      <trkpt lat="44.3712" lon="5.52763">
        <ele>674</ele>
        <time>2019-06-07T08:20:41Z</time>
      </trkpt>
      <trkpt lat="44.37118" lon="5.52759">
        <ele>674</ele>
        <time>2019-06-07T08:20:42Z</time>
      </trkpt>
      <trkpt lat="44.37117" lon="5.52754">
        <ele>675</ele>
        <time>2019-06-07T08:20:43Z</time>
      </trkpt>
      <trkpt lat="44.37117" lon="5.52749">
        <ele>675</ele>
        <time>2019-06-07T08:20:44Z</time>
      </trkpt>
      <trkpt lat="44.37116" lon="5.52745">
        <ele>675</ele>
        <time>2019-06-07T08:20:45Z</time>
      </trkpt>
      <trkpt lat="44.37115" lon="5.5274">
        <ele>675</ele>
        <time>2019-06-07T08:20:46Z</time>
      </trkpt>
      <trkpt lat="44.37114" lon="5.52735">
        <ele>676</ele>
        <time>2019-06-07T08:20:47Z</time>
      </trkpt>
      <trkpt lat="44.37114" lon="5.5273">
        <ele>676</ele>
        <time>2019-06-07T08:20:48Z</time>
      </trkpt>
      <trkpt lat="44.37113" lon="5.52724">
        <ele>676</ele>
        <time>2019-06-07T08:20:49Z</time>
      </trkpt>
      <trkpt lat="44.37112" lon="5.52719">
        <ele>676</ele>
        <time>2019-06-07T08:20:50Z</time>
      </trkpt>
      <trkpt lat="44.37111" lon="5.52714">
        <ele>676</ele>
        <time>2019-06-07T08:20:51Z</time>
      </trkpt>
      <trkpt lat="44.3711" lon="5.52708">
        <ele>677</ele>
        <time>2019-06-07T08:20:52Z</time>
      </trkpt>
      <trkpt lat="44.37109" lon="5.52703">
        <ele>677</ele>
        <time>2019-06-07T08:20:53Z</time>
      </trkpt>
      <trkpt lat="44.37108" lon="5.52698">
        <ele>677</ele>
        <time>2019-06-07T08:20:54Z</time>
      </trkpt>
      <trkpt lat="44.37107" lon="5.52693">
        <ele>678</ele>
        <time>2019-06-07T08:20:55Z</time>
      </trkpt>
      <trkpt lat="44.37105" lon="5.52689">
        <ele>678</ele>
        <time>2019-06-07T08:20:56Z</time>
      </trkpt>
      <trkpt lat="44.37103" lon="5.52684">
        <ele>678</ele>
        <time>2019-06-07T08:20:57Z</time>
      </trkpt>
      <trkpt lat="44.37101" lon="5.52679">
        <ele>679</ele>
        <time>2019-06-07T08:20:58Z</time>
      </trkpt>
      <trkpt lat="44.37099" lon="5.52675">
        <ele>679</ele>
        <time>2019-06-07T08:20:59Z</time>
      </trkpt>
      <trkpt lat="44.37098" lon="5.5267">
        <ele>679</ele>
        <time>2019-06-07T08:21:00Z</time>
      </trkpt>
      <trkpt lat="44.37096" lon="5.52665">
        <ele>680</ele>
        <time>2019-06-07T08:21:01Z</time>
      </trkpt>
      <trkpt lat="44.37094" lon="5.52661">
        <ele>680</ele>
        <time>2019-06-07T08:21:02Z</time>
      </trkpt>
      <trkpt lat="44.37092" lon="5.52657">
        <ele>680</ele>
        <time>2019-06-07T08:21:03Z</time>
      </trkpt>
      <trkpt lat="44.37091" lon="5.52652">
        <ele>680</ele>
        <time>2019-06-07T08:21:04Z</time>
      </trkpt>
      <trkpt lat="44.37089" lon="5.52648">
        <ele>681</ele>
        <time>2019-06-07T08:21:05Z</time>
      </trkpt>
      <trkpt lat="44.37087" lon="5.52643">
        <ele>681</ele>
        <time>2019-06-07T08:21:06Z</time>
      </trkpt>
      <trkpt lat="44.37086" lon="5.52637">
        <ele>681</ele>
        <time>2019-06-07T08:21:07Z</time>
      </trkpt>
      <trkpt lat="44.37085" lon="5.52632">
        <ele>681</ele>
        <time>2019-06-07T08:21:08Z</time>
      </trkpt>
      <trkpt lat="44.37083" lon="5.52627">
        <ele>681</ele>
        <time>2019-06-07T08:21:09Z</time>
      </trkpt>
      <trkpt lat="44.37083" lon="5.52622">
        <ele>681</ele>
        <time>2019-06-07T08:21:10Z</time>
      </trkpt>
      <trkpt lat="44.37082" lon="5.52616">
        <ele>682</ele>
        <time>2019-06-07T08:21:11Z</time>
      </trkpt>
      <trkpt lat="44.37082" lon="5.52611">
        <ele>682</ele>
        <time>2019-06-07T08:21:12Z</time>
      </trkpt>
      <trkpt lat="44.37082" lon="5.52605">
        <ele>682</ele>
        <time>2019-06-07T08:21:13Z</time>
      </trkpt>
      <trkpt lat="44.37081" lon="5.526">
        <ele>683</ele>
        <time>2019-06-07T08:21:14Z</time>
      </trkpt>
      <trkpt lat="44.37081" lon="5.52595">
        <ele>683</ele>
        <time>2019-06-07T08:21:15Z</time>
      </trkpt>
      <trkpt lat="44.37081" lon="5.5259">
        <ele>684</ele>
        <time>2019-06-07T08:21:16Z</time>
      </trkpt>
      <trkpt lat="44.37081" lon="5.52584">
        <ele>684</ele>
        <time>2019-06-07T08:21:17Z</time>
      </trkpt>
      <trkpt lat="44.37081" lon="5.52578">
        <ele>684</ele>
        <time>2019-06-07T08:21:18Z</time>
      </trkpt>
      <trkpt lat="44.37081" lon="5.52572">
        <ele>684</ele>
        <time>2019-06-07T08:21:19Z</time>
      </trkpt>
      <trkpt lat="44.3708" lon="5.52566">
        <ele>684</ele>
        <time>2019-06-07T08:21:20Z</time>
      </trkpt>
      <trkpt lat="44.3708" lon="5.52561">
        <ele>684</ele>
        <time>2019-06-07T08:21:21Z</time>
      </trkpt>
      <trkpt lat="44.37079" lon="5.52555">
        <ele>685</ele>
        <time>2019-06-07T08:21:22Z</time>
      </trkpt>
      <trkpt lat="44.37079" lon="5.52549">
        <ele>685</ele>
        <time>2019-06-07T08:21:23Z</time>
      </trkpt>
      <trkpt lat="44.37077" lon="5.52543">
        <ele>685</ele>
        <time>2019-06-07T08:21:24Z</time>
      </trkpt>
      <trkpt lat="44.37076" lon="5.52538">
        <ele>686</ele>
        <time>2019-06-07T08:21:25Z</time>
      </trkpt>
      <trkpt lat="44.37074" lon="5.52533">
        <ele>686</ele>
        <time>2019-06-07T08:21:26Z</time>
      </trkpt>
      <trkpt lat="44.37071" lon="5.52528">
        <ele>686</ele>
        <time>2019-06-07T08:21:27Z</time>
      </trkpt>
      <trkpt lat="44.37068" lon="5.52524">
        <ele>687</ele>
        <time>2019-06-07T08:21:28Z</time>
      </trkpt>
      <trkpt lat="44.37064" lon="5.5252">
        <ele>687</ele>
        <time>2019-06-07T08:21:29Z</time>
      </trkpt>
      <trkpt lat="44.3706" lon="5.52517">
        <ele>687</ele>
        <time>2019-06-07T08:21:30Z</time>
      </trkpt>
      <trkpt lat="44.37056" lon="5.52515">
        <ele>687</ele>
        <time>2019-06-07T08:21:31Z</time>
      </trkpt>
      <trkpt lat="44.37052" lon="5.52514">
        <ele>687</ele>
        <time>2019-06-07T08:21:32Z</time>
      </trkpt>
      <trkpt lat="44.37048" lon="5.52512">
        <ele>687</ele>
        <time>2019-06-07T08:21:33Z</time>
      </trkpt>
      <trkpt lat="44.37044" lon="5.52511">
        <ele>687</ele>
        <time>2019-06-07T08:21:34Z</time>
      </trkpt>
      <trkpt lat="44.3704" lon="5.5251">
        <ele>687</ele>
        <time>2019-06-07T08:21:35Z</time>
      </trkpt>
      <trkpt lat="44.37036" lon="5.5251">
        <ele>687</ele>
        <time>2019-06-07T08:21:36Z</time>
      </trkpt>
      <trkpt lat="44.37032" lon="5.52509">
        <ele>687</ele>
        <time>2019-06-07T08:21:37Z</time>
      </trkpt>
      <trkpt lat="44.37028" lon="5.52509">
        <ele>687</ele>
        <time>2019-06-07T08:21:38Z</time>
      </trkpt>
      <trkpt lat="44.37024" lon="5.52509">
        <ele>687</ele>
        <time>2019-06-07T08:21:39Z</time>
      </trkpt>
      <trkpt lat="44.3702" lon="5.52509">
        <ele>687</ele>
        <time>2019-06-07T08:21:40Z</time>
      </trkpt>
      <trkpt lat="44.37016" lon="5.52508">
        <ele>687</ele>
        <time>2019-06-07T08:21:41Z</time>
      </trkpt>
      <trkpt lat="44.37012" lon="5.52507">
        <ele>687</ele>
        <time>2019-06-07T08:21:42Z</time>
      </trkpt>
      <trkpt lat="44.37009" lon="5.52507">
        <ele>687</ele>
        <time>2019-06-07T08:21:43Z</time>
      </trkpt>
      <trkpt lat="44.37004" lon="5.52507">
        <ele>687</ele>
        <time>2019-06-07T08:21:44Z</time>
      </trkpt>
      <trkpt lat="44.37001" lon="5.52507">
        <ele>687</ele>
        <time>2019-06-07T08:21:45Z</time>
      </trkpt>
      <trkpt lat="44.36997" lon="5.52506">
        <ele>687</ele>
        <time>2019-06-07T08:21:46Z</time>
      </trkpt>
      <trkpt lat="44.36993" lon="5.52506">
        <ele>687</ele>
        <time>2019-06-07T08:21:47Z</time>
      </trkpt>
      <trkpt lat="44.36989" lon="5.52505">
        <ele>687</ele>
        <time>2019-06-07T08:21:48Z</time>
      </trkpt>
      <trkpt lat="44.36985" lon="5.52504">
        <ele>687</ele>
        <time>2019-06-07T08:21:49Z</time>
      </trkpt>
      <trkpt lat="44.36982" lon="5.52503">
        <ele>687</ele>
        <time>2019-06-07T08:21:50Z</time>
      </trkpt>
      <trkpt lat="44.36977" lon="5.52503">
        <ele>687</ele>
        <time>2019-06-07T08:21:51Z</time>
      </trkpt>
      <trkpt lat="44.36973" lon="5.52502">
        <ele>687</ele>
        <time>2019-06-07T08:21:52Z</time>
      </trkpt>
      <trkpt lat="44.36969" lon="5.52502">
        <ele>687</ele>
        <time>2019-06-07T08:21:53Z</time>
      </trkpt>
      <trkpt lat="44.36965" lon="5.52501">
        <ele>687</ele>
        <time>2019-06-07T08:21:54Z</time>
      </trkpt>
      <trkpt lat="44.36961" lon="5.525">
        <ele>687</ele>
        <time>2019-06-07T08:21:55Z</time>
      </trkpt>
      <trkpt lat="44.36957" lon="5.52499">
        <ele>687</ele>
        <time>2019-06-07T08:21:56Z</time>
      </trkpt>
      <trkpt lat="44.36953" lon="5.52498">
        <ele>687</ele>
        <time>2019-06-07T08:21:57Z</time>
      </trkpt>
      <trkpt lat="44.36948" lon="5.52497">
        <ele>687</ele>
        <time>2019-06-07T08:21:58Z</time>
      </trkpt>
      <trkpt lat="44.36944" lon="5.52496">
        <ele>687</ele>
        <time>2019-06-07T08:21:59Z</time>
      </trkpt>
      <trkpt lat="44.3694" lon="5.52495">
        <ele>687</ele>
        <time>2019-06-07T08:22:00Z</time>
      </trkpt>
      <trkpt lat="44.36935" lon="5.52494">
        <ele>688</ele>
        <time>2019-06-07T08:22:01Z</time>
      </trkpt>
      <trkpt lat="44.36931" lon="5.52492">
        <ele>688</ele>
        <time>2019-06-07T08:22:02Z</time>
      </trkpt>
      <trkpt lat="44.36927" lon="5.52489">
        <ele>689</ele>
        <time>2019-06-07T08:22:03Z</time>
      </trkpt>
      <trkpt lat="44.36924" lon="5.52485">
        <ele>689</ele>
        <time>2019-06-07T08:22:04Z</time>
      </trkpt>
      <trkpt lat="44.36921" lon="5.5248">
        <ele>689</ele>
        <time>2019-06-07T08:22:05Z</time>
      </trkpt>
      <trkpt lat="44.36919" lon="5.52474">
        <ele>689</ele>
        <time>2019-06-07T08:22:06Z</time>
      </trkpt>
      <trkpt lat="44.36919" lon="5.52468">
        <ele>689</ele>
        <time>2019-06-07T08:22:07Z</time>
      </trkpt>
      <trkpt lat="44.36919" lon="5.52462">
        <ele>689</ele>
        <time>2019-06-07T08:22:08Z</time>
      </trkpt>
      <trkpt lat="44.3692" lon="5.52456">
        <ele>689</ele>
        <time>2019-06-07T08:22:09Z</time>
      </trkpt>
      <trkpt lat="44.36921" lon="5.52451">
        <ele>689</ele>
        <time>2019-06-07T08:22:10Z</time>
      </trkpt>
      <trkpt lat="44.36923" lon="5.52445">
        <ele>689</ele>
        <time>2019-06-07T08:22:11Z</time>
      </trkpt>
      <trkpt lat="44.36926" lon="5.52441">
        <ele>689</ele>
        <time>2019-06-07T08:22:12Z</time>
      </trkpt>
      <trkpt lat="44.3693" lon="5.52436">
        <ele>689</ele>
        <time>2019-06-07T08:22:13Z</time>
      </trkpt>
      <trkpt lat="44.36933" lon="5.52433">
        <ele>689</ele>
        <time>2019-06-07T08:22:14Z</time>
      </trkpt>
      <trkpt lat="44.36937" lon="5.5243">
        <ele>689</ele>
        <time>2019-06-07T08:22:15Z</time>
      </trkpt>
      <trkpt lat="44.36942" lon="5.52427">
        <ele>689</ele>
        <time>2019-06-07T08:22:16Z</time>
      </trkpt>
      <trkpt lat="44.36946" lon="5.52425">
        <ele>689</ele>
        <time>2019-06-07T08:22:17Z</time>
      </trkpt>
      <trkpt lat="44.3695" lon="5.52424">
        <ele>689</ele>
        <time>2019-06-07T08:22:18Z</time>
      </trkpt>
      <trkpt lat="44.36955" lon="5.52423">
        <ele>689</ele>
        <time>2019-06-07T08:22:19Z</time>
      </trkpt>
      <trkpt lat="44.36959" lon="5.52423">
        <ele>689</ele>
        <time>2019-06-07T08:22:20Z</time>
      </trkpt>
      <trkpt lat="44.36964" lon="5.52422">
        <ele>689</ele>
        <time>2019-06-07T08:22:21Z</time>
      </trkpt>
      <trkpt lat="44.36969" lon="5.5242">
        <ele>689</ele>
        <time>2019-06-07T08:22:22Z</time>
      </trkpt>
      <trkpt lat="44.36974" lon="5.52418">
        <ele>689</ele>
        <time>2019-06-07T08:22:23Z</time>
      </trkpt>
      <trkpt lat="44.36979" lon="5.52417">
        <ele>689</ele>
        <time>2019-06-07T08:22:24Z</time>
      </trkpt>
      <trkpt lat="44.36983" lon="5.52416">
        <ele>689</ele>
        <time>2019-06-07T08:22:25Z</time>
      </trkpt>
      <trkpt lat="44.36988" lon="5.52414">
        <ele>689</ele>
        <time>2019-06-07T08:22:26Z</time>
      </trkpt>
      <trkpt lat="44.36993" lon="5.52413">
        <ele>689</ele>
        <time>2019-06-07T08:22:27Z</time>
      </trkpt>
      <trkpt lat="44.36998" lon="5.52412">
        <ele>689</ele>
        <time>2019-06-07T08:22:28Z</time>
      </trkpt>
      <trkpt lat="44.37003" lon="5.52411">
        <ele>689</ele>
        <time>2019-06-07T08:22:29Z</time>
      </trkpt>
      <trkpt lat="44.37008" lon="5.5241">
        <ele>690</ele>
        <time>2019-06-07T08:22:30Z</time>
      </trkpt>
      <trkpt lat="44.37013" lon="5.52408">
        <ele>690</ele>
        <time>2019-06-07T08:22:31Z</time>
      </trkpt>
      <trkpt lat="44.37018" lon="5.52407">
        <ele>690</ele>
        <time>2019-06-07T08:22:32Z</time>
      </trkpt>
      <trkpt lat="44.37023" lon="5.52406">
        <ele>690</ele>
        <time>2019-06-07T08:22:33Z</time>
      </trkpt>
      <trkpt lat="44.37028" lon="5.52404">
        <ele>691</ele>
        <time>2019-06-07T08:22:34Z</time>
      </trkpt>
      <trkpt lat="44.37033" lon="5.52402">
        <ele>691</ele>
        <time>2019-06-07T08:22:35Z</time>
      </trkpt>
      <trkpt lat="44.37038" lon="5.52401">
        <ele>691</ele>
        <time>2019-06-07T08:22:36Z</time>
      </trkpt>
      <trkpt lat="44.37043" lon="5.52399">
        <ele>691</ele>
        <time>2019-06-07T08:22:37Z</time>
      </trkpt>
      <trkpt lat="44.37048" lon="5.52397">
        <ele>692</ele>
        <time>2019-06-07T08:22:38Z</time>
      </trkpt>
      <trkpt lat="44.37053" lon="5.52395">
        <ele>692</ele>
        <time>2019-06-07T08:22:39Z</time>
      </trkpt>
      <trkpt lat="44.37058" lon="5.52393">
        <ele>692</ele>
        <time>2019-06-07T08:22:40Z</time>
      </trkpt>
      <trkpt lat="44.37063" lon="5.52391">
        <ele>692</ele>
        <time>2019-06-07T08:22:41Z</time>
      </trkpt>
      <trkpt lat="44.37068" lon="5.52388">
        <ele>692</ele>
        <time>2019-06-07T08:22:42Z</time>
      </trkpt>
      <trkpt lat="44.37073" lon="5.52386">
        <ele>692</ele>
        <time>2019-06-07T08:22:43Z</time>
      </trkpt>
      <trkpt lat="44.37078" lon="5.52384">
        <ele>692</ele>
        <time>2019-06-07T08:22:44Z</time>
      </trkpt>
      <trkpt lat="44.37083" lon="5.52381">
        <ele>693</ele>
        <time>2019-06-07T08:22:45Z</time>
      </trkpt>
      <trkpt lat="44.37087" lon="5.52379">
        <ele>693</ele>
        <time>2019-06-07T08:22:46Z</time>
      </trkpt>
      <trkpt lat="44.37092" lon="5.52376">
        <ele>693</ele>
        <time>2019-06-07T08:22:47Z</time>
      </trkpt>
      <trkpt lat="44.37097" lon="5.52374">
        <ele>693</ele>
        <time>2019-06-07T08:22:48Z</time>
      </trkpt>
      <trkpt lat="44.37102" lon="5.5237">
        <ele>693</ele>
        <time>2019-06-07T08:22:49Z</time>
      </trkpt>
      <trkpt lat="44.37106" lon="5.52367">
        <ele>693</ele>
        <time>2019-06-07T08:22:50Z</time>
      </trkpt>
      <trkpt lat="44.37112" lon="5.52364">
        <ele>693</ele>
        <time>2019-06-07T08:22:51Z</time>
      </trkpt>
      <trkpt lat="44.37117" lon="5.52362">
        <ele>693</ele>
        <time>2019-06-07T08:22:52Z</time>
      </trkpt>
      <trkpt lat="44.37122" lon="5.52359">
        <ele>693</ele>
        <time>2019-06-07T08:22:53Z</time>
      </trkpt>
      <trkpt lat="44.37126" lon="5.52356">
        <ele>694</ele>
        <time>2019-06-07T08:22:54Z</time>
      </trkpt>
      <trkpt lat="44.37131" lon="5.52353">
        <ele>694</ele>
        <time>2019-06-07T08:22:55Z</time>
      </trkpt>
      <trkpt lat="44.37136" lon="5.5235">
        <ele>694</ele>
        <time>2019-06-07T08:22:56Z</time>
      </trkpt>
      <trkpt lat="44.3714" lon="5.52346">
        <ele>694</ele>
        <time>2019-06-07T08:22:57Z</time>
      </trkpt>
      <trkpt lat="44.37145" lon="5.52342">
        <ele>694</ele>
        <time>2019-06-07T08:22:58Z</time>
      </trkpt>
      <trkpt lat="44.37149" lon="5.52339">
        <ele>694</ele>
        <time>2019-06-07T08:22:59Z</time>
      </trkpt>
      <trkpt lat="44.37153" lon="5.52334">
        <ele>694</ele>
        <time>2019-06-07T08:23:00Z</time>
      </trkpt>
      <trkpt lat="44.37157" lon="5.5233">
        <ele>694</ele>
        <time>2019-06-07T08:23:01Z</time>
      </trkpt>
      <trkpt lat="44.37161" lon="5.52326">
        <ele>694</ele>
        <time>2019-06-07T08:23:02Z</time>
      </trkpt>
      <trkpt lat="44.37165" lon="5.52322">
        <ele>694</ele>
        <time>2019-06-07T08:23:03Z</time>
      </trkpt>
      <trkpt lat="44.37169" lon="5.52318">
        <ele>694</ele>
        <time>2019-06-07T08:23:04Z</time>
      </trkpt>
      <trkpt lat="44.37173" lon="5.52315">
        <ele>695</ele>
        <time>2019-06-07T08:23:05Z</time>
      </trkpt>
      <trkpt lat="44.37178" lon="5.52311">
        <ele>695</ele>
        <time>2019-06-07T08:23:06Z</time>
      </trkpt>
      <trkpt lat="44.37181" lon="5.52307">
        <ele>695</ele>
        <time>2019-06-07T08:23:07Z</time>
      </trkpt>
      <trkpt lat="44.37185" lon="5.52303">
        <ele>695</ele>
        <time>2019-06-07T08:23:08Z</time>
      </trkpt>
      <trkpt lat="44.37189" lon="5.52299">
        <ele>695</ele>
        <time>2019-06-07T08:23:09Z</time>
      </trkpt>
      <trkpt lat="44.37193" lon="5.52295">
        <ele>695</ele>
        <time>2019-06-07T08:23:10Z</time>
      </trkpt>
      <trkpt lat="44.37197" lon="5.52291">
        <ele>695</ele>
        <time>2019-06-07T08:23:11Z</time>
      </trkpt>
      <trkpt lat="44.37201" lon="5.52286">
        <ele>695</ele>
        <time>2019-06-07T08:23:12Z</time>
      </trkpt>
      <trkpt lat="44.37205" lon="5.52282">
        <ele>695</ele>
        <time>2019-06-07T08:23:13Z</time>
      </trkpt>
      <trkpt lat="44.3721" lon="5.52278">
        <ele>695</ele>
        <time>2019-06-07T08:23:14Z</time>
      </trkpt>
      <trkpt lat="44.37214" lon="5.52274">
        <ele>695</ele>
        <time>2019-06-07T08:23:15Z</time>
      </trkpt>
      <trkpt lat="44.37218" lon="5.52269">
        <ele>695</ele>
        <time>2019-06-07T08:23:16Z</time>
      </trkpt>
      <trkpt lat="44.37222" lon="5.52265">
        <ele>695</ele>
        <time>2019-06-07T08:23:17Z</time>
      </trkpt>
      <trkpt lat="44.37226" lon="5.52259">
        <ele>695</ele>
        <time>2019-06-07T08:23:18Z</time>
      </trkpt>
      <trkpt lat="44.3723" lon="5.52254">
        <ele>695</ele>
        <time>2019-06-07T08:23:19Z</time>
      </trkpt>
      <trkpt lat="44.37233" lon="5.52248">
        <ele>695</ele>
        <time>2019-06-07T08:23:20Z</time>
      </trkpt>
      <trkpt lat="44.37236" lon="5.52243">
        <ele>695</ele>
        <time>2019-06-07T08:23:21Z</time>
      </trkpt>
      <trkpt lat="44.37239" lon="5.52237">
        <ele>695</ele>
        <time>2019-06-07T08:23:22Z</time>
      </trkpt>
      <trkpt lat="44.37243" lon="5.52231">
        <ele>695</ele>
        <time>2019-06-07T08:23:23Z</time>
      </trkpt>
      <trkpt lat="44.37245" lon="5.52225">
        <ele>695</ele>
        <time>2019-06-07T08:23:24Z</time>
      </trkpt>
      <trkpt lat="44.37248" lon="5.52218">
        <ele>695</ele>
        <time>2019-06-07T08:23:25Z</time>
      </trkpt>
      <trkpt lat="44.37251" lon="5.52212">
        <ele>695</ele>
        <time>2019-06-07T08:23:26Z</time>
      </trkpt>
      <trkpt lat="44.37254" lon="5.52206">
        <ele>695</ele>
        <time>2019-06-07T08:23:27Z</time>
      </trkpt>
      <trkpt lat="44.37257" lon="5.522">
        <ele>695</ele>
        <time>2019-06-07T08:23:28Z</time>
      </trkpt>
      <trkpt lat="44.3726" lon="5.52193">
        <ele>695</ele>
        <time>2019-06-07T08:23:29Z</time>
      </trkpt>
      <trkpt lat="44.37263" lon="5.52187">
        <ele>695</ele>
        <time>2019-06-07T08:23:30Z</time>
      </trkpt>
      <trkpt lat="44.37265" lon="5.5218">
        <ele>695</ele>
        <time>2019-06-07T08:23:31Z</time>
      </trkpt>
      <trkpt lat="44.37268" lon="5.52174">
        <ele>695</ele>
        <time>2019-06-07T08:23:32Z</time>
      </trkpt>
      <trkpt lat="44.37271" lon="5.52168">
        <ele>695</ele>
        <time>2019-06-07T08:23:33Z</time>
      </trkpt>
      <trkpt lat="44.37274" lon="5.52162">
        <ele>695</ele>
        <time>2019-06-07T08:23:34Z</time>
      </trkpt>
      <trkpt lat="44.37276" lon="5.52156">
        <ele>695</ele>
        <time>2019-06-07T08:23:35Z</time>
      </trkpt>
      <trkpt lat="44.37279" lon="5.52149">
        <ele>695</ele>
        <time>2019-06-07T08:23:36Z</time>
      </trkpt>
      <trkpt lat="44.37282" lon="5.52143">
        <ele>695</ele>
        <time>2019-06-07T08:23:37Z</time>
      </trkpt>
      <trkpt lat="44.37285" lon="5.52137">
        <ele>695</ele>
        <time>2019-06-07T08:23:38Z</time>
      </trkpt>
      <trkpt lat="44.37287" lon="5.52131">
        <ele>695</ele>
        <time>2019-06-07T08:23:39Z</time>
      </trkpt>
      <trkpt lat="44.3729" lon="5.52125">
        <ele>695</ele>
        <time>2019-06-07T08:23:40Z</time>
      </trkpt>
      <trkpt lat="44.37293" lon="5.52119">
        <ele>695</ele>
        <time>2019-06-07T08:23:41Z</time>
      </trkpt>
      <trkpt lat="44.37296" lon="5.52113">
        <ele>695</ele>
        <time>2019-06-07T08:23:42Z</time>
      </trkpt>
      <trkpt lat="44.37299" lon="5.52108">
        <ele>695</ele>
        <time>2019-06-07T08:23:43Z</time>
      </trkpt>
      <trkpt lat="44.37302" lon="5.52102">
        <ele>696</ele>
        <time>2019-06-07T08:23:44Z</time>
      </trkpt>
      <trkpt lat="44.37305" lon="5.52096">
        <ele>696</ele>
        <time>2019-06-07T08:23:45Z</time>
      </trkpt>
      <trkpt lat="44.37309" lon="5.52091">
        <ele>696</ele>
        <time>2019-06-07T08:23:46Z</time>
      </trkpt>
      <trkpt lat="44.37312" lon="5.52085">
        <ele>696</ele>
        <time>2019-06-07T08:23:47Z</time>
      </trkpt>
      <trkpt lat="44.37316" lon="5.52079">
        <ele>696</ele>
        <time>2019-06-07T08:23:48Z</time>
      </trkpt>
      <trkpt lat="44.3732" lon="5.52074">
        <ele>696</ele>
        <time>2019-06-07T08:23:49Z</time>
      </trkpt>
      <trkpt lat="44.37324" lon="5.5207">
        <ele>697</ele>
        <time>2019-06-07T08:23:50Z</time>
      </trkpt>
      <trkpt lat="44.37328" lon="5.52065">
        <ele>697</ele>
        <time>2019-06-07T08:23:51Z</time>
      </trkpt>
      <trkpt lat="44.37332" lon="5.5206">
        <ele>697</ele>
        <time>2019-06-07T08:23:52Z</time>
      </trkpt>
      <trkpt lat="44.37336" lon="5.52055">
        <ele>697</ele>
        <time>2019-06-07T08:23:53Z</time>
      </trkpt>
      <trkpt lat="44.3734" lon="5.5205">
        <ele>697</ele>
        <time>2019-06-07T08:23:54Z</time>
      </trkpt>
      <trkpt lat="44.37344" lon="5.52045">
        <ele>697</ele>
        <time>2019-06-07T08:23:55Z</time>
      </trkpt>
      <trkpt lat="44.37349" lon="5.52041">
        <ele>697</ele>
        <time>2019-06-07T08:23:56Z</time>
      </trkpt>
      <trkpt lat="44.37353" lon="5.52037">
        <ele>697</ele>
        <time>2019-06-07T08:23:57Z</time>
      </trkpt>
      <trkpt lat="44.37357" lon="5.52032">
        <ele>697</ele>
        <time>2019-06-07T08:23:58Z</time>
      </trkpt>
      <trkpt lat="44.37362" lon="5.52028">
        <ele>698</ele>
        <time>2019-06-07T08:23:59Z</time>
      </trkpt>
      <trkpt lat="44.37367" lon="5.52024">
        <ele>698</ele>
        <time>2019-06-07T08:24:00Z</time>
      </trkpt>
      <trkpt lat="44.37371" lon="5.5202">
        <ele>698</ele>
        <time>2019-06-07T08:24:01Z</time>
      </trkpt>
      <trkpt lat="44.37376" lon="5.52016">
        <ele>698</ele>
        <time>2019-06-07T08:24:02Z</time>
      </trkpt>
      <trkpt lat="44.37381" lon="5.52012">
        <ele>698</ele>
        <time>2019-06-07T08:24:03Z</time>
      </trkpt>
      <trkpt lat="44.37385" lon="5.52007">
        <ele>698</ele>
        <time>2019-06-07T08:24:04Z</time>
      </trkpt>
      <trkpt lat="44.37389" lon="5.52003">
        <ele>698</ele>
        <time>2019-06-07T08:24:05Z</time>
      </trkpt>
      <trkpt lat="44.37394" lon="5.51999">
        <ele>698</ele>
        <time>2019-06-07T08:24:06Z</time>
      </trkpt>
      <trkpt lat="44.37398" lon="5.51994">
        <ele>698</ele>
        <time>2019-06-07T08:24:07Z</time>
      </trkpt>
      <trkpt lat="44.37402" lon="5.5199">
        <ele>699</ele>
        <time>2019-06-07T08:24:08Z</time>
      </trkpt>
      <trkpt lat="44.37407" lon="5.51985">
        <ele>699</ele>
        <time>2019-06-07T08:24:09Z</time>
      </trkpt>
      <trkpt lat="44.3741" lon="5.5198">
        <ele>699</ele>
        <time>2019-06-07T08:24:10Z</time>
      </trkpt>
      <trkpt lat="44.37415" lon="5.51975">
        <ele>699</ele>
        <time>2019-06-07T08:24:11Z</time>
      </trkpt>
      <trkpt lat="44.37419" lon="5.5197">
        <ele>699</ele>
        <time>2019-06-07T08:24:12Z</time>
      </trkpt>
      <trkpt lat="44.37423" lon="5.51965">
        <ele>699</ele>
        <time>2019-06-07T08:24:13Z</time>
      </trkpt>
      <trkpt lat="44.37427" lon="5.5196">
        <ele>699</ele>
        <time>2019-06-07T08:24:14Z</time>
      </trkpt>
      <trkpt lat="44.37431" lon="5.51955">
        <ele>699</ele>
        <time>2019-06-07T08:24:15Z</time>
      </trkpt>
      <trkpt lat="44.37436" lon="5.5195">
        <ele>700</ele>
        <time>2019-06-07T08:24:16Z</time>
      </trkpt>
      <trkpt lat="44.37439" lon="5.51944">
        <ele>700</ele>
        <time>2019-06-07T08:24:17Z</time>
      </trkpt>
      <trkpt lat="44.37444" lon="5.51939">
        <ele>700</ele>
        <time>2019-06-07T08:24:18Z</time>
      </trkpt>
      <trkpt lat="44.37447" lon="5.51935">
        <ele>701</ele>
        <time>2019-06-07T08:24:19Z</time>
      </trkpt>
      <trkpt lat="44.37451" lon="5.5193">
        <ele>701</ele>
        <time>2019-06-07T08:24:20Z</time>
      </trkpt>
      <trkpt lat="44.37455" lon="5.51925">
        <ele>701</ele>
        <time>2019-06-07T08:24:21Z</time>
      </trkpt>
      <trkpt lat="44.37458" lon="5.5192">
        <ele>702</ele>
        <time>2019-06-07T08:24:22Z</time>
      </trkpt>
      <trkpt lat="44.37461" lon="5.51915">
        <ele>702</ele>
        <time>2019-06-07T08:24:23Z</time>
      </trkpt>
      <trkpt lat="44.37465" lon="5.5191">
        <ele>702</ele>
        <time>2019-06-07T08:24:24Z</time>
      </trkpt>
      <trkpt lat="44.37468" lon="5.51906">
        <ele>702</ele>
        <time>2019-06-07T08:24:25Z</time>
      </trkpt>
      <trkpt lat="44.37471" lon="5.51901">
        <ele>703</ele>
        <time>2019-06-07T08:24:26Z</time>
      </trkpt>
      <trkpt lat="44.37474" lon="5.51897">
        <ele>703</ele>
        <time>2019-06-07T08:24:27Z</time>
      </trkpt>
      <trkpt lat="44.37478" lon="5.51893">
        <ele>703</ele>
        <time>2019-06-07T08:24:28Z</time>
      </trkpt>
      <trkpt lat="44.37481" lon="5.51889">
        <ele>703</ele>
        <time>2019-06-07T08:24:29Z</time>
      </trkpt>
      <trkpt lat="44.37484" lon="5.51885">
        <ele>703</ele>
        <time>2019-06-07T08:24:30Z</time>
      </trkpt>
      <trkpt lat="44.37487" lon="5.5188">
        <ele>704</ele>
        <time>2019-06-07T08:24:31Z</time>
      </trkpt>
      <trkpt lat="44.3749" lon="5.51876">
        <ele>704</ele>
        <time>2019-06-07T08:24:32Z</time>
      </trkpt>
      <trkpt lat="44.37493" lon="5.51872">
        <ele>704</ele>
        <time>2019-06-07T08:24:33Z</time>
      </trkpt>
      <trkpt lat="44.37496" lon="5.51867">
        <ele>704</ele>
        <time>2019-06-07T08:24:34Z</time>
      </trkpt>
      <trkpt lat="44.37499" lon="5.51863">
        <ele>704</ele>
        <time>2019-06-07T08:24:35Z</time>
      </trkpt>
      <trkpt lat="44.37502" lon="5.51859">
        <ele>704</ele>
        <time>2019-06-07T08:24:36Z</time>
      </trkpt>
      <trkpt lat="44.37505" lon="5.51855">
        <ele>704</ele>
        <time>2019-06-07T08:24:37Z</time>
      </trkpt>
      <trkpt lat="44.37508" lon="5.51851">
        <ele>704</ele>
        <time>2019-06-07T08:24:38Z</time>
      </trkpt>
      <trkpt lat="44.37511" lon="5.51848">
        <ele>705</ele>
        <time>2019-06-07T08:24:39Z</time>
      </trkpt>
      <trkpt lat="44.37514" lon="5.51844">
        <ele>705</ele>
        <time>2019-06-07T08:24:40Z</time>
      </trkpt>
      <trkpt lat="44.37517" lon="5.51839">
        <ele>705</ele>
        <time>2019-06-07T08:24:41Z</time>
      </trkpt>
      <trkpt lat="44.37519" lon="5.51835">
        <ele>705</ele>
        <time>2019-06-07T08:24:42Z</time>
      </trkpt>
      <trkpt lat="44.37522" lon="5.51831">
        <ele>705</ele>
        <time>2019-06-07T08:24:43Z</time>
      </trkpt>
      <trkpt lat="44.37525" lon="5.51827">
        <ele>705</ele>
        <time>2019-06-07T08:24:44Z</time>
      </trkpt>
      <trkpt lat="44.37528" lon="5.51823">
        <ele>705</ele>
        <time>2019-06-07T08:24:45Z</time>
      </trkpt>
      <trkpt lat="44.37531" lon="5.51819">
        <ele>705</ele>
        <time>2019-06-07T08:24:46Z</time>
      </trkpt>
      <trkpt lat="44.37534" lon="5.51815">
        <ele>706</ele>
        <time>2019-06-07T08:24:47Z</time>
      </trkpt>
      <trkpt lat="44.37537" lon="5.51811">
        <ele>706</ele>
        <time>2019-06-07T08:24:48Z</time>
      </trkpt>
      <trkpt lat="44.37541" lon="5.51807">
        <ele>706</ele>
        <time>2019-06-07T08:24:49Z</time>
      </trkpt>
      <trkpt lat="44.37544" lon="5.51803">
        <ele>706</ele>
        <time>2019-06-07T08:24:50Z</time>
      </trkpt>
      <trkpt lat="44.37547" lon="5.51798">
        <ele>707</ele>
        <time>2019-06-07T08:24:51Z</time>
      </trkpt>
      <trkpt lat="44.3755" lon="5.51793">
        <ele>707</ele>
        <time>2019-06-07T08:24:52Z</time>
      </trkpt>
      <trkpt lat="44.37553" lon="5.51789">
        <ele>707</ele>
        <time>2019-06-07T08:24:53Z</time>
      </trkpt>
      <trkpt lat="44.37556" lon="5.51785">
        <ele>707</ele>
        <time>2019-06-07T08:24:54Z</time>
      </trkpt>
      <trkpt lat="44.37559" lon="5.5178">
        <ele>707</ele>
        <time>2019-06-07T08:24:55Z</time>
      </trkpt>
      <trkpt lat="44.37562" lon="5.51775">
        <ele>708</ele>
        <time>2019-06-07T08:24:56Z</time>
      </trkpt>
      <trkpt lat="44.37565" lon="5.5177">
        <ele>708</ele>
        <time>2019-06-07T08:24:57Z</time>
      </trkpt>
      <trkpt lat="44.37568" lon="5.51766">
        <ele>708</ele>
        <time>2019-06-07T08:24:58Z</time>
      </trkpt>
      <trkpt lat="44.37571" lon="5.5176">
        <ele>708</ele>
        <time>2019-06-07T08:24:59Z</time>
      </trkpt>
      <trkpt lat="44.37574" lon="5.51755">
        <ele>708</ele>
        <time>2019-06-07T08:25:00Z</time>
      </trkpt>
      <trkpt lat="44.37577" lon="5.5175">
        <ele>709</ele>
        <time>2019-06-07T08:25:01Z</time>
      </trkpt>
      <trkpt lat="44.37579" lon="5.51744">
        <ele>709</ele>
        <time>2019-06-07T08:25:02Z</time>
      </trkpt>
      <trkpt lat="44.37582" lon="5.51739">
        <ele>709</ele>
        <time>2019-06-07T08:25:03Z</time>
      </trkpt>
      <trkpt lat="44.37585" lon="5.51733">
        <ele>709</ele>
        <time>2019-06-07T08:25:04Z</time>
      </trkpt>
      <trkpt lat="44.37587" lon="5.51728">
        <ele>710</ele>
        <time>2019-06-07T08:25:05Z</time>
      </trkpt>
      <trkpt lat="44.37589" lon="5.51722">
        <ele>710</ele>
        <time>2019-06-07T08:25:06Z</time>
      </trkpt>
      <trkpt lat="44.37592" lon="5.51716">
        <ele>710</ele>
        <time>2019-06-07T08:25:07Z</time>
      </trkpt>
      <trkpt lat="44.37594" lon="5.5171">
        <ele>710</ele>
        <time>2019-06-07T08:25:08Z</time>
      </trkpt>
      <trkpt lat="44.37595" lon="5.51704">
        <ele>710</ele>
        <time>2019-06-07T08:25:09Z</time>
      </trkpt>
      <trkpt lat="44.37598" lon="5.51698">
        <ele>710</ele>
        <time>2019-06-07T08:25:10Z</time>
      </trkpt>
      <trkpt lat="44.376" lon="5.51692">
        <ele>710</ele>
        <time>2019-06-07T08:25:11Z</time>
      </trkpt>
      <trkpt lat="44.37603" lon="5.51687">
        <ele>710</ele>
        <time>2019-06-07T08:25:12Z</time>
      </trkpt>
      <trkpt lat="44.37606" lon="5.51681">
        <ele>710</ele>
        <time>2019-06-07T08:25:13Z</time>
      </trkpt>
      <trkpt lat="44.37608" lon="5.51675">
        <ele>710</ele>
        <time>2019-06-07T08:25:14Z</time>
      </trkpt>
      <trkpt lat="44.3761" lon="5.51669">
        <ele>710</ele>
        <time>2019-06-07T08:25:15Z</time>
      </trkpt>
      <trkpt lat="44.37612" lon="5.51663">
        <ele>710</ele>
        <time>2019-06-07T08:25:17Z</time>
      </trkpt>
      <trkpt lat="44.37614" lon="5.51657">
        <ele>711</ele>
        <time>2019-06-07T08:25:17Z</time>
      </trkpt>
      <trkpt lat="44.37617" lon="5.51651">
        <ele>711</ele>
        <time>2019-06-07T08:25:18Z</time>
      </trkpt>
      <trkpt lat="44.37619" lon="5.51645">
        <ele>711</ele>
        <time>2019-06-07T08:25:19Z</time>
      </trkpt>
      <trkpt lat="44.37621" lon="5.51639">
        <ele>711</ele>
        <time>2019-06-07T08:25:20Z</time>
      </trkpt>
      <trkpt lat="44.37623" lon="5.51633">
        <ele>711</ele>
        <time>2019-06-07T08:25:21Z</time>
      </trkpt>
      <trkpt lat="44.37626" lon="5.51627">
        <ele>712</ele>
        <time>2019-06-07T08:25:22Z</time>
      </trkpt>
      <trkpt lat="44.37628" lon="5.51622">
        <ele>712</ele>
        <time>2019-06-07T08:25:23Z</time>
      </trkpt>
      <trkpt lat="44.3763" lon="5.51616">
        <ele>712</ele>
        <time>2019-06-07T08:25:24Z</time>
      </trkpt>
      <trkpt lat="44.37632" lon="5.5161">
        <ele>712</ele>
        <time>2019-06-07T08:25:25Z</time>
      </trkpt>
      <trkpt lat="44.37634" lon="5.51604">
        <ele>712</ele>
        <time>2019-06-07T08:25:26Z</time>
      </trkpt>
      <trkpt lat="44.37637" lon="5.51598">
        <ele>713</ele>
        <time>2019-06-07T08:25:27Z</time>
      </trkpt>
      <trkpt lat="44.37639" lon="5.51592">
        <ele>713</ele>
        <time>2019-06-07T08:25:28Z</time>
      </trkpt>
      <trkpt lat="44.37641" lon="5.51587">
        <ele>713</ele>
        <time>2019-06-07T08:25:29Z</time>
      </trkpt>
      <trkpt lat="44.37643" lon="5.51582">
        <ele>713</ele>
        <time>2019-06-07T08:25:30Z</time>
      </trkpt>
      <trkpt lat="44.37645" lon="5.51576">
        <ele>714</ele>
        <time>2019-06-07T08:25:31Z</time>
      </trkpt>
      <trkpt lat="44.37648" lon="5.51571">
        <ele>714</ele>
        <time>2019-06-07T08:25:32Z</time>
      </trkpt>
      <trkpt lat="44.3765" lon="5.51566">
        <ele>714</ele>
        <time>2019-06-07T08:25:33Z</time>
      </trkpt>
      <trkpt lat="44.37652" lon="5.5156">
        <ele>714</ele>
        <time>2019-06-07T08:25:34Z</time>
      </trkpt>
      <trkpt lat="44.37654" lon="5.51555">
        <ele>714</ele>
        <time>2019-06-07T08:25:35Z</time>
      </trkpt>
      <trkpt lat="44.37657" lon="5.5155">
        <ele>714</ele>
        <time>2019-06-07T08:25:36Z</time>
      </trkpt>
      <trkpt lat="44.37659" lon="5.51545">
        <ele>714</ele>
        <time>2019-06-07T08:25:37Z</time>
      </trkpt>
      <trkpt lat="44.37661" lon="5.51539">
        <ele>714</ele>
        <time>2019-06-07T08:25:38Z</time>
      </trkpt>
      <trkpt lat="44.37663" lon="5.51534">
        <ele>715</ele>
        <time>2019-06-07T08:25:39Z</time>
      </trkpt>
      <trkpt lat="44.37665" lon="5.51529">
        <ele>715</ele>
        <time>2019-06-07T08:25:40Z</time>
      </trkpt>
      <trkpt lat="44.37667" lon="5.51524">
        <ele>715</ele>
        <time>2019-06-07T08:25:41Z</time>
      </trkpt>
      <trkpt lat="44.37669" lon="5.51519">
        <ele>715</ele>
        <time>2019-06-07T08:25:42Z</time>
      </trkpt>
      <trkpt lat="44.37672" lon="5.51513">
        <ele>715</ele>
        <time>2019-06-07T08:25:43Z</time>
      </trkpt>
      <trkpt lat="44.37674" lon="5.51508">
        <ele>715</ele>
        <time>2019-06-07T08:25:44Z</time>
      </trkpt>
      <trkpt lat="44.37676" lon="5.51503">
        <ele>716</ele>
        <time>2019-06-07T08:25:45Z</time>
      </trkpt>
      <trkpt lat="44.37679" lon="5.51498">
        <ele>716</ele>
        <time>2019-06-07T08:25:46Z</time>
      </trkpt>
      <trkpt lat="44.37681" lon="5.51492">
        <ele>716</ele>
        <time>2019-06-07T08:25:47Z</time>
      </trkpt>
      <trkpt lat="44.37683" lon="5.51487">
        <ele>716</ele>
        <time>2019-06-07T08:25:48Z</time>
      </trkpt>
      <trkpt lat="44.37685" lon="5.51481">
        <ele>716</ele>
        <time>2019-06-07T08:25:49Z</time>
      </trkpt>
      <trkpt lat="44.37687" lon="5.51476">
        <ele>716</ele>
        <time>2019-06-07T08:25:50Z</time>
      </trkpt>
      <trkpt lat="44.37689" lon="5.51472">
        <ele>716</ele>
        <time>2019-06-07T08:25:51Z</time>
      </trkpt>
      <trkpt lat="44.37691" lon="5.51469">
        <ele>716</ele>
        <time>2019-06-07T08:25:52Z</time>
      </trkpt>
      <trkpt lat="44.37693" lon="5.51466">
        <ele>717</ele>
        <time>2019-06-07T08:25:53Z</time>
      </trkpt>
      <trkpt lat="44.37694" lon="5.51463">
        <ele>717</ele>
        <time>2019-06-07T08:25:54Z</time>
      </trkpt>
      <trkpt lat="44.37697" lon="5.51462">
        <ele>717</ele>
        <time>2019-06-07T08:25:55Z</time>
      </trkpt>
      <trkpt lat="44.37698" lon="5.51461">
        <ele>717</ele>
        <time>2019-06-07T08:25:56Z</time>
      </trkpt>
      <trkpt lat="44.37699" lon="5.5146">
        <ele>719</ele>
        <time>2019-06-07T08:25:58Z</time>
      </trkpt>
      <trkpt lat="44.37698" lon="5.51458">
        <ele>722</ele>
        <time>2019-06-07T08:26:03Z</time>
      </trkpt>
      <trkpt lat="44.37697" lon="5.51459">
        <ele>722</ele>
        <time>2019-06-07T08:26:12Z</time>
      </trkpt>
      <trkpt lat="44.3771" lon="5.51477">
        <ele>725</ele>
        <time>2019-06-07T08:27:02Z</time>
      </trkpt>
      <trkpt lat="44.37708" lon="5.51475">
        <ele>724</ele>
        <time>2019-06-07T08:27:03Z</time>
      </trkpt>
      <trkpt lat="44.37706" lon="5.51473">
        <ele>723</ele>
        <time>2019-06-07T08:27:04Z</time>
      </trkpt>
      <trkpt lat="44.37705" lon="5.51472">
        <ele>722</ele>
        <time>2019-06-07T08:27:05Z</time>
      </trkpt>
      <trkpt lat="44.37703" lon="5.51469">
        <ele>721</ele>
        <time>2019-06-07T08:27:07Z</time>
      </trkpt>
      <trkpt lat="44.37702" lon="5.51468">
        <ele>721</ele>
        <time>2019-06-07T08:27:08Z</time>
      </trkpt>
      <trkpt lat="44.37701" lon="5.51467">
        <ele>721</ele>
        <time>2019-06-07T08:27:10Z</time>
      </trkpt>
      <trkpt lat="44.37699" lon="5.51465">
        <ele>721</ele>
        <time>2019-06-07T08:27:12Z</time>
      </trkpt>
      <trkpt lat="44.37698" lon="5.51464">
        <ele>723</ele>
        <time>2019-06-07T08:27:16Z</time>
      </trkpt>
      <trkpt lat="44.37697" lon="5.51462">
        <ele>724</ele>
        <time>2019-06-07T08:27:21Z</time>
      </trkpt>
      <trkpt lat="44.37696" lon="5.51461">
        <ele>725</ele>
        <time>2019-06-07T08:27:29Z</time>
      </trkpt>
      <trkpt lat="44.37695" lon="5.5146">
        <ele>726</ele>
        <time>2019-06-07T08:27:46Z</time>
      </trkpt>
      <trkpt lat="44.37695" lon="5.51459">
        <ele>728</ele>
        <time>2019-06-07T08:28:00Z</time>
      </trkpt>
      <trkpt lat="44.37695" lon="5.51457">
        <ele>729</ele>
        <time>2019-06-07T08:28:15Z</time>
      </trkpt>
      <trkpt lat="44.37694" lon="5.51457">
        <ele>731</ele>
        <time>2019-06-07T08:28:50Z</time>
      </trkpt>
      <trkpt lat="44.37694" lon="5.51455">
        <ele>734</ele>
        <time>2019-06-07T08:29:01Z</time>
      </trkpt>
      <trkpt lat="44.37693" lon="5.51454">
        <ele>736</ele>
        <time>2019-06-07T08:29:09Z</time>
      </trkpt>
      <trkpt lat="44.37692" lon="5.51452">
        <ele>739</ele>
        <time>2019-06-07T08:29:16Z</time>
      </trkpt>
      <trkpt lat="44.37694" lon="5.51453">
        <ele>740</ele>
        <time>2019-06-07T08:29:25Z</time>
      </trkpt>
      <trkpt lat="44.37694" lon="5.51454">
        <ele>740</ele>
        <time>2019-06-07T08:29:36Z</time>
      </trkpt>
      <trkpt lat="44.37695" lon="5.51456">
        <ele>740</ele>
        <time>2019-06-07T08:29:40Z</time>
      </trkpt>
      <trkpt lat="44.37695" lon="5.51458">
        <ele>739</ele>
        <time>2019-06-07T08:29:54Z</time>
      </trkpt>
      <trkpt lat="44.37693" lon="5.51458">
        <ele>738</ele>
        <time>2019-06-07T08:30:04Z</time>
      </trkpt>
      <trkpt lat="44.37692" lon="5.51457">
        <ele>736</ele>
        <time>2019-06-07T08:30:10Z</time>
      </trkpt>
      <trkpt lat="44.37691" lon="5.51456">
        <ele>736</ele>
        <time>2019-06-07T08:30:16Z</time>
      </trkpt>
      <trkpt lat="44.37691" lon="5.51454">
        <ele>736</ele>
        <time>2019-06-07T08:30:27Z</time>
      </trkpt>
      <trkpt lat="44.37691" lon="5.51456">
        <ele>737</ele>
        <time>2019-06-07T08:30:51Z</time>
      </trkpt>
      <trkpt lat="44.37691" lon="5.51457">
        <ele>737</ele>
        <time>2019-06-07T08:30:56Z</time>
      </trkpt>
      <trkpt lat="44.37691" lon="5.51459">
        <ele>737</ele>
        <time>2019-06-07T08:31:04Z</time>
      </trkpt>
      <trkpt lat="44.37692" lon="5.5146">
        <ele>737</ele>
        <time>2019-06-07T08:31:08Z</time>
      </trkpt>
      <trkpt lat="44.37693" lon="5.5146">
        <ele>737</ele>
        <time>2019-06-07T08:31:17Z</time>
      </trkpt>
      <trkpt lat="44.37695" lon="5.5146">
        <ele>737</ele>
        <time>2019-06-07T08:31:20Z</time>
      </trkpt>
      <trkpt lat="44.37696" lon="5.5146">
        <ele>737</ele>
        <time>2019-06-07T08:31:24Z</time>
      </trkpt>
      <trkpt lat="44.37697" lon="5.51461">
        <ele>735</ele>
        <time>2019-06-07T08:31:34Z</time>
      </trkpt>
      <trkpt lat="44.37698" lon="5.51459">
        <ele>733</ele>
        <time>2019-06-07T08:31:40Z</time>
      </trkpt>
      <trkpt lat="44.37699" lon="5.51459">
        <ele>733</ele>
        <time>2019-06-07T08:31:42Z</time>
      </trkpt>
      <trkpt lat="44.37697" lon="5.51458">
        <ele>733</ele>
        <time>2019-06-07T08:31:44Z</time>
      </trkpt>
      <trkpt lat="44.37698" lon="5.51456">
        <ele>733</ele>
        <time>2019-06-07T08:31:46Z</time>
      </trkpt>
      <trkpt lat="44.377" lon="5.51457">
        <ele>733</ele>
        <time>2019-06-07T08:31:51Z</time>
      </trkpt>
      <trkpt lat="44.37701" lon="5.51459">
        <ele>733</ele>
        <time>2019-06-07T08:31:53Z</time>
      </trkpt>
      <trkpt lat="44.37703" lon="5.5146">
        <ele>733</ele>
        <time>2019-06-07T08:31:55Z</time>
      </trkpt>
      <trkpt lat="44.37704" lon="5.51461">
        <ele>733</ele>
        <time>2019-06-07T08:31:56Z</time>
      </trkpt>
      <trkpt lat="44.37705" lon="5.51462">
        <ele>733</ele>
        <time>2019-06-07T08:31:57Z</time>
      </trkpt>
      <trkpt lat="44.37707" lon="5.51465">
        <ele>733</ele>
        <time>2019-06-07T08:31:59Z</time>
      </trkpt>
      <trkpt lat="44.37708" lon="5.51467">
        <ele>733</ele>
        <time>2019-06-07T08:32:00Z</time>
      </trkpt>
      <trkpt lat="44.37709" lon="5.51469">
        <ele>733</ele>
        <time>2019-06-07T08:32:01Z</time>
      </trkpt>
      <trkpt lat="44.3771" lon="5.51471">
        <ele>733</ele>
        <time>2019-06-07T08:32:02Z</time>
      </trkpt>
      <trkpt lat="44.37712" lon="5.51473">
        <ele>733</ele>
        <time>2019-06-07T08:32:03Z</time>
      </trkpt>
      <trkpt lat="44.37714" lon="5.51475">
        <ele>733</ele>
        <time>2019-06-07T08:32:04Z</time>
      </trkpt>
      <trkpt lat="44.37716" lon="5.51477">
        <ele>733</ele>
        <time>2019-06-07T08:32:05Z</time>
      </trkpt>
      <trkpt lat="44.37719" lon="5.51479">
        <ele>733</ele>
        <time>2019-06-07T08:32:06Z</time>
      </trkpt>
      <trkpt lat="44.37721" lon="5.51482">
        <ele>733</ele>
        <time>2019-06-07T08:32:07Z</time>
      </trkpt>
      <trkpt lat="44.37724" lon="5.51485">
        <ele>733</ele>
        <time>2019-06-07T08:32:08Z</time>
      </trkpt>
      <trkpt lat="44.37726" lon="5.51487">
        <ele>733</ele>
        <time>2019-06-07T08:32:09Z</time>
      </trkpt>
      <trkpt lat="44.37728" lon="5.5149">
        <ele>733</ele>
        <time>2019-06-07T08:32:10Z</time>
      </trkpt>
      <trkpt lat="44.37731" lon="5.51493">
        <ele>733</ele>
        <time>2019-06-07T08:32:11Z</time>
      </trkpt>
      <trkpt lat="44.37733" lon="5.51496">
        <ele>733</ele>
        <time>2019-06-07T08:32:12Z</time>
      </trkpt>
      <trkpt lat="44.37736" lon="5.51499">
        <ele>733</ele>
        <time>2019-06-07T08:32:13Z</time>
      </trkpt>
      <trkpt lat="44.37739" lon="5.51501">
        <ele>733</ele>
        <time>2019-06-07T08:32:14Z</time>
      </trkpt>
      <trkpt lat="44.37742" lon="5.51503">
        <ele>733</ele>
        <time>2019-06-07T08:32:15Z</time>
      </trkpt>
      <trkpt lat="44.37745" lon="5.51506">
        <ele>733</ele>
        <time>2019-06-07T08:32:16Z</time>
      </trkpt>
      <trkpt lat="44.37747" lon="5.51508">
        <ele>733</ele>
        <time>2019-06-07T08:32:17Z</time>
      </trkpt>
      <trkpt lat="44.3775" lon="5.51511">
        <ele>733</ele>
        <time>2019-06-07T08:32:18Z</time>
      </trkpt>
      <trkpt lat="44.37753" lon="5.51514">
        <ele>733</ele>
        <time>2019-06-07T08:32:19Z</time>
      </trkpt>
      <trkpt lat="44.37756" lon="5.51517">
        <ele>733</ele>
        <time>2019-06-07T08:32:20Z</time>
      </trkpt>
      <trkpt lat="44.37759" lon="5.5152">
        <ele>733</ele>
        <time>2019-06-07T08:32:21Z</time>
      </trkpt>
      <trkpt lat="44.37762" lon="5.51522">
        <ele>733</ele>
        <time>2019-06-07T08:32:22Z</time>
      </trkpt>
      <trkpt lat="44.37766" lon="5.51525">
        <ele>733</ele>
        <time>2019-06-07T08:32:23Z</time>
      </trkpt>
      <trkpt lat="44.37769" lon="5.51528">
        <ele>733</ele>
        <time>2019-06-07T08:32:24Z</time>
      </trkpt>
      <trkpt lat="44.37772" lon="5.51531">
        <ele>733</ele>
        <time>2019-06-07T08:32:25Z</time>
      </trkpt>
      <trkpt lat="44.37774" lon="5.51536">
        <ele>733</ele>
        <time>2019-06-07T08:32:26Z</time>
      </trkpt>
      <trkpt lat="44.37775" lon="5.51541">
        <ele>733</ele>
        <time>2019-06-07T08:32:27Z</time>
      </trkpt>
      <trkpt lat="44.37776" lon="5.51547">
        <ele>733</ele>
        <time>2019-06-07T08:32:28Z</time>
      </trkpt>
      <trkpt lat="44.37776" lon="5.51552">
        <ele>733</ele>
        <time>2019-06-07T08:32:29Z</time>
      </trkpt>
      <trkpt lat="44.37775" lon="5.51558">
        <ele>733</ele>
        <time>2019-06-07T08:32:30Z</time>
      </trkpt>
      <trkpt lat="44.37773" lon="5.51563">
        <ele>733</ele>
        <time>2019-06-07T08:32:31Z</time>
      </trkpt>
      <trkpt lat="44.37772" lon="5.51569">
        <ele>733</ele>
        <time>2019-06-07T08:32:32Z</time>
      </trkpt>
      <trkpt lat="44.3777" lon="5.51574">
        <ele>733</ele>
        <time>2019-06-07T08:32:33Z</time>
      </trkpt>
      <trkpt lat="44.37769" lon="5.5158">
        <ele>733</ele>
        <time>2019-06-07T08:32:34Z</time>
      </trkpt>
      <trkpt lat="44.37768" lon="5.51585">
        <ele>733</ele>
        <time>2019-06-07T08:32:35Z</time>
      </trkpt>
      <trkpt lat="44.37767" lon="5.51591">
        <ele>733</ele>
        <time>2019-06-07T08:32:36Z</time>
      </trkpt>
      <trkpt lat="44.37765" lon="5.51596">
        <ele>733</ele>
        <time>2019-06-07T08:32:37Z</time>
      </trkpt>
      <trkpt lat="44.37764" lon="5.51602">
        <ele>733</ele>
        <time>2019-06-07T08:32:38Z</time>
      </trkpt>
      <trkpt lat="44.37763" lon="5.51608">
        <ele>733</ele>
        <time>2019-06-07T08:32:39Z</time>
      </trkpt>
      <trkpt lat="44.37761" lon="5.51613">
        <ele>733</ele>
        <time>2019-06-07T08:32:40Z</time>
      </trkpt>
      <trkpt lat="44.37759" lon="5.51619">
        <ele>733</ele>
        <time>2019-06-07T08:32:41Z</time>
      </trkpt>
      <trkpt lat="44.37757" lon="5.51625">
        <ele>733</ele>
        <time>2019-06-07T08:32:42Z</time>
      </trkpt>
      <trkpt lat="44.37754" lon="5.5163">
        <ele>733</ele>
        <time>2019-06-07T08:32:43Z</time>
      </trkpt>
      <trkpt lat="44.37752" lon="5.51635">
        <ele>733</ele>
        <time>2019-06-07T08:32:44Z</time>
      </trkpt>
      <trkpt lat="44.37749" lon="5.51641">
        <ele>733</ele>
        <time>2019-06-07T08:32:45Z</time>
      </trkpt>
      <trkpt lat="44.37747" lon="5.51645">
        <ele>733</ele>
        <time>2019-06-07T08:32:46Z</time>
      </trkpt>
      <trkpt lat="44.37744" lon="5.5165">
        <ele>733</ele>
        <time>2019-06-07T08:32:47Z</time>
      </trkpt>
      <trkpt lat="44.37741" lon="5.51654">
        <ele>733</ele>
        <time>2019-06-07T08:32:48Z</time>
      </trkpt>
      <trkpt lat="44.37739" lon="5.51658">
        <ele>733</ele>
        <time>2019-06-07T08:32:49Z</time>
      </trkpt>
      <trkpt lat="44.37737" lon="5.51662">
        <ele>733</ele>
        <time>2019-06-07T08:32:50Z</time>
      </trkpt>
      <trkpt lat="44.37736" lon="5.51666">
        <ele>733</ele>
        <time>2019-06-07T08:32:51Z</time>
      </trkpt>
      <trkpt lat="44.37735" lon="5.5167">
        <ele>733</ele>
        <time>2019-06-07T08:32:52Z</time>
      </trkpt>
      <trkpt lat="44.37735" lon="5.51675">
        <ele>733</ele>
        <time>2019-06-07T08:32:53Z</time>
      </trkpt>
      <trkpt lat="44.37735" lon="5.51679">
        <ele>733</ele>
        <time>2019-06-07T08:32:54Z</time>
      </trkpt>
      <trkpt lat="44.37736" lon="5.51684">
        <ele>733</ele>
        <time>2019-06-07T08:32:55Z</time>
      </trkpt>
      <trkpt lat="44.37736" lon="5.51688">
        <ele>734</ele>
        <time>2019-06-07T08:32:56Z</time>
      </trkpt>
      <trkpt lat="44.37737" lon="5.51692">
        <ele>734</ele>
        <time>2019-06-07T08:32:57Z</time>
      </trkpt>
      <trkpt lat="44.37738" lon="5.51696">
        <ele>735</ele>
        <time>2019-06-07T08:32:58Z</time>
      </trkpt>
      <trkpt lat="44.37739" lon="5.517">
        <ele>736</ele>
        <time>2019-06-07T08:32:59Z</time>
      </trkpt>
      <trkpt lat="44.3774" lon="5.51704">
        <ele>737</ele>
        <time>2019-06-07T08:33:00Z</time>
      </trkpt>
      <trkpt lat="44.37741" lon="5.51709">
        <ele>737</ele>
        <time>2019-06-07T08:33:01Z</time>
      </trkpt>
      <trkpt lat="44.37742" lon="5.51713">
        <ele>737</ele>
        <time>2019-06-07T08:33:02Z</time>
      </trkpt>
      <trkpt lat="44.37743" lon="5.51717">
        <ele>738</ele>
        <time>2019-06-07T08:33:03Z</time>
      </trkpt>
      <trkpt lat="44.37743" lon="5.51721">
        <ele>738</ele>
        <time>2019-06-07T08:33:04Z</time>
      </trkpt>
      <trkpt lat="44.37745" lon="5.51725">
        <ele>738</ele>
        <time>2019-06-07T08:33:05Z</time>
      </trkpt>
      <trkpt lat="44.37746" lon="5.51729">
        <ele>738</ele>
        <time>2019-06-07T08:33:06Z</time>
      </trkpt>
      <trkpt lat="44.37748" lon="5.51732">
        <ele>739</ele>
        <time>2019-06-07T08:33:07Z</time>
      </trkpt>
      <trkpt lat="44.3775" lon="5.51736">
        <ele>739</ele>
        <time>2019-06-07T08:33:08Z</time>
      </trkpt>
      <trkpt lat="44.37752" lon="5.51741">
        <ele>739</ele>
        <time>2019-06-07T08:33:09Z</time>
      </trkpt>
      <trkpt lat="44.37754" lon="5.51745">
        <ele>739</ele>
        <time>2019-06-07T08:33:10Z</time>
      </trkpt>
      <trkpt lat="44.37756" lon="5.51748">
        <ele>739</ele>
        <time>2019-06-07T08:33:11Z</time>
      </trkpt>
      <trkpt lat="44.37758" lon="5.51752">
        <ele>739</ele>
        <time>2019-06-07T08:33:12Z</time>
      </trkpt>
      <trkpt lat="44.37761" lon="5.51756">
        <ele>739</ele>
        <time>2019-06-07T08:33:13Z</time>
      </trkpt>
      <trkpt lat="44.37763" lon="5.51759">
        <ele>740</ele>
        <time>2019-06-07T08:33:14Z</time>
      </trkpt>
      <trkpt lat="44.37765" lon="5.51763">
        <ele>740</ele>
        <time>2019-06-07T08:33:15Z</time>
      </trkpt>
      <trkpt lat="44.37767" lon="5.51768">
        <ele>740</ele>
        <time>2019-06-07T08:33:16Z</time>
      </trkpt>
      <trkpt lat="44.37769" lon="5.51772">
        <ele>740</ele>
        <time>2019-06-07T08:33:17Z</time>
      </trkpt>
      <trkpt lat="44.37771" lon="5.51777">
        <ele>740</ele>
        <time>2019-06-07T08:33:18Z</time>
      </trkpt>
      <trkpt lat="44.37772" lon="5.51783">
        <ele>740</ele>
        <time>2019-06-07T08:33:19Z</time>
      </trkpt>
      <trkpt lat="44.37774" lon="5.51788">
        <ele>740</ele>
        <time>2019-06-07T08:33:20Z</time>
      </trkpt>
      <trkpt lat="44.37775" lon="5.51793">
        <ele>740</ele>
        <time>2019-06-07T08:33:21Z</time>
      </trkpt>
      <trkpt lat="44.37776" lon="5.51798">
        <ele>740</ele>
        <time>2019-06-07T08:33:22Z</time>
      </trkpt>
      <trkpt lat="44.37777" lon="5.51803">
        <ele>740</ele>
        <time>2019-06-07T08:33:23Z</time>
      </trkpt>
      <trkpt lat="44.37777" lon="5.51809">
        <ele>740</ele>
        <time>2019-06-07T08:33:24Z</time>
      </trkpt>
      <trkpt lat="44.37778" lon="5.51814">
        <ele>740</ele>
        <time>2019-06-07T08:33:25Z</time>
      </trkpt>
      <trkpt lat="44.37778" lon="5.51819">
        <ele>740</ele>
        <time>2019-06-07T08:33:26Z</time>
      </trkpt>
      <trkpt lat="44.37779" lon="5.51825">
        <ele>740</ele>
        <time>2019-06-07T08:33:27Z</time>
      </trkpt>
      <trkpt lat="44.37779" lon="5.5183">
        <ele>741</ele>
        <time>2019-06-07T08:33:28Z</time>
      </trkpt>
      <trkpt lat="44.37779" lon="5.51836">
        <ele>741</ele>
        <time>2019-06-07T08:33:29Z</time>
      </trkpt>
      <trkpt lat="44.37778" lon="5.51841">
        <ele>741</ele>
        <time>2019-06-07T08:33:30Z</time>
      </trkpt>
      <trkpt lat="44.37778" lon="5.51846">
        <ele>741</ele>
        <time>2019-06-07T08:33:31Z</time>
      </trkpt>
      <trkpt lat="44.37777" lon="5.51851">
        <ele>741</ele>
        <time>2019-06-07T08:33:32Z</time>
      </trkpt>
      <trkpt lat="44.37777" lon="5.51856">
        <ele>741</ele>
        <time>2019-06-07T08:33:33Z</time>
      </trkpt>
      <trkpt lat="44.37776" lon="5.51861">
        <ele>741</ele>
        <time>2019-06-07T08:33:34Z</time>
      </trkpt>
      <trkpt lat="44.37775" lon="5.51866">
        <ele>741</ele>
        <time>2019-06-07T08:33:35Z</time>
      </trkpt>
      <trkpt lat="44.37774" lon="5.51871">
        <ele>741</ele>
        <time>2019-06-07T08:33:36Z</time>
      </trkpt>
      <trkpt lat="44.37773" lon="5.51876">
        <ele>741</ele>
        <time>2019-06-07T08:33:37Z</time>
      </trkpt>
      <trkpt lat="44.37772" lon="5.51881">
        <ele>741</ele>
        <time>2019-06-07T08:33:38Z</time>
      </trkpt>
      <trkpt lat="44.37772" lon="5.51885">
        <ele>741</ele>
        <time>2019-06-07T08:33:39Z</time>
      </trkpt>
      <trkpt lat="44.37772" lon="5.5189">
        <ele>741</ele>
        <time>2019-06-07T08:33:40Z</time>
      </trkpt>
      <trkpt lat="44.37772" lon="5.51894">
        <ele>741</ele>
        <time>2019-06-07T08:33:41Z</time>
      </trkpt>
      <trkpt lat="44.37771" lon="5.51898">
        <ele>741</ele>
        <time>2019-06-07T08:33:42Z</time>
      </trkpt>
      <trkpt lat="44.37771" lon="5.51903">
        <ele>742</ele>
        <time>2019-06-07T08:33:43Z</time>
      </trkpt>
      <trkpt lat="44.37771" lon="5.51907">
        <ele>742</ele>
        <time>2019-06-07T08:33:44Z</time>
      </trkpt>
      <trkpt lat="44.3777" lon="5.51911">
        <ele>742</ele>
        <time>2019-06-07T08:33:45Z</time>
      </trkpt>
      <trkpt lat="44.3777" lon="5.51915">
        <ele>742</ele>
        <time>2019-06-07T08:33:46Z</time>
      </trkpt>
      <trkpt lat="44.3777" lon="5.5192">
        <ele>743</ele>
        <time>2019-06-07T08:33:47Z</time>
      </trkpt>
      <trkpt lat="44.37769" lon="5.51924">
        <ele>743</ele>
        <time>2019-06-07T08:33:48Z</time>
      </trkpt>
      <trkpt lat="44.37769" lon="5.51928">
        <ele>743</ele>
        <time>2019-06-07T08:33:49Z</time>
      </trkpt>
      <trkpt lat="44.37768" lon="5.51932">
        <ele>743</ele>
        <time>2019-06-07T08:33:50Z</time>
      </trkpt>
      <trkpt lat="44.37768" lon="5.51936">
        <ele>743</ele>
        <time>2019-06-07T08:33:51Z</time>
      </trkpt>
      <trkpt lat="44.37767" lon="5.51939">
        <ele>743</ele>
        <time>2019-06-07T08:33:52Z</time>
      </trkpt>
      <trkpt lat="44.37766" lon="5.51942">
        <ele>743</ele>
        <time>2019-06-07T08:33:53Z</time>
      </trkpt>
      <trkpt lat="44.37766" lon="5.51945">
        <ele>743</ele>
        <time>2019-06-07T08:33:54Z</time>
      </trkpt>
      <trkpt lat="44.37765" lon="5.51949">
        <ele>743</ele>
        <time>2019-06-07T08:33:55Z</time>
      </trkpt>
      <trkpt lat="44.37764" lon="5.51953">
        <ele>743</ele>
        <time>2019-06-07T08:33:56Z</time>
      </trkpt>
      <trkpt lat="44.37764" lon="5.51957">
        <ele>743</ele>
        <time>2019-06-07T08:33:57Z</time>
      </trkpt>
      <trkpt lat="44.37762" lon="5.5196">
        <ele>743</ele>
        <time>2019-06-07T08:33:58Z</time>
      </trkpt>
      <trkpt lat="44.37762" lon="5.51964">
        <ele>743</ele>
        <time>2019-06-07T08:33:59Z</time>
      </trkpt>
      <trkpt lat="44.37761" lon="5.51967">
        <ele>743</ele>
        <time>2019-06-07T08:34:00Z</time>
      </trkpt>
      <trkpt lat="44.3776" lon="5.5197">
        <ele>743</ele>
        <time>2019-06-07T08:34:01Z</time>
      </trkpt>
      <trkpt lat="44.37759" lon="5.51974">
        <ele>743</ele>
        <time>2019-06-07T08:34:02Z</time>
      </trkpt>
      <trkpt lat="44.37759" lon="5.51978">
        <ele>743</ele>
        <time>2019-06-07T08:34:03Z</time>
      </trkpt>
      <trkpt lat="44.37759" lon="5.51982">
        <ele>743</ele>
        <time>2019-06-07T08:34:04Z</time>
      </trkpt>
      <trkpt lat="44.3776" lon="5.51986">
        <ele>743</ele>
        <time>2019-06-07T08:34:05Z</time>
      </trkpt>
      <trkpt lat="44.37762" lon="5.5199">
        <ele>743</ele>
        <time>2019-06-07T08:34:06Z</time>
      </trkpt>
      <trkpt lat="44.37764" lon="5.51994">
        <ele>743</ele>
        <time>2019-06-07T08:34:07Z</time>
      </trkpt>
      <trkpt lat="44.37766" lon="5.51996">
        <ele>743</ele>
        <time>2019-06-07T08:34:08Z</time>
      </trkpt>
      <trkpt lat="44.37769" lon="5.51997">
        <ele>743</ele>
        <time>2019-06-07T08:34:09Z</time>
      </trkpt>
      <trkpt lat="44.37771" lon="5.51997">
        <ele>743</ele>
        <time>2019-06-07T08:34:10Z</time>
      </trkpt>
      <trkpt lat="44.37773" lon="5.51996">
        <ele>743</ele>
        <time>2019-06-07T08:34:11Z</time>
      </trkpt>
      <trkpt lat="44.37775" lon="5.51995">
        <ele>744</ele>
        <time>2019-06-07T08:34:12Z</time>
      </trkpt>
      <trkpt lat="44.37776" lon="5.51993">
        <ele>745</ele>
        <time>2019-06-07T08:34:13Z</time>
      </trkpt>
      <trkpt lat="44.37779" lon="5.51992">
        <ele>745</ele>
        <time>2019-06-07T08:34:14Z</time>
      </trkpt>
      <trkpt lat="44.37781" lon="5.51989">
        <ele>746</ele>
        <time>2019-06-07T08:34:15Z</time>
      </trkpt>
      <trkpt lat="44.37783" lon="5.51987">
        <ele>747</ele>
        <time>2019-06-07T08:34:16Z</time>
      </trkpt>
      <trkpt lat="44.37786" lon="5.51985">
        <ele>747</ele>
        <time>2019-06-07T08:34:17Z</time>
      </trkpt>
      <trkpt lat="44.37788" lon="5.51984">
        <ele>748</ele>
        <time>2019-06-07T08:34:18Z</time>
      </trkpt>
      <trkpt lat="44.37791" lon="5.51982">
        <ele>748</ele>
        <time>2019-06-07T08:34:19Z</time>
      </trkpt>
      <trkpt lat="44.37793" lon="5.5198">
        <ele>749</ele>
        <time>2019-06-07T08:34:20Z</time>
      </trkpt>
      <trkpt lat="44.37796" lon="5.51978">
        <ele>750</ele>
        <time>2019-06-07T08:34:21Z</time>
      </trkpt>
      <trkpt lat="44.37798" lon="5.51976">
        <ele>750</ele>
        <time>2019-06-07T08:34:22Z</time>
      </trkpt>
      <trkpt lat="44.37801" lon="5.51974">
        <ele>751</ele>
        <time>2019-06-07T08:34:23Z</time>
      </trkpt>
      <trkpt lat="44.37803" lon="5.51972">
        <ele>752</ele>
        <time>2019-06-07T08:34:24Z</time>
      </trkpt>
      <trkpt lat="44.37805" lon="5.51971">
        <ele>752</ele>
        <time>2019-06-07T08:34:25Z</time>
      </trkpt>
      <trkpt lat="44.37807" lon="5.51969">
        <ele>753</ele>
        <time>2019-06-07T08:34:26Z</time>
      </trkpt>
      <trkpt lat="44.37809" lon="5.51968">
        <ele>753</ele>
        <time>2019-06-07T08:34:27Z</time>
      </trkpt>
      <trkpt lat="44.37811" lon="5.51966">
        <ele>754</ele>
        <time>2019-06-07T08:34:28Z</time>
      </trkpt>
      <trkpt lat="44.37812" lon="5.51965">
        <ele>754</ele>
        <time>2019-06-07T08:34:29Z</time>
      </trkpt>
      <trkpt lat="44.37814" lon="5.51964">
        <ele>754</ele>
        <time>2019-06-07T08:34:30Z</time>
      </trkpt>
      <trkpt lat="44.37816" lon="5.51963">
        <ele>755</ele>
        <time>2019-06-07T08:34:31Z</time>
      </trkpt>
      <trkpt lat="44.37818" lon="5.51963">
        <ele>755</ele>
        <time>2019-06-07T08:34:32Z</time>
      </trkpt>
      <trkpt lat="44.3782" lon="5.51962">
        <ele>755</ele>
        <time>2019-06-07T08:34:33Z</time>
      </trkpt>
      <trkpt lat="44.37822" lon="5.51961">
        <ele>755</ele>
        <time>2019-06-07T08:34:34Z</time>
      </trkpt>
      <trkpt lat="44.37823" lon="5.5196">
        <ele>755</ele>
        <time>2019-06-07T08:34:35Z</time>
      </trkpt>
      <trkpt lat="44.37825" lon="5.51959">
        <ele>755</ele>
        <time>2019-06-07T08:34:36Z</time>
      </trkpt>
      <trkpt lat="44.37827" lon="5.51958">
        <ele>755</ele>
        <time>2019-06-07T08:34:37Z</time>
      </trkpt>
      <trkpt lat="44.37828" lon="5.51957">
        <ele>755</ele>
        <time>2019-06-07T08:34:38Z</time>
      </trkpt>
      <trkpt lat="44.3783" lon="5.51956">
        <ele>755</ele>
        <time>2019-06-07T08:34:39Z</time>
      </trkpt>
      <trkpt lat="44.37832" lon="5.51956">
        <ele>755</ele>
        <time>2019-06-07T08:34:40Z</time>
      </trkpt>
      <trkpt lat="44.37835" lon="5.51955">
        <ele>755</ele>
        <time>2019-06-07T08:34:41Z</time>
      </trkpt>
      <trkpt lat="44.37837" lon="5.51955">
        <ele>755</ele>
        <time>2019-06-07T08:34:42Z</time>
      </trkpt>
      <trkpt lat="44.3784" lon="5.51955">
        <ele>755</ele>
        <time>2019-06-07T08:34:43Z</time>
      </trkpt>
      <trkpt lat="44.37843" lon="5.51955">
        <ele>755</ele>
        <time>2019-06-07T08:34:44Z</time>
      </trkpt>
      <trkpt lat="44.37845" lon="5.51955">
        <ele>755</ele>
        <time>2019-06-07T08:34:45Z</time>
      </trkpt>
      <trkpt lat="44.37848" lon="5.51954">
        <ele>755</ele>
        <time>2019-06-07T08:34:46Z</time>
      </trkpt>
      <trkpt lat="44.3785" lon="5.51954">
        <ele>755</ele>
        <time>2019-06-07T08:34:47Z</time>
      </trkpt>
      <trkpt lat="44.37852" lon="5.51954">
        <ele>755</ele>
        <time>2019-06-07T08:34:48Z</time>
      </trkpt>
      <trkpt lat="44.37855" lon="5.51953">
        <ele>755</ele>
        <time>2019-06-07T08:34:49Z</time>
      </trkpt>
      <trkpt lat="44.37857" lon="5.51953">
        <ele>755</ele>
        <time>2019-06-07T08:34:50Z</time>
      </trkpt>
      <trkpt lat="44.3786" lon="5.51953">
        <ele>755</ele>
        <time>2019-06-07T08:34:51Z</time>
      </trkpt>
      <trkpt lat="44.37862" lon="5.51952">
        <ele>755</ele>
        <time>2019-06-07T08:34:52Z</time>
      </trkpt>
      <trkpt lat="44.37865" lon="5.51952">
        <ele>755</ele>
        <time>2019-06-07T08:34:53Z</time>
      </trkpt>
      <trkpt lat="44.37867" lon="5.51952">
        <ele>755</ele>
        <time>2019-06-07T08:34:54Z</time>
      </trkpt>
      <trkpt lat="44.37869" lon="5.51951">
        <ele>755</ele>
        <time>2019-06-07T08:34:55Z</time>
      </trkpt>
      <trkpt lat="44.37872" lon="5.5195">
        <ele>755</ele>
        <time>2019-06-07T08:34:56Z</time>
      </trkpt>
      <trkpt lat="44.37874" lon="5.5195">
        <ele>756</ele>
        <time>2019-06-07T08:34:57Z</time>
      </trkpt>
      <trkpt lat="44.37877" lon="5.51949">
        <ele>756</ele>
        <time>2019-06-07T08:34:58Z</time>
      </trkpt>
      <trkpt lat="44.37879" lon="5.51949">
        <ele>756</ele>
        <time>2019-06-07T08:34:59Z</time>
      </trkpt>
      <trkpt lat="44.37881" lon="5.51949">
        <ele>756</ele>
        <time>2019-06-07T08:35:00Z</time>
      </trkpt>
      <trkpt lat="44.37884" lon="5.51949">
        <ele>757</ele>
        <time>2019-06-07T08:35:01Z</time>
      </trkpt>
      <trkpt lat="44.37886" lon="5.51948">
        <ele>757</ele>
        <time>2019-06-07T08:35:02Z</time>
      </trkpt>
      <trkpt lat="44.37888" lon="5.51947">
        <ele>757</ele>
        <time>2019-06-07T08:35:03Z</time>
      </trkpt>
      <trkpt lat="44.37891" lon="5.51946">
        <ele>757</ele>
        <time>2019-06-07T08:35:04Z</time>
      </trkpt>
      <trkpt lat="44.37893" lon="5.51946">
        <ele>758</ele>
        <time>2019-06-07T08:35:05Z</time>
      </trkpt>
      <trkpt lat="44.37895" lon="5.51946">
        <ele>758</ele>
        <time>2019-06-07T08:35:06Z</time>
      </trkpt>
      <trkpt lat="44.37898" lon="5.51945">
        <ele>758</ele>
        <time>2019-06-07T08:35:07Z</time>
      </trkpt>
      <trkpt lat="44.379" lon="5.51945">
        <ele>758</ele>
        <time>2019-06-07T08:35:08Z</time>
      </trkpt>
      <trkpt lat="44.37903" lon="5.51945">
        <ele>759</ele>
        <time>2019-06-07T08:35:09Z</time>
      </trkpt>
      <trkpt lat="44.37905" lon="5.51944">
        <ele>759</ele>
        <time>2019-06-07T08:35:10Z</time>
      </trkpt>
      <trkpt lat="44.37907" lon="5.51944">
        <ele>759</ele>
        <time>2019-06-07T08:35:11Z</time>
      </trkpt>
      <trkpt lat="44.3791" lon="5.51944">
        <ele>759</ele>
        <time>2019-06-07T08:35:12Z</time>
      </trkpt>
      <trkpt lat="44.37912" lon="5.51943">
        <ele>760</ele>
        <time>2019-06-07T08:35:13Z</time>
      </trkpt>
      <trkpt lat="44.37914" lon="5.51943">
        <ele>760</ele>
        <time>2019-06-07T08:35:14Z</time>
      </trkpt>
      <trkpt lat="44.37916" lon="5.51942">
        <ele>760</ele>
        <time>2019-06-07T08:35:15Z</time>
      </trkpt>
      <trkpt lat="44.37918" lon="5.51941">
        <ele>761</ele>
        <time>2019-06-07T08:35:16Z</time>
      </trkpt>
      <trkpt lat="44.3792" lon="5.51941">
        <ele>761</ele>
        <time>2019-06-07T08:35:17Z</time>
      </trkpt>
      <trkpt lat="44.37923" lon="5.51941">
        <ele>761</ele>
        <time>2019-06-07T08:35:18Z</time>
      </trkpt>
      <trkpt lat="44.37925" lon="5.5194">
        <ele>762</ele>
        <time>2019-06-07T08:35:19Z</time>
      </trkpt>
      <trkpt lat="44.37927" lon="5.5194">
        <ele>762</ele>
        <time>2019-06-07T08:35:20Z</time>
      </trkpt>
      <trkpt lat="44.37929" lon="5.5194">
        <ele>762</ele>
        <time>2019-06-07T08:35:21Z</time>
      </trkpt>
      <trkpt lat="44.37931" lon="5.51939">
        <ele>763</ele>
        <time>2019-06-07T08:35:22Z</time>
      </trkpt>
      <trkpt lat="44.37934" lon="5.51939">
        <ele>763</ele>
        <time>2019-06-07T08:35:23Z</time>
      </trkpt>
      <trkpt lat="44.37936" lon="5.51938">
        <ele>763</ele>
        <time>2019-06-07T08:35:24Z</time>
      </trkpt>
      <trkpt lat="44.37938" lon="5.51938">
        <ele>763</ele>
        <time>2019-06-07T08:35:25Z</time>
      </trkpt>
      <trkpt lat="44.3794" lon="5.51937">
        <ele>764</ele>
        <time>2019-06-07T08:35:26Z</time>
      </trkpt>
      <trkpt lat="44.37942" lon="5.51937">
        <ele>764</ele>
        <time>2019-06-07T08:35:27Z</time>
      </trkpt>
      <trkpt lat="44.37944" lon="5.51937">
        <ele>764</ele>
        <time>2019-06-07T08:35:28Z</time>
      </trkpt>
      <trkpt lat="44.37946" lon="5.51936">
        <ele>764</ele>
        <time>2019-06-07T08:35:29Z</time>
      </trkpt>
      <trkpt lat="44.37949" lon="5.51935">
        <ele>764</ele>
        <time>2019-06-07T08:35:30Z</time>
      </trkpt>
      <trkpt lat="44.37951" lon="5.51935">
        <ele>765</ele>
        <time>2019-06-07T08:35:31Z</time>
      </trkpt>
      <trkpt lat="44.37953" lon="5.51935">
        <ele>765</ele>
        <time>2019-06-07T08:35:32Z</time>
      </trkpt>
      <trkpt lat="44.37955" lon="5.51934">
        <ele>765</ele>
        <time>2019-06-07T08:35:33Z</time>
      </trkpt>
      <trkpt lat="44.37957" lon="5.51933">
        <ele>765</ele>
        <time>2019-06-07T08:35:34Z</time>
      </trkpt>
      <trkpt lat="44.3796" lon="5.51933">
        <ele>766</ele>
        <time>2019-06-07T08:35:35Z</time>
      </trkpt>
      <trkpt lat="44.37962" lon="5.51932">
        <ele>766</ele>
        <time>2019-06-07T08:35:36Z</time>
      </trkpt>
      <trkpt lat="44.37964" lon="5.51932">
        <ele>766</ele>
        <time>2019-06-07T08:35:37Z</time>
      </trkpt>
      <trkpt lat="44.37966" lon="5.51931">
        <ele>766</ele>
        <time>2019-06-07T08:35:38Z</time>
      </trkpt>
      <trkpt lat="44.37969" lon="5.51931">
        <ele>767</ele>
        <time>2019-06-07T08:35:39Z</time>
      </trkpt>
      <trkpt lat="44.37971" lon="5.51931">
        <ele>767</ele>
        <time>2019-06-07T08:35:40Z</time>
      </trkpt>
      <trkpt lat="44.37973" lon="5.51931">
        <ele>767</ele>
        <time>2019-06-07T08:35:41Z</time>
      </trkpt>
      <trkpt lat="44.37975" lon="5.51931">
        <ele>767</ele>
        <time>2019-06-07T08:35:42Z</time>
      </trkpt>
      <trkpt lat="44.37977" lon="5.5193">
        <ele>768</ele>
        <time>2019-06-07T08:35:43Z</time>
      </trkpt>
      <trkpt lat="44.37979" lon="5.5193">
        <ele>768</ele>
        <time>2019-06-07T08:35:44Z</time>
      </trkpt>
      <trkpt lat="44.37981" lon="5.5193">
        <ele>768</ele>
        <time>2019-06-07T08:35:45Z</time>
      </trkpt>
      <trkpt lat="44.37983" lon="5.51931">
        <ele>768</ele>
        <time>2019-06-07T08:35:46Z</time>
      </trkpt>
      <trkpt lat="44.37985" lon="5.51931">
        <ele>768</ele>
        <time>2019-06-07T08:35:47Z</time>
      </trkpt>
      <trkpt lat="44.37987" lon="5.5193">
        <ele>769</ele>
        <time>2019-06-07T08:35:48Z</time>
      </trkpt>
      <trkpt lat="44.3799" lon="5.5193">
        <ele>769</ele>
        <time>2019-06-07T08:35:49Z</time>
      </trkpt>
      <trkpt lat="44.37992" lon="5.5193">
        <ele>769</ele>
        <time>2019-06-07T08:35:50Z</time>
      </trkpt>
      <trkpt lat="44.37994" lon="5.5193">
        <ele>769</ele>
        <time>2019-06-07T08:35:51Z</time>
      </trkpt>
      <trkpt lat="44.37997" lon="5.5193">
        <ele>769</ele>
        <time>2019-06-07T08:35:52Z</time>
      </trkpt>
      <trkpt lat="44.37999" lon="5.5193">
        <ele>770</ele>
        <time>2019-06-07T08:35:53Z</time>
      </trkpt>
      <trkpt lat="44.38001" lon="5.51929">
        <ele>770</ele>
        <time>2019-06-07T08:35:54Z</time>
      </trkpt>
      <trkpt lat="44.38003" lon="5.51929">
        <ele>770</ele>
        <time>2019-06-07T08:35:55Z</time>
      </trkpt>
      <trkpt lat="44.38005" lon="5.51929">
        <ele>770</ele>
        <time>2019-06-07T08:35:56Z</time>
      </trkpt>
      <trkpt lat="44.38008" lon="5.51929">
        <ele>770</ele>
        <time>2019-06-07T08:35:57Z</time>
      </trkpt>
      <trkpt lat="44.3801" lon="5.5193">
        <ele>770</ele>
        <time>2019-06-07T08:35:58Z</time>
      </trkpt>
      <trkpt lat="44.38013" lon="5.51929">
        <ele>770</ele>
        <time>2019-06-07T08:35:59Z</time>
      </trkpt>
      <trkpt lat="44.38015" lon="5.51928">
        <ele>771</ele>
        <time>2019-06-07T08:36:00Z</time>
      </trkpt>
      <trkpt lat="44.38018" lon="5.51928">
        <ele>771</ele>
        <time>2019-06-07T08:36:01Z</time>
      </trkpt>
      <trkpt lat="44.3802" lon="5.51928">
        <ele>771</ele>
        <time>2019-06-07T08:36:02Z</time>
      </trkpt>
      <trkpt lat="44.38022" lon="5.51928">
        <ele>771</ele>
        <time>2019-06-07T08:36:03Z</time>
      </trkpt>
      <trkpt lat="44.38024" lon="5.51928">
        <ele>771</ele>
        <time>2019-06-07T08:36:04Z</time>
      </trkpt>
      <trkpt lat="44.38026" lon="5.51928">
        <ele>771</ele>
        <time>2019-06-07T08:36:05Z</time>
      </trkpt>
      <trkpt lat="44.38028" lon="5.51928">
        <ele>772</ele>
        <time>2019-06-07T08:36:06Z</time>
      </trkpt>
      <trkpt lat="44.3803" lon="5.51928">
        <ele>772</ele>
        <time>2019-06-07T08:36:07Z</time>
      </trkpt>
      <trkpt lat="44.38032" lon="5.51928">
        <ele>772</ele>
        <time>2019-06-07T08:36:08Z</time>
      </trkpt>
      <trkpt lat="44.38034" lon="5.51927">
        <ele>772</ele>
        <time>2019-06-07T08:36:09Z</time>
      </trkpt>
      <trkpt lat="44.38037" lon="5.51926">
        <ele>773</ele>
        <time>2019-06-07T08:36:10Z</time>
      </trkpt>
      <trkpt lat="44.38039" lon="5.51926">
        <ele>773</ele>
        <time>2019-06-07T08:36:11Z</time>
      </trkpt>
      <trkpt lat="44.38041" lon="5.51925">
        <ele>773</ele>
        <time>2019-06-07T08:36:12Z</time>
      </trkpt>
      <trkpt lat="44.38044" lon="5.51925">
        <ele>773</ele>
        <time>2019-06-07T08:36:13Z</time>
      </trkpt>
      <trkpt lat="44.38046" lon="5.51925">
        <ele>773</ele>
        <time>2019-06-07T08:36:14Z</time>
      </trkpt>
      <trkpt lat="44.38048" lon="5.51925">
        <ele>773</ele>
        <time>2019-06-07T08:36:15Z</time>
      </trkpt>
      <trkpt lat="44.3805" lon="5.51924">
        <ele>773</ele>
        <time>2019-06-07T08:36:16Z</time>
      </trkpt>
      <trkpt lat="44.38052" lon="5.51923">
        <ele>773</ele>
        <time>2019-06-07T08:36:17Z</time>
      </trkpt>
      <trkpt lat="44.38055" lon="5.51922">
        <ele>773</ele>
        <time>2019-06-07T08:36:18Z</time>
      </trkpt>
      <trkpt lat="44.38057" lon="5.51922">
        <ele>773</ele>
        <time>2019-06-07T08:36:19Z</time>
      </trkpt>
      <trkpt lat="44.38059" lon="5.51921">
        <ele>773</ele>
        <time>2019-06-07T08:36:20Z</time>
      </trkpt>
      <trkpt lat="44.38061" lon="5.5192">
        <ele>773</ele>
        <time>2019-06-07T08:36:21Z</time>
      </trkpt>
      <trkpt lat="44.38063" lon="5.51918">
        <ele>773</ele>
        <time>2019-06-07T08:36:22Z</time>
      </trkpt>
      <trkpt lat="44.38065" lon="5.51917">
        <ele>774</ele>
        <time>2019-06-07T08:36:23Z</time>
      </trkpt>
      <trkpt lat="44.38068" lon="5.51916">
        <ele>774</ele>
        <time>2019-06-07T08:36:24Z</time>
      </trkpt>
      <trkpt lat="44.3807" lon="5.51915">
        <ele>774</ele>
        <time>2019-06-07T08:36:25Z</time>
      </trkpt>
      <trkpt lat="44.38072" lon="5.51915">
        <ele>775</ele>
        <time>2019-06-07T08:36:26Z</time>
      </trkpt>
      <trkpt lat="44.38074" lon="5.51913">
        <ele>775</ele>
        <time>2019-06-07T08:36:27Z</time>
      </trkpt>
      <trkpt lat="44.38076" lon="5.51912">
        <ele>775</ele>
        <time>2019-06-07T08:36:28Z</time>
      </trkpt>
      <trkpt lat="44.38078" lon="5.51911">
        <ele>775</ele>
        <time>2019-06-07T08:36:29Z</time>
      </trkpt>
      <trkpt lat="44.38079" lon="5.51911">
        <ele>776</ele>
        <time>2019-06-07T08:36:30Z</time>
      </trkpt>
      <trkpt lat="44.38081" lon="5.5191">
        <ele>776</ele>
        <time>2019-06-07T08:36:31Z</time>
      </trkpt>
      <trkpt lat="44.38083" lon="5.51909">
        <ele>776</ele>
        <time>2019-06-07T08:36:32Z</time>
      </trkpt>
      <trkpt lat="44.38084" lon="5.51908">
        <ele>776</ele>
        <time>2019-06-07T08:36:33Z</time>
      </trkpt>
      <trkpt lat="44.38086" lon="5.51907">
        <ele>776</ele>
        <time>2019-06-07T08:36:34Z</time>
      </trkpt>
      <trkpt lat="44.38088" lon="5.51906">
        <ele>776</ele>
        <time>2019-06-07T08:36:35Z</time>
      </trkpt>
      <trkpt lat="44.3809" lon="5.51905">
        <ele>777</ele>
        <time>2019-06-07T08:36:36Z</time>
      </trkpt>
      <trkpt lat="44.38092" lon="5.51904">
        <ele>777</ele>
        <time>2019-06-07T08:36:37Z</time>
      </trkpt>
      <trkpt lat="44.38094" lon="5.51903">
        <ele>777</ele>
        <time>2019-06-07T08:36:38Z</time>
      </trkpt>
      <trkpt lat="44.38097" lon="5.51902">
        <ele>778</ele>
        <time>2019-06-07T08:36:39Z</time>
      </trkpt>
      <trkpt lat="44.38099" lon="5.51902">
        <ele>778</ele>
        <time>2019-06-07T08:36:40Z</time>
      </trkpt>
      <trkpt lat="44.38101" lon="5.51901">
        <ele>778</ele>
        <time>2019-06-07T08:36:41Z</time>
      </trkpt>
      <trkpt lat="44.38103" lon="5.51901">
        <ele>778</ele>
        <time>2019-06-07T08:36:42Z</time>
      </trkpt>
      <trkpt lat="44.38105" lon="5.51901">
        <ele>779</ele>
        <time>2019-06-07T08:36:43Z</time>
      </trkpt>
      <trkpt lat="44.38108" lon="5.51901">
        <ele>779</ele>
        <time>2019-06-07T08:36:44Z</time>
      </trkpt>
      <trkpt lat="44.3811" lon="5.51901">
        <ele>779</ele>
        <time>2019-06-07T08:36:45Z</time>
      </trkpt>
      <trkpt lat="44.38113" lon="5.519">
        <ele>780</ele>
        <time>2019-06-07T08:36:46Z</time>
      </trkpt>
      <trkpt lat="44.38115" lon="5.519">
        <ele>780</ele>
        <time>2019-06-07T08:36:47Z</time>
      </trkpt>
      <trkpt lat="44.38117" lon="5.51901">
        <ele>780</ele>
        <time>2019-06-07T08:36:48Z</time>
      </trkpt>
      <trkpt lat="44.38119" lon="5.51901">
        <ele>781</ele>
        <time>2019-06-07T08:36:49Z</time>
      </trkpt>
      <trkpt lat="44.38121" lon="5.51901">
        <ele>781</ele>
        <time>2019-06-07T08:36:50Z</time>
      </trkpt>
      <trkpt lat="44.38123" lon="5.51901">
        <ele>781</ele>
        <time>2019-06-07T08:36:51Z</time>
      </trkpt>
      <trkpt lat="44.38125" lon="5.51902">
        <ele>781</ele>
        <time>2019-06-07T08:36:52Z</time>
      </trkpt>
      <trkpt lat="44.38127" lon="5.51902">
        <ele>782</ele>
        <time>2019-06-07T08:36:53Z</time>
      </trkpt>
      <trkpt lat="44.38129" lon="5.51903">
        <ele>782</ele>
        <time>2019-06-07T08:36:54Z</time>
      </trkpt>
      <trkpt lat="44.38131" lon="5.51903">
        <ele>782</ele>
        <time>2019-06-07T08:36:55Z</time>
      </trkpt>
      <trkpt lat="44.38134" lon="5.51904">
        <ele>782</ele>
        <time>2019-06-07T08:36:56Z</time>
      </trkpt>
      <trkpt lat="44.38136" lon="5.51904">
        <ele>783</ele>
        <time>2019-06-07T08:36:57Z</time>
      </trkpt>
      <trkpt lat="44.38138" lon="5.51904">
        <ele>783</ele>
        <time>2019-06-07T08:36:58Z</time>
      </trkpt>
      <trkpt lat="44.3814" lon="5.51904">
        <ele>783</ele>
        <time>2019-06-07T08:36:59Z</time>
      </trkpt>
      <trkpt lat="44.38142" lon="5.51905">
        <ele>783</ele>
        <time>2019-06-07T08:37:00Z</time>
      </trkpt>
      <trkpt lat="44.38144" lon="5.51905">
        <ele>783</ele>
        <time>2019-06-07T08:37:01Z</time>
      </trkpt>
      <trkpt lat="44.38146" lon="5.51906">
        <ele>784</ele>
        <time>2019-06-07T08:37:02Z</time>
      </trkpt>
      <trkpt lat="44.38148" lon="5.51907">
        <ele>784</ele>
        <time>2019-06-07T08:37:03Z</time>
      </trkpt>
      <trkpt lat="44.3815" lon="5.51909">
        <ele>784</ele>
        <time>2019-06-07T08:37:04Z</time>
      </trkpt>
      <trkpt lat="44.38152" lon="5.5191">
        <ele>784</ele>
        <time>2019-06-07T08:37:05Z</time>
      </trkpt>
      <trkpt lat="44.38154" lon="5.51911">
        <ele>784</ele>
        <time>2019-06-07T08:37:06Z</time>
      </trkpt>
      <trkpt lat="44.38157" lon="5.51912">
        <ele>785</ele>
        <time>2019-06-07T08:37:07Z</time>
      </trkpt>
      <trkpt lat="44.38159" lon="5.51912">
        <ele>785</ele>
        <time>2019-06-07T08:37:08Z</time>
      </trkpt>
      <trkpt lat="44.38161" lon="5.51913">
        <ele>785</ele>
        <time>2019-06-07T08:37:09Z</time>
      </trkpt>
      <trkpt lat="44.38163" lon="5.51914">
        <ele>785</ele>
        <time>2019-06-07T08:37:10Z</time>
      </trkpt>
      <trkpt lat="44.38166" lon="5.51915">
        <ele>786</ele>
        <time>2019-06-07T08:37:11Z</time>
      </trkpt>
      <trkpt lat="44.38168" lon="5.51917">
        <ele>786</ele>
        <time>2019-06-07T08:37:12Z</time>
      </trkpt>
      <trkpt lat="44.3817" lon="5.51918">
        <ele>786</ele>
        <time>2019-06-07T08:37:13Z</time>
      </trkpt>
      <trkpt lat="44.38172" lon="5.5192">
        <ele>786</ele>
        <time>2019-06-07T08:37:14Z</time>
      </trkpt>
      <trkpt lat="44.38174" lon="5.51921">
        <ele>787</ele>
        <time>2019-06-07T08:37:15Z</time>
      </trkpt>
      <trkpt lat="44.38176" lon="5.51921">
        <ele>787</ele>
        <time>2019-06-07T08:37:16Z</time>
      </trkpt>
      <trkpt lat="44.38178" lon="5.51922">
        <ele>787</ele>
        <time>2019-06-07T08:37:17Z</time>
      </trkpt>
      <trkpt lat="44.38181" lon="5.51923">
        <ele>787</ele>
        <time>2019-06-07T08:37:18Z</time>
      </trkpt>
      <trkpt lat="44.38182" lon="5.51923">
        <ele>787</ele>
        <time>2019-06-07T08:37:19Z</time>
      </trkpt>
      <trkpt lat="44.38185" lon="5.51925">
        <ele>788</ele>
        <time>2019-06-07T08:37:20Z</time>
      </trkpt>
      <trkpt lat="44.38187" lon="5.51927">
        <ele>788</ele>
        <time>2019-06-07T08:37:21Z</time>
      </trkpt>
      <trkpt lat="44.38189" lon="5.51929">
        <ele>788</ele>
        <time>2019-06-07T08:37:22Z</time>
      </trkpt>
      <trkpt lat="44.3819" lon="5.51931">
        <ele>788</ele>
        <time>2019-06-07T08:37:23Z</time>
      </trkpt>
      <trkpt lat="44.38192" lon="5.51934">
        <ele>788</ele>
        <time>2019-06-07T08:37:24Z</time>
      </trkpt>
      <trkpt lat="44.38192" lon="5.51937">
        <ele>788</ele>
        <time>2019-06-07T08:37:25Z</time>
      </trkpt>
      <trkpt lat="44.38192" lon="5.5194">
        <ele>788</ele>
        <time>2019-06-07T08:37:26Z</time>
      </trkpt>
      <trkpt lat="44.38192" lon="5.51943">
        <ele>788</ele>
        <time>2019-06-07T08:37:27Z</time>
      </trkpt>
      <trkpt lat="44.38192" lon="5.51946">
        <ele>788</ele>
        <time>2019-06-07T08:37:28Z</time>
      </trkpt>
      <trkpt lat="44.3819" lon="5.51949">
        <ele>788</ele>
        <time>2019-06-07T08:37:29Z</time>
      </trkpt>
      <trkpt lat="44.38189" lon="5.51951">
        <ele>788</ele>
        <time>2019-06-07T08:37:30Z</time>
      </trkpt>
      <trkpt lat="44.38186" lon="5.51952">
        <ele>788</ele>
        <time>2019-06-07T08:37:31Z</time>
      </trkpt>
      <trkpt lat="44.38184" lon="5.51954">
        <ele>788</ele>
        <time>2019-06-07T08:37:32Z</time>
      </trkpt>
      <trkpt lat="44.38181" lon="5.51954">
        <ele>788</ele>
        <time>2019-06-07T08:37:33Z</time>
      </trkpt>
      <trkpt lat="44.38179" lon="5.51954">
        <ele>788</ele>
        <time>2019-06-07T08:37:34Z</time>
      </trkpt>
      <trkpt lat="44.38176" lon="5.51954">
        <ele>788</ele>
        <time>2019-06-07T08:37:35Z</time>
      </trkpt>
      <trkpt lat="44.38173" lon="5.51954">
        <ele>788</ele>
        <time>2019-06-07T08:37:36Z</time>
      </trkpt>
      <trkpt lat="44.38171" lon="5.51955">
        <ele>788</ele>
        <time>2019-06-07T08:37:37Z</time>
      </trkpt>
      <trkpt lat="44.38168" lon="5.51956">
        <ele>788</ele>
        <time>2019-06-07T08:37:38Z</time>
      </trkpt>
      <trkpt lat="44.38165" lon="5.51957">
        <ele>788</ele>
        <time>2019-06-07T08:37:39Z</time>
      </trkpt>
      <trkpt lat="44.38163" lon="5.51959">
        <ele>788</ele>
        <time>2019-06-07T08:37:40Z</time>
      </trkpt>
      <trkpt lat="44.3816" lon="5.5196">
        <ele>788</ele>
        <time>2019-06-07T08:37:41Z</time>
      </trkpt>
      <trkpt lat="44.38158" lon="5.51962">
        <ele>788</ele>
        <time>2019-06-07T08:37:42Z</time>
      </trkpt>
      <trkpt lat="44.38156" lon="5.51964">
        <ele>788</ele>
        <time>2019-06-07T08:37:43Z</time>
      </trkpt>
      <trkpt lat="44.38154" lon="5.51966">
        <ele>788</ele>
        <time>2019-06-07T08:37:44Z</time>
      </trkpt>
      <trkpt lat="44.38152" lon="5.51969">
        <ele>788</ele>
        <time>2019-06-07T08:37:45Z</time>
      </trkpt>
      <trkpt lat="44.38151" lon="5.51972">
        <ele>788</ele>
        <time>2019-06-07T08:37:46Z</time>
      </trkpt>
      <trkpt lat="44.38149" lon="5.51975">
        <ele>788</ele>
        <time>2019-06-07T08:37:47Z</time>
      </trkpt>
      <trkpt lat="44.38148" lon="5.51978">
        <ele>789</ele>
        <time>2019-06-07T08:37:48Z</time>
      </trkpt>
      <trkpt lat="44.38147" lon="5.51981">
        <ele>789</ele>
        <time>2019-06-07T08:37:49Z</time>
      </trkpt>
      <trkpt lat="44.38146" lon="5.51983">
        <ele>789</ele>
        <time>2019-06-07T08:37:50Z</time>
      </trkpt>
      <trkpt lat="44.38145" lon="5.51986">
        <ele>789</ele>
        <time>2019-06-07T08:37:51Z</time>
      </trkpt>
      <trkpt lat="44.38144" lon="5.51989">
        <ele>790</ele>
        <time>2019-06-07T08:37:52Z</time>
      </trkpt>
      <trkpt lat="44.38144" lon="5.51992">
        <ele>790</ele>
        <time>2019-06-07T08:37:53Z</time>
      </trkpt>
      <trkpt lat="44.38143" lon="5.51995">
        <ele>790</ele>
        <time>2019-06-07T08:37:54Z</time>
      </trkpt>
      <trkpt lat="44.38142" lon="5.51998">
        <ele>791</ele>
        <time>2019-06-07T08:37:55Z</time>
      </trkpt>
      <trkpt lat="44.38142" lon="5.52001">
        <ele>791</ele>
        <time>2019-06-07T08:37:56Z</time>
      </trkpt>
      <trkpt lat="44.38141" lon="5.52004">
        <ele>791</ele>
        <time>2019-06-07T08:37:57Z</time>
      </trkpt>
      <trkpt lat="44.3814" lon="5.52007">
        <ele>791</ele>
        <time>2019-06-07T08:37:58Z</time>
      </trkpt>
      <trkpt lat="44.38139" lon="5.5201">
        <ele>792</ele>
        <time>2019-06-07T08:37:59Z</time>
      </trkpt>
      <trkpt lat="44.38139" lon="5.52013">
        <ele>792</ele>
        <time>2019-06-07T08:38:00Z</time>
      </trkpt>
      <trkpt lat="44.38138" lon="5.52016">
        <ele>792</ele>
        <time>2019-06-07T08:38:01Z</time>
      </trkpt>
      <trkpt lat="44.38137" lon="5.52019">
        <ele>793</ele>
        <time>2019-06-07T08:38:02Z</time>
      </trkpt>
      <trkpt lat="44.38136" lon="5.52022">
        <ele>793</ele>
        <time>2019-06-07T08:38:03Z</time>
      </trkpt>
      <trkpt lat="44.38135" lon="5.52025">
        <ele>793</ele>
        <time>2019-06-07T08:38:04Z</time>
      </trkpt>
      <trkpt lat="44.38135" lon="5.52029">
        <ele>794</ele>
        <time>2019-06-07T08:38:05Z</time>
      </trkpt>
      <trkpt lat="44.38134" lon="5.52032">
        <ele>794</ele>
        <time>2019-06-07T08:38:06Z</time>
      </trkpt>
      <trkpt lat="44.38133" lon="5.52035">
        <ele>795</ele>
        <time>2019-06-07T08:38:07Z</time>
      </trkpt>
      <trkpt lat="44.38132" lon="5.52037">
        <ele>795</ele>
        <time>2019-06-07T08:38:08Z</time>
      </trkpt>
      <trkpt lat="44.38131" lon="5.5204">
        <ele>796</ele>
        <time>2019-06-07T08:38:09Z</time>
      </trkpt>
      <trkpt lat="44.3813" lon="5.52043">
        <ele>796</ele>
        <time>2019-06-07T08:38:10Z</time>
      </trkpt>
      <trkpt lat="44.38129" lon="5.52046">
        <ele>796</ele>
        <time>2019-06-07T08:38:11Z</time>
      </trkpt>
      <trkpt lat="44.38128" lon="5.52049">
        <ele>797</ele>
        <time>2019-06-07T08:38:12Z</time>
      </trkpt>
      <trkpt lat="44.38127" lon="5.52051">
        <ele>797</ele>
        <time>2019-06-07T08:38:13Z</time>
      </trkpt>
      <trkpt lat="44.38126" lon="5.52055">
        <ele>797</ele>
        <time>2019-06-07T08:38:14Z</time>
      </trkpt>
      <trkpt lat="44.38126" lon="5.52058">
        <ele>798</ele>
        <time>2019-06-07T08:38:15Z</time>
      </trkpt>
      <trkpt lat="44.38125" lon="5.52061">
        <ele>798</ele>
        <time>2019-06-07T08:38:16Z</time>
      </trkpt>
      <trkpt lat="44.38125" lon="5.52064">
        <ele>798</ele>
        <time>2019-06-07T08:38:17Z</time>
      </trkpt>
      <trkpt lat="44.38124" lon="5.52067">
        <ele>799</ele>
        <time>2019-06-07T08:38:18Z</time>
      </trkpt>
      <trkpt lat="44.38124" lon="5.5207">
        <ele>799</ele>
        <time>2019-06-07T08:38:19Z</time>
      </trkpt>
      <trkpt lat="44.38123" lon="5.52073">
        <ele>799</ele>
        <time>2019-06-07T08:38:20Z</time>
      </trkpt>
      <trkpt lat="44.38123" lon="5.52076">
        <ele>799</ele>
        <time>2019-06-07T08:38:21Z</time>
      </trkpt>
      <trkpt lat="44.38122" lon="5.52079">
        <ele>800</ele>
        <time>2019-06-07T08:38:22Z</time>
      </trkpt>
      <trkpt lat="44.38122" lon="5.52082">
        <ele>800</ele>
        <time>2019-06-07T08:38:23Z</time>
      </trkpt>
      <trkpt lat="44.38123" lon="5.52086">
        <ele>800</ele>
        <time>2019-06-07T08:38:24Z</time>
      </trkpt>
      <trkpt lat="44.38123" lon="5.5209">
        <ele>801</ele>
        <time>2019-06-07T08:38:25Z</time>
      </trkpt>
      <trkpt lat="44.38124" lon="5.52093">
        <ele>801</ele>
        <time>2019-06-07T08:38:26Z</time>
      </trkpt>
      <trkpt lat="44.38124" lon="5.52096">
        <ele>801</ele>
        <time>2019-06-07T08:38:27Z</time>
      </trkpt>
      <trkpt lat="44.38124" lon="5.521">
        <ele>801</ele>
        <time>2019-06-07T08:38:28Z</time>
      </trkpt>
      <trkpt lat="44.38125" lon="5.52103">
        <ele>802</ele>
        <time>2019-06-07T08:38:29Z</time>
      </trkpt>
      <trkpt lat="44.38127" lon="5.52106">
        <ele>802</ele>
        <time>2019-06-07T08:38:30Z</time>
      </trkpt>
      <trkpt lat="44.38128" lon="5.52108">
        <ele>802</ele>
        <time>2019-06-07T08:38:31Z</time>
      </trkpt>
      <trkpt lat="44.3813" lon="5.5211">
        <ele>802</ele>
        <time>2019-06-07T08:38:32Z</time>
      </trkpt>
      <trkpt lat="44.38131" lon="5.52113">
        <ele>802</ele>
        <time>2019-06-07T08:38:33Z</time>
      </trkpt>
      <trkpt lat="44.38133" lon="5.52115">
        <ele>802</ele>
        <time>2019-06-07T08:38:34Z</time>
      </trkpt>
      <trkpt lat="44.38134" lon="5.52117">
        <ele>803</ele>
        <time>2019-06-07T08:38:35Z</time>
      </trkpt>
      <trkpt lat="44.38136" lon="5.52119">
        <ele>803</ele>
        <time>2019-06-07T08:38:36Z</time>
      </trkpt>
      <trkpt lat="44.38138" lon="5.52121">
        <ele>803</ele>
        <time>2019-06-07T08:38:37Z</time>
      </trkpt>
      <trkpt lat="44.38139" lon="5.52123">
        <ele>803</ele>
        <time>2019-06-07T08:38:38Z</time>
      </trkpt>
      <trkpt lat="44.38142" lon="5.52125">
        <ele>803</ele>
        <time>2019-06-07T08:38:39Z</time>
      </trkpt>
      <trkpt lat="44.38143" lon="5.52126">
        <ele>804</ele>
        <time>2019-06-07T08:38:40Z</time>
      </trkpt>
      <trkpt lat="44.38145" lon="5.52128">
        <ele>804</ele>
        <time>2019-06-07T08:38:41Z</time>
      </trkpt>
      <trkpt lat="44.38147" lon="5.5213">
        <ele>804</ele>
        <time>2019-06-07T08:38:42Z</time>
      </trkpt>
      <trkpt lat="44.38149" lon="5.52132">
        <ele>804</ele>
        <time>2019-06-07T08:38:43Z</time>
      </trkpt>
      <trkpt lat="44.38151" lon="5.52133">
        <ele>804</ele>
        <time>2019-06-07T08:38:44Z</time>
      </trkpt>
      <trkpt lat="44.38153" lon="5.52134">
        <ele>805</ele>
        <time>2019-06-07T08:38:45Z</time>
      </trkpt>
      <trkpt lat="44.38156" lon="5.52135">
        <ele>805</ele>
        <time>2019-06-07T08:38:46Z</time>
      </trkpt>
      <trkpt lat="44.38158" lon="5.52135">
        <ele>805</ele>
        <time>2019-06-07T08:38:47Z</time>
      </trkpt>
      <trkpt lat="44.3816" lon="5.52134">
        <ele>805</ele>
        <time>2019-06-07T08:38:48Z</time>
      </trkpt>
      <trkpt lat="44.38163" lon="5.52134">
        <ele>806</ele>
        <time>2019-06-07T08:38:49Z</time>
      </trkpt>
      <trkpt lat="44.38166" lon="5.52133">
        <ele>806</ele>
        <time>2019-06-07T08:38:50Z</time>
      </trkpt>
      <trkpt lat="44.38168" lon="5.52131">
        <ele>806</ele>
        <time>2019-06-07T08:38:51Z</time>
      </trkpt>
      <trkpt lat="44.3817" lon="5.5213">
        <ele>807</ele>
        <time>2019-06-07T08:38:52Z</time>
      </trkpt>
      <trkpt lat="44.38171" lon="5.52128">
        <ele>807</ele>
        <time>2019-06-07T08:38:53Z</time>
      </trkpt>
      <trkpt lat="44.38173" lon="5.52126">
        <ele>807</ele>
        <time>2019-06-07T08:38:54Z</time>
      </trkpt>
      <trkpt lat="44.38174" lon="5.52124">
        <ele>808</ele>
        <time>2019-06-07T08:38:55Z</time>
      </trkpt>
      <trkpt lat="44.38176" lon="5.52121">
        <ele>808</ele>
        <time>2019-06-07T08:38:56Z</time>
      </trkpt>
      <trkpt lat="44.38177" lon="5.52119">
        <ele>808</ele>
        <time>2019-06-07T08:38:57Z</time>
      </trkpt>
      <trkpt lat="44.38179" lon="5.52118">
        <ele>808</ele>
        <time>2019-06-07T08:38:58Z</time>
      </trkpt>
      <trkpt lat="44.38181" lon="5.52116">
        <ele>809</ele>
        <time>2019-06-07T08:38:59Z</time>
      </trkpt>
      <trkpt lat="44.38182" lon="5.52114">
        <ele>809</ele>
        <time>2019-06-07T08:39:00Z</time>
      </trkpt>
      <trkpt lat="44.38184" lon="5.52112">
        <ele>809</ele>
        <time>2019-06-07T08:39:01Z</time>
      </trkpt>
      <trkpt lat="44.38187" lon="5.52111">
        <ele>809</ele>
        <time>2019-06-07T08:39:02Z</time>
      </trkpt>
      <trkpt lat="44.38189" lon="5.5211">
        <ele>809</ele>
        <time>2019-06-07T08:39:03Z</time>
      </trkpt>
      <trkpt lat="44.38191" lon="5.5211">
        <ele>809</ele>
        <time>2019-06-07T08:39:04Z</time>
      </trkpt>
      <trkpt lat="44.38193" lon="5.5211">
        <ele>810</ele>
        <time>2019-06-07T08:39:05Z</time>
      </trkpt>
      <trkpt lat="44.38195" lon="5.5211">
        <ele>810</ele>
        <time>2019-06-07T08:39:06Z</time>
      </trkpt>
      <trkpt lat="44.38197" lon="5.5211">
        <ele>810</ele>
        <time>2019-06-07T08:39:07Z</time>
      </trkpt>
      <trkpt lat="44.38199" lon="5.52111">
        <ele>810</ele>
        <time>2019-06-07T08:39:08Z</time>
      </trkpt>
      <trkpt lat="44.38201" lon="5.52112">
        <ele>810</ele>
        <time>2019-06-07T08:39:09Z</time>
      </trkpt>
      <trkpt lat="44.38203" lon="5.52113">
        <ele>810</ele>
        <time>2019-06-07T08:39:10Z</time>
      </trkpt>
      <trkpt lat="44.38205" lon="5.52114">
        <ele>811</ele>
        <time>2019-06-07T08:39:11Z</time>
      </trkpt>
      <trkpt lat="44.38207" lon="5.52115">
        <ele>811</ele>
        <time>2019-06-07T08:39:12Z</time>
      </trkpt>
      <trkpt lat="44.38208" lon="5.52117">
        <ele>811</ele>
        <time>2019-06-07T08:39:13Z</time>
      </trkpt>
      <trkpt lat="44.3821" lon="5.52119">
        <ele>812</ele>
        <time>2019-06-07T08:39:14Z</time>
      </trkpt>
      <trkpt lat="44.38211" lon="5.52121">
        <ele>812</ele>
        <time>2019-06-07T08:39:15Z</time>
      </trkpt>
      <trkpt lat="44.38213" lon="5.52123">
        <ele>812</ele>
        <time>2019-06-07T08:39:16Z</time>
      </trkpt>
      <trkpt lat="44.38214" lon="5.52125">
        <ele>813</ele>
        <time>2019-06-07T08:39:17Z</time>
      </trkpt>
      <trkpt lat="44.38216" lon="5.52127">
        <ele>813</ele>
        <time>2019-06-07T08:39:18Z</time>
      </trkpt>
      <trkpt lat="44.38217" lon="5.5213">
        <ele>813</ele>
        <time>2019-06-07T08:39:19Z</time>
      </trkpt>
      <trkpt lat="44.38218" lon="5.52132">
        <ele>813</ele>
        <time>2019-06-07T08:39:20Z</time>
      </trkpt>
      <trkpt lat="44.38219" lon="5.52135">
        <ele>814</ele>
        <time>2019-06-07T08:39:21Z</time>
      </trkpt>
      <trkpt lat="44.3822" lon="5.52137">
        <ele>814</ele>
        <time>2019-06-07T08:39:22Z</time>
      </trkpt>
      <trkpt lat="44.38221" lon="5.5214">
        <ele>814</ele>
        <time>2019-06-07T08:39:23Z</time>
      </trkpt>
      <trkpt lat="44.38222" lon="5.52143">
        <ele>814</ele>
        <time>2019-06-07T08:39:24Z</time>
      </trkpt>
      <trkpt lat="44.38223" lon="5.52145">
        <ele>815</ele>
        <time>2019-06-07T08:39:25Z</time>
      </trkpt>
      <trkpt lat="44.38224" lon="5.52148">
        <ele>815</ele>
        <time>2019-06-07T08:39:26Z</time>
      </trkpt>
      <trkpt lat="44.38224" lon="5.52151">
        <ele>815</ele>
        <time>2019-06-07T08:39:27Z</time>
      </trkpt>
      <trkpt lat="44.38225" lon="5.52154">
        <ele>815</ele>
        <time>2019-06-07T08:39:28Z</time>
      </trkpt>
      <trkpt lat="44.38225" lon="5.52156">
        <ele>815</ele>
        <time>2019-06-07T08:39:29Z</time>
      </trkpt>
      <trkpt lat="44.38226" lon="5.52159">
        <ele>816</ele>
        <time>2019-06-07T08:39:30Z</time>
      </trkpt>
      <trkpt lat="44.38227" lon="5.52162">
        <ele>816</ele>
        <time>2019-06-07T08:39:31Z</time>
      </trkpt>
      <trkpt lat="44.38227" lon="5.52165">
        <ele>816</ele>
        <time>2019-06-07T08:39:32Z</time>
      </trkpt>
      <trkpt lat="44.38228" lon="5.52167">
        <ele>816</ele>
        <time>2019-06-07T08:39:33Z</time>
      </trkpt>
      <trkpt lat="44.38229" lon="5.5217">
        <ele>817</ele>
        <time>2019-06-07T08:39:34Z</time>
      </trkpt>
      <trkpt lat="44.3823" lon="5.52173">
        <ele>817</ele>
        <time>2019-06-07T08:39:35Z</time>
      </trkpt>
      <trkpt lat="44.38231" lon="5.52175">
        <ele>817</ele>
        <time>2019-06-07T08:39:36Z</time>
      </trkpt>
      <trkpt lat="44.38232" lon="5.52178">
        <ele>817</ele>
        <time>2019-06-07T08:39:37Z</time>
      </trkpt>
      <trkpt lat="44.38233" lon="5.52181">
        <ele>818</ele>
        <time>2019-06-07T08:39:38Z</time>
      </trkpt>
      <trkpt lat="44.38234" lon="5.52183">
        <ele>818</ele>
        <time>2019-06-07T08:39:39Z</time>
      </trkpt>
      <trkpt lat="44.38234" lon="5.52186">
        <ele>818</ele>
        <time>2019-06-07T08:39:40Z</time>
      </trkpt>
      <trkpt lat="44.38235" lon="5.52189">
        <ele>818</ele>
        <time>2019-06-07T08:39:41Z</time>
      </trkpt>
      <trkpt lat="44.38236" lon="5.52191">
        <ele>818</ele>
        <time>2019-06-07T08:39:42Z</time>
      </trkpt>
      <trkpt lat="44.38237" lon="5.52194">
        <ele>818</ele>
        <time>2019-06-07T08:39:43Z</time>
      </trkpt>
      <trkpt lat="44.38238" lon="5.52196">
        <ele>819</ele>
        <time>2019-06-07T08:39:44Z</time>
      </trkpt>
      <trkpt lat="44.38239" lon="5.52199">
        <ele>819</ele>
        <time>2019-06-07T08:39:45Z</time>
      </trkpt>
      <trkpt lat="44.3824" lon="5.52201">
        <ele>819</ele>
        <time>2019-06-07T08:39:46Z</time>
      </trkpt>
      <trkpt lat="44.38241" lon="5.52204">
        <ele>819</ele>
        <time>2019-06-07T08:39:47Z</time>
      </trkpt>
      <trkpt lat="44.38242" lon="5.52206">
        <ele>819</ele>
        <time>2019-06-07T08:39:48Z</time>
      </trkpt>
      <trkpt lat="44.38243" lon="5.52209">
        <ele>820</ele>
        <time>2019-06-07T08:39:49Z</time>
      </trkpt>
      <trkpt lat="44.38244" lon="5.52212">
        <ele>820</ele>
        <time>2019-06-07T08:39:50Z</time>
      </trkpt>
      <trkpt lat="44.38245" lon="5.52214">
        <ele>820</ele>
        <time>2019-06-07T08:39:51Z</time>
      </trkpt>
      <trkpt lat="44.38247" lon="5.52216">
        <ele>820</ele>
        <time>2019-06-07T08:39:52Z</time>
      </trkpt>
      <trkpt lat="44.38248" lon="5.52218">
        <ele>820</ele>
        <time>2019-06-07T08:39:53Z</time>
      </trkpt>
      <trkpt lat="44.38249" lon="5.52221">
        <ele>820</ele>
        <time>2019-06-07T08:39:54Z</time>
      </trkpt>
      <trkpt lat="44.3825" lon="5.52223">
        <ele>821</ele>
        <time>2019-06-07T08:39:55Z</time>
      </trkpt>
      <trkpt lat="44.38252" lon="5.52225">
        <ele>821</ele>
        <time>2019-06-07T08:39:56Z</time>
      </trkpt>
      <trkpt lat="44.38253" lon="5.52228">
        <ele>821</ele>
        <time>2019-06-07T08:39:57Z</time>
      </trkpt>
      <trkpt lat="44.38254" lon="5.52231">
        <ele>821</ele>
        <time>2019-06-07T08:39:58Z</time>
      </trkpt>
      <trkpt lat="44.38255" lon="5.52234">
        <ele>821</ele>
        <time>2019-06-07T08:39:59Z</time>
      </trkpt>
      <trkpt lat="44.38257" lon="5.52236">
        <ele>821</ele>
        <time>2019-06-07T08:40:00Z</time>
      </trkpt>
      <trkpt lat="44.38258" lon="5.52239">
        <ele>821</ele>
        <time>2019-06-07T08:40:01Z</time>
      </trkpt>
      <trkpt lat="44.3826" lon="5.52241">
        <ele>822</ele>
        <time>2019-06-07T08:40:02Z</time>
      </trkpt>
      <trkpt lat="44.38261" lon="5.52244">
        <ele>822</ele>
        <time>2019-06-07T08:40:03Z</time>
      </trkpt>
      <trkpt lat="44.38263" lon="5.52246">
        <ele>822</ele>
        <time>2019-06-07T08:40:04Z</time>
      </trkpt>
      <trkpt lat="44.38264" lon="5.52249">
        <ele>822</ele>
        <time>2019-06-07T08:40:05Z</time>
      </trkpt>
      <trkpt lat="44.38265" lon="5.52252">
        <ele>823</ele>
        <time>2019-06-07T08:40:06Z</time>
      </trkpt>
      <trkpt lat="44.38266" lon="5.52254">
        <ele>823</ele>
        <time>2019-06-07T08:40:07Z</time>
      </trkpt>
      <trkpt lat="44.38268" lon="5.52257">
        <ele>823</ele>
        <time>2019-06-07T08:40:08Z</time>
      </trkpt>
      <trkpt lat="44.38269" lon="5.5226">
        <ele>824</ele>
        <time>2019-06-07T08:40:09Z</time>
      </trkpt>
      <trkpt lat="44.3827" lon="5.52262">
        <ele>824</ele>
        <time>2019-06-07T08:40:10Z</time>
      </trkpt>
      <trkpt lat="44.38272" lon="5.52265">
        <ele>824</ele>
        <time>2019-06-07T08:40:11Z</time>
      </trkpt>
      <trkpt lat="44.38274" lon="5.52268">
        <ele>825</ele>
        <time>2019-06-07T08:40:12Z</time>
      </trkpt>
      <trkpt lat="44.38275" lon="5.52271">
        <ele>825</ele>
        <time>2019-06-07T08:40:13Z</time>
      </trkpt>
      <trkpt lat="44.38277" lon="5.52273">
        <ele>825</ele>
        <time>2019-06-07T08:40:14Z</time>
      </trkpt>
      <trkpt lat="44.38278" lon="5.52276">
        <ele>825</ele>
        <time>2019-06-07T08:40:15Z</time>
      </trkpt>
      <trkpt lat="44.38279" lon="5.52279">
        <ele>826</ele>
        <time>2019-06-07T08:40:16Z</time>
      </trkpt>
      <trkpt lat="44.38281" lon="5.52281">
        <ele>826</ele>
        <time>2019-06-07T08:40:17Z</time>
      </trkpt>
      <trkpt lat="44.38282" lon="5.52284">
        <ele>826</ele>
        <time>2019-06-07T08:40:18Z</time>
      </trkpt>
      <trkpt lat="44.38284" lon="5.52286">
        <ele>826</ele>
        <time>2019-06-07T08:40:19Z</time>
      </trkpt>
      <trkpt lat="44.38285" lon="5.52289">
        <ele>826</ele>
        <time>2019-06-07T08:40:20Z</time>
      </trkpt>
      <trkpt lat="44.38287" lon="5.52291">
        <ele>826</ele>
        <time>2019-06-07T08:40:21Z</time>
      </trkpt>
      <trkpt lat="44.38288" lon="5.52293">
        <ele>826</ele>
        <time>2019-06-07T08:40:22Z</time>
      </trkpt>
      <trkpt lat="44.3829" lon="5.52296">
        <ele>826</ele>
        <time>2019-06-07T08:40:23Z</time>
      </trkpt>
      <trkpt lat="44.3829" lon="5.52299">
        <ele>827</ele>
        <time>2019-06-07T08:40:24Z</time>
      </trkpt>
      <trkpt lat="44.38292" lon="5.52301">
        <ele>827</ele>
        <time>2019-06-07T08:40:25Z</time>
      </trkpt>
      <trkpt lat="44.38293" lon="5.52304">
        <ele>827</ele>
        <time>2019-06-07T08:40:26Z</time>
      </trkpt>
      <trkpt lat="44.38295" lon="5.52306">
        <ele>827</ele>
        <time>2019-06-07T08:40:27Z</time>
      </trkpt>
      <trkpt lat="44.38296" lon="5.52309">
        <ele>827</ele>
        <time>2019-06-07T08:40:28Z</time>
      </trkpt>
      <trkpt lat="44.38297" lon="5.52311">
        <ele>827</ele>
        <time>2019-06-07T08:40:29Z</time>
      </trkpt>
      <trkpt lat="44.38298" lon="5.52314">
        <ele>828</ele>
        <time>2019-06-07T08:40:30Z</time>
      </trkpt>
      <trkpt lat="44.38299" lon="5.52316">
        <ele>828</ele>
        <time>2019-06-07T08:40:31Z</time>
      </trkpt>
      <trkpt lat="44.38301" lon="5.52318">
        <ele>828</ele>
        <time>2019-06-07T08:40:32Z</time>
      </trkpt>
      <trkpt lat="44.38302" lon="5.52321">
        <ele>828</ele>
        <time>2019-06-07T08:40:33Z</time>
      </trkpt>
      <trkpt lat="44.38303" lon="5.52323">
        <ele>829</ele>
        <time>2019-06-07T08:40:34Z</time>
      </trkpt>
      <trkpt lat="44.38304" lon="5.52326">
        <ele>829</ele>
        <time>2019-06-07T08:40:35Z</time>
      </trkpt>
      <trkpt lat="44.38305" lon="5.52328">
        <ele>829</ele>
        <time>2019-06-07T08:40:36Z</time>
      </trkpt>
      <trkpt lat="44.38306" lon="5.52331">
        <ele>829</ele>
        <time>2019-06-07T08:40:37Z</time>
      </trkpt>
      <trkpt lat="44.38308" lon="5.52333">
        <ele>830</ele>
        <time>2019-06-07T08:40:38Z</time>
      </trkpt>
      <trkpt lat="44.38309" lon="5.52336">
        <ele>830</ele>
        <time>2019-06-07T08:40:39Z</time>
      </trkpt>
      <trkpt lat="44.38311" lon="5.52338">
        <ele>830</ele>
        <time>2019-06-07T08:40:40Z</time>
      </trkpt>
      <trkpt lat="44.38312" lon="5.52341">
        <ele>830</ele>
        <time>2019-06-07T08:40:41Z</time>
      </trkpt>
      <trkpt lat="44.38313" lon="5.52343">
        <ele>831</ele>
        <time>2019-06-07T08:40:42Z</time>
      </trkpt>
      <trkpt lat="44.38314" lon="5.52345">
        <ele>831</ele>
        <time>2019-06-07T08:40:43Z</time>
      </trkpt>
      <trkpt lat="44.38316" lon="5.52348">
        <ele>831</ele>
        <time>2019-06-07T08:40:44Z</time>
      </trkpt>
      <trkpt lat="44.38317" lon="5.52351">
        <ele>831</ele>
        <time>2019-06-07T08:40:45Z</time>
      </trkpt>
      <trkpt lat="44.38318" lon="5.52353">
        <ele>832</ele>
        <time>2019-06-07T08:40:46Z</time>
      </trkpt>
      <trkpt lat="44.38319" lon="5.52355">
        <ele>832</ele>
        <time>2019-06-07T08:40:47Z</time>
      </trkpt>
      <trkpt lat="44.38321" lon="5.52358">
        <ele>832</ele>
        <time>2019-06-07T08:40:48Z</time>
      </trkpt>
      <trkpt lat="44.38322" lon="5.5236">
        <ele>833</ele>
        <time>2019-06-07T08:40:49Z</time>
      </trkpt>
      <trkpt lat="44.38324" lon="5.52362">
        <ele>833</ele>
        <time>2019-06-07T08:40:50Z</time>
      </trkpt>
      <trkpt lat="44.38326" lon="5.52364">
        <ele>833</ele>
        <time>2019-06-07T08:40:51Z</time>
      </trkpt>
      <trkpt lat="44.38327" lon="5.52367">
        <ele>833</ele>
        <time>2019-06-07T08:40:52Z</time>
      </trkpt>
      <trkpt lat="44.38329" lon="5.52369">
        <ele>834</ele>
        <time>2019-06-07T08:40:53Z</time>
      </trkpt>
      <trkpt lat="44.3833" lon="5.52371">
        <ele>834</ele>
        <time>2019-06-07T08:40:54Z</time>
      </trkpt>
      <trkpt lat="44.38332" lon="5.52373">
        <ele>834</ele>
        <time>2019-06-07T08:40:55Z</time>
      </trkpt>
      <trkpt lat="44.38334" lon="5.52374">
        <ele>834</ele>
        <time>2019-06-07T08:40:56Z</time>
      </trkpt>
      <trkpt lat="44.38336" lon="5.52376">
        <ele>834</ele>
        <time>2019-06-07T08:40:57Z</time>
      </trkpt>
      <trkpt lat="44.38337" lon="5.52378">
        <ele>835</ele>
        <time>2019-06-07T08:40:58Z</time>
      </trkpt>
      <trkpt lat="44.38339" lon="5.52381">
        <ele>835</ele>
        <time>2019-06-07T08:40:59Z</time>
      </trkpt>
      <trkpt lat="44.38341" lon="5.52383">
        <ele>835</ele>
        <time>2019-06-07T08:41:00Z</time>
      </trkpt>
      <trkpt lat="44.38342" lon="5.52385">
        <ele>835</ele>
        <time>2019-06-07T08:41:01Z</time>
      </trkpt>
      <trkpt lat="44.38344" lon="5.52386">
        <ele>835</ele>
        <time>2019-06-07T08:41:02Z</time>
      </trkpt>
      <trkpt lat="44.38345" lon="5.52388">
        <ele>835</ele>
        <time>2019-06-07T08:41:03Z</time>
      </trkpt>
      <trkpt lat="44.38347" lon="5.5239">
        <ele>835</ele>
        <time>2019-06-07T08:41:04Z</time>
      </trkpt>
      <trkpt lat="44.38349" lon="5.52392">
        <ele>836</ele>
        <time>2019-06-07T08:41:05Z</time>
      </trkpt>
      <trkpt lat="44.38351" lon="5.52394">
        <ele>836</ele>
        <time>2019-06-07T08:41:06Z</time>
      </trkpt>
      <trkpt lat="44.38353" lon="5.52395">
        <ele>836</ele>
        <time>2019-06-07T08:41:07Z</time>
      </trkpt>
      <trkpt lat="44.38354" lon="5.52397">
        <ele>836</ele>
        <time>2019-06-07T08:41:08Z</time>
      </trkpt>
      <trkpt lat="44.38356" lon="5.524">
        <ele>836</ele>
        <time>2019-06-07T08:41:09Z</time>
      </trkpt>
      <trkpt lat="44.38357" lon="5.52402">
        <ele>836</ele>
        <time>2019-06-07T08:41:10Z</time>
      </trkpt>
      <trkpt lat="44.38359" lon="5.52404">
        <ele>837</ele>
        <time>2019-06-07T08:41:11Z</time>
      </trkpt>
      <trkpt lat="44.3836" lon="5.52406">
        <ele>837</ele>
        <time>2019-06-07T08:41:12Z</time>
      </trkpt>
      <trkpt lat="44.38362" lon="5.52409">
        <ele>837</ele>
        <time>2019-06-07T08:41:13Z</time>
      </trkpt>
      <trkpt lat="44.38363" lon="5.52411">
        <ele>837</ele>
        <time>2019-06-07T08:41:14Z</time>
      </trkpt>
      <trkpt lat="44.38364" lon="5.52413">
        <ele>837</ele>
        <time>2019-06-07T08:41:15Z</time>
      </trkpt>
      <trkpt lat="44.38366" lon="5.52415">
        <ele>838</ele>
        <time>2019-06-07T08:41:16Z</time>
      </trkpt>
      <trkpt lat="44.38367" lon="5.52417">
        <ele>838</ele>
        <time>2019-06-07T08:41:17Z</time>
      </trkpt>
      <trkpt lat="44.38369" lon="5.52419">
        <ele>838</ele>
        <time>2019-06-07T08:41:18Z</time>
      </trkpt>
      <trkpt lat="44.3837" lon="5.52422">
        <ele>838</ele>
        <time>2019-06-07T08:41:19Z</time>
      </trkpt>
      <trkpt lat="44.38372" lon="5.52424">
        <ele>838</ele>
        <time>2019-06-07T08:41:20Z</time>
      </trkpt>
      <trkpt lat="44.38373" lon="5.52426">
        <ele>838</ele>
        <time>2019-06-07T08:41:21Z</time>
      </trkpt>
      <trkpt lat="44.38374" lon="5.52429">
        <ele>838</ele>
        <time>2019-06-07T08:41:22Z</time>
      </trkpt>
      <trkpt lat="44.38376" lon="5.52431">
        <ele>839</ele>
        <time>2019-06-07T08:41:23Z</time>
      </trkpt>
      <trkpt lat="44.38377" lon="5.52433">
        <ele>839</ele>
        <time>2019-06-07T08:41:24Z</time>
      </trkpt>
      <trkpt lat="44.38378" lon="5.52435">
        <ele>839</ele>
        <time>2019-06-07T08:41:25Z</time>
      </trkpt>
      <trkpt lat="44.3838" lon="5.52438">
        <ele>839</ele>
        <time>2019-06-07T08:41:26Z</time>
      </trkpt>
      <trkpt lat="44.38381" lon="5.5244">
        <ele>839</ele>
        <time>2019-06-07T08:41:27Z</time>
      </trkpt>
      <trkpt lat="44.38382" lon="5.52442">
        <ele>840</ele>
        <time>2019-06-07T08:41:28Z</time>
      </trkpt>
      <trkpt lat="44.38384" lon="5.52444">
        <ele>840</ele>
        <time>2019-06-07T08:41:29Z</time>
      </trkpt>
      <trkpt lat="44.38385" lon="5.52446">
        <ele>840</ele>
        <time>2019-06-07T08:41:30Z</time>
      </trkpt>
      <trkpt lat="44.38387" lon="5.52448">
        <ele>841</ele>
        <time>2019-06-07T08:41:31Z</time>
      </trkpt>
      <trkpt lat="44.38388" lon="5.52451">
        <ele>841</ele>
        <time>2019-06-07T08:41:32Z</time>
      </trkpt>
      <trkpt lat="44.38389" lon="5.52453">
        <ele>841</ele>
        <time>2019-06-07T08:41:33Z</time>
      </trkpt>
      <trkpt lat="44.38391" lon="5.52455">
        <ele>841</ele>
        <time>2019-06-07T08:41:34Z</time>
      </trkpt>
      <trkpt lat="44.38393" lon="5.52457">
        <ele>842</ele>
        <time>2019-06-07T08:41:35Z</time>
      </trkpt>
      <trkpt lat="44.38395" lon="5.52459">
        <ele>842</ele>
        <time>2019-06-07T08:41:36Z</time>
      </trkpt>
      <trkpt lat="44.38396" lon="5.52461">
        <ele>842</ele>
        <time>2019-06-07T08:41:37Z</time>
      </trkpt>
      <trkpt lat="44.38397" lon="5.52464">
        <ele>842</ele>
        <time>2019-06-07T08:41:38Z</time>
      </trkpt>
      <trkpt lat="44.38399" lon="5.52466">
        <ele>843</ele>
        <time>2019-06-07T08:41:39Z</time>
      </trkpt>
      <trkpt lat="44.38401" lon="5.52468">
        <ele>843</ele>
        <time>2019-06-07T08:41:40Z</time>
      </trkpt>
      <trkpt lat="44.38402" lon="5.52471">
        <ele>843</ele>
        <time>2019-06-07T08:41:41Z</time>
      </trkpt>
      <trkpt lat="44.38403" lon="5.52473">
        <ele>843</ele>
        <time>2019-06-07T08:41:42Z</time>
      </trkpt>
      <trkpt lat="44.38405" lon="5.52476">
        <ele>844</ele>
        <time>2019-06-07T08:41:43Z</time>
      </trkpt>
      <trkpt lat="44.38406" lon="5.52478">
        <ele>844</ele>
        <time>2019-06-07T08:41:44Z</time>
      </trkpt>
      <trkpt lat="44.38408" lon="5.5248">
        <ele>844</ele>
        <time>2019-06-07T08:41:45Z</time>
      </trkpt>
      <trkpt lat="44.3841" lon="5.52482">
        <ele>844</ele>
        <time>2019-06-07T08:41:46Z</time>
      </trkpt>
      <trkpt lat="44.38411" lon="5.52484">
        <ele>844</ele>
        <time>2019-06-07T08:41:47Z</time>
      </trkpt>
      <trkpt lat="44.38413" lon="5.52487">
        <ele>845</ele>
        <time>2019-06-07T08:41:48Z</time>
      </trkpt>
      <trkpt lat="44.38414" lon="5.52489">
        <ele>845</ele>
        <time>2019-06-07T08:41:49Z</time>
      </trkpt>
      <trkpt lat="44.38417" lon="5.52492">
        <ele>845</ele>
        <time>2019-06-07T08:41:50Z</time>
      </trkpt>
      <trkpt lat="44.38418" lon="5.52494">
        <ele>845</ele>
        <time>2019-06-07T08:41:51Z</time>
      </trkpt>
      <trkpt lat="44.3842" lon="5.52496">
        <ele>845</ele>
        <time>2019-06-07T08:41:52Z</time>
      </trkpt>
      <trkpt lat="44.38422" lon="5.52499">
        <ele>846</ele>
        <time>2019-06-07T08:41:53Z</time>
      </trkpt>
      <trkpt lat="44.38424" lon="5.52501">
        <ele>846</ele>
        <time>2019-06-07T08:41:54Z</time>
      </trkpt>
      <trkpt lat="44.38426" lon="5.52503">
        <ele>846</ele>
        <time>2019-06-07T08:41:55Z</time>
      </trkpt>
      <trkpt lat="44.38427" lon="5.52506">
        <ele>846</ele>
        <time>2019-06-07T08:41:56Z</time>
      </trkpt>
      <trkpt lat="44.38429" lon="5.52508">
        <ele>846</ele>
        <time>2019-06-07T08:41:57Z</time>
      </trkpt>
      <trkpt lat="44.38431" lon="5.52511">
        <ele>846</ele>
        <time>2019-06-07T08:41:58Z</time>
      </trkpt>
      <trkpt lat="44.38433" lon="5.52513">
        <ele>846</ele>
        <time>2019-06-07T08:41:59Z</time>
      </trkpt>
      <trkpt lat="44.38435" lon="5.52515">
        <ele>847</ele>
        <time>2019-06-07T08:42:00Z</time>
      </trkpt>
      <trkpt lat="44.38437" lon="5.52517">
        <ele>847</ele>
        <time>2019-06-07T08:42:01Z</time>
      </trkpt>
      <trkpt lat="44.3844" lon="5.52519">
        <ele>847</ele>
        <time>2019-06-07T08:42:02Z</time>
      </trkpt>
      <trkpt lat="44.38441" lon="5.52521">
        <ele>847</ele>
        <time>2019-06-07T08:42:03Z</time>
      </trkpt>
      <trkpt lat="44.38444" lon="5.52523">
        <ele>847</ele>
        <time>2019-06-07T08:42:04Z</time>
      </trkpt>
      <trkpt lat="44.38446" lon="5.52525">
        <ele>847</ele>
        <time>2019-06-07T08:42:05Z</time>
      </trkpt>
      <trkpt lat="44.38448" lon="5.52527">
        <ele>848</ele>
        <time>2019-06-07T08:42:06Z</time>
      </trkpt>
      <trkpt lat="44.3845" lon="5.52528">
        <ele>848</ele>
        <time>2019-06-07T08:42:07Z</time>
      </trkpt>
      <trkpt lat="44.38451" lon="5.5253">
        <ele>848</ele>
        <time>2019-06-07T08:42:08Z</time>
      </trkpt>
      <trkpt lat="44.38453" lon="5.52532">
        <ele>848</ele>
        <time>2019-06-07T08:42:09Z</time>
      </trkpt>
      <trkpt lat="44.38455" lon="5.52534">
        <ele>848</ele>
        <time>2019-06-07T08:42:10Z</time>
      </trkpt>
      <trkpt lat="44.38457" lon="5.52535">
        <ele>848</ele>
        <time>2019-06-07T08:42:11Z</time>
      </trkpt>
      <trkpt lat="44.3846" lon="5.52537">
        <ele>848</ele>
        <time>2019-06-07T08:42:12Z</time>
      </trkpt>
      <trkpt lat="44.38462" lon="5.52539">
        <ele>849</ele>
        <time>2019-06-07T08:42:13Z</time>
      </trkpt>
      <trkpt lat="44.38465" lon="5.5254">
        <ele>849</ele>
        <time>2019-06-07T08:42:14Z</time>
      </trkpt>
      <trkpt lat="44.38467" lon="5.52542">
        <ele>849</ele>
        <time>2019-06-07T08:42:15Z</time>
      </trkpt>
      <trkpt lat="44.38469" lon="5.52543">
        <ele>849</ele>
        <time>2019-06-07T08:42:16Z</time>
      </trkpt>
      <trkpt lat="44.38472" lon="5.52545">
        <ele>849</ele>
        <time>2019-06-07T08:42:17Z</time>
      </trkpt>
      <trkpt lat="44.38473" lon="5.52547">
        <ele>849</ele>
        <time>2019-06-07T08:42:18Z</time>
      </trkpt>
      <trkpt lat="44.38475" lon="5.52549">
        <ele>849</ele>
        <time>2019-06-07T08:42:19Z</time>
      </trkpt>
      <trkpt lat="44.38477" lon="5.52551">
        <ele>850</ele>
        <time>2019-06-07T08:42:20Z</time>
      </trkpt>
      <trkpt lat="44.38479" lon="5.52553">
        <ele>850</ele>
        <time>2019-06-07T08:42:21Z</time>
      </trkpt>
      <trkpt lat="44.38481" lon="5.52555">
        <ele>850</ele>
        <time>2019-06-07T08:42:22Z</time>
      </trkpt>
      <trkpt lat="44.38483" lon="5.52557">
        <ele>850</ele>
        <time>2019-06-07T08:42:23Z</time>
      </trkpt>
      <trkpt lat="44.38485" lon="5.52559">
        <ele>850</ele>
        <time>2019-06-07T08:42:24Z</time>
      </trkpt>
      <trkpt lat="44.38487" lon="5.52561">
        <ele>850</ele>
        <time>2019-06-07T08:42:25Z</time>
      </trkpt>
      <trkpt lat="44.38489" lon="5.52563">
        <ele>850</ele>
        <time>2019-06-07T08:42:26Z</time>
      </trkpt>
      <trkpt lat="44.38491" lon="5.52565">
        <ele>850</ele>
        <time>2019-06-07T08:42:27Z</time>
      </trkpt>
      <trkpt lat="44.38493" lon="5.52567">
        <ele>850</ele>
        <time>2019-06-07T08:42:28Z</time>
      </trkpt>
      <trkpt lat="44.38495" lon="5.52568">
        <ele>850</ele>
        <time>2019-06-07T08:42:29Z</time>
      </trkpt>
      <trkpt lat="44.38496" lon="5.5257">
        <ele>850</ele>
        <time>2019-06-07T08:42:30Z</time>
      </trkpt>
      <trkpt lat="44.38498" lon="5.52572">
        <ele>850</ele>
        <time>2019-06-07T08:42:31Z</time>
      </trkpt>
      <trkpt lat="44.385" lon="5.52574">
        <ele>850</ele>
        <time>2019-06-07T08:42:32Z</time>
      </trkpt>
      <trkpt lat="44.38501" lon="5.52576">
        <ele>851</ele>
        <time>2019-06-07T08:42:33Z</time>
      </trkpt>
      <trkpt lat="44.38503" lon="5.52577">
        <ele>851</ele>
        <time>2019-06-07T08:42:34Z</time>
      </trkpt>
      <trkpt lat="44.38506" lon="5.52578">
        <ele>851</ele>
        <time>2019-06-07T08:42:35Z</time>
      </trkpt>
      <trkpt lat="44.38508" lon="5.5258">
        <ele>851</ele>
        <time>2019-06-07T08:42:36Z</time>
      </trkpt>
      <trkpt lat="44.38511" lon="5.52581">
        <ele>851</ele>
        <time>2019-06-07T08:42:37Z</time>
      </trkpt>
      <trkpt lat="44.38513" lon="5.52583">
        <ele>851</ele>
        <time>2019-06-07T08:42:38Z</time>
      </trkpt>
      <trkpt lat="44.38515" lon="5.52585">
        <ele>852</ele>
        <time>2019-06-07T08:42:39Z</time>
      </trkpt>
      <trkpt lat="44.38517" lon="5.52587">
        <ele>852</ele>
        <time>2019-06-07T08:42:40Z</time>
      </trkpt>
      <trkpt lat="44.3852" lon="5.52588">
        <ele>852</ele>
        <time>2019-06-07T08:42:41Z</time>
      </trkpt>
      <trkpt lat="44.38522" lon="5.5259">
        <ele>852</ele>
        <time>2019-06-07T08:42:42Z</time>
      </trkpt>
      <trkpt lat="44.38524" lon="5.52593">
        <ele>853</ele>
        <time>2019-06-07T08:42:43Z</time>
      </trkpt>
      <trkpt lat="44.38525" lon="5.52596">
        <ele>853</ele>
        <time>2019-06-07T08:42:44Z</time>
      </trkpt>
      <trkpt lat="44.38528" lon="5.52599">
        <ele>853</ele>
        <time>2019-06-07T08:42:45Z</time>
      </trkpt>
      <trkpt lat="44.3853" lon="5.52602">
        <ele>853</ele>
        <time>2019-06-07T08:42:46Z</time>
      </trkpt>
      <trkpt lat="44.38531" lon="5.52605">
        <ele>854</ele>
        <time>2019-06-07T08:42:47Z</time>
      </trkpt>
      <trkpt lat="44.38533" lon="5.52608">
        <ele>854</ele>
        <time>2019-06-07T08:42:48Z</time>
      </trkpt>
      <trkpt lat="44.38535" lon="5.52611">
        <ele>854</ele>
        <time>2019-06-07T08:42:49Z</time>
      </trkpt>
      <trkpt lat="44.38537" lon="5.52615">
        <ele>854</ele>
        <time>2019-06-07T08:42:50Z</time>
      </trkpt>
      <trkpt lat="44.38538" lon="5.52618">
        <ele>854</ele>
        <time>2019-06-07T08:42:51Z</time>
      </trkpt>
      <trkpt lat="44.3854" lon="5.52621">
        <ele>854</ele>
        <time>2019-06-07T08:42:52Z</time>
      </trkpt>
      <trkpt lat="44.38541" lon="5.52625">
        <ele>854</ele>
        <time>2019-06-07T08:42:53Z</time>
      </trkpt>
      <trkpt lat="44.38543" lon="5.52628">
        <ele>854</ele>
        <time>2019-06-07T08:42:54Z</time>
      </trkpt>
      <trkpt lat="44.38544" lon="5.52631">
        <ele>854</ele>
        <time>2019-06-07T08:42:55Z</time>
      </trkpt>
      <trkpt lat="44.38546" lon="5.52635">
        <ele>854</ele>
        <time>2019-06-07T08:42:56Z</time>
      </trkpt>
      <trkpt lat="44.38547" lon="5.52638">
        <ele>855</ele>
        <time>2019-06-07T08:42:57Z</time>
      </trkpt>
      <trkpt lat="44.38548" lon="5.52642">
        <ele>855</ele>
        <time>2019-06-07T08:42:58Z</time>
      </trkpt>
      <trkpt lat="44.38549" lon="5.52645">
        <ele>855</ele>
        <time>2019-06-07T08:42:59Z</time>
      </trkpt>
      <trkpt lat="44.3855" lon="5.52649">
        <ele>855</ele>
        <time>2019-06-07T08:43:00Z</time>
      </trkpt>
      <trkpt lat="44.38552" lon="5.52653">
        <ele>855</ele>
        <time>2019-06-07T08:43:01Z</time>
      </trkpt>
      <trkpt lat="44.38553" lon="5.52656">
        <ele>856</ele>
        <time>2019-06-07T08:43:02Z</time>
      </trkpt>
      <trkpt lat="44.38555" lon="5.52659">
        <ele>857</ele>
        <time>2019-06-07T08:43:03Z</time>
      </trkpt>
      <trkpt lat="44.38556" lon="5.52662">
        <ele>857</ele>
        <time>2019-06-07T08:43:04Z</time>
      </trkpt>
      <trkpt lat="44.38558" lon="5.52666">
        <ele>857</ele>
        <time>2019-06-07T08:43:05Z</time>
      </trkpt>
      <trkpt lat="44.38559" lon="5.52669">
        <ele>858</ele>
        <time>2019-06-07T08:43:06Z</time>
      </trkpt>
      <trkpt lat="44.38561" lon="5.52672">
        <ele>858</ele>
        <time>2019-06-07T08:43:07Z</time>
      </trkpt>
      <trkpt lat="44.38562" lon="5.52674">
        <ele>858</ele>
        <time>2019-06-07T08:43:08Z</time>
      </trkpt>
      <trkpt lat="44.38565" lon="5.52677">
        <ele>858</ele>
        <time>2019-06-07T08:43:09Z</time>
      </trkpt>
      <trkpt lat="44.38567" lon="5.5268">
        <ele>859</ele>
        <time>2019-06-07T08:43:10Z</time>
      </trkpt>
      <trkpt lat="44.38569" lon="5.52682">
        <ele>859</ele>
        <time>2019-06-07T08:43:11Z</time>
      </trkpt>
      <trkpt lat="44.38572" lon="5.52684">
        <ele>859</ele>
        <time>2019-06-07T08:43:12Z</time>
      </trkpt>
      <trkpt lat="44.38574" lon="5.52686">
        <ele>859</ele>
        <time>2019-06-07T08:43:13Z</time>
      </trkpt>
      <trkpt lat="44.38576" lon="5.52688">
        <ele>859</ele>
        <time>2019-06-07T08:43:14Z</time>
      </trkpt>
      <trkpt lat="44.38578" lon="5.5269">
        <ele>859</ele>
        <time>2019-06-07T08:43:15Z</time>
      </trkpt>
      <trkpt lat="44.38581" lon="5.52692">
        <ele>859</ele>
        <time>2019-06-07T08:43:16Z</time>
      </trkpt>
      <trkpt lat="44.38583" lon="5.52693">
        <ele>860</ele>
        <time>2019-06-07T08:43:17Z</time>
      </trkpt>
      <trkpt lat="44.38586" lon="5.52695">
        <ele>860</ele>
        <time>2019-06-07T08:43:18Z</time>
      </trkpt>
      <trkpt lat="44.38588" lon="5.52697">
        <ele>860</ele>
        <time>2019-06-07T08:43:19Z</time>
      </trkpt>
      <trkpt lat="44.3859" lon="5.52699">
        <ele>860</ele>
        <time>2019-06-07T08:43:20Z</time>
      </trkpt>
      <trkpt lat="44.38593" lon="5.52701">
        <ele>860</ele>
        <time>2019-06-07T08:43:21Z</time>
      </trkpt>
      <trkpt lat="44.38594" lon="5.52703">
        <ele>860</ele>
        <time>2019-06-07T08:43:22Z</time>
      </trkpt>
      <trkpt lat="44.38597" lon="5.52705">
        <ele>860</ele>
        <time>2019-06-07T08:43:23Z</time>
      </trkpt>
      <trkpt lat="44.38599" lon="5.52706">
        <ele>860</ele>
        <time>2019-06-07T08:43:24Z</time>
      </trkpt>
      <trkpt lat="44.38602" lon="5.52708">
        <ele>861</ele>
        <time>2019-06-07T08:43:25Z</time>
      </trkpt>
      <trkpt lat="44.38604" lon="5.52709">
        <ele>861</ele>
        <time>2019-06-07T08:43:26Z</time>
      </trkpt>
      <trkpt lat="44.38606" lon="5.52711">
        <ele>861</ele>
        <time>2019-06-07T08:43:27Z</time>
      </trkpt>
      <trkpt lat="44.38609" lon="5.52713">
        <ele>862</ele>
        <time>2019-06-07T08:43:28Z</time>
      </trkpt>
      <trkpt lat="44.38611" lon="5.52715">
        <ele>862</ele>
        <time>2019-06-07T08:43:29Z</time>
      </trkpt>
      <trkpt lat="44.38614" lon="5.52717">
        <ele>862</ele>
        <time>2019-06-07T08:43:30Z</time>
      </trkpt>
      <trkpt lat="44.38617" lon="5.52718">
        <ele>863</ele>
        <time>2019-06-07T08:43:31Z</time>
      </trkpt>
      <trkpt lat="44.38619" lon="5.5272">
        <ele>863</ele>
        <time>2019-06-07T08:43:32Z</time>
      </trkpt>
      <trkpt lat="44.38621" lon="5.52722">
        <ele>863</ele>
        <time>2019-06-07T08:43:33Z</time>
      </trkpt>
      <trkpt lat="44.38623" lon="5.52723">
        <ele>863</ele>
        <time>2019-06-07T08:43:34Z</time>
      </trkpt>
      <trkpt lat="44.38625" lon="5.52725">
        <ele>864</ele>
        <time>2019-06-07T08:43:35Z</time>
      </trkpt>
      <trkpt lat="44.38628" lon="5.52727">
        <ele>864</ele>
        <time>2019-06-07T08:43:36Z</time>
      </trkpt>
      <trkpt lat="44.3863" lon="5.52728">
        <ele>864</ele>
        <time>2019-06-07T08:43:37Z</time>
      </trkpt>
      <trkpt lat="44.38633" lon="5.52729">
        <ele>864</ele>
        <time>2019-06-07T08:43:38Z</time>
      </trkpt>
      <trkpt lat="44.38635" lon="5.5273">
        <ele>865</ele>
        <time>2019-06-07T08:43:39Z</time>
      </trkpt>
      <trkpt lat="44.38638" lon="5.52732">
        <ele>865</ele>
        <time>2019-06-07T08:43:40Z</time>
      </trkpt>
      <trkpt lat="44.3864" lon="5.52733">
        <ele>866</ele>
        <time>2019-06-07T08:43:41Z</time>
      </trkpt>
      <trkpt lat="44.38643" lon="5.52734">
        <ele>866</ele>
        <time>2019-06-07T08:43:42Z</time>
      </trkpt>
      <trkpt lat="44.38645" lon="5.52735">
        <ele>866</ele>
        <time>2019-06-07T08:43:43Z</time>
      </trkpt>
      <trkpt lat="44.38648" lon="5.52736">
        <ele>867</ele>
        <time>2019-06-07T08:43:44Z</time>
      </trkpt>
      <trkpt lat="44.38651" lon="5.52737">
        <ele>867</ele>
        <time>2019-06-07T08:43:45Z</time>
      </trkpt>
      <trkpt lat="44.38654" lon="5.52738">
        <ele>867</ele>
        <time>2019-06-07T08:43:46Z</time>
      </trkpt>
      <trkpt lat="44.38657" lon="5.52738">
        <ele>867</ele>
        <time>2019-06-07T08:43:47Z</time>
      </trkpt>
      <trkpt lat="44.3866" lon="5.52739">
        <ele>867</ele>
        <time>2019-06-07T08:43:48Z</time>
      </trkpt>
      <trkpt lat="44.38662" lon="5.5274">
        <ele>867</ele>
        <time>2019-06-07T08:43:49Z</time>
      </trkpt>
      <trkpt lat="44.38665" lon="5.52741">
        <ele>867</ele>
        <time>2019-06-07T08:43:50Z</time>
      </trkpt>
      <trkpt lat="44.38667" lon="5.52742">
        <ele>868</ele>
        <time>2019-06-07T08:43:51Z</time>
      </trkpt>
      <trkpt lat="44.3867" lon="5.52743">
        <ele>868</ele>
        <time>2019-06-07T08:43:52Z</time>
      </trkpt>
      <trkpt lat="44.38673" lon="5.52745">
        <ele>868</ele>
        <time>2019-06-07T08:43:53Z</time>
      </trkpt>
      <trkpt lat="44.38675" lon="5.52746">
        <ele>868</ele>
        <time>2019-06-07T08:43:54Z</time>
      </trkpt>
      <trkpt lat="44.38678" lon="5.52747">
        <ele>868</ele>
        <time>2019-06-07T08:43:55Z</time>
      </trkpt>
      <trkpt lat="44.38681" lon="5.52748">
        <ele>868</ele>
        <time>2019-06-07T08:43:56Z</time>
      </trkpt>
      <trkpt lat="44.38683" lon="5.52749">
        <ele>868</ele>
        <time>2019-06-07T08:43:57Z</time>
      </trkpt>
      <trkpt lat="44.38686" lon="5.5275">
        <ele>868</ele>
        <time>2019-06-07T08:43:58Z</time>
      </trkpt>
      <trkpt lat="44.38689" lon="5.52751">
        <ele>868</ele>
        <time>2019-06-07T08:43:59Z</time>
      </trkpt>
      <trkpt lat="44.38692" lon="5.52752">
        <ele>868</ele>
        <time>2019-06-07T08:44:00Z</time>
      </trkpt>
      <trkpt lat="44.38695" lon="5.52753">
        <ele>868</ele>
        <time>2019-06-07T08:44:01Z</time>
      </trkpt>
      <trkpt lat="44.38698" lon="5.52753">
        <ele>868</ele>
        <time>2019-06-07T08:44:02Z</time>
      </trkpt>
      <trkpt lat="44.38701" lon="5.52754">
        <ele>868</ele>
        <time>2019-06-07T08:44:03Z</time>
      </trkpt>
      <trkpt lat="44.38704" lon="5.52754">
        <ele>868</ele>
        <time>2019-06-07T08:44:04Z</time>
      </trkpt>
      <trkpt lat="44.38707" lon="5.52755">
        <ele>868</ele>
        <time>2019-06-07T08:44:05Z</time>
      </trkpt>
      <trkpt lat="44.3871" lon="5.52755">
        <ele>869</ele>
        <time>2019-06-07T08:44:06Z</time>
      </trkpt>
      <trkpt lat="44.38714" lon="5.52756">
        <ele>869</ele>
        <time>2019-06-07T08:44:07Z</time>
      </trkpt>
      <trkpt lat="44.38717" lon="5.52757">
        <ele>869</ele>
        <time>2019-06-07T08:44:08Z</time>
      </trkpt>
      <trkpt lat="44.3872" lon="5.52757">
        <ele>869</ele>
        <time>2019-06-07T08:44:09Z</time>
      </trkpt>
      <trkpt lat="44.38723" lon="5.52758">
        <ele>869</ele>
        <time>2019-06-07T08:44:10Z</time>
      </trkpt>
      <trkpt lat="44.38725" lon="5.52758">
        <ele>869</ele>
        <time>2019-06-07T08:44:11Z</time>
      </trkpt>
      <trkpt lat="44.38728" lon="5.52758">
        <ele>870</ele>
        <time>2019-06-07T08:44:12Z</time>
      </trkpt>
      <trkpt lat="44.38731" lon="5.52758">
        <ele>870</ele>
        <time>2019-06-07T08:44:13Z</time>
      </trkpt>
      <trkpt lat="44.38734" lon="5.52759">
        <ele>870</ele>
        <time>2019-06-07T08:44:14Z</time>
      </trkpt>
      <trkpt lat="44.38737" lon="5.52759">
        <ele>870</ele>
        <time>2019-06-07T08:44:15Z</time>
      </trkpt>
      <trkpt lat="44.38739" lon="5.52759">
        <ele>870</ele>
        <time>2019-06-07T08:44:16Z</time>
      </trkpt>
      <trkpt lat="44.38742" lon="5.52758">
        <ele>871</ele>
        <time>2019-06-07T08:44:17Z</time>
      </trkpt>
      <trkpt lat="44.38745" lon="5.52758">
        <ele>871</ele>
        <time>2019-06-07T08:44:18Z</time>
      </trkpt>
      <trkpt lat="44.38747" lon="5.52758">
        <ele>871</ele>
        <time>2019-06-07T08:44:19Z</time>
      </trkpt>
      <trkpt lat="44.3875" lon="5.52759">
        <ele>871</ele>
        <time>2019-06-07T08:44:20Z</time>
      </trkpt>
      <trkpt lat="44.38753" lon="5.52759">
        <ele>871</ele>
        <time>2019-06-07T08:44:21Z</time>
      </trkpt>
      <trkpt lat="44.38755" lon="5.52759">
        <ele>872</ele>
        <time>2019-06-07T08:44:22Z</time>
      </trkpt>
      <trkpt lat="44.38758" lon="5.52759">
        <ele>872</ele>
        <time>2019-06-07T08:44:23Z</time>
      </trkpt>
      <trkpt lat="44.3876" lon="5.52759">
        <ele>872</ele>
        <time>2019-06-07T08:44:24Z</time>
      </trkpt>
      <trkpt lat="44.38763" lon="5.52758">
        <ele>872</ele>
        <time>2019-06-07T08:44:25Z</time>
      </trkpt>
      <trkpt lat="44.38765" lon="5.52758">
        <ele>872</ele>
        <time>2019-06-07T08:44:26Z</time>
      </trkpt>
      <trkpt lat="44.38768" lon="5.52758">
        <ele>872</ele>
        <time>2019-06-07T08:44:27Z</time>
      </trkpt>
      <trkpt lat="44.3877" lon="5.52758">
        <ele>872</ele>
        <time>2019-06-07T08:44:28Z</time>
      </trkpt>
      <trkpt lat="44.38773" lon="5.52758">
        <ele>873</ele>
        <time>2019-06-07T08:44:29Z</time>
      </trkpt>
      <trkpt lat="44.38776" lon="5.52758">
        <ele>873</ele>
        <time>2019-06-07T08:44:30Z</time>
      </trkpt>
      <trkpt lat="44.38778" lon="5.52758">
        <ele>873</ele>
        <time>2019-06-07T08:44:31Z</time>
      </trkpt>
      <trkpt lat="44.38781" lon="5.52758">
        <ele>873</ele>
        <time>2019-06-07T08:44:32Z</time>
      </trkpt>
      <trkpt lat="44.38784" lon="5.52758">
        <ele>874</ele>
        <time>2019-06-07T08:44:33Z</time>
      </trkpt>
      <trkpt lat="44.38787" lon="5.52758">
        <ele>874</ele>
        <time>2019-06-07T08:44:34Z</time>
      </trkpt>
      <trkpt lat="44.3879" lon="5.52759">
        <ele>874</ele>
        <time>2019-06-07T08:44:35Z</time>
      </trkpt>
      <trkpt lat="44.38793" lon="5.52759">
        <ele>874</ele>
        <time>2019-06-07T08:44:36Z</time>
      </trkpt>
      <trkpt lat="44.38796" lon="5.52759">
        <ele>874</ele>
        <time>2019-06-07T08:44:37Z</time>
      </trkpt>
      <trkpt lat="44.388" lon="5.52759">
        <ele>874</ele>
        <time>2019-06-07T08:44:38Z</time>
      </trkpt>
      <trkpt lat="44.38803" lon="5.52759">
        <ele>875</ele>
        <time>2019-06-07T08:44:39Z</time>
      </trkpt>
      <trkpt lat="44.38806" lon="5.5276">
        <ele>875</ele>
        <time>2019-06-07T08:44:40Z</time>
      </trkpt>
      <trkpt lat="44.3881" lon="5.52761">
        <ele>875</ele>
        <time>2019-06-07T08:44:41Z</time>
      </trkpt>
      <trkpt lat="44.38813" lon="5.52761">
        <ele>875</ele>
        <time>2019-06-07T08:44:42Z</time>
      </trkpt>
      <trkpt lat="44.38816" lon="5.52762">
        <ele>876</ele>
        <time>2019-06-07T08:44:43Z</time>
      </trkpt>
      <trkpt lat="44.38819" lon="5.52762">
        <ele>876</ele>
        <time>2019-06-07T08:44:44Z</time>
      </trkpt>
      <trkpt lat="44.38822" lon="5.52763">
        <ele>876</ele>
        <time>2019-06-07T08:44:45Z</time>
      </trkpt>
      <trkpt lat="44.38825" lon="5.52764">
        <ele>876</ele>
        <time>2019-06-07T08:44:46Z</time>
      </trkpt>
      <trkpt lat="44.38828" lon="5.52764">
        <ele>876</ele>
        <time>2019-06-07T08:44:47Z</time>
      </trkpt>
      <trkpt lat="44.38831" lon="5.52765">
        <ele>877</ele>
        <time>2019-06-07T08:44:48Z</time>
      </trkpt>
      <trkpt lat="44.38834" lon="5.52766">
        <ele>877</ele>
        <time>2019-06-07T08:44:49Z</time>
      </trkpt>
      <trkpt lat="44.38837" lon="5.52767">
        <ele>877</ele>
        <time>2019-06-07T08:44:50Z</time>
      </trkpt>
      <trkpt lat="44.3884" lon="5.52767">
        <ele>877</ele>
        <time>2019-06-07T08:44:51Z</time>
      </trkpt>
      <trkpt lat="44.38843" lon="5.52768">
        <ele>877</ele>
        <time>2019-06-07T08:44:52Z</time>
      </trkpt>
      <trkpt lat="44.38846" lon="5.52769">
        <ele>877</ele>
        <time>2019-06-07T08:44:53Z</time>
      </trkpt>
      <trkpt lat="44.38849" lon="5.52769">
        <ele>877</ele>
        <time>2019-06-07T08:44:54Z</time>
      </trkpt>
      <trkpt lat="44.38852" lon="5.5277">
        <ele>877</ele>
        <time>2019-06-07T08:44:55Z</time>
      </trkpt>
      <trkpt lat="44.38855" lon="5.52771">
        <ele>877</ele>
        <time>2019-06-07T08:44:56Z</time>
      </trkpt>
      <trkpt lat="44.38858" lon="5.52772">
        <ele>878</ele>
        <time>2019-06-07T08:44:57Z</time>
      </trkpt>
      <trkpt lat="44.38861" lon="5.52773">
        <ele>878</ele>
        <time>2019-06-07T08:44:58Z</time>
      </trkpt>
      <trkpt lat="44.38864" lon="5.52774">
        <ele>878</ele>
        <time>2019-06-07T08:44:59Z</time>
      </trkpt>
      <trkpt lat="44.38866" lon="5.52775">
        <ele>878</ele>
        <time>2019-06-07T08:45:00Z</time>
      </trkpt>
      <trkpt lat="44.38869" lon="5.52776">
        <ele>878</ele>
        <time>2019-06-07T08:45:01Z</time>
      </trkpt>
      <trkpt lat="44.38873" lon="5.52776">
        <ele>878</ele>
        <time>2019-06-07T08:45:02Z</time>
      </trkpt>
      <trkpt lat="44.38876" lon="5.52776">
        <ele>879</ele>
        <time>2019-06-07T08:45:03Z</time>
      </trkpt>
      <trkpt lat="44.38879" lon="5.52777">
        <ele>879</ele>
        <time>2019-06-07T08:45:04Z</time>
      </trkpt>
      <trkpt lat="44.38882" lon="5.52778">
        <ele>879</ele>
        <time>2019-06-07T08:45:05Z</time>
      </trkpt>
      <trkpt lat="44.38885" lon="5.52778">
        <ele>879</ele>
        <time>2019-06-07T08:45:06Z</time>
      </trkpt>
      <trkpt lat="44.38888" lon="5.52779">
        <ele>879</ele>
        <time>2019-06-07T08:45:07Z</time>
      </trkpt>
      <trkpt lat="44.38892" lon="5.5278">
        <ele>879</ele>
        <time>2019-06-07T08:45:08Z</time>
      </trkpt>
      <trkpt lat="44.38895" lon="5.5278">
        <ele>879</ele>
        <time>2019-06-07T08:45:09Z</time>
      </trkpt>
      <trkpt lat="44.38898" lon="5.52781">
        <ele>879</ele>
        <time>2019-06-07T08:45:10Z</time>
      </trkpt>
      <trkpt lat="44.38901" lon="5.52782">
        <ele>879</ele>
        <time>2019-06-07T08:45:11Z</time>
      </trkpt>
      <trkpt lat="44.38904" lon="5.52782">
        <ele>879</ele>
        <time>2019-06-07T08:45:12Z</time>
      </trkpt>
      <trkpt lat="44.38908" lon="5.52782">
        <ele>879</ele>
        <time>2019-06-07T08:45:13Z</time>
      </trkpt>
      <trkpt lat="44.38911" lon="5.52783">
        <ele>879</ele>
        <time>2019-06-07T08:45:14Z</time>
      </trkpt>
      <trkpt lat="44.38914" lon="5.52784">
        <ele>879</ele>
        <time>2019-06-07T08:45:15Z</time>
      </trkpt>
      <trkpt lat="44.38917" lon="5.52784">
        <ele>879</ele>
        <time>2019-06-07T08:45:16Z</time>
      </trkpt>
      <trkpt lat="44.38919" lon="5.52785">
        <ele>880</ele>
        <time>2019-06-07T08:45:17Z</time>
      </trkpt>
      <trkpt lat="44.38921" lon="5.52785">
        <ele>880</ele>
        <time>2019-06-07T08:45:18Z</time>
      </trkpt>
      <trkpt lat="44.38923" lon="5.52785">
        <ele>880</ele>
        <time>2019-06-07T08:45:19Z</time>
      </trkpt>
      <trkpt lat="44.38924" lon="5.52785">
        <ele>880</ele>
        <time>2019-06-07T08:45:20Z</time>
      </trkpt>
      <trkpt lat="44.38926" lon="5.52785">
        <ele>880</ele>
        <time>2019-06-07T08:45:21Z</time>
      </trkpt>
      <trkpt lat="44.38927" lon="5.52786">
        <ele>880</ele>
        <time>2019-06-07T08:45:23Z</time>
      </trkpt>
      <trkpt lat="44.38926" lon="5.52786">
        <ele>881</ele>
        <time>2019-06-07T08:45:40Z</time>
      </trkpt>
      <trkpt lat="44.38925" lon="5.52786">
        <ele>881</ele>
        <time>2019-06-07T08:45:47Z</time>
      </trkpt>
      <trkpt lat="44.38924" lon="5.52785">
        <ele>881</ele>
        <time>2019-06-07T08:45:54Z</time>
      </trkpt>
      <trkpt lat="44.38922" lon="5.52785">
        <ele>882</ele>
        <time>2019-06-07T08:46:01Z</time>
      </trkpt>
      <trkpt lat="44.38925" lon="5.52784">
        <ele>883</ele>
        <time>2019-06-07T08:46:24Z</time>
      </trkpt>
      <trkpt lat="44.38926" lon="5.52784">
        <ele>883</ele>
        <time>2019-06-07T08:46:25Z</time>
      </trkpt>
      <trkpt lat="44.38927" lon="5.52784">
        <ele>883</ele>
        <time>2019-06-07T08:46:26Z</time>
      </trkpt>
      <trkpt lat="44.3893" lon="5.52784">
        <ele>883</ele>
        <time>2019-06-07T08:46:27Z</time>
      </trkpt>
      <trkpt lat="44.38932" lon="5.52785">
        <ele>883</ele>
        <time>2019-06-07T08:46:28Z</time>
      </trkpt>
      <trkpt lat="44.38934" lon="5.52786">
        <ele>883</ele>
        <time>2019-06-07T08:46:29Z</time>
      </trkpt>
      <trkpt lat="44.38936" lon="5.52786">
        <ele>883</ele>
        <time>2019-06-07T08:46:30Z</time>
      </trkpt>
      <trkpt lat="44.38938" lon="5.52787">
        <ele>883</ele>
        <time>2019-06-07T08:46:31Z</time>
      </trkpt>
      <trkpt lat="44.38941" lon="5.52787">
        <ele>883</ele>
        <time>2019-06-07T08:46:32Z</time>
      </trkpt>
      <trkpt lat="44.38943" lon="5.52788">
        <ele>883</ele>
        <time>2019-06-07T08:46:33Z</time>
      </trkpt>
      <trkpt lat="44.38946" lon="5.52788">
        <ele>883</ele>
        <time>2019-06-07T08:46:34Z</time>
      </trkpt>
      <trkpt lat="44.38949" lon="5.52789">
        <ele>883</ele>
        <time>2019-06-07T08:46:35Z</time>
      </trkpt>
      <trkpt lat="44.38952" lon="5.5279">
        <ele>883</ele>
        <time>2019-06-07T08:46:36Z</time>
      </trkpt>
      <trkpt lat="44.38956" lon="5.5279">
        <ele>883</ele>
        <time>2019-06-07T08:46:37Z</time>
      </trkpt>
      <trkpt lat="44.38959" lon="5.52791">
        <ele>883</ele>
        <time>2019-06-07T08:46:38Z</time>
      </trkpt>
      <trkpt lat="44.38963" lon="5.52792">
        <ele>883</ele>
        <time>2019-06-07T08:46:39Z</time>
      </trkpt>
      <trkpt lat="44.38966" lon="5.52793">
        <ele>883</ele>
        <time>2019-06-07T08:46:40Z</time>
      </trkpt>
      <trkpt lat="44.3897" lon="5.52794">
        <ele>883</ele>
        <time>2019-06-07T08:46:41Z</time>
      </trkpt>
      <trkpt lat="44.38974" lon="5.52795">
        <ele>883</ele>
        <time>2019-06-07T08:46:42Z</time>
      </trkpt>
      <trkpt lat="44.38978" lon="5.52796">
        <ele>883</ele>
        <time>2019-06-07T08:46:43Z</time>
      </trkpt>
      <trkpt lat="44.38982" lon="5.52797">
        <ele>883</ele>
        <time>2019-06-07T08:46:44Z</time>
      </trkpt>
      <trkpt lat="44.38988" lon="5.52798">
        <ele>883</ele>
        <time>2019-06-07T08:46:45Z</time>
      </trkpt>
      <trkpt lat="44.38993" lon="5.528">
        <ele>883</ele>
        <time>2019-06-07T08:46:46Z</time>
      </trkpt>
      <trkpt lat="44.38999" lon="5.52801">
        <ele>883</ele>
        <time>2019-06-07T08:46:47Z</time>
      </trkpt>
      <trkpt lat="44.39006" lon="5.52803">
        <ele>883</ele>
        <time>2019-06-07T08:46:48Z</time>
      </trkpt>
      <trkpt lat="44.39011" lon="5.52805">
        <ele>883</ele>
        <time>2019-06-07T08:46:49Z</time>
      </trkpt>
      <trkpt lat="44.39018" lon="5.52806">
        <ele>883</ele>
        <time>2019-06-07T08:46:50Z</time>
      </trkpt>
      <trkpt lat="44.39024" lon="5.52808">
        <ele>882</ele>
        <time>2019-06-07T08:46:51Z</time>
      </trkpt>
      <trkpt lat="44.39031" lon="5.52809">
        <ele>882</ele>
        <time>2019-06-07T08:46:52Z</time>
      </trkpt>
      <trkpt lat="44.39037" lon="5.52811">
        <ele>882</ele>
        <time>2019-06-07T08:46:53Z</time>
      </trkpt>
      <trkpt lat="44.39045" lon="5.52812">
        <ele>881</ele>
        <time>2019-06-07T08:46:54Z</time>
      </trkpt>
      <trkpt lat="44.39052" lon="5.52813">
        <ele>881</ele>
        <time>2019-06-07T08:46:55Z</time>
      </trkpt>
      <trkpt lat="44.39059" lon="5.52813">
        <ele>881</ele>
        <time>2019-06-07T08:46:56Z</time>
      </trkpt>
      <trkpt lat="44.39067" lon="5.52813">
        <ele>881</ele>
        <time>2019-06-07T08:46:57Z</time>
      </trkpt>
      <trkpt lat="44.39075" lon="5.52813">
        <ele>880</ele>
        <time>2019-06-07T08:46:58Z</time>
      </trkpt>
      <trkpt lat="44.39083" lon="5.52812">
        <ele>880</ele>
        <time>2019-06-07T08:46:59Z</time>
      </trkpt>
      <trkpt lat="44.39091" lon="5.5281">
        <ele>880</ele>
        <time>2019-06-07T08:47:00Z</time>
      </trkpt>
      <trkpt lat="44.39099" lon="5.52807">
        <ele>879</ele>
        <time>2019-06-07T08:47:01Z</time>
      </trkpt>
      <trkpt lat="44.39107" lon="5.52804">
        <ele>879</ele>
        <time>2019-06-07T08:47:02Z</time>
      </trkpt>
      <trkpt lat="44.39115" lon="5.52801">
        <ele>879</ele>
        <time>2019-06-07T08:47:03Z</time>
      </trkpt>
      <trkpt lat="44.39123" lon="5.52797">
        <ele>878</ele>
        <time>2019-06-07T08:47:04Z</time>
      </trkpt>
      <trkpt lat="44.39131" lon="5.52793">
        <ele>878</ele>
        <time>2019-06-07T08:47:05Z</time>
      </trkpt>
      <trkpt lat="44.39138" lon="5.5279">
        <ele>878</ele>
        <time>2019-06-07T08:47:06Z</time>
      </trkpt>
      <trkpt lat="44.39146" lon="5.52787">
        <ele>877</ele>
        <time>2019-06-07T08:47:07Z</time>
      </trkpt>
      <trkpt lat="44.39153" lon="5.52787">
        <ele>877</ele>
        <time>2019-06-07T08:47:08Z</time>
      </trkpt>
      <trkpt lat="44.39159" lon="5.52789">
        <ele>876</ele>
        <time>2019-06-07T08:47:09Z</time>
      </trkpt>
      <trkpt lat="44.39165" lon="5.52793">
        <ele>876</ele>
        <time>2019-06-07T08:47:10Z</time>
      </trkpt>
      <trkpt lat="44.39169" lon="5.52799">
        <ele>875</ele>
        <time>2019-06-07T08:47:11Z</time>
      </trkpt>
      <trkpt lat="44.39174" lon="5.52806">
        <ele>875</ele>
        <time>2019-06-07T08:47:12Z</time>
      </trkpt>
      <trkpt lat="44.39177" lon="5.52813">
        <ele>875</ele>
        <time>2019-06-07T08:47:13Z</time>
      </trkpt>
      <trkpt lat="44.3918" lon="5.52821">
        <ele>875</ele>
        <time>2019-06-07T08:47:14Z</time>
      </trkpt>
      <trkpt lat="44.39184" lon="5.52829">
        <ele>875</ele>
        <time>2019-06-07T08:47:15Z</time>
      </trkpt>
      <trkpt lat="44.39187" lon="5.52836">
        <ele>875</ele>
        <time>2019-06-07T08:47:16Z</time>
      </trkpt>
      <trkpt lat="44.3919" lon="5.52844">
        <ele>875</ele>
        <time>2019-06-07T08:47:17Z</time>
      </trkpt>
      <trkpt lat="44.39192" lon="5.52852">
        <ele>875</ele>
        <time>2019-06-07T08:47:18Z</time>
      </trkpt>
      <trkpt lat="44.39193" lon="5.5286">
        <ele>875</ele>
        <time>2019-06-07T08:47:19Z</time>
      </trkpt>
      <trkpt lat="44.39193" lon="5.52868">
        <ele>875</ele>
        <time>2019-06-07T08:47:20Z</time>
      </trkpt>
      <trkpt lat="44.39194" lon="5.52875">
        <ele>875</ele>
        <time>2019-06-07T08:47:21Z</time>
      </trkpt>
      <trkpt lat="44.39194" lon="5.52883">
        <ele>875</ele>
        <time>2019-06-07T08:47:22Z</time>
      </trkpt>
      <trkpt lat="44.39195" lon="5.5289">
        <ele>875</ele>
        <time>2019-06-07T08:47:23Z</time>
      </trkpt>
      <trkpt lat="44.39197" lon="5.52896">
        <ele>875</ele>
        <time>2019-06-07T08:47:24Z</time>
      </trkpt>
      <trkpt lat="44.392" lon="5.52902">
        <ele>875</ele>
        <time>2019-06-07T08:47:25Z</time>
      </trkpt>
      <trkpt lat="44.39204" lon="5.52906">
        <ele>875</ele>
        <time>2019-06-07T08:47:26Z</time>
      </trkpt>
      <trkpt lat="44.39209" lon="5.52909">
        <ele>875</ele>
        <time>2019-06-07T08:47:27Z</time>
      </trkpt>
      <trkpt lat="44.39213" lon="5.5291">
        <ele>875</ele>
        <time>2019-06-07T08:47:28Z</time>
      </trkpt>
      <trkpt lat="44.39218" lon="5.52912">
        <ele>875</ele>
        <time>2019-06-07T08:47:29Z</time>
      </trkpt>
      <trkpt lat="44.39223" lon="5.52913">
        <ele>875</ele>
        <time>2019-06-07T08:47:30Z</time>
      </trkpt>
      <trkpt lat="44.39228" lon="5.52914">
        <ele>875</ele>
        <time>2019-06-07T08:47:31Z</time>
      </trkpt>
      <trkpt lat="44.39233" lon="5.52915">
        <ele>875</ele>
        <time>2019-06-07T08:47:32Z</time>
      </trkpt>
      <trkpt lat="44.39238" lon="5.52916">
        <ele>875</ele>
        <time>2019-06-07T08:47:33Z</time>
      </trkpt>
      <trkpt lat="44.39243" lon="5.52918">
        <ele>875</ele>
        <time>2019-06-07T08:47:34Z</time>
      </trkpt>
      <trkpt lat="44.39248" lon="5.52919">
        <ele>875</ele>
        <time>2019-06-07T08:47:35Z</time>
      </trkpt>
      <trkpt lat="44.39252" lon="5.52921">
        <ele>875</ele>
        <time>2019-06-07T08:47:36Z</time>
      </trkpt>
      <trkpt lat="44.39257" lon="5.52922">
        <ele>875</ele>
        <time>2019-06-07T08:47:37Z</time>
      </trkpt>
      <trkpt lat="44.39262" lon="5.52923">
        <ele>875</ele>
        <time>2019-06-07T08:47:38Z</time>
      </trkpt>
      <trkpt lat="44.39268" lon="5.52924">
        <ele>875</ele>
        <time>2019-06-07T08:47:39Z</time>
      </trkpt>
      <trkpt lat="44.39273" lon="5.52926">
        <ele>875</ele>
        <time>2019-06-07T08:47:40Z</time>
      </trkpt>
      <trkpt lat="44.39279" lon="5.52927">
        <ele>875</ele>
        <time>2019-06-07T08:47:41Z</time>
      </trkpt>
      <trkpt lat="44.39285" lon="5.52928">
        <ele>875</ele>
        <time>2019-06-07T08:47:42Z</time>
      </trkpt>
      <trkpt lat="44.39291" lon="5.5293">
        <ele>875</ele>
        <time>2019-06-07T08:47:43Z</time>
      </trkpt>
      <trkpt lat="44.39297" lon="5.52931">
        <ele>875</ele>
        <time>2019-06-07T08:47:44Z</time>
      </trkpt>
      <trkpt lat="44.39303" lon="5.52933">
        <ele>875</ele>
        <time>2019-06-07T08:47:45Z</time>
      </trkpt>
      <trkpt lat="44.3931" lon="5.52934">
        <ele>875</ele>
        <time>2019-06-07T08:47:46Z</time>
      </trkpt>
      <trkpt lat="44.39318" lon="5.52936">
        <ele>875</ele>
        <time>2019-06-07T08:47:47Z</time>
      </trkpt>
      <trkpt lat="44.39326" lon="5.52938">
        <ele>875</ele>
        <time>2019-06-07T08:47:48Z</time>
      </trkpt>
      <trkpt lat="44.39333" lon="5.52941">
        <ele>875</ele>
        <time>2019-06-07T08:47:49Z</time>
      </trkpt>
      <trkpt lat="44.3934" lon="5.52944">
        <ele>875</ele>
        <time>2019-06-07T08:47:50Z</time>
      </trkpt>
      <trkpt lat="44.39347" lon="5.52948">
        <ele>875</ele>
        <time>2019-06-07T08:47:51Z</time>
      </trkpt>
      <trkpt lat="44.39354" lon="5.52953">
        <ele>875</ele>
        <time>2019-06-07T08:47:52Z</time>
      </trkpt>
      <trkpt lat="44.3936" lon="5.52958">
        <ele>875</ele>
        <time>2019-06-07T08:47:53Z</time>
      </trkpt>
      <trkpt lat="44.39366" lon="5.52965">
        <ele>875</ele>
        <time>2019-06-07T08:47:54Z</time>
      </trkpt>
      <trkpt lat="44.39372" lon="5.52973">
        <ele>875</ele>
        <time>2019-06-07T08:47:55Z</time>
      </trkpt>
      <trkpt lat="44.39377" lon="5.52981">
        <ele>875</ele>
        <time>2019-06-07T08:47:56Z</time>
      </trkpt>
      <trkpt lat="44.39383" lon="5.52989">
        <ele>875</ele>
        <time>2019-06-07T08:47:57Z</time>
      </trkpt>
      <trkpt lat="44.39389" lon="5.52996">
        <ele>875</ele>
        <time>2019-06-07T08:47:58Z</time>
      </trkpt>
      <trkpt lat="44.39397" lon="5.53002">
        <ele>875</ele>
        <time>2019-06-07T08:47:59Z</time>
      </trkpt>
      <trkpt lat="44.39405" lon="5.53006">
        <ele>875</ele>
        <time>2019-06-07T08:48:00Z</time>
      </trkpt>
      <trkpt lat="44.39415" lon="5.53009">
        <ele>874</ele>
        <time>2019-06-07T08:48:01Z</time>
      </trkpt>
      <trkpt lat="44.39424" lon="5.53012">
        <ele>874</ele>
        <time>2019-06-07T08:48:02Z</time>
      </trkpt>
      <trkpt lat="44.39433" lon="5.53017">
        <ele>873</ele>
        <time>2019-06-07T08:48:03Z</time>
      </trkpt>
      <trkpt lat="44.39442" lon="5.53022">
        <ele>873</ele>
        <time>2019-06-07T08:48:04Z</time>
      </trkpt>
      <trkpt lat="44.3945" lon="5.53027">
        <ele>872</ele>
        <time>2019-06-07T08:48:05Z</time>
      </trkpt>
      <trkpt lat="44.39459" lon="5.53032">
        <ele>871</ele>
        <time>2019-06-07T08:48:06Z</time>
      </trkpt>
      <trkpt lat="44.39467" lon="5.53035">
        <ele>871</ele>
        <time>2019-06-07T08:48:07Z</time>
      </trkpt>
      <trkpt lat="44.39477" lon="5.53037">
        <ele>870</ele>
        <time>2019-06-07T08:48:08Z</time>
      </trkpt>
      <trkpt lat="44.39486" lon="5.53039">
        <ele>870</ele>
        <time>2019-06-07T08:48:09Z</time>
      </trkpt>
      <trkpt lat="44.39494" lon="5.53042">
        <ele>869</ele>
        <time>2019-06-07T08:48:10Z</time>
      </trkpt>
      <trkpt lat="44.39502" lon="5.53047">
        <ele>869</ele>
        <time>2019-06-07T08:48:11Z</time>
      </trkpt>
      <trkpt lat="44.3951" lon="5.53054">
        <ele>868</ele>
        <time>2019-06-07T08:48:12Z</time>
      </trkpt>
      <trkpt lat="44.39516" lon="5.53062">
        <ele>867</ele>
        <time>2019-06-07T08:48:13Z</time>
      </trkpt>
      <trkpt lat="44.39522" lon="5.53071">
        <ele>867</ele>
        <time>2019-06-07T08:48:14Z</time>
      </trkpt>
      <trkpt lat="44.39528" lon="5.53078">
        <ele>866</ele>
        <time>2019-06-07T08:48:15Z</time>
      </trkpt>
      <trkpt lat="44.39535" lon="5.53082">
        <ele>866</ele>
        <time>2019-06-07T08:48:16Z</time>
      </trkpt>
      <trkpt lat="44.39542" lon="5.53083">
        <ele>865</ele>
        <time>2019-06-07T08:48:17Z</time>
      </trkpt>
      <trkpt lat="44.39548" lon="5.5308">
        <ele>865</ele>
        <time>2019-06-07T08:48:18Z</time>
      </trkpt>
      <trkpt lat="44.39553" lon="5.53073">
        <ele>864</ele>
        <time>2019-06-07T08:48:19Z</time>
      </trkpt>
      <trkpt lat="44.39558" lon="5.53063">
        <ele>863</ele>
        <time>2019-06-07T08:48:20Z</time>
      </trkpt>
      <trkpt lat="44.39562" lon="5.53053">
        <ele>862</ele>
        <time>2019-06-07T08:48:21Z</time>
      </trkpt>
      <trkpt lat="44.39567" lon="5.53043">
        <ele>861</ele>
        <time>2019-06-07T08:48:22Z</time>
      </trkpt>
      <trkpt lat="44.39571" lon="5.53032">
        <ele>860</ele>
        <time>2019-06-07T08:48:23Z</time>
      </trkpt>
      <trkpt lat="44.39576" lon="5.53022">
        <ele>859</ele>
        <time>2019-06-07T08:48:24Z</time>
      </trkpt>
      <trkpt lat="44.39581" lon="5.53012">
        <ele>858</ele>
        <time>2019-06-07T08:48:25Z</time>
      </trkpt>
      <trkpt lat="44.39586" lon="5.53002">
        <ele>858</ele>
        <time>2019-06-07T08:48:26Z</time>
      </trkpt>
      <trkpt lat="44.39592" lon="5.52993">
        <ele>857</ele>
        <time>2019-06-07T08:48:27Z</time>
      </trkpt>
      <trkpt lat="44.39598" lon="5.52985">
        <ele>856</ele>
        <time>2019-06-07T08:48:28Z</time>
      </trkpt>
      <trkpt lat="44.39605" lon="5.5298">
        <ele>855</ele>
        <time>2019-06-07T08:48:29Z</time>
      </trkpt>
      <trkpt lat="44.39612" lon="5.52976">
        <ele>855</ele>
        <time>2019-06-07T08:48:30Z</time>
      </trkpt>
      <trkpt lat="44.3962" lon="5.52974">
        <ele>854</ele>
        <time>2019-06-07T08:48:31Z</time>
      </trkpt>
      <trkpt lat="44.39628" lon="5.52975">
        <ele>853</ele>
        <time>2019-06-07T08:48:32Z</time>
      </trkpt>
      <trkpt lat="44.39637" lon="5.52976">
        <ele>853</ele>
        <time>2019-06-07T08:48:33Z</time>
      </trkpt>
      <trkpt lat="44.39645" lon="5.52979">
        <ele>852</ele>
        <time>2019-06-07T08:48:34Z</time>
      </trkpt>
      <trkpt lat="44.39653" lon="5.52981">
        <ele>852</ele>
        <time>2019-06-07T08:48:35Z</time>
      </trkpt>
      <trkpt lat="44.39663" lon="5.52982">
        <ele>851</ele>
        <time>2019-06-07T08:48:36Z</time>
      </trkpt>
      <trkpt lat="44.39672" lon="5.52984">
        <ele>850</ele>
        <time>2019-06-07T08:48:37Z</time>
      </trkpt>
      <trkpt lat="44.39681" lon="5.52987">
        <ele>850</ele>
        <time>2019-06-07T08:48:38Z</time>
      </trkpt>
      <trkpt lat="44.39689" lon="5.52991">
        <ele>850</ele>
        <time>2019-06-07T08:48:39Z</time>
      </trkpt>
      <trkpt lat="44.39697" lon="5.52998">
        <ele>849</ele>
        <time>2019-06-07T08:48:40Z</time>
      </trkpt>
      <trkpt lat="44.39703" lon="5.53007">
        <ele>849</ele>
        <time>2019-06-07T08:48:41Z</time>
      </trkpt>
      <trkpt lat="44.39708" lon="5.53018">
        <ele>848</ele>
        <time>2019-06-07T08:48:42Z</time>
      </trkpt>
      <trkpt lat="44.39713" lon="5.53027">
        <ele>848</ele>
        <time>2019-06-07T08:48:43Z</time>
      </trkpt>
      <trkpt lat="44.39719" lon="5.53034">
        <ele>847</ele>
        <time>2019-06-07T08:48:44Z</time>
      </trkpt>
      <trkpt lat="44.39725" lon="5.53039">
        <ele>847</ele>
        <time>2019-06-07T08:48:45Z</time>
      </trkpt>
      <trkpt lat="44.39732" lon="5.53041">
        <ele>846</ele>
        <time>2019-06-07T08:48:46Z</time>
      </trkpt>
      <trkpt lat="44.3974" lon="5.53043">
        <ele>846</ele>
        <time>2019-06-07T08:48:47Z</time>
      </trkpt>
      <trkpt lat="44.39748" lon="5.53044">
        <ele>845</ele>
        <time>2019-06-07T08:48:48Z</time>
      </trkpt>
      <trkpt lat="44.39757" lon="5.53045">
        <ele>845</ele>
        <time>2019-06-07T08:48:49Z</time>
      </trkpt>
      <trkpt lat="44.39766" lon="5.53047">
        <ele>844</ele>
        <time>2019-06-07T08:48:50Z</time>
      </trkpt>
      <trkpt lat="44.39774" lon="5.53051">
        <ele>844</ele>
        <time>2019-06-07T08:48:51Z</time>
      </trkpt>
      <trkpt lat="44.39783" lon="5.53054">
        <ele>843</ele>
        <time>2019-06-07T08:48:52Z</time>
      </trkpt>
      <trkpt lat="44.39792" lon="5.53058">
        <ele>843</ele>
        <time>2019-06-07T08:48:53Z</time>
      </trkpt>
      <trkpt lat="44.39801" lon="5.53062">
        <ele>842</ele>
        <time>2019-06-07T08:48:54Z</time>
      </trkpt>
      <trkpt lat="44.39809" lon="5.53065">
        <ele>842</ele>
        <time>2019-06-07T08:48:55Z</time>
      </trkpt>
      <trkpt lat="44.39817" lon="5.53068">
        <ele>841</ele>
        <time>2019-06-07T08:48:56Z</time>
      </trkpt>
      <trkpt lat="44.39824" lon="5.5307">
        <ele>841</ele>
        <time>2019-06-07T08:48:57Z</time>
      </trkpt>
      <trkpt lat="44.39831" lon="5.53069">
        <ele>840</ele>
        <time>2019-06-07T08:48:58Z</time>
      </trkpt>
      <trkpt lat="44.39838" lon="5.53064">
        <ele>839</ele>
        <time>2019-06-07T08:48:59Z</time>
      </trkpt>
      <trkpt lat="44.39843" lon="5.53057">
        <ele>839</ele>
        <time>2019-06-07T08:49:00Z</time>
      </trkpt>
      <trkpt lat="44.39847" lon="5.53046">
        <ele>838</ele>
        <time>2019-06-07T08:49:01Z</time>
      </trkpt>
      <trkpt lat="44.39851" lon="5.53035">
        <ele>837</ele>
        <time>2019-06-07T08:49:02Z</time>
      </trkpt>
      <trkpt lat="44.39854" lon="5.53024">
        <ele>836</ele>
        <time>2019-06-07T08:49:03Z</time>
      </trkpt>
      <trkpt lat="44.39858" lon="5.53014">
        <ele>835</ele>
        <time>2019-06-07T08:49:04Z</time>
      </trkpt>
      <trkpt lat="44.39862" lon="5.53004">
        <ele>835</ele>
        <time>2019-06-07T08:49:05Z</time>
      </trkpt>
      <trkpt lat="44.39868" lon="5.52996">
        <ele>834</ele>
        <time>2019-06-07T08:49:06Z</time>
      </trkpt>
      <trkpt lat="44.39875" lon="5.5299">
        <ele>834</ele>
        <time>2019-06-07T08:49:07Z</time>
      </trkpt>
      <trkpt lat="44.39883" lon="5.52986">
        <ele>833</ele>
        <time>2019-06-07T08:49:08Z</time>
      </trkpt>
      <trkpt lat="44.3989" lon="5.52984">
        <ele>833</ele>
        <time>2019-06-07T08:49:09Z</time>
      </trkpt>
      <trkpt lat="44.39899" lon="5.52985">
        <ele>832</ele>
        <time>2019-06-07T08:49:10Z</time>
      </trkpt>
      <trkpt lat="44.39906" lon="5.52989">
        <ele>832</ele>
        <time>2019-06-07T08:49:11Z</time>
      </trkpt>
      <trkpt lat="44.39914" lon="5.52993">
        <ele>832</ele>
        <time>2019-06-07T08:49:12Z</time>
      </trkpt>
      <trkpt lat="44.39921" lon="5.52996">
        <ele>831</ele>
        <time>2019-06-07T08:49:13Z</time>
      </trkpt>
      <trkpt lat="44.39929" lon="5.52997">
        <ele>831</ele>
        <time>2019-06-07T08:49:14Z</time>
      </trkpt>
      <trkpt lat="44.39938" lon="5.52998">
        <ele>830</ele>
        <time>2019-06-07T08:49:15Z</time>
      </trkpt>
      <trkpt lat="44.39947" lon="5.52997">
        <ele>830</ele>
        <time>2019-06-07T08:49:16Z</time>
      </trkpt>
      <trkpt lat="44.39956" lon="5.52997">
        <ele>830</ele>
        <time>2019-06-07T08:49:17Z</time>
      </trkpt>
      <trkpt lat="44.39964" lon="5.52997">
        <ele>829</ele>
        <time>2019-06-07T08:49:18Z</time>
      </trkpt>
      <trkpt lat="44.39973" lon="5.52999">
        <ele>828</ele>
        <time>2019-06-07T08:49:19Z</time>
      </trkpt>
      <trkpt lat="44.39981" lon="5.53002">
        <ele>828</ele>
        <time>2019-06-07T08:49:20Z</time>
      </trkpt>
      <trkpt lat="44.39989" lon="5.53005">
        <ele>827</ele>
        <time>2019-06-07T08:49:21Z</time>
      </trkpt>
      <trkpt lat="44.39996" lon="5.53008">
        <ele>826</ele>
        <time>2019-06-07T08:49:22Z</time>
      </trkpt>
      <trkpt lat="44.40002" lon="5.53008">
        <ele>826</ele>
        <time>2019-06-07T08:49:23Z</time>
      </trkpt>
      <trkpt lat="44.40008" lon="5.53004">
        <ele>825</ele>
        <time>2019-06-07T08:49:24Z</time>
      </trkpt>
      <trkpt lat="44.40014" lon="5.52998">
        <ele>824</ele>
        <time>2019-06-07T08:49:25Z</time>
      </trkpt>
      <trkpt lat="44.4002" lon="5.52992">
        <ele>824</ele>
        <time>2019-06-07T08:49:26Z</time>
      </trkpt>
      <trkpt lat="44.40026" lon="5.52988">
        <ele>823</ele>
        <time>2019-06-07T08:49:27Z</time>
      </trkpt>
      <trkpt lat="44.40034" lon="5.52986">
        <ele>822</ele>
        <time>2019-06-07T08:49:28Z</time>
      </trkpt>
      <trkpt lat="44.40041" lon="5.52987">
        <ele>821</ele>
        <time>2019-06-07T08:49:29Z</time>
      </trkpt>
      <trkpt lat="44.40049" lon="5.5299">
        <ele>821</ele>
        <time>2019-06-07T08:49:30Z</time>
      </trkpt>
      <trkpt lat="44.40056" lon="5.52993">
        <ele>821</ele>
        <time>2019-06-07T08:49:31Z</time>
      </trkpt>
      <trkpt lat="44.40063" lon="5.52994">
        <ele>820</ele>
        <time>2019-06-07T08:49:32Z</time>
      </trkpt>
      <trkpt lat="44.40071" lon="5.52993">
        <ele>820</ele>
        <time>2019-06-07T08:49:33Z</time>
      </trkpt>
      <trkpt lat="44.40078" lon="5.5299">
        <ele>819</ele>
        <time>2019-06-07T08:49:34Z</time>
      </trkpt>
      <trkpt lat="44.40086" lon="5.52984">
        <ele>819</ele>
        <time>2019-06-07T08:49:35Z</time>
      </trkpt>
      <trkpt lat="44.40092" lon="5.52976">
        <ele>818</ele>
        <time>2019-06-07T08:49:36Z</time>
      </trkpt>
      <trkpt lat="44.40098" lon="5.52966">
        <ele>818</ele>
        <time>2019-06-07T08:49:37Z</time>
      </trkpt>
      <trkpt lat="44.40103" lon="5.52956">
        <ele>817</ele>
        <time>2019-06-07T08:49:38Z</time>
      </trkpt>
      <trkpt lat="44.40108" lon="5.52946">
        <ele>817</ele>
        <time>2019-06-07T08:49:39Z</time>
      </trkpt>
      <trkpt lat="44.40113" lon="5.52935">
        <ele>816</ele>
        <time>2019-06-07T08:49:40Z</time>
      </trkpt>
      <trkpt lat="44.40117" lon="5.52924">
        <ele>816</ele>
        <time>2019-06-07T08:49:41Z</time>
      </trkpt>
      <trkpt lat="44.40121" lon="5.52913">
        <ele>815</ele>
        <time>2019-06-07T08:49:42Z</time>
      </trkpt>
      <trkpt lat="44.40126" lon="5.52904">
        <ele>814</ele>
        <time>2019-06-07T08:49:43Z</time>
      </trkpt>
      <trkpt lat="44.40132" lon="5.52895">
        <ele>814</ele>
        <time>2019-06-07T08:49:44Z</time>
      </trkpt>
      <trkpt lat="44.40138" lon="5.52888">
        <ele>814</ele>
        <time>2019-06-07T08:49:45Z</time>
      </trkpt>
      <trkpt lat="44.40145" lon="5.52881">
        <ele>813</ele>
        <time>2019-06-07T08:49:46Z</time>
      </trkpt>
      <trkpt lat="44.40152" lon="5.52874">
        <ele>813</ele>
        <time>2019-06-07T08:49:47Z</time>
      </trkpt>
      <trkpt lat="44.40159" lon="5.52867">
        <ele>812</ele>
        <time>2019-06-07T08:49:48Z</time>
      </trkpt>
      <trkpt lat="44.40166" lon="5.52859">
        <ele>812</ele>
        <time>2019-06-07T08:49:49Z</time>
      </trkpt>
      <trkpt lat="44.40173" lon="5.52851">
        <ele>812</ele>
        <time>2019-06-07T08:49:50Z</time>
      </trkpt>
      <trkpt lat="44.4018" lon="5.52843">
        <ele>811</ele>
        <time>2019-06-07T08:49:51Z</time>
      </trkpt>
      <trkpt lat="44.40187" lon="5.52836">
        <ele>811</ele>
        <time>2019-06-07T08:49:52Z</time>
      </trkpt>
      <trkpt lat="44.40194" lon="5.52829">
        <ele>810</ele>
        <time>2019-06-07T08:49:53Z</time>
      </trkpt>
      <trkpt lat="44.40202" lon="5.52824">
        <ele>810</ele>
        <time>2019-06-07T08:49:54Z</time>
      </trkpt>
      <trkpt lat="44.4021" lon="5.5282">
        <ele>810</ele>
        <time>2019-06-07T08:49:55Z</time>
      </trkpt>
      <trkpt lat="44.40218" lon="5.52817">
        <ele>809</ele>
        <time>2019-06-07T08:49:56Z</time>
      </trkpt>
      <trkpt lat="44.40225" lon="5.52814">
        <ele>809</ele>
        <time>2019-06-07T08:49:57Z</time>
      </trkpt>
      <trkpt lat="44.40232" lon="5.52809">
        <ele>809</ele>
        <time>2019-06-07T08:49:58Z</time>
      </trkpt>
      <trkpt lat="44.40239" lon="5.52801">
        <ele>808</ele>
        <time>2019-06-07T08:49:59Z</time>
      </trkpt>
      <trkpt lat="44.40243" lon="5.52792">
        <ele>808</ele>
        <time>2019-06-07T08:50:00Z</time>
      </trkpt>
      <trkpt lat="44.40246" lon="5.5278">
        <ele>807</ele>
        <time>2019-06-07T08:50:01Z</time>
      </trkpt>
      <trkpt lat="44.40247" lon="5.52767">
        <ele>807</ele>
        <time>2019-06-07T08:50:02Z</time>
      </trkpt>
      <trkpt lat="44.40248" lon="5.52755">
        <ele>807</ele>
        <time>2019-06-07T08:50:03Z</time>
      </trkpt>
      <trkpt lat="44.40249" lon="5.52742">
        <ele>806</ele>
        <time>2019-06-07T08:50:04Z</time>
      </trkpt>
      <trkpt lat="44.40249" lon="5.52729">
        <ele>806</ele>
        <time>2019-06-07T08:50:05Z</time>
      </trkpt>
      <trkpt lat="44.40249" lon="5.52716">
        <ele>805</ele>
        <time>2019-06-07T08:50:06Z</time>
      </trkpt>
      <trkpt lat="44.4025" lon="5.52703">
        <ele>805</ele>
        <time>2019-06-07T08:50:07Z</time>
      </trkpt>
      <trkpt lat="44.4025" lon="5.5269">
        <ele>804</ele>
        <time>2019-06-07T08:50:08Z</time>
      </trkpt>
      <trkpt lat="44.4025" lon="5.52676">
        <ele>803</ele>
        <time>2019-06-07T08:50:09Z</time>
      </trkpt>
      <trkpt lat="44.40251" lon="5.52663">
        <ele>803</ele>
        <time>2019-06-07T08:50:10Z</time>
      </trkpt>
      <trkpt lat="44.40253" lon="5.52651">
        <ele>802</ele>
        <time>2019-06-07T08:50:11Z</time>
      </trkpt>
      <trkpt lat="44.40255" lon="5.52639">
        <ele>801</ele>
        <time>2019-06-07T08:50:12Z</time>
      </trkpt>
      <trkpt lat="44.40258" lon="5.52627">
        <ele>801</ele>
        <time>2019-06-07T08:50:13Z</time>
      </trkpt>
      <trkpt lat="44.40262" lon="5.52616">
        <ele>800</ele>
        <time>2019-06-07T08:50:14Z</time>
      </trkpt>
      <trkpt lat="44.40268" lon="5.52606">
        <ele>800</ele>
        <time>2019-06-07T08:50:15Z</time>
      </trkpt>
      <trkpt lat="44.40274" lon="5.52598">
        <ele>799</ele>
        <time>2019-06-07T08:50:16Z</time>
      </trkpt>
      <trkpt lat="44.40281" lon="5.52592">
        <ele>799</ele>
        <time>2019-06-07T08:50:17Z</time>
      </trkpt>
      <trkpt lat="44.40289" lon="5.52587">
        <ele>798</ele>
        <time>2019-06-07T08:50:18Z</time>
      </trkpt>
      <trkpt lat="44.40295" lon="5.52583">
        <ele>798</ele>
        <time>2019-06-07T08:50:19Z</time>
      </trkpt>
      <trkpt lat="44.40302" lon="5.5258">
        <ele>798</ele>
        <time>2019-06-07T08:50:20Z</time>
      </trkpt>
      <trkpt lat="44.40309" lon="5.52578">
        <ele>798</ele>
        <time>2019-06-07T08:50:21Z</time>
      </trkpt>
      <trkpt lat="44.40315" lon="5.52578">
        <ele>797</ele>
        <time>2019-06-07T08:50:22Z</time>
      </trkpt>
      <trkpt lat="44.40321" lon="5.52579">
        <ele>797</ele>
        <time>2019-06-07T08:50:23Z</time>
      </trkpt>
      <trkpt lat="44.40327" lon="5.52582">
        <ele>797</ele>
        <time>2019-06-07T08:50:24Z</time>
      </trkpt>
      <trkpt lat="44.40332" lon="5.52586">
        <ele>796</ele>
        <time>2019-06-07T08:50:25Z</time>
      </trkpt>
      <trkpt lat="44.40337" lon="5.52591">
        <ele>796</ele>
        <time>2019-06-07T08:50:26Z</time>
      </trkpt>
      <trkpt lat="44.40342" lon="5.52595">
        <ele>795</ele>
        <time>2019-06-07T08:50:27Z</time>
      </trkpt>
      <trkpt lat="44.40346" lon="5.52599">
        <ele>795</ele>
        <time>2019-06-07T08:50:28Z</time>
      </trkpt>
      <trkpt lat="44.40351" lon="5.52603">
        <ele>795</ele>
        <time>2019-06-07T08:50:29Z</time>
      </trkpt>
      <trkpt lat="44.40356" lon="5.52608">
        <ele>795</ele>
        <time>2019-06-07T08:50:30Z</time>
      </trkpt>
      <trkpt lat="44.4036" lon="5.52611">
        <ele>795</ele>
        <time>2019-06-07T08:50:31Z</time>
      </trkpt>
      <trkpt lat="44.40365" lon="5.52615">
        <ele>795</ele>
        <time>2019-06-07T08:50:32Z</time>
      </trkpt>
      <trkpt lat="44.4037" lon="5.52619">
        <ele>795</ele>
        <time>2019-06-07T08:50:33Z</time>
      </trkpt>
      <trkpt lat="44.40376" lon="5.52623">
        <ele>795</ele>
        <time>2019-06-07T08:50:34Z</time>
      </trkpt>
      <trkpt lat="44.40381" lon="5.52627">
        <ele>795</ele>
        <time>2019-06-07T08:50:35Z</time>
      </trkpt>
      <trkpt lat="44.40386" lon="5.5263">
        <ele>795</ele>
        <time>2019-06-07T08:50:36Z</time>
      </trkpt>
      <trkpt lat="44.40392" lon="5.52634">
        <ele>795</ele>
        <time>2019-06-07T08:50:37Z</time>
      </trkpt>
      <trkpt lat="44.40397" lon="5.52638">
        <ele>795</ele>
        <time>2019-06-07T08:50:38Z</time>
      </trkpt>
      <trkpt lat="44.40403" lon="5.52642">
        <ele>795</ele>
        <time>2019-06-07T08:50:39Z</time>
      </trkpt>
      <trkpt lat="44.40408" lon="5.52646">
        <ele>795</ele>
        <time>2019-06-07T08:50:40Z</time>
      </trkpt>
      <trkpt lat="44.40413" lon="5.5265">
        <ele>795</ele>
        <time>2019-06-07T08:50:41Z</time>
      </trkpt>
      <trkpt lat="44.40419" lon="5.52654">
        <ele>795</ele>
        <time>2019-06-07T08:50:42Z</time>
      </trkpt>
      <trkpt lat="44.40424" lon="5.52659">
        <ele>795</ele>
        <time>2019-06-07T08:50:43Z</time>
      </trkpt>
      <trkpt lat="44.40428" lon="5.52665">
        <ele>795</ele>
        <time>2019-06-07T08:50:44Z</time>
      </trkpt>
      <trkpt lat="44.40433" lon="5.5267">
        <ele>795</ele>
        <time>2019-06-07T08:50:45Z</time>
      </trkpt>
      <trkpt lat="44.40438" lon="5.52676">
        <ele>795</ele>
        <time>2019-06-07T08:50:46Z</time>
      </trkpt>
      <trkpt lat="44.40442" lon="5.52682">
        <ele>795</ele>
        <time>2019-06-07T08:50:47Z</time>
      </trkpt>
      <trkpt lat="44.40447" lon="5.52688">
        <ele>795</ele>
        <time>2019-06-07T08:50:48Z</time>
      </trkpt>
      <trkpt lat="44.40451" lon="5.52694">
        <ele>795</ele>
        <time>2019-06-07T08:50:49Z</time>
      </trkpt>
      <trkpt lat="44.40455" lon="5.52701">
        <ele>795</ele>
        <time>2019-06-07T08:50:50Z</time>
      </trkpt>
      <trkpt lat="44.40459" lon="5.52707">
        <ele>795</ele>
        <time>2019-06-07T08:50:51Z</time>
      </trkpt>
      <trkpt lat="44.40463" lon="5.52713">
        <ele>795</ele>
        <time>2019-06-07T08:50:52Z</time>
      </trkpt>
      <trkpt lat="44.40467" lon="5.52719">
        <ele>795</ele>
        <time>2019-06-07T08:50:53Z</time>
      </trkpt>
      <trkpt lat="44.40471" lon="5.52726">
        <ele>795</ele>
        <time>2019-06-07T08:50:54Z</time>
      </trkpt>
      <trkpt lat="44.40474" lon="5.52732">
        <ele>795</ele>
        <time>2019-06-07T08:50:55Z</time>
      </trkpt>
      <trkpt lat="44.40479" lon="5.52737">
        <ele>795</ele>
        <time>2019-06-07T08:50:56Z</time>
      </trkpt>
      <trkpt lat="44.40482" lon="5.52743">
        <ele>795</ele>
        <time>2019-06-07T08:50:57Z</time>
      </trkpt>
      <trkpt lat="44.40487" lon="5.52748">
        <ele>795</ele>
        <time>2019-06-07T08:50:58Z</time>
      </trkpt>
      <trkpt lat="44.40491" lon="5.52753">
        <ele>795</ele>
        <time>2019-06-07T08:50:59Z</time>
      </trkpt>
      <trkpt lat="44.40495" lon="5.52758">
        <ele>795</ele>
        <time>2019-06-07T08:51:00Z</time>
      </trkpt>
      <trkpt lat="44.40499" lon="5.52762">
        <ele>795</ele>
        <time>2019-06-07T08:51:01Z</time>
      </trkpt>
      <trkpt lat="44.40504" lon="5.52766">
        <ele>795</ele>
        <time>2019-06-07T08:51:02Z</time>
      </trkpt>
      <trkpt lat="44.40508" lon="5.5277">
        <ele>795</ele>
        <time>2019-06-07T08:51:03Z</time>
      </trkpt>
      <trkpt lat="44.40513" lon="5.52773">
        <ele>795</ele>
        <time>2019-06-07T08:51:04Z</time>
      </trkpt>
      <trkpt lat="44.40518" lon="5.52776">
        <ele>795</ele>
        <time>2019-06-07T08:51:05Z</time>
      </trkpt>
      <trkpt lat="44.40523" lon="5.52779">
        <ele>795</ele>
        <time>2019-06-07T08:51:06Z</time>
      </trkpt>
      <trkpt lat="44.40527" lon="5.52781">
        <ele>795</ele>
        <time>2019-06-07T08:51:07Z</time>
      </trkpt>
      <trkpt lat="44.40531" lon="5.52784">
        <ele>795</ele>
        <time>2019-06-07T08:51:08Z</time>
      </trkpt>
      <trkpt lat="44.40535" lon="5.52786">
        <ele>796</ele>
        <time>2019-06-07T08:51:09Z</time>
      </trkpt>
      <trkpt lat="44.4054" lon="5.52788">
        <ele>796</ele>
        <time>2019-06-07T08:51:10Z</time>
      </trkpt>
      <trkpt lat="44.40544" lon="5.52789">
        <ele>796</ele>
        <time>2019-06-07T08:51:11Z</time>
      </trkpt>
      <trkpt lat="44.40548" lon="5.52791">
        <ele>796</ele>
        <time>2019-06-07T08:51:12Z</time>
      </trkpt>
      <trkpt lat="44.40553" lon="5.52792">
        <ele>796</ele>
        <time>2019-06-07T08:51:13Z</time>
      </trkpt>
      <trkpt lat="44.40557" lon="5.52794">
        <ele>796</ele>
        <time>2019-06-07T08:51:14Z</time>
      </trkpt>
      <trkpt lat="44.40561" lon="5.52795">
        <ele>797</ele>
        <time>2019-06-07T08:51:15Z</time>
      </trkpt>
      <trkpt lat="44.40565" lon="5.52797">
        <ele>797</ele>
        <time>2019-06-07T08:51:16Z</time>
      </trkpt>
      <trkpt lat="44.40569" lon="5.52798">
        <ele>797</ele>
        <time>2019-06-07T08:51:17Z</time>
      </trkpt>
      <trkpt lat="44.40573" lon="5.52799">
        <ele>797</ele>
        <time>2019-06-07T08:51:18Z</time>
      </trkpt>
      <trkpt lat="44.40577" lon="5.528">
        <ele>797</ele>
        <time>2019-06-07T08:51:19Z</time>
      </trkpt>
      <trkpt lat="44.40582" lon="5.52802">
        <ele>798</ele>
        <time>2019-06-07T08:51:20Z</time>
      </trkpt>
      <trkpt lat="44.40586" lon="5.52803">
        <ele>798</ele>
        <time>2019-06-07T08:51:21Z</time>
      </trkpt>
      <trkpt lat="44.4059" lon="5.52804">
        <ele>798</ele>
        <time>2019-06-07T08:51:22Z</time>
      </trkpt>
      <trkpt lat="44.40594" lon="5.52805">
        <ele>799</ele>
        <time>2019-06-07T08:51:23Z</time>
      </trkpt>
      <trkpt lat="44.40598" lon="5.52807">
        <ele>799</ele>
        <time>2019-06-07T08:51:24Z</time>
      </trkpt>
      <trkpt lat="44.40602" lon="5.52808">
        <ele>799</ele>
        <time>2019-06-07T08:51:25Z</time>
      </trkpt>
      <trkpt lat="44.40606" lon="5.5281">
        <ele>800</ele>
        <time>2019-06-07T08:51:26Z</time>
      </trkpt>
      <trkpt lat="44.4061" lon="5.52812">
        <ele>800</ele>
        <time>2019-06-07T08:51:27Z</time>
      </trkpt>
      <trkpt lat="44.40613" lon="5.52814">
        <ele>800</ele>
        <time>2019-06-07T08:51:28Z</time>
      </trkpt>
      <trkpt lat="44.40617" lon="5.52816">
        <ele>800</ele>
        <time>2019-06-07T08:51:29Z</time>
      </trkpt>
      <trkpt lat="44.4062" lon="5.52819">
        <ele>801</ele>
        <time>2019-06-07T08:51:30Z</time>
      </trkpt>
      <trkpt lat="44.40623" lon="5.52822">
        <ele>801</ele>
        <time>2019-06-07T08:51:31Z</time>
      </trkpt>
      <trkpt lat="44.40627" lon="5.52825">
        <ele>801</ele>
        <time>2019-06-07T08:51:32Z</time>
      </trkpt>
      <trkpt lat="44.4063" lon="5.52828">
        <ele>801</ele>
        <time>2019-06-07T08:51:33Z</time>
      </trkpt>
      <trkpt lat="44.40632" lon="5.52832">
        <ele>802</ele>
        <time>2019-06-07T08:51:34Z</time>
      </trkpt>
      <trkpt lat="44.40635" lon="5.52835">
        <ele>802</ele>
        <time>2019-06-07T08:51:35Z</time>
      </trkpt>
      <trkpt lat="44.40638" lon="5.52839">
        <ele>802</ele>
        <time>2019-06-07T08:51:36Z</time>
      </trkpt>
      <trkpt lat="44.4064" lon="5.52843">
        <ele>803</ele>
        <time>2019-06-07T08:51:37Z</time>
      </trkpt>
      <trkpt lat="44.40643" lon="5.52846">
        <ele>803</ele>
        <time>2019-06-07T08:51:38Z</time>
      </trkpt>
      <trkpt lat="44.40645" lon="5.52851">
        <ele>803</ele>
        <time>2019-06-07T08:51:39Z</time>
      </trkpt>
      <trkpt lat="44.40646" lon="5.52855">
        <ele>803</ele>
        <time>2019-06-07T08:51:40Z</time>
      </trkpt>
      <trkpt lat="44.40648" lon="5.5286">
        <ele>804</ele>
        <time>2019-06-07T08:51:41Z</time>
      </trkpt>
      <trkpt lat="44.4065" lon="5.52865">
        <ele>804</ele>
        <time>2019-06-07T08:51:42Z</time>
      </trkpt>
      <trkpt lat="44.40651" lon="5.5287">
        <ele>804</ele>
        <time>2019-06-07T08:51:43Z</time>
      </trkpt>
      <trkpt lat="44.40652" lon="5.52875">
        <ele>804</ele>
        <time>2019-06-07T08:51:44Z</time>
      </trkpt>
      <trkpt lat="44.40654" lon="5.5288">
        <ele>804</ele>
        <time>2019-06-07T08:51:45Z</time>
      </trkpt>
      <trkpt lat="44.40654" lon="5.52885">
        <ele>804</ele>
        <time>2019-06-07T08:51:46Z</time>
      </trkpt>
      <trkpt lat="44.40654" lon="5.5289">
        <ele>804</ele>
        <time>2019-06-07T08:51:47Z</time>
      </trkpt>
      <trkpt lat="44.40654" lon="5.52895">
        <ele>805</ele>
        <time>2019-06-07T08:51:48Z</time>
      </trkpt>
      <trkpt lat="44.40654" lon="5.529">
        <ele>805</ele>
        <time>2019-06-07T08:51:49Z</time>
      </trkpt>
      <trkpt lat="44.40654" lon="5.52905">
        <ele>805</ele>
        <time>2019-06-07T08:51:50Z</time>
      </trkpt>
      <trkpt lat="44.40654" lon="5.5291">
        <ele>806</ele>
        <time>2019-06-07T08:51:51Z</time>
      </trkpt>
      <trkpt lat="44.40654" lon="5.52915">
        <ele>806</ele>
        <time>2019-06-07T08:51:52Z</time>
      </trkpt>
      <trkpt lat="44.40654" lon="5.52919">
        <ele>806</ele>
        <time>2019-06-07T08:51:53Z</time>
      </trkpt>
      <trkpt lat="44.40653" lon="5.52923">
        <ele>807</ele>
        <time>2019-06-07T08:51:54Z</time>
      </trkpt>
      <trkpt lat="44.40652" lon="5.52928">
        <ele>807</ele>
        <time>2019-06-07T08:51:55Z</time>
      </trkpt>
      <trkpt lat="44.40651" lon="5.52932">
        <ele>807</ele>
        <time>2019-06-07T08:51:56Z</time>
      </trkpt>
      <trkpt lat="44.4065" lon="5.52937">
        <ele>808</ele>
        <time>2019-06-07T08:51:57Z</time>
      </trkpt>
      <trkpt lat="44.40649" lon="5.52941">
        <ele>808</ele>
        <time>2019-06-07T08:51:58Z</time>
      </trkpt>
      <trkpt lat="44.40648" lon="5.52946">
        <ele>808</ele>
        <time>2019-06-07T08:51:59Z</time>
      </trkpt>
      <trkpt lat="44.40647" lon="5.52949">
        <ele>808</ele>
        <time>2019-06-07T08:52:00Z</time>
      </trkpt>
      <trkpt lat="44.40645" lon="5.52953">
        <ele>809</ele>
        <time>2019-06-07T08:52:01Z</time>
      </trkpt>
      <trkpt lat="44.40644" lon="5.52957">
        <ele>809</ele>
        <time>2019-06-07T08:52:02Z</time>
      </trkpt>
      <trkpt lat="44.40642" lon="5.52961">
        <ele>809</ele>
        <time>2019-06-07T08:52:03Z</time>
      </trkpt>
      <trkpt lat="44.4064" lon="5.52964">
        <ele>809</ele>
        <time>2019-06-07T08:52:04Z</time>
      </trkpt>
      <trkpt lat="44.40638" lon="5.52968">
        <ele>810</ele>
        <time>2019-06-07T08:52:05Z</time>
      </trkpt>
      <trkpt lat="44.40637" lon="5.52972">
        <ele>810</ele>
        <time>2019-06-07T08:52:06Z</time>
      </trkpt>
      <trkpt lat="44.40635" lon="5.52975">
        <ele>810</ele>
        <time>2019-06-07T08:52:07Z</time>
      </trkpt>
      <trkpt lat="44.40632" lon="5.52979">
        <ele>811</ele>
        <time>2019-06-07T08:52:08Z</time>
      </trkpt>
      <trkpt lat="44.4063" lon="5.52982">
        <ele>811</ele>
        <time>2019-06-07T08:52:09Z</time>
      </trkpt>
      <trkpt lat="44.40628" lon="5.52985">
        <ele>811</ele>
        <time>2019-06-07T08:52:10Z</time>
      </trkpt>
      <trkpt lat="44.40625" lon="5.52987">
        <ele>812</ele>
        <time>2019-06-07T08:52:11Z</time>
      </trkpt>
      <trkpt lat="44.40622" lon="5.5299">
        <ele>812</ele>
        <time>2019-06-07T08:52:12Z</time>
      </trkpt>
      <trkpt lat="44.4062" lon="5.52993">
        <ele>812</ele>
        <time>2019-06-07T08:52:13Z</time>
      </trkpt>
      <trkpt lat="44.40617" lon="5.52995">
        <ele>813</ele>
        <time>2019-06-07T08:52:14Z</time>
      </trkpt>
      <trkpt lat="44.40614" lon="5.52997">
        <ele>813</ele>
        <time>2019-06-07T08:52:15Z</time>
      </trkpt>
      <trkpt lat="44.40611" lon="5.53">
        <ele>814</ele>
        <time>2019-06-07T08:52:16Z</time>
      </trkpt>
      <trkpt lat="44.40608" lon="5.53002">
        <ele>814</ele>
        <time>2019-06-07T08:52:17Z</time>
      </trkpt>
      <trkpt lat="44.40605" lon="5.53004">
        <ele>814</ele>
        <time>2019-06-07T08:52:18Z</time>
      </trkpt>
      <trkpt lat="44.40603" lon="5.53006">
        <ele>814</ele>
        <time>2019-06-07T08:52:19Z</time>
      </trkpt>
      <trkpt lat="44.406" lon="5.53008">
        <ele>815</ele>
        <time>2019-06-07T08:52:20Z</time>
      </trkpt>
      <trkpt lat="44.40597" lon="5.5301">
        <ele>815</ele>
        <time>2019-06-07T08:52:21Z</time>
      </trkpt>
      <trkpt lat="44.40594" lon="5.53012">
        <ele>815</ele>
        <time>2019-06-07T08:52:22Z</time>
      </trkpt>
      <trkpt lat="44.40592" lon="5.53014">
        <ele>815</ele>
        <time>2019-06-07T08:52:23Z</time>
      </trkpt>
      <trkpt lat="44.40589" lon="5.53016">
        <ele>815</ele>
        <time>2019-06-07T08:52:24Z</time>
      </trkpt>
      <trkpt lat="44.40586" lon="5.53018">
        <ele>815</ele>
        <time>2019-06-07T08:52:25Z</time>
      </trkpt>
      <trkpt lat="44.40583" lon="5.5302">
        <ele>815</ele>
        <time>2019-06-07T08:52:26Z</time>
      </trkpt>
      <trkpt lat="44.40581" lon="5.53022">
        <ele>816</ele>
        <time>2019-06-07T08:52:27Z</time>
      </trkpt>
      <trkpt lat="44.40578" lon="5.53024">
        <ele>816</ele>
        <time>2019-06-07T08:52:28Z</time>
      </trkpt>
      <trkpt lat="44.40575" lon="5.53027">
        <ele>816</ele>
        <time>2019-06-07T08:52:29Z</time>
      </trkpt>
      <trkpt lat="44.40572" lon="5.5303">
        <ele>816</ele>
        <time>2019-06-07T08:52:30Z</time>
      </trkpt>
      <trkpt lat="44.40569" lon="5.53033">
        <ele>816</ele>
        <time>2019-06-07T08:52:31Z</time>
      </trkpt>
      <trkpt lat="44.40567" lon="5.53036">
        <ele>816</ele>
        <time>2019-06-07T08:52:32Z</time>
      </trkpt>
      <trkpt lat="44.40564" lon="5.5304">
        <ele>816</ele>
        <time>2019-06-07T08:52:33Z</time>
      </trkpt>
      <trkpt lat="44.40561" lon="5.53044">
        <ele>816</ele>
        <time>2019-06-07T08:52:34Z</time>
      </trkpt>
      <trkpt lat="44.40559" lon="5.53049">
        <ele>816</ele>
        <time>2019-06-07T08:52:35Z</time>
      </trkpt>
      <trkpt lat="44.40556" lon="5.53054">
        <ele>816</ele>
        <time>2019-06-07T08:52:36Z</time>
      </trkpt>
      <trkpt lat="44.40554" lon="5.53059">
        <ele>816</ele>
        <time>2019-06-07T08:52:37Z</time>
      </trkpt>
      <trkpt lat="44.40553" lon="5.53065">
        <ele>816</ele>
        <time>2019-06-07T08:52:38Z</time>
      </trkpt>
      <trkpt lat="44.40551" lon="5.5307">
        <ele>816</ele>
        <time>2019-06-07T08:52:39Z</time>
      </trkpt>
      <trkpt lat="44.4055" lon="5.53077">
        <ele>816</ele>
        <time>2019-06-07T08:52:40Z</time>
      </trkpt>
      <trkpt lat="44.40549" lon="5.53083">
        <ele>816</ele>
        <time>2019-06-07T08:52:41Z</time>
      </trkpt>
      <trkpt lat="44.40548" lon="5.5309">
        <ele>816</ele>
        <time>2019-06-07T08:52:42Z</time>
      </trkpt>
      <trkpt lat="44.40548" lon="5.53096">
        <ele>816</ele>
        <time>2019-06-07T08:52:43Z</time>
      </trkpt>
      <trkpt lat="44.40548" lon="5.53103">
        <ele>816</ele>
        <time>2019-06-07T08:52:44Z</time>
      </trkpt>
      <trkpt lat="44.40548" lon="5.5311">
        <ele>816</ele>
        <time>2019-06-07T08:52:45Z</time>
      </trkpt>
      <trkpt lat="44.40549" lon="5.53116">
        <ele>816</ele>
        <time>2019-06-07T08:52:46Z</time>
      </trkpt>
      <trkpt lat="44.40551" lon="5.53123">
        <ele>816</ele>
        <time>2019-06-07T08:52:47Z</time>
      </trkpt>
      <trkpt lat="44.40552" lon="5.53129">
        <ele>816</ele>
        <time>2019-06-07T08:52:48Z</time>
      </trkpt>
      <trkpt lat="44.40554" lon="5.53136">
        <ele>816</ele>
        <time>2019-06-07T08:52:49Z</time>
      </trkpt>
      <trkpt lat="44.40556" lon="5.53142">
        <ele>816</ele>
        <time>2019-06-07T08:52:50Z</time>
      </trkpt>
      <trkpt lat="44.40559" lon="5.53148">
        <ele>816</ele>
        <time>2019-06-07T08:52:51Z</time>
      </trkpt>
      <trkpt lat="44.40561" lon="5.53155">
        <ele>816</ele>
        <time>2019-06-07T08:52:52Z</time>
      </trkpt>
      <trkpt lat="44.40564" lon="5.5316">
        <ele>816</ele>
        <time>2019-06-07T08:52:53Z</time>
      </trkpt>
      <trkpt lat="44.40567" lon="5.53166">
        <ele>816</ele>
        <time>2019-06-07T08:52:54Z</time>
      </trkpt>
      <trkpt lat="44.4057" lon="5.53172">
        <ele>816</ele>
        <time>2019-06-07T08:52:55Z</time>
      </trkpt>
      <trkpt lat="44.40574" lon="5.53177">
        <ele>816</ele>
        <time>2019-06-07T08:52:56Z</time>
      </trkpt>
      <trkpt lat="44.40577" lon="5.53182">
        <ele>816</ele>
        <time>2019-06-07T08:52:57Z</time>
      </trkpt>
      <trkpt lat="44.40582" lon="5.53187">
        <ele>816</ele>
        <time>2019-06-07T08:52:58Z</time>
      </trkpt>
      <trkpt lat="44.40586" lon="5.53191">
        <ele>816</ele>
        <time>2019-06-07T08:52:59Z</time>
      </trkpt>
      <trkpt lat="44.40591" lon="5.53195">
        <ele>816</ele>
        <time>2019-06-07T08:53:00Z</time>
      </trkpt>
      <trkpt lat="44.40596" lon="5.53198">
        <ele>816</ele>
        <time>2019-06-07T08:53:01Z</time>
      </trkpt>
      <trkpt lat="44.40601" lon="5.53202">
        <ele>816</ele>
        <time>2019-06-07T08:53:02Z</time>
      </trkpt>
      <trkpt lat="44.40606" lon="5.53205">
        <ele>816</ele>
        <time>2019-06-07T08:53:03Z</time>
      </trkpt>
      <trkpt lat="44.40611" lon="5.53208">
        <ele>816</ele>
        <time>2019-06-07T08:53:04Z</time>
      </trkpt>
      <trkpt lat="44.40616" lon="5.53211">
        <ele>816</ele>
        <time>2019-06-07T08:53:05Z</time>
      </trkpt>
      <trkpt lat="44.40621" lon="5.53215">
        <ele>816</ele>
        <time>2019-06-07T08:53:06Z</time>
      </trkpt>
      <trkpt lat="44.40626" lon="5.53218">
        <ele>816</ele>
        <time>2019-06-07T08:53:07Z</time>
      </trkpt>
      <trkpt lat="44.40631" lon="5.5322">
        <ele>816</ele>
        <time>2019-06-07T08:53:08Z</time>
      </trkpt>
      <trkpt lat="44.40636" lon="5.53222">
        <ele>816</ele>
        <time>2019-06-07T08:53:09Z</time>
      </trkpt>
      <trkpt lat="44.40642" lon="5.53224">
        <ele>816</ele>
        <time>2019-06-07T08:53:10Z</time>
      </trkpt>
      <trkpt lat="44.40647" lon="5.53225">
        <ele>816</ele>
        <time>2019-06-07T08:53:11Z</time>
      </trkpt>
      <trkpt lat="44.40652" lon="5.53227">
        <ele>816</ele>
        <time>2019-06-07T08:53:12Z</time>
      </trkpt>
      <trkpt lat="44.40658" lon="5.53228">
        <ele>816</ele>
        <time>2019-06-07T08:53:13Z</time>
      </trkpt>
      <trkpt lat="44.40664" lon="5.5323">
        <ele>816</ele>
        <time>2019-06-07T08:53:14Z</time>
      </trkpt>
      <trkpt lat="44.4067" lon="5.53232">
        <ele>816</ele>
        <time>2019-06-07T08:53:15Z</time>
      </trkpt>
      <trkpt lat="44.40676" lon="5.53235">
        <ele>816</ele>
        <time>2019-06-07T08:53:16Z</time>
      </trkpt>
      <trkpt lat="44.40682" lon="5.53239">
        <ele>816</ele>
        <time>2019-06-07T08:53:17Z</time>
      </trkpt>
      <trkpt lat="44.40688" lon="5.53243">
        <ele>816</ele>
        <time>2019-06-07T08:53:18Z</time>
      </trkpt>
      <trkpt lat="44.40693" lon="5.53248">
        <ele>816</ele>
        <time>2019-06-07T08:53:19Z</time>
      </trkpt>
      <trkpt lat="44.40698" lon="5.53253">
        <ele>816</ele>
        <time>2019-06-07T08:53:20Z</time>
      </trkpt>
      <trkpt lat="44.40703" lon="5.53257">
        <ele>816</ele>
        <time>2019-06-07T08:53:21Z</time>
      </trkpt>
      <trkpt lat="44.40708" lon="5.53262">
        <ele>816</ele>
        <time>2019-06-07T08:53:22Z</time>
      </trkpt>
      <trkpt lat="44.40713" lon="5.53267">
        <ele>816</ele>
        <time>2019-06-07T08:53:23Z</time>
      </trkpt>
      <trkpt lat="44.40718" lon="5.53272">
        <ele>816</ele>
        <time>2019-06-07T08:53:24Z</time>
      </trkpt>
      <trkpt lat="44.40723" lon="5.53277">
        <ele>816</ele>
        <time>2019-06-07T08:53:25Z</time>
      </trkpt>
      <trkpt lat="44.40728" lon="5.53281">
        <ele>816</ele>
        <time>2019-06-07T08:53:26Z</time>
      </trkpt>
      <trkpt lat="44.40733" lon="5.53285">
        <ele>816</ele>
        <time>2019-06-07T08:53:27Z</time>
      </trkpt>
      <trkpt lat="44.40739" lon="5.53289">
        <ele>816</ele>
        <time>2019-06-07T08:53:28Z</time>
      </trkpt>
      <trkpt lat="44.40744" lon="5.53292">
        <ele>816</ele>
        <time>2019-06-07T08:53:29Z</time>
      </trkpt>
      <trkpt lat="44.4075" lon="5.53294">
        <ele>816</ele>
        <time>2019-06-07T08:53:30Z</time>
      </trkpt>
      <trkpt lat="44.40755" lon="5.53296">
        <ele>816</ele>
        <time>2019-06-07T08:53:31Z</time>
      </trkpt>
      <trkpt lat="44.40761" lon="5.53297">
        <ele>816</ele>
        <time>2019-06-07T08:53:32Z</time>
      </trkpt>
      <trkpt lat="44.40767" lon="5.53297">
        <ele>816</ele>
        <time>2019-06-07T08:53:33Z</time>
      </trkpt>
      <trkpt lat="44.40773" lon="5.53297">
        <ele>816</ele>
        <time>2019-06-07T08:53:34Z</time>
      </trkpt>
      <trkpt lat="44.40779" lon="5.53297">
        <ele>816</ele>
        <time>2019-06-07T08:53:35Z</time>
      </trkpt>
      <trkpt lat="44.40786" lon="5.53297">
        <ele>816</ele>
        <time>2019-06-07T08:53:36Z</time>
      </trkpt>
      <trkpt lat="44.40793" lon="5.53297">
        <ele>816</ele>
        <time>2019-06-07T08:53:37Z</time>
      </trkpt>
      <trkpt lat="44.40799" lon="5.53296">
        <ele>816</ele>
        <time>2019-06-07T08:53:38Z</time>
      </trkpt>
      <trkpt lat="44.40806" lon="5.53296">
        <ele>816</ele>
        <time>2019-06-07T08:53:39Z</time>
      </trkpt>
      <trkpt lat="44.40813" lon="5.53297">
        <ele>816</ele>
        <time>2019-06-07T08:53:40Z</time>
      </trkpt>
      <trkpt lat="44.40819" lon="5.53298">
        <ele>816</ele>
        <time>2019-06-07T08:53:41Z</time>
      </trkpt>
      <trkpt lat="44.40826" lon="5.533">
        <ele>816</ele>
        <time>2019-06-07T08:53:42Z</time>
      </trkpt>
      <trkpt lat="44.40831" lon="5.53301">
        <ele>816</ele>
        <time>2019-06-07T08:53:43Z</time>
      </trkpt>
      <trkpt lat="44.40837" lon="5.53304">
        <ele>816</ele>
        <time>2019-06-07T08:53:44Z</time>
      </trkpt>
      <trkpt lat="44.40843" lon="5.53307">
        <ele>816</ele>
        <time>2019-06-07T08:53:45Z</time>
      </trkpt>
      <trkpt lat="44.40849" lon="5.53309">
        <ele>816</ele>
        <time>2019-06-07T08:53:46Z</time>
      </trkpt>
      <trkpt lat="44.40854" lon="5.53312">
        <ele>816</ele>
        <time>2019-06-07T08:53:47Z</time>
      </trkpt>
      <trkpt lat="44.40859" lon="5.53315">
        <ele>816</ele>
        <time>2019-06-07T08:53:48Z</time>
      </trkpt>
      <trkpt lat="44.40864" lon="5.53317">
        <ele>816</ele>
        <time>2019-06-07T08:53:49Z</time>
      </trkpt>
      <trkpt lat="44.40869" lon="5.5332">
        <ele>816</ele>
        <time>2019-06-07T08:53:50Z</time>
      </trkpt>
      <trkpt lat="44.40874" lon="5.53322">
        <ele>816</ele>
        <time>2019-06-07T08:53:51Z</time>
      </trkpt>
      <trkpt lat="44.40879" lon="5.53325">
        <ele>816</ele>
        <time>2019-06-07T08:53:52Z</time>
      </trkpt>
      <trkpt lat="44.40883" lon="5.53327">
        <ele>816</ele>
        <time>2019-06-07T08:53:53Z</time>
      </trkpt>
      <trkpt lat="44.40887" lon="5.5333">
        <ele>816</ele>
        <time>2019-06-07T08:53:54Z</time>
      </trkpt>
      <trkpt lat="44.40892" lon="5.53332">
        <ele>816</ele>
        <time>2019-06-07T08:53:55Z</time>
      </trkpt>
      <trkpt lat="44.40897" lon="5.53334">
        <ele>816</ele>
        <time>2019-06-07T08:53:56Z</time>
      </trkpt>
      <trkpt lat="44.40901" lon="5.53336">
        <ele>817</ele>
        <time>2019-06-07T08:53:57Z</time>
      </trkpt>
      <trkpt lat="44.40905" lon="5.53339">
        <ele>817</ele>
        <time>2019-06-07T08:53:58Z</time>
      </trkpt>
      <trkpt lat="44.4091" lon="5.53341">
        <ele>817</ele>
        <time>2019-06-07T08:53:59Z</time>
      </trkpt>
      <trkpt lat="44.40914" lon="5.53344">
        <ele>817</ele>
        <time>2019-06-07T08:54:00Z</time>
      </trkpt>
      <trkpt lat="44.40918" lon="5.53347">
        <ele>818</ele>
        <time>2019-06-07T08:54:01Z</time>
      </trkpt>
      <trkpt lat="44.40921" lon="5.53349">
        <ele>818</ele>
        <time>2019-06-07T08:54:02Z</time>
      </trkpt>
      <trkpt lat="44.40925" lon="5.53352">
        <ele>818</ele>
        <time>2019-06-07T08:54:03Z</time>
      </trkpt>
      <trkpt lat="44.40929" lon="5.53354">
        <ele>818</ele>
        <time>2019-06-07T08:54:04Z</time>
      </trkpt>
      <trkpt lat="44.40932" lon="5.53357">
        <ele>818</ele>
        <time>2019-06-07T08:54:05Z</time>
      </trkpt>
      <trkpt lat="44.40935" lon="5.5336">
        <ele>819</ele>
        <time>2019-06-07T08:54:06Z</time>
      </trkpt>
      <trkpt lat="44.40939" lon="5.53364">
        <ele>819</ele>
        <time>2019-06-07T08:54:07Z</time>
      </trkpt>
      <trkpt lat="44.40942" lon="5.53367">
        <ele>819</ele>
        <time>2019-06-07T08:54:08Z</time>
      </trkpt>
      <trkpt lat="44.40945" lon="5.5337">
        <ele>819</ele>
        <time>2019-06-07T08:54:09Z</time>
      </trkpt>
      <trkpt lat="44.40948" lon="5.53374">
        <ele>820</ele>
        <time>2019-06-07T08:54:10Z</time>
      </trkpt>
      <trkpt lat="44.4095" lon="5.53378">
        <ele>820</ele>
        <time>2019-06-07T08:54:11Z</time>
      </trkpt>
      <trkpt lat="44.40953" lon="5.53381">
        <ele>820</ele>
        <time>2019-06-07T08:54:12Z</time>
      </trkpt>
      <trkpt lat="44.40956" lon="5.53385">
        <ele>820</ele>
        <time>2019-06-07T08:54:13Z</time>
      </trkpt>
      <trkpt lat="44.40958" lon="5.53389">
        <ele>821</ele>
        <time>2019-06-07T08:54:14Z</time>
      </trkpt>
      <trkpt lat="44.40961" lon="5.53393">
        <ele>821</ele>
        <time>2019-06-07T08:54:15Z</time>
      </trkpt>
      <trkpt lat="44.40963" lon="5.53398">
        <ele>821</ele>
        <time>2019-06-07T08:54:16Z</time>
      </trkpt>
      <trkpt lat="44.40965" lon="5.53402">
        <ele>821</ele>
        <time>2019-06-07T08:54:17Z</time>
      </trkpt>
      <trkpt lat="44.40968" lon="5.53406">
        <ele>821</ele>
        <time>2019-06-07T08:54:18Z</time>
      </trkpt>
      <trkpt lat="44.4097" lon="5.53411">
        <ele>822</ele>
        <time>2019-06-07T08:54:19Z</time>
      </trkpt>
      <trkpt lat="44.40972" lon="5.53415">
        <ele>822</ele>
        <time>2019-06-07T08:54:20Z</time>
      </trkpt>
      <trkpt lat="44.40974" lon="5.5342">
        <ele>822</ele>
        <time>2019-06-07T08:54:21Z</time>
      </trkpt>
      <trkpt lat="44.40976" lon="5.53425">
        <ele>822</ele>
        <time>2019-06-07T08:54:22Z</time>
      </trkpt>
      <trkpt lat="44.40978" lon="5.5343">
        <ele>823</ele>
        <time>2019-06-07T08:54:23Z</time>
      </trkpt>
      <trkpt lat="44.4098" lon="5.53434">
        <ele>823</ele>
        <time>2019-06-07T08:54:24Z</time>
      </trkpt>
      <trkpt lat="44.40982" lon="5.53439">
        <ele>823</ele>
        <time>2019-06-07T08:54:25Z</time>
      </trkpt>
      <trkpt lat="44.40983" lon="5.53444">
        <ele>824</ele>
        <time>2019-06-07T08:54:26Z</time>
      </trkpt>
      <trkpt lat="44.40985" lon="5.53448">
        <ele>824</ele>
        <time>2019-06-07T08:54:27Z</time>
      </trkpt>
      <trkpt lat="44.40987" lon="5.53453">
        <ele>824</ele>
        <time>2019-06-07T08:54:28Z</time>
      </trkpt>
      <trkpt lat="44.40989" lon="5.53457">
        <ele>824</ele>
        <time>2019-06-07T08:54:29Z</time>
      </trkpt>
      <trkpt lat="44.4099" lon="5.53462">
        <ele>825</ele>
        <time>2019-06-07T08:54:30Z</time>
      </trkpt>
      <trkpt lat="44.40992" lon="5.53466">
        <ele>825</ele>
        <time>2019-06-07T08:54:31Z</time>
      </trkpt>
      <trkpt lat="44.40993" lon="5.5347">
        <ele>825</ele>
        <time>2019-06-07T08:54:32Z</time>
      </trkpt>
      <trkpt lat="44.40995" lon="5.53474">
        <ele>826</ele>
        <time>2019-06-07T08:54:33Z</time>
      </trkpt>
      <trkpt lat="44.40997" lon="5.53478">
        <ele>826</ele>
        <time>2019-06-07T08:54:34Z</time>
      </trkpt>
      <trkpt lat="44.40998" lon="5.53482">
        <ele>826</ele>
        <time>2019-06-07T08:54:35Z</time>
      </trkpt>
      <trkpt lat="44.41" lon="5.53486">
        <ele>826</ele>
        <time>2019-06-07T08:54:36Z</time>
      </trkpt>
      <trkpt lat="44.41002" lon="5.53491">
        <ele>827</ele>
        <time>2019-06-07T08:54:37Z</time>
      </trkpt>
      <trkpt lat="44.41004" lon="5.53495">
        <ele>827</ele>
        <time>2019-06-07T08:54:38Z</time>
      </trkpt>
      <trkpt lat="44.41005" lon="5.53499">
        <ele>827</ele>
        <time>2019-06-07T08:54:39Z</time>
      </trkpt>
      <trkpt lat="44.41007" lon="5.53503">
        <ele>827</ele>
        <time>2019-06-07T08:54:40Z</time>
      </trkpt>
      <trkpt lat="44.41008" lon="5.53508">
        <ele>828</ele>
        <time>2019-06-07T08:54:41Z</time>
      </trkpt>
      <trkpt lat="44.4101" lon="5.53512">
        <ele>828</ele>
        <time>2019-06-07T08:54:42Z</time>
      </trkpt>
      <trkpt lat="44.41011" lon="5.53516">
        <ele>828</ele>
        <time>2019-06-07T08:54:43Z</time>
      </trkpt>
      <trkpt lat="44.41013" lon="5.5352">
        <ele>829</ele>
        <time>2019-06-07T08:54:44Z</time>
      </trkpt>
      <trkpt lat="44.41015" lon="5.53524">
        <ele>829</ele>
        <time>2019-06-07T08:54:45Z</time>
      </trkpt>
      <trkpt lat="44.41016" lon="5.53529">
        <ele>829</ele>
        <time>2019-06-07T08:54:46Z</time>
      </trkpt>
      <trkpt lat="44.41018" lon="5.53533">
        <ele>829</ele>
        <time>2019-06-07T08:54:47Z</time>
      </trkpt>
      <trkpt lat="44.41019" lon="5.53537">
        <ele>830</ele>
        <time>2019-06-07T08:54:48Z</time>
      </trkpt>
      <trkpt lat="44.41021" lon="5.53541">
        <ele>830</ele>
        <time>2019-06-07T08:54:49Z</time>
      </trkpt>
      <trkpt lat="44.41023" lon="5.53545">
        <ele>830</ele>
        <time>2019-06-07T08:54:50Z</time>
      </trkpt>
      <trkpt lat="44.41024" lon="5.53549">
        <ele>831</ele>
        <time>2019-06-07T08:54:51Z</time>
      </trkpt>
      <trkpt lat="44.41026" lon="5.53553">
        <ele>831</ele>
        <time>2019-06-07T08:54:52Z</time>
      </trkpt>
      <trkpt lat="44.41027" lon="5.53558">
        <ele>831</ele>
        <time>2019-06-07T08:54:53Z</time>
      </trkpt>
      <trkpt lat="44.41029" lon="5.53562">
        <ele>831</ele>
        <time>2019-06-07T08:54:54Z</time>
      </trkpt>
      <trkpt lat="44.41031" lon="5.53566">
        <ele>832</ele>
        <time>2019-06-07T08:54:55Z</time>
      </trkpt>
      <trkpt lat="44.41032" lon="5.53571">
        <ele>832</ele>
        <time>2019-06-07T08:54:56Z</time>
      </trkpt>
      <trkpt lat="44.41034" lon="5.53575">
        <ele>832</ele>
        <time>2019-06-07T08:54:57Z</time>
      </trkpt>
      <trkpt lat="44.41036" lon="5.53579">
        <ele>832</ele>
        <time>2019-06-07T08:54:58Z</time>
      </trkpt>
      <trkpt lat="44.41037" lon="5.53584">
        <ele>832</ele>
        <time>2019-06-07T08:54:59Z</time>
      </trkpt>
      <trkpt lat="44.41039" lon="5.53588">
        <ele>833</ele>
        <time>2019-06-07T08:55:00Z</time>
      </trkpt>
      <trkpt lat="44.41041" lon="5.53592">
        <ele>833</ele>
        <time>2019-06-07T08:55:01Z</time>
      </trkpt>
      <trkpt lat="44.41043" lon="5.53596">
        <ele>833</ele>
        <time>2019-06-07T08:55:02Z</time>
      </trkpt>
      <trkpt lat="44.41044" lon="5.53601">
        <ele>833</ele>
        <time>2019-06-07T08:55:03Z</time>
      </trkpt>
      <trkpt lat="44.41046" lon="5.53605">
        <ele>834</ele>
        <time>2019-06-07T08:55:04Z</time>
      </trkpt>
      <trkpt lat="44.41048" lon="5.53609">
        <ele>834</ele>
        <time>2019-06-07T08:55:05Z</time>
      </trkpt>
      <trkpt lat="44.41049" lon="5.53614">
        <ele>834</ele>
        <time>2019-06-07T08:55:06Z</time>
      </trkpt>
      <trkpt lat="44.41051" lon="5.53618">
        <ele>834</ele>
        <time>2019-06-07T08:55:07Z</time>
      </trkpt>
      <trkpt lat="44.41052" lon="5.53622">
        <ele>834</ele>
        <time>2019-06-07T08:55:08Z</time>
      </trkpt>
      <trkpt lat="44.41054" lon="5.53627">
        <ele>835</ele>
        <time>2019-06-07T08:55:09Z</time>
      </trkpt>
      <trkpt lat="44.41056" lon="5.53631">
        <ele>835</ele>
        <time>2019-06-07T08:55:10Z</time>
      </trkpt>
      <trkpt lat="44.41058" lon="5.53635">
        <ele>835</ele>
        <time>2019-06-07T08:55:11Z</time>
      </trkpt>
      <trkpt lat="44.41059" lon="5.5364">
        <ele>835</ele>
        <time>2019-06-07T08:55:12Z</time>
      </trkpt>
      <trkpt lat="44.41061" lon="5.53644">
        <ele>836</ele>
        <time>2019-06-07T08:55:13Z</time>
      </trkpt>
      <trkpt lat="44.41063" lon="5.53648">
        <ele>836</ele>
        <time>2019-06-07T08:55:14Z</time>
      </trkpt>
      <trkpt lat="44.41064" lon="5.53652">
        <ele>836</ele>
        <time>2019-06-07T08:55:15Z</time>
      </trkpt>
      <trkpt lat="44.41066" lon="5.53657">
        <ele>836</ele>
        <time>2019-06-07T08:55:16Z</time>
      </trkpt>
      <trkpt lat="44.41067" lon="5.53661">
        <ele>837</ele>
        <time>2019-06-07T08:55:17Z</time>
      </trkpt>
      <trkpt lat="44.41069" lon="5.53665">
        <ele>837</ele>
        <time>2019-06-07T08:55:18Z</time>
      </trkpt>
      <trkpt lat="44.41071" lon="5.53669">
        <ele>837</ele>
        <time>2019-06-07T08:55:19Z</time>
      </trkpt>
      <trkpt lat="44.41072" lon="5.53674">
        <ele>837</ele>
        <time>2019-06-07T08:55:20Z</time>
      </trkpt>
      <trkpt lat="44.41074" lon="5.53678">
        <ele>838</ele>
        <time>2019-06-07T08:55:21Z</time>
      </trkpt>
      <trkpt lat="44.41076" lon="5.53682">
        <ele>838</ele>
        <time>2019-06-07T08:55:22Z</time>
      </trkpt>
      <trkpt lat="44.41077" lon="5.53687">
        <ele>838</ele>
        <time>2019-06-07T08:55:23Z</time>
      </trkpt>
      <trkpt lat="44.41079" lon="5.53691">
        <ele>838</ele>
        <time>2019-06-07T08:55:24Z</time>
      </trkpt>
      <trkpt lat="44.41081" lon="5.53695">
        <ele>839</ele>
        <time>2019-06-07T08:55:25Z</time>
      </trkpt>
      <trkpt lat="44.41082" lon="5.537">
        <ele>839</ele>
        <time>2019-06-07T08:55:26Z</time>
      </trkpt>
      <trkpt lat="44.41084" lon="5.53705">
        <ele>839</ele>
        <time>2019-06-07T08:55:27Z</time>
      </trkpt>
      <trkpt lat="44.41086" lon="5.53709">
        <ele>839</ele>
        <time>2019-06-07T08:55:28Z</time>
      </trkpt>
      <trkpt lat="44.41087" lon="5.53714">
        <ele>840</ele>
        <time>2019-06-07T08:55:29Z</time>
      </trkpt>
      <trkpt lat="44.41089" lon="5.53718">
        <ele>840</ele>
        <time>2019-06-07T08:55:30Z</time>
      </trkpt>
      <trkpt lat="44.41091" lon="5.53723">
        <ele>840</ele>
        <time>2019-06-07T08:55:31Z</time>
      </trkpt>
      <trkpt lat="44.41093" lon="5.53728">
        <ele>840</ele>
        <time>2019-06-07T08:55:32Z</time>
      </trkpt>
      <trkpt lat="44.41095" lon="5.53732">
        <ele>840</ele>
        <time>2019-06-07T08:55:33Z</time>
      </trkpt>
      <trkpt lat="44.41096" lon="5.53737">
        <ele>840</ele>
        <time>2019-06-07T08:55:34Z</time>
      </trkpt>
      <trkpt lat="44.41098" lon="5.53742">
        <ele>841</ele>
        <time>2019-06-07T08:55:35Z</time>
      </trkpt>
      <trkpt lat="44.411" lon="5.53748">
        <ele>841</ele>
        <time>2019-06-07T08:55:36Z</time>
      </trkpt>
      <trkpt lat="44.41101" lon="5.53753">
        <ele>841</ele>
        <time>2019-06-07T08:55:37Z</time>
      </trkpt>
      <trkpt lat="44.41103" lon="5.53758">
        <ele>841</ele>
        <time>2019-06-07T08:55:38Z</time>
      </trkpt>
      <trkpt lat="44.41104" lon="5.53763">
        <ele>841</ele>
        <time>2019-06-07T08:55:39Z</time>
      </trkpt>
      <trkpt lat="44.41106" lon="5.53769">
        <ele>841</ele>
        <time>2019-06-07T08:55:40Z</time>
      </trkpt>
      <trkpt lat="44.41107" lon="5.53775">
        <ele>842</ele>
        <time>2019-06-07T08:55:41Z</time>
      </trkpt>
      <trkpt lat="44.41109" lon="5.5378">
        <ele>842</ele>
        <time>2019-06-07T08:55:42Z</time>
      </trkpt>
      <trkpt lat="44.4111" lon="5.53786">
        <ele>842</ele>
        <time>2019-06-07T08:55:43Z</time>
      </trkpt>
      <trkpt lat="44.41111" lon="5.53792">
        <ele>842</ele>
        <time>2019-06-07T08:55:44Z</time>
      </trkpt>
      <trkpt lat="44.41112" lon="5.53798">
        <ele>842</ele>
        <time>2019-06-07T08:55:45Z</time>
      </trkpt>
      <trkpt lat="44.41113" lon="5.53804">
        <ele>842</ele>
        <time>2019-06-07T08:55:46Z</time>
      </trkpt>
      <trkpt lat="44.41115" lon="5.53811">
        <ele>842</ele>
        <time>2019-06-07T08:55:47Z</time>
      </trkpt>
      <trkpt lat="44.41116" lon="5.53817">
        <ele>842</ele>
        <time>2019-06-07T08:55:48Z</time>
      </trkpt>
      <trkpt lat="44.41117" lon="5.53824">
        <ele>842</ele>
        <time>2019-06-07T08:55:49Z</time>
      </trkpt>
      <trkpt lat="44.41118" lon="5.5383">
        <ele>842</ele>
        <time>2019-06-07T08:55:50Z</time>
      </trkpt>
      <trkpt lat="44.4112" lon="5.53838">
        <ele>843</ele>
        <time>2019-06-07T08:55:51Z</time>
      </trkpt>
      <trkpt lat="44.41121" lon="5.53845">
        <ele>843</ele>
        <time>2019-06-07T08:55:52Z</time>
      </trkpt>
      <trkpt lat="44.41123" lon="5.53853">
        <ele>843</ele>
        <time>2019-06-07T08:55:53Z</time>
      </trkpt>
      <trkpt lat="44.41124" lon="5.53861">
        <ele>843</ele>
        <time>2019-06-07T08:55:54Z</time>
      </trkpt>
      <trkpt lat="44.41125" lon="5.53869">
        <ele>843</ele>
        <time>2019-06-07T08:55:55Z</time>
      </trkpt>
      <trkpt lat="44.41127" lon="5.53877">
        <ele>843</ele>
        <time>2019-06-07T08:55:56Z</time>
      </trkpt>
      <trkpt lat="44.41128" lon="5.53885">
        <ele>843</ele>
        <time>2019-06-07T08:55:57Z</time>
      </trkpt>
      <trkpt lat="44.41128" lon="5.53894">
        <ele>843</ele>
        <time>2019-06-07T08:55:58Z</time>
      </trkpt>
      <trkpt lat="44.41129" lon="5.53902">
        <ele>843</ele>
        <time>2019-06-07T08:55:59Z</time>
      </trkpt>
      <trkpt lat="44.41129" lon="5.53911">
        <ele>843</ele>
        <time>2019-06-07T08:56:00Z</time>
      </trkpt>
      <trkpt lat="44.41128" lon="5.53919">
        <ele>843</ele>
        <time>2019-06-07T08:56:01Z</time>
      </trkpt>
      <trkpt lat="44.41127" lon="5.53928">
        <ele>843</ele>
        <time>2019-06-07T08:56:02Z</time>
      </trkpt>
      <trkpt lat="44.41126" lon="5.53937">
        <ele>843</ele>
        <time>2019-06-07T08:56:03Z</time>
      </trkpt>
      <trkpt lat="44.41124" lon="5.53946">
        <ele>843</ele>
        <time>2019-06-07T08:56:04Z</time>
      </trkpt>
      <trkpt lat="44.41122" lon="5.53955">
        <ele>843</ele>
        <time>2019-06-07T08:56:05Z</time>
      </trkpt>
      <trkpt lat="44.41119" lon="5.53963">
        <ele>843</ele>
        <time>2019-06-07T08:56:06Z</time>
      </trkpt>
      <trkpt lat="44.41116" lon="5.53972">
        <ele>843</ele>
        <time>2019-06-07T08:56:07Z</time>
      </trkpt>
      <trkpt lat="44.41113" lon="5.5398">
        <ele>843</ele>
        <time>2019-06-07T08:56:08Z</time>
      </trkpt>
      <trkpt lat="44.41109" lon="5.53988">
        <ele>843</ele>
        <time>2019-06-07T08:56:09Z</time>
      </trkpt>
      <trkpt lat="44.41106" lon="5.53996">
        <ele>843</ele>
        <time>2019-06-07T08:56:10Z</time>
      </trkpt>
      <trkpt lat="44.41101" lon="5.54003">
        <ele>843</ele>
        <time>2019-06-07T08:56:11Z</time>
      </trkpt>
      <trkpt lat="44.41097" lon="5.5401">
        <ele>843</ele>
        <time>2019-06-07T08:56:12Z</time>
      </trkpt>
      <trkpt lat="44.41092" lon="5.54017">
        <ele>843</ele>
        <time>2019-06-07T08:56:13Z</time>
      </trkpt>
      <trkpt lat="44.41087" lon="5.54024">
        <ele>843</ele>
        <time>2019-06-07T08:56:14Z</time>
      </trkpt>
      <trkpt lat="44.41082" lon="5.5403">
        <ele>843</ele>
        <time>2019-06-07T08:56:15Z</time>
      </trkpt>
      <trkpt lat="44.41077" lon="5.54036">
        <ele>843</ele>
        <time>2019-06-07T08:56:16Z</time>
      </trkpt>
      <trkpt lat="44.41072" lon="5.54042">
        <ele>843</ele>
        <time>2019-06-07T08:56:17Z</time>
      </trkpt>
      <trkpt lat="44.41067" lon="5.54048">
        <ele>843</ele>
        <time>2019-06-07T08:56:18Z</time>
      </trkpt>
      <trkpt lat="44.41062" lon="5.54054">
        <ele>843</ele>
        <time>2019-06-07T08:56:19Z</time>
      </trkpt>
      <trkpt lat="44.41056" lon="5.5406">
        <ele>843</ele>
        <time>2019-06-07T08:56:20Z</time>
      </trkpt>
      <trkpt lat="44.41051" lon="5.54066">
        <ele>843</ele>
        <time>2019-06-07T08:56:21Z</time>
      </trkpt>
      <trkpt lat="44.41046" lon="5.54072">
        <ele>843</ele>
        <time>2019-06-07T08:56:22Z</time>
      </trkpt>
      <trkpt lat="44.41042" lon="5.54078">
        <ele>843</ele>
        <time>2019-06-07T08:56:23Z</time>
      </trkpt>
      <trkpt lat="44.41037" lon="5.54085">
        <ele>843</ele>
        <time>2019-06-07T08:56:24Z</time>
      </trkpt>
      <trkpt lat="44.41032" lon="5.54092">
        <ele>843</ele>
        <time>2019-06-07T08:56:25Z</time>
      </trkpt>
      <trkpt lat="44.41027" lon="5.54098">
        <ele>843</ele>
        <time>2019-06-07T08:56:26Z</time>
      </trkpt>
      <trkpt lat="44.41023" lon="5.54105">
        <ele>843</ele>
        <time>2019-06-07T08:56:27Z</time>
      </trkpt>
      <trkpt lat="44.41018" lon="5.54111">
        <ele>843</ele>
        <time>2019-06-07T08:56:28Z</time>
      </trkpt>
      <trkpt lat="44.41014" lon="5.54118">
        <ele>843</ele>
        <time>2019-06-07T08:56:29Z</time>
      </trkpt>
      <trkpt lat="44.4101" lon="5.54124">
        <ele>843</ele>
        <time>2019-06-07T08:56:30Z</time>
      </trkpt>
      <trkpt lat="44.41006" lon="5.54131">
        <ele>843</ele>
        <time>2019-06-07T08:56:31Z</time>
      </trkpt>
      <trkpt lat="44.41002" lon="5.54138">
        <ele>843</ele>
        <time>2019-06-07T08:56:32Z</time>
      </trkpt>
      <trkpt lat="44.40998" lon="5.54144">
        <ele>843</ele>
        <time>2019-06-07T08:56:33Z</time>
      </trkpt>
      <trkpt lat="44.40994" lon="5.54152">
        <ele>843</ele>
        <time>2019-06-07T08:56:34Z</time>
      </trkpt>
      <trkpt lat="44.40991" lon="5.54159">
        <ele>843</ele>
        <time>2019-06-07T08:56:35Z</time>
      </trkpt>
      <trkpt lat="44.40988" lon="5.54166">
        <ele>843</ele>
        <time>2019-06-07T08:56:36Z</time>
      </trkpt>
      <trkpt lat="44.40985" lon="5.54173">
        <ele>843</ele>
        <time>2019-06-07T08:56:37Z</time>
      </trkpt>
      <trkpt lat="44.40982" lon="5.5418">
        <ele>843</ele>
        <time>2019-06-07T08:56:38Z</time>
      </trkpt>
      <trkpt lat="44.40979" lon="5.54187">
        <ele>843</ele>
        <time>2019-06-07T08:56:39Z</time>
      </trkpt>
      <trkpt lat="44.40977" lon="5.54193">
        <ele>843</ele>
        <time>2019-06-07T08:56:40Z</time>
      </trkpt>
      <trkpt lat="44.40974" lon="5.54201">
        <ele>843</ele>
        <time>2019-06-07T08:56:41Z</time>
      </trkpt>
      <trkpt lat="44.40972" lon="5.54207">
        <ele>843</ele>
        <time>2019-06-07T08:56:42Z</time>
      </trkpt>
      <trkpt lat="44.40971" lon="5.54214">
        <ele>843</ele>
        <time>2019-06-07T08:56:43Z</time>
      </trkpt>
      <trkpt lat="44.40969" lon="5.54222">
        <ele>843</ele>
        <time>2019-06-07T08:56:44Z</time>
      </trkpt>
      <trkpt lat="44.40967" lon="5.54229">
        <ele>843</ele>
        <time>2019-06-07T08:56:45Z</time>
      </trkpt>
      <trkpt lat="44.40966" lon="5.54237">
        <ele>843</ele>
        <time>2019-06-07T08:56:46Z</time>
      </trkpt>
      <trkpt lat="44.40964" lon="5.54244">
        <ele>843</ele>
        <time>2019-06-07T08:56:47Z</time>
      </trkpt>
      <trkpt lat="44.40963" lon="5.54252">
        <ele>843</ele>
        <time>2019-06-07T08:56:48Z</time>
      </trkpt>
      <trkpt lat="44.40961" lon="5.5426">
        <ele>843</ele>
        <time>2019-06-07T08:56:49Z</time>
      </trkpt>
      <trkpt lat="44.4096" lon="5.54268">
        <ele>843</ele>
        <time>2019-06-07T08:56:50Z</time>
      </trkpt>
      <trkpt lat="44.40959" lon="5.54276">
        <ele>843</ele>
        <time>2019-06-07T08:56:51Z</time>
      </trkpt>
      <trkpt lat="44.40958" lon="5.54284">
        <ele>843</ele>
        <time>2019-06-07T08:56:52Z</time>
      </trkpt>
      <trkpt lat="44.40958" lon="5.54292">
        <ele>843</ele>
        <time>2019-06-07T08:56:53Z</time>
      </trkpt>
      <trkpt lat="44.40957" lon="5.54301">
        <ele>843</ele>
        <time>2019-06-07T08:56:54Z</time>
      </trkpt>
      <trkpt lat="44.40957" lon="5.54309">
        <ele>843</ele>
        <time>2019-06-07T08:56:55Z</time>
      </trkpt>
      <trkpt lat="44.40957" lon="5.54318">
        <ele>843</ele>
        <time>2019-06-07T08:56:56Z</time>
      </trkpt>
      <trkpt lat="44.40957" lon="5.54326">
        <ele>843</ele>
        <time>2019-06-07T08:56:57Z</time>
      </trkpt>
      <trkpt lat="44.40957" lon="5.54335">
        <ele>843</ele>
        <time>2019-06-07T08:56:58Z</time>
      </trkpt>
      <trkpt lat="44.40958" lon="5.54344">
        <ele>843</ele>
        <time>2019-06-07T08:56:59Z</time>
      </trkpt>
      <trkpt lat="44.40958" lon="5.54353">
        <ele>843</ele>
        <time>2019-06-07T08:57:00Z</time>
      </trkpt>
      <trkpt lat="44.40959" lon="5.54362">
        <ele>843</ele>
        <time>2019-06-07T08:57:01Z</time>
      </trkpt>
      <trkpt lat="44.4096" lon="5.54372">
        <ele>843</ele>
        <time>2019-06-07T08:57:02Z</time>
      </trkpt>
      <trkpt lat="44.40961" lon="5.54382">
        <ele>843</ele>
        <time>2019-06-07T08:57:03Z</time>
      </trkpt>
      <trkpt lat="44.40962" lon="5.54391">
        <ele>843</ele>
        <time>2019-06-07T08:57:04Z</time>
      </trkpt>
      <trkpt lat="44.40964" lon="5.54401">
        <ele>843</ele>
        <time>2019-06-07T08:57:05Z</time>
      </trkpt>
      <trkpt lat="44.40966" lon="5.54411">
        <ele>843</ele>
        <time>2019-06-07T08:57:06Z</time>
      </trkpt>
      <trkpt lat="44.40968" lon="5.54422">
        <ele>843</ele>
        <time>2019-06-07T08:57:07Z</time>
      </trkpt>
      <trkpt lat="44.40971" lon="5.54432">
        <ele>843</ele>
        <time>2019-06-07T08:57:08Z</time>
      </trkpt>
      <trkpt lat="44.40974" lon="5.54444">
        <ele>843</ele>
        <time>2019-06-07T08:57:09Z</time>
      </trkpt>
      <trkpt lat="44.40978" lon="5.54455">
        <ele>843</ele>
        <time>2019-06-07T08:57:10Z</time>
      </trkpt>
      <trkpt lat="44.40982" lon="5.54466">
        <ele>843</ele>
        <time>2019-06-07T08:57:11Z</time>
      </trkpt>
      <trkpt lat="44.40985" lon="5.54478">
        <ele>843</ele>
        <time>2019-06-07T08:57:12Z</time>
      </trkpt>
      <trkpt lat="44.40989" lon="5.5449">
        <ele>843</ele>
        <time>2019-06-07T08:57:13Z</time>
      </trkpt>
      <trkpt lat="44.40993" lon="5.54501">
        <ele>843</ele>
        <time>2019-06-07T08:57:14Z</time>
      </trkpt>
      <trkpt lat="44.40997" lon="5.54513">
        <ele>842</ele>
        <time>2019-06-07T08:57:15Z</time>
      </trkpt>
      <trkpt lat="44.41001" lon="5.54525">
        <ele>842</ele>
        <time>2019-06-07T08:57:16Z</time>
      </trkpt>
      <trkpt lat="44.41005" lon="5.54537">
        <ele>841</ele>
        <time>2019-06-07T08:57:17Z</time>
      </trkpt>
      <trkpt lat="44.41009" lon="5.54549">
        <ele>841</ele>
        <time>2019-06-07T08:57:18Z</time>
      </trkpt>
      <trkpt lat="44.41013" lon="5.54562">
        <ele>840</ele>
        <time>2019-06-07T08:57:19Z</time>
      </trkpt>
      <trkpt lat="44.41017" lon="5.54574">
        <ele>840</ele>
        <time>2019-06-07T08:57:20Z</time>
      </trkpt>
      <trkpt lat="44.41021" lon="5.54587">
        <ele>839</ele>
        <time>2019-06-07T08:57:21Z</time>
      </trkpt>
      <trkpt lat="44.41026" lon="5.54599">
        <ele>838</ele>
        <time>2019-06-07T08:57:22Z</time>
      </trkpt>
      <trkpt lat="44.4103" lon="5.54612">
        <ele>838</ele>
        <time>2019-06-07T08:57:23Z</time>
      </trkpt>
      <trkpt lat="44.41034" lon="5.54626">
        <ele>837</ele>
        <time>2019-06-07T08:57:24Z</time>
      </trkpt>
      <trkpt lat="44.41038" lon="5.54639">
        <ele>837</ele>
        <time>2019-06-07T08:57:25Z</time>
      </trkpt>
      <trkpt lat="44.41043" lon="5.54652">
        <ele>836</ele>
        <time>2019-06-07T08:57:26Z</time>
      </trkpt>
      <trkpt lat="44.41047" lon="5.54666">
        <ele>836</ele>
        <time>2019-06-07T08:57:27Z</time>
      </trkpt>
      <trkpt lat="44.41051" lon="5.5468">
        <ele>835</ele>
        <time>2019-06-07T08:57:28Z</time>
      </trkpt>
      <trkpt lat="44.41056" lon="5.54694">
        <ele>834</ele>
        <time>2019-06-07T08:57:29Z</time>
      </trkpt>
      <trkpt lat="44.4106" lon="5.54709">
        <ele>834</ele>
        <time>2019-06-07T08:57:30Z</time>
      </trkpt>
      <trkpt lat="44.41064" lon="5.54724">
        <ele>833</ele>
        <time>2019-06-07T08:57:31Z</time>
      </trkpt>
      <trkpt lat="44.41066" lon="5.5474">
        <ele>832</ele>
        <time>2019-06-07T08:57:32Z</time>
      </trkpt>
      <trkpt lat="44.41068" lon="5.54756">
        <ele>832</ele>
        <time>2019-06-07T08:57:33Z</time>
      </trkpt>
      <trkpt lat="44.41068" lon="5.54772">
        <ele>831</ele>
        <time>2019-06-07T08:57:34Z</time>
      </trkpt>
      <trkpt lat="44.41067" lon="5.54789">
        <ele>830</ele>
        <time>2019-06-07T08:57:35Z</time>
      </trkpt>
      <trkpt lat="44.41065" lon="5.54805">
        <ele>829</ele>
        <time>2019-06-07T08:57:36Z</time>
      </trkpt>
      <trkpt lat="44.41062" lon="5.54821">
        <ele>829</ele>
        <time>2019-06-07T08:57:37Z</time>
      </trkpt>
      <trkpt lat="44.41058" lon="5.54837">
        <ele>828</ele>
        <time>2019-06-07T08:57:38Z</time>
      </trkpt>
      <trkpt lat="44.41053" lon="5.54852">
        <ele>827</ele>
        <time>2019-06-07T08:57:39Z</time>
      </trkpt>
      <trkpt lat="44.41047" lon="5.54867">
        <ele>826</ele>
        <time>2019-06-07T08:57:40Z</time>
      </trkpt>
      <trkpt lat="44.41041" lon="5.5488">
        <ele>826</ele>
        <time>2019-06-07T08:57:41Z</time>
      </trkpt>
      <trkpt lat="44.41034" lon="5.54893">
        <ele>825</ele>
        <time>2019-06-07T08:57:42Z</time>
      </trkpt>
      <trkpt lat="44.41026" lon="5.54905">
        <ele>824</ele>
        <time>2019-06-07T08:57:43Z</time>
      </trkpt>
      <trkpt lat="44.41019" lon="5.54916">
        <ele>824</ele>
        <time>2019-06-07T08:57:44Z</time>
      </trkpt>
      <trkpt lat="44.41011" lon="5.54928">
        <ele>823</ele>
        <time>2019-06-07T08:57:45Z</time>
      </trkpt>
      <trkpt lat="44.41004" lon="5.5494">
        <ele>823</ele>
        <time>2019-06-07T08:57:46Z</time>
      </trkpt>
      <trkpt lat="44.40998" lon="5.54952">
        <ele>823</ele>
        <time>2019-06-07T08:57:47Z</time>
      </trkpt>
      <trkpt lat="44.40992" lon="5.54964">
        <ele>822</ele>
        <time>2019-06-07T08:57:48Z</time>
      </trkpt>
      <trkpt lat="44.40988" lon="5.54978">
        <ele>822</ele>
        <time>2019-06-07T08:57:49Z</time>
      </trkpt>
      <trkpt lat="44.40984" lon="5.54991">
        <ele>821</ele>
        <time>2019-06-07T08:57:50Z</time>
      </trkpt>
      <trkpt lat="44.40981" lon="5.55005">
        <ele>821</ele>
        <time>2019-06-07T08:57:51Z</time>
      </trkpt>
      <trkpt lat="44.40979" lon="5.55019">
        <ele>820</ele>
        <time>2019-06-07T08:57:52Z</time>
      </trkpt>
      <trkpt lat="44.40977" lon="5.55033">
        <ele>819</ele>
        <time>2019-06-07T08:57:53Z</time>
      </trkpt>
      <trkpt lat="44.40975" lon="5.55047">
        <ele>819</ele>
        <time>2019-06-07T08:57:54Z</time>
      </trkpt>
      <trkpt lat="44.40974" lon="5.55061">
        <ele>818</ele>
        <time>2019-06-07T08:57:55Z</time>
      </trkpt>
      <trkpt lat="44.40974" lon="5.55076">
        <ele>818</ele>
        <time>2019-06-07T08:57:56Z</time>
      </trkpt>
      <trkpt lat="44.40975" lon="5.5509">
        <ele>818</ele>
        <time>2019-06-07T08:57:57Z</time>
      </trkpt>
      <trkpt lat="44.40977" lon="5.55104">
        <ele>817</ele>
        <time>2019-06-07T08:57:58Z</time>
      </trkpt>
      <trkpt lat="44.40979" lon="5.55119">
        <ele>817</ele>
        <time>2019-06-07T08:57:59Z</time>
      </trkpt>
      <trkpt lat="44.40983" lon="5.55133">
        <ele>816</ele>
        <time>2019-06-07T08:58:00Z</time>
      </trkpt>
      <trkpt lat="44.40987" lon="5.55147">
        <ele>816</ele>
        <time>2019-06-07T08:58:01Z</time>
      </trkpt>
      <trkpt lat="44.40993" lon="5.55159">
        <ele>815</ele>
        <time>2019-06-07T08:58:02Z</time>
      </trkpt>
      <trkpt lat="44.40999" lon="5.55171">
        <ele>815</ele>
        <time>2019-06-07T08:58:03Z</time>
      </trkpt>
      <trkpt lat="44.41005" lon="5.55182">
        <ele>814</ele>
        <time>2019-06-07T08:58:04Z</time>
      </trkpt>
      <trkpt lat="44.41013" lon="5.55192">
        <ele>814</ele>
        <time>2019-06-07T08:58:05Z</time>
      </trkpt>
      <trkpt lat="44.41021" lon="5.55201">
        <ele>813</ele>
        <time>2019-06-07T08:58:06Z</time>
      </trkpt>
      <trkpt lat="44.41029" lon="5.5521">
        <ele>812</ele>
        <time>2019-06-07T08:58:07Z</time>
      </trkpt>
      <trkpt lat="44.41039" lon="5.55219">
        <ele>812</ele>
        <time>2019-06-07T08:58:08Z</time>
      </trkpt>
      <trkpt lat="44.41048" lon="5.55226">
        <ele>811</ele>
        <time>2019-06-07T08:58:09Z</time>
      </trkpt>
      <trkpt lat="44.41058" lon="5.55233">
        <ele>810</ele>
        <time>2019-06-07T08:58:10Z</time>
      </trkpt>
      <trkpt lat="44.41068" lon="5.55238">
        <ele>810</ele>
        <time>2019-06-07T08:58:11Z</time>
      </trkpt>
      <trkpt lat="44.41078" lon="5.55244">
        <ele>809</ele>
        <time>2019-06-07T08:58:12Z</time>
      </trkpt>
      <trkpt lat="44.41088" lon="5.55248">
        <ele>808</ele>
        <time>2019-06-07T08:58:13Z</time>
      </trkpt>
      <trkpt lat="44.41098" lon="5.55254">
        <ele>808</ele>
        <time>2019-06-07T08:58:14Z</time>
      </trkpt>
      <trkpt lat="44.41108" lon="5.55259">
        <ele>807</ele>
        <time>2019-06-07T08:58:15Z</time>
      </trkpt>
      <trkpt lat="44.41118" lon="5.55265">
        <ele>806</ele>
        <time>2019-06-07T08:58:16Z</time>
      </trkpt>
      <trkpt lat="44.41127" lon="5.55272">
        <ele>806</ele>
        <time>2019-06-07T08:58:17Z</time>
      </trkpt>
      <trkpt lat="44.41136" lon="5.5528">
        <ele>805</ele>
        <time>2019-06-07T08:58:18Z</time>
      </trkpt>
      <trkpt lat="44.41145" lon="5.55288">
        <ele>805</ele>
        <time>2019-06-07T08:58:19Z</time>
      </trkpt>
      <trkpt lat="44.41153" lon="5.55296">
        <ele>805</ele>
        <time>2019-06-07T08:58:20Z</time>
      </trkpt>
      <trkpt lat="44.41159" lon="5.55306">
        <ele>805</ele>
        <time>2019-06-07T08:58:21Z</time>
      </trkpt>
      <trkpt lat="44.41164" lon="5.55315">
        <ele>805</ele>
        <time>2019-06-07T08:58:22Z</time>
      </trkpt>
      <trkpt lat="44.41169" lon="5.55326">
        <ele>805</ele>
        <time>2019-06-07T08:58:23Z</time>
      </trkpt>
      <trkpt lat="44.41174" lon="5.55336">
        <ele>805</ele>
        <time>2019-06-07T08:58:24Z</time>
      </trkpt>
      <trkpt lat="44.41178" lon="5.55346">
        <ele>805</ele>
        <time>2019-06-07T08:58:25Z</time>
      </trkpt>
      <trkpt lat="44.41182" lon="5.55357">
        <ele>805</ele>
        <time>2019-06-07T08:58:26Z</time>
      </trkpt>
      <trkpt lat="44.41185" lon="5.55367">
        <ele>805</ele>
        <time>2019-06-07T08:58:27Z</time>
      </trkpt>
      <trkpt lat="44.41187" lon="5.55377">
        <ele>805</ele>
        <time>2019-06-07T08:58:28Z</time>
      </trkpt>
      <trkpt lat="44.41188" lon="5.55387">
        <ele>805</ele>
        <time>2019-06-07T08:58:29Z</time>
      </trkpt>
      <trkpt lat="44.41189" lon="5.55397">
        <ele>805</ele>
        <time>2019-06-07T08:58:30Z</time>
      </trkpt>
      <trkpt lat="44.4119" lon="5.55407">
        <ele>805</ele>
        <time>2019-06-07T08:58:31Z</time>
      </trkpt>
      <trkpt lat="44.4119" lon="5.55416">
        <ele>805</ele>
        <time>2019-06-07T08:58:32Z</time>
      </trkpt>
      <trkpt lat="44.4119" lon="5.55425">
        <ele>805</ele>
        <time>2019-06-07T08:58:33Z</time>
      </trkpt>
      <trkpt lat="44.4119" lon="5.55434">
        <ele>805</ele>
        <time>2019-06-07T08:58:34Z</time>
      </trkpt>
      <trkpt lat="44.41191" lon="5.55443">
        <ele>805</ele>
        <time>2019-06-07T08:58:35Z</time>
      </trkpt>
      <trkpt lat="44.41192" lon="5.55451">
        <ele>805</ele>
        <time>2019-06-07T08:58:36Z</time>
      </trkpt>
      <trkpt lat="44.41192" lon="5.5546">
        <ele>805</ele>
        <time>2019-06-07T08:58:37Z</time>
      </trkpt>
      <trkpt lat="44.41193" lon="5.55468">
        <ele>805</ele>
        <time>2019-06-07T08:58:38Z</time>
      </trkpt>
      <trkpt lat="44.41194" lon="5.55476">
        <ele>805</ele>
        <time>2019-06-07T08:58:39Z</time>
      </trkpt>
      <trkpt lat="44.41195" lon="5.55483">
        <ele>805</ele>
        <time>2019-06-07T08:58:40Z</time>
      </trkpt>
      <trkpt lat="44.41196" lon="5.55491">
        <ele>805</ele>
        <time>2019-06-07T08:58:41Z</time>
      </trkpt>
      <trkpt lat="44.41198" lon="5.55498">
        <ele>806</ele>
        <time>2019-06-07T08:58:42Z</time>
      </trkpt>
      <trkpt lat="44.412" lon="5.55506">
        <ele>806</ele>
        <time>2019-06-07T08:58:43Z</time>
      </trkpt>
      <trkpt lat="44.41202" lon="5.55513">
        <ele>806</ele>
        <time>2019-06-07T08:58:44Z</time>
      </trkpt>
      <trkpt lat="44.41204" lon="5.55519">
        <ele>807</ele>
        <time>2019-06-07T08:58:45Z</time>
      </trkpt>
      <trkpt lat="44.41205" lon="5.55526">
        <ele>807</ele>
        <time>2019-06-07T08:58:46Z</time>
      </trkpt>
      <trkpt lat="44.41207" lon="5.55534">
        <ele>807</ele>
        <time>2019-06-07T08:58:47Z</time>
      </trkpt>
      <trkpt lat="44.41209" lon="5.5554">
        <ele>808</ele>
        <time>2019-06-07T08:58:48Z</time>
      </trkpt>
      <trkpt lat="44.41211" lon="5.55547">
        <ele>808</ele>
        <time>2019-06-07T08:58:49Z</time>
      </trkpt>
      <trkpt lat="44.41212" lon="5.55554">
        <ele>808</ele>
        <time>2019-06-07T08:58:50Z</time>
      </trkpt>
      <trkpt lat="44.41214" lon="5.5556">
        <ele>809</ele>
        <time>2019-06-07T08:58:51Z</time>
      </trkpt>
      <trkpt lat="44.41216" lon="5.55567">
        <ele>809</ele>
        <time>2019-06-07T08:58:52Z</time>
      </trkpt>
      <trkpt lat="44.41218" lon="5.55573">
        <ele>809</ele>
        <time>2019-06-07T08:58:53Z</time>
      </trkpt>
      <trkpt lat="44.4122" lon="5.55579">
        <ele>810</ele>
        <time>2019-06-07T08:58:54Z</time>
      </trkpt>
      <trkpt lat="44.41221" lon="5.55585">
        <ele>810</ele>
        <time>2019-06-07T08:58:55Z</time>
      </trkpt>
      <trkpt lat="44.41223" lon="5.55591">
        <ele>810</ele>
        <time>2019-06-07T08:58:56Z</time>
      </trkpt>
      <trkpt lat="44.41225" lon="5.55597">
        <ele>810</ele>
        <time>2019-06-07T08:58:57Z</time>
      </trkpt>
      <trkpt lat="44.41227" lon="5.55603">
        <ele>811</ele>
        <time>2019-06-07T08:58:58Z</time>
      </trkpt>
      <trkpt lat="44.4123" lon="5.55609">
        <ele>811</ele>
        <time>2019-06-07T08:58:59Z</time>
      </trkpt>
      <trkpt lat="44.41233" lon="5.55616">
        <ele>811</ele>
        <time>2019-06-07T08:59:00Z</time>
      </trkpt>
      <trkpt lat="44.41235" lon="5.55622">
        <ele>811</ele>
        <time>2019-06-07T08:59:01Z</time>
      </trkpt>
      <trkpt lat="44.41238" lon="5.55629">
        <ele>811</ele>
        <time>2019-06-07T08:59:02Z</time>
      </trkpt>
      <trkpt lat="44.41241" lon="5.55636">
        <ele>811</ele>
        <time>2019-06-07T08:59:03Z</time>
      </trkpt>
      <trkpt lat="44.41245" lon="5.55644">
        <ele>811</ele>
        <time>2019-06-07T08:59:04Z</time>
      </trkpt>
      <trkpt lat="44.41248" lon="5.55652">
        <ele>811</ele>
        <time>2019-06-07T08:59:05Z</time>
      </trkpt>
      <trkpt lat="44.41251" lon="5.55659">
        <ele>811</ele>
        <time>2019-06-07T08:59:06Z</time>
      </trkpt>
      <trkpt lat="44.41254" lon="5.55668">
        <ele>811</ele>
        <time>2019-06-07T08:59:07Z</time>
      </trkpt>
      <trkpt lat="44.41256" lon="5.55676">
        <ele>811</ele>
        <time>2019-06-07T08:59:08Z</time>
      </trkpt>
      <trkpt lat="44.41258" lon="5.55685">
        <ele>811</ele>
        <time>2019-06-07T08:59:09Z</time>
      </trkpt>
      <trkpt lat="44.4126" lon="5.55693">
        <ele>811</ele>
        <time>2019-06-07T08:59:10Z</time>
      </trkpt>
      <trkpt lat="44.41262" lon="5.55702">
        <ele>811</ele>
        <time>2019-06-07T08:59:11Z</time>
      </trkpt>
      <trkpt lat="44.41262" lon="5.5571">
        <ele>811</ele>
        <time>2019-06-07T08:59:12Z</time>
      </trkpt>
      <trkpt lat="44.41263" lon="5.55719">
        <ele>811</ele>
        <time>2019-06-07T08:59:13Z</time>
      </trkpt>
      <trkpt lat="44.41262" lon="5.55727">
        <ele>811</ele>
        <time>2019-06-07T08:59:14Z</time>
      </trkpt>
      <trkpt lat="44.41262" lon="5.55735">
        <ele>811</ele>
        <time>2019-06-07T08:59:15Z</time>
      </trkpt>
      <trkpt lat="44.41262" lon="5.55742">
        <ele>811</ele>
        <time>2019-06-07T08:59:16Z</time>
      </trkpt>
      <trkpt lat="44.41262" lon="5.5575">
        <ele>811</ele>
        <time>2019-06-07T08:59:17Z</time>
      </trkpt>
      <trkpt lat="44.41262" lon="5.55756">
        <ele>811</ele>
        <time>2019-06-07T08:59:18Z</time>
      </trkpt>
      <trkpt lat="44.41262" lon="5.55763">
        <ele>811</ele>
        <time>2019-06-07T08:59:19Z</time>
      </trkpt>
      <trkpt lat="44.41261" lon="5.55769">
        <ele>811</ele>
        <time>2019-06-07T08:59:20Z</time>
      </trkpt>
      <trkpt lat="44.41261" lon="5.55775">
        <ele>811</ele>
        <time>2019-06-07T08:59:21Z</time>
      </trkpt>
      <trkpt lat="44.4126" lon="5.55781">
        <ele>812</ele>
        <time>2019-06-07T08:59:22Z</time>
      </trkpt>
      <trkpt lat="44.41259" lon="5.55787">
        <ele>812</ele>
        <time>2019-06-07T08:59:23Z</time>
      </trkpt>
      <trkpt lat="44.41259" lon="5.55793">
        <ele>812</ele>
        <time>2019-06-07T08:59:24Z</time>
      </trkpt>
      <trkpt lat="44.41259" lon="5.55798">
        <ele>813</ele>
        <time>2019-06-07T08:59:25Z</time>
      </trkpt>
      <trkpt lat="44.41259" lon="5.55804">
        <ele>813</ele>
        <time>2019-06-07T08:59:26Z</time>
      </trkpt>
      <trkpt lat="44.41258" lon="5.55809">
        <ele>813</ele>
        <time>2019-06-07T08:59:27Z</time>
      </trkpt>
      <trkpt lat="44.41258" lon="5.55815">
        <ele>814</ele>
        <time>2019-06-07T08:59:28Z</time>
      </trkpt>
      <trkpt lat="44.41258" lon="5.5582">
        <ele>814</ele>
        <time>2019-06-07T08:59:29Z</time>
      </trkpt>
      <trkpt lat="44.41258" lon="5.55825">
        <ele>814</ele>
        <time>2019-06-07T08:59:30Z</time>
      </trkpt>
      <trkpt lat="44.41258" lon="5.5583">
        <ele>815</ele>
        <time>2019-06-07T08:59:31Z</time>
      </trkpt>
      <trkpt lat="44.41257" lon="5.55836">
        <ele>815</ele>
        <time>2019-06-07T08:59:32Z</time>
      </trkpt>
      <trkpt lat="44.41257" lon="5.55841">
        <ele>815</ele>
        <time>2019-06-07T08:59:33Z</time>
      </trkpt>
      <trkpt lat="44.41258" lon="5.55845">
        <ele>815</ele>
        <time>2019-06-07T08:59:34Z</time>
      </trkpt>
      <trkpt lat="44.41258" lon="5.5585">
        <ele>816</ele>
        <time>2019-06-07T08:59:35Z</time>
      </trkpt>
      <trkpt lat="44.41258" lon="5.55855">
        <ele>816</ele>
        <time>2019-06-07T08:59:36Z</time>
      </trkpt>
      <trkpt lat="44.41258" lon="5.5586">
        <ele>816</ele>
        <time>2019-06-07T08:59:37Z</time>
      </trkpt>
      <trkpt lat="44.41258" lon="5.55865">
        <ele>816</ele>
        <time>2019-06-07T08:59:38Z</time>
      </trkpt>
      <trkpt lat="44.41258" lon="5.5587">
        <ele>817</ele>
        <time>2019-06-07T08:59:39Z</time>
      </trkpt>
      <trkpt lat="44.41258" lon="5.55874">
        <ele>817</ele>
        <time>2019-06-07T08:59:40Z</time>
      </trkpt>
      <trkpt lat="44.41259" lon="5.55879">
        <ele>817</ele>
        <time>2019-06-07T08:59:41Z</time>
      </trkpt>
      <trkpt lat="44.41259" lon="5.55884">
        <ele>817</ele>
        <time>2019-06-07T08:59:42Z</time>
      </trkpt>
      <trkpt lat="44.41259" lon="5.55889">
        <ele>818</ele>
        <time>2019-06-07T08:59:43Z</time>
      </trkpt>
      <trkpt lat="44.4126" lon="5.55894">
        <ele>818</ele>
        <time>2019-06-07T08:59:44Z</time>
      </trkpt>
      <trkpt lat="44.4126" lon="5.55898">
        <ele>818</ele>
        <time>2019-06-07T08:59:45Z</time>
      </trkpt>
      <trkpt lat="44.4126" lon="5.55903">
        <ele>819</ele>
        <time>2019-06-07T08:59:46Z</time>
      </trkpt>
      <trkpt lat="44.41261" lon="5.55907">
        <ele>819</ele>
        <time>2019-06-07T08:59:47Z</time>
      </trkpt>
      <trkpt lat="44.41261" lon="5.55912">
        <ele>820</ele>
        <time>2019-06-07T08:59:48Z</time>
      </trkpt>
      <trkpt lat="44.41261" lon="5.55916">
        <ele>820</ele>
        <time>2019-06-07T08:59:49Z</time>
      </trkpt>
      <trkpt lat="44.41262" lon="5.5592">
        <ele>820</ele>
        <time>2019-06-07T08:59:50Z</time>
      </trkpt>
      <trkpt lat="44.41262" lon="5.55924">
        <ele>820</ele>
        <time>2019-06-07T08:59:51Z</time>
      </trkpt>
      <trkpt lat="44.41262" lon="5.55928">
        <ele>821</ele>
        <time>2019-06-07T08:59:52Z</time>
      </trkpt>
      <trkpt lat="44.41263" lon="5.55932">
        <ele>821</ele>
        <time>2019-06-07T08:59:53Z</time>
      </trkpt>
      <trkpt lat="44.41263" lon="5.55935">
        <ele>821</ele>
        <time>2019-06-07T08:59:54Z</time>
      </trkpt>
      <trkpt lat="44.41264" lon="5.55939">
        <ele>821</ele>
        <time>2019-06-07T08:59:55Z</time>
      </trkpt>
      <trkpt lat="44.41264" lon="5.55943">
        <ele>821</ele>
        <time>2019-06-07T08:59:56Z</time>
      </trkpt>
      <trkpt lat="44.41264" lon="5.55947">
        <ele>821</ele>
        <time>2019-06-07T08:59:57Z</time>
      </trkpt>
      <trkpt lat="44.41265" lon="5.55951">
        <ele>821</ele>
        <time>2019-06-07T08:59:58Z</time>
      </trkpt>
      <trkpt lat="44.41265" lon="5.55955">
        <ele>821</ele>
        <time>2019-06-07T08:59:59Z</time>
      </trkpt>
      <trkpt lat="44.41266" lon="5.55959">
        <ele>822</ele>
        <time>2019-06-07T09:00:00Z</time>
      </trkpt>
      <trkpt lat="44.41266" lon="5.55963">
        <ele>822</ele>
        <time>2019-06-07T09:00:01Z</time>
      </trkpt>
      <trkpt lat="44.41266" lon="5.55967">
        <ele>822</ele>
        <time>2019-06-07T09:00:02Z</time>
      </trkpt>
      <trkpt lat="44.41266" lon="5.55971">
        <ele>822</ele>
        <time>2019-06-07T09:00:03Z</time>
      </trkpt>
      <trkpt lat="44.41266" lon="5.55975">
        <ele>822</ele>
        <time>2019-06-07T09:00:04Z</time>
      </trkpt>
      <trkpt lat="44.41266" lon="5.55979">
        <ele>823</ele>
        <time>2019-06-07T09:00:05Z</time>
      </trkpt>
      <trkpt lat="44.41267" lon="5.55983">
        <ele>823</ele>
        <time>2019-06-07T09:00:06Z</time>
      </trkpt>
      <trkpt lat="44.41267" lon="5.55988">
        <ele>823</ele>
        <time>2019-06-07T09:00:07Z</time>
      </trkpt>
      <trkpt lat="44.41267" lon="5.55992">
        <ele>823</ele>
        <time>2019-06-07T09:00:08Z</time>
      </trkpt>
      <trkpt lat="44.41267" lon="5.55996">
        <ele>823</ele>
        <time>2019-06-07T09:00:09Z</time>
      </trkpt>
      <trkpt lat="44.41267" lon="5.56">
        <ele>823</ele>
        <time>2019-06-07T09:00:10Z</time>
      </trkpt>
      <trkpt lat="44.41267" lon="5.56004">
        <ele>824</ele>
        <time>2019-06-07T09:00:11Z</time>
      </trkpt>
      <trkpt lat="44.41268" lon="5.56008">
        <ele>824</ele>
        <time>2019-06-07T09:00:12Z</time>
      </trkpt>
      <trkpt lat="44.41268" lon="5.56013">
        <ele>824</ele>
        <time>2019-06-07T09:00:13Z</time>
      </trkpt>
      <trkpt lat="44.41268" lon="5.56017">
        <ele>824</ele>
        <time>2019-06-07T09:00:14Z</time>
      </trkpt>
      <trkpt lat="44.41269" lon="5.56021">
        <ele>824</ele>
        <time>2019-06-07T09:00:15Z</time>
      </trkpt>
      <trkpt lat="44.41269" lon="5.56026">
        <ele>825</ele>
        <time>2019-06-07T09:00:16Z</time>
      </trkpt>
      <trkpt lat="44.4127" lon="5.5603">
        <ele>825</ele>
        <time>2019-06-07T09:00:17Z</time>
      </trkpt>
      <trkpt lat="44.4127" lon="5.56034">
        <ele>825</ele>
        <time>2019-06-07T09:00:18Z</time>
      </trkpt>
      <trkpt lat="44.41271" lon="5.56039">
        <ele>825</ele>
        <time>2019-06-07T09:00:19Z</time>
      </trkpt>
      <trkpt lat="44.41271" lon="5.56043">
        <ele>825</ele>
        <time>2019-06-07T09:00:20Z</time>
      </trkpt>
      <trkpt lat="44.41271" lon="5.56048">
        <ele>825</ele>
        <time>2019-06-07T09:00:21Z</time>
      </trkpt>
      <trkpt lat="44.41272" lon="5.56053">
        <ele>826</ele>
        <time>2019-06-07T09:00:22Z</time>
      </trkpt>
      <trkpt lat="44.41272" lon="5.56057">
        <ele>826</ele>
        <time>2019-06-07T09:00:23Z</time>
      </trkpt>
      <trkpt lat="44.41272" lon="5.56062">
        <ele>826</ele>
        <time>2019-06-07T09:00:24Z</time>
      </trkpt>
      <trkpt lat="44.41273" lon="5.56067">
        <ele>826</ele>
        <time>2019-06-07T09:00:25Z</time>
      </trkpt>
      <trkpt lat="44.41273" lon="5.56072">
        <ele>826</ele>
        <time>2019-06-07T09:00:26Z</time>
      </trkpt>
      <trkpt lat="44.41273" lon="5.56077">
        <ele>826</ele>
        <time>2019-06-07T09:00:27Z</time>
      </trkpt>
      <trkpt lat="44.41274" lon="5.56082">
        <ele>826</ele>
        <time>2019-06-07T09:00:28Z</time>
      </trkpt>
      <trkpt lat="44.41274" lon="5.56087">
        <ele>826</ele>
        <time>2019-06-07T09:00:29Z</time>
      </trkpt>
      <trkpt lat="44.41274" lon="5.56092">
        <ele>827</ele>
        <time>2019-06-07T09:00:30Z</time>
      </trkpt>
      <trkpt lat="44.41274" lon="5.56097">
        <ele>827</ele>
        <time>2019-06-07T09:00:31Z</time>
      </trkpt>
      <trkpt lat="44.41274" lon="5.56103">
        <ele>827</ele>
        <time>2019-06-07T09:00:32Z</time>
      </trkpt>
      <trkpt lat="44.41274" lon="5.56108">
        <ele>827</ele>
        <time>2019-06-07T09:00:33Z</time>
      </trkpt>
      <trkpt lat="44.41274" lon="5.56113">
        <ele>827</ele>
        <time>2019-06-07T09:00:34Z</time>
      </trkpt>
      <trkpt lat="44.41274" lon="5.56118">
        <ele>827</ele>
        <time>2019-06-07T09:00:35Z</time>
      </trkpt>
      <trkpt lat="44.41274" lon="5.56124">
        <ele>827</ele>
        <time>2019-06-07T09:00:36Z</time>
      </trkpt>
      <trkpt lat="44.41274" lon="5.56129">
        <ele>827</ele>
        <time>2019-06-07T09:00:37Z</time>
      </trkpt>
      <trkpt lat="44.41274" lon="5.56135">
        <ele>828</ele>
        <time>2019-06-07T09:00:38Z</time>
      </trkpt>
      <trkpt lat="44.41275" lon="5.5614">
        <ele>828</ele>
        <time>2019-06-07T09:00:39Z</time>
      </trkpt>
      <trkpt lat="44.41275" lon="5.56146">
        <ele>828</ele>
        <time>2019-06-07T09:00:40Z</time>
      </trkpt>
      <trkpt lat="44.41276" lon="5.56152">
        <ele>828</ele>
        <time>2019-06-07T09:00:41Z</time>
      </trkpt>
      <trkpt lat="44.41277" lon="5.56158">
        <ele>828</ele>
        <time>2019-06-07T09:00:42Z</time>
      </trkpt>
      <trkpt lat="44.41277" lon="5.56164">
        <ele>828</ele>
        <time>2019-06-07T09:00:43Z</time>
      </trkpt>
      <trkpt lat="44.41277" lon="5.5617">
        <ele>828</ele>
        <time>2019-06-07T09:00:44Z</time>
      </trkpt>
      <trkpt lat="44.41277" lon="5.56176">
        <ele>828</ele>
        <time>2019-06-07T09:00:45Z</time>
      </trkpt>
      <trkpt lat="44.41278" lon="5.56182">
        <ele>828</ele>
        <time>2019-06-07T09:00:46Z</time>
      </trkpt>
      <trkpt lat="44.41279" lon="5.56188">
        <ele>828</ele>
        <time>2019-06-07T09:00:47Z</time>
      </trkpt>
      <trkpt lat="44.4128" lon="5.56194">
        <ele>828</ele>
        <time>2019-06-07T09:00:48Z</time>
      </trkpt>
      <trkpt lat="44.4128" lon="5.562">
        <ele>828</ele>
        <time>2019-06-07T09:00:49Z</time>
      </trkpt>
      <trkpt lat="44.41282" lon="5.56206">
        <ele>829</ele>
        <time>2019-06-07T09:00:50Z</time>
      </trkpt>
      <trkpt lat="44.41283" lon="5.56212">
        <ele>829</ele>
        <time>2019-06-07T09:00:51Z</time>
      </trkpt>
      <trkpt lat="44.41285" lon="5.56218">
        <ele>829</ele>
        <time>2019-06-07T09:00:52Z</time>
      </trkpt>
      <trkpt lat="44.41287" lon="5.56224">
        <ele>829</ele>
        <time>2019-06-07T09:00:53Z</time>
      </trkpt>
      <trkpt lat="44.41289" lon="5.5623">
        <ele>829</ele>
        <time>2019-06-07T09:00:54Z</time>
      </trkpt>
      <trkpt lat="44.41291" lon="5.56236">
        <ele>829</ele>
        <time>2019-06-07T09:00:55Z</time>
      </trkpt>
      <trkpt lat="44.41293" lon="5.56242">
        <ele>829</ele>
        <time>2019-06-07T09:00:56Z</time>
      </trkpt>
      <trkpt lat="44.41295" lon="5.56248">
        <ele>829</ele>
        <time>2019-06-07T09:00:57Z</time>
      </trkpt>
      <trkpt lat="44.41298" lon="5.56254">
        <ele>829</ele>
        <time>2019-06-07T09:00:58Z</time>
      </trkpt>
      <trkpt lat="44.41301" lon="5.5626">
        <ele>829</ele>
        <time>2019-06-07T09:00:59Z</time>
      </trkpt>
      <trkpt lat="44.41305" lon="5.56266">
        <ele>829</ele>
        <time>2019-06-07T09:01:00Z</time>
      </trkpt>
      <trkpt lat="44.41309" lon="5.56272">
        <ele>829</ele>
        <time>2019-06-07T09:01:01Z</time>
      </trkpt>
      <trkpt lat="44.41312" lon="5.56278">
        <ele>829</ele>
        <time>2019-06-07T09:01:02Z</time>
      </trkpt>
      <trkpt lat="44.41317" lon="5.56284">
        <ele>829</ele>
        <time>2019-06-07T09:01:03Z</time>
      </trkpt>
      <trkpt lat="44.41321" lon="5.56289">
        <ele>829</ele>
        <time>2019-06-07T09:01:04Z</time>
      </trkpt>
      <trkpt lat="44.41326" lon="5.56296">
        <ele>829</ele>
        <time>2019-06-07T09:01:05Z</time>
      </trkpt>
      <trkpt lat="44.41331" lon="5.56302">
        <ele>829</ele>
        <time>2019-06-07T09:01:06Z</time>
      </trkpt>
      <trkpt lat="44.41336" lon="5.56309">
        <ele>829</ele>
        <time>2019-06-07T09:01:07Z</time>
      </trkpt>
      <trkpt lat="44.41341" lon="5.56317">
        <ele>829</ele>
        <time>2019-06-07T09:01:08Z</time>
      </trkpt>
      <trkpt lat="44.41346" lon="5.56324">
        <ele>829</ele>
        <time>2019-06-07T09:01:09Z</time>
      </trkpt>
      <trkpt lat="44.41351" lon="5.56332">
        <ele>829</ele>
        <time>2019-06-07T09:01:10Z</time>
      </trkpt>
      <trkpt lat="44.41356" lon="5.56341">
        <ele>829</ele>
        <time>2019-06-07T09:01:11Z</time>
      </trkpt>
      <trkpt lat="44.4136" lon="5.56349">
        <ele>829</ele>
        <time>2019-06-07T09:01:12Z</time>
      </trkpt>
      <trkpt lat="44.41365" lon="5.56358">
        <ele>829</ele>
        <time>2019-06-07T09:01:13Z</time>
      </trkpt>
      <trkpt lat="44.41369" lon="5.56367">
        <ele>829</ele>
        <time>2019-06-07T09:01:14Z</time>
      </trkpt>
      <trkpt lat="44.41373" lon="5.56377">
        <ele>829</ele>
        <time>2019-06-07T09:01:15Z</time>
      </trkpt>
      <trkpt lat="44.41376" lon="5.56387">
        <ele>829</ele>
        <time>2019-06-07T09:01:16Z</time>
      </trkpt>
      <trkpt lat="44.41379" lon="5.56397">
        <ele>829</ele>
        <time>2019-06-07T09:01:17Z</time>
      </trkpt>
      <trkpt lat="44.41381" lon="5.56408">
        <ele>829</ele>
        <time>2019-06-07T09:01:18Z</time>
      </trkpt>
      <trkpt lat="44.41383" lon="5.56419">
        <ele>829</ele>
        <time>2019-06-07T09:01:19Z</time>
      </trkpt>
      <trkpt lat="44.41384" lon="5.56429">
        <ele>829</ele>
        <time>2019-06-07T09:01:20Z</time>
      </trkpt>
      <trkpt lat="44.41384" lon="5.56439">
        <ele>829</ele>
        <time>2019-06-07T09:01:21Z</time>
      </trkpt>
      <trkpt lat="44.41384" lon="5.5645">
        <ele>829</ele>
        <time>2019-06-07T09:01:22Z</time>
      </trkpt>
      <trkpt lat="44.41384" lon="5.56461">
        <ele>829</ele>
        <time>2019-06-07T09:01:23Z</time>
      </trkpt>
      <trkpt lat="44.41383" lon="5.56471">
        <ele>829</ele>
        <time>2019-06-07T09:01:24Z</time>
      </trkpt>
      <trkpt lat="44.41382" lon="5.56481">
        <ele>829</ele>
        <time>2019-06-07T09:01:25Z</time>
      </trkpt>
      <trkpt lat="44.41381" lon="5.56491">
        <ele>829</ele>
        <time>2019-06-07T09:01:26Z</time>
      </trkpt>
      <trkpt lat="44.41381" lon="5.565">
        <ele>829</ele>
        <time>2019-06-07T09:01:27Z</time>
      </trkpt>
      <trkpt lat="44.4138" lon="5.5651">
        <ele>829</ele>
        <time>2019-06-07T09:01:28Z</time>
      </trkpt>
      <trkpt lat="44.41379" lon="5.56519">
        <ele>829</ele>
        <time>2019-06-07T09:01:29Z</time>
      </trkpt>
      <trkpt lat="44.41379" lon="5.56528">
        <ele>829</ele>
        <time>2019-06-07T09:01:30Z</time>
      </trkpt>
      <trkpt lat="44.41378" lon="5.56537">
        <ele>829</ele>
        <time>2019-06-07T09:01:31Z</time>
      </trkpt>
      <trkpt lat="44.41377" lon="5.56545">
        <ele>829</ele>
        <time>2019-06-07T09:01:32Z</time>
      </trkpt>
      <trkpt lat="44.41377" lon="5.56554">
        <ele>829</ele>
        <time>2019-06-07T09:01:33Z</time>
      </trkpt>
      <trkpt lat="44.41376" lon="5.56563">
        <ele>829</ele>
        <time>2019-06-07T09:01:34Z</time>
      </trkpt>
      <trkpt lat="44.41375" lon="5.56571">
        <ele>829</ele>
        <time>2019-06-07T09:01:35Z</time>
      </trkpt>
      <trkpt lat="44.41375" lon="5.56579">
        <ele>829</ele>
        <time>2019-06-07T09:01:36Z</time>
      </trkpt>
      <trkpt lat="44.41375" lon="5.56588">
        <ele>829</ele>
        <time>2019-06-07T09:01:37Z</time>
      </trkpt>
      <trkpt lat="44.41374" lon="5.56597">
        <ele>829</ele>
        <time>2019-06-07T09:01:38Z</time>
      </trkpt>
      <trkpt lat="44.41374" lon="5.56605">
        <ele>829</ele>
        <time>2019-06-07T09:01:39Z</time>
      </trkpt>
      <trkpt lat="44.41374" lon="5.56614">
        <ele>829</ele>
        <time>2019-06-07T09:01:40Z</time>
      </trkpt>
      <trkpt lat="44.41373" lon="5.56622">
        <ele>829</ele>
        <time>2019-06-07T09:01:41Z</time>
      </trkpt>
      <trkpt lat="44.41373" lon="5.56631">
        <ele>829</ele>
        <time>2019-06-07T09:01:42Z</time>
      </trkpt>
      <trkpt lat="44.41373" lon="5.56639">
        <ele>829</ele>
        <time>2019-06-07T09:01:43Z</time>
      </trkpt>
      <trkpt lat="44.41372" lon="5.56647">
        <ele>829</ele>
        <time>2019-06-07T09:01:44Z</time>
      </trkpt>
      <trkpt lat="44.41372" lon="5.56655">
        <ele>829</ele>
        <time>2019-06-07T09:01:45Z</time>
      </trkpt>
      <trkpt lat="44.41371" lon="5.56663">
        <ele>829</ele>
        <time>2019-06-07T09:01:46Z</time>
      </trkpt>
      <trkpt lat="44.41371" lon="5.56671">
        <ele>829</ele>
        <time>2019-06-07T09:01:47Z</time>
      </trkpt>
      <trkpt lat="44.4137" lon="5.56679">
        <ele>829</ele>
        <time>2019-06-07T09:01:48Z</time>
      </trkpt>
      <trkpt lat="44.4137" lon="5.56686">
        <ele>829</ele>
        <time>2019-06-07T09:01:49Z</time>
      </trkpt>
      <trkpt lat="44.4137" lon="5.56693">
        <ele>829</ele>
        <time>2019-06-07T09:01:50Z</time>
      </trkpt>
      <trkpt lat="44.41369" lon="5.56701">
        <ele>829</ele>
        <time>2019-06-07T09:01:51Z</time>
      </trkpt>
      <trkpt lat="44.41369" lon="5.56708">
        <ele>829</ele>
        <time>2019-06-07T09:01:52Z</time>
      </trkpt>
      <trkpt lat="44.41368" lon="5.56715">
        <ele>829</ele>
        <time>2019-06-07T09:01:53Z</time>
      </trkpt>
      <trkpt lat="44.41368" lon="5.56723">
        <ele>829</ele>
        <time>2019-06-07T09:01:54Z</time>
      </trkpt>
      <trkpt lat="44.41368" lon="5.5673">
        <ele>829</ele>
        <time>2019-06-07T09:01:55Z</time>
      </trkpt>
      <trkpt lat="44.41368" lon="5.56738">
        <ele>829</ele>
        <time>2019-06-07T09:01:56Z</time>
      </trkpt>
      <trkpt lat="44.41368" lon="5.56745">
        <ele>829</ele>
        <time>2019-06-07T09:01:57Z</time>
      </trkpt>
      <trkpt lat="44.41368" lon="5.56753">
        <ele>829</ele>
        <time>2019-06-07T09:01:58Z</time>
      </trkpt>
      <trkpt lat="44.41368" lon="5.56761">
        <ele>829</ele>
        <time>2019-06-07T09:01:59Z</time>
      </trkpt>
      <trkpt lat="44.41369" lon="5.56769">
        <ele>829</ele>
        <time>2019-06-07T09:02:00Z</time>
      </trkpt>
      <trkpt lat="44.4137" lon="5.56777">
        <ele>829</ele>
        <time>2019-06-07T09:02:01Z</time>
      </trkpt>
      <trkpt lat="44.4137" lon="5.56785">
        <ele>829</ele>
        <time>2019-06-07T09:02:02Z</time>
      </trkpt>
      <trkpt lat="44.41371" lon="5.56794">
        <ele>829</ele>
        <time>2019-06-07T09:02:03Z</time>
      </trkpt>
      <trkpt lat="44.41372" lon="5.56803">
        <ele>829</ele>
        <time>2019-06-07T09:02:04Z</time>
      </trkpt>
      <trkpt lat="44.41373" lon="5.56812">
        <ele>829</ele>
        <time>2019-06-07T09:02:05Z</time>
      </trkpt>
      <trkpt lat="44.41374" lon="5.56821">
        <ele>829</ele>
        <time>2019-06-07T09:02:06Z</time>
      </trkpt>
      <trkpt lat="44.41375" lon="5.56831">
        <ele>829</ele>
        <time>2019-06-07T09:02:07Z</time>
      </trkpt>
      <trkpt lat="44.41375" lon="5.5684">
        <ele>829</ele>
        <time>2019-06-07T09:02:08Z</time>
      </trkpt>
      <trkpt lat="44.41376" lon="5.5685">
        <ele>829</ele>
        <time>2019-06-07T09:02:09Z</time>
      </trkpt>
      <trkpt lat="44.41378" lon="5.5686">
        <ele>829</ele>
        <time>2019-06-07T09:02:10Z</time>
      </trkpt>
      <trkpt lat="44.41378" lon="5.56871">
        <ele>829</ele>
        <time>2019-06-07T09:02:11Z</time>
      </trkpt>
      <trkpt lat="44.4138" lon="5.56881">
        <ele>829</ele>
        <time>2019-06-07T09:02:12Z</time>
      </trkpt>
      <trkpt lat="44.4138" lon="5.56891">
        <ele>829</ele>
        <time>2019-06-07T09:02:13Z</time>
      </trkpt>
      <trkpt lat="44.41382" lon="5.56902">
        <ele>829</ele>
        <time>2019-06-07T09:02:14Z</time>
      </trkpt>
      <trkpt lat="44.41383" lon="5.56912">
        <ele>828</ele>
        <time>2019-06-07T09:02:15Z</time>
      </trkpt>
      <trkpt lat="44.41384" lon="5.56923">
        <ele>828</ele>
        <time>2019-06-07T09:02:16Z</time>
      </trkpt>
      <trkpt lat="44.41385" lon="5.56934">
        <ele>828</ele>
        <time>2019-06-07T09:02:17Z</time>
      </trkpt>
      <trkpt lat="44.41386" lon="5.56945">
        <ele>828</ele>
        <time>2019-06-07T09:02:18Z</time>
      </trkpt>
      <trkpt lat="44.41387" lon="5.56955">
        <ele>828</ele>
        <time>2019-06-07T09:02:19Z</time>
      </trkpt>
      <trkpt lat="44.41388" lon="5.56966">
        <ele>828</ele>
        <time>2019-06-07T09:02:20Z</time>
      </trkpt>
      <trkpt lat="44.41389" lon="5.56976">
        <ele>828</ele>
        <time>2019-06-07T09:02:21Z</time>
      </trkpt>
      <trkpt lat="44.4139" lon="5.56986">
        <ele>828</ele>
        <time>2019-06-07T09:02:22Z</time>
      </trkpt>
      <trkpt lat="44.41391" lon="5.56996">
        <ele>828</ele>
        <time>2019-06-07T09:02:23Z</time>
      </trkpt>
      <trkpt lat="44.41392" lon="5.57006">
        <ele>828</ele>
        <time>2019-06-07T09:02:24Z</time>
      </trkpt>
      <trkpt lat="44.41393" lon="5.57016">
        <ele>828</ele>
        <time>2019-06-07T09:02:25Z</time>
      </trkpt>
      <trkpt lat="44.41394" lon="5.57026">
        <ele>828</ele>
        <time>2019-06-07T09:02:26Z</time>
      </trkpt>
      <trkpt lat="44.41395" lon="5.57035">
        <ele>828</ele>
        <time>2019-06-07T09:02:27Z</time>
      </trkpt>
      <trkpt lat="44.41396" lon="5.57045">
        <ele>828</ele>
        <time>2019-06-07T09:02:28Z</time>
      </trkpt>
      <trkpt lat="44.41397" lon="5.57055">
        <ele>828</ele>
        <time>2019-06-07T09:02:29Z</time>
      </trkpt>
      <trkpt lat="44.41398" lon="5.57064">
        <ele>828</ele>
        <time>2019-06-07T09:02:30Z</time>
      </trkpt>
      <trkpt lat="44.41399" lon="5.57074">
        <ele>828</ele>
        <time>2019-06-07T09:02:31Z</time>
      </trkpt>
      <trkpt lat="44.41401" lon="5.57084">
        <ele>828</ele>
        <time>2019-06-07T09:02:32Z</time>
      </trkpt>
      <trkpt lat="44.41402" lon="5.57093">
        <ele>828</ele>
        <time>2019-06-07T09:02:33Z</time>
      </trkpt>
      <trkpt lat="44.41403" lon="5.57103">
        <ele>828</ele>
        <time>2019-06-07T09:02:34Z</time>
      </trkpt>
      <trkpt lat="44.41404" lon="5.57112">
        <ele>828</ele>
        <time>2019-06-07T09:02:35Z</time>
      </trkpt>
      <trkpt lat="44.41405" lon="5.57121">
        <ele>828</ele>
        <time>2019-06-07T09:02:36Z</time>
      </trkpt>
      <trkpt lat="44.41406" lon="5.5713">
        <ele>828</ele>
        <time>2019-06-07T09:02:37Z</time>
      </trkpt>
      <trkpt lat="44.41407" lon="5.57138">
        <ele>828</ele>
        <time>2019-06-07T09:02:38Z</time>
      </trkpt>
      <trkpt lat="44.41407" lon="5.57146">
        <ele>828</ele>
        <time>2019-06-07T09:02:39Z</time>
      </trkpt>
      <trkpt lat="44.41408" lon="5.57154">
        <ele>828</ele>
        <time>2019-06-07T09:02:40Z</time>
      </trkpt>
      <trkpt lat="44.41409" lon="5.57162">
        <ele>828</ele>
        <time>2019-06-07T09:02:41Z</time>
      </trkpt>
      <trkpt lat="44.4141" lon="5.57169">
        <ele>828</ele>
        <time>2019-06-07T09:02:42Z</time>
      </trkpt>
      <trkpt lat="44.4141" lon="5.57176">
        <ele>828</ele>
        <time>2019-06-07T09:02:43Z</time>
      </trkpt>
      <trkpt lat="44.41411" lon="5.57183">
        <ele>828</ele>
        <time>2019-06-07T09:02:44Z</time>
      </trkpt>
      <trkpt lat="44.41412" lon="5.57189">
        <ele>828</ele>
        <time>2019-06-07T09:02:45Z</time>
      </trkpt>
      <trkpt lat="44.41412" lon="5.57195">
        <ele>828</ele>
        <time>2019-06-07T09:02:46Z</time>
      </trkpt>
      <trkpt lat="44.41413" lon="5.57201">
        <ele>828</ele>
        <time>2019-06-07T09:02:47Z</time>
      </trkpt>
      <trkpt lat="44.41413" lon="5.57207">
        <ele>828</ele>
        <time>2019-06-07T09:02:48Z</time>
      </trkpt>
      <trkpt lat="44.41414" lon="5.57213">
        <ele>828</ele>
        <time>2019-06-07T09:02:49Z</time>
      </trkpt>
      <trkpt lat="44.41415" lon="5.57219">
        <ele>828</ele>
        <time>2019-06-07T09:02:50Z</time>
      </trkpt>
      <trkpt lat="44.41415" lon="5.57224">
        <ele>828</ele>
        <time>2019-06-07T09:02:51Z</time>
      </trkpt>
      <trkpt lat="44.41415" lon="5.5723">
        <ele>828</ele>
        <time>2019-06-07T09:02:52Z</time>
      </trkpt>
      <trkpt lat="44.41416" lon="5.57235">
        <ele>829</ele>
        <time>2019-06-07T09:02:53Z</time>
      </trkpt>
      <trkpt lat="44.41416" lon="5.5724">
        <ele>829</ele>
        <time>2019-06-07T09:02:54Z</time>
      </trkpt>
      <trkpt lat="44.41417" lon="5.57245">
        <ele>829</ele>
        <time>2019-06-07T09:02:55Z</time>
      </trkpt>
      <trkpt lat="44.41417" lon="5.5725">
        <ele>830</ele>
        <time>2019-06-07T09:02:56Z</time>
      </trkpt>
      <trkpt lat="44.41418" lon="5.57255">
        <ele>830</ele>
        <time>2019-06-07T09:02:57Z</time>
      </trkpt>
      <trkpt lat="44.41418" lon="5.5726">
        <ele>830</ele>
        <time>2019-06-07T09:02:58Z</time>
      </trkpt>
      <trkpt lat="44.41419" lon="5.57265">
        <ele>831</ele>
        <time>2019-06-07T09:02:59Z</time>
      </trkpt>
      <trkpt lat="44.4142" lon="5.5727">
        <ele>831</ele>
        <time>2019-06-07T09:03:00Z</time>
      </trkpt>
      <trkpt lat="44.4142" lon="5.57275">
        <ele>831</ele>
        <time>2019-06-07T09:03:01Z</time>
      </trkpt>
      <trkpt lat="44.41421" lon="5.57279">
        <ele>831</ele>
        <time>2019-06-07T09:03:02Z</time>
      </trkpt>
      <trkpt lat="44.41421" lon="5.57284">
        <ele>832</ele>
        <time>2019-06-07T09:03:03Z</time>
      </trkpt>
      <trkpt lat="44.41422" lon="5.57289">
        <ele>832</ele>
        <time>2019-06-07T09:03:04Z</time>
      </trkpt>
      <trkpt lat="44.41422" lon="5.57294">
        <ele>832</ele>
        <time>2019-06-07T09:03:05Z</time>
      </trkpt>
      <trkpt lat="44.41423" lon="5.57299">
        <ele>832</ele>
        <time>2019-06-07T09:03:06Z</time>
      </trkpt>
      <trkpt lat="44.41424" lon="5.57303">
        <ele>833</ele>
        <time>2019-06-07T09:03:07Z</time>
      </trkpt>
      <trkpt lat="44.41424" lon="5.57308">
        <ele>833</ele>
        <time>2019-06-07T09:03:08Z</time>
      </trkpt>
      <trkpt lat="44.41425" lon="5.57312">
        <ele>833</ele>
        <time>2019-06-07T09:03:09Z</time>
      </trkpt>
      <trkpt lat="44.41425" lon="5.57317">
        <ele>834</ele>
        <time>2019-06-07T09:03:10Z</time>
      </trkpt>
      <trkpt lat="44.41426" lon="5.57321">
        <ele>834</ele>
        <time>2019-06-07T09:03:11Z</time>
      </trkpt>
      <trkpt lat="44.41427" lon="5.57326">
        <ele>834</ele>
        <time>2019-06-07T09:03:12Z</time>
      </trkpt>
      <trkpt lat="44.41427" lon="5.5733">
        <ele>834</ele>
        <time>2019-06-07T09:03:13Z</time>
      </trkpt>
      <trkpt lat="44.41428" lon="5.57335">
        <ele>835</ele>
        <time>2019-06-07T09:03:14Z</time>
      </trkpt>
      <trkpt lat="44.41429" lon="5.57339">
        <ele>835</ele>
        <time>2019-06-07T09:03:15Z</time>
      </trkpt>
      <trkpt lat="44.4143" lon="5.57343">
        <ele>835</ele>
        <time>2019-06-07T09:03:16Z</time>
      </trkpt>
      <trkpt lat="44.4143" lon="5.57347">
        <ele>835</ele>
        <time>2019-06-07T09:03:17Z</time>
      </trkpt>
      <trkpt lat="44.41431" lon="5.57351">
        <ele>835</ele>
        <time>2019-06-07T09:03:18Z</time>
      </trkpt>
      <trkpt lat="44.41432" lon="5.57356">
        <ele>836</ele>
        <time>2019-06-07T09:03:19Z</time>
      </trkpt>
      <trkpt lat="44.41432" lon="5.5736">
        <ele>836</ele>
        <time>2019-06-07T09:03:20Z</time>
      </trkpt>
      <trkpt lat="44.41432" lon="5.57364">
        <ele>836</ele>
        <time>2019-06-07T09:03:21Z</time>
      </trkpt>
      <trkpt lat="44.41433" lon="5.57369">
        <ele>836</ele>
        <time>2019-06-07T09:03:22Z</time>
      </trkpt>
      <trkpt lat="44.41433" lon="5.57373">
        <ele>837</ele>
        <time>2019-06-07T09:03:23Z</time>
      </trkpt>
      <trkpt lat="44.41434" lon="5.57377">
        <ele>837</ele>
        <time>2019-06-07T09:03:24Z</time>
      </trkpt>
      <trkpt lat="44.41434" lon="5.57381">
        <ele>837</ele>
        <time>2019-06-07T09:03:25Z</time>
      </trkpt>
      <trkpt lat="44.41434" lon="5.57385">
        <ele>837</ele>
        <time>2019-06-07T09:03:26Z</time>
      </trkpt>
      <trkpt lat="44.41434" lon="5.57389">
        <ele>837</ele>
        <time>2019-06-07T09:03:27Z</time>
      </trkpt>
      <trkpt lat="44.41435" lon="5.57393">
        <ele>837</ele>
        <time>2019-06-07T09:03:28Z</time>
      </trkpt>
      <trkpt lat="44.41435" lon="5.57398">
        <ele>837</ele>
        <time>2019-06-07T09:03:29Z</time>
      </trkpt>
      <trkpt lat="44.41436" lon="5.57402">
        <ele>837</ele>
        <time>2019-06-07T09:03:30Z</time>
      </trkpt>
      <trkpt lat="44.41436" lon="5.57406">
        <ele>837</ele>
        <time>2019-06-07T09:03:31Z</time>
      </trkpt>
      <trkpt lat="44.41437" lon="5.5741">
        <ele>837</ele>
        <time>2019-06-07T09:03:32Z</time>
      </trkpt>
      <trkpt lat="44.41437" lon="5.57414">
        <ele>837</ele>
        <time>2019-06-07T09:03:33Z</time>
      </trkpt>
      <trkpt lat="44.41438" lon="5.57418">
        <ele>837</ele>
        <time>2019-06-07T09:03:34Z</time>
      </trkpt>
      <trkpt lat="44.41438" lon="5.57422">
        <ele>837</ele>
        <time>2019-06-07T09:03:35Z</time>
      </trkpt>
      <trkpt lat="44.41439" lon="5.57426">
        <ele>837</ele>
        <time>2019-06-07T09:03:36Z</time>
      </trkpt>
      <trkpt lat="44.41439" lon="5.5743">
        <ele>837</ele>
        <time>2019-06-07T09:03:37Z</time>
      </trkpt>
      <trkpt lat="44.4144" lon="5.57433">
        <ele>837</ele>
        <time>2019-06-07T09:03:38Z</time>
      </trkpt>
      <trkpt lat="44.4144" lon="5.57437">
        <ele>838</ele>
        <time>2019-06-07T09:03:39Z</time>
      </trkpt>
      <trkpt lat="44.41441" lon="5.57441">
        <ele>838</ele>
        <time>2019-06-07T09:03:40Z</time>
      </trkpt>
      <trkpt lat="44.41441" lon="5.57444">
        <ele>838</ele>
        <time>2019-06-07T09:03:41Z</time>
      </trkpt>
      <trkpt lat="44.41442" lon="5.57448">
        <ele>838</ele>
        <time>2019-06-07T09:03:42Z</time>
      </trkpt>
      <trkpt lat="44.41442" lon="5.57452">
        <ele>838</ele>
        <time>2019-06-07T09:03:43Z</time>
      </trkpt>
      <trkpt lat="44.41442" lon="5.57456">
        <ele>838</ele>
        <time>2019-06-07T09:03:44Z</time>
      </trkpt>
      <trkpt lat="44.41443" lon="5.57459">
        <ele>838</ele>
        <time>2019-06-07T09:03:45Z</time>
      </trkpt>
      <trkpt lat="44.41444" lon="5.57463">
        <ele>839</ele>
        <time>2019-06-07T09:03:46Z</time>
      </trkpt>
      <trkpt lat="44.41444" lon="5.57467">
        <ele>839</ele>
        <time>2019-06-07T09:03:47Z</time>
      </trkpt>
      <trkpt lat="44.41444" lon="5.5747">
        <ele>839</ele>
        <time>2019-06-07T09:03:48Z</time>
      </trkpt>
      <trkpt lat="44.41445" lon="5.57474">
        <ele>839</ele>
        <time>2019-06-07T09:03:49Z</time>
      </trkpt>
      <trkpt lat="44.41445" lon="5.57478">
        <ele>839</ele>
        <time>2019-06-07T09:03:50Z</time>
      </trkpt>
      <trkpt lat="44.41446" lon="5.57481">
        <ele>839</ele>
        <time>2019-06-07T09:03:51Z</time>
      </trkpt>
      <trkpt lat="44.41446" lon="5.57485">
        <ele>839</ele>
        <time>2019-06-07T09:03:52Z</time>
      </trkpt>
      <trkpt lat="44.41447" lon="5.57488">
        <ele>840</ele>
        <time>2019-06-07T09:03:53Z</time>
      </trkpt>
      <trkpt lat="44.41447" lon="5.57492">
        <ele>840</ele>
        <time>2019-06-07T09:03:54Z</time>
      </trkpt>
      <trkpt lat="44.41448" lon="5.57495">
        <ele>840</ele>
        <time>2019-06-07T09:03:55Z</time>
      </trkpt>
      <trkpt lat="44.41448" lon="5.57499">
        <ele>840</ele>
        <time>2019-06-07T09:03:56Z</time>
      </trkpt>
      <trkpt lat="44.41449" lon="5.57502">
        <ele>840</ele>
        <time>2019-06-07T09:03:57Z</time>
      </trkpt>
      <trkpt lat="44.41449" lon="5.57506">
        <ele>840</ele>
        <time>2019-06-07T09:03:58Z</time>
      </trkpt>
      <trkpt lat="44.4145" lon="5.57509">
        <ele>841</ele>
        <time>2019-06-07T09:03:59Z</time>
      </trkpt>
      <trkpt lat="44.41451" lon="5.57513">
        <ele>841</ele>
        <time>2019-06-07T09:04:00Z</time>
      </trkpt>
      <trkpt lat="44.41452" lon="5.57516">
        <ele>841</ele>
        <time>2019-06-07T09:04:01Z</time>
      </trkpt>
      <trkpt lat="44.41453" lon="5.57519">
        <ele>841</ele>
        <time>2019-06-07T09:04:02Z</time>
      </trkpt>
      <trkpt lat="44.41454" lon="5.57523">
        <ele>841</ele>
        <time>2019-06-07T09:04:03Z</time>
      </trkpt>
      <trkpt lat="44.41455" lon="5.57526">
        <ele>842</ele>
        <time>2019-06-07T09:04:04Z</time>
      </trkpt>
      <trkpt lat="44.41456" lon="5.57529">
        <ele>842</ele>
        <time>2019-06-07T09:04:05Z</time>
      </trkpt>
      <trkpt lat="44.41457" lon="5.57533">
        <ele>842</ele>
        <time>2019-06-07T09:04:06Z</time>
      </trkpt>
      <trkpt lat="44.41458" lon="5.57536">
        <ele>843</ele>
        <time>2019-06-07T09:04:07Z</time>
      </trkpt>
      <trkpt lat="44.41459" lon="5.57539">
        <ele>843</ele>
        <time>2019-06-07T09:04:08Z</time>
      </trkpt>
      <trkpt lat="44.4146" lon="5.57543">
        <ele>843</ele>
        <time>2019-06-07T09:04:09Z</time>
      </trkpt>
      <trkpt lat="44.41461" lon="5.57546">
        <ele>844</ele>
        <time>2019-06-07T09:04:10Z</time>
      </trkpt>
      <trkpt lat="44.41462" lon="5.57549">
        <ele>844</ele>
        <time>2019-06-07T09:04:11Z</time>
      </trkpt>
      <trkpt lat="44.41463" lon="5.57552">
        <ele>844</ele>
        <time>2019-06-07T09:04:12Z</time>
      </trkpt>
      <trkpt lat="44.41464" lon="5.57556">
        <ele>845</ele>
        <time>2019-06-07T09:04:13Z</time>
      </trkpt>
      <trkpt lat="44.41465" lon="5.57559">
        <ele>845</ele>
        <time>2019-06-07T09:04:14Z</time>
      </trkpt>
      <trkpt lat="44.41465" lon="5.57562">
        <ele>845</ele>
        <time>2019-06-07T09:04:15Z</time>
      </trkpt>
      <trkpt lat="44.41467" lon="5.57565">
        <ele>845</ele>
        <time>2019-06-07T09:04:16Z</time>
      </trkpt>
      <trkpt lat="44.41468" lon="5.57569">
        <ele>846</ele>
        <time>2019-06-07T09:04:17Z</time>
      </trkpt>
      <trkpt lat="44.41468" lon="5.57572">
        <ele>846</ele>
        <time>2019-06-07T09:04:18Z</time>
      </trkpt>
      <trkpt lat="44.41469" lon="5.57575">
        <ele>846</ele>
        <time>2019-06-07T09:04:19Z</time>
      </trkpt>
      <trkpt lat="44.4147" lon="5.57578">
        <ele>847</ele>
        <time>2019-06-07T09:04:20Z</time>
      </trkpt>
      <trkpt lat="44.41471" lon="5.57581">
        <ele>847</ele>
        <time>2019-06-07T09:04:21Z</time>
      </trkpt>
      <trkpt lat="44.41473" lon="5.57584">
        <ele>847</ele>
        <time>2019-06-07T09:04:22Z</time>
      </trkpt>
      <trkpt lat="44.41474" lon="5.57587">
        <ele>847</ele>
        <time>2019-06-07T09:04:23Z</time>
      </trkpt>
      <trkpt lat="44.41475" lon="5.5759">
        <ele>848</ele>
        <time>2019-06-07T09:04:24Z</time>
      </trkpt>
      <trkpt lat="44.41476" lon="5.57593">
        <ele>848</ele>
        <time>2019-06-07T09:04:25Z</time>
      </trkpt>
      <trkpt lat="44.41477" lon="5.57596">
        <ele>848</ele>
        <time>2019-06-07T09:04:26Z</time>
      </trkpt>
      <trkpt lat="44.41478" lon="5.57599">
        <ele>848</ele>
        <time>2019-06-07T09:04:27Z</time>
      </trkpt>
      <trkpt lat="44.41479" lon="5.57602">
        <ele>848</ele>
        <time>2019-06-07T09:04:28Z</time>
      </trkpt>
      <trkpt lat="44.41481" lon="5.57605">
        <ele>848</ele>
        <time>2019-06-07T09:04:29Z</time>
      </trkpt>
      <trkpt lat="44.41482" lon="5.57609">
        <ele>849</ele>
        <time>2019-06-07T09:04:30Z</time>
      </trkpt>
      <trkpt lat="44.41483" lon="5.57612">
        <ele>849</ele>
        <time>2019-06-07T09:04:31Z</time>
      </trkpt>
      <trkpt lat="44.41484" lon="5.57615">
        <ele>849</ele>
        <time>2019-06-07T09:04:32Z</time>
      </trkpt>
      <trkpt lat="44.41485" lon="5.57618">
        <ele>849</ele>
        <time>2019-06-07T09:04:33Z</time>
      </trkpt>
      <trkpt lat="44.41486" lon="5.57621">
        <ele>849</ele>
        <time>2019-06-07T09:04:34Z</time>
      </trkpt>
      <trkpt lat="44.41488" lon="5.57624">
        <ele>850</ele>
        <time>2019-06-07T09:04:35Z</time>
      </trkpt>
      <trkpt lat="44.41489" lon="5.57627">
        <ele>850</ele>
        <time>2019-06-07T09:04:36Z</time>
      </trkpt>
      <trkpt lat="44.4149" lon="5.57631">
        <ele>850</ele>
        <time>2019-06-07T09:04:37Z</time>
      </trkpt>
      <trkpt lat="44.41491" lon="5.57634">
        <ele>850</ele>
        <time>2019-06-07T09:04:38Z</time>
      </trkpt>
      <trkpt lat="44.41492" lon="5.57637">
        <ele>850</ele>
        <time>2019-06-07T09:04:39Z</time>
      </trkpt>
      <trkpt lat="44.41494" lon="5.57641">
        <ele>850</ele>
        <time>2019-06-07T09:04:40Z</time>
      </trkpt>
      <trkpt lat="44.41495" lon="5.57644">
        <ele>850</ele>
        <time>2019-06-07T09:04:41Z</time>
      </trkpt>
      <trkpt lat="44.41496" lon="5.57647">
        <ele>850</ele>
        <time>2019-06-07T09:04:42Z</time>
      </trkpt>
      <trkpt lat="44.41497" lon="5.5765">
        <ele>850</ele>
        <time>2019-06-07T09:04:43Z</time>
      </trkpt>
      <trkpt lat="44.41499" lon="5.57654">
        <ele>851</ele>
        <time>2019-06-07T09:04:44Z</time>
      </trkpt>
      <trkpt lat="44.415" lon="5.57656">
        <ele>851</ele>
        <time>2019-06-07T09:04:45Z</time>
      </trkpt>
      <trkpt lat="44.41501" lon="5.5766">
        <ele>851</ele>
        <time>2019-06-07T09:04:46Z</time>
      </trkpt>
      <trkpt lat="44.41502" lon="5.57663">
        <ele>851</ele>
        <time>2019-06-07T09:04:47Z</time>
      </trkpt>
      <trkpt lat="44.41504" lon="5.57666">
        <ele>851</ele>
        <time>2019-06-07T09:04:48Z</time>
      </trkpt>
      <trkpt lat="44.41505" lon="5.5767">
        <ele>851</ele>
        <time>2019-06-07T09:04:49Z</time>
      </trkpt>
      <trkpt lat="44.41506" lon="5.57673">
        <ele>852</ele>
        <time>2019-06-07T09:04:50Z</time>
      </trkpt>
      <trkpt lat="44.41507" lon="5.57676">
        <ele>852</ele>
        <time>2019-06-07T09:04:51Z</time>
      </trkpt>
      <trkpt lat="44.41508" lon="5.5768">
        <ele>852</ele>
        <time>2019-06-07T09:04:52Z</time>
      </trkpt>
      <trkpt lat="44.41509" lon="5.57683">
        <ele>852</ele>
        <time>2019-06-07T09:04:53Z</time>
      </trkpt>
      <trkpt lat="44.4151" lon="5.57686">
        <ele>852</ele>
        <time>2019-06-07T09:04:54Z</time>
      </trkpt>
      <trkpt lat="44.41511" lon="5.57689">
        <ele>853</ele>
        <time>2019-06-07T09:04:55Z</time>
      </trkpt>
      <trkpt lat="44.41512" lon="5.57693">
        <ele>853</ele>
        <time>2019-06-07T09:04:56Z</time>
      </trkpt>
      <trkpt lat="44.41514" lon="5.57696">
        <ele>853</ele>
        <time>2019-06-07T09:04:57Z</time>
      </trkpt>
      <trkpt lat="44.41515" lon="5.57699">
        <ele>853</ele>
        <time>2019-06-07T09:04:58Z</time>
      </trkpt>
      <trkpt lat="44.41516" lon="5.57703">
        <ele>853</ele>
        <time>2019-06-07T09:04:59Z</time>
      </trkpt>
      <trkpt lat="44.41517" lon="5.57706">
        <ele>853</ele>
        <time>2019-06-07T09:05:00Z</time>
      </trkpt>
      <trkpt lat="44.41518" lon="5.5771">
        <ele>854</ele>
        <time>2019-06-07T09:05:01Z</time>
      </trkpt>
      <trkpt lat="44.41519" lon="5.57713">
        <ele>854</ele>
        <time>2019-06-07T09:05:02Z</time>
      </trkpt>
      <trkpt lat="44.4152" lon="5.57717">
        <ele>854</ele>
        <time>2019-06-07T09:05:03Z</time>
      </trkpt>
      <trkpt lat="44.41521" lon="5.5772">
        <ele>854</ele>
        <time>2019-06-07T09:05:04Z</time>
      </trkpt>
      <trkpt lat="44.41522" lon="5.57723">
        <ele>854</ele>
        <time>2019-06-07T09:05:05Z</time>
      </trkpt>
      <trkpt lat="44.41523" lon="5.57726">
        <ele>855</ele>
        <time>2019-06-07T09:05:06Z</time>
      </trkpt>
      <trkpt lat="44.41523" lon="5.5773">
        <ele>855</ele>
        <time>2019-06-07T09:05:07Z</time>
      </trkpt>
      <trkpt lat="44.41525" lon="5.57733">
        <ele>855</ele>
        <time>2019-06-07T09:05:08Z</time>
      </trkpt>
      <trkpt lat="44.41525" lon="5.57737">
        <ele>855</ele>
        <time>2019-06-07T09:05:09Z</time>
      </trkpt>
      <trkpt lat="44.41526" lon="5.5774">
        <ele>855</ele>
        <time>2019-06-07T09:05:10Z</time>
      </trkpt>
      <trkpt lat="44.41527" lon="5.57744">
        <ele>856</ele>
        <time>2019-06-07T09:05:11Z</time>
      </trkpt>
      <trkpt lat="44.41528" lon="5.57747">
        <ele>856</ele>
        <time>2019-06-07T09:05:12Z</time>
      </trkpt>
      <trkpt lat="44.41528" lon="5.57751">
        <ele>856</ele>
        <time>2019-06-07T09:05:13Z</time>
      </trkpt>
      <trkpt lat="44.41529" lon="5.57754">
        <ele>856</ele>
        <time>2019-06-07T09:05:14Z</time>
      </trkpt>
      <trkpt lat="44.4153" lon="5.57758">
        <ele>857</ele>
        <time>2019-06-07T09:05:15Z</time>
      </trkpt>
      <trkpt lat="44.41531" lon="5.57761">
        <ele>857</ele>
        <time>2019-06-07T09:05:16Z</time>
      </trkpt>
      <trkpt lat="44.41531" lon="5.57765">
        <ele>857</ele>
        <time>2019-06-07T09:05:17Z</time>
      </trkpt>
      <trkpt lat="44.41532" lon="5.57768">
        <ele>857</ele>
        <time>2019-06-07T09:05:18Z</time>
      </trkpt>
      <trkpt lat="44.41533" lon="5.57771">
        <ele>858</ele>
        <time>2019-06-07T09:05:19Z</time>
      </trkpt>
      <trkpt lat="44.41533" lon="5.57775">
        <ele>858</ele>
        <time>2019-06-07T09:05:20Z</time>
      </trkpt>
      <trkpt lat="44.41534" lon="5.57779">
        <ele>858</ele>
        <time>2019-06-07T09:05:21Z</time>
      </trkpt>
      <trkpt lat="44.41534" lon="5.57782">
        <ele>859</ele>
        <time>2019-06-07T09:05:22Z</time>
      </trkpt>
      <trkpt lat="44.41534" lon="5.57786">
        <ele>859</ele>
        <time>2019-06-07T09:05:23Z</time>
      </trkpt>
      <trkpt lat="44.41535" lon="5.5779">
        <ele>859</ele>
        <time>2019-06-07T09:05:24Z</time>
      </trkpt>
      <trkpt lat="44.41535" lon="5.57794">
        <ele>859</ele>
        <time>2019-06-07T09:05:25Z</time>
      </trkpt>
      <trkpt lat="44.41536" lon="5.57797">
        <ele>860</ele>
        <time>2019-06-07T09:05:26Z</time>
      </trkpt>
      <trkpt lat="44.41536" lon="5.57801">
        <ele>860</ele>
        <time>2019-06-07T09:05:27Z</time>
      </trkpt>
      <trkpt lat="44.41536" lon="5.57804">
        <ele>860</ele>
        <time>2019-06-07T09:05:28Z</time>
      </trkpt>
      <trkpt lat="44.41536" lon="5.57808">
        <ele>860</ele>
        <time>2019-06-07T09:05:29Z</time>
      </trkpt>
      <trkpt lat="44.41536" lon="5.57811">
        <ele>861</ele>
        <time>2019-06-07T09:05:30Z</time>
      </trkpt>
      <trkpt lat="44.41536" lon="5.57815">
        <ele>861</ele>
        <time>2019-06-07T09:05:31Z</time>
      </trkpt>
      <trkpt lat="44.41536" lon="5.57818">
        <ele>861</ele>
        <time>2019-06-07T09:05:32Z</time>
      </trkpt>
      <trkpt lat="44.41536" lon="5.57822">
        <ele>861</ele>
        <time>2019-06-07T09:05:33Z</time>
      </trkpt>
      <trkpt lat="44.41536" lon="5.57826">
        <ele>861</ele>
        <time>2019-06-07T09:05:34Z</time>
      </trkpt>
      <trkpt lat="44.41536" lon="5.57829">
        <ele>861</ele>
        <time>2019-06-07T09:05:35Z</time>
      </trkpt>
      <trkpt lat="44.41536" lon="5.57833">
        <ele>861</ele>
        <time>2019-06-07T09:05:36Z</time>
      </trkpt>
      <trkpt lat="44.41536" lon="5.57836">
        <ele>861</ele>
        <time>2019-06-07T09:05:37Z</time>
      </trkpt>
      <trkpt lat="44.41535" lon="5.5784">
        <ele>862</ele>
        <time>2019-06-07T09:05:38Z</time>
      </trkpt>
      <trkpt lat="44.41535" lon="5.57844">
        <ele>862</ele>
        <time>2019-06-07T09:05:39Z</time>
      </trkpt>
      <trkpt lat="44.41535" lon="5.57847">
        <ele>862</ele>
        <time>2019-06-07T09:05:40Z</time>
      </trkpt>
      <trkpt lat="44.41535" lon="5.57851">
        <ele>862</ele>
        <time>2019-06-07T09:05:41Z</time>
      </trkpt>
      <trkpt lat="44.41535" lon="5.57855">
        <ele>862</ele>
        <time>2019-06-07T09:05:42Z</time>
      </trkpt>
      <trkpt lat="44.41535" lon="5.57858">
        <ele>862</ele>
        <time>2019-06-07T09:05:43Z</time>
      </trkpt>
      <trkpt lat="44.41534" lon="5.57862">
        <ele>863</ele>
        <time>2019-06-07T09:05:44Z</time>
      </trkpt>
      <trkpt lat="44.41534" lon="5.57865">
        <ele>863</ele>
        <time>2019-06-07T09:05:45Z</time>
      </trkpt>
      <trkpt lat="44.41534" lon="5.57869">
        <ele>863</ele>
        <time>2019-06-07T09:05:46Z</time>
      </trkpt>
      <trkpt lat="44.41533" lon="5.57873">
        <ele>863</ele>
        <time>2019-06-07T09:05:47Z</time>
      </trkpt>
      <trkpt lat="44.41533" lon="5.57877">
        <ele>863</ele>
        <time>2019-06-07T09:05:48Z</time>
      </trkpt>
      <trkpt lat="44.41533" lon="5.5788">
        <ele>863</ele>
        <time>2019-06-07T09:05:49Z</time>
      </trkpt>
      <trkpt lat="44.41532" lon="5.57884">
        <ele>864</ele>
        <time>2019-06-07T09:05:50Z</time>
      </trkpt>
      <trkpt lat="44.41532" lon="5.57888">
        <ele>864</ele>
        <time>2019-06-07T09:05:51Z</time>
      </trkpt>
      <trkpt lat="44.41531" lon="5.57892">
        <ele>864</ele>
        <time>2019-06-07T09:05:52Z</time>
      </trkpt>
      <trkpt lat="44.41531" lon="5.57895">
        <ele>864</ele>
        <time>2019-06-07T09:05:53Z</time>
      </trkpt>
      <trkpt lat="44.4153" lon="5.57899">
        <ele>864</ele>
        <time>2019-06-07T09:05:54Z</time>
      </trkpt>
      <trkpt lat="44.4153" lon="5.57903">
        <ele>864</ele>
        <time>2019-06-07T09:05:55Z</time>
      </trkpt>
      <trkpt lat="44.4153" lon="5.57906">
        <ele>864</ele>
        <time>2019-06-07T09:05:56Z</time>
      </trkpt>
      <trkpt lat="44.41529" lon="5.5791">
        <ele>864</ele>
        <time>2019-06-07T09:05:57Z</time>
      </trkpt>
      <trkpt lat="44.41529" lon="5.57914">
        <ele>865</ele>
        <time>2019-06-07T09:05:58Z</time>
      </trkpt>
      <trkpt lat="44.41528" lon="5.57917">
        <ele>865</ele>
        <time>2019-06-07T09:05:59Z</time>
      </trkpt>
      <trkpt lat="44.41528" lon="5.57921">
        <ele>865</ele>
        <time>2019-06-07T09:06:00Z</time>
      </trkpt>
      <trkpt lat="44.41527" lon="5.57925">
        <ele>865</ele>
        <time>2019-06-07T09:06:01Z</time>
      </trkpt>
      <trkpt lat="44.41526" lon="5.57929">
        <ele>865</ele>
        <time>2019-06-07T09:06:02Z</time>
      </trkpt>
      <trkpt lat="44.41526" lon="5.57932">
        <ele>865</ele>
        <time>2019-06-07T09:06:03Z</time>
      </trkpt>
      <trkpt lat="44.41526" lon="5.57936">
        <ele>865</ele>
        <time>2019-06-07T09:06:04Z</time>
      </trkpt>
      <trkpt lat="44.41525" lon="5.5794">
        <ele>865</ele>
        <time>2019-06-07T09:06:05Z</time>
      </trkpt>
      <trkpt lat="44.41525" lon="5.57944">
        <ele>865</ele>
        <time>2019-06-07T09:06:06Z</time>
      </trkpt>
      <trkpt lat="44.41524" lon="5.57948">
        <ele>866</ele>
        <time>2019-06-07T09:06:07Z</time>
      </trkpt>
      <trkpt lat="44.41524" lon="5.57952">
        <ele>866</ele>
        <time>2019-06-07T09:06:08Z</time>
      </trkpt>
      <trkpt lat="44.41523" lon="5.57956">
        <ele>866</ele>
        <time>2019-06-07T09:06:09Z</time>
      </trkpt>
      <trkpt lat="44.41523" lon="5.5796">
        <ele>866</ele>
        <time>2019-06-07T09:06:10Z</time>
      </trkpt>
      <trkpt lat="44.41523" lon="5.57964">
        <ele>866</ele>
        <time>2019-06-07T09:06:11Z</time>
      </trkpt>
      <trkpt lat="44.41522" lon="5.57968">
        <ele>866</ele>
        <time>2019-06-07T09:06:12Z</time>
      </trkpt>
      <trkpt lat="44.41521" lon="5.57972">
        <ele>867</ele>
        <time>2019-06-07T09:06:13Z</time>
      </trkpt>
      <trkpt lat="44.41521" lon="5.57976">
        <ele>867</ele>
        <time>2019-06-07T09:06:14Z</time>
      </trkpt>
      <trkpt lat="44.41521" lon="5.5798">
        <ele>867</ele>
        <time>2019-06-07T09:06:15Z</time>
      </trkpt>
      <trkpt lat="44.4152" lon="5.57984">
        <ele>867</ele>
        <time>2019-06-07T09:06:16Z</time>
      </trkpt>
      <trkpt lat="44.4152" lon="5.57988">
        <ele>867</ele>
        <time>2019-06-07T09:06:17Z</time>
      </trkpt>
      <trkpt lat="44.41519" lon="5.57992">
        <ele>867</ele>
        <time>2019-06-07T09:06:18Z</time>
      </trkpt>
      <trkpt lat="44.41518" lon="5.57996">
        <ele>867</ele>
        <time>2019-06-07T09:06:19Z</time>
      </trkpt>
      <trkpt lat="44.41518" lon="5.58001">
        <ele>868</ele>
        <time>2019-06-07T09:06:20Z</time>
      </trkpt>
      <trkpt lat="44.41518" lon="5.58005">
        <ele>868</ele>
        <time>2019-06-07T09:06:21Z</time>
      </trkpt>
      <trkpt lat="44.41517" lon="5.58009">
        <ele>868</ele>
        <time>2019-06-07T09:06:22Z</time>
      </trkpt>
      <trkpt lat="44.41516" lon="5.58013">
        <ele>868</ele>
        <time>2019-06-07T09:06:23Z</time>
      </trkpt>
      <trkpt lat="44.41516" lon="5.58018">
        <ele>868</ele>
        <time>2019-06-07T09:06:24Z</time>
      </trkpt>
      <trkpt lat="44.41515" lon="5.58022">
        <ele>868</ele>
        <time>2019-06-07T09:06:25Z</time>
      </trkpt>
      <trkpt lat="44.41515" lon="5.58027">
        <ele>868</ele>
        <time>2019-06-07T09:06:26Z</time>
      </trkpt>
      <trkpt lat="44.41515" lon="5.58031">
        <ele>869</ele>
        <time>2019-06-07T09:06:27Z</time>
      </trkpt>
      <trkpt lat="44.41514" lon="5.58035">
        <ele>869</ele>
        <time>2019-06-07T09:06:28Z</time>
      </trkpt>
      <trkpt lat="44.41513" lon="5.5804">
        <ele>869</ele>
        <time>2019-06-07T09:06:29Z</time>
      </trkpt>
      <trkpt lat="44.41513" lon="5.58044">
        <ele>869</ele>
        <time>2019-06-07T09:06:30Z</time>
      </trkpt>
      <trkpt lat="44.41512" lon="5.58049">
        <ele>869</ele>
        <time>2019-06-07T09:06:31Z</time>
      </trkpt>
      <trkpt lat="44.41512" lon="5.58053">
        <ele>869</ele>
        <time>2019-06-07T09:06:32Z</time>
      </trkpt>
      <trkpt lat="44.41512" lon="5.58058">
        <ele>869</ele>
        <time>2019-06-07T09:06:33Z</time>
      </trkpt>
      <trkpt lat="44.41511" lon="5.58062">
        <ele>869</ele>
        <time>2019-06-07T09:06:34Z</time>
      </trkpt>
      <trkpt lat="44.4151" lon="5.58067">
        <ele>870</ele>
        <time>2019-06-07T09:06:35Z</time>
      </trkpt>
      <trkpt lat="44.4151" lon="5.58072">
        <ele>870</ele>
        <time>2019-06-07T09:06:36Z</time>
      </trkpt>
      <trkpt lat="44.4151" lon="5.58076">
        <ele>870</ele>
        <time>2019-06-07T09:06:37Z</time>
      </trkpt>
      <trkpt lat="44.4151" lon="5.58081">
        <ele>870</ele>
        <time>2019-06-07T09:06:38Z</time>
      </trkpt>
      <trkpt lat="44.4151" lon="5.58086">
        <ele>870</ele>
        <time>2019-06-07T09:06:39Z</time>
      </trkpt>
      <trkpt lat="44.4151" lon="5.58091">
        <ele>870</ele>
        <time>2019-06-07T09:06:40Z</time>
      </trkpt>
      <trkpt lat="44.4151" lon="5.58096">
        <ele>870</ele>
        <time>2019-06-07T09:06:41Z</time>
      </trkpt>
      <trkpt lat="44.4151" lon="5.58101">
        <ele>870</ele>
        <time>2019-06-07T09:06:42Z</time>
      </trkpt>
      <trkpt lat="44.4151" lon="5.58106">
        <ele>871</ele>
        <time>2019-06-07T09:06:43Z</time>
      </trkpt>
      <trkpt lat="44.4151" lon="5.58111">
        <ele>871</ele>
        <time>2019-06-07T09:06:44Z</time>
      </trkpt>
      <trkpt lat="44.4151" lon="5.58116">
        <ele>871</ele>
        <time>2019-06-07T09:06:45Z</time>
      </trkpt>
      <trkpt lat="44.4151" lon="5.58121">
        <ele>871</ele>
        <time>2019-06-07T09:06:46Z</time>
      </trkpt>
      <trkpt lat="44.4151" lon="5.58126">
        <ele>872</ele>
        <time>2019-06-07T09:06:47Z</time>
      </trkpt>
      <trkpt lat="44.4151" lon="5.58131">
        <ele>872</ele>
        <time>2019-06-07T09:06:48Z</time>
      </trkpt>
      <trkpt lat="44.41511" lon="5.58136">
        <ele>872</ele>
        <time>2019-06-07T09:06:49Z</time>
      </trkpt>
      <trkpt lat="44.41511" lon="5.58142">
        <ele>872</ele>
        <time>2019-06-07T09:06:50Z</time>
      </trkpt>
      <trkpt lat="44.41512" lon="5.58147">
        <ele>872</ele>
        <time>2019-06-07T09:06:51Z</time>
      </trkpt>
      <trkpt lat="44.41512" lon="5.58152">
        <ele>872</ele>
        <time>2019-06-07T09:06:52Z</time>
      </trkpt>
      <trkpt lat="44.41513" lon="5.58157">
        <ele>872</ele>
        <time>2019-06-07T09:06:53Z</time>
      </trkpt>
      <trkpt lat="44.41513" lon="5.58162">
        <ele>873</ele>
        <time>2019-06-07T09:06:54Z</time>
      </trkpt>
      <trkpt lat="44.41514" lon="5.58168">
        <ele>873</ele>
        <time>2019-06-07T09:06:55Z</time>
      </trkpt>
      <trkpt lat="44.41515" lon="5.58173">
        <ele>873</ele>
        <time>2019-06-07T09:06:56Z</time>
      </trkpt>
      <trkpt lat="44.41515" lon="5.58179">
        <ele>873</ele>
        <time>2019-06-07T09:06:57Z</time>
      </trkpt>
      <trkpt lat="44.41516" lon="5.58184">
        <ele>873</ele>
        <time>2019-06-07T09:06:58Z</time>
      </trkpt>
      <trkpt lat="44.41518" lon="5.58189">
        <ele>873</ele>
        <time>2019-06-07T09:06:59Z</time>
      </trkpt>
      <trkpt lat="44.41518" lon="5.58195">
        <ele>873</ele>
        <time>2019-06-07T09:07:00Z</time>
      </trkpt>
      <trkpt lat="44.41519" lon="5.58201">
        <ele>874</ele>
        <time>2019-06-07T09:07:01Z</time>
      </trkpt>
      <trkpt lat="44.4152" lon="5.58206">
        <ele>874</ele>
        <time>2019-06-07T09:07:02Z</time>
      </trkpt>
      <trkpt lat="44.41521" lon="5.58212">
        <ele>874</ele>
        <time>2019-06-07T09:07:03Z</time>
      </trkpt>
      <trkpt lat="44.41522" lon="5.58218">
        <ele>874</ele>
        <time>2019-06-07T09:07:04Z</time>
      </trkpt>
      <trkpt lat="44.41523" lon="5.58224">
        <ele>874</ele>
        <time>2019-06-07T09:07:05Z</time>
      </trkpt>
      <trkpt lat="44.41524" lon="5.5823">
        <ele>874</ele>
        <time>2019-06-07T09:07:06Z</time>
      </trkpt>
      <trkpt lat="44.41525" lon="5.58236">
        <ele>874</ele>
        <time>2019-06-07T09:07:07Z</time>
      </trkpt>
      <trkpt lat="44.41526" lon="5.58242">
        <ele>874</ele>
        <time>2019-06-07T09:07:08Z</time>
      </trkpt>
      <trkpt lat="44.41527" lon="5.58247">
        <ele>875</ele>
        <time>2019-06-07T09:07:09Z</time>
      </trkpt>
      <trkpt lat="44.41528" lon="5.58253">
        <ele>875</ele>
        <time>2019-06-07T09:07:10Z</time>
      </trkpt>
      <trkpt lat="44.41529" lon="5.58259">
        <ele>875</ele>
        <time>2019-06-07T09:07:11Z</time>
      </trkpt>
      <trkpt lat="44.4153" lon="5.58265">
        <ele>875</ele>
        <time>2019-06-07T09:07:12Z</time>
      </trkpt>
      <trkpt lat="44.41531" lon="5.58271">
        <ele>875</ele>
        <time>2019-06-07T09:07:13Z</time>
      </trkpt>
      <trkpt lat="44.41532" lon="5.58277">
        <ele>875</ele>
        <time>2019-06-07T09:07:14Z</time>
      </trkpt>
      <trkpt lat="44.41533" lon="5.58283">
        <ele>875</ele>
        <time>2019-06-07T09:07:15Z</time>
      </trkpt>
      <trkpt lat="44.41534" lon="5.58289">
        <ele>876</ele>
        <time>2019-06-07T09:07:16Z</time>
      </trkpt>
      <trkpt lat="44.41534" lon="5.58296">
        <ele>876</ele>
        <time>2019-06-07T09:07:17Z</time>
      </trkpt>
      <trkpt lat="44.41536" lon="5.58303">
        <ele>876</ele>
        <time>2019-06-07T09:07:18Z</time>
      </trkpt>
      <trkpt lat="44.41536" lon="5.5831">
        <ele>876</ele>
        <time>2019-06-07T09:07:19Z</time>
      </trkpt>
      <trkpt lat="44.41537" lon="5.58316">
        <ele>876</ele>
        <time>2019-06-07T09:07:20Z</time>
      </trkpt>
      <trkpt lat="44.41539" lon="5.58323">
        <ele>876</ele>
        <time>2019-06-07T09:07:21Z</time>
      </trkpt>
      <trkpt lat="44.41539" lon="5.5833">
        <ele>876</ele>
        <time>2019-06-07T09:07:22Z</time>
      </trkpt>
      <trkpt lat="44.4154" lon="5.58338">
        <ele>876</ele>
        <time>2019-06-07T09:07:23Z</time>
      </trkpt>
      <trkpt lat="44.41541" lon="5.58345">
        <ele>876</ele>
        <time>2019-06-07T09:07:24Z</time>
      </trkpt>
      <trkpt lat="44.41543" lon="5.58353">
        <ele>876</ele>
        <time>2019-06-07T09:07:25Z</time>
      </trkpt>
      <trkpt lat="44.41544" lon="5.58361">
        <ele>876</ele>
        <time>2019-06-07T09:07:26Z</time>
      </trkpt>
      <trkpt lat="44.41544" lon="5.58368">
        <ele>876</ele>
        <time>2019-06-07T09:07:27Z</time>
      </trkpt>
      <trkpt lat="44.41545" lon="5.58376">
        <ele>876</ele>
        <time>2019-06-07T09:07:28Z</time>
      </trkpt>
      <trkpt lat="44.41546" lon="5.58384">
        <ele>876</ele>
        <time>2019-06-07T09:07:29Z</time>
      </trkpt>
      <trkpt lat="44.41547" lon="5.58392">
        <ele>876</ele>
        <time>2019-06-07T09:07:30Z</time>
      </trkpt>
      <trkpt lat="44.41548" lon="5.584">
        <ele>876</ele>
        <time>2019-06-07T09:07:31Z</time>
      </trkpt>
      <trkpt lat="44.41549" lon="5.58408">
        <ele>876</ele>
        <time>2019-06-07T09:07:32Z</time>
      </trkpt>
      <trkpt lat="44.4155" lon="5.58416">
        <ele>876</ele>
        <time>2019-06-07T09:07:33Z</time>
      </trkpt>
      <trkpt lat="44.41551" lon="5.58424">
        <ele>876</ele>
        <time>2019-06-07T09:07:34Z</time>
      </trkpt>
      <trkpt lat="44.41552" lon="5.58432">
        <ele>876</ele>
        <time>2019-06-07T09:07:35Z</time>
      </trkpt>
      <trkpt lat="44.41553" lon="5.5844">
        <ele>876</ele>
        <time>2019-06-07T09:07:36Z</time>
      </trkpt>
      <trkpt lat="44.41554" lon="5.58448">
        <ele>876</ele>
        <time>2019-06-07T09:07:37Z</time>
      </trkpt>
      <trkpt lat="44.41555" lon="5.58456">
        <ele>876</ele>
        <time>2019-06-07T09:07:38Z</time>
      </trkpt>
      <trkpt lat="44.41556" lon="5.58465">
        <ele>876</ele>
        <time>2019-06-07T09:07:39Z</time>
      </trkpt>
      <trkpt lat="44.41557" lon="5.58473">
        <ele>876</ele>
        <time>2019-06-07T09:07:40Z</time>
      </trkpt>
      <trkpt lat="44.41559" lon="5.58481">
        <ele>876</ele>
        <time>2019-06-07T09:07:41Z</time>
      </trkpt>
      <trkpt lat="44.4156" lon="5.5849">
        <ele>876</ele>
        <time>2019-06-07T09:07:42Z</time>
      </trkpt>
      <trkpt lat="44.41561" lon="5.58498">
        <ele>876</ele>
        <time>2019-06-07T09:07:43Z</time>
      </trkpt>
      <trkpt lat="44.41562" lon="5.58507">
        <ele>876</ele>
        <time>2019-06-07T09:07:44Z</time>
      </trkpt>
      <trkpt lat="44.41563" lon="5.58516">
        <ele>876</ele>
        <time>2019-06-07T09:07:45Z</time>
      </trkpt>
      <trkpt lat="44.41564" lon="5.58525">
        <ele>876</ele>
        <time>2019-06-07T09:07:46Z</time>
      </trkpt>
      <trkpt lat="44.41565" lon="5.58533">
        <ele>876</ele>
        <time>2019-06-07T09:07:47Z</time>
      </trkpt>
      <trkpt lat="44.41567" lon="5.58542">
        <ele>876</ele>
        <time>2019-06-07T09:07:48Z</time>
      </trkpt>
      <trkpt lat="44.41568" lon="5.58551">
        <ele>876</ele>
        <time>2019-06-07T09:07:49Z</time>
      </trkpt>
      <trkpt lat="44.41569" lon="5.5856">
        <ele>876</ele>
        <time>2019-06-07T09:07:50Z</time>
      </trkpt>
      <trkpt lat="44.41571" lon="5.58569">
        <ele>876</ele>
        <time>2019-06-07T09:07:51Z</time>
      </trkpt>
      <trkpt lat="44.41572" lon="5.58578">
        <ele>876</ele>
        <time>2019-06-07T09:07:52Z</time>
      </trkpt>
      <trkpt lat="44.41574" lon="5.58587">
        <ele>876</ele>
        <time>2019-06-07T09:07:53Z</time>
      </trkpt>
      <trkpt lat="44.41576" lon="5.58596">
        <ele>876</ele>
        <time>2019-06-07T09:07:54Z</time>
      </trkpt>
      <trkpt lat="44.41577" lon="5.58605">
        <ele>876</ele>
        <time>2019-06-07T09:07:55Z</time>
      </trkpt>
      <trkpt lat="44.41579" lon="5.58615">
        <ele>876</ele>
        <time>2019-06-07T09:07:56Z</time>
      </trkpt>
      <trkpt lat="44.41581" lon="5.58624">
        <ele>876</ele>
        <time>2019-06-07T09:07:57Z</time>
      </trkpt>
      <trkpt lat="44.41582" lon="5.58634">
        <ele>876</ele>
        <time>2019-06-07T09:07:58Z</time>
      </trkpt>
      <trkpt lat="44.41584" lon="5.58644">
        <ele>876</ele>
        <time>2019-06-07T09:07:59Z</time>
      </trkpt>
      <trkpt lat="44.41585" lon="5.58654">
        <ele>876</ele>
        <time>2019-06-07T09:08:00Z</time>
      </trkpt>
      <trkpt lat="44.41587" lon="5.58664">
        <ele>876</ele>
        <time>2019-06-07T09:08:01Z</time>
      </trkpt>
      <trkpt lat="44.41589" lon="5.58674">
        <ele>876</ele>
        <time>2019-06-07T09:08:02Z</time>
      </trkpt>
      <trkpt lat="44.4159" lon="5.58684">
        <ele>876</ele>
        <time>2019-06-07T09:08:03Z</time>
      </trkpt>
      <trkpt lat="44.41592" lon="5.58695">
        <ele>876</ele>
        <time>2019-06-07T09:08:04Z</time>
      </trkpt>
      <trkpt lat="44.41594" lon="5.58705">
        <ele>876</ele>
        <time>2019-06-07T09:08:05Z</time>
      </trkpt>
      <trkpt lat="44.41596" lon="5.58716">
        <ele>876</ele>
        <time>2019-06-07T09:08:06Z</time>
      </trkpt>
      <trkpt lat="44.41597" lon="5.58726">
        <ele>876</ele>
        <time>2019-06-07T09:08:07Z</time>
      </trkpt>
      <trkpt lat="44.41599" lon="5.58737">
        <ele>876</ele>
        <time>2019-06-07T09:08:08Z</time>
      </trkpt>
      <trkpt lat="44.41601" lon="5.58748">
        <ele>875</ele>
        <time>2019-06-07T09:08:09Z</time>
      </trkpt>
      <trkpt lat="44.41602" lon="5.58758">
        <ele>875</ele>
        <time>2019-06-07T09:08:10Z</time>
      </trkpt>
      <trkpt lat="44.41604" lon="5.58769">
        <ele>875</ele>
        <time>2019-06-07T09:08:11Z</time>
      </trkpt>
      <trkpt lat="44.41605" lon="5.58779">
        <ele>875</ele>
        <time>2019-06-07T09:08:12Z</time>
      </trkpt>
      <trkpt lat="44.41606" lon="5.5879">
        <ele>874</ele>
        <time>2019-06-07T09:08:13Z</time>
      </trkpt>
      <trkpt lat="44.41608" lon="5.588">
        <ele>874</ele>
        <time>2019-06-07T09:08:14Z</time>
      </trkpt>
      <trkpt lat="44.41609" lon="5.58811">
        <ele>874</ele>
        <time>2019-06-07T09:08:15Z</time>
      </trkpt>
      <trkpt lat="44.41611" lon="5.58821">
        <ele>874</ele>
        <time>2019-06-07T09:08:16Z</time>
      </trkpt>
      <trkpt lat="44.41613" lon="5.58831">
        <ele>874</ele>
        <time>2019-06-07T09:08:17Z</time>
      </trkpt>
      <trkpt lat="44.41614" lon="5.58841">
        <ele>873</ele>
        <time>2019-06-07T09:08:18Z</time>
      </trkpt>
      <trkpt lat="44.41615" lon="5.58851">
        <ele>873</ele>
        <time>2019-06-07T09:08:19Z</time>
      </trkpt>
      <trkpt lat="44.41616" lon="5.58861">
        <ele>873</ele>
        <time>2019-06-07T09:08:20Z</time>
      </trkpt>
      <trkpt lat="44.41617" lon="5.5887">
        <ele>873</ele>
        <time>2019-06-07T09:08:21Z</time>
      </trkpt>
      <trkpt lat="44.41618" lon="5.5888">
        <ele>873</ele>
        <time>2019-06-07T09:08:22Z</time>
      </trkpt>
      <trkpt lat="44.4162" lon="5.58889">
        <ele>873</ele>
        <time>2019-06-07T09:08:23Z</time>
      </trkpt>
      <trkpt lat="44.41621" lon="5.58899">
        <ele>873</ele>
        <time>2019-06-07T09:08:24Z</time>
      </trkpt>
      <trkpt lat="44.41622" lon="5.58908">
        <ele>872</ele>
        <time>2019-06-07T09:08:25Z</time>
      </trkpt>
      <trkpt lat="44.41623" lon="5.58918">
        <ele>872</ele>
        <time>2019-06-07T09:08:26Z</time>
      </trkpt>
      <trkpt lat="44.41624" lon="5.58927">
        <ele>872</ele>
        <time>2019-06-07T09:08:27Z</time>
      </trkpt>
      <trkpt lat="44.41626" lon="5.58936">
        <ele>872</ele>
        <time>2019-06-07T09:08:28Z</time>
      </trkpt>
      <trkpt lat="44.41627" lon="5.58945">
        <ele>872</ele>
        <time>2019-06-07T09:08:29Z</time>
      </trkpt>
      <trkpt lat="44.41628" lon="5.58954">
        <ele>872</ele>
        <time>2019-06-07T09:08:30Z</time>
      </trkpt>
      <trkpt lat="44.41629" lon="5.58963">
        <ele>872</ele>
        <time>2019-06-07T09:08:31Z</time>
      </trkpt>
      <trkpt lat="44.4163" lon="5.58972">
        <ele>872</ele>
        <time>2019-06-07T09:08:32Z</time>
      </trkpt>
      <trkpt lat="44.41631" lon="5.5898">
        <ele>872</ele>
        <time>2019-06-07T09:08:33Z</time>
      </trkpt>
      <trkpt lat="44.41632" lon="5.58989">
        <ele>872</ele>
        <time>2019-06-07T09:08:34Z</time>
      </trkpt>
      <trkpt lat="44.41633" lon="5.58997">
        <ele>872</ele>
        <time>2019-06-07T09:08:35Z</time>
      </trkpt>
      <trkpt lat="44.41634" lon="5.59006">
        <ele>872</ele>
        <time>2019-06-07T09:08:36Z</time>
      </trkpt>
      <trkpt lat="44.41636" lon="5.59015">
        <ele>872</ele>
        <time>2019-06-07T09:08:37Z</time>
      </trkpt>
      <trkpt lat="44.41637" lon="5.59023">
        <ele>872</ele>
        <time>2019-06-07T09:08:38Z</time>
      </trkpt>
      <trkpt lat="44.41638" lon="5.59031">
        <ele>872</ele>
        <time>2019-06-07T09:08:39Z</time>
      </trkpt>
      <trkpt lat="44.41639" lon="5.5904">
        <ele>872</ele>
        <time>2019-06-07T09:08:40Z</time>
      </trkpt>
      <trkpt lat="44.4164" lon="5.59049">
        <ele>872</ele>
        <time>2019-06-07T09:08:41Z</time>
      </trkpt>
      <trkpt lat="44.41642" lon="5.59057">
        <ele>872</ele>
        <time>2019-06-07T09:08:42Z</time>
      </trkpt>
      <trkpt lat="44.41642" lon="5.59065">
        <ele>872</ele>
        <time>2019-06-07T09:08:43Z</time>
      </trkpt>
      <trkpt lat="44.41644" lon="5.59073">
        <ele>872</ele>
        <time>2019-06-07T09:08:44Z</time>
      </trkpt>
      <trkpt lat="44.41645" lon="5.59081">
        <ele>872</ele>
        <time>2019-06-07T09:08:45Z</time>
      </trkpt>
      <trkpt lat="44.41646" lon="5.59089">
        <ele>872</ele>
        <time>2019-06-07T09:08:46Z</time>
      </trkpt>
      <trkpt lat="44.41647" lon="5.59096">
        <ele>872</ele>
        <time>2019-06-07T09:08:47Z</time>
      </trkpt>
      <trkpt lat="44.41648" lon="5.59104">
        <ele>872</ele>
        <time>2019-06-07T09:08:48Z</time>
      </trkpt>
      <trkpt lat="44.41649" lon="5.59112">
        <ele>872</ele>
        <time>2019-06-07T09:08:49Z</time>
      </trkpt>
      <trkpt lat="44.4165" lon="5.5912">
        <ele>871</ele>
        <time>2019-06-07T09:08:50Z</time>
      </trkpt>
      <trkpt lat="44.41651" lon="5.59128">
        <ele>871</ele>
        <time>2019-06-07T09:08:51Z</time>
      </trkpt>
      <trkpt lat="44.41652" lon="5.59135">
        <ele>871</ele>
        <time>2019-06-07T09:08:52Z</time>
      </trkpt>
      <trkpt lat="44.41653" lon="5.59142">
        <ele>871</ele>
        <time>2019-06-07T09:08:53Z</time>
      </trkpt>
      <trkpt lat="44.41654" lon="5.5915">
        <ele>871</ele>
        <time>2019-06-07T09:08:54Z</time>
      </trkpt>
      <trkpt lat="44.41655" lon="5.59156">
        <ele>871</ele>
        <time>2019-06-07T09:08:55Z</time>
      </trkpt>
      <trkpt lat="44.41656" lon="5.59163">
        <ele>871</ele>
        <time>2019-06-07T09:08:56Z</time>
      </trkpt>
      <trkpt lat="44.41656" lon="5.5917">
        <ele>871</ele>
        <time>2019-06-07T09:08:57Z</time>
      </trkpt>
      <trkpt lat="44.41658" lon="5.59176">
        <ele>871</ele>
        <time>2019-06-07T09:08:58Z</time>
      </trkpt>
      <trkpt lat="44.41658" lon="5.59183">
        <ele>871</ele>
        <time>2019-06-07T09:08:59Z</time>
      </trkpt>
      <trkpt lat="44.4166" lon="5.5919">
        <ele>871</ele>
        <time>2019-06-07T09:09:00Z</time>
      </trkpt>
      <trkpt lat="44.41661" lon="5.59197">
        <ele>871</ele>
        <time>2019-06-07T09:09:01Z</time>
      </trkpt>
      <trkpt lat="44.41661" lon="5.59203">
        <ele>870</ele>
        <time>2019-06-07T09:09:02Z</time>
      </trkpt>
      <trkpt lat="44.41663" lon="5.5921">
        <ele>870</ele>
        <time>2019-06-07T09:09:03Z</time>
      </trkpt>
      <trkpt lat="44.41664" lon="5.59217">
        <ele>870</ele>
        <time>2019-06-07T09:09:04Z</time>
      </trkpt>
      <trkpt lat="44.41665" lon="5.59224">
        <ele>870</ele>
        <time>2019-06-07T09:09:05Z</time>
      </trkpt>
      <trkpt lat="44.41666" lon="5.59231">
        <ele>870</ele>
        <time>2019-06-07T09:09:06Z</time>
      </trkpt>
      <trkpt lat="44.41667" lon="5.59238">
        <ele>870</ele>
        <time>2019-06-07T09:09:07Z</time>
      </trkpt>
      <trkpt lat="44.41668" lon="5.59245">
        <ele>870</ele>
        <time>2019-06-07T09:09:08Z</time>
      </trkpt>
      <trkpt lat="44.41669" lon="5.59252">
        <ele>869</ele>
        <time>2019-06-07T09:09:09Z</time>
      </trkpt>
      <trkpt lat="44.4167" lon="5.59259">
        <ele>869</ele>
        <time>2019-06-07T09:09:10Z</time>
      </trkpt>
      <trkpt lat="44.41671" lon="5.59267">
        <ele>869</ele>
        <time>2019-06-07T09:09:11Z</time>
      </trkpt>
      <trkpt lat="44.41673" lon="5.59274">
        <ele>869</ele>
        <time>2019-06-07T09:09:12Z</time>
      </trkpt>
      <trkpt lat="44.41674" lon="5.59282">
        <ele>869</ele>
        <time>2019-06-07T09:09:13Z</time>
      </trkpt>
      <trkpt lat="44.41676" lon="5.5929">
        <ele>868</ele>
        <time>2019-06-07T09:09:14Z</time>
      </trkpt>
      <trkpt lat="44.41677" lon="5.59298">
        <ele>868</ele>
        <time>2019-06-07T09:09:15Z</time>
      </trkpt>
      <trkpt lat="44.41679" lon="5.59305">
        <ele>868</ele>
        <time>2019-06-07T09:09:16Z</time>
      </trkpt>
      <trkpt lat="44.4168" lon="5.59313">
        <ele>868</ele>
        <time>2019-06-07T09:09:17Z</time>
      </trkpt>
      <trkpt lat="44.41681" lon="5.5932">
        <ele>867</ele>
        <time>2019-06-07T09:09:18Z</time>
      </trkpt>
      <trkpt lat="44.41682" lon="5.59326">
        <ele>867</ele>
        <time>2019-06-07T09:09:19Z</time>
      </trkpt>
      <trkpt lat="44.41683" lon="5.5933">
        <ele>867</ele>
        <time>2019-06-07T09:09:20Z</time>
      </trkpt>
      <trkpt lat="44.41684" lon="5.59331">
        <ele>866</ele>
        <time>2019-06-07T09:09:24Z</time>
      </trkpt>
      <trkpt lat="44.41685" lon="5.5933">
        <ele>866</ele>
        <time>2019-06-07T09:09:36Z</time>
      </trkpt>
      <trkpt lat="44.41685" lon="5.59332">
        <ele>866</ele>
        <time>2019-06-07T09:09:40Z</time>
      </trkpt>
      <trkpt lat="44.41686" lon="5.59334">
        <ele>866</ele>
        <time>2019-06-07T09:09:41Z</time>
      </trkpt>
      <trkpt lat="44.41686" lon="5.59337">
        <ele>866</ele>
        <time>2019-06-07T09:09:42Z</time>
      </trkpt>
      <trkpt lat="44.41687" lon="5.5934">
        <ele>866</ele>
        <time>2019-06-07T09:09:43Z</time>
      </trkpt>
      <trkpt lat="44.41687" lon="5.59344">
        <ele>865</ele>
        <time>2019-06-07T09:09:44Z</time>
      </trkpt>
      <trkpt lat="44.41688" lon="5.59349">
        <ele>865</ele>
        <time>2019-06-07T09:09:45Z</time>
      </trkpt>
      <trkpt lat="44.41689" lon="5.59354">
        <ele>865</ele>
        <time>2019-06-07T09:09:46Z</time>
      </trkpt>
      <trkpt lat="44.4169" lon="5.5936">
        <ele>865</ele>
        <time>2019-06-07T09:09:47Z</time>
      </trkpt>
      <trkpt lat="44.41691" lon="5.59366">
        <ele>864</ele>
        <time>2019-06-07T09:09:48Z</time>
      </trkpt>
      <trkpt lat="44.41692" lon="5.59372">
        <ele>864</ele>
        <time>2019-06-07T09:09:49Z</time>
      </trkpt>
      <trkpt lat="44.41694" lon="5.59378">
        <ele>864</ele>
        <time>2019-06-07T09:09:50Z</time>
      </trkpt>
      <trkpt lat="44.41695" lon="5.59385">
        <ele>864</ele>
        <time>2019-06-07T09:09:51Z</time>
      </trkpt>
      <trkpt lat="44.41697" lon="5.59392">
        <ele>863</ele>
        <time>2019-06-07T09:09:52Z</time>
      </trkpt>
      <trkpt lat="44.41698" lon="5.59399">
        <ele>863</ele>
        <time>2019-06-07T09:09:53Z</time>
      </trkpt>
      <trkpt lat="44.417" lon="5.59407">
        <ele>863</ele>
        <time>2019-06-07T09:09:54Z</time>
      </trkpt>
      <trkpt lat="44.41702" lon="5.59415">
        <ele>863</ele>
        <time>2019-06-07T09:09:55Z</time>
      </trkpt>
      <trkpt lat="44.41703" lon="5.59423">
        <ele>862</ele>
        <time>2019-06-07T09:09:56Z</time>
      </trkpt>
      <trkpt lat="44.41705" lon="5.59432">
        <ele>862</ele>
        <time>2019-06-07T09:09:57Z</time>
      </trkpt>
      <trkpt lat="44.41707" lon="5.59441">
        <ele>862</ele>
        <time>2019-06-07T09:09:58Z</time>
      </trkpt>
      <trkpt lat="44.41709" lon="5.59451">
        <ele>861</ele>
        <time>2019-06-07T09:09:59Z</time>
      </trkpt>
      <trkpt lat="44.4171" lon="5.59461">
        <ele>861</ele>
        <time>2019-06-07T09:10:00Z</time>
      </trkpt>
      <trkpt lat="44.41712" lon="5.59471">
        <ele>860</ele>
        <time>2019-06-07T09:10:01Z</time>
      </trkpt>
      <trkpt lat="44.41713" lon="5.59481">
        <ele>860</ele>
        <time>2019-06-07T09:10:02Z</time>
      </trkpt>
      <trkpt lat="44.41714" lon="5.59491">
        <ele>859</ele>
        <time>2019-06-07T09:10:03Z</time>
      </trkpt>
      <trkpt lat="44.41715" lon="5.59502">
        <ele>859</ele>
        <time>2019-06-07T09:10:04Z</time>
      </trkpt>
      <trkpt lat="44.41716" lon="5.59513">
        <ele>859</ele>
        <time>2019-06-07T09:10:05Z</time>
      </trkpt>
      <trkpt lat="44.41717" lon="5.59524">
        <ele>858</ele>
        <time>2019-06-07T09:10:06Z</time>
      </trkpt>
      <trkpt lat="44.41718" lon="5.59535">
        <ele>858</ele>
        <time>2019-06-07T09:10:07Z</time>
      </trkpt>
      <trkpt lat="44.41718" lon="5.59546">
        <ele>858</ele>
        <time>2019-06-07T09:10:08Z</time>
      </trkpt>
      <trkpt lat="44.41719" lon="5.59557">
        <ele>858</ele>
        <time>2019-06-07T09:10:09Z</time>
      </trkpt>
      <trkpt lat="44.41719" lon="5.59569">
        <ele>857</ele>
        <time>2019-06-07T09:10:10Z</time>
      </trkpt>
      <trkpt lat="44.41719" lon="5.5958">
        <ele>857</ele>
        <time>2019-06-07T09:10:11Z</time>
      </trkpt>
      <trkpt lat="44.41719" lon="5.5959">
        <ele>857</ele>
        <time>2019-06-07T09:10:12Z</time>
      </trkpt>
      <trkpt lat="44.41719" lon="5.59601">
        <ele>857</ele>
        <time>2019-06-07T09:10:13Z</time>
      </trkpt>
      <trkpt lat="44.41719" lon="5.59612">
        <ele>856</ele>
        <time>2019-06-07T09:10:14Z</time>
      </trkpt>
      <trkpt lat="44.41718" lon="5.59623">
        <ele>856</ele>
        <time>2019-06-07T09:10:15Z</time>
      </trkpt>
      <trkpt lat="44.41718" lon="5.59634">
        <ele>856</ele>
        <time>2019-06-07T09:10:16Z</time>
      </trkpt>
      <trkpt lat="44.41717" lon="5.59646">
        <ele>856</ele>
        <time>2019-06-07T09:10:17Z</time>
      </trkpt>
      <trkpt lat="44.41716" lon="5.59657">
        <ele>856</ele>
        <time>2019-06-07T09:10:18Z</time>
      </trkpt>
      <trkpt lat="44.41716" lon="5.59668">
        <ele>856</ele>
        <time>2019-06-07T09:10:19Z</time>
      </trkpt>
      <trkpt lat="44.41715" lon="5.5968">
        <ele>855</ele>
        <time>2019-06-07T09:10:20Z</time>
      </trkpt>
      <trkpt lat="44.41714" lon="5.59692">
        <ele>855</ele>
        <time>2019-06-07T09:10:21Z</time>
      </trkpt>
      <trkpt lat="44.41713" lon="5.59703">
        <ele>855</ele>
        <time>2019-06-07T09:10:22Z</time>
      </trkpt>
      <trkpt lat="44.41712" lon="5.59715">
        <ele>855</ele>
        <time>2019-06-07T09:10:23Z</time>
      </trkpt>
      <trkpt lat="44.41711" lon="5.59727">
        <ele>855</ele>
        <time>2019-06-07T09:10:24Z</time>
      </trkpt>
      <trkpt lat="44.4171" lon="5.59738">
        <ele>854</ele>
        <time>2019-06-07T09:10:25Z</time>
      </trkpt>
      <trkpt lat="44.4171" lon="5.5975">
        <ele>854</ele>
        <time>2019-06-07T09:10:26Z</time>
      </trkpt>
      <trkpt lat="44.41709" lon="5.59761">
        <ele>854</ele>
        <time>2019-06-07T09:10:27Z</time>
      </trkpt>
      <trkpt lat="44.41708" lon="5.59773">
        <ele>854</ele>
        <time>2019-06-07T09:10:28Z</time>
      </trkpt>
      <trkpt lat="44.41707" lon="5.59785">
        <ele>853</ele>
        <time>2019-06-07T09:10:29Z</time>
      </trkpt>
      <trkpt lat="44.41705" lon="5.59797">
        <ele>853</ele>
        <time>2019-06-07T09:10:30Z</time>
      </trkpt>
      <trkpt lat="44.41705" lon="5.59809">
        <ele>853</ele>
        <time>2019-06-07T09:10:31Z</time>
      </trkpt>
      <trkpt lat="44.41703" lon="5.59821">
        <ele>853</ele>
        <time>2019-06-07T09:10:32Z</time>
      </trkpt>
      <trkpt lat="44.41702" lon="5.59833">
        <ele>853</ele>
        <time>2019-06-07T09:10:33Z</time>
      </trkpt>
      <trkpt lat="44.41701" lon="5.59845">
        <ele>852</ele>
        <time>2019-06-07T09:10:34Z</time>
      </trkpt>
      <trkpt lat="44.417" lon="5.59856">
        <ele>852</ele>
        <time>2019-06-07T09:10:35Z</time>
      </trkpt>
      <trkpt lat="44.41698" lon="5.59868">
        <ele>852</ele>
        <time>2019-06-07T09:10:36Z</time>
      </trkpt>
      <trkpt lat="44.41697" lon="5.59879">
        <ele>852</ele>
        <time>2019-06-07T09:10:37Z</time>
      </trkpt>
      <trkpt lat="44.41695" lon="5.5989">
        <ele>851</ele>
        <time>2019-06-07T09:10:38Z</time>
      </trkpt>
      <trkpt lat="44.41694" lon="5.59902">
        <ele>851</ele>
        <time>2019-06-07T09:10:39Z</time>
      </trkpt>
      <trkpt lat="44.41692" lon="5.59913">
        <ele>851</ele>
        <time>2019-06-07T09:10:40Z</time>
      </trkpt>
      <trkpt lat="44.41691" lon="5.59925">
        <ele>850</ele>
        <time>2019-06-07T09:10:41Z</time>
      </trkpt>
      <trkpt lat="44.41689" lon="5.59937">
        <ele>850</ele>
        <time>2019-06-07T09:10:42Z</time>
      </trkpt>
      <trkpt lat="44.41687" lon="5.59948">
        <ele>850</ele>
        <time>2019-06-07T09:10:43Z</time>
      </trkpt>
      <trkpt lat="44.41685" lon="5.5996">
        <ele>850</ele>
        <time>2019-06-07T09:10:44Z</time>
      </trkpt>
      <trkpt lat="44.41683" lon="5.59972">
        <ele>850</ele>
        <time>2019-06-07T09:10:45Z</time>
      </trkpt>
      <trkpt lat="44.41682" lon="5.59984">
        <ele>849</ele>
        <time>2019-06-07T09:10:46Z</time>
      </trkpt>
      <trkpt lat="44.4168" lon="5.59996">
        <ele>849</ele>
        <time>2019-06-07T09:10:47Z</time>
      </trkpt>
      <trkpt lat="44.41678" lon="5.60007">
        <ele>849</ele>
        <time>2019-06-07T09:10:48Z</time>
      </trkpt>
      <trkpt lat="44.41676" lon="5.60019">
        <ele>849</ele>
        <time>2019-06-07T09:10:49Z</time>
      </trkpt>
      <trkpt lat="44.41674" lon="5.6003">
        <ele>848</ele>
        <time>2019-06-07T09:10:50Z</time>
      </trkpt>
      <trkpt lat="44.41673" lon="5.60042">
        <ele>848</ele>
        <time>2019-06-07T09:10:51Z</time>
      </trkpt>
      <trkpt lat="44.41671" lon="5.60053">
        <ele>848</ele>
        <time>2019-06-07T09:10:52Z</time>
      </trkpt>
      <trkpt lat="44.41669" lon="5.60064">
        <ele>848</ele>
        <time>2019-06-07T09:10:53Z</time>
      </trkpt>
      <trkpt lat="44.41667" lon="5.60075">
        <ele>847</ele>
        <time>2019-06-07T09:10:54Z</time>
      </trkpt>
      <trkpt lat="44.41665" lon="5.60086">
        <ele>847</ele>
        <time>2019-06-07T09:10:55Z</time>
      </trkpt>
      <trkpt lat="44.41663" lon="5.60096">
        <ele>847</ele>
        <time>2019-06-07T09:10:56Z</time>
      </trkpt>
      <trkpt lat="44.41661" lon="5.60107">
        <ele>847</ele>
        <time>2019-06-07T09:10:57Z</time>
      </trkpt>
      <trkpt lat="44.4166" lon="5.60117">
        <ele>846</ele>
        <time>2019-06-07T09:10:58Z</time>
      </trkpt>
      <trkpt lat="44.41658" lon="5.60127">
        <ele>846</ele>
        <time>2019-06-07T09:10:59Z</time>
      </trkpt>
      <trkpt lat="44.41656" lon="5.60138">
        <ele>846</ele>
        <time>2019-06-07T09:11:00Z</time>
      </trkpt>
      <trkpt lat="44.41655" lon="5.60148">
        <ele>846</ele>
        <time>2019-06-07T09:11:01Z</time>
      </trkpt>
      <trkpt lat="44.41653" lon="5.60158">
        <ele>846</ele>
        <time>2019-06-07T09:11:02Z</time>
      </trkpt>
      <trkpt lat="44.41651" lon="5.60168">
        <ele>845</ele>
        <time>2019-06-07T09:11:03Z</time>
      </trkpt>
      <trkpt lat="44.41649" lon="5.60178">
        <ele>845</ele>
        <time>2019-06-07T09:11:04Z</time>
      </trkpt>
      <trkpt lat="44.41647" lon="5.60188">
        <ele>845</ele>
        <time>2019-06-07T09:11:05Z</time>
      </trkpt>
      <trkpt lat="44.41646" lon="5.60198">
        <ele>845</ele>
        <time>2019-06-07T09:11:06Z</time>
      </trkpt>
      <trkpt lat="44.41644" lon="5.60208">
        <ele>845</ele>
        <time>2019-06-07T09:11:07Z</time>
      </trkpt>
      <trkpt lat="44.41643" lon="5.60218">
        <ele>845</ele>
        <time>2019-06-07T09:11:08Z</time>
      </trkpt>
      <trkpt lat="44.41641" lon="5.60227">
        <ele>844</ele>
        <time>2019-06-07T09:11:09Z</time>
      </trkpt>
      <trkpt lat="44.41639" lon="5.60237">
        <ele>844</ele>
        <time>2019-06-07T09:11:10Z</time>
      </trkpt>
      <trkpt lat="44.41637" lon="5.60247">
        <ele>844</ele>
        <time>2019-06-07T09:11:11Z</time>
      </trkpt>
      <trkpt lat="44.41636" lon="5.60257">
        <ele>844</ele>
        <time>2019-06-07T09:11:12Z</time>
      </trkpt>
      <trkpt lat="44.41634" lon="5.60267">
        <ele>844</ele>
        <time>2019-06-07T09:11:13Z</time>
      </trkpt>
      <trkpt lat="44.41632" lon="5.60277">
        <ele>844</ele>
        <time>2019-06-07T09:11:14Z</time>
      </trkpt>
      <trkpt lat="44.41631" lon="5.60287">
        <ele>843</ele>
        <time>2019-06-07T09:11:15Z</time>
      </trkpt>
      <trkpt lat="44.41629" lon="5.60296">
        <ele>843</ele>
        <time>2019-06-07T09:11:16Z</time>
      </trkpt>
      <trkpt lat="44.41628" lon="5.60307">
        <ele>843</ele>
        <time>2019-06-07T09:11:17Z</time>
      </trkpt>
      <trkpt lat="44.41626" lon="5.60317">
        <ele>843</ele>
        <time>2019-06-07T09:11:18Z</time>
      </trkpt>
      <trkpt lat="44.41624" lon="5.60327">
        <ele>843</ele>
        <time>2019-06-07T09:11:19Z</time>
      </trkpt>
      <trkpt lat="44.41622" lon="5.60337">
        <ele>843</ele>
        <time>2019-06-07T09:11:20Z</time>
      </trkpt>
      <trkpt lat="44.41621" lon="5.60347">
        <ele>842</ele>
        <time>2019-06-07T09:11:21Z</time>
      </trkpt>
      <trkpt lat="44.41619" lon="5.60357">
        <ele>842</ele>
        <time>2019-06-07T09:11:22Z</time>
      </trkpt>
      <trkpt lat="44.41617" lon="5.60368">
        <ele>842</ele>
        <time>2019-06-07T09:11:23Z</time>
      </trkpt>
      <trkpt lat="44.41616" lon="5.60378">
        <ele>842</ele>
        <time>2019-06-07T09:11:24Z</time>
      </trkpt>
      <trkpt lat="44.41614" lon="5.60388">
        <ele>842</ele>
        <time>2019-06-07T09:11:25Z</time>
      </trkpt>
      <trkpt lat="44.41612" lon="5.60398">
        <ele>842</ele>
        <time>2019-06-07T09:11:26Z</time>
      </trkpt>
      <trkpt lat="44.4161" lon="5.60408">
        <ele>841</ele>
        <time>2019-06-07T09:11:27Z</time>
      </trkpt>
      <trkpt lat="44.41608" lon="5.60418">
        <ele>841</ele>
        <time>2019-06-07T09:11:28Z</time>
      </trkpt>
      <trkpt lat="44.41607" lon="5.60428">
        <ele>841</ele>
        <time>2019-06-07T09:11:29Z</time>
      </trkpt>
      <trkpt lat="44.41605" lon="5.60438">
        <ele>841</ele>
        <time>2019-06-07T09:11:30Z</time>
      </trkpt>
      <trkpt lat="44.41603" lon="5.60449">
        <ele>840</ele>
        <time>2019-06-07T09:11:31Z</time>
      </trkpt>
      <trkpt lat="44.41602" lon="5.60459">
        <ele>840</ele>
        <time>2019-06-07T09:11:32Z</time>
      </trkpt>
      <trkpt lat="44.416" lon="5.6047">
        <ele>840</ele>
        <time>2019-06-07T09:11:33Z</time>
      </trkpt>
      <trkpt lat="44.41598" lon="5.6048">
        <ele>839</ele>
        <time>2019-06-07T09:11:34Z</time>
      </trkpt>
      <trkpt lat="44.41596" lon="5.60492">
        <ele>839</ele>
        <time>2019-06-07T09:11:35Z</time>
      </trkpt>
      <trkpt lat="44.41594" lon="5.60503">
        <ele>839</ele>
        <time>2019-06-07T09:11:36Z</time>
      </trkpt>
      <trkpt lat="44.41592" lon="5.60514">
        <ele>839</ele>
        <time>2019-06-07T09:11:37Z</time>
      </trkpt>
      <trkpt lat="44.4159" lon="5.60525">
        <ele>839</ele>
        <time>2019-06-07T09:11:38Z</time>
      </trkpt>
      <trkpt lat="44.41588" lon="5.60536">
        <ele>839</ele>
        <time>2019-06-07T09:11:39Z</time>
      </trkpt>
      <trkpt lat="44.41586" lon="5.60548">
        <ele>838</ele>
        <time>2019-06-07T09:11:40Z</time>
      </trkpt>
      <trkpt lat="44.41584" lon="5.60559">
        <ele>838</ele>
        <time>2019-06-07T09:11:41Z</time>
      </trkpt>
      <trkpt lat="44.41582" lon="5.60571">
        <ele>838</ele>
        <time>2019-06-07T09:11:42Z</time>
      </trkpt>
      <trkpt lat="44.41581" lon="5.60583">
        <ele>838</ele>
        <time>2019-06-07T09:11:43Z</time>
      </trkpt>
      <trkpt lat="44.4158" lon="5.60596">
        <ele>837</ele>
        <time>2019-06-07T09:11:44Z</time>
      </trkpt>
      <trkpt lat="44.41579" lon="5.60608">
        <ele>837</ele>
        <time>2019-06-07T09:11:45Z</time>
      </trkpt>
      <trkpt lat="44.41578" lon="5.60621">
        <ele>837</ele>
        <time>2019-06-07T09:11:46Z</time>
      </trkpt>
      <trkpt lat="44.41577" lon="5.60633">
        <ele>836</ele>
        <time>2019-06-07T09:11:47Z</time>
      </trkpt>
      <trkpt lat="44.41577" lon="5.60645">
        <ele>836</ele>
        <time>2019-06-07T09:11:48Z</time>
      </trkpt>
      <trkpt lat="44.41576" lon="5.60657">
        <ele>836</ele>
        <time>2019-06-07T09:11:49Z</time>
      </trkpt>
      <trkpt lat="44.41576" lon="5.60669">
        <ele>836</ele>
        <time>2019-06-07T09:11:50Z</time>
      </trkpt>
      <trkpt lat="44.41576" lon="5.60681">
        <ele>835</ele>
        <time>2019-06-07T09:11:51Z</time>
      </trkpt>
      <trkpt lat="44.41577" lon="5.60694">
        <ele>835</ele>
        <time>2019-06-07T09:11:52Z</time>
      </trkpt>
      <trkpt lat="44.41577" lon="5.60706">
        <ele>834</ele>
        <time>2019-06-07T09:11:53Z</time>
      </trkpt>
      <trkpt lat="44.41577" lon="5.60718">
        <ele>833</ele>
        <time>2019-06-07T09:11:54Z</time>
      </trkpt>
      <trkpt lat="44.41576" lon="5.60731">
        <ele>833</ele>
        <time>2019-06-07T09:11:55Z</time>
      </trkpt>
      <trkpt lat="44.41577" lon="5.60743">
        <ele>833</ele>
        <time>2019-06-07T09:11:56Z</time>
      </trkpt>
      <trkpt lat="44.41576" lon="5.60755">
        <ele>832</ele>
        <time>2019-06-07T09:11:57Z</time>
      </trkpt>
      <trkpt lat="44.41576" lon="5.60768">
        <ele>832</ele>
        <time>2019-06-07T09:11:58Z</time>
      </trkpt>
      <trkpt lat="44.41576" lon="5.6078">
        <ele>832</ele>
        <time>2019-06-07T09:11:59Z</time>
      </trkpt>
      <trkpt lat="44.41576" lon="5.60793">
        <ele>832</ele>
        <time>2019-06-07T09:12:00Z</time>
      </trkpt>
      <trkpt lat="44.41576" lon="5.60805">
        <ele>832</ele>
        <time>2019-06-07T09:12:01Z</time>
      </trkpt>
      <trkpt lat="44.41576" lon="5.60818">
        <ele>831</ele>
        <time>2019-06-07T09:12:02Z</time>
      </trkpt>
      <trkpt lat="44.41576" lon="5.6083">
        <ele>831</ele>
        <time>2019-06-07T09:12:03Z</time>
      </trkpt>
      <trkpt lat="44.41576" lon="5.60842">
        <ele>831</ele>
        <time>2019-06-07T09:12:04Z</time>
      </trkpt>
      <trkpt lat="44.41576" lon="5.60854">
        <ele>831</ele>
        <time>2019-06-07T09:12:05Z</time>
      </trkpt>
      <trkpt lat="44.41576" lon="5.60866">
        <ele>831</ele>
        <time>2019-06-07T09:12:06Z</time>
      </trkpt>
      <trkpt lat="44.41576" lon="5.60878">
        <ele>831</ele>
        <time>2019-06-07T09:12:07Z</time>
      </trkpt>
      <trkpt lat="44.41576" lon="5.6089">
        <ele>830</ele>
        <time>2019-06-07T09:12:08Z</time>
      </trkpt>
      <trkpt lat="44.41576" lon="5.60902">
        <ele>830</ele>
        <time>2019-06-07T09:12:09Z</time>
      </trkpt>
      <trkpt lat="44.41575" lon="5.60914">
        <ele>830</ele>
        <time>2019-06-07T09:12:10Z</time>
      </trkpt>
      <trkpt lat="44.41575" lon="5.60926">
        <ele>829</ele>
        <time>2019-06-07T09:12:11Z</time>
      </trkpt>
      <trkpt lat="44.41575" lon="5.60938">
        <ele>829</ele>
        <time>2019-06-07T09:12:12Z</time>
      </trkpt>
      <trkpt lat="44.41575" lon="5.60951">
        <ele>829</ele>
        <time>2019-06-07T09:12:13Z</time>
      </trkpt>
      <trkpt lat="44.41575" lon="5.60963">
        <ele>828</ele>
        <time>2019-06-07T09:12:14Z</time>
      </trkpt>
      <trkpt lat="44.41575" lon="5.60975">
        <ele>828</ele>
        <time>2019-06-07T09:12:15Z</time>
      </trkpt>
      <trkpt lat="44.41575" lon="5.60987">
        <ele>828</ele>
        <time>2019-06-07T09:12:16Z</time>
      </trkpt>
      <trkpt lat="44.41575" lon="5.60999">
        <ele>828</ele>
        <time>2019-06-07T09:12:17Z</time>
      </trkpt>
      <trkpt lat="44.41574" lon="5.61012">
        <ele>827</ele>
        <time>2019-06-07T09:12:18Z</time>
      </trkpt>
      <trkpt lat="44.41574" lon="5.61024">
        <ele>827</ele>
        <time>2019-06-07T09:12:19Z</time>
      </trkpt>
      <trkpt lat="44.41574" lon="5.61036">
        <ele>827</ele>
        <time>2019-06-07T09:12:20Z</time>
      </trkpt>
      <trkpt lat="44.41573" lon="5.61048">
        <ele>826</ele>
        <time>2019-06-07T09:12:21Z</time>
      </trkpt>
      <trkpt lat="44.41572" lon="5.61061">
        <ele>826</ele>
        <time>2019-06-07T09:12:22Z</time>
      </trkpt>
      <trkpt lat="44.41571" lon="5.61073">
        <ele>826</ele>
        <time>2019-06-07T09:12:23Z</time>
      </trkpt>
      <trkpt lat="44.4157" lon="5.61085">
        <ele>825</ele>
        <time>2019-06-07T09:12:24Z</time>
      </trkpt>
      <trkpt lat="44.41569" lon="5.61097">
        <ele>825</ele>
        <time>2019-06-07T09:12:25Z</time>
      </trkpt>
      <trkpt lat="44.41568" lon="5.61109">
        <ele>825</ele>
        <time>2019-06-07T09:12:26Z</time>
      </trkpt>
      <trkpt lat="44.41567" lon="5.61122">
        <ele>825</ele>
        <time>2019-06-07T09:12:27Z</time>
      </trkpt>
      <trkpt lat="44.41565" lon="5.61134">
        <ele>824</ele>
        <time>2019-06-07T09:12:28Z</time>
      </trkpt>
      <trkpt lat="44.41564" lon="5.61146">
        <ele>824</ele>
        <time>2019-06-07T09:12:29Z</time>
      </trkpt>
      <trkpt lat="44.41562" lon="5.61158">
        <ele>824</ele>
        <time>2019-06-07T09:12:30Z</time>
      </trkpt>
      <trkpt lat="44.41561" lon="5.6117">
        <ele>823</ele>
        <time>2019-06-07T09:12:31Z</time>
      </trkpt>
      <trkpt lat="44.41559" lon="5.61182">
        <ele>822</ele>
        <time>2019-06-07T09:12:32Z</time>
      </trkpt>
      <trkpt lat="44.41558" lon="5.61194">
        <ele>822</ele>
        <time>2019-06-07T09:12:33Z</time>
      </trkpt>
      <trkpt lat="44.41556" lon="5.61207">
        <ele>821</ele>
        <time>2019-06-07T09:12:34Z</time>
      </trkpt>
      <trkpt lat="44.41555" lon="5.61219">
        <ele>820</ele>
        <time>2019-06-07T09:12:35Z</time>
      </trkpt>
      <trkpt lat="44.41553" lon="5.61231">
        <ele>820</ele>
        <time>2019-06-07T09:12:36Z</time>
      </trkpt>
      <trkpt lat="44.41552" lon="5.61243">
        <ele>820</ele>
        <time>2019-06-07T09:12:37Z</time>
      </trkpt>
      <trkpt lat="44.41551" lon="5.61255">
        <ele>819</ele>
        <time>2019-06-07T09:12:38Z</time>
      </trkpt>
      <trkpt lat="44.4155" lon="5.61267">
        <ele>819</ele>
        <time>2019-06-07T09:12:39Z</time>
      </trkpt>
      <trkpt lat="44.4155" lon="5.61279">
        <ele>819</ele>
        <time>2019-06-07T09:12:40Z</time>
      </trkpt>
      <trkpt lat="44.4155" lon="5.6129">
        <ele>818</ele>
        <time>2019-06-07T09:12:41Z</time>
      </trkpt>
      <trkpt lat="44.41552" lon="5.61302">
        <ele>818</ele>
        <time>2019-06-07T09:12:42Z</time>
      </trkpt>
      <trkpt lat="44.41553" lon="5.61313">
        <ele>818</ele>
        <time>2019-06-07T09:12:43Z</time>
      </trkpt>
      <trkpt lat="44.41554" lon="5.61324">
        <ele>817</ele>
        <time>2019-06-07T09:12:44Z</time>
      </trkpt>
      <trkpt lat="44.41556" lon="5.61335">
        <ele>817</ele>
        <time>2019-06-07T09:12:45Z</time>
      </trkpt>
      <trkpt lat="44.41557" lon="5.61346">
        <ele>816</ele>
        <time>2019-06-07T09:12:46Z</time>
      </trkpt>
      <trkpt lat="44.41559" lon="5.61358">
        <ele>816</ele>
        <time>2019-06-07T09:12:47Z</time>
      </trkpt>
      <trkpt lat="44.41561" lon="5.61369">
        <ele>816</ele>
        <time>2019-06-07T09:12:48Z</time>
      </trkpt>
      <trkpt lat="44.41563" lon="5.6138">
        <ele>816</ele>
        <time>2019-06-07T09:12:49Z</time>
      </trkpt>
      <trkpt lat="44.41564" lon="5.61391">
        <ele>816</ele>
        <time>2019-06-07T09:12:50Z</time>
      </trkpt>
      <trkpt lat="44.41565" lon="5.61403">
        <ele>816</ele>
        <time>2019-06-07T09:12:51Z</time>
      </trkpt>
      <trkpt lat="44.41567" lon="5.61413">
        <ele>816</ele>
        <time>2019-06-07T09:12:52Z</time>
      </trkpt>
      <trkpt lat="44.41568" lon="5.61424">
        <ele>816</ele>
        <time>2019-06-07T09:12:53Z</time>
      </trkpt>
      <trkpt lat="44.4157" lon="5.61434">
        <ele>816</ele>
        <time>2019-06-07T09:12:54Z</time>
      </trkpt>
      <trkpt lat="44.41571" lon="5.61445">
        <ele>816</ele>
        <time>2019-06-07T09:12:55Z</time>
      </trkpt>
      <trkpt lat="44.41573" lon="5.61455">
        <ele>816</ele>
        <time>2019-06-07T09:12:56Z</time>
      </trkpt>
      <trkpt lat="44.41575" lon="5.61465">
        <ele>816</ele>
        <time>2019-06-07T09:12:57Z</time>
      </trkpt>
      <trkpt lat="44.41577" lon="5.61474">
        <ele>816</ele>
        <time>2019-06-07T09:12:58Z</time>
      </trkpt>
      <trkpt lat="44.41579" lon="5.61484">
        <ele>816</ele>
        <time>2019-06-07T09:12:59Z</time>
      </trkpt>
      <trkpt lat="44.4158" lon="5.61493">
        <ele>816</ele>
        <time>2019-06-07T09:13:00Z</time>
      </trkpt>
      <trkpt lat="44.41581" lon="5.61503">
        <ele>815</ele>
        <time>2019-06-07T09:13:01Z</time>
      </trkpt>
      <trkpt lat="44.41582" lon="5.61513">
        <ele>815</ele>
        <time>2019-06-07T09:13:02Z</time>
      </trkpt>
      <trkpt lat="44.41584" lon="5.61523">
        <ele>815</ele>
        <time>2019-06-07T09:13:03Z</time>
      </trkpt>
      <trkpt lat="44.41586" lon="5.61533">
        <ele>815</ele>
        <time>2019-06-07T09:13:04Z</time>
      </trkpt>
      <trkpt lat="44.41588" lon="5.61544">
        <ele>815</ele>
        <time>2019-06-07T09:13:05Z</time>
      </trkpt>
      <trkpt lat="44.4159" lon="5.61554">
        <ele>815</ele>
        <time>2019-06-07T09:13:06Z</time>
      </trkpt>
      <trkpt lat="44.41592" lon="5.61564">
        <ele>815</ele>
        <time>2019-06-07T09:13:07Z</time>
      </trkpt>
      <trkpt lat="44.41594" lon="5.61575">
        <ele>815</ele>
        <time>2019-06-07T09:13:08Z</time>
      </trkpt>
      <trkpt lat="44.41595" lon="5.61585">
        <ele>815</ele>
        <time>2019-06-07T09:13:09Z</time>
      </trkpt>
      <trkpt lat="44.41597" lon="5.61594">
        <ele>815</ele>
        <time>2019-06-07T09:13:10Z</time>
      </trkpt>
      <trkpt lat="44.41598" lon="5.61604">
        <ele>815</ele>
        <time>2019-06-07T09:13:11Z</time>
      </trkpt>
      <trkpt lat="44.41599" lon="5.61613">
        <ele>814</ele>
        <time>2019-06-07T09:13:12Z</time>
      </trkpt>
      <trkpt lat="44.416" lon="5.61622">
        <ele>814</ele>
        <time>2019-06-07T09:13:13Z</time>
      </trkpt>
      <trkpt lat="44.41601" lon="5.61631">
        <ele>814</ele>
        <time>2019-06-07T09:13:14Z</time>
      </trkpt>
      <trkpt lat="44.41603" lon="5.6164">
        <ele>814</ele>
        <time>2019-06-07T09:13:15Z</time>
      </trkpt>
      <trkpt lat="44.41604" lon="5.61649">
        <ele>813</ele>
        <time>2019-06-07T09:13:16Z</time>
      </trkpt>
      <trkpt lat="44.41605" lon="5.61658">
        <ele>813</ele>
        <time>2019-06-07T09:13:17Z</time>
      </trkpt>
      <trkpt lat="44.41606" lon="5.61667">
        <ele>813</ele>
        <time>2019-06-07T09:13:18Z</time>
      </trkpt>
      <trkpt lat="44.41608" lon="5.61677">
        <ele>813</ele>
        <time>2019-06-07T09:13:19Z</time>
      </trkpt>
      <trkpt lat="44.41609" lon="5.61686">
        <ele>813</ele>
        <time>2019-06-07T09:13:20Z</time>
      </trkpt>
      <trkpt lat="44.4161" lon="5.61695">
        <ele>813</ele>
        <time>2019-06-07T09:13:21Z</time>
      </trkpt>
      <trkpt lat="44.41612" lon="5.61705">
        <ele>813</ele>
        <time>2019-06-07T09:13:22Z</time>
      </trkpt>
      <trkpt lat="44.41613" lon="5.61714">
        <ele>813</ele>
        <time>2019-06-07T09:13:23Z</time>
      </trkpt>
      <trkpt lat="44.41615" lon="5.61723">
        <ele>813</ele>
        <time>2019-06-07T09:13:24Z</time>
      </trkpt>
      <trkpt lat="44.41616" lon="5.61732">
        <ele>813</ele>
        <time>2019-06-07T09:13:25Z</time>
      </trkpt>
      <trkpt lat="44.41618" lon="5.61742">
        <ele>813</ele>
        <time>2019-06-07T09:13:26Z</time>
      </trkpt>
      <trkpt lat="44.41619" lon="5.61751">
        <ele>813</ele>
        <time>2019-06-07T09:13:27Z</time>
      </trkpt>
      <trkpt lat="44.41621" lon="5.61761">
        <ele>812</ele>
        <time>2019-06-07T09:13:28Z</time>
      </trkpt>
      <trkpt lat="44.41622" lon="5.61771">
        <ele>812</ele>
        <time>2019-06-07T09:13:29Z</time>
      </trkpt>
      <trkpt lat="44.41624" lon="5.61781">
        <ele>812</ele>
        <time>2019-06-07T09:13:30Z</time>
      </trkpt>
      <trkpt lat="44.41626" lon="5.61791">
        <ele>812</ele>
        <time>2019-06-07T09:13:31Z</time>
      </trkpt>
      <trkpt lat="44.41627" lon="5.61801">
        <ele>812</ele>
        <time>2019-06-07T09:13:32Z</time>
      </trkpt>
      <trkpt lat="44.41629" lon="5.61811">
        <ele>812</ele>
        <time>2019-06-07T09:13:33Z</time>
      </trkpt>
      <trkpt lat="44.4163" lon="5.6182">
        <ele>812</ele>
        <time>2019-06-07T09:13:34Z</time>
      </trkpt>
      <trkpt lat="44.41632" lon="5.6183">
        <ele>812</ele>
        <time>2019-06-07T09:13:35Z</time>
      </trkpt>
      <trkpt lat="44.41633" lon="5.61839">
        <ele>812</ele>
        <time>2019-06-07T09:13:36Z</time>
      </trkpt>
      <trkpt lat="44.41635" lon="5.61849">
        <ele>812</ele>
        <time>2019-06-07T09:13:37Z</time>
      </trkpt>
      <trkpt lat="44.41636" lon="5.61858">
        <ele>811</ele>
        <time>2019-06-07T09:13:38Z</time>
      </trkpt>
      <trkpt lat="44.41638" lon="5.61868">
        <ele>811</ele>
        <time>2019-06-07T09:13:39Z</time>
      </trkpt>
      <trkpt lat="44.41639" lon="5.61877">
        <ele>811</ele>
        <time>2019-06-07T09:13:40Z</time>
      </trkpt>
      <trkpt lat="44.4164" lon="5.61887">
        <ele>811</ele>
        <time>2019-06-07T09:13:41Z</time>
      </trkpt>
      <trkpt lat="44.41643" lon="5.61897">
        <ele>811</ele>
        <time>2019-06-07T09:13:42Z</time>
      </trkpt>
      <trkpt lat="44.41644" lon="5.61907">
        <ele>811</ele>
        <time>2019-06-07T09:13:43Z</time>
      </trkpt>
      <trkpt lat="44.41645" lon="5.61916">
        <ele>811</ele>
        <time>2019-06-07T09:13:44Z</time>
      </trkpt>
      <trkpt lat="44.41645" lon="5.61927">
        <ele>811</ele>
        <time>2019-06-07T09:13:45Z</time>
      </trkpt>
      <trkpt lat="44.41645" lon="5.61937">
        <ele>810</ele>
        <time>2019-06-07T09:13:46Z</time>
      </trkpt>
      <trkpt lat="44.41644" lon="5.61947">
        <ele>810</ele>
        <time>2019-06-07T09:13:47Z</time>
      </trkpt>
      <trkpt lat="44.41643" lon="5.61957">
        <ele>810</ele>
        <time>2019-06-07T09:13:48Z</time>
      </trkpt>
      <trkpt lat="44.41642" lon="5.61967">
        <ele>810</ele>
        <time>2019-06-07T09:13:49Z</time>
      </trkpt>
      <trkpt lat="44.41641" lon="5.61977">
        <ele>809</ele>
        <time>2019-06-07T09:13:50Z</time>
      </trkpt>
      <trkpt lat="44.41639" lon="5.61987">
        <ele>809</ele>
        <time>2019-06-07T09:13:51Z</time>
      </trkpt>
      <trkpt lat="44.41637" lon="5.61997">
        <ele>809</ele>
        <time>2019-06-07T09:13:52Z</time>
      </trkpt>
      <trkpt lat="44.41636" lon="5.62007">
        <ele>809</ele>
        <time>2019-06-07T09:13:53Z</time>
      </trkpt>
      <trkpt lat="44.41634" lon="5.62017">
        <ele>808</ele>
        <time>2019-06-07T09:13:54Z</time>
      </trkpt>
      <trkpt lat="44.41632" lon="5.62027">
        <ele>808</ele>
        <time>2019-06-07T09:13:55Z</time>
      </trkpt>
      <trkpt lat="44.41631" lon="5.62037">
        <ele>808</ele>
        <time>2019-06-07T09:13:56Z</time>
      </trkpt>
      <trkpt lat="44.4163" lon="5.62047">
        <ele>808</ele>
        <time>2019-06-07T09:13:57Z</time>
      </trkpt>
      <trkpt lat="44.4163" lon="5.62057">
        <ele>807</ele>
        <time>2019-06-07T09:13:58Z</time>
      </trkpt>
      <trkpt lat="44.41629" lon="5.62067">
        <ele>807</ele>
        <time>2019-06-07T09:13:59Z</time>
      </trkpt>
      <trkpt lat="44.41629" lon="5.62077">
        <ele>807</ele>
        <time>2019-06-07T09:14:00Z</time>
      </trkpt>
      <trkpt lat="44.4163" lon="5.62087">
        <ele>807</ele>
        <time>2019-06-07T09:14:01Z</time>
      </trkpt>
      <trkpt lat="44.41631" lon="5.62097">
        <ele>807</ele>
        <time>2019-06-07T09:14:02Z</time>
      </trkpt>
      <trkpt lat="44.41632" lon="5.62107">
        <ele>806</ele>
        <time>2019-06-07T09:14:03Z</time>
      </trkpt>
      <trkpt lat="44.41633" lon="5.62117">
        <ele>806</ele>
        <time>2019-06-07T09:14:04Z</time>
      </trkpt>
      <trkpt lat="44.41634" lon="5.62128">
        <ele>806</ele>
        <time>2019-06-07T09:14:05Z</time>
      </trkpt>
      <trkpt lat="44.41634" lon="5.62138">
        <ele>806</ele>
        <time>2019-06-07T09:14:06Z</time>
      </trkpt>
      <trkpt lat="44.41635" lon="5.62148">
        <ele>806</ele>
        <time>2019-06-07T09:14:07Z</time>
      </trkpt>
      <trkpt lat="44.41636" lon="5.62158">
        <ele>806</ele>
        <time>2019-06-07T09:14:08Z</time>
      </trkpt>
      <trkpt lat="44.41638" lon="5.62168">
        <ele>806</ele>
        <time>2019-06-07T09:14:09Z</time>
      </trkpt>
      <trkpt lat="44.41639" lon="5.62177">
        <ele>806</ele>
        <time>2019-06-07T09:14:10Z</time>
      </trkpt>
      <trkpt lat="44.41641" lon="5.62187">
        <ele>806</ele>
        <time>2019-06-07T09:14:11Z</time>
      </trkpt>
      <trkpt lat="44.41644" lon="5.62197">
        <ele>806</ele>
        <time>2019-06-07T09:14:12Z</time>
      </trkpt>
      <trkpt lat="44.41646" lon="5.62206">
        <ele>806</ele>
        <time>2019-06-07T09:14:13Z</time>
      </trkpt>
      <trkpt lat="44.41649" lon="5.62216">
        <ele>805</ele>
        <time>2019-06-07T09:14:14Z</time>
      </trkpt>
      <trkpt lat="44.41652" lon="5.62225">
        <ele>805</ele>
        <time>2019-06-07T09:14:15Z</time>
      </trkpt>
      <trkpt lat="44.41655" lon="5.62234">
        <ele>805</ele>
        <time>2019-06-07T09:14:16Z</time>
      </trkpt>
      <trkpt lat="44.41659" lon="5.62243">
        <ele>805</ele>
        <time>2019-06-07T09:14:17Z</time>
      </trkpt>
      <trkpt lat="44.41662" lon="5.62252">
        <ele>805</ele>
        <time>2019-06-07T09:14:18Z</time>
      </trkpt>
      <trkpt lat="44.41666" lon="5.6226">
        <ele>805</ele>
        <time>2019-06-07T09:14:19Z</time>
      </trkpt>
      <trkpt lat="44.41668" lon="5.62269">
        <ele>805</ele>
        <time>2019-06-07T09:14:20Z</time>
      </trkpt>
      <trkpt lat="44.41672" lon="5.62278">
        <ele>805</ele>
        <time>2019-06-07T09:14:21Z</time>
      </trkpt>
      <trkpt lat="44.41675" lon="5.62286">
        <ele>804</ele>
        <time>2019-06-07T09:14:22Z</time>
      </trkpt>
      <trkpt lat="44.41679" lon="5.62295">
        <ele>804</ele>
        <time>2019-06-07T09:14:23Z</time>
      </trkpt>
      <trkpt lat="44.41682" lon="5.62304">
        <ele>804</ele>
        <time>2019-06-07T09:14:24Z</time>
      </trkpt>
      <trkpt lat="44.41686" lon="5.62312">
        <ele>804</ele>
        <time>2019-06-07T09:14:25Z</time>
      </trkpt>
      <trkpt lat="44.41689" lon="5.62321">
        <ele>804</ele>
        <time>2019-06-07T09:14:26Z</time>
      </trkpt>
      <trkpt lat="44.41693" lon="5.62329">
        <ele>804</ele>
        <time>2019-06-07T09:14:27Z</time>
      </trkpt>
      <trkpt lat="44.41696" lon="5.62337">
        <ele>804</ele>
        <time>2019-06-07T09:14:28Z</time>
      </trkpt>
      <trkpt lat="44.417" lon="5.62346">
        <ele>804</ele>
        <time>2019-06-07T09:14:29Z</time>
      </trkpt>
      <trkpt lat="44.41703" lon="5.62354">
        <ele>804</ele>
        <time>2019-06-07T09:14:30Z</time>
      </trkpt>
      <trkpt lat="44.41707" lon="5.62362">
        <ele>804</ele>
        <time>2019-06-07T09:14:31Z</time>
      </trkpt>
      <trkpt lat="44.4171" lon="5.6237">
        <ele>804</ele>
        <time>2019-06-07T09:14:32Z</time>
      </trkpt>
      <trkpt lat="44.41713" lon="5.62379">
        <ele>804</ele>
        <time>2019-06-07T09:14:33Z</time>
      </trkpt>
      <trkpt lat="44.41717" lon="5.62387">
        <ele>804</ele>
        <time>2019-06-07T09:14:34Z</time>
      </trkpt>
      <trkpt lat="44.41721" lon="5.62395">
        <ele>804</ele>
        <time>2019-06-07T09:14:35Z</time>
      </trkpt>
      <trkpt lat="44.41724" lon="5.62404">
        <ele>804</ele>
        <time>2019-06-07T09:14:36Z</time>
      </trkpt>
      <trkpt lat="44.41728" lon="5.62413">
        <ele>804</ele>
        <time>2019-06-07T09:14:37Z</time>
      </trkpt>
      <trkpt lat="44.41732" lon="5.62422">
        <ele>804</ele>
        <time>2019-06-07T09:14:38Z</time>
      </trkpt>
      <trkpt lat="44.41734" lon="5.62432">
        <ele>804</ele>
        <time>2019-06-07T09:14:39Z</time>
      </trkpt>
      <trkpt lat="44.41736" lon="5.62441">
        <ele>804</ele>
        <time>2019-06-07T09:14:40Z</time>
      </trkpt>
      <trkpt lat="44.41737" lon="5.62451">
        <ele>804</ele>
        <time>2019-06-07T09:14:41Z</time>
      </trkpt>
      <trkpt lat="44.41737" lon="5.6246">
        <ele>804</ele>
        <time>2019-06-07T09:14:42Z</time>
      </trkpt>
      <trkpt lat="44.41738" lon="5.62469">
        <ele>804</ele>
        <time>2019-06-07T09:14:43Z</time>
      </trkpt>
      <trkpt lat="44.41739" lon="5.62478">
        <ele>804</ele>
        <time>2019-06-07T09:14:44Z</time>
      </trkpt>
      <trkpt lat="44.4174" lon="5.62487">
        <ele>804</ele>
        <time>2019-06-07T09:14:45Z</time>
      </trkpt>
      <trkpt lat="44.41741" lon="5.62496">
        <ele>804</ele>
        <time>2019-06-07T09:14:46Z</time>
      </trkpt>
      <trkpt lat="44.41742" lon="5.62505">
        <ele>804</ele>
        <time>2019-06-07T09:14:47Z</time>
      </trkpt>
      <trkpt lat="44.41742" lon="5.62514">
        <ele>804</ele>
        <time>2019-06-07T09:14:48Z</time>
      </trkpt>
      <trkpt lat="44.41743" lon="5.62523">
        <ele>804</ele>
        <time>2019-06-07T09:14:49Z</time>
      </trkpt>
      <trkpt lat="44.41743" lon="5.62532">
        <ele>804</ele>
        <time>2019-06-07T09:14:50Z</time>
      </trkpt>
      <trkpt lat="44.41744" lon="5.62541">
        <ele>804</ele>
        <time>2019-06-07T09:14:51Z</time>
      </trkpt>
      <trkpt lat="44.41744" lon="5.6255">
        <ele>804</ele>
        <time>2019-06-07T09:14:52Z</time>
      </trkpt>
      <trkpt lat="44.41745" lon="5.62559">
        <ele>804</ele>
        <time>2019-06-07T09:14:53Z</time>
      </trkpt>
      <trkpt lat="44.41746" lon="5.62568">
        <ele>804</ele>
        <time>2019-06-07T09:14:54Z</time>
      </trkpt>
      <trkpt lat="44.41747" lon="5.62576">
        <ele>804</ele>
        <time>2019-06-07T09:14:55Z</time>
      </trkpt>
      <trkpt lat="44.41747" lon="5.62585">
        <ele>804</ele>
        <time>2019-06-07T09:14:56Z</time>
      </trkpt>
      <trkpt lat="44.41748" lon="5.62594">
        <ele>804</ele>
        <time>2019-06-07T09:14:57Z</time>
      </trkpt>
      <trkpt lat="44.41748" lon="5.62603">
        <ele>804</ele>
        <time>2019-06-07T09:14:58Z</time>
      </trkpt>
      <trkpt lat="44.41749" lon="5.62611">
        <ele>804</ele>
        <time>2019-06-07T09:14:59Z</time>
      </trkpt>
      <trkpt lat="44.4175" lon="5.6262">
        <ele>804</ele>
        <time>2019-06-07T09:15:00Z</time>
      </trkpt>
      <trkpt lat="44.4175" lon="5.62629">
        <ele>804</ele>
        <time>2019-06-07T09:15:01Z</time>
      </trkpt>
      <trkpt lat="44.41751" lon="5.62638">
        <ele>804</ele>
        <time>2019-06-07T09:15:02Z</time>
      </trkpt>
      <trkpt lat="44.41752" lon="5.62647">
        <ele>804</ele>
        <time>2019-06-07T09:15:03Z</time>
      </trkpt>
      <trkpt lat="44.41753" lon="5.62655">
        <ele>804</ele>
        <time>2019-06-07T09:15:04Z</time>
      </trkpt>
      <trkpt lat="44.41754" lon="5.62664">
        <ele>804</ele>
        <time>2019-06-07T09:15:05Z</time>
      </trkpt>
      <trkpt lat="44.41755" lon="5.62672">
        <ele>804</ele>
        <time>2019-06-07T09:15:06Z</time>
      </trkpt>
      <trkpt lat="44.41756" lon="5.6268">
        <ele>804</ele>
        <time>2019-06-07T09:15:07Z</time>
      </trkpt>
      <trkpt lat="44.41758" lon="5.62688">
        <ele>804</ele>
        <time>2019-06-07T09:15:08Z</time>
      </trkpt>
      <trkpt lat="44.41759" lon="5.62697">
        <ele>804</ele>
        <time>2019-06-07T09:15:09Z</time>
      </trkpt>
      <trkpt lat="44.41761" lon="5.62705">
        <ele>803</ele>
        <time>2019-06-07T09:15:10Z</time>
      </trkpt>
      <trkpt lat="44.41763" lon="5.62714">
        <ele>803</ele>
        <time>2019-06-07T09:15:11Z</time>
      </trkpt>
      <trkpt lat="44.41765" lon="5.62722">
        <ele>803</ele>
        <time>2019-06-07T09:15:12Z</time>
      </trkpt>
      <trkpt lat="44.41767" lon="5.62731">
        <ele>803</ele>
        <time>2019-06-07T09:15:13Z</time>
      </trkpt>
      <trkpt lat="44.41769" lon="5.6274">
        <ele>803</ele>
        <time>2019-06-07T09:15:14Z</time>
      </trkpt>
      <trkpt lat="44.41771" lon="5.62749">
        <ele>803</ele>
        <time>2019-06-07T09:15:15Z</time>
      </trkpt>
      <trkpt lat="44.41773" lon="5.62758">
        <ele>803</ele>
        <time>2019-06-07T09:15:16Z</time>
      </trkpt>
      <trkpt lat="44.41775" lon="5.62768">
        <ele>803</ele>
        <time>2019-06-07T09:15:17Z</time>
      </trkpt>
      <trkpt lat="44.41777" lon="5.62777">
        <ele>803</ele>
        <time>2019-06-07T09:15:18Z</time>
      </trkpt>
      <trkpt lat="44.41779" lon="5.62787">
        <ele>803</ele>
        <time>2019-06-07T09:15:19Z</time>
      </trkpt>
      <trkpt lat="44.41781" lon="5.62796">
        <ele>802</ele>
        <time>2019-06-07T09:15:20Z</time>
      </trkpt>
      <trkpt lat="44.41784" lon="5.62806">
        <ele>802</ele>
        <time>2019-06-07T09:15:21Z</time>
      </trkpt>
      <trkpt lat="44.41786" lon="5.62816">
        <ele>802</ele>
        <time>2019-06-07T09:15:22Z</time>
      </trkpt>
      <trkpt lat="44.41788" lon="5.62827">
        <ele>802</ele>
        <time>2019-06-07T09:15:23Z</time>
      </trkpt>
      <trkpt lat="44.4179" lon="5.62837">
        <ele>802</ele>
        <time>2019-06-07T09:15:24Z</time>
      </trkpt>
      <trkpt lat="44.41792" lon="5.62848">
        <ele>802</ele>
        <time>2019-06-07T09:15:25Z</time>
      </trkpt>
      <trkpt lat="44.41793" lon="5.62858">
        <ele>802</ele>
        <time>2019-06-07T09:15:26Z</time>
      </trkpt>
      <trkpt lat="44.41795" lon="5.62868">
        <ele>802</ele>
        <time>2019-06-07T09:15:27Z</time>
      </trkpt>
      <trkpt lat="44.41797" lon="5.62878">
        <ele>801</ele>
        <time>2019-06-07T09:15:28Z</time>
      </trkpt>
      <trkpt lat="44.41798" lon="5.62889">
        <ele>801</ele>
        <time>2019-06-07T09:15:29Z</time>
      </trkpt>
      <trkpt lat="44.41799" lon="5.62899">
        <ele>801</ele>
        <time>2019-06-07T09:15:30Z</time>
      </trkpt>
      <trkpt lat="44.41801" lon="5.6291">
        <ele>801</ele>
        <time>2019-06-07T09:15:31Z</time>
      </trkpt>
      <trkpt lat="44.41802" lon="5.62921">
        <ele>801</ele>
        <time>2019-06-07T09:15:32Z</time>
      </trkpt>
      <trkpt lat="44.41803" lon="5.62932">
        <ele>800</ele>
        <time>2019-06-07T09:15:33Z</time>
      </trkpt>
      <trkpt lat="44.41804" lon="5.62943">
        <ele>800</ele>
        <time>2019-06-07T09:15:34Z</time>
      </trkpt>
      <trkpt lat="44.41805" lon="5.62954">
        <ele>800</ele>
        <time>2019-06-07T09:15:35Z</time>
      </trkpt>
      <trkpt lat="44.41806" lon="5.62965">
        <ele>800</ele>
        <time>2019-06-07T09:15:36Z</time>
      </trkpt>
      <trkpt lat="44.41808" lon="5.62976">
        <ele>800</ele>
        <time>2019-06-07T09:15:37Z</time>
      </trkpt>
      <trkpt lat="44.41808" lon="5.62987">
        <ele>800</ele>
        <time>2019-06-07T09:15:38Z</time>
      </trkpt>
      <trkpt lat="44.41809" lon="5.62998">
        <ele>799</ele>
        <time>2019-06-07T09:15:39Z</time>
      </trkpt>
      <trkpt lat="44.4181" lon="5.63008">
        <ele>799</ele>
        <time>2019-06-07T09:15:40Z</time>
      </trkpt>
      <trkpt lat="44.4181" lon="5.63019">
        <ele>799</ele>
        <time>2019-06-07T09:15:41Z</time>
      </trkpt>
      <trkpt lat="44.4181" lon="5.6303">
        <ele>799</ele>
        <time>2019-06-07T09:15:42Z</time>
      </trkpt>
      <trkpt lat="44.4181" lon="5.6304">
        <ele>798</ele>
        <time>2019-06-07T09:15:43Z</time>
      </trkpt>
      <trkpt lat="44.4181" lon="5.63052">
        <ele>798</ele>
        <time>2019-06-07T09:15:44Z</time>
      </trkpt>
      <trkpt lat="44.4181" lon="5.63063">
        <ele>798</ele>
        <time>2019-06-07T09:15:45Z</time>
      </trkpt>
      <trkpt lat="44.41809" lon="5.63074">
        <ele>798</ele>
        <time>2019-06-07T09:15:46Z</time>
      </trkpt>
      <trkpt lat="44.41808" lon="5.63085">
        <ele>797</ele>
        <time>2019-06-07T09:15:47Z</time>
      </trkpt>
      <trkpt lat="44.41808" lon="5.63097">
        <ele>797</ele>
        <time>2019-06-07T09:15:48Z</time>
      </trkpt>
      <trkpt lat="44.41807" lon="5.63108">
        <ele>797</ele>
        <time>2019-06-07T09:15:49Z</time>
      </trkpt>
      <trkpt lat="44.41806" lon="5.63119">
        <ele>796</ele>
        <time>2019-06-07T09:15:50Z</time>
      </trkpt>
      <trkpt lat="44.41805" lon="5.6313">
        <ele>796</ele>
        <time>2019-06-07T09:15:51Z</time>
      </trkpt>
      <trkpt lat="44.41804" lon="5.6314">
        <ele>796</ele>
        <time>2019-06-07T09:15:52Z</time>
      </trkpt>
      <trkpt lat="44.41803" lon="5.63151">
        <ele>796</ele>
        <time>2019-06-07T09:15:53Z</time>
      </trkpt>
      <trkpt lat="44.41803" lon="5.63161">
        <ele>796</ele>
        <time>2019-06-07T09:15:54Z</time>
      </trkpt>
      <trkpt lat="44.41802" lon="5.63171">
        <ele>795</ele>
        <time>2019-06-07T09:15:55Z</time>
      </trkpt>
      <trkpt lat="44.41802" lon="5.63182">
        <ele>795</ele>
        <time>2019-06-07T09:15:56Z</time>
      </trkpt>
      <trkpt lat="44.41801" lon="5.63192">
        <ele>795</ele>
        <time>2019-06-07T09:15:57Z</time>
      </trkpt>
      <trkpt lat="44.41801" lon="5.63202">
        <ele>795</ele>
        <time>2019-06-07T09:15:58Z</time>
      </trkpt>
      <trkpt lat="44.418" lon="5.63212">
        <ele>795</ele>
        <time>2019-06-07T09:15:59Z</time>
      </trkpt>
      <trkpt lat="44.418" lon="5.63222">
        <ele>795</ele>
        <time>2019-06-07T09:16:00Z</time>
      </trkpt>
      <trkpt lat="44.418" lon="5.63231">
        <ele>795</ele>
        <time>2019-06-07T09:16:01Z</time>
      </trkpt>
      <trkpt lat="44.41799" lon="5.6324">
        <ele>795</ele>
        <time>2019-06-07T09:16:02Z</time>
      </trkpt>
      <trkpt lat="44.41799" lon="5.63249">
        <ele>794</ele>
        <time>2019-06-07T09:16:03Z</time>
      </trkpt>
      <trkpt lat="44.41798" lon="5.63259">
        <ele>794</ele>
        <time>2019-06-07T09:16:04Z</time>
      </trkpt>
      <trkpt lat="44.41798" lon="5.63268">
        <ele>794</ele>
        <time>2019-06-07T09:16:05Z</time>
      </trkpt>
      <trkpt lat="44.41797" lon="5.63277">
        <ele>794</ele>
        <time>2019-06-07T09:16:06Z</time>
      </trkpt>
      <trkpt lat="44.41797" lon="5.63286">
        <ele>794</ele>
        <time>2019-06-07T09:16:07Z</time>
      </trkpt>
      <trkpt lat="44.41796" lon="5.63295">
        <ele>794</ele>
        <time>2019-06-07T09:16:08Z</time>
      </trkpt>
      <trkpt lat="44.41796" lon="5.63304">
        <ele>794</ele>
        <time>2019-06-07T09:16:09Z</time>
      </trkpt>
      <trkpt lat="44.41796" lon="5.63313">
        <ele>794</ele>
        <time>2019-06-07T09:16:10Z</time>
      </trkpt>
      <trkpt lat="44.41797" lon="5.63323">
        <ele>794</ele>
        <time>2019-06-07T09:16:11Z</time>
      </trkpt>
      <trkpt lat="44.41797" lon="5.63332">
        <ele>794</ele>
        <time>2019-06-07T09:16:12Z</time>
      </trkpt>
      <trkpt lat="44.41798" lon="5.63341">
        <ele>794</ele>
        <time>2019-06-07T09:16:13Z</time>
      </trkpt>
      <trkpt lat="44.41799" lon="5.6335">
        <ele>794</ele>
        <time>2019-06-07T09:16:14Z</time>
      </trkpt>
      <trkpt lat="44.418" lon="5.63358">
        <ele>794</ele>
        <time>2019-06-07T09:16:15Z</time>
      </trkpt>
      <trkpt lat="44.41801" lon="5.63368">
        <ele>794</ele>
        <time>2019-06-07T09:16:16Z</time>
      </trkpt>
      <trkpt lat="44.41802" lon="5.63376">
        <ele>794</ele>
        <time>2019-06-07T09:16:17Z</time>
      </trkpt>
      <trkpt lat="44.41803" lon="5.63385">
        <ele>794</ele>
        <time>2019-06-07T09:16:18Z</time>
      </trkpt>
      <trkpt lat="44.41805" lon="5.63394">
        <ele>794</ele>
        <time>2019-06-07T09:16:19Z</time>
      </trkpt>
      <trkpt lat="44.41806" lon="5.63402">
        <ele>794</ele>
        <time>2019-06-07T09:16:20Z</time>
      </trkpt>
      <trkpt lat="44.41808" lon="5.63411">
        <ele>794</ele>
        <time>2019-06-07T09:16:21Z</time>
      </trkpt>
      <trkpt lat="44.41809" lon="5.6342">
        <ele>794</ele>
        <time>2019-06-07T09:16:22Z</time>
      </trkpt>
      <trkpt lat="44.41811" lon="5.63429">
        <ele>794</ele>
        <time>2019-06-07T09:16:23Z</time>
      </trkpt>
      <trkpt lat="44.41813" lon="5.63438">
        <ele>794</ele>
        <time>2019-06-07T09:16:24Z</time>
      </trkpt>
      <trkpt lat="44.41814" lon="5.63446">
        <ele>794</ele>
        <time>2019-06-07T09:16:25Z</time>
      </trkpt>
      <trkpt lat="44.41816" lon="5.63455">
        <ele>794</ele>
        <time>2019-06-07T09:16:26Z</time>
      </trkpt>
      <trkpt lat="44.41819" lon="5.63463">
        <ele>794</ele>
        <time>2019-06-07T09:16:27Z</time>
      </trkpt>
      <trkpt lat="44.41821" lon="5.63472">
        <ele>794</ele>
        <time>2019-06-07T09:16:28Z</time>
      </trkpt>
      <trkpt lat="44.41823" lon="5.63481">
        <ele>794</ele>
        <time>2019-06-07T09:16:29Z</time>
      </trkpt>
      <trkpt lat="44.41825" lon="5.63489">
        <ele>794</ele>
        <time>2019-06-07T09:16:30Z</time>
      </trkpt>
      <trkpt lat="44.41828" lon="5.63497">
        <ele>794</ele>
        <time>2019-06-07T09:16:31Z</time>
      </trkpt>
      <trkpt lat="44.4183" lon="5.63505">
        <ele>794</ele>
        <time>2019-06-07T09:16:32Z</time>
      </trkpt>
      <trkpt lat="44.41832" lon="5.63514">
        <ele>794</ele>
        <time>2019-06-07T09:16:33Z</time>
      </trkpt>
      <trkpt lat="44.41835" lon="5.63522">
        <ele>794</ele>
        <time>2019-06-07T09:16:34Z</time>
      </trkpt>
      <trkpt lat="44.41837" lon="5.6353">
        <ele>794</ele>
        <time>2019-06-07T09:16:35Z</time>
      </trkpt>
      <trkpt lat="44.4184" lon="5.63539">
        <ele>794</ele>
        <time>2019-06-07T09:16:36Z</time>
      </trkpt>
      <trkpt lat="44.41842" lon="5.63548">
        <ele>794</ele>
        <time>2019-06-07T09:16:37Z</time>
      </trkpt>
      <trkpt lat="44.41844" lon="5.63556">
        <ele>794</ele>
        <time>2019-06-07T09:16:38Z</time>
      </trkpt>
      <trkpt lat="44.41846" lon="5.63565">
        <ele>794</ele>
        <time>2019-06-07T09:16:39Z</time>
      </trkpt>
      <trkpt lat="44.41848" lon="5.63574">
        <ele>794</ele>
        <time>2019-06-07T09:16:40Z</time>
      </trkpt>
      <trkpt lat="44.41851" lon="5.63582">
        <ele>794</ele>
        <time>2019-06-07T09:16:41Z</time>
      </trkpt>
      <trkpt lat="44.41853" lon="5.63591">
        <ele>794</ele>
        <time>2019-06-07T09:16:42Z</time>
      </trkpt>
      <trkpt lat="44.41854" lon="5.63599">
        <ele>794</ele>
        <time>2019-06-07T09:16:43Z</time>
      </trkpt>
      <trkpt lat="44.41856" lon="5.63608">
        <ele>794</ele>
        <time>2019-06-07T09:16:44Z</time>
      </trkpt>
      <trkpt lat="44.41858" lon="5.63616">
        <ele>794</ele>
        <time>2019-06-07T09:16:45Z</time>
      </trkpt>
      <trkpt lat="44.41859" lon="5.63625">
        <ele>794</ele>
        <time>2019-06-07T09:16:46Z</time>
      </trkpt>
      <trkpt lat="44.41861" lon="5.63633">
        <ele>794</ele>
        <time>2019-06-07T09:16:47Z</time>
      </trkpt>
      <trkpt lat="44.41863" lon="5.63642">
        <ele>794</ele>
        <time>2019-06-07T09:16:48Z</time>
      </trkpt>
      <trkpt lat="44.41864" lon="5.6365">
        <ele>794</ele>
        <time>2019-06-07T09:16:49Z</time>
      </trkpt>
      <trkpt lat="44.41866" lon="5.63659">
        <ele>794</ele>
        <time>2019-06-07T09:16:50Z</time>
      </trkpt>
      <trkpt lat="44.41869" lon="5.63667">
        <ele>794</ele>
        <time>2019-06-07T09:16:51Z</time>
      </trkpt>
      <trkpt lat="44.4187" lon="5.63675">
        <ele>794</ele>
        <time>2019-06-07T09:16:52Z</time>
      </trkpt>
      <trkpt lat="44.41872" lon="5.63684">
        <ele>794</ele>
        <time>2019-06-07T09:16:53Z</time>
      </trkpt>
      <trkpt lat="44.41874" lon="5.63692">
        <ele>794</ele>
        <time>2019-06-07T09:16:54Z</time>
      </trkpt>
      <trkpt lat="44.41875" lon="5.637">
        <ele>794</ele>
        <time>2019-06-07T09:16:55Z</time>
      </trkpt>
      <trkpt lat="44.41876" lon="5.63709">
        <ele>794</ele>
        <time>2019-06-07T09:16:56Z</time>
      </trkpt>
      <trkpt lat="44.41878" lon="5.63717">
        <ele>794</ele>
        <time>2019-06-07T09:16:57Z</time>
      </trkpt>
      <trkpt lat="44.41879" lon="5.63726">
        <ele>794</ele>
        <time>2019-06-07T09:16:58Z</time>
      </trkpt>
      <trkpt lat="44.41881" lon="5.63734">
        <ele>794</ele>
        <time>2019-06-07T09:16:59Z</time>
      </trkpt>
      <trkpt lat="44.41883" lon="5.63743">
        <ele>794</ele>
        <time>2019-06-07T09:17:00Z</time>
      </trkpt>
      <trkpt lat="44.41885" lon="5.63751">
        <ele>794</ele>
        <time>2019-06-07T09:17:01Z</time>
      </trkpt>
      <trkpt lat="44.41887" lon="5.6376">
        <ele>794</ele>
        <time>2019-06-07T09:17:02Z</time>
      </trkpt>
      <trkpt lat="44.4189" lon="5.63768">
        <ele>794</ele>
        <time>2019-06-07T09:17:03Z</time>
      </trkpt>
      <trkpt lat="44.41892" lon="5.63777">
        <ele>794</ele>
        <time>2019-06-07T09:17:04Z</time>
      </trkpt>
      <trkpt lat="44.41895" lon="5.63786">
        <ele>794</ele>
        <time>2019-06-07T09:17:05Z</time>
      </trkpt>
      <trkpt lat="44.41898" lon="5.63795">
        <ele>794</ele>
        <time>2019-06-07T09:17:06Z</time>
      </trkpt>
      <trkpt lat="44.41901" lon="5.63803">
        <ele>794</ele>
        <time>2019-06-07T09:17:07Z</time>
      </trkpt>
      <trkpt lat="44.41904" lon="5.63812">
        <ele>794</ele>
        <time>2019-06-07T09:17:08Z</time>
      </trkpt>
      <trkpt lat="44.41906" lon="5.63821">
        <ele>794</ele>
        <time>2019-06-07T09:17:09Z</time>
      </trkpt>
      <trkpt lat="44.4191" lon="5.6383">
        <ele>794</ele>
        <time>2019-06-07T09:17:10Z</time>
      </trkpt>
      <trkpt lat="44.41913" lon="5.63839">
        <ele>794</ele>
        <time>2019-06-07T09:17:11Z</time>
      </trkpt>
      <trkpt lat="44.41917" lon="5.63848">
        <ele>794</ele>
        <time>2019-06-07T09:17:12Z</time>
      </trkpt>
      <trkpt lat="44.4192" lon="5.63858">
        <ele>794</ele>
        <time>2019-06-07T09:17:13Z</time>
      </trkpt>
      <trkpt lat="44.41923" lon="5.63867">
        <ele>794</ele>
        <time>2019-06-07T09:17:14Z</time>
      </trkpt>
      <trkpt lat="44.41926" lon="5.63876">
        <ele>794</ele>
        <time>2019-06-07T09:17:15Z</time>
      </trkpt>
      <trkpt lat="44.41929" lon="5.63886">
        <ele>794</ele>
        <time>2019-06-07T09:17:16Z</time>
      </trkpt>
      <trkpt lat="44.41933" lon="5.63895">
        <ele>794</ele>
        <time>2019-06-07T09:17:17Z</time>
      </trkpt>
      <trkpt lat="44.41936" lon="5.63905">
        <ele>794</ele>
        <time>2019-06-07T09:17:18Z</time>
      </trkpt>
      <trkpt lat="44.41938" lon="5.63915">
        <ele>794</ele>
        <time>2019-06-07T09:17:19Z</time>
      </trkpt>
      <trkpt lat="44.41941" lon="5.63925">
        <ele>793</ele>
        <time>2019-06-07T09:17:20Z</time>
      </trkpt>
      <trkpt lat="44.41943" lon="5.63936">
        <ele>793</ele>
        <time>2019-06-07T09:17:21Z</time>
      </trkpt>
      <trkpt lat="44.41945" lon="5.63946">
        <ele>793</ele>
        <time>2019-06-07T09:17:22Z</time>
      </trkpt>
      <trkpt lat="44.41946" lon="5.63958">
        <ele>793</ele>
        <time>2019-06-07T09:17:23Z</time>
      </trkpt>
      <trkpt lat="44.41946" lon="5.6397">
        <ele>792</ele>
        <time>2019-06-07T09:17:24Z</time>
      </trkpt>
      <trkpt lat="44.41946" lon="5.63981">
        <ele>792</ele>
        <time>2019-06-07T09:17:25Z</time>
      </trkpt>
      <trkpt lat="44.41945" lon="5.63993">
        <ele>792</ele>
        <time>2019-06-07T09:17:26Z</time>
      </trkpt>
      <trkpt lat="44.41943" lon="5.64005">
        <ele>792</ele>
        <time>2019-06-07T09:17:27Z</time>
      </trkpt>
      <trkpt lat="44.41941" lon="5.64017">
        <ele>791</ele>
        <time>2019-06-07T09:17:28Z</time>
      </trkpt>
      <trkpt lat="44.41937" lon="5.64028">
        <ele>791</ele>
        <time>2019-06-07T09:17:29Z</time>
      </trkpt>
      <trkpt lat="44.41934" lon="5.64039">
        <ele>791</ele>
        <time>2019-06-07T09:17:30Z</time>
      </trkpt>
      <trkpt lat="44.4193" lon="5.6405">
        <ele>790</ele>
        <time>2019-06-07T09:17:31Z</time>
      </trkpt>
      <trkpt lat="44.41926" lon="5.64061">
        <ele>790</ele>
        <time>2019-06-07T09:17:32Z</time>
      </trkpt>
      <trkpt lat="44.41922" lon="5.64072">
        <ele>789</ele>
        <time>2019-06-07T09:17:33Z</time>
      </trkpt>
      <trkpt lat="44.41919" lon="5.64083">
        <ele>788</ele>
        <time>2019-06-07T09:17:34Z</time>
      </trkpt>
      <trkpt lat="44.41915" lon="5.64094">
        <ele>788</ele>
        <time>2019-06-07T09:17:35Z</time>
      </trkpt>
      <trkpt lat="44.41912" lon="5.64106">
        <ele>788</ele>
        <time>2019-06-07T09:17:36Z</time>
      </trkpt>
      <trkpt lat="44.41909" lon="5.64117">
        <ele>787</ele>
        <time>2019-06-07T09:17:37Z</time>
      </trkpt>
      <trkpt lat="44.41906" lon="5.6413">
        <ele>787</ele>
        <time>2019-06-07T09:17:38Z</time>
      </trkpt>
      <trkpt lat="44.41905" lon="5.64142">
        <ele>786</ele>
        <time>2019-06-07T09:17:39Z</time>
      </trkpt>
      <trkpt lat="44.41905" lon="5.64155">
        <ele>786</ele>
        <time>2019-06-07T09:17:40Z</time>
      </trkpt>
      <trkpt lat="44.41906" lon="5.64168">
        <ele>785</ele>
        <time>2019-06-07T09:17:41Z</time>
      </trkpt>
      <trkpt lat="44.41907" lon="5.64182">
        <ele>785</ele>
        <time>2019-06-07T09:17:42Z</time>
      </trkpt>
      <trkpt lat="44.4191" lon="5.64194">
        <ele>784</ele>
        <time>2019-06-07T09:17:43Z</time>
      </trkpt>
      <trkpt lat="44.41913" lon="5.64207">
        <ele>783</ele>
        <time>2019-06-07T09:17:44Z</time>
      </trkpt>
      <trkpt lat="44.41916" lon="5.6422">
        <ele>783</ele>
        <time>2019-06-07T09:17:45Z</time>
      </trkpt>
      <trkpt lat="44.41918" lon="5.64232">
        <ele>782</ele>
        <time>2019-06-07T09:17:46Z</time>
      </trkpt>
      <trkpt lat="44.41921" lon="5.64245">
        <ele>781</ele>
        <time>2019-06-07T09:17:47Z</time>
      </trkpt>
      <trkpt lat="44.41924" lon="5.64257">
        <ele>780</ele>
        <time>2019-06-07T09:17:48Z</time>
      </trkpt>
      <trkpt lat="44.41925" lon="5.6427">
        <ele>780</ele>
        <time>2019-06-07T09:17:49Z</time>
      </trkpt>
      <trkpt lat="44.41926" lon="5.64283">
        <ele>779</ele>
        <time>2019-06-07T09:17:50Z</time>
      </trkpt>
      <trkpt lat="44.41925" lon="5.64296">
        <ele>779</ele>
        <time>2019-06-07T09:17:51Z</time>
      </trkpt>
      <trkpt lat="44.41924" lon="5.64309">
        <ele>778</ele>
        <time>2019-06-07T09:17:52Z</time>
      </trkpt>
      <trkpt lat="44.41921" lon="5.64321">
        <ele>778</ele>
        <time>2019-06-07T09:17:53Z</time>
      </trkpt>
      <trkpt lat="44.41918" lon="5.64333">
        <ele>777</ele>
        <time>2019-06-07T09:17:54Z</time>
      </trkpt>
      <trkpt lat="44.41914" lon="5.64346">
        <ele>777</ele>
        <time>2019-06-07T09:17:55Z</time>
      </trkpt>
      <trkpt lat="44.41909" lon="5.64357">
        <ele>776</ele>
        <time>2019-06-07T09:17:56Z</time>
      </trkpt>
      <trkpt lat="44.41904" lon="5.64369">
        <ele>776</ele>
        <time>2019-06-07T09:17:57Z</time>
      </trkpt>
      <trkpt lat="44.41898" lon="5.6438">
        <ele>775</ele>
        <time>2019-06-07T09:17:58Z</time>
      </trkpt>
      <trkpt lat="44.41893" lon="5.64391">
        <ele>775</ele>
        <time>2019-06-07T09:17:59Z</time>
      </trkpt>
      <trkpt lat="44.41886" lon="5.64401">
        <ele>775</ele>
        <time>2019-06-07T09:18:00Z</time>
      </trkpt>
      <trkpt lat="44.4188" lon="5.64411">
        <ele>774</ele>
        <time>2019-06-07T09:18:01Z</time>
      </trkpt>
      <trkpt lat="44.41874" lon="5.64422">
        <ele>774</ele>
        <time>2019-06-07T09:18:02Z</time>
      </trkpt>
      <trkpt lat="44.41868" lon="5.64431">
        <ele>773</ele>
        <time>2019-06-07T09:18:03Z</time>
      </trkpt>
      <trkpt lat="44.41862" lon="5.64441">
        <ele>773</ele>
        <time>2019-06-07T09:18:04Z</time>
      </trkpt>
      <trkpt lat="44.41857" lon="5.64451">
        <ele>772</ele>
        <time>2019-06-07T09:18:05Z</time>
      </trkpt>
      <trkpt lat="44.41851" lon="5.6446">
        <ele>772</ele>
        <time>2019-06-07T09:18:06Z</time>
      </trkpt>
      <trkpt lat="44.41845" lon="5.6447">
        <ele>772</ele>
        <time>2019-06-07T09:18:07Z</time>
      </trkpt>
      <trkpt lat="44.4184" lon="5.64479">
        <ele>771</ele>
        <time>2019-06-07T09:18:08Z</time>
      </trkpt>
      <trkpt lat="44.41835" lon="5.64488">
        <ele>771</ele>
        <time>2019-06-07T09:18:09Z</time>
      </trkpt>
      <trkpt lat="44.41829" lon="5.64497">
        <ele>771</ele>
        <time>2019-06-07T09:18:10Z</time>
      </trkpt>
      <trkpt lat="44.41824" lon="5.64506">
        <ele>770</ele>
        <time>2019-06-07T09:18:11Z</time>
      </trkpt>
      <trkpt lat="44.41818" lon="5.64516">
        <ele>770</ele>
        <time>2019-06-07T09:18:12Z</time>
      </trkpt>
      <trkpt lat="44.41813" lon="5.64525">
        <ele>770</ele>
        <time>2019-06-07T09:18:13Z</time>
      </trkpt>
      <trkpt lat="44.41807" lon="5.64534">
        <ele>769</ele>
        <time>2019-06-07T09:18:14Z</time>
      </trkpt>
      <trkpt lat="44.41802" lon="5.64543">
        <ele>769</ele>
        <time>2019-06-07T09:18:15Z</time>
      </trkpt>
      <trkpt lat="44.41797" lon="5.64552">
        <ele>769</ele>
        <time>2019-06-07T09:18:16Z</time>
      </trkpt>
      <trkpt lat="44.41792" lon="5.64561">
        <ele>769</ele>
        <time>2019-06-07T09:18:17Z</time>
      </trkpt>
      <trkpt lat="44.41787" lon="5.6457">
        <ele>768</ele>
        <time>2019-06-07T09:18:18Z</time>
      </trkpt>
      <trkpt lat="44.41781" lon="5.64578">
        <ele>768</ele>
        <time>2019-06-07T09:18:19Z</time>
      </trkpt>
      <trkpt lat="44.41776" lon="5.64587">
        <ele>768</ele>
        <time>2019-06-07T09:18:20Z</time>
      </trkpt>
      <trkpt lat="44.4177" lon="5.64595">
        <ele>767</ele>
        <time>2019-06-07T09:18:21Z</time>
      </trkpt>
      <trkpt lat="44.41764" lon="5.64603">
        <ele>767</ele>
        <time>2019-06-07T09:18:22Z</time>
      </trkpt>
      <trkpt lat="44.41758" lon="5.64611">
        <ele>767</ele>
        <time>2019-06-07T09:18:23Z</time>
      </trkpt>
      <trkpt lat="44.41753" lon="5.64618">
        <ele>767</ele>
        <time>2019-06-07T09:18:24Z</time>
      </trkpt>
      <trkpt lat="44.41747" lon="5.64626">
        <ele>766</ele>
        <time>2019-06-07T09:18:25Z</time>
      </trkpt>
      <trkpt lat="44.41742" lon="5.64633">
        <ele>766</ele>
        <time>2019-06-07T09:18:26Z</time>
      </trkpt>
      <trkpt lat="44.41736" lon="5.64641">
        <ele>766</ele>
        <time>2019-06-07T09:18:27Z</time>
      </trkpt>
      <trkpt lat="44.4173" lon="5.64649">
        <ele>766</ele>
        <time>2019-06-07T09:18:28Z</time>
      </trkpt>
      <trkpt lat="44.41725" lon="5.64657">
        <ele>766</ele>
        <time>2019-06-07T09:18:29Z</time>
      </trkpt>
      <trkpt lat="44.4172" lon="5.64665">
        <ele>765</ele>
        <time>2019-06-07T09:18:30Z</time>
      </trkpt>
      <trkpt lat="44.41716" lon="5.64674">
        <ele>765</ele>
        <time>2019-06-07T09:18:31Z</time>
      </trkpt>
      <trkpt lat="44.41711" lon="5.64682">
        <ele>765</ele>
        <time>2019-06-07T09:18:32Z</time>
      </trkpt>
      <trkpt lat="44.41706" lon="5.64691">
        <ele>765</ele>
        <time>2019-06-07T09:18:33Z</time>
      </trkpt>
      <trkpt lat="44.41702" lon="5.64699">
        <ele>764</ele>
        <time>2019-06-07T09:18:34Z</time>
      </trkpt>
      <trkpt lat="44.41697" lon="5.64708">
        <ele>764</ele>
        <time>2019-06-07T09:18:35Z</time>
      </trkpt>
      <trkpt lat="44.41693" lon="5.64717">
        <ele>764</ele>
        <time>2019-06-07T09:18:36Z</time>
      </trkpt>
      <trkpt lat="44.41689" lon="5.64726">
        <ele>764</ele>
        <time>2019-06-07T09:18:37Z</time>
      </trkpt>
      <trkpt lat="44.41685" lon="5.64735">
        <ele>764</ele>
        <time>2019-06-07T09:18:38Z</time>
      </trkpt>
      <trkpt lat="44.41681" lon="5.64745">
        <ele>763</ele>
        <time>2019-06-07T09:18:39Z</time>
      </trkpt>
      <trkpt lat="44.41676" lon="5.64754">
        <ele>763</ele>
        <time>2019-06-07T09:18:40Z</time>
      </trkpt>
      <trkpt lat="44.41672" lon="5.64763">
        <ele>763</ele>
        <time>2019-06-07T09:18:41Z</time>
      </trkpt>
      <trkpt lat="44.41669" lon="5.64773">
        <ele>763</ele>
        <time>2019-06-07T09:18:42Z</time>
      </trkpt>
      <trkpt lat="44.41665" lon="5.64782">
        <ele>763</ele>
        <time>2019-06-07T09:18:43Z</time>
      </trkpt>
      <trkpt lat="44.41661" lon="5.64791">
        <ele>763</ele>
        <time>2019-06-07T09:18:44Z</time>
      </trkpt>
      <trkpt lat="44.41658" lon="5.64801">
        <ele>762</ele>
        <time>2019-06-07T09:18:45Z</time>
      </trkpt>
      <trkpt lat="44.41654" lon="5.6481">
        <ele>762</ele>
        <time>2019-06-07T09:18:46Z</time>
      </trkpt>
      <trkpt lat="44.4165" lon="5.64819">
        <ele>762</ele>
        <time>2019-06-07T09:18:47Z</time>
      </trkpt>
      <trkpt lat="44.41646" lon="5.64828">
        <ele>762</ele>
        <time>2019-06-07T09:18:48Z</time>
      </trkpt>
      <trkpt lat="44.41642" lon="5.64837">
        <ele>762</ele>
        <time>2019-06-07T09:18:49Z</time>
      </trkpt>
      <trkpt lat="44.41639" lon="5.64846">
        <ele>762</ele>
        <time>2019-06-07T09:18:50Z</time>
      </trkpt>
      <trkpt lat="44.41635" lon="5.64855">
        <ele>761</ele>
        <time>2019-06-07T09:18:51Z</time>
      </trkpt>
      <trkpt lat="44.41631" lon="5.64864">
        <ele>761</ele>
        <time>2019-06-07T09:18:52Z</time>
      </trkpt>
      <trkpt lat="44.41627" lon="5.64873">
        <ele>761</ele>
        <time>2019-06-07T09:18:53Z</time>
      </trkpt>
      <trkpt lat="44.41623" lon="5.64881">
        <ele>761</ele>
        <time>2019-06-07T09:18:54Z</time>
      </trkpt>
      <trkpt lat="44.41619" lon="5.6489">
        <ele>761</ele>
        <time>2019-06-07T09:18:55Z</time>
      </trkpt>
      <trkpt lat="44.41615" lon="5.64899">
        <ele>761</ele>
        <time>2019-06-07T09:18:56Z</time>
      </trkpt>
      <trkpt lat="44.41611" lon="5.64908">
        <ele>761</ele>
        <time>2019-06-07T09:18:57Z</time>
      </trkpt>
      <trkpt lat="44.41607" lon="5.64917">
        <ele>761</ele>
        <time>2019-06-07T09:18:58Z</time>
      </trkpt>
      <trkpt lat="44.41603" lon="5.64926">
        <ele>761</ele>
        <time>2019-06-07T09:18:59Z</time>
      </trkpt>
      <trkpt lat="44.41599" lon="5.64935">
        <ele>761</ele>
        <time>2019-06-07T09:19:00Z</time>
      </trkpt>
      <trkpt lat="44.41596" lon="5.64945">
        <ele>761</ele>
        <time>2019-06-07T09:19:01Z</time>
      </trkpt>
      <trkpt lat="44.41594" lon="5.64955">
        <ele>761</ele>
        <time>2019-06-07T09:19:02Z</time>
      </trkpt>
      <trkpt lat="44.41591" lon="5.64964">
        <ele>761</ele>
        <time>2019-06-07T09:19:03Z</time>
      </trkpt>
      <trkpt lat="44.41588" lon="5.64974">
        <ele>761</ele>
        <time>2019-06-07T09:19:04Z</time>
      </trkpt>
      <trkpt lat="44.41586" lon="5.64984">
        <ele>761</ele>
        <time>2019-06-07T09:19:05Z</time>
      </trkpt>
      <trkpt lat="44.41583" lon="5.64994">
        <ele>761</ele>
        <time>2019-06-07T09:19:06Z</time>
      </trkpt>
      <trkpt lat="44.41581" lon="5.65005">
        <ele>761</ele>
        <time>2019-06-07T09:19:07Z</time>
      </trkpt>
      <trkpt lat="44.4158" lon="5.65015">
        <ele>761</ele>
        <time>2019-06-07T09:19:08Z</time>
      </trkpt>
      <trkpt lat="44.41579" lon="5.65026">
        <ele>761</ele>
        <time>2019-06-07T09:19:09Z</time>
      </trkpt>
      <trkpt lat="44.41578" lon="5.65037">
        <ele>761</ele>
        <time>2019-06-07T09:19:10Z</time>
      </trkpt>
      <trkpt lat="44.41576" lon="5.65048">
        <ele>761</ele>
        <time>2019-06-07T09:19:11Z</time>
      </trkpt>
      <trkpt lat="44.41576" lon="5.65059">
        <ele>761</ele>
        <time>2019-06-07T09:19:12Z</time>
      </trkpt>
      <trkpt lat="44.41575" lon="5.6507">
        <ele>761</ele>
        <time>2019-06-07T09:19:13Z</time>
      </trkpt>
      <trkpt lat="44.41574" lon="5.65081">
        <ele>761</ele>
        <time>2019-06-07T09:19:14Z</time>
      </trkpt>
      <trkpt lat="44.41574" lon="5.65092">
        <ele>761</ele>
        <time>2019-06-07T09:19:15Z</time>
      </trkpt>
      <trkpt lat="44.41573" lon="5.65103">
        <ele>761</ele>
        <time>2019-06-07T09:19:16Z</time>
      </trkpt>
      <trkpt lat="44.41573" lon="5.65114">
        <ele>761</ele>
        <time>2019-06-07T09:19:17Z</time>
      </trkpt>
      <trkpt lat="44.41572" lon="5.65125">
        <ele>761</ele>
        <time>2019-06-07T09:19:18Z</time>
      </trkpt>
      <trkpt lat="44.41571" lon="5.65135">
        <ele>761</ele>
        <time>2019-06-07T09:19:19Z</time>
      </trkpt>
      <trkpt lat="44.41571" lon="5.65146">
        <ele>761</ele>
        <time>2019-06-07T09:19:20Z</time>
      </trkpt>
      <trkpt lat="44.4157" lon="5.65157">
        <ele>761</ele>
        <time>2019-06-07T09:19:21Z</time>
      </trkpt>
      <trkpt lat="44.4157" lon="5.65168">
        <ele>761</ele>
        <time>2019-06-07T09:19:22Z</time>
      </trkpt>
      <trkpt lat="44.4157" lon="5.65179">
        <ele>760</ele>
        <time>2019-06-07T09:19:23Z</time>
      </trkpt>
      <trkpt lat="44.41571" lon="5.6519">
        <ele>760</ele>
        <time>2019-06-07T09:19:24Z</time>
      </trkpt>
      <trkpt lat="44.41573" lon="5.65201">
        <ele>760</ele>
        <time>2019-06-07T09:19:25Z</time>
      </trkpt>
      <trkpt lat="44.41576" lon="5.65211">
        <ele>760</ele>
        <time>2019-06-07T09:19:26Z</time>
      </trkpt>
      <trkpt lat="44.41579" lon="5.65221">
        <ele>759</ele>
        <time>2019-06-07T09:19:27Z</time>
      </trkpt>
      <trkpt lat="44.41583" lon="5.6523">
        <ele>759</ele>
        <time>2019-06-07T09:19:28Z</time>
      </trkpt>
      <trkpt lat="44.41587" lon="5.65239">
        <ele>759</ele>
        <time>2019-06-07T09:19:29Z</time>
      </trkpt>
      <trkpt lat="44.41592" lon="5.65247">
        <ele>759</ele>
        <time>2019-06-07T09:19:30Z</time>
      </trkpt>
      <trkpt lat="44.41598" lon="5.65254">
        <ele>759</ele>
        <time>2019-06-07T09:19:31Z</time>
      </trkpt>
      <trkpt lat="44.41605" lon="5.65261">
        <ele>758</ele>
        <time>2019-06-07T09:19:32Z</time>
      </trkpt>
      <trkpt lat="44.41612" lon="5.65266">
        <ele>758</ele>
        <time>2019-06-07T09:19:33Z</time>
      </trkpt>
      <trkpt lat="44.4162" lon="5.6527">
        <ele>758</ele>
        <time>2019-06-07T09:19:34Z</time>
      </trkpt>
      <trkpt lat="44.41628" lon="5.65273">
        <ele>758</ele>
        <time>2019-06-07T09:19:35Z</time>
      </trkpt>
      <trkpt lat="44.41636" lon="5.65274">
        <ele>757</ele>
        <time>2019-06-07T09:19:36Z</time>
      </trkpt>
      <trkpt lat="44.41644" lon="5.65274">
        <ele>757</ele>
        <time>2019-06-07T09:19:37Z</time>
      </trkpt>
      <trkpt lat="44.41653" lon="5.65274">
        <ele>757</ele>
        <time>2019-06-07T09:19:38Z</time>
      </trkpt>
      <trkpt lat="44.41661" lon="5.65272">
        <ele>757</ele>
        <time>2019-06-07T09:19:39Z</time>
      </trkpt>
      <trkpt lat="44.41669" lon="5.65271">
        <ele>756</ele>
        <time>2019-06-07T09:19:40Z</time>
      </trkpt>
      <trkpt lat="44.41678" lon="5.65271">
        <ele>756</ele>
        <time>2019-06-07T09:19:41Z</time>
      </trkpt>
      <trkpt lat="44.41686" lon="5.6527">
        <ele>756</ele>
        <time>2019-06-07T09:19:42Z</time>
      </trkpt>
      <trkpt lat="44.41695" lon="5.65271">
        <ele>755</ele>
        <time>2019-06-07T09:19:43Z</time>
      </trkpt>
      <trkpt lat="44.41703" lon="5.65273">
        <ele>755</ele>
        <time>2019-06-07T09:19:44Z</time>
      </trkpt>
      <trkpt lat="44.4171" lon="5.65276">
        <ele>755</ele>
        <time>2019-06-07T09:19:45Z</time>
      </trkpt>
      <trkpt lat="44.41717" lon="5.65281">
        <ele>755</ele>
        <time>2019-06-07T09:19:46Z</time>
      </trkpt>
      <trkpt lat="44.41724" lon="5.65288">
        <ele>755</ele>
        <time>2019-06-07T09:19:47Z</time>
      </trkpt>
      <trkpt lat="44.4173" lon="5.65296">
        <ele>755</ele>
        <time>2019-06-07T09:19:48Z</time>
      </trkpt>
      <trkpt lat="44.41735" lon="5.65305">
        <ele>755</ele>
        <time>2019-06-07T09:19:49Z</time>
      </trkpt>
      <trkpt lat="44.4174" lon="5.65314">
        <ele>755</ele>
        <time>2019-06-07T09:19:50Z</time>
      </trkpt>
      <trkpt lat="44.41743" lon="5.65325">
        <ele>755</ele>
        <time>2019-06-07T09:19:51Z</time>
      </trkpt>
      <trkpt lat="44.41745" lon="5.65336">
        <ele>755</ele>
        <time>2019-06-07T09:19:52Z</time>
      </trkpt>
      <trkpt lat="44.41747" lon="5.65347">
        <ele>755</ele>
        <time>2019-06-07T09:19:53Z</time>
      </trkpt>
      <trkpt lat="44.41749" lon="5.65358">
        <ele>755</ele>
        <time>2019-06-07T09:19:54Z</time>
      </trkpt>
      <trkpt lat="44.4175" lon="5.6537">
        <ele>754</ele>
        <time>2019-06-07T09:19:55Z</time>
      </trkpt>
      <trkpt lat="44.41751" lon="5.65381">
        <ele>754</ele>
        <time>2019-06-07T09:19:56Z</time>
      </trkpt>
      <trkpt lat="44.4175" lon="5.65393">
        <ele>754</ele>
        <time>2019-06-07T09:19:57Z</time>
      </trkpt>
      <trkpt lat="44.4175" lon="5.65405">
        <ele>754</ele>
        <time>2019-06-07T09:19:58Z</time>
      </trkpt>
      <trkpt lat="44.41749" lon="5.65416">
        <ele>753</ele>
        <time>2019-06-07T09:19:59Z</time>
      </trkpt>
      <trkpt lat="44.41748" lon="5.65427">
        <ele>753</ele>
        <time>2019-06-07T09:20:00Z</time>
      </trkpt>
      <trkpt lat="44.41745" lon="5.65438">
        <ele>753</ele>
        <time>2019-06-07T09:20:01Z</time>
      </trkpt>
      <trkpt lat="44.41743" lon="5.65449">
        <ele>753</ele>
        <time>2019-06-07T09:20:02Z</time>
      </trkpt>
      <trkpt lat="44.4174" lon="5.65459">
        <ele>753</ele>
        <time>2019-06-07T09:20:03Z</time>
      </trkpt>
      <trkpt lat="44.41737" lon="5.65469">
        <ele>753</ele>
        <time>2019-06-07T09:20:04Z</time>
      </trkpt>
      <trkpt lat="44.41734" lon="5.65479">
        <ele>753</ele>
        <time>2019-06-07T09:20:05Z</time>
      </trkpt>
      <trkpt lat="44.4173" lon="5.65489">
        <ele>753</ele>
        <time>2019-06-07T09:20:06Z</time>
      </trkpt>
      <trkpt lat="44.41727" lon="5.65499">
        <ele>753</ele>
        <time>2019-06-07T09:20:07Z</time>
      </trkpt>
      <trkpt lat="44.41723" lon="5.65509">
        <ele>753</ele>
        <time>2019-06-07T09:20:08Z</time>
      </trkpt>
      <trkpt lat="44.4172" lon="5.65519">
        <ele>752</ele>
        <time>2019-06-07T09:20:09Z</time>
      </trkpt>
      <trkpt lat="44.41716" lon="5.65529">
        <ele>752</ele>
        <time>2019-06-07T09:20:10Z</time>
      </trkpt>
      <trkpt lat="44.41713" lon="5.6554">
        <ele>752</ele>
        <time>2019-06-07T09:20:11Z</time>
      </trkpt>
      <trkpt lat="44.41711" lon="5.65551">
        <ele>752</ele>
        <time>2019-06-07T09:20:12Z</time>
      </trkpt>
      <trkpt lat="44.41709" lon="5.65562">
        <ele>751</ele>
        <time>2019-06-07T09:20:13Z</time>
      </trkpt>
      <trkpt lat="44.41708" lon="5.65573">
        <ele>751</ele>
        <time>2019-06-07T09:20:14Z</time>
      </trkpt>
      <trkpt lat="44.41707" lon="5.65584">
        <ele>751</ele>
        <time>2019-06-07T09:20:15Z</time>
      </trkpt>
      <trkpt lat="44.41706" lon="5.65594">
        <ele>751</ele>
        <time>2019-06-07T09:20:16Z</time>
      </trkpt>
      <trkpt lat="44.41706" lon="5.65605">
        <ele>750</ele>
        <time>2019-06-07T09:20:17Z</time>
      </trkpt>
      <trkpt lat="44.41706" lon="5.65616">
        <ele>750</ele>
        <time>2019-06-07T09:20:18Z</time>
      </trkpt>
      <trkpt lat="44.41706" lon="5.65627">
        <ele>750</ele>
        <time>2019-06-07T09:20:19Z</time>
      </trkpt>
      <trkpt lat="44.41706" lon="5.65638">
        <ele>750</ele>
        <time>2019-06-07T09:20:20Z</time>
      </trkpt>
      <trkpt lat="44.41706" lon="5.6565">
        <ele>750</ele>
        <time>2019-06-07T09:20:21Z</time>
      </trkpt>
      <trkpt lat="44.41707" lon="5.65661">
        <ele>749</ele>
        <time>2019-06-07T09:20:22Z</time>
      </trkpt>
      <trkpt lat="44.41707" lon="5.65672">
        <ele>749</ele>
        <time>2019-06-07T09:20:23Z</time>
      </trkpt>
      <trkpt lat="44.41708" lon="5.65683">
        <ele>749</ele>
        <time>2019-06-07T09:20:24Z</time>
      </trkpt>
      <trkpt lat="44.41708" lon="5.65694">
        <ele>749</ele>
        <time>2019-06-07T09:20:25Z</time>
      </trkpt>
      <trkpt lat="44.41709" lon="5.65705">
        <ele>749</ele>
        <time>2019-06-07T09:20:26Z</time>
      </trkpt>
      <trkpt lat="44.41709" lon="5.65716">
        <ele>749</ele>
        <time>2019-06-07T09:20:27Z</time>
      </trkpt>
      <trkpt lat="44.41709" lon="5.65727">
        <ele>749</ele>
        <time>2019-06-07T09:20:28Z</time>
      </trkpt>
      <trkpt lat="44.41708" lon="5.65738">
        <ele>749</ele>
        <time>2019-06-07T09:20:29Z</time>
      </trkpt>
      <trkpt lat="44.41707" lon="5.65749">
        <ele>748</ele>
        <time>2019-06-07T09:20:30Z</time>
      </trkpt>
      <trkpt lat="44.41705" lon="5.6576">
        <ele>748</ele>
        <time>2019-06-07T09:20:31Z</time>
      </trkpt>
      <trkpt lat="44.41702" lon="5.6577">
        <ele>748</ele>
        <time>2019-06-07T09:20:32Z</time>
      </trkpt>
      <trkpt lat="44.41699" lon="5.6578">
        <ele>747</ele>
        <time>2019-06-07T09:20:33Z</time>
      </trkpt>
      <trkpt lat="44.41695" lon="5.6579">
        <ele>747</ele>
        <time>2019-06-07T09:20:34Z</time>
      </trkpt>
      <trkpt lat="44.41691" lon="5.658">
        <ele>747</ele>
        <time>2019-06-07T09:20:35Z</time>
      </trkpt>
      <trkpt lat="44.41687" lon="5.6581">
        <ele>747</ele>
        <time>2019-06-07T09:20:36Z</time>
      </trkpt>
      <trkpt lat="44.41683" lon="5.65819">
        <ele>747</ele>
        <time>2019-06-07T09:20:37Z</time>
      </trkpt>
      <trkpt lat="44.41679" lon="5.65829">
        <ele>747</ele>
        <time>2019-06-07T09:20:38Z</time>
      </trkpt>
      <trkpt lat="44.41675" lon="5.65838">
        <ele>747</ele>
        <time>2019-06-07T09:20:39Z</time>
      </trkpt>
      <trkpt lat="44.41671" lon="5.65847">
        <ele>746</ele>
        <time>2019-06-07T09:20:40Z</time>
      </trkpt>
      <trkpt lat="44.41668" lon="5.65856">
        <ele>746</ele>
        <time>2019-06-07T09:20:41Z</time>
      </trkpt>
      <trkpt lat="44.41664" lon="5.65865">
        <ele>746</ele>
        <time>2019-06-07T09:20:42Z</time>
      </trkpt>
      <trkpt lat="44.4166" lon="5.65874">
        <ele>746</ele>
        <time>2019-06-07T09:20:43Z</time>
      </trkpt>
      <trkpt lat="44.41656" lon="5.65884">
        <ele>746</ele>
        <time>2019-06-07T09:20:44Z</time>
      </trkpt>
      <trkpt lat="44.41653" lon="5.65894">
        <ele>745</ele>
        <time>2019-06-07T09:20:45Z</time>
      </trkpt>
      <trkpt lat="44.41649" lon="5.65903">
        <ele>745</ele>
        <time>2019-06-07T09:20:46Z</time>
      </trkpt>
      <trkpt lat="44.41645" lon="5.65912">
        <ele>745</ele>
        <time>2019-06-07T09:20:47Z</time>
      </trkpt>
      <trkpt lat="44.41641" lon="5.65922">
        <ele>745</ele>
        <time>2019-06-07T09:20:48Z</time>
      </trkpt>
      <trkpt lat="44.41637" lon="5.65931">
        <ele>745</ele>
        <time>2019-06-07T09:20:49Z</time>
      </trkpt>
      <trkpt lat="44.41633" lon="5.65941">
        <ele>745</ele>
        <time>2019-06-07T09:20:50Z</time>
      </trkpt>
      <trkpt lat="44.41629" lon="5.6595">
        <ele>745</ele>
        <time>2019-06-07T09:20:51Z</time>
      </trkpt>
      <trkpt lat="44.41625" lon="5.65959">
        <ele>745</ele>
        <time>2019-06-07T09:20:52Z</time>
      </trkpt>
      <trkpt lat="44.41621" lon="5.65968">
        <ele>745</ele>
        <time>2019-06-07T09:20:53Z</time>
      </trkpt>
      <trkpt lat="44.41618" lon="5.65978">
        <ele>744</ele>
        <time>2019-06-07T09:20:54Z</time>
      </trkpt>
      <trkpt lat="44.41615" lon="5.65988">
        <ele>744</ele>
        <time>2019-06-07T09:20:55Z</time>
      </trkpt>
      <trkpt lat="44.41612" lon="5.65999">
        <ele>744</ele>
        <time>2019-06-07T09:20:56Z</time>
      </trkpt>
      <trkpt lat="44.41611" lon="5.6601">
        <ele>744</ele>
        <time>2019-06-07T09:20:57Z</time>
      </trkpt>
      <trkpt lat="44.4161" lon="5.66021">
        <ele>744</ele>
        <time>2019-06-07T09:20:58Z</time>
      </trkpt>
      <trkpt lat="44.4161" lon="5.66032">
        <ele>744</ele>
        <time>2019-06-07T09:20:59Z</time>
      </trkpt>
      <trkpt lat="44.41611" lon="5.66044">
        <ele>744</ele>
        <time>2019-06-07T09:21:00Z</time>
      </trkpt>
      <trkpt lat="44.41614" lon="5.66054">
        <ele>743</ele>
        <time>2019-06-07T09:21:01Z</time>
      </trkpt>
      <trkpt lat="44.41617" lon="5.66064">
        <ele>743</ele>
        <time>2019-06-07T09:21:02Z</time>
      </trkpt>
      <trkpt lat="44.41621" lon="5.66074">
        <ele>743</ele>
        <time>2019-06-07T09:21:03Z</time>
      </trkpt>
      <trkpt lat="44.41626" lon="5.66082">
        <ele>743</ele>
        <time>2019-06-07T09:21:04Z</time>
      </trkpt>
      <trkpt lat="44.41631" lon="5.66091">
        <ele>743</ele>
        <time>2019-06-07T09:21:05Z</time>
      </trkpt>
      <trkpt lat="44.41637" lon="5.66098">
        <ele>742</ele>
        <time>2019-06-07T09:21:06Z</time>
      </trkpt>
      <trkpt lat="44.41644" lon="5.66105">
        <ele>742</ele>
        <time>2019-06-07T09:21:07Z</time>
      </trkpt>
      <trkpt lat="44.4165" lon="5.66112">
        <ele>742</ele>
        <time>2019-06-07T09:21:08Z</time>
      </trkpt>
      <trkpt lat="44.41657" lon="5.66118">
        <ele>742</ele>
        <time>2019-06-07T09:21:09Z</time>
      </trkpt>
      <trkpt lat="44.41664" lon="5.66125">
        <ele>742</ele>
        <time>2019-06-07T09:21:10Z</time>
      </trkpt>
      <trkpt lat="44.4167" lon="5.66132">
        <ele>741</ele>
        <time>2019-06-07T09:21:11Z</time>
      </trkpt>
      <trkpt lat="44.41676" lon="5.66139">
        <ele>741</ele>
        <time>2019-06-07T09:21:12Z</time>
      </trkpt>
      <trkpt lat="44.41682" lon="5.66148">
        <ele>741</ele>
        <time>2019-06-07T09:21:13Z</time>
      </trkpt>
      <trkpt lat="44.41686" lon="5.66157">
        <ele>741</ele>
        <time>2019-06-07T09:21:14Z</time>
      </trkpt>
      <trkpt lat="44.41691" lon="5.66167">
        <ele>741</ele>
        <time>2019-06-07T09:21:15Z</time>
      </trkpt>
      <trkpt lat="44.41694" lon="5.66178">
        <ele>741</ele>
        <time>2019-06-07T09:21:16Z</time>
      </trkpt>
      <trkpt lat="44.41697" lon="5.66189">
        <ele>741</ele>
        <time>2019-06-07T09:21:17Z</time>
      </trkpt>
      <trkpt lat="44.417" lon="5.662">
        <ele>741</ele>
        <time>2019-06-07T09:21:18Z</time>
      </trkpt>
      <trkpt lat="44.41701" lon="5.66212">
        <ele>741</ele>
        <time>2019-06-07T09:21:19Z</time>
      </trkpt>
      <trkpt lat="44.41701" lon="5.66224">
        <ele>741</ele>
        <time>2019-06-07T09:21:20Z</time>
      </trkpt>
      <trkpt lat="44.417" lon="5.66235">
        <ele>741</ele>
        <time>2019-06-07T09:21:21Z</time>
      </trkpt>
      <trkpt lat="44.41698" lon="5.66247">
        <ele>741</ele>
        <time>2019-06-07T09:21:22Z</time>
      </trkpt>
      <trkpt lat="44.41696" lon="5.66258">
        <ele>741</ele>
        <time>2019-06-07T09:21:23Z</time>
      </trkpt>
      <trkpt lat="44.41693" lon="5.66269">
        <ele>741</ele>
        <time>2019-06-07T09:21:24Z</time>
      </trkpt>
      <trkpt lat="44.4169" lon="5.6628">
        <ele>741</ele>
        <time>2019-06-07T09:21:25Z</time>
      </trkpt>
      <trkpt lat="44.41687" lon="5.6629">
        <ele>741</ele>
        <time>2019-06-07T09:21:26Z</time>
      </trkpt>
      <trkpt lat="44.41684" lon="5.663">
        <ele>741</ele>
        <time>2019-06-07T09:21:27Z</time>
      </trkpt>
      <trkpt lat="44.4168" lon="5.66311">
        <ele>740</ele>
        <time>2019-06-07T09:21:28Z</time>
      </trkpt>
      <trkpt lat="44.41675" lon="5.66321">
        <ele>740</ele>
        <time>2019-06-07T09:21:29Z</time>
      </trkpt>
      <trkpt lat="44.41669" lon="5.66331">
        <ele>740</ele>
        <time>2019-06-07T09:21:30Z</time>
      </trkpt>
      <trkpt lat="44.41663" lon="5.66341">
        <ele>740</ele>
        <time>2019-06-07T09:21:31Z</time>
      </trkpt>
      <trkpt lat="44.41657" lon="5.6635">
        <ele>740</ele>
        <time>2019-06-07T09:21:32Z</time>
      </trkpt>
      <trkpt lat="44.4165" lon="5.66359">
        <ele>740</ele>
        <time>2019-06-07T09:21:33Z</time>
      </trkpt>
      <trkpt lat="44.41643" lon="5.66368">
        <ele>740</ele>
        <time>2019-06-07T09:21:34Z</time>
      </trkpt>
      <trkpt lat="44.41636" lon="5.66377">
        <ele>740</ele>
        <time>2019-06-07T09:21:35Z</time>
      </trkpt>
      <trkpt lat="44.4163" lon="5.66386">
        <ele>739</ele>
        <time>2019-06-07T09:21:36Z</time>
      </trkpt>
      <trkpt lat="44.41623" lon="5.66395">
        <ele>739</ele>
        <time>2019-06-07T09:21:37Z</time>
      </trkpt>
      <trkpt lat="44.41617" lon="5.66403">
        <ele>739</ele>
        <time>2019-06-07T09:21:38Z</time>
      </trkpt>
      <trkpt lat="44.41611" lon="5.66413">
        <ele>739</ele>
        <time>2019-06-07T09:21:39Z</time>
      </trkpt>
      <trkpt lat="44.41607" lon="5.66423">
        <ele>738</ele>
        <time>2019-06-07T09:21:40Z</time>
      </trkpt>
      <trkpt lat="44.41603" lon="5.66433">
        <ele>738</ele>
        <time>2019-06-07T09:21:41Z</time>
      </trkpt>
      <trkpt lat="44.416" lon="5.66444">
        <ele>738</ele>
        <time>2019-06-07T09:21:42Z</time>
      </trkpt>
      <trkpt lat="44.41597" lon="5.66456">
        <ele>738</ele>
        <time>2019-06-07T09:21:43Z</time>
      </trkpt>
      <trkpt lat="44.41595" lon="5.66467">
        <ele>738</ele>
        <time>2019-06-07T09:21:44Z</time>
      </trkpt>
      <trkpt lat="44.41593" lon="5.66479">
        <ele>738</ele>
        <time>2019-06-07T09:21:45Z</time>
      </trkpt>
      <trkpt lat="44.41592" lon="5.66491">
        <ele>738</ele>
        <time>2019-06-07T09:21:46Z</time>
      </trkpt>
      <trkpt lat="44.41591" lon="5.66503">
        <ele>737</ele>
        <time>2019-06-07T09:21:47Z</time>
      </trkpt>
      <trkpt lat="44.4159" lon="5.66514">
        <ele>737</ele>
        <time>2019-06-07T09:21:48Z</time>
      </trkpt>
      <trkpt lat="44.4159" lon="5.66527">
        <ele>737</ele>
        <time>2019-06-07T09:21:49Z</time>
      </trkpt>
      <trkpt lat="44.4159" lon="5.66538">
        <ele>737</ele>
        <time>2019-06-07T09:21:50Z</time>
      </trkpt>
      <trkpt lat="44.4159" lon="5.6655">
        <ele>737</ele>
        <time>2019-06-07T09:21:51Z</time>
      </trkpt>
      <trkpt lat="44.41591" lon="5.66562">
        <ele>737</ele>
        <time>2019-06-07T09:21:52Z</time>
      </trkpt>
      <trkpt lat="44.41591" lon="5.66574">
        <ele>736</ele>
        <time>2019-06-07T09:21:53Z</time>
      </trkpt>
      <trkpt lat="44.41592" lon="5.66585">
        <ele>736</ele>
        <time>2019-06-07T09:21:54Z</time>
      </trkpt>
      <trkpt lat="44.41592" lon="5.66597">
        <ele>736</ele>
        <time>2019-06-07T09:21:55Z</time>
      </trkpt>
      <trkpt lat="44.41592" lon="5.66609">
        <ele>736</ele>
        <time>2019-06-07T09:21:56Z</time>
      </trkpt>
      <trkpt lat="44.41592" lon="5.66621">
        <ele>736</ele>
        <time>2019-06-07T09:21:57Z</time>
      </trkpt>
      <trkpt lat="44.41592" lon="5.66634">
        <ele>736</ele>
        <time>2019-06-07T09:21:58Z</time>
      </trkpt>
      <trkpt lat="44.41592" lon="5.66645">
        <ele>736</ele>
        <time>2019-06-07T09:21:59Z</time>
      </trkpt>
      <trkpt lat="44.41592" lon="5.66657">
        <ele>735</ele>
        <time>2019-06-07T09:22:00Z</time>
      </trkpt>
      <trkpt lat="44.41592" lon="5.66669">
        <ele>735</ele>
        <time>2019-06-07T09:22:01Z</time>
      </trkpt>
      <trkpt lat="44.41592" lon="5.6668">
        <ele>735</ele>
        <time>2019-06-07T09:22:02Z</time>
      </trkpt>
      <trkpt lat="44.41592" lon="5.66692">
        <ele>735</ele>
        <time>2019-06-07T09:22:03Z</time>
      </trkpt>
      <trkpt lat="44.41592" lon="5.66704">
        <ele>735</ele>
        <time>2019-06-07T09:22:04Z</time>
      </trkpt>
      <trkpt lat="44.41592" lon="5.66715">
        <ele>735</ele>
        <time>2019-06-07T09:22:05Z</time>
      </trkpt>
      <trkpt lat="44.41593" lon="5.66727">
        <ele>735</ele>
        <time>2019-06-07T09:22:06Z</time>
      </trkpt>
      <trkpt lat="44.41595" lon="5.66739">
        <ele>735</ele>
        <time>2019-06-07T09:22:07Z</time>
      </trkpt>
      <trkpt lat="44.41597" lon="5.6675">
        <ele>735</ele>
        <time>2019-06-07T09:22:08Z</time>
      </trkpt>
      <trkpt lat="44.416" lon="5.66762">
        <ele>734</ele>
        <time>2019-06-07T09:22:09Z</time>
      </trkpt>
      <trkpt lat="44.41603" lon="5.66774">
        <ele>734</ele>
        <time>2019-06-07T09:22:10Z</time>
      </trkpt>
      <trkpt lat="44.41606" lon="5.66785">
        <ele>734</ele>
        <time>2019-06-07T09:22:11Z</time>
      </trkpt>
      <trkpt lat="44.41609" lon="5.66796">
        <ele>734</ele>
        <time>2019-06-07T09:22:12Z</time>
      </trkpt>
      <trkpt lat="44.41613" lon="5.66807">
        <ele>733</ele>
        <time>2019-06-07T09:22:13Z</time>
      </trkpt>
      <trkpt lat="44.41616" lon="5.66818">
        <ele>733</ele>
        <time>2019-06-07T09:22:14Z</time>
      </trkpt>
      <trkpt lat="44.4162" lon="5.66829">
        <ele>733</ele>
        <time>2019-06-07T09:22:15Z</time>
      </trkpt>
      <trkpt lat="44.41623" lon="5.6684">
        <ele>733</ele>
        <time>2019-06-07T09:22:16Z</time>
      </trkpt>
      <trkpt lat="44.41627" lon="5.66851">
        <ele>733</ele>
        <time>2019-06-07T09:22:17Z</time>
      </trkpt>
      <trkpt lat="44.41631" lon="5.66861">
        <ele>732</ele>
        <time>2019-06-07T09:22:18Z</time>
      </trkpt>
      <trkpt lat="44.41634" lon="5.66872">
        <ele>732</ele>
        <time>2019-06-07T09:22:19Z</time>
      </trkpt>
      <trkpt lat="44.41637" lon="5.66883">
        <ele>732</ele>
        <time>2019-06-07T09:22:20Z</time>
      </trkpt>
      <trkpt lat="44.41639" lon="5.66894">
        <ele>732</ele>
        <time>2019-06-07T09:22:21Z</time>
      </trkpt>
      <trkpt lat="44.41642" lon="5.66905">
        <ele>732</ele>
        <time>2019-06-07T09:22:22Z</time>
      </trkpt>
      <trkpt lat="44.41644" lon="5.66917">
        <ele>732</ele>
        <time>2019-06-07T09:22:23Z</time>
      </trkpt>
      <trkpt lat="44.41645" lon="5.66929">
        <ele>732</ele>
        <time>2019-06-07T09:22:24Z</time>
      </trkpt>
      <trkpt lat="44.41646" lon="5.66941">
        <ele>732</ele>
        <time>2019-06-07T09:22:25Z</time>
      </trkpt>
      <trkpt lat="44.41645" lon="5.66953">
        <ele>732</ele>
        <time>2019-06-07T09:22:26Z</time>
      </trkpt>
      <trkpt lat="44.41644" lon="5.66966">
        <ele>732</ele>
        <time>2019-06-07T09:22:27Z</time>
      </trkpt>
      <trkpt lat="44.41643" lon="5.66979">
        <ele>732</ele>
        <time>2019-06-07T09:22:28Z</time>
      </trkpt>
      <trkpt lat="44.41641" lon="5.66991">
        <ele>732</ele>
        <time>2019-06-07T09:22:29Z</time>
      </trkpt>
      <trkpt lat="44.41638" lon="5.67002">
        <ele>732</ele>
        <time>2019-06-07T09:22:30Z</time>
      </trkpt>
      <trkpt lat="44.41635" lon="5.67013">
        <ele>732</ele>
        <time>2019-06-07T09:22:31Z</time>
      </trkpt>
      <trkpt lat="44.41631" lon="5.67024">
        <ele>732</ele>
        <time>2019-06-07T09:22:32Z</time>
      </trkpt>
      <trkpt lat="44.41626" lon="5.67034">
        <ele>731</ele>
        <time>2019-06-07T09:22:33Z</time>
      </trkpt>
      <trkpt lat="44.41622" lon="5.67044">
        <ele>731</ele>
        <time>2019-06-07T09:22:34Z</time>
      </trkpt>
      <trkpt lat="44.41618" lon="5.67055">
        <ele>731</ele>
        <time>2019-06-07T09:22:35Z</time>
      </trkpt>
      <trkpt lat="44.41613" lon="5.67065">
        <ele>731</ele>
        <time>2019-06-07T09:22:36Z</time>
      </trkpt>
      <trkpt lat="44.41608" lon="5.67075">
        <ele>731</ele>
        <time>2019-06-07T09:22:37Z</time>
      </trkpt>
      <trkpt lat="44.41604" lon="5.67086">
        <ele>731</ele>
        <time>2019-06-07T09:22:38Z</time>
      </trkpt>
      <trkpt lat="44.416" lon="5.67096">
        <ele>731</ele>
        <time>2019-06-07T09:22:39Z</time>
      </trkpt>
      <trkpt lat="44.41595" lon="5.67106">
        <ele>731</ele>
        <time>2019-06-07T09:22:40Z</time>
      </trkpt>
      <trkpt lat="44.41591" lon="5.67116">
        <ele>731</ele>
        <time>2019-06-07T09:22:41Z</time>
      </trkpt>
      <trkpt lat="44.41587" lon="5.67126">
        <ele>731</ele>
        <time>2019-06-07T09:22:42Z</time>
      </trkpt>
      <trkpt lat="44.41583" lon="5.67137">
        <ele>731</ele>
        <time>2019-06-07T09:22:43Z</time>
      </trkpt>
      <trkpt lat="44.41579" lon="5.67147">
        <ele>731</ele>
        <time>2019-06-07T09:22:44Z</time>
      </trkpt>
      <trkpt lat="44.41575" lon="5.67157">
        <ele>731</ele>
        <time>2019-06-07T09:22:45Z</time>
      </trkpt>
      <trkpt lat="44.41571" lon="5.67167">
        <ele>731</ele>
        <time>2019-06-07T09:22:46Z</time>
      </trkpt>
      <trkpt lat="44.41567" lon="5.67177">
        <ele>731</ele>
        <time>2019-06-07T09:22:47Z</time>
      </trkpt>
      <trkpt lat="44.41563" lon="5.67188">
        <ele>731</ele>
        <time>2019-06-07T09:22:48Z</time>
      </trkpt>
      <trkpt lat="44.41559" lon="5.67198">
        <ele>731</ele>
        <time>2019-06-07T09:22:49Z</time>
      </trkpt>
      <trkpt lat="44.41555" lon="5.67209">
        <ele>731</ele>
        <time>2019-06-07T09:22:50Z</time>
      </trkpt>
      <trkpt lat="44.41552" lon="5.6722">
        <ele>731</ele>
        <time>2019-06-07T09:22:51Z</time>
      </trkpt>
      <trkpt lat="44.41549" lon="5.67231">
        <ele>731</ele>
        <time>2019-06-07T09:22:52Z</time>
      </trkpt>
      <trkpt lat="44.41546" lon="5.67242">
        <ele>731</ele>
        <time>2019-06-07T09:22:53Z</time>
      </trkpt>
      <trkpt lat="44.41544" lon="5.67254">
        <ele>731</ele>
        <time>2019-06-07T09:22:54Z</time>
      </trkpt>
      <trkpt lat="44.41542" lon="5.67265">
        <ele>731</ele>
        <time>2019-06-07T09:22:55Z</time>
      </trkpt>
      <trkpt lat="44.41541" lon="5.67277">
        <ele>730</ele>
        <time>2019-06-07T09:22:56Z</time>
      </trkpt>
      <trkpt lat="44.4154" lon="5.67288">
        <ele>730</ele>
        <time>2019-06-07T09:22:57Z</time>
      </trkpt>
      <trkpt lat="44.41539" lon="5.673">
        <ele>730</ele>
        <time>2019-06-07T09:22:58Z</time>
      </trkpt>
      <trkpt lat="44.41539" lon="5.67312">
        <ele>730</ele>
        <time>2019-06-07T09:22:59Z</time>
      </trkpt>
      <trkpt lat="44.41539" lon="5.67324">
        <ele>729</ele>
        <time>2019-06-07T09:23:00Z</time>
      </trkpt>
      <trkpt lat="44.41539" lon="5.67336">
        <ele>729</ele>
        <time>2019-06-07T09:23:01Z</time>
      </trkpt>
      <trkpt lat="44.4154" lon="5.67349">
        <ele>729</ele>
        <time>2019-06-07T09:23:02Z</time>
      </trkpt>
      <trkpt lat="44.4154" lon="5.67361">
        <ele>729</ele>
        <time>2019-06-07T09:23:03Z</time>
      </trkpt>
      <trkpt lat="44.41541" lon="5.67374">
        <ele>728</ele>
        <time>2019-06-07T09:23:04Z</time>
      </trkpt>
      <trkpt lat="44.41541" lon="5.67387">
        <ele>728</ele>
        <time>2019-06-07T09:23:05Z</time>
      </trkpt>
      <trkpt lat="44.41542" lon="5.674">
        <ele>728</ele>
        <time>2019-06-07T09:23:06Z</time>
      </trkpt>
      <trkpt lat="44.41542" lon="5.67413">
        <ele>728</ele>
        <time>2019-06-07T09:23:07Z</time>
      </trkpt>
      <trkpt lat="44.41541" lon="5.67426">
        <ele>727</ele>
        <time>2019-06-07T09:23:08Z</time>
      </trkpt>
      <trkpt lat="44.4154" lon="5.67439">
        <ele>727</ele>
        <time>2019-06-07T09:23:09Z</time>
      </trkpt>
      <trkpt lat="44.41539" lon="5.67452">
        <ele>727</ele>
        <time>2019-06-07T09:23:10Z</time>
      </trkpt>
      <trkpt lat="44.41536" lon="5.67465">
        <ele>727</ele>
        <time>2019-06-07T09:23:11Z</time>
      </trkpt>
      <trkpt lat="44.41534" lon="5.67477">
        <ele>726</ele>
        <time>2019-06-07T09:23:12Z</time>
      </trkpt>
      <trkpt lat="44.41531" lon="5.6749">
        <ele>726</ele>
        <time>2019-06-07T09:23:13Z</time>
      </trkpt>
      <trkpt lat="44.41528" lon="5.67502">
        <ele>726</ele>
        <time>2019-06-07T09:23:14Z</time>
      </trkpt>
      <trkpt lat="44.41526" lon="5.67515">
        <ele>725</ele>
        <time>2019-06-07T09:23:15Z</time>
      </trkpt>
      <trkpt lat="44.41523" lon="5.67527">
        <ele>725</ele>
        <time>2019-06-07T09:23:16Z</time>
      </trkpt>
      <trkpt lat="44.4152" lon="5.6754">
        <ele>725</ele>
        <time>2019-06-07T09:23:17Z</time>
      </trkpt>
      <trkpt lat="44.41517" lon="5.67552">
        <ele>725</ele>
        <time>2019-06-07T09:23:18Z</time>
      </trkpt>
      <trkpt lat="44.41514" lon="5.67564">
        <ele>725</ele>
        <time>2019-06-07T09:23:19Z</time>
      </trkpt>
      <trkpt lat="44.41511" lon="5.67576">
        <ele>724</ele>
        <time>2019-06-07T09:23:20Z</time>
      </trkpt>
      <trkpt lat="44.41508" lon="5.67588">
        <ele>724</ele>
        <time>2019-06-07T09:23:21Z</time>
      </trkpt>
      <trkpt lat="44.41505" lon="5.676">
        <ele>724</ele>
        <time>2019-06-07T09:23:22Z</time>
      </trkpt>
      <trkpt lat="44.41503" lon="5.67612">
        <ele>724</ele>
        <time>2019-06-07T09:23:23Z</time>
      </trkpt>
      <trkpt lat="44.41501" lon="5.67624">
        <ele>724</ele>
        <time>2019-06-07T09:23:24Z</time>
      </trkpt>
      <trkpt lat="44.415" lon="5.67636">
        <ele>723</ele>
        <time>2019-06-07T09:23:25Z</time>
      </trkpt>
      <trkpt lat="44.41499" lon="5.67648">
        <ele>723</ele>
        <time>2019-06-07T09:23:26Z</time>
      </trkpt>
      <trkpt lat="44.41499" lon="5.6766">
        <ele>723</ele>
        <time>2019-06-07T09:23:27Z</time>
      </trkpt>
      <trkpt lat="44.41499" lon="5.67672">
        <ele>723</ele>
        <time>2019-06-07T09:23:28Z</time>
      </trkpt>
      <trkpt lat="44.41499" lon="5.67685">
        <ele>722</ele>
        <time>2019-06-07T09:23:29Z</time>
      </trkpt>
      <trkpt lat="44.41499" lon="5.67697">
        <ele>722</ele>
        <time>2019-06-07T09:23:30Z</time>
      </trkpt>
      <trkpt lat="44.415" lon="5.67709">
        <ele>722</ele>
        <time>2019-06-07T09:23:31Z</time>
      </trkpt>
      <trkpt lat="44.415" lon="5.67722">
        <ele>721</ele>
        <time>2019-06-07T09:23:32Z</time>
      </trkpt>
      <trkpt lat="44.41501" lon="5.67734">
        <ele>721</ele>
        <time>2019-06-07T09:23:33Z</time>
      </trkpt>
      <trkpt lat="44.41502" lon="5.67747">
        <ele>721</ele>
        <time>2019-06-07T09:23:34Z</time>
      </trkpt>
      <trkpt lat="44.41502" lon="5.6776">
        <ele>721</ele>
        <time>2019-06-07T09:23:35Z</time>
      </trkpt>
      <trkpt lat="44.41501" lon="5.67773">
        <ele>720</ele>
        <time>2019-06-07T09:23:36Z</time>
      </trkpt>
      <trkpt lat="44.415" lon="5.67787">
        <ele>720</ele>
        <time>2019-06-07T09:23:37Z</time>
      </trkpt>
      <trkpt lat="44.41499" lon="5.678">
        <ele>720</ele>
        <time>2019-06-07T09:23:38Z</time>
      </trkpt>
      <trkpt lat="44.41497" lon="5.67813">
        <ele>720</ele>
        <time>2019-06-07T09:23:39Z</time>
      </trkpt>
      <trkpt lat="44.41494" lon="5.67826">
        <ele>720</ele>
        <time>2019-06-07T09:23:40Z</time>
      </trkpt>
      <trkpt lat="44.41491" lon="5.67839">
        <ele>720</ele>
        <time>2019-06-07T09:23:41Z</time>
      </trkpt>
      <trkpt lat="44.41488" lon="5.67851">
        <ele>719</ele>
        <time>2019-06-07T09:23:42Z</time>
      </trkpt>
      <trkpt lat="44.41485" lon="5.67864">
        <ele>719</ele>
        <time>2019-06-07T09:23:43Z</time>
      </trkpt>
      <trkpt lat="44.41482" lon="5.67876">
        <ele>719</ele>
        <time>2019-06-07T09:23:44Z</time>
      </trkpt>
      <trkpt lat="44.41479" lon="5.67888">
        <ele>719</ele>
        <time>2019-06-07T09:23:45Z</time>
      </trkpt>
      <trkpt lat="44.41476" lon="5.679">
        <ele>719</ele>
        <time>2019-06-07T09:23:46Z</time>
      </trkpt>
      <trkpt lat="44.41473" lon="5.67912">
        <ele>719</ele>
        <time>2019-06-07T09:23:47Z</time>
      </trkpt>
      <trkpt lat="44.4147" lon="5.67924">
        <ele>718</ele>
        <time>2019-06-07T09:23:48Z</time>
      </trkpt>
      <trkpt lat="44.41467" lon="5.67936">
        <ele>718</ele>
        <time>2019-06-07T09:23:49Z</time>
      </trkpt>
      <trkpt lat="44.41465" lon="5.67947">
        <ele>718</ele>
        <time>2019-06-07T09:23:50Z</time>
      </trkpt>
      <trkpt lat="44.41462" lon="5.67959">
        <ele>718</ele>
        <time>2019-06-07T09:23:51Z</time>
      </trkpt>
      <trkpt lat="44.4146" lon="5.67972">
        <ele>718</ele>
        <time>2019-06-07T09:23:52Z</time>
      </trkpt>
      <trkpt lat="44.41458" lon="5.67984">
        <ele>717</ele>
        <time>2019-06-07T09:23:53Z</time>
      </trkpt>
      <trkpt lat="44.41457" lon="5.67996">
        <ele>717</ele>
        <time>2019-06-07T09:23:54Z</time>
      </trkpt>
      <trkpt lat="44.41457" lon="5.68009">
        <ele>717</ele>
        <time>2019-06-07T09:23:55Z</time>
      </trkpt>
      <trkpt lat="44.41457" lon="5.68021">
        <ele>717</ele>
        <time>2019-06-07T09:23:56Z</time>
      </trkpt>
      <trkpt lat="44.41458" lon="5.68033">
        <ele>717</ele>
        <time>2019-06-07T09:23:57Z</time>
      </trkpt>
      <trkpt lat="44.4146" lon="5.68045">
        <ele>717</ele>
        <time>2019-06-07T09:23:58Z</time>
      </trkpt>
      <trkpt lat="44.41461" lon="5.68057">
        <ele>717</ele>
        <time>2019-06-07T09:23:59Z</time>
      </trkpt>
      <trkpt lat="44.41462" lon="5.68069">
        <ele>716</ele>
        <time>2019-06-07T09:24:00Z</time>
      </trkpt>
      <trkpt lat="44.41462" lon="5.68081">
        <ele>716</ele>
        <time>2019-06-07T09:24:01Z</time>
      </trkpt>
      <trkpt lat="44.41463" lon="5.68093">
        <ele>716</ele>
        <time>2019-06-07T09:24:02Z</time>
      </trkpt>
      <trkpt lat="44.41463" lon="5.68106">
        <ele>716</ele>
        <time>2019-06-07T09:24:03Z</time>
      </trkpt>
      <trkpt lat="44.41462" lon="5.68118">
        <ele>716</ele>
        <time>2019-06-07T09:24:04Z</time>
      </trkpt>
      <trkpt lat="44.41461" lon="5.68129">
        <ele>716</ele>
        <time>2019-06-07T09:24:05Z</time>
      </trkpt>
      <trkpt lat="44.41459" lon="5.68141">
        <ele>716</ele>
        <time>2019-06-07T09:24:06Z</time>
      </trkpt>
      <trkpt lat="44.41457" lon="5.68153">
        <ele>716</ele>
        <time>2019-06-07T09:24:07Z</time>
      </trkpt>
      <trkpt lat="44.41455" lon="5.68164">
        <ele>716</ele>
        <time>2019-06-07T09:24:08Z</time>
      </trkpt>
      <trkpt lat="44.41453" lon="5.68176">
        <ele>716</ele>
        <time>2019-06-07T09:24:09Z</time>
      </trkpt>
      <trkpt lat="44.41451" lon="5.68187">
        <ele>716</ele>
        <time>2019-06-07T09:24:10Z</time>
      </trkpt>
      <trkpt lat="44.4145" lon="5.68198">
        <ele>716</ele>
        <time>2019-06-07T09:24:11Z</time>
      </trkpt>
      <trkpt lat="44.4145" lon="5.68209">
        <ele>716</ele>
        <time>2019-06-07T09:24:12Z</time>
      </trkpt>
      <trkpt lat="44.41451" lon="5.6822">
        <ele>716</ele>
        <time>2019-06-07T09:24:13Z</time>
      </trkpt>
      <trkpt lat="44.41453" lon="5.68231">
        <ele>716</ele>
        <time>2019-06-07T09:24:14Z</time>
      </trkpt>
      <trkpt lat="44.41455" lon="5.68241">
        <ele>716</ele>
        <time>2019-06-07T09:24:15Z</time>
      </trkpt>
      <trkpt lat="44.41458" lon="5.68251">
        <ele>716</ele>
        <time>2019-06-07T09:24:16Z</time>
      </trkpt>
      <trkpt lat="44.4146" lon="5.68261">
        <ele>716</ele>
        <time>2019-06-07T09:24:17Z</time>
      </trkpt>
      <trkpt lat="44.41463" lon="5.68272">
        <ele>716</ele>
        <time>2019-06-07T09:24:18Z</time>
      </trkpt>
      <trkpt lat="44.41465" lon="5.68282">
        <ele>716</ele>
        <time>2019-06-07T09:24:19Z</time>
      </trkpt>
      <trkpt lat="44.41468" lon="5.68292">
        <ele>716</ele>
        <time>2019-06-07T09:24:20Z</time>
      </trkpt>
      <trkpt lat="44.4147" lon="5.68302">
        <ele>716</ele>
        <time>2019-06-07T09:24:21Z</time>
      </trkpt>
      <trkpt lat="44.41473" lon="5.68312">
        <ele>716</ele>
        <time>2019-06-07T09:24:22Z</time>
      </trkpt>
      <trkpt lat="44.41476" lon="5.68322">
        <ele>716</ele>
        <time>2019-06-07T09:24:23Z</time>
      </trkpt>
      <trkpt lat="44.41479" lon="5.68332">
        <ele>716</ele>
        <time>2019-06-07T09:24:24Z</time>
      </trkpt>
      <trkpt lat="44.41481" lon="5.68341">
        <ele>716</ele>
        <time>2019-06-07T09:24:25Z</time>
      </trkpt>
      <trkpt lat="44.41484" lon="5.68351">
        <ele>716</ele>
        <time>2019-06-07T09:24:26Z</time>
      </trkpt>
      <trkpt lat="44.41487" lon="5.68361">
        <ele>716</ele>
        <time>2019-06-07T09:24:27Z</time>
      </trkpt>
      <trkpt lat="44.41489" lon="5.6837">
        <ele>716</ele>
        <time>2019-06-07T09:24:28Z</time>
      </trkpt>
      <trkpt lat="44.41492" lon="5.68379">
        <ele>716</ele>
        <time>2019-06-07T09:24:29Z</time>
      </trkpt>
      <trkpt lat="44.41495" lon="5.68388">
        <ele>716</ele>
        <time>2019-06-07T09:24:30Z</time>
      </trkpt>
      <trkpt lat="44.41497" lon="5.68397">
        <ele>716</ele>
        <time>2019-06-07T09:24:31Z</time>
      </trkpt>
      <trkpt lat="44.415" lon="5.68406">
        <ele>716</ele>
        <time>2019-06-07T09:24:32Z</time>
      </trkpt>
      <trkpt lat="44.41504" lon="5.68415">
        <ele>716</ele>
        <time>2019-06-07T09:24:33Z</time>
      </trkpt>
      <trkpt lat="44.41506" lon="5.68424">
        <ele>716</ele>
        <time>2019-06-07T09:24:34Z</time>
      </trkpt>
      <trkpt lat="44.41509" lon="5.68433">
        <ele>716</ele>
        <time>2019-06-07T09:24:35Z</time>
      </trkpt>
      <trkpt lat="44.41511" lon="5.68442">
        <ele>716</ele>
        <time>2019-06-07T09:24:36Z</time>
      </trkpt>
      <trkpt lat="44.41513" lon="5.68451">
        <ele>716</ele>
        <time>2019-06-07T09:24:37Z</time>
      </trkpt>
      <trkpt lat="44.41516" lon="5.68461">
        <ele>716</ele>
        <time>2019-06-07T09:24:38Z</time>
      </trkpt>
      <trkpt lat="44.4152" lon="5.6847">
        <ele>716</ele>
        <time>2019-06-07T09:24:39Z</time>
      </trkpt>
      <trkpt lat="44.41523" lon="5.68479">
        <ele>716</ele>
        <time>2019-06-07T09:24:40Z</time>
      </trkpt>
      <trkpt lat="44.41527" lon="5.68488">
        <ele>716</ele>
        <time>2019-06-07T09:24:41Z</time>
      </trkpt>
      <trkpt lat="44.41532" lon="5.68497">
        <ele>716</ele>
        <time>2019-06-07T09:24:42Z</time>
      </trkpt>
      <trkpt lat="44.41537" lon="5.68506">
        <ele>716</ele>
        <time>2019-06-07T09:24:43Z</time>
      </trkpt>
      <trkpt lat="44.41542" lon="5.68516">
        <ele>716</ele>
        <time>2019-06-07T09:24:44Z</time>
      </trkpt>
      <trkpt lat="44.41546" lon="5.68525">
        <ele>716</ele>
        <time>2019-06-07T09:24:45Z</time>
      </trkpt>
      <trkpt lat="44.41551" lon="5.68535">
        <ele>716</ele>
        <time>2019-06-07T09:24:46Z</time>
      </trkpt>
      <trkpt lat="44.41557" lon="5.68544">
        <ele>716</ele>
        <time>2019-06-07T09:24:47Z</time>
      </trkpt>
      <trkpt lat="44.41562" lon="5.68553">
        <ele>716</ele>
        <time>2019-06-07T09:24:48Z</time>
      </trkpt>
      <trkpt lat="44.41566" lon="5.68563">
        <ele>716</ele>
        <time>2019-06-07T09:24:49Z</time>
      </trkpt>
      <trkpt lat="44.41572" lon="5.68573">
        <ele>715</ele>
        <time>2019-06-07T09:24:50Z</time>
      </trkpt>
      <trkpt lat="44.41577" lon="5.68582">
        <ele>715</ele>
        <time>2019-06-07T09:24:51Z</time>
      </trkpt>
      <trkpt lat="44.41582" lon="5.68592">
        <ele>715</ele>
        <time>2019-06-07T09:24:52Z</time>
      </trkpt>
      <trkpt lat="44.41587" lon="5.68602">
        <ele>714</ele>
        <time>2019-06-07T09:24:53Z</time>
      </trkpt>
      <trkpt lat="44.41591" lon="5.68613">
        <ele>714</ele>
        <time>2019-06-07T09:24:54Z</time>
      </trkpt>
      <trkpt lat="44.41595" lon="5.68624">
        <ele>714</ele>
        <time>2019-06-07T09:24:55Z</time>
      </trkpt>
      <trkpt lat="44.41598" lon="5.68635">
        <ele>714</ele>
        <time>2019-06-07T09:24:56Z</time>
      </trkpt>
      <trkpt lat="44.416" lon="5.68647">
        <ele>713</ele>
        <time>2019-06-07T09:24:57Z</time>
      </trkpt>
      <trkpt lat="44.41602" lon="5.68659">
        <ele>713</ele>
        <time>2019-06-07T09:24:58Z</time>
      </trkpt>
      <trkpt lat="44.41604" lon="5.68671">
        <ele>713</ele>
        <time>2019-06-07T09:24:59Z</time>
      </trkpt>
      <trkpt lat="44.41605" lon="5.68684">
        <ele>713</ele>
        <time>2019-06-07T09:25:00Z</time>
      </trkpt>
      <trkpt lat="44.41605" lon="5.68696">
        <ele>712</ele>
        <time>2019-06-07T09:25:01Z</time>
      </trkpt>
      <trkpt lat="44.41605" lon="5.68709">
        <ele>712</ele>
        <time>2019-06-07T09:25:02Z</time>
      </trkpt>
      <trkpt lat="44.41605" lon="5.68721">
        <ele>712</ele>
        <time>2019-06-07T09:25:03Z</time>
      </trkpt>
      <trkpt lat="44.41606" lon="5.68733">
        <ele>712</ele>
        <time>2019-06-07T09:25:04Z</time>
      </trkpt>
      <trkpt lat="44.41607" lon="5.68745">
        <ele>711</ele>
        <time>2019-06-07T09:25:05Z</time>
      </trkpt>
      <trkpt lat="44.41608" lon="5.68756">
        <ele>711</ele>
        <time>2019-06-07T09:25:06Z</time>
      </trkpt>
      <trkpt lat="44.4161" lon="5.68768">
        <ele>711</ele>
        <time>2019-06-07T09:25:07Z</time>
      </trkpt>
      <trkpt lat="44.41612" lon="5.6878">
        <ele>711</ele>
        <time>2019-06-07T09:25:08Z</time>
      </trkpt>
      <trkpt lat="44.41615" lon="5.68791">
        <ele>711</ele>
        <time>2019-06-07T09:25:09Z</time>
      </trkpt>
      <trkpt lat="44.41618" lon="5.68801">
        <ele>710</ele>
        <time>2019-06-07T09:25:10Z</time>
      </trkpt>
      <trkpt lat="44.41621" lon="5.68812">
        <ele>710</ele>
        <time>2019-06-07T09:25:11Z</time>
      </trkpt>
      <trkpt lat="44.41624" lon="5.68822">
        <ele>710</ele>
        <time>2019-06-07T09:25:12Z</time>
      </trkpt>
      <trkpt lat="44.41628" lon="5.68833">
        <ele>710</ele>
        <time>2019-06-07T09:25:13Z</time>
      </trkpt>
      <trkpt lat="44.41631" lon="5.68843">
        <ele>709</ele>
        <time>2019-06-07T09:25:14Z</time>
      </trkpt>
      <trkpt lat="44.41634" lon="5.68854">
        <ele>709</ele>
        <time>2019-06-07T09:25:15Z</time>
      </trkpt>
      <trkpt lat="44.41637" lon="5.68864">
        <ele>709</ele>
        <time>2019-06-07T09:25:16Z</time>
      </trkpt>
      <trkpt lat="44.4164" lon="5.68875">
        <ele>708</ele>
        <time>2019-06-07T09:25:17Z</time>
      </trkpt>
      <trkpt lat="44.41642" lon="5.68886">
        <ele>708</ele>
        <time>2019-06-07T09:25:18Z</time>
      </trkpt>
      <trkpt lat="44.41644" lon="5.68896">
        <ele>708</ele>
        <time>2019-06-07T09:25:19Z</time>
      </trkpt>
      <trkpt lat="44.41646" lon="5.68907">
        <ele>708</ele>
        <time>2019-06-07T09:25:20Z</time>
      </trkpt>
      <trkpt lat="44.41647" lon="5.68918">
        <ele>708</ele>
        <time>2019-06-07T09:25:21Z</time>
      </trkpt>
      <trkpt lat="44.41649" lon="5.68929">
        <ele>707</ele>
        <time>2019-06-07T09:25:22Z</time>
      </trkpt>
      <trkpt lat="44.41651" lon="5.6894">
        <ele>707</ele>
        <time>2019-06-07T09:25:23Z</time>
      </trkpt>
      <trkpt lat="44.41653" lon="5.68951">
        <ele>707</ele>
        <time>2019-06-07T09:25:24Z</time>
      </trkpt>
      <trkpt lat="44.41655" lon="5.68962">
        <ele>707</ele>
        <time>2019-06-07T09:25:25Z</time>
      </trkpt>
      <trkpt lat="44.41657" lon="5.68972">
        <ele>707</ele>
        <time>2019-06-07T09:25:26Z</time>
      </trkpt>
      <trkpt lat="44.41659" lon="5.68983">
        <ele>706</ele>
        <time>2019-06-07T09:25:27Z</time>
      </trkpt>
      <trkpt lat="44.41662" lon="5.68994">
        <ele>706</ele>
        <time>2019-06-07T09:25:28Z</time>
      </trkpt>
      <trkpt lat="44.41665" lon="5.69004">
        <ele>706</ele>
        <time>2019-06-07T09:25:29Z</time>
      </trkpt>
      <trkpt lat="44.41668" lon="5.69014">
        <ele>706</ele>
        <time>2019-06-07T09:25:30Z</time>
      </trkpt>
      <trkpt lat="44.41671" lon="5.69025">
        <ele>705</ele>
        <time>2019-06-07T09:25:31Z</time>
      </trkpt>
      <trkpt lat="44.41675" lon="5.69035">
        <ele>705</ele>
        <time>2019-06-07T09:25:32Z</time>
      </trkpt>
      <trkpt lat="44.41678" lon="5.69045">
        <ele>705</ele>
        <time>2019-06-07T09:25:33Z</time>
      </trkpt>
      <trkpt lat="44.41682" lon="5.69055">
        <ele>705</ele>
        <time>2019-06-07T09:25:34Z</time>
      </trkpt>
      <trkpt lat="44.41685" lon="5.69066">
        <ele>705</ele>
        <time>2019-06-07T09:25:35Z</time>
      </trkpt>
      <trkpt lat="44.41687" lon="5.69077">
        <ele>705</ele>
        <time>2019-06-07T09:25:36Z</time>
      </trkpt>
      <trkpt lat="44.4169" lon="5.69088">
        <ele>704</ele>
        <time>2019-06-07T09:25:37Z</time>
      </trkpt>
      <trkpt lat="44.41692" lon="5.691">
        <ele>704</ele>
        <time>2019-06-07T09:25:38Z</time>
      </trkpt>
      <trkpt lat="44.41693" lon="5.69112">
        <ele>704</ele>
        <time>2019-06-07T09:25:39Z</time>
      </trkpt>
      <trkpt lat="44.41694" lon="5.69124">
        <ele>704</ele>
        <time>2019-06-07T09:25:40Z</time>
      </trkpt>
      <trkpt lat="44.41694" lon="5.69137">
        <ele>703</ele>
        <time>2019-06-07T09:25:41Z</time>
      </trkpt>
      <trkpt lat="44.41693" lon="5.69149">
        <ele>703</ele>
        <time>2019-06-07T09:25:42Z</time>
      </trkpt>
      <trkpt lat="44.41691" lon="5.69161">
        <ele>703</ele>
        <time>2019-06-07T09:25:43Z</time>
      </trkpt>
      <trkpt lat="44.41688" lon="5.69173">
        <ele>702</ele>
        <time>2019-06-07T09:25:44Z</time>
      </trkpt>
      <trkpt lat="44.41685" lon="5.69184">
        <ele>702</ele>
        <time>2019-06-07T09:25:45Z</time>
      </trkpt>
      <trkpt lat="44.41682" lon="5.69196">
        <ele>702</ele>
        <time>2019-06-07T09:25:46Z</time>
      </trkpt>
      <trkpt lat="44.41678" lon="5.69207">
        <ele>702</ele>
        <time>2019-06-07T09:25:47Z</time>
      </trkpt>
      <trkpt lat="44.41675" lon="5.69218">
        <ele>702</ele>
        <time>2019-06-07T09:25:48Z</time>
      </trkpt>
      <trkpt lat="44.41671" lon="5.69229">
        <ele>702</ele>
        <time>2019-06-07T09:25:49Z</time>
      </trkpt>
      <trkpt lat="44.41668" lon="5.69239">
        <ele>702</ele>
        <time>2019-06-07T09:25:50Z</time>
      </trkpt>
      <trkpt lat="44.41666" lon="5.69249">
        <ele>702</ele>
        <time>2019-06-07T09:25:51Z</time>
      </trkpt>
      <trkpt lat="44.41665" lon="5.69258">
        <ele>702</ele>
        <time>2019-06-07T09:25:52Z</time>
      </trkpt>
      <trkpt lat="44.41666" lon="5.69268">
        <ele>702</ele>
        <time>2019-06-07T09:25:53Z</time>
      </trkpt>
      <trkpt lat="44.41669" lon="5.69277">
        <ele>702</ele>
        <time>2019-06-07T09:25:54Z</time>
      </trkpt>
      <trkpt lat="44.41672" lon="5.69284">
        <ele>702</ele>
        <time>2019-06-07T09:25:55Z</time>
      </trkpt>
      <trkpt lat="44.41677" lon="5.69291">
        <ele>701</ele>
        <time>2019-06-07T09:25:56Z</time>
      </trkpt>
      <trkpt lat="44.41684" lon="5.69295">
        <ele>701</ele>
        <time>2019-06-07T09:25:57Z</time>
      </trkpt>
      <trkpt lat="44.41692" lon="5.69298">
        <ele>701</ele>
        <time>2019-06-07T09:25:58Z</time>
      </trkpt>
      <trkpt lat="44.417" lon="5.693">
        <ele>700</ele>
        <time>2019-06-07T09:25:59Z</time>
      </trkpt>
      <trkpt lat="44.41708" lon="5.69302">
        <ele>700</ele>
        <time>2019-06-07T09:26:00Z</time>
      </trkpt>
      <trkpt lat="44.41716" lon="5.69304">
        <ele>700</ele>
        <time>2019-06-07T09:26:01Z</time>
      </trkpt>
      <trkpt lat="44.41723" lon="5.69307">
        <ele>699</ele>
        <time>2019-06-07T09:26:02Z</time>
      </trkpt>
      <trkpt lat="44.4173" lon="5.69309">
        <ele>699</ele>
        <time>2019-06-07T09:26:03Z</time>
      </trkpt>
      <trkpt lat="44.41737" lon="5.69313">
        <ele>699</ele>
        <time>2019-06-07T09:26:04Z</time>
      </trkpt>
      <trkpt lat="44.41745" lon="5.69317">
        <ele>699</ele>
        <time>2019-06-07T09:26:05Z</time>
      </trkpt>
      <trkpt lat="44.41752" lon="5.69321">
        <ele>699</ele>
        <time>2019-06-07T09:26:06Z</time>
      </trkpt>
      <trkpt lat="44.41759" lon="5.69325">
        <ele>699</ele>
        <time>2019-06-07T09:26:07Z</time>
      </trkpt>
      <trkpt lat="44.41766" lon="5.69329">
        <ele>699</ele>
        <time>2019-06-07T09:26:08Z</time>
      </trkpt>
      <trkpt lat="44.41774" lon="5.69332">
        <ele>699</ele>
        <time>2019-06-07T09:26:09Z</time>
      </trkpt>
      <trkpt lat="44.41781" lon="5.69335">
        <ele>699</ele>
        <time>2019-06-07T09:26:10Z</time>
      </trkpt>
      <trkpt lat="44.41787" lon="5.6934">
        <ele>699</ele>
        <time>2019-06-07T09:26:11Z</time>
      </trkpt>
      <trkpt lat="44.41794" lon="5.69344">
        <ele>699</ele>
        <time>2019-06-07T09:26:12Z</time>
      </trkpt>
      <trkpt lat="44.41801" lon="5.6935">
        <ele>698</ele>
        <time>2019-06-07T09:26:13Z</time>
      </trkpt>
      <trkpt lat="44.41808" lon="5.69354">
        <ele>698</ele>
        <time>2019-06-07T09:26:14Z</time>
      </trkpt>
      <trkpt lat="44.41815" lon="5.69359">
        <ele>698</ele>
        <time>2019-06-07T09:26:15Z</time>
      </trkpt>
      <trkpt lat="44.41822" lon="5.69365">
        <ele>698</ele>
        <time>2019-06-07T09:26:16Z</time>
      </trkpt>
      <trkpt lat="44.41829" lon="5.6937">
        <ele>698</ele>
        <time>2019-06-07T09:26:17Z</time>
      </trkpt>
      <trkpt lat="44.41835" lon="5.69375">
        <ele>698</ele>
        <time>2019-06-07T09:26:18Z</time>
      </trkpt>
      <trkpt lat="44.41842" lon="5.69379">
        <ele>698</ele>
        <time>2019-06-07T09:26:19Z</time>
      </trkpt>
      <trkpt lat="44.41848" lon="5.69384">
        <ele>698</ele>
        <time>2019-06-07T09:26:20Z</time>
      </trkpt>
      <trkpt lat="44.41855" lon="5.69389">
        <ele>698</ele>
        <time>2019-06-07T09:26:21Z</time>
      </trkpt>
      <trkpt lat="44.41861" lon="5.69394">
        <ele>698</ele>
        <time>2019-06-07T09:26:22Z</time>
      </trkpt>
      <trkpt lat="44.41867" lon="5.69398">
        <ele>698</ele>
        <time>2019-06-07T09:26:23Z</time>
      </trkpt>
      <trkpt lat="44.41874" lon="5.69401">
        <ele>698</ele>
        <time>2019-06-07T09:26:24Z</time>
      </trkpt>
      <trkpt lat="44.4188" lon="5.69399">
        <ele>697</ele>
        <time>2019-06-07T09:26:25Z</time>
      </trkpt>
      <trkpt lat="44.41886" lon="5.69395">
        <ele>697</ele>
        <time>2019-06-07T09:26:26Z</time>
      </trkpt>
      <trkpt lat="44.41891" lon="5.69389">
        <ele>697</ele>
        <time>2019-06-07T09:26:27Z</time>
      </trkpt>
      <trkpt lat="44.41896" lon="5.69383">
        <ele>697</ele>
        <time>2019-06-07T09:26:28Z</time>
      </trkpt>
      <trkpt lat="44.41901" lon="5.69378">
        <ele>697</ele>
        <time>2019-06-07T09:26:29Z</time>
      </trkpt>
      <trkpt lat="44.41907" lon="5.69379">
        <ele>697</ele>
        <time>2019-06-07T09:26:30Z</time>
      </trkpt>
      <trkpt lat="44.41912" lon="5.69383">
        <ele>697</ele>
        <time>2019-06-07T09:26:31Z</time>
      </trkpt>
      <trkpt lat="44.41917" lon="5.6939">
        <ele>697</ele>
        <time>2019-06-07T09:26:32Z</time>
      </trkpt>
      <trkpt lat="44.41922" lon="5.69397">
        <ele>697</ele>
        <time>2019-06-07T09:26:33Z</time>
      </trkpt>
      <trkpt lat="44.41927" lon="5.69404">
        <ele>697</ele>
        <time>2019-06-07T09:26:34Z</time>
      </trkpt>
      <trkpt lat="44.41932" lon="5.69411">
        <ele>696</ele>
        <time>2019-06-07T09:26:35Z</time>
      </trkpt>
      <trkpt lat="44.41937" lon="5.69418">
        <ele>696</ele>
        <time>2019-06-07T09:26:36Z</time>
      </trkpt>
      <trkpt lat="44.41942" lon="5.69424">
        <ele>695</ele>
        <time>2019-06-07T09:26:37Z</time>
      </trkpt>
      <trkpt lat="44.41948" lon="5.69432">
        <ele>695</ele>
        <time>2019-06-07T09:26:38Z</time>
      </trkpt>
      <trkpt lat="44.41953" lon="5.69439">
        <ele>695</ele>
        <time>2019-06-07T09:26:39Z</time>
      </trkpt>
      <trkpt lat="44.41958" lon="5.69447">
        <ele>694</ele>
        <time>2019-06-07T09:26:40Z</time>
      </trkpt>
      <trkpt lat="44.41964" lon="5.69455">
        <ele>694</ele>
        <time>2019-06-07T09:26:41Z</time>
      </trkpt>
      <trkpt lat="44.41968" lon="5.69463">
        <ele>693</ele>
        <time>2019-06-07T09:26:42Z</time>
      </trkpt>
      <trkpt lat="44.41972" lon="5.69471">
        <ele>693</ele>
        <time>2019-06-07T09:26:43Z</time>
      </trkpt>
      <trkpt lat="44.41977" lon="5.69479">
        <ele>693</ele>
        <time>2019-06-07T09:26:44Z</time>
      </trkpt>
      <trkpt lat="44.41981" lon="5.69487">
        <ele>693</ele>
        <time>2019-06-07T09:26:45Z</time>
      </trkpt>
      <trkpt lat="44.41985" lon="5.69495">
        <ele>693</ele>
        <time>2019-06-07T09:26:46Z</time>
      </trkpt>
      <trkpt lat="44.41988" lon="5.69503">
        <ele>693</ele>
        <time>2019-06-07T09:26:47Z</time>
      </trkpt>
      <trkpt lat="44.41993" lon="5.69512">
        <ele>693</ele>
        <time>2019-06-07T09:26:48Z</time>
      </trkpt>
      <trkpt lat="44.41997" lon="5.69519">
        <ele>693</ele>
        <time>2019-06-07T09:26:49Z</time>
      </trkpt>
      <trkpt lat="44.42001" lon="5.69527">
        <ele>692</ele>
        <time>2019-06-07T09:26:50Z</time>
      </trkpt>
      <trkpt lat="44.42006" lon="5.69535">
        <ele>692</ele>
        <time>2019-06-07T09:26:51Z</time>
      </trkpt>
      <trkpt lat="44.42009" lon="5.69544">
        <ele>691</ele>
        <time>2019-06-07T09:26:52Z</time>
      </trkpt>
      <trkpt lat="44.42013" lon="5.69554">
        <ele>691</ele>
        <time>2019-06-07T09:26:53Z</time>
      </trkpt>
      <trkpt lat="44.42017" lon="5.69563">
        <ele>690</ele>
        <time>2019-06-07T09:26:54Z</time>
      </trkpt>
      <trkpt lat="44.4202" lon="5.69573">
        <ele>690</ele>
        <time>2019-06-07T09:26:55Z</time>
      </trkpt>
      <trkpt lat="44.42023" lon="5.69583">
        <ele>690</ele>
        <time>2019-06-07T09:26:56Z</time>
      </trkpt>
      <trkpt lat="44.42027" lon="5.69593">
        <ele>689</ele>
        <time>2019-06-07T09:26:57Z</time>
      </trkpt>
      <trkpt lat="44.4203" lon="5.69604">
        <ele>689</ele>
        <time>2019-06-07T09:26:58Z</time>
      </trkpt>
      <trkpt lat="44.42034" lon="5.69615">
        <ele>689</ele>
        <time>2019-06-07T09:26:59Z</time>
      </trkpt>
      <trkpt lat="44.42035" lon="5.69627">
        <ele>688</ele>
        <time>2019-06-07T09:27:00Z</time>
      </trkpt>
      <trkpt lat="44.42036" lon="5.69638">
        <ele>688</ele>
        <time>2019-06-07T09:27:01Z</time>
      </trkpt>
      <trkpt lat="44.42036" lon="5.69649">
        <ele>687</ele>
        <time>2019-06-07T09:27:02Z</time>
      </trkpt>
      <trkpt lat="44.42037" lon="5.69661">
        <ele>686</ele>
        <time>2019-06-07T09:27:03Z</time>
      </trkpt>
      <trkpt lat="44.42036" lon="5.69672">
        <ele>686</ele>
        <time>2019-06-07T09:27:04Z</time>
      </trkpt>
      <trkpt lat="44.42037" lon="5.69684">
        <ele>685</ele>
        <time>2019-06-07T09:27:05Z</time>
      </trkpt>
      <trkpt lat="44.42037" lon="5.69696">
        <ele>684</ele>
        <time>2019-06-07T09:27:06Z</time>
      </trkpt>
      <trkpt lat="44.42037" lon="5.69707">
        <ele>683</ele>
        <time>2019-06-07T09:27:07Z</time>
      </trkpt>
      <trkpt lat="44.42038" lon="5.69719">
        <ele>682</ele>
        <time>2019-06-07T09:27:08Z</time>
      </trkpt>
      <trkpt lat="44.42038" lon="5.69731">
        <ele>682</ele>
        <time>2019-06-07T09:27:09Z</time>
      </trkpt>
      <trkpt lat="44.42038" lon="5.69743">
        <ele>682</ele>
        <time>2019-06-07T09:27:10Z</time>
      </trkpt>
      <trkpt lat="44.42039" lon="5.69754">
        <ele>681</ele>
        <time>2019-06-07T09:27:11Z</time>
      </trkpt>
      <trkpt lat="44.4204" lon="5.69765">
        <ele>681</ele>
        <time>2019-06-07T09:27:12Z</time>
      </trkpt>
      <trkpt lat="44.42041" lon="5.69775">
        <ele>681</ele>
        <time>2019-06-07T09:27:13Z</time>
      </trkpt>
      <trkpt lat="44.42044" lon="5.69785">
        <ele>681</ele>
        <time>2019-06-07T09:27:14Z</time>
      </trkpt>
      <trkpt lat="44.42047" lon="5.69795">
        <ele>680</ele>
        <time>2019-06-07T09:27:15Z</time>
      </trkpt>
      <trkpt lat="44.4205" lon="5.69804">
        <ele>680</ele>
        <time>2019-06-07T09:27:16Z</time>
      </trkpt>
      <trkpt lat="44.42053" lon="5.69813">
        <ele>680</ele>
        <time>2019-06-07T09:27:17Z</time>
      </trkpt>
      <trkpt lat="44.42057" lon="5.69821">
        <ele>680</ele>
        <time>2019-06-07T09:27:18Z</time>
      </trkpt>
      <trkpt lat="44.42061" lon="5.69829">
        <ele>680</ele>
        <time>2019-06-07T09:27:19Z</time>
      </trkpt>
      <trkpt lat="44.42066" lon="5.69836">
        <ele>680</ele>
        <time>2019-06-07T09:27:20Z</time>
      </trkpt>
      <trkpt lat="44.42071" lon="5.69843">
        <ele>680</ele>
        <time>2019-06-07T09:27:21Z</time>
      </trkpt>
      <trkpt lat="44.42075" lon="5.6985">
        <ele>680</ele>
        <time>2019-06-07T09:27:22Z</time>
      </trkpt>
      <trkpt lat="44.4208" lon="5.69858">
        <ele>680</ele>
        <time>2019-06-07T09:27:23Z</time>
      </trkpt>
      <trkpt lat="44.42083" lon="5.69866">
        <ele>680</ele>
        <time>2019-06-07T09:27:24Z</time>
      </trkpt>
      <trkpt lat="44.42087" lon="5.69874">
        <ele>680</ele>
        <time>2019-06-07T09:27:25Z</time>
      </trkpt>
      <trkpt lat="44.42089" lon="5.69882">
        <ele>680</ele>
        <time>2019-06-07T09:27:26Z</time>
      </trkpt>
      <trkpt lat="44.42091" lon="5.69891">
        <ele>680</ele>
        <time>2019-06-07T09:27:27Z</time>
      </trkpt>
      <trkpt lat="44.42093" lon="5.699">
        <ele>680</ele>
        <time>2019-06-07T09:27:28Z</time>
      </trkpt>
      <trkpt lat="44.42094" lon="5.69908">
        <ele>680</ele>
        <time>2019-06-07T09:27:29Z</time>
      </trkpt>
      <trkpt lat="44.42095" lon="5.69917">
        <ele>680</ele>
        <time>2019-06-07T09:27:30Z</time>
      </trkpt>
      <trkpt lat="44.42096" lon="5.69926">
        <ele>680</ele>
        <time>2019-06-07T09:27:31Z</time>
      </trkpt>
      <trkpt lat="44.42096" lon="5.69935">
        <ele>680</ele>
        <time>2019-06-07T09:27:32Z</time>
      </trkpt>
      <trkpt lat="44.42096" lon="5.69943">
        <ele>680</ele>
        <time>2019-06-07T09:27:33Z</time>
      </trkpt>
      <trkpt lat="44.42097" lon="5.69952">
        <ele>680</ele>
        <time>2019-06-07T09:27:34Z</time>
      </trkpt>
      <trkpt lat="44.42097" lon="5.69961">
        <ele>680</ele>
        <time>2019-06-07T09:27:35Z</time>
      </trkpt>
      <trkpt lat="44.42097" lon="5.6997">
        <ele>680</ele>
        <time>2019-06-07T09:27:36Z</time>
      </trkpt>
      <trkpt lat="44.42097" lon="5.69978">
        <ele>680</ele>
        <time>2019-06-07T09:27:37Z</time>
      </trkpt>
      <trkpt lat="44.42098" lon="5.69987">
        <ele>680</ele>
        <time>2019-06-07T09:27:38Z</time>
      </trkpt>
      <trkpt lat="44.42098" lon="5.69995">
        <ele>680</ele>
        <time>2019-06-07T09:27:39Z</time>
      </trkpt>
      <trkpt lat="44.42097" lon="5.70004">
        <ele>680</ele>
        <time>2019-06-07T09:27:40Z</time>
      </trkpt>
      <trkpt lat="44.42097" lon="5.70013">
        <ele>680</ele>
        <time>2019-06-07T09:27:41Z</time>
      </trkpt>
      <trkpt lat="44.42096" lon="5.70022">
        <ele>680</ele>
        <time>2019-06-07T09:27:42Z</time>
      </trkpt>
      <trkpt lat="44.42095" lon="5.7003">
        <ele>680</ele>
        <time>2019-06-07T09:27:43Z</time>
      </trkpt>
      <trkpt lat="44.42094" lon="5.70039">
        <ele>680</ele>
        <time>2019-06-07T09:27:44Z</time>
      </trkpt>
      <trkpt lat="44.42093" lon="5.70048">
        <ele>680</ele>
        <time>2019-06-07T09:27:45Z</time>
      </trkpt>
      <trkpt lat="44.42092" lon="5.70056">
        <ele>680</ele>
        <time>2019-06-07T09:27:46Z</time>
      </trkpt>
      <trkpt lat="44.4209" lon="5.70065">
        <ele>680</ele>
        <time>2019-06-07T09:27:47Z</time>
      </trkpt>
      <trkpt lat="44.42088" lon="5.70073">
        <ele>680</ele>
        <time>2019-06-07T09:27:48Z</time>
      </trkpt>
      <trkpt lat="44.42085" lon="5.70081">
        <ele>680</ele>
        <time>2019-06-07T09:27:49Z</time>
      </trkpt>
      <trkpt lat="44.42083" lon="5.70089">
        <ele>680</ele>
        <time>2019-06-07T09:27:50Z</time>
      </trkpt>
      <trkpt lat="44.42082" lon="5.70097">
        <ele>680</ele>
        <time>2019-06-07T09:27:51Z</time>
      </trkpt>
      <trkpt lat="44.42081" lon="5.70106">
        <ele>680</ele>
        <time>2019-06-07T09:27:52Z</time>
      </trkpt>
      <trkpt lat="44.4208" lon="5.70114">
        <ele>680</ele>
        <time>2019-06-07T09:27:53Z</time>
      </trkpt>
      <trkpt lat="44.4208" lon="5.70121">
        <ele>680</ele>
        <time>2019-06-07T09:27:54Z</time>
      </trkpt>
      <trkpt lat="44.42079" lon="5.70129">
        <ele>680</ele>
        <time>2019-06-07T09:27:55Z</time>
      </trkpt>
      <trkpt lat="44.42079" lon="5.70136">
        <ele>680</ele>
        <time>2019-06-07T09:27:56Z</time>
      </trkpt>
      <trkpt lat="44.42079" lon="5.70144">
        <ele>680</ele>
        <time>2019-06-07T09:27:57Z</time>
      </trkpt>
      <trkpt lat="44.42079" lon="5.70151">
        <ele>680</ele>
        <time>2019-06-07T09:27:58Z</time>
      </trkpt>
      <trkpt lat="44.4208" lon="5.70159">
        <ele>680</ele>
        <time>2019-06-07T09:27:59Z</time>
      </trkpt>
      <trkpt lat="44.4208" lon="5.70166">
        <ele>680</ele>
        <time>2019-06-07T09:28:00Z</time>
      </trkpt>
      <trkpt lat="44.42081" lon="5.70174">
        <ele>680</ele>
        <time>2019-06-07T09:28:01Z</time>
      </trkpt>
      <trkpt lat="44.42081" lon="5.70181">
        <ele>680</ele>
        <time>2019-06-07T09:28:02Z</time>
      </trkpt>
      <trkpt lat="44.42081" lon="5.70187">
        <ele>680</ele>
        <time>2019-06-07T09:28:03Z</time>
      </trkpt>
      <trkpt lat="44.42082" lon="5.70194">
        <ele>680</ele>
        <time>2019-06-07T09:28:04Z</time>
      </trkpt>
      <trkpt lat="44.42082" lon="5.70201">
        <ele>680</ele>
        <time>2019-06-07T09:28:05Z</time>
      </trkpt>
      <trkpt lat="44.42083" lon="5.70208">
        <ele>680</ele>
        <time>2019-06-07T09:28:06Z</time>
      </trkpt>
      <trkpt lat="44.42083" lon="5.70215">
        <ele>680</ele>
        <time>2019-06-07T09:28:07Z</time>
      </trkpt>
      <trkpt lat="44.42084" lon="5.70222">
        <ele>680</ele>
        <time>2019-06-07T09:28:08Z</time>
      </trkpt>
      <trkpt lat="44.42086" lon="5.70229">
        <ele>680</ele>
        <time>2019-06-07T09:28:09Z</time>
      </trkpt>
      <trkpt lat="44.42087" lon="5.70236">
        <ele>680</ele>
        <time>2019-06-07T09:28:10Z</time>
      </trkpt>
      <trkpt lat="44.42088" lon="5.70243">
        <ele>680</ele>
        <time>2019-06-07T09:28:11Z</time>
      </trkpt>
      <trkpt lat="44.42089" lon="5.7025">
        <ele>680</ele>
        <time>2019-06-07T09:28:12Z</time>
      </trkpt>
      <trkpt lat="44.42091" lon="5.70257">
        <ele>680</ele>
        <time>2019-06-07T09:28:13Z</time>
      </trkpt>
      <trkpt lat="44.42092" lon="5.70264">
        <ele>680</ele>
        <time>2019-06-07T09:28:14Z</time>
      </trkpt>
      <trkpt lat="44.42093" lon="5.70271">
        <ele>680</ele>
        <time>2019-06-07T09:28:15Z</time>
      </trkpt>
      <trkpt lat="44.42094" lon="5.70278">
        <ele>680</ele>
        <time>2019-06-07T09:28:16Z</time>
      </trkpt>
      <trkpt lat="44.42094" lon="5.70285">
        <ele>680</ele>
        <time>2019-06-07T09:28:17Z</time>
      </trkpt>
      <trkpt lat="44.42094" lon="5.70292">
        <ele>680</ele>
        <time>2019-06-07T09:28:18Z</time>
      </trkpt>
      <trkpt lat="44.42094" lon="5.703">
        <ele>680</ele>
        <time>2019-06-07T09:28:19Z</time>
      </trkpt>
      <trkpt lat="44.42094" lon="5.70307">
        <ele>680</ele>
        <time>2019-06-07T09:28:20Z</time>
      </trkpt>
      <trkpt lat="44.42093" lon="5.70315">
        <ele>680</ele>
        <time>2019-06-07T09:28:21Z</time>
      </trkpt>
      <trkpt lat="44.42093" lon="5.70323">
        <ele>680</ele>
        <time>2019-06-07T09:28:22Z</time>
      </trkpt>
      <trkpt lat="44.42091" lon="5.7033">
        <ele>680</ele>
        <time>2019-06-07T09:28:23Z</time>
      </trkpt>
      <trkpt lat="44.4209" lon="5.70338">
        <ele>680</ele>
        <time>2019-06-07T09:28:24Z</time>
      </trkpt>
      <trkpt lat="44.4209" lon="5.70346">
        <ele>680</ele>
        <time>2019-06-07T09:28:25Z</time>
      </trkpt>
      <trkpt lat="44.42089" lon="5.70353">
        <ele>680</ele>
        <time>2019-06-07T09:28:26Z</time>
      </trkpt>
      <trkpt lat="44.42088" lon="5.70361">
        <ele>680</ele>
        <time>2019-06-07T09:28:27Z</time>
      </trkpt>
      <trkpt lat="44.42088" lon="5.70368">
        <ele>680</ele>
        <time>2019-06-07T09:28:28Z</time>
      </trkpt>
      <trkpt lat="44.42088" lon="5.70375">
        <ele>680</ele>
        <time>2019-06-07T09:28:29Z</time>
      </trkpt>
      <trkpt lat="44.42088" lon="5.70383">
        <ele>680</ele>
        <time>2019-06-07T09:28:30Z</time>
      </trkpt>
      <trkpt lat="44.42088" lon="5.7039">
        <ele>680</ele>
        <time>2019-06-07T09:28:31Z</time>
      </trkpt>
      <trkpt lat="44.42089" lon="5.70397">
        <ele>680</ele>
        <time>2019-06-07T09:28:32Z</time>
      </trkpt>
      <trkpt lat="44.42089" lon="5.70404">
        <ele>680</ele>
        <time>2019-06-07T09:28:33Z</time>
      </trkpt>
      <trkpt lat="44.42091" lon="5.70411">
        <ele>680</ele>
        <time>2019-06-07T09:28:34Z</time>
      </trkpt>
      <trkpt lat="44.42092" lon="5.70419">
        <ele>680</ele>
        <time>2019-06-07T09:28:35Z</time>
      </trkpt>
      <trkpt lat="44.42093" lon="5.70427">
        <ele>680</ele>
        <time>2019-06-07T09:28:36Z</time>
      </trkpt>
      <trkpt lat="44.42094" lon="5.70434">
        <ele>680</ele>
        <time>2019-06-07T09:28:37Z</time>
      </trkpt>
      <trkpt lat="44.42096" lon="5.70442">
        <ele>680</ele>
        <time>2019-06-07T09:28:38Z</time>
      </trkpt>
      <trkpt lat="44.42098" lon="5.70449">
        <ele>680</ele>
        <time>2019-06-07T09:28:39Z</time>
      </trkpt>
      <trkpt lat="44.421" lon="5.70457">
        <ele>680</ele>
        <time>2019-06-07T09:28:40Z</time>
      </trkpt>
      <trkpt lat="44.42102" lon="5.70465">
        <ele>680</ele>
        <time>2019-06-07T09:28:41Z</time>
      </trkpt>
      <trkpt lat="44.42105" lon="5.70472">
        <ele>680</ele>
        <time>2019-06-07T09:28:42Z</time>
      </trkpt>
      <trkpt lat="44.42107" lon="5.7048">
        <ele>680</ele>
        <time>2019-06-07T09:28:43Z</time>
      </trkpt>
      <trkpt lat="44.4211" lon="5.70489">
        <ele>680</ele>
        <time>2019-06-07T09:28:44Z</time>
      </trkpt>
      <trkpt lat="44.42112" lon="5.70497">
        <ele>680</ele>
        <time>2019-06-07T09:28:45Z</time>
      </trkpt>
      <trkpt lat="44.42114" lon="5.70506">
        <ele>680</ele>
        <time>2019-06-07T09:28:46Z</time>
      </trkpt>
      <trkpt lat="44.42116" lon="5.70514">
        <ele>680</ele>
        <time>2019-06-07T09:28:47Z</time>
      </trkpt>
      <trkpt lat="44.42117" lon="5.70523">
        <ele>680</ele>
        <time>2019-06-07T09:28:48Z</time>
      </trkpt>
      <trkpt lat="44.42118" lon="5.70533">
        <ele>680</ele>
        <time>2019-06-07T09:28:49Z</time>
      </trkpt>
      <trkpt lat="44.42119" lon="5.70541">
        <ele>680</ele>
        <time>2019-06-07T09:28:50Z</time>
      </trkpt>
      <trkpt lat="44.42119" lon="5.7055">
        <ele>680</ele>
        <time>2019-06-07T09:28:51Z</time>
      </trkpt>
      <trkpt lat="44.42119" lon="5.7056">
        <ele>680</ele>
        <time>2019-06-07T09:28:52Z</time>
      </trkpt>
      <trkpt lat="44.4212" lon="5.70569">
        <ele>680</ele>
        <time>2019-06-07T09:28:53Z</time>
      </trkpt>
      <trkpt lat="44.4212" lon="5.70578">
        <ele>680</ele>
        <time>2019-06-07T09:28:54Z</time>
      </trkpt>
      <trkpt lat="44.4212" lon="5.70587">
        <ele>680</ele>
        <time>2019-06-07T09:28:55Z</time>
      </trkpt>
      <trkpt lat="44.4212" lon="5.70596">
        <ele>680</ele>
        <time>2019-06-07T09:28:56Z</time>
      </trkpt>
      <trkpt lat="44.42121" lon="5.70606">
        <ele>680</ele>
        <time>2019-06-07T09:28:57Z</time>
      </trkpt>
      <trkpt lat="44.42123" lon="5.70616">
        <ele>680</ele>
        <time>2019-06-07T09:28:58Z</time>
      </trkpt>
      <trkpt lat="44.42124" lon="5.70625">
        <ele>679</ele>
        <time>2019-06-07T09:28:59Z</time>
      </trkpt>
      <trkpt lat="44.42125" lon="5.70635">
        <ele>679</ele>
        <time>2019-06-07T09:29:00Z</time>
      </trkpt>
      <trkpt lat="44.42128" lon="5.70645">
        <ele>679</ele>
        <time>2019-06-07T09:29:01Z</time>
      </trkpt>
      <trkpt lat="44.4213" lon="5.70655">
        <ele>679</ele>
        <time>2019-06-07T09:29:02Z</time>
      </trkpt>
      <trkpt lat="44.42133" lon="5.70665">
        <ele>679</ele>
        <time>2019-06-07T09:29:03Z</time>
      </trkpt>
      <trkpt lat="44.42136" lon="5.70675">
        <ele>679</ele>
        <time>2019-06-07T09:29:04Z</time>
      </trkpt>
      <trkpt lat="44.42139" lon="5.70684">
        <ele>679</ele>
        <time>2019-06-07T09:29:05Z</time>
      </trkpt>
      <trkpt lat="44.42143" lon="5.70694">
        <ele>678</ele>
        <time>2019-06-07T09:29:06Z</time>
      </trkpt>
      <trkpt lat="44.42147" lon="5.70703">
        <ele>678</ele>
        <time>2019-06-07T09:29:07Z</time>
      </trkpt>
      <trkpt lat="44.42152" lon="5.70713">
        <ele>678</ele>
        <time>2019-06-07T09:29:08Z</time>
      </trkpt>
      <trkpt lat="44.42157" lon="5.70722">
        <ele>678</ele>
        <time>2019-06-07T09:29:09Z</time>
      </trkpt>
      <trkpt lat="44.42164" lon="5.70731">
        <ele>677</ele>
        <time>2019-06-07T09:29:10Z</time>
      </trkpt>
      <trkpt lat="44.4217" lon="5.70739">
        <ele>677</ele>
        <time>2019-06-07T09:29:11Z</time>
      </trkpt>
      <trkpt lat="44.42178" lon="5.70747">
        <ele>677</ele>
        <time>2019-06-07T09:29:12Z</time>
      </trkpt>
      <trkpt lat="44.42185" lon="5.70755">
        <ele>676</ele>
        <time>2019-06-07T09:29:13Z</time>
      </trkpt>
      <trkpt lat="44.42193" lon="5.70761">
        <ele>676</ele>
        <time>2019-06-07T09:29:14Z</time>
      </trkpt>
      <trkpt lat="44.42202" lon="5.70768">
        <ele>675</ele>
        <time>2019-06-07T09:29:15Z</time>
      </trkpt>
      <trkpt lat="44.42212" lon="5.70773">
        <ele>675</ele>
        <time>2019-06-07T09:29:16Z</time>
      </trkpt>
      <trkpt lat="44.42221" lon="5.70779">
        <ele>674</ele>
        <time>2019-06-07T09:29:17Z</time>
      </trkpt>
      <trkpt lat="44.42231" lon="5.70785">
        <ele>674</ele>
        <time>2019-06-07T09:29:18Z</time>
      </trkpt>
      <trkpt lat="44.4224" lon="5.7079">
        <ele>673</ele>
        <time>2019-06-07T09:29:19Z</time>
      </trkpt>
      <trkpt lat="44.4225" lon="5.70795">
        <ele>673</ele>
        <time>2019-06-07T09:29:20Z</time>
      </trkpt>
      <trkpt lat="44.4226" lon="5.70801">
        <ele>672</ele>
        <time>2019-06-07T09:29:21Z</time>
      </trkpt>
      <trkpt lat="44.4227" lon="5.70807">
        <ele>671</ele>
        <time>2019-06-07T09:29:22Z</time>
      </trkpt>
      <trkpt lat="44.42281" lon="5.70813">
        <ele>671</ele>
        <time>2019-06-07T09:29:23Z</time>
      </trkpt>
      <trkpt lat="44.42291" lon="5.70818">
        <ele>670</ele>
        <time>2019-06-07T09:29:24Z</time>
      </trkpt>
      <trkpt lat="44.42301" lon="5.70824">
        <ele>670</ele>
        <time>2019-06-07T09:29:25Z</time>
      </trkpt>
      <trkpt lat="44.42312" lon="5.7083">
        <ele>670</ele>
        <time>2019-06-07T09:29:26Z</time>
      </trkpt>
      <trkpt lat="44.42322" lon="5.70836">
        <ele>669</ele>
        <time>2019-06-07T09:29:27Z</time>
      </trkpt>
      <trkpt lat="44.42332" lon="5.70842">
        <ele>669</ele>
        <time>2019-06-07T09:29:28Z</time>
      </trkpt>
      <trkpt lat="44.42342" lon="5.70847">
        <ele>669</ele>
        <time>2019-06-07T09:29:29Z</time>
      </trkpt>
      <trkpt lat="44.42351" lon="5.70853">
        <ele>669</ele>
        <time>2019-06-07T09:29:30Z</time>
      </trkpt>
      <trkpt lat="44.42361" lon="5.70858">
        <ele>668</ele>
        <time>2019-06-07T09:29:31Z</time>
      </trkpt>
      <trkpt lat="44.4237" lon="5.70864">
        <ele>668</ele>
        <time>2019-06-07T09:29:32Z</time>
      </trkpt>
      <trkpt lat="44.42379" lon="5.70869">
        <ele>668</ele>
        <time>2019-06-07T09:29:33Z</time>
      </trkpt>
      <trkpt lat="44.42388" lon="5.70874">
        <ele>668</ele>
        <time>2019-06-07T09:29:34Z</time>
      </trkpt>
      <trkpt lat="44.42397" lon="5.70879">
        <ele>668</ele>
        <time>2019-06-07T09:29:35Z</time>
      </trkpt>
      <trkpt lat="44.42406" lon="5.70884">
        <ele>667</ele>
        <time>2019-06-07T09:29:36Z</time>
      </trkpt>
      <trkpt lat="44.42415" lon="5.70889">
        <ele>667</ele>
        <time>2019-06-07T09:29:37Z</time>
      </trkpt>
      <trkpt lat="44.42423" lon="5.70894">
        <ele>667</ele>
        <time>2019-06-07T09:29:38Z</time>
      </trkpt>
      <trkpt lat="44.42431" lon="5.70899">
        <ele>667</ele>
        <time>2019-06-07T09:29:39Z</time>
      </trkpt>
      <trkpt lat="44.4244" lon="5.70904">
        <ele>667</ele>
        <time>2019-06-07T09:29:40Z</time>
      </trkpt>
      <trkpt lat="44.42448" lon="5.7091">
        <ele>667</ele>
        <time>2019-06-07T09:29:41Z</time>
      </trkpt>
      <trkpt lat="44.42456" lon="5.70915">
        <ele>667</ele>
        <time>2019-06-07T09:29:42Z</time>
      </trkpt>
      <trkpt lat="44.42464" lon="5.7092">
        <ele>667</ele>
        <time>2019-06-07T09:29:43Z</time>
      </trkpt>
      <trkpt lat="44.42471" lon="5.70924">
        <ele>667</ele>
        <time>2019-06-07T09:29:44Z</time>
      </trkpt>
      <trkpt lat="44.42479" lon="5.70929">
        <ele>666</ele>
        <time>2019-06-07T09:29:45Z</time>
      </trkpt>
      <trkpt lat="44.42487" lon="5.70933">
        <ele>666</ele>
        <time>2019-06-07T09:29:46Z</time>
      </trkpt>
      <trkpt lat="44.42494" lon="5.70937">
        <ele>666</ele>
        <time>2019-06-07T09:29:47Z</time>
      </trkpt>
      <trkpt lat="44.42502" lon="5.70941">
        <ele>666</ele>
        <time>2019-06-07T09:29:48Z</time>
      </trkpt>
      <trkpt lat="44.42508" lon="5.70945">
        <ele>666</ele>
        <time>2019-06-07T09:29:49Z</time>
      </trkpt>
      <trkpt lat="44.42514" lon="5.70948">
        <ele>666</ele>
        <time>2019-06-07T09:29:50Z</time>
      </trkpt>
      <trkpt lat="44.42519" lon="5.70951">
        <ele>666</ele>
        <time>2019-06-07T09:29:51Z</time>
      </trkpt>
      <trkpt lat="44.42523" lon="5.70954">
        <ele>666</ele>
        <time>2019-06-07T09:29:52Z</time>
      </trkpt>
      <trkpt lat="44.42528" lon="5.70956">
        <ele>666</ele>
        <time>2019-06-07T09:29:53Z</time>
      </trkpt>
      <trkpt lat="44.4253" lon="5.70957">
        <ele>666</ele>
        <time>2019-06-07T09:29:54Z</time>
      </trkpt>
      <trkpt lat="44.42533" lon="5.70958">
        <ele>666</ele>
        <time>2019-06-07T09:29:55Z</time>
      </trkpt>
      <trkpt lat="44.42535" lon="5.70959">
        <ele>666</ele>
        <time>2019-06-07T09:29:56Z</time>
      </trkpt>
      <trkpt lat="44.42537" lon="5.70959">
        <ele>666</ele>
        <time>2019-06-07T09:30:00Z</time>
      </trkpt>
      <trkpt lat="44.42538" lon="5.7096">
        <ele>666</ele>
        <time>2019-06-07T09:30:01Z</time>
      </trkpt>
      <trkpt lat="44.4254" lon="5.70961">
        <ele>666</ele>
        <time>2019-06-07T09:30:02Z</time>
      </trkpt>
      <trkpt lat="44.42542" lon="5.70962">
        <ele>666</ele>
        <time>2019-06-07T09:30:03Z</time>
      </trkpt>
      <trkpt lat="44.42544" lon="5.70963">
        <ele>666</ele>
        <time>2019-06-07T09:30:04Z</time>
      </trkpt>
      <trkpt lat="44.42546" lon="5.70965">
        <ele>666</ele>
        <time>2019-06-07T09:30:05Z</time>
      </trkpt>
      <trkpt lat="44.42549" lon="5.70967">
        <ele>666</ele>
        <time>2019-06-07T09:30:06Z</time>
      </trkpt>
      <trkpt lat="44.42553" lon="5.70969">
        <ele>666</ele>
        <time>2019-06-07T09:30:07Z</time>
      </trkpt>
      <trkpt lat="44.42557" lon="5.70972">
        <ele>666</ele>
        <time>2019-06-07T09:30:08Z</time>
      </trkpt>
      <trkpt lat="44.42562" lon="5.70975">
        <ele>666</ele>
        <time>2019-06-07T09:30:09Z</time>
      </trkpt>
      <trkpt lat="44.42567" lon="5.70979">
        <ele>666</ele>
        <time>2019-06-07T09:30:10Z</time>
      </trkpt>
      <trkpt lat="44.4257" lon="5.70983">
        <ele>666</ele>
        <time>2019-06-07T09:30:11Z</time>
      </trkpt>
      <trkpt lat="44.42574" lon="5.70986">
        <ele>666</ele>
        <time>2019-06-07T09:30:12Z</time>
      </trkpt>
      <trkpt lat="44.42579" lon="5.7099">
        <ele>665</ele>
        <time>2019-06-07T09:30:13Z</time>
      </trkpt>
      <trkpt lat="44.42583" lon="5.70993">
        <ele>665</ele>
        <time>2019-06-07T09:30:14Z</time>
      </trkpt>
      <trkpt lat="44.42587" lon="5.70997">
        <ele>665</ele>
        <time>2019-06-07T09:30:15Z</time>
      </trkpt>
      <trkpt lat="44.4259" lon="5.71001">
        <ele>665</ele>
        <time>2019-06-07T09:30:16Z</time>
      </trkpt>
      <trkpt lat="44.42592" lon="5.71007">
        <ele>665</ele>
        <time>2019-06-07T09:30:17Z</time>
      </trkpt>
      <trkpt lat="44.42593" lon="5.71012">
        <ele>664</ele>
        <time>2019-06-07T09:30:18Z</time>
      </trkpt>
      <trkpt lat="44.42588" lon="5.71016">
        <ele>664</ele>
        <time>2019-06-07T09:30:19Z</time>
      </trkpt>
      <trkpt lat="44.42583" lon="5.71018">
        <ele>664</ele>
        <time>2019-06-07T09:30:20Z</time>
      </trkpt>
      <trkpt lat="44.42577" lon="5.71017">
        <ele>664</ele>
        <time>2019-06-07T09:30:21Z</time>
      </trkpt>
      <trkpt lat="44.4257" lon="5.71017">
        <ele>663</ele>
        <time>2019-06-07T09:30:22Z</time>
      </trkpt>
      <trkpt lat="44.42563" lon="5.71017">
        <ele>663</ele>
        <time>2019-06-07T09:30:23Z</time>
      </trkpt>
      <trkpt lat="44.42556" lon="5.71017">
        <ele>662</ele>
        <time>2019-06-07T09:30:24Z</time>
      </trkpt>
      <trkpt lat="44.42548" lon="5.71018">
        <ele>662</ele>
        <time>2019-06-07T09:30:25Z</time>
      </trkpt>
      <trkpt lat="44.42541" lon="5.7102">
        <ele>662</ele>
        <time>2019-06-07T09:30:26Z</time>
      </trkpt>
      <trkpt lat="44.42534" lon="5.71021">
        <ele>662</ele>
        <time>2019-06-07T09:30:27Z</time>
      </trkpt>
      <trkpt lat="44.42527" lon="5.71024">
        <ele>662</ele>
        <time>2019-06-07T09:30:28Z</time>
      </trkpt>
      <trkpt lat="44.4252" lon="5.71025">
        <ele>662</ele>
        <time>2019-06-07T09:30:29Z</time>
      </trkpt>
      <trkpt lat="44.42514" lon="5.71026">
        <ele>662</ele>
        <time>2019-06-07T09:30:30Z</time>
      </trkpt>
      <trkpt lat="44.42507" lon="5.71026">
        <ele>662</ele>
        <time>2019-06-07T09:30:31Z</time>
      </trkpt>
      <trkpt lat="44.42501" lon="5.71025">
        <ele>662</ele>
        <time>2019-06-07T09:30:32Z</time>
      </trkpt>
      <trkpt lat="44.42494" lon="5.71023">
        <ele>662</ele>
        <time>2019-06-07T09:30:33Z</time>
      </trkpt>
      <trkpt lat="44.42488" lon="5.71019">
        <ele>662</ele>
        <time>2019-06-07T09:30:34Z</time>
      </trkpt>
      <trkpt lat="44.42481" lon="5.71014">
        <ele>662</ele>
        <time>2019-06-07T09:30:35Z</time>
      </trkpt>
      <trkpt lat="44.42475" lon="5.71009">
        <ele>662</ele>
        <time>2019-06-07T09:30:36Z</time>
      </trkpt>
      <trkpt lat="44.42469" lon="5.71004">
        <ele>662</ele>
        <time>2019-06-07T09:30:37Z</time>
      </trkpt>
      <trkpt lat="44.42463" lon="5.70998">
        <ele>662</ele>
        <time>2019-06-07T09:30:38Z</time>
      </trkpt>
      <trkpt lat="44.42457" lon="5.70993">
        <ele>662</ele>
        <time>2019-06-07T09:30:39Z</time>
      </trkpt>
      <trkpt lat="44.42451" lon="5.70988">
        <ele>661</ele>
        <time>2019-06-07T09:30:40Z</time>
      </trkpt>
      <trkpt lat="44.42445" lon="5.70983">
        <ele>661</ele>
        <time>2019-06-07T09:30:41Z</time>
      </trkpt>
      <trkpt lat="44.42438" lon="5.70979">
        <ele>661</ele>
        <time>2019-06-07T09:30:42Z</time>
      </trkpt>
      <trkpt lat="44.42431" lon="5.70976">
        <ele>661</ele>
        <time>2019-06-07T09:30:43Z</time>
      </trkpt>
      <trkpt lat="44.42424" lon="5.70973">
        <ele>660</ele>
        <time>2019-06-07T09:30:44Z</time>
      </trkpt>
      <trkpt lat="44.42417" lon="5.70972">
        <ele>660</ele>
        <time>2019-06-07T09:30:45Z</time>
      </trkpt>
      <trkpt lat="44.4241" lon="5.70971">
        <ele>659</ele>
        <time>2019-06-07T09:30:46Z</time>
      </trkpt>
      <trkpt lat="44.42403" lon="5.70972">
        <ele>659</ele>
        <time>2019-06-07T09:30:47Z</time>
      </trkpt>
      <trkpt lat="44.42395" lon="5.70972">
        <ele>658</ele>
        <time>2019-06-07T09:30:48Z</time>
      </trkpt>
      <trkpt lat="44.42388" lon="5.70973">
        <ele>658</ele>
        <time>2019-06-07T09:30:49Z</time>
      </trkpt>
      <trkpt lat="44.4238" lon="5.70973">
        <ele>657</ele>
        <time>2019-06-07T09:30:50Z</time>
      </trkpt>
      <trkpt lat="44.42372" lon="5.70974">
        <ele>657</ele>
        <time>2019-06-07T09:30:51Z</time>
      </trkpt>
      <trkpt lat="44.42364" lon="5.70975">
        <ele>657</ele>
        <time>2019-06-07T09:30:52Z</time>
      </trkpt>
      <trkpt lat="44.42356" lon="5.70977">
        <ele>657</ele>
        <time>2019-06-07T09:30:53Z</time>
      </trkpt>
      <trkpt lat="44.42347" lon="5.70978">
        <ele>656</ele>
        <time>2019-06-07T09:30:54Z</time>
      </trkpt>
      <trkpt lat="44.42339" lon="5.70979">
        <ele>656</ele>
        <time>2019-06-07T09:30:55Z</time>
      </trkpt>
      <trkpt lat="44.4233" lon="5.70981">
        <ele>655</ele>
        <time>2019-06-07T09:30:56Z</time>
      </trkpt>
      <trkpt lat="44.42322" lon="5.70982">
        <ele>654</ele>
        <time>2019-06-07T09:30:57Z</time>
      </trkpt>
      <trkpt lat="44.42313" lon="5.70984">
        <ele>654</ele>
        <time>2019-06-07T09:30:58Z</time>
      </trkpt>
      <trkpt lat="44.42305" lon="5.70986">
        <ele>653</ele>
        <time>2019-06-07T09:30:59Z</time>
      </trkpt>
      <trkpt lat="44.42297" lon="5.70989">
        <ele>653</ele>
        <time>2019-06-07T09:31:00Z</time>
      </trkpt>
      <trkpt lat="44.42289" lon="5.70992">
        <ele>653</ele>
        <time>2019-06-07T09:31:01Z</time>
      </trkpt>
      <trkpt lat="44.42281" lon="5.70994">
        <ele>653</ele>
        <time>2019-06-07T09:31:02Z</time>
      </trkpt>
      <trkpt lat="44.42273" lon="5.70996">
        <ele>652</ele>
        <time>2019-06-07T09:31:03Z</time>
      </trkpt>
      <trkpt lat="44.42265" lon="5.70999">
        <ele>652</ele>
        <time>2019-06-07T09:31:04Z</time>
      </trkpt>
      <trkpt lat="44.42257" lon="5.71001">
        <ele>652</ele>
        <time>2019-06-07T09:31:05Z</time>
      </trkpt>
      <trkpt lat="44.4225" lon="5.71003">
        <ele>652</ele>
        <time>2019-06-07T09:31:06Z</time>
      </trkpt>
      <trkpt lat="44.42242" lon="5.71005">
        <ele>651</ele>
        <time>2019-06-07T09:31:07Z</time>
      </trkpt>
      <trkpt lat="44.42235" lon="5.71007">
        <ele>651</ele>
        <time>2019-06-07T09:31:08Z</time>
      </trkpt>
      <trkpt lat="44.42227" lon="5.71009">
        <ele>651</ele>
        <time>2019-06-07T09:31:09Z</time>
      </trkpt>
      <trkpt lat="44.4222" lon="5.7101">
        <ele>651</ele>
        <time>2019-06-07T09:31:10Z</time>
      </trkpt>
      <trkpt lat="44.42212" lon="5.71011">
        <ele>650</ele>
        <time>2019-06-07T09:31:11Z</time>
      </trkpt>
      <trkpt lat="44.42204" lon="5.71012">
        <ele>650</ele>
        <time>2019-06-07T09:31:12Z</time>
      </trkpt>
      <trkpt lat="44.42196" lon="5.71012">
        <ele>650</ele>
        <time>2019-06-07T09:31:13Z</time>
      </trkpt>
      <trkpt lat="44.42188" lon="5.71012">
        <ele>650</ele>
        <time>2019-06-07T09:31:14Z</time>
      </trkpt>
      <trkpt lat="44.42181" lon="5.71012">
        <ele>650</ele>
        <time>2019-06-07T09:31:15Z</time>
      </trkpt>
      <trkpt lat="44.42173" lon="5.71011">
        <ele>650</ele>
        <time>2019-06-07T09:31:16Z</time>
      </trkpt>
      <trkpt lat="44.42166" lon="5.7101">
        <ele>650</ele>
        <time>2019-06-07T09:31:17Z</time>
      </trkpt>
      <trkpt lat="44.42158" lon="5.7101">
        <ele>650</ele>
        <time>2019-06-07T09:31:18Z</time>
      </trkpt>
      <trkpt lat="44.42151" lon="5.71009">
        <ele>650</ele>
        <time>2019-06-07T09:31:19Z</time>
      </trkpt>
      <trkpt lat="44.42144" lon="5.71009">
        <ele>650</ele>
        <time>2019-06-07T09:31:20Z</time>
      </trkpt>
      <trkpt lat="44.42136" lon="5.71008">
        <ele>650</ele>
        <time>2019-06-07T09:31:21Z</time>
      </trkpt>
      <trkpt lat="44.42129" lon="5.71008">
        <ele>650</ele>
        <time>2019-06-07T09:31:22Z</time>
      </trkpt>
      <trkpt lat="44.42122" lon="5.71008">
        <ele>650</ele>
        <time>2019-06-07T09:31:23Z</time>
      </trkpt>
      <trkpt lat="44.42115" lon="5.71007">
        <ele>650</ele>
        <time>2019-06-07T09:31:24Z</time>
      </trkpt>
      <trkpt lat="44.42108" lon="5.71006">
        <ele>650</ele>
        <time>2019-06-07T09:31:25Z</time>
      </trkpt>
      <trkpt lat="44.42101" lon="5.71006">
        <ele>650</ele>
        <time>2019-06-07T09:31:26Z</time>
      </trkpt>
      <trkpt lat="44.42094" lon="5.71006">
        <ele>650</ele>
        <time>2019-06-07T09:31:27Z</time>
      </trkpt>
      <trkpt lat="44.42088" lon="5.71006">
        <ele>650</ele>
        <time>2019-06-07T09:31:28Z</time>
      </trkpt>
      <trkpt lat="44.42081" lon="5.71005">
        <ele>650</ele>
        <time>2019-06-07T09:31:29Z</time>
      </trkpt>
      <trkpt lat="44.42074" lon="5.71005">
        <ele>650</ele>
        <time>2019-06-07T09:31:30Z</time>
      </trkpt>
      <trkpt lat="44.42067" lon="5.71006">
        <ele>650</ele>
        <time>2019-06-07T09:31:31Z</time>
      </trkpt>
      <trkpt lat="44.4206" lon="5.71005">
        <ele>650</ele>
        <time>2019-06-07T09:31:32Z</time>
      </trkpt>
      <trkpt lat="44.42054" lon="5.71005">
        <ele>650</ele>
        <time>2019-06-07T09:31:33Z</time>
      </trkpt>
      <trkpt lat="44.42047" lon="5.71005">
        <ele>650</ele>
        <time>2019-06-07T09:31:34Z</time>
      </trkpt>
      <trkpt lat="44.42041" lon="5.71005">
        <ele>650</ele>
        <time>2019-06-07T09:31:35Z</time>
      </trkpt>
      <trkpt lat="44.42035" lon="5.71006">
        <ele>650</ele>
        <time>2019-06-07T09:31:36Z</time>
      </trkpt>
      <trkpt lat="44.42028" lon="5.71007">
        <ele>650</ele>
        <time>2019-06-07T09:31:37Z</time>
      </trkpt>
      <trkpt lat="44.42022" lon="5.71008">
        <ele>650</ele>
        <time>2019-06-07T09:31:38Z</time>
      </trkpt>
      <trkpt lat="44.42015" lon="5.7101">
        <ele>650</ele>
        <time>2019-06-07T09:31:39Z</time>
      </trkpt>
      <trkpt lat="44.42009" lon="5.71012">
        <ele>650</ele>
        <time>2019-06-07T09:31:40Z</time>
      </trkpt>
      <trkpt lat="44.42002" lon="5.71015">
        <ele>650</ele>
        <time>2019-06-07T09:31:41Z</time>
      </trkpt>
      <trkpt lat="44.41996" lon="5.71018">
        <ele>650</ele>
        <time>2019-06-07T09:31:42Z</time>
      </trkpt>
      <trkpt lat="44.41989" lon="5.71021">
        <ele>650</ele>
        <time>2019-06-07T09:31:43Z</time>
      </trkpt>
      <trkpt lat="44.41983" lon="5.71024">
        <ele>650</ele>
        <time>2019-06-07T09:31:44Z</time>
      </trkpt>
      <trkpt lat="44.41977" lon="5.71028">
        <ele>650</ele>
        <time>2019-06-07T09:31:45Z</time>
      </trkpt>
      <trkpt lat="44.4197" lon="5.71032">
        <ele>650</ele>
        <time>2019-06-07T09:31:46Z</time>
      </trkpt>
      <trkpt lat="44.41964" lon="5.71036">
        <ele>650</ele>
        <time>2019-06-07T09:31:47Z</time>
      </trkpt>
      <trkpt lat="44.41958" lon="5.7104">
        <ele>649</ele>
        <time>2019-06-07T09:31:48Z</time>
      </trkpt>
      <trkpt lat="44.41952" lon="5.71044">
        <ele>649</ele>
        <time>2019-06-07T09:31:49Z</time>
      </trkpt>
      <trkpt lat="44.41946" lon="5.7105">
        <ele>648</ele>
        <time>2019-06-07T09:31:50Z</time>
      </trkpt>
      <trkpt lat="44.4194" lon="5.71055">
        <ele>648</ele>
        <time>2019-06-07T09:31:51Z</time>
      </trkpt>
      <trkpt lat="44.41934" lon="5.7106">
        <ele>647</ele>
        <time>2019-06-07T09:31:52Z</time>
      </trkpt>
      <trkpt lat="44.41928" lon="5.71065">
        <ele>647</ele>
        <time>2019-06-07T09:31:53Z</time>
      </trkpt>
      <trkpt lat="44.41922" lon="5.7107">
        <ele>647</ele>
        <time>2019-06-07T09:31:54Z</time>
      </trkpt>
      <trkpt lat="44.41917" lon="5.71075">
        <ele>646</ele>
        <time>2019-06-07T09:31:55Z</time>
      </trkpt>
      <trkpt lat="44.41911" lon="5.7108">
        <ele>646</ele>
        <time>2019-06-07T09:31:56Z</time>
      </trkpt>
      <trkpt lat="44.41905" lon="5.71085">
        <ele>645</ele>
        <time>2019-06-07T09:31:57Z</time>
      </trkpt>
      <trkpt lat="44.41899" lon="5.7109">
        <ele>645</ele>
        <time>2019-06-07T09:31:58Z</time>
      </trkpt>
      <trkpt lat="44.41894" lon="5.71095">
        <ele>644</ele>
        <time>2019-06-07T09:31:59Z</time>
      </trkpt>
      <trkpt lat="44.41888" lon="5.71101">
        <ele>644</ele>
        <time>2019-06-07T09:32:00Z</time>
      </trkpt>
      <trkpt lat="44.41882" lon="5.71107">
        <ele>644</ele>
        <time>2019-06-07T09:32:01Z</time>
      </trkpt>
      <trkpt lat="44.41876" lon="5.71113">
        <ele>644</ele>
        <time>2019-06-07T09:32:02Z</time>
      </trkpt>
      <trkpt lat="44.4187" lon="5.71119">
        <ele>644</ele>
        <time>2019-06-07T09:32:03Z</time>
      </trkpt>
      <trkpt lat="44.41865" lon="5.71124">
        <ele>644</ele>
        <time>2019-06-07T09:32:04Z</time>
      </trkpt>
      <trkpt lat="44.4186" lon="5.71128">
        <ele>644</ele>
        <time>2019-06-07T09:32:05Z</time>
      </trkpt>
      <trkpt lat="44.41854" lon="5.71133">
        <ele>644</ele>
        <time>2019-06-07T09:32:06Z</time>
      </trkpt>
      <trkpt lat="44.41849" lon="5.71138">
        <ele>644</ele>
        <time>2019-06-07T09:32:07Z</time>
      </trkpt>
      <trkpt lat="44.41844" lon="5.71143">
        <ele>644</ele>
        <time>2019-06-07T09:32:08Z</time>
      </trkpt>
      <trkpt lat="44.41838" lon="5.71149">
        <ele>644</ele>
        <time>2019-06-07T09:32:09Z</time>
      </trkpt>
      <trkpt lat="44.41833" lon="5.71154">
        <ele>645</ele>
        <time>2019-06-07T09:32:10Z</time>
      </trkpt>
      <trkpt lat="44.41827" lon="5.71159">
        <ele>646</ele>
        <time>2019-06-07T09:32:11Z</time>
      </trkpt>
      <trkpt lat="44.41822" lon="5.71165">
        <ele>646</ele>
        <time>2019-06-07T09:32:12Z</time>
      </trkpt>
      <trkpt lat="44.41816" lon="5.7117">
        <ele>647</ele>
        <time>2019-06-07T09:32:13Z</time>
      </trkpt>
      <trkpt lat="44.41811" lon="5.71174">
        <ele>647</ele>
        <time>2019-06-07T09:32:14Z</time>
      </trkpt>
      <trkpt lat="44.41806" lon="5.71179">
        <ele>647</ele>
        <time>2019-06-07T09:32:15Z</time>
      </trkpt>
      <trkpt lat="44.41801" lon="5.71183">
        <ele>647</ele>
        <time>2019-06-07T09:32:16Z</time>
      </trkpt>
      <trkpt lat="44.41795" lon="5.71188">
        <ele>647</ele>
        <time>2019-06-07T09:32:17Z</time>
      </trkpt>
      <trkpt lat="44.4179" lon="5.71193">
        <ele>647</ele>
        <time>2019-06-07T09:32:18Z</time>
      </trkpt>
      <trkpt lat="44.41785" lon="5.71197">
        <ele>647</ele>
        <time>2019-06-07T09:32:19Z</time>
      </trkpt>
      <trkpt lat="44.41781" lon="5.712">
        <ele>647</ele>
        <time>2019-06-07T09:32:20Z</time>
      </trkpt>
      <trkpt lat="44.41776" lon="5.71203">
        <ele>647</ele>
        <time>2019-06-07T09:32:21Z</time>
      </trkpt>
      <trkpt lat="44.41771" lon="5.71205">
        <ele>647</ele>
        <time>2019-06-07T09:32:22Z</time>
      </trkpt>
      <trkpt lat="44.41765" lon="5.71207">
        <ele>647</ele>
        <time>2019-06-07T09:32:23Z</time>
      </trkpt>
      <trkpt lat="44.41759" lon="5.71209">
        <ele>647</ele>
        <time>2019-06-07T09:32:24Z</time>
      </trkpt>
      <trkpt lat="44.41754" lon="5.7121">
        <ele>647</ele>
        <time>2019-06-07T09:32:25Z</time>
      </trkpt>
      <trkpt lat="44.41748" lon="5.71211">
        <ele>647</ele>
        <time>2019-06-07T09:32:26Z</time>
      </trkpt>
      <trkpt lat="44.41743" lon="5.71212">
        <ele>647</ele>
        <time>2019-06-07T09:32:27Z</time>
      </trkpt>
      <trkpt lat="44.41738" lon="5.71211">
        <ele>647</ele>
        <time>2019-06-07T09:32:28Z</time>
      </trkpt>
      <trkpt lat="44.41733" lon="5.71211">
        <ele>647</ele>
        <time>2019-06-07T09:32:29Z</time>
      </trkpt>
      <trkpt lat="44.41728" lon="5.7121">
        <ele>647</ele>
        <time>2019-06-07T09:32:30Z</time>
      </trkpt>
      <trkpt lat="44.41723" lon="5.71208">
        <ele>647</ele>
        <time>2019-06-07T09:32:31Z</time>
      </trkpt>
      <trkpt lat="44.41718" lon="5.71207">
        <ele>647</ele>
        <time>2019-06-07T09:32:32Z</time>
      </trkpt>
      <trkpt lat="44.41713" lon="5.71205">
        <ele>647</ele>
        <time>2019-06-07T09:32:33Z</time>
      </trkpt>
      <trkpt lat="44.41708" lon="5.71203">
        <ele>647</ele>
        <time>2019-06-07T09:32:34Z</time>
      </trkpt>
      <trkpt lat="44.41703" lon="5.712">
        <ele>647</ele>
        <time>2019-06-07T09:32:35Z</time>
      </trkpt>
      <trkpt lat="44.41698" lon="5.71198">
        <ele>647</ele>
        <time>2019-06-07T09:32:36Z</time>
      </trkpt>
      <trkpt lat="44.41692" lon="5.71196">
        <ele>647</ele>
        <time>2019-06-07T09:32:37Z</time>
      </trkpt>
      <trkpt lat="44.41687" lon="5.71194">
        <ele>647</ele>
        <time>2019-06-07T09:32:38Z</time>
      </trkpt>
      <trkpt lat="44.41681" lon="5.71193">
        <ele>647</ele>
        <time>2019-06-07T09:32:39Z</time>
      </trkpt>
      <trkpt lat="44.41675" lon="5.71192">
        <ele>647</ele>
        <time>2019-06-07T09:32:40Z</time>
      </trkpt>
      <trkpt lat="44.41669" lon="5.71192">
        <ele>647</ele>
        <time>2019-06-07T09:32:41Z</time>
      </trkpt>
      <trkpt lat="44.41663" lon="5.71192">
        <ele>647</ele>
        <time>2019-06-07T09:32:42Z</time>
      </trkpt>
      <trkpt lat="44.41657" lon="5.71193">
        <ele>647</ele>
        <time>2019-06-07T09:32:43Z</time>
      </trkpt>
      <trkpt lat="44.4165" lon="5.71193">
        <ele>647</ele>
        <time>2019-06-07T09:32:44Z</time>
      </trkpt>
      <trkpt lat="44.41645" lon="5.71194">
        <ele>647</ele>
        <time>2019-06-07T09:32:45Z</time>
      </trkpt>
      <trkpt lat="44.41639" lon="5.71194">
        <ele>647</ele>
        <time>2019-06-07T09:32:46Z</time>
      </trkpt>
      <trkpt lat="44.41633" lon="5.71195">
        <ele>647</ele>
        <time>2019-06-07T09:32:47Z</time>
      </trkpt>
      <trkpt lat="44.41627" lon="5.71196">
        <ele>647</ele>
        <time>2019-06-07T09:32:48Z</time>
      </trkpt>
      <trkpt lat="44.41621" lon="5.71197">
        <ele>647</ele>
        <time>2019-06-07T09:32:49Z</time>
      </trkpt>
      <trkpt lat="44.41616" lon="5.71198">
        <ele>647</ele>
        <time>2019-06-07T09:32:50Z</time>
      </trkpt>
      <trkpt lat="44.4161" lon="5.71199">
        <ele>647</ele>
        <time>2019-06-07T09:32:51Z</time>
      </trkpt>
      <trkpt lat="44.41605" lon="5.71199">
        <ele>647</ele>
        <time>2019-06-07T09:32:52Z</time>
      </trkpt>
      <trkpt lat="44.41599" lon="5.712">
        <ele>647</ele>
        <time>2019-06-07T09:32:53Z</time>
      </trkpt>
      <trkpt lat="44.41594" lon="5.71201">
        <ele>647</ele>
        <time>2019-06-07T09:32:54Z</time>
      </trkpt>
      <trkpt lat="44.41588" lon="5.71202">
        <ele>647</ele>
        <time>2019-06-07T09:32:55Z</time>
      </trkpt>
      <trkpt lat="44.41582" lon="5.71203">
        <ele>647</ele>
        <time>2019-06-07T09:32:56Z</time>
      </trkpt>
      <trkpt lat="44.41577" lon="5.71204">
        <ele>647</ele>
        <time>2019-06-07T09:32:57Z</time>
      </trkpt>
      <trkpt lat="44.41571" lon="5.71205">
        <ele>647</ele>
        <time>2019-06-07T09:32:58Z</time>
      </trkpt>
      <trkpt lat="44.41566" lon="5.71205">
        <ele>647</ele>
        <time>2019-06-07T09:32:59Z</time>
      </trkpt>
      <trkpt lat="44.41561" lon="5.71206">
        <ele>647</ele>
        <time>2019-06-07T09:33:00Z</time>
      </trkpt>
      <trkpt lat="44.41556" lon="5.71207">
        <ele>647</ele>
        <time>2019-06-07T09:33:01Z</time>
      </trkpt>
      <trkpt lat="44.41551" lon="5.71207">
        <ele>647</ele>
        <time>2019-06-07T09:33:02Z</time>
      </trkpt>
      <trkpt lat="44.41546" lon="5.71208">
        <ele>647</ele>
        <time>2019-06-07T09:33:03Z</time>
      </trkpt>
      <trkpt lat="44.41541" lon="5.71209">
        <ele>647</ele>
        <time>2019-06-07T09:33:04Z</time>
      </trkpt>
      <trkpt lat="44.41535" lon="5.7121">
        <ele>647</ele>
        <time>2019-06-07T09:33:05Z</time>
      </trkpt>
      <trkpt lat="44.41529" lon="5.71211">
        <ele>647</ele>
        <time>2019-06-07T09:33:06Z</time>
      </trkpt>
      <trkpt lat="44.41524" lon="5.71211">
        <ele>647</ele>
        <time>2019-06-07T09:33:07Z</time>
      </trkpt>
      <trkpt lat="44.41518" lon="5.71212">
        <ele>647</ele>
        <time>2019-06-07T09:33:08Z</time>
      </trkpt>
      <trkpt lat="44.41513" lon="5.71213">
        <ele>647</ele>
        <time>2019-06-07T09:33:09Z</time>
      </trkpt>
      <trkpt lat="44.41507" lon="5.71214">
        <ele>647</ele>
        <time>2019-06-07T09:33:10Z</time>
      </trkpt>
      <trkpt lat="44.41502" lon="5.71214">
        <ele>647</ele>
        <time>2019-06-07T09:33:11Z</time>
      </trkpt>
      <trkpt lat="44.41496" lon="5.71215">
        <ele>647</ele>
        <time>2019-06-07T09:33:12Z</time>
      </trkpt>
      <trkpt lat="44.41491" lon="5.71216">
        <ele>647</ele>
        <time>2019-06-07T09:33:13Z</time>
      </trkpt>
      <trkpt lat="44.41486" lon="5.71216">
        <ele>647</ele>
        <time>2019-06-07T09:33:14Z</time>
      </trkpt>
      <trkpt lat="44.4148" lon="5.71217">
        <ele>647</ele>
        <time>2019-06-07T09:33:15Z</time>
      </trkpt>
      <trkpt lat="44.41475" lon="5.71218">
        <ele>647</ele>
        <time>2019-06-07T09:33:16Z</time>
      </trkpt>
      <trkpt lat="44.4147" lon="5.71218">
        <ele>647</ele>
        <time>2019-06-07T09:33:17Z</time>
      </trkpt>
      <trkpt lat="44.41465" lon="5.71219">
        <ele>647</ele>
        <time>2019-06-07T09:33:18Z</time>
      </trkpt>
      <trkpt lat="44.4146" lon="5.7122">
        <ele>647</ele>
        <time>2019-06-07T09:33:19Z</time>
      </trkpt>
      <trkpt lat="44.41454" lon="5.71221">
        <ele>647</ele>
        <time>2019-06-07T09:33:20Z</time>
      </trkpt>
      <trkpt lat="44.41449" lon="5.71222">
        <ele>647</ele>
        <time>2019-06-07T09:33:21Z</time>
      </trkpt>
      <trkpt lat="44.41444" lon="5.71224">
        <ele>647</ele>
        <time>2019-06-07T09:33:22Z</time>
      </trkpt>
      <trkpt lat="44.41439" lon="5.71225">
        <ele>647</ele>
        <time>2019-06-07T09:33:23Z</time>
      </trkpt>
      <trkpt lat="44.41434" lon="5.71226">
        <ele>647</ele>
        <time>2019-06-07T09:33:24Z</time>
      </trkpt>
      <trkpt lat="44.41429" lon="5.71228">
        <ele>647</ele>
        <time>2019-06-07T09:33:25Z</time>
      </trkpt>
      <trkpt lat="44.41423" lon="5.71229">
        <ele>647</ele>
        <time>2019-06-07T09:33:26Z</time>
      </trkpt>
      <trkpt lat="44.41418" lon="5.7123">
        <ele>647</ele>
        <time>2019-06-07T09:33:27Z</time>
      </trkpt>
      <trkpt lat="44.41413" lon="5.71232">
        <ele>647</ele>
        <time>2019-06-07T09:33:28Z</time>
      </trkpt>
      <trkpt lat="44.41407" lon="5.71233">
        <ele>647</ele>
        <time>2019-06-07T09:33:29Z</time>
      </trkpt>
      <trkpt lat="44.41402" lon="5.71235">
        <ele>647</ele>
        <time>2019-06-07T09:33:30Z</time>
      </trkpt>
      <trkpt lat="44.41397" lon="5.71236">
        <ele>647</ele>
        <time>2019-06-07T09:33:31Z</time>
      </trkpt>
      <trkpt lat="44.41392" lon="5.71237">
        <ele>647</ele>
        <time>2019-06-07T09:33:32Z</time>
      </trkpt>
      <trkpt lat="44.41387" lon="5.71239">
        <ele>647</ele>
        <time>2019-06-07T09:33:33Z</time>
      </trkpt>
      <trkpt lat="44.41382" lon="5.7124">
        <ele>647</ele>
        <time>2019-06-07T09:33:34Z</time>
      </trkpt>
      <trkpt lat="44.41377" lon="5.71242">
        <ele>647</ele>
        <time>2019-06-07T09:33:35Z</time>
      </trkpt>
      <trkpt lat="44.41372" lon="5.71243">
        <ele>647</ele>
        <time>2019-06-07T09:33:36Z</time>
      </trkpt>
      <trkpt lat="44.41367" lon="5.71245">
        <ele>647</ele>
        <time>2019-06-07T09:33:37Z</time>
      </trkpt>
      <trkpt lat="44.41362" lon="5.71246">
        <ele>647</ele>
        <time>2019-06-07T09:33:38Z</time>
      </trkpt>
      <trkpt lat="44.41357" lon="5.71247">
        <ele>647</ele>
        <time>2019-06-07T09:33:39Z</time>
      </trkpt>
      <trkpt lat="44.41352" lon="5.71249">
        <ele>647</ele>
        <time>2019-06-07T09:33:40Z</time>
      </trkpt>
      <trkpt lat="44.41347" lon="5.71251">
        <ele>647</ele>
        <time>2019-06-07T09:33:41Z</time>
      </trkpt>
      <trkpt lat="44.41342" lon="5.71253">
        <ele>647</ele>
        <time>2019-06-07T09:33:42Z</time>
      </trkpt>
      <trkpt lat="44.41337" lon="5.71255">
        <ele>647</ele>
        <time>2019-06-07T09:33:43Z</time>
      </trkpt>
      <trkpt lat="44.41332" lon="5.71258">
        <ele>647</ele>
        <time>2019-06-07T09:33:44Z</time>
      </trkpt>
      <trkpt lat="44.41328" lon="5.7126">
        <ele>647</ele>
        <time>2019-06-07T09:33:45Z</time>
      </trkpt>
      <trkpt lat="44.41323" lon="5.71264">
        <ele>647</ele>
        <time>2019-06-07T09:33:46Z</time>
      </trkpt>
      <trkpt lat="44.41318" lon="5.71268">
        <ele>647</ele>
        <time>2019-06-07T09:33:47Z</time>
      </trkpt>
      <trkpt lat="44.41313" lon="5.71272">
        <ele>647</ele>
        <time>2019-06-07T09:33:48Z</time>
      </trkpt>
      <trkpt lat="44.41309" lon="5.71275">
        <ele>647</ele>
        <time>2019-06-07T09:33:49Z</time>
      </trkpt>
      <trkpt lat="44.41304" lon="5.71279">
        <ele>647</ele>
        <time>2019-06-07T09:33:50Z</time>
      </trkpt>
      <trkpt lat="44.413" lon="5.71283">
        <ele>647</ele>
        <time>2019-06-07T09:33:51Z</time>
      </trkpt>
      <trkpt lat="44.41296" lon="5.71287">
        <ele>647</ele>
        <time>2019-06-07T09:33:52Z</time>
      </trkpt>
      <trkpt lat="44.41291" lon="5.71291">
        <ele>647</ele>
        <time>2019-06-07T09:33:53Z</time>
      </trkpt>
      <trkpt lat="44.41287" lon="5.71294">
        <ele>647</ele>
        <time>2019-06-07T09:33:54Z</time>
      </trkpt>
      <trkpt lat="44.41282" lon="5.71298">
        <ele>647</ele>
        <time>2019-06-07T09:33:55Z</time>
      </trkpt>
      <trkpt lat="44.41278" lon="5.71302">
        <ele>647</ele>
        <time>2019-06-07T09:33:56Z</time>
      </trkpt>
      <trkpt lat="44.41273" lon="5.71306">
        <ele>647</ele>
        <time>2019-06-07T09:33:57Z</time>
      </trkpt>
      <trkpt lat="44.41269" lon="5.7131">
        <ele>647</ele>
        <time>2019-06-07T09:33:58Z</time>
      </trkpt>
      <trkpt lat="44.41264" lon="5.71313">
        <ele>647</ele>
        <time>2019-06-07T09:33:59Z</time>
      </trkpt>
      <trkpt lat="44.4126" lon="5.71317">
        <ele>647</ele>
        <time>2019-06-07T09:34:00Z</time>
      </trkpt>
      <trkpt lat="44.41256" lon="5.7132">
        <ele>647</ele>
        <time>2019-06-07T09:34:01Z</time>
      </trkpt>
      <trkpt lat="44.41252" lon="5.71324">
        <ele>647</ele>
        <time>2019-06-07T09:34:02Z</time>
      </trkpt>
      <trkpt lat="44.41248" lon="5.71327">
        <ele>647</ele>
        <time>2019-06-07T09:34:03Z</time>
      </trkpt>
      <trkpt lat="44.41243" lon="5.7133">
        <ele>647</ele>
        <time>2019-06-07T09:34:04Z</time>
      </trkpt>
      <trkpt lat="44.41239" lon="5.71334">
        <ele>647</ele>
        <time>2019-06-07T09:34:05Z</time>
      </trkpt>
      <trkpt lat="44.41235" lon="5.71337">
        <ele>647</ele>
        <time>2019-06-07T09:34:06Z</time>
      </trkpt>
      <trkpt lat="44.41231" lon="5.71341">
        <ele>647</ele>
        <time>2019-06-07T09:34:07Z</time>
      </trkpt>
      <trkpt lat="44.41226" lon="5.71344">
        <ele>647</ele>
        <time>2019-06-07T09:34:08Z</time>
      </trkpt>
      <trkpt lat="44.41222" lon="5.71348">
        <ele>647</ele>
        <time>2019-06-07T09:34:09Z</time>
      </trkpt>
      <trkpt lat="44.41217" lon="5.71351">
        <ele>647</ele>
        <time>2019-06-07T09:34:10Z</time>
      </trkpt>
      <trkpt lat="44.41213" lon="5.71355">
        <ele>647</ele>
        <time>2019-06-07T09:34:11Z</time>
      </trkpt>
      <trkpt lat="44.41209" lon="5.71359">
        <ele>647</ele>
        <time>2019-06-07T09:34:12Z</time>
      </trkpt>
      <trkpt lat="44.41204" lon="5.71362">
        <ele>647</ele>
        <time>2019-06-07T09:34:13Z</time>
      </trkpt>
      <trkpt lat="44.412" lon="5.71366">
        <ele>647</ele>
        <time>2019-06-07T09:34:14Z</time>
      </trkpt>
      <trkpt lat="44.41195" lon="5.71369">
        <ele>647</ele>
        <time>2019-06-07T09:34:15Z</time>
      </trkpt>
      <trkpt lat="44.41191" lon="5.71373">
        <ele>647</ele>
        <time>2019-06-07T09:34:16Z</time>
      </trkpt>
      <trkpt lat="44.41187" lon="5.71377">
        <ele>647</ele>
        <time>2019-06-07T09:34:17Z</time>
      </trkpt>
      <trkpt lat="44.41182" lon="5.71381">
        <ele>647</ele>
        <time>2019-06-07T09:34:18Z</time>
      </trkpt>
      <trkpt lat="44.41178" lon="5.71384">
        <ele>647</ele>
        <time>2019-06-07T09:34:19Z</time>
      </trkpt>
      <trkpt lat="44.41173" lon="5.71388">
        <ele>647</ele>
        <time>2019-06-07T09:34:20Z</time>
      </trkpt>
      <trkpt lat="44.41168" lon="5.71392">
        <ele>647</ele>
        <time>2019-06-07T09:34:21Z</time>
      </trkpt>
      <trkpt lat="44.41164" lon="5.71395">
        <ele>647</ele>
        <time>2019-06-07T09:34:22Z</time>
      </trkpt>
      <trkpt lat="44.41159" lon="5.71397">
        <ele>647</ele>
        <time>2019-06-07T09:34:23Z</time>
      </trkpt>
      <trkpt lat="44.41153" lon="5.714">
        <ele>647</ele>
        <time>2019-06-07T09:34:24Z</time>
      </trkpt>
      <trkpt lat="44.41149" lon="5.71403">
        <ele>647</ele>
        <time>2019-06-07T09:34:25Z</time>
      </trkpt>
      <trkpt lat="44.41144" lon="5.71405">
        <ele>647</ele>
        <time>2019-06-07T09:34:26Z</time>
      </trkpt>
      <trkpt lat="44.4114" lon="5.71407">
        <ele>647</ele>
        <time>2019-06-07T09:34:27Z</time>
      </trkpt>
      <trkpt lat="44.41135" lon="5.71409">
        <ele>647</ele>
        <time>2019-06-07T09:34:28Z</time>
      </trkpt>
      <trkpt lat="44.41132" lon="5.71411">
        <ele>647</ele>
        <time>2019-06-07T09:34:29Z</time>
      </trkpt>
      <trkpt lat="44.41127" lon="5.71412">
        <ele>647</ele>
        <time>2019-06-07T09:34:30Z</time>
      </trkpt>
      <trkpt lat="44.41123" lon="5.71414">
        <ele>647</ele>
        <time>2019-06-07T09:34:31Z</time>
      </trkpt>
      <trkpt lat="44.41119" lon="5.71416">
        <ele>647</ele>
        <time>2019-06-07T09:34:32Z</time>
      </trkpt>
      <trkpt lat="44.41114" lon="5.71418">
        <ele>647</ele>
        <time>2019-06-07T09:34:33Z</time>
      </trkpt>
      <trkpt lat="44.41111" lon="5.71419">
        <ele>647</ele>
        <time>2019-06-07T09:34:34Z</time>
      </trkpt>
      <trkpt lat="44.41106" lon="5.71421">
        <ele>647</ele>
        <time>2019-06-07T09:34:35Z</time>
      </trkpt>
      <trkpt lat="44.41103" lon="5.71422">
        <ele>647</ele>
        <time>2019-06-07T09:34:36Z</time>
      </trkpt>
      <trkpt lat="44.41099" lon="5.71424">
        <ele>647</ele>
        <time>2019-06-07T09:34:37Z</time>
      </trkpt>
      <trkpt lat="44.41095" lon="5.71425">
        <ele>647</ele>
        <time>2019-06-07T09:34:38Z</time>
      </trkpt>
      <trkpt lat="44.41092" lon="5.71427">
        <ele>647</ele>
        <time>2019-06-07T09:34:39Z</time>
      </trkpt>
      <trkpt lat="44.41088" lon="5.71428">
        <ele>647</ele>
        <time>2019-06-07T09:34:40Z</time>
      </trkpt>
      <trkpt lat="44.41084" lon="5.7143">
        <ele>647</ele>
        <time>2019-06-07T09:34:41Z</time>
      </trkpt>
      <trkpt lat="44.41081" lon="5.71432">
        <ele>647</ele>
        <time>2019-06-07T09:34:42Z</time>
      </trkpt>
      <trkpt lat="44.41077" lon="5.71434">
        <ele>647</ele>
        <time>2019-06-07T09:34:43Z</time>
      </trkpt>
      <trkpt lat="44.41073" lon="5.71435">
        <ele>647</ele>
        <time>2019-06-07T09:34:44Z</time>
      </trkpt>
      <trkpt lat="44.4107" lon="5.71436">
        <ele>647</ele>
        <time>2019-06-07T09:34:45Z</time>
      </trkpt>
      <trkpt lat="44.41066" lon="5.71437">
        <ele>647</ele>
        <time>2019-06-07T09:34:46Z</time>
      </trkpt>
      <trkpt lat="44.41063" lon="5.71439">
        <ele>647</ele>
        <time>2019-06-07T09:34:47Z</time>
      </trkpt>
      <trkpt lat="44.41059" lon="5.71441">
        <ele>647</ele>
        <time>2019-06-07T09:34:48Z</time>
      </trkpt>
      <trkpt lat="44.41056" lon="5.71442">
        <ele>647</ele>
        <time>2019-06-07T09:34:49Z</time>
      </trkpt>
      <trkpt lat="44.41052" lon="5.71444">
        <ele>647</ele>
        <time>2019-06-07T09:34:50Z</time>
      </trkpt>
      <trkpt lat="44.41048" lon="5.71445">
        <ele>647</ele>
        <time>2019-06-07T09:34:51Z</time>
      </trkpt>
      <trkpt lat="44.41045" lon="5.71447">
        <ele>647</ele>
        <time>2019-06-07T09:34:52Z</time>
      </trkpt>
      <trkpt lat="44.41042" lon="5.71449">
        <ele>647</ele>
        <time>2019-06-07T09:34:53Z</time>
      </trkpt>
      <trkpt lat="44.41038" lon="5.7145">
        <ele>647</ele>
        <time>2019-06-07T09:34:54Z</time>
      </trkpt>
      <trkpt lat="44.41035" lon="5.71451">
        <ele>647</ele>
        <time>2019-06-07T09:34:55Z</time>
      </trkpt>
      <trkpt lat="44.41032" lon="5.71453">
        <ele>647</ele>
        <time>2019-06-07T09:34:56Z</time>
      </trkpt>
      <trkpt lat="44.41028" lon="5.71454">
        <ele>647</ele>
        <time>2019-06-07T09:34:57Z</time>
      </trkpt>
      <trkpt lat="44.41025" lon="5.71456">
        <ele>647</ele>
        <time>2019-06-07T09:34:58Z</time>
      </trkpt>
      <trkpt lat="44.41021" lon="5.71457">
        <ele>647</ele>
        <time>2019-06-07T09:34:59Z</time>
      </trkpt>
      <trkpt lat="44.41018" lon="5.71458">
        <ele>647</ele>
        <time>2019-06-07T09:35:00Z</time>
      </trkpt>
      <trkpt lat="44.41013" lon="5.71459">
        <ele>647</ele>
        <time>2019-06-07T09:35:01Z</time>
      </trkpt>
      <trkpt lat="44.4101" lon="5.7146">
        <ele>647</ele>
        <time>2019-06-07T09:35:02Z</time>
      </trkpt>
      <trkpt lat="44.41005" lon="5.71462">
        <ele>647</ele>
        <time>2019-06-07T09:35:03Z</time>
      </trkpt>
      <trkpt lat="44.41001" lon="5.71462">
        <ele>647</ele>
        <time>2019-06-07T09:35:04Z</time>
      </trkpt>
      <trkpt lat="44.40997" lon="5.71463">
        <ele>647</ele>
        <time>2019-06-07T09:35:05Z</time>
      </trkpt>
      <trkpt lat="44.40992" lon="5.71464">
        <ele>647</ele>
        <time>2019-06-07T09:35:06Z</time>
      </trkpt>
      <trkpt lat="44.40987" lon="5.71466">
        <ele>647</ele>
        <time>2019-06-07T09:35:07Z</time>
      </trkpt>
      <trkpt lat="44.40982" lon="5.71467">
        <ele>647</ele>
        <time>2019-06-07T09:35:08Z</time>
      </trkpt>
      <trkpt lat="44.40977" lon="5.71468">
        <ele>647</ele>
        <time>2019-06-07T09:35:09Z</time>
      </trkpt>
      <trkpt lat="44.40972" lon="5.7147">
        <ele>647</ele>
        <time>2019-06-07T09:35:10Z</time>
      </trkpt>
      <trkpt lat="44.40967" lon="5.71471">
        <ele>647</ele>
        <time>2019-06-07T09:35:11Z</time>
      </trkpt>
      <trkpt lat="44.40962" lon="5.71473">
        <ele>647</ele>
        <time>2019-06-07T09:35:12Z</time>
      </trkpt>
      <trkpt lat="44.40956" lon="5.71474">
        <ele>647</ele>
        <time>2019-06-07T09:35:13Z</time>
      </trkpt>
      <trkpt lat="44.40951" lon="5.71475">
        <ele>647</ele>
        <time>2019-06-07T09:35:14Z</time>
      </trkpt>
      <trkpt lat="44.40945" lon="5.71476">
        <ele>647</ele>
        <time>2019-06-07T09:35:15Z</time>
      </trkpt>
      <trkpt lat="44.40939" lon="5.71478">
        <ele>647</ele>
        <time>2019-06-07T09:35:16Z</time>
      </trkpt>
      <trkpt lat="44.40933" lon="5.71479">
        <ele>647</ele>
        <time>2019-06-07T09:35:17Z</time>
      </trkpt>
      <trkpt lat="44.40927" lon="5.71481">
        <ele>647</ele>
        <time>2019-06-07T09:35:18Z</time>
      </trkpt>
      <trkpt lat="44.40921" lon="5.71482">
        <ele>647</ele>
        <time>2019-06-07T09:35:19Z</time>
      </trkpt>
      <trkpt lat="44.40915" lon="5.71484">
        <ele>647</ele>
        <time>2019-06-07T09:35:20Z</time>
      </trkpt>
      <trkpt lat="44.40909" lon="5.71485">
        <ele>647</ele>
        <time>2019-06-07T09:35:21Z</time>
      </trkpt>
      <trkpt lat="44.40903" lon="5.71487">
        <ele>647</ele>
        <time>2019-06-07T09:35:22Z</time>
      </trkpt>
      <trkpt lat="44.40897" lon="5.71488">
        <ele>647</ele>
        <time>2019-06-07T09:35:23Z</time>
      </trkpt>
      <trkpt lat="44.40891" lon="5.7149">
        <ele>647</ele>
        <time>2019-06-07T09:35:24Z</time>
      </trkpt>
      <trkpt lat="44.40885" lon="5.71491">
        <ele>647</ele>
        <time>2019-06-07T09:35:25Z</time>
      </trkpt>
      <trkpt lat="44.40878" lon="5.71493">
        <ele>647</ele>
        <time>2019-06-07T09:35:26Z</time>
      </trkpt>
      <trkpt lat="44.40872" lon="5.71494">
        <ele>647</ele>
        <time>2019-06-07T09:35:27Z</time>
      </trkpt>
      <trkpt lat="44.40866" lon="5.71496">
        <ele>647</ele>
        <time>2019-06-07T09:35:28Z</time>
      </trkpt>
      <trkpt lat="44.4086" lon="5.71497">
        <ele>647</ele>
        <time>2019-06-07T09:35:29Z</time>
      </trkpt>
      <trkpt lat="44.40854" lon="5.71499">
        <ele>647</ele>
        <time>2019-06-07T09:35:30Z</time>
      </trkpt>
      <trkpt lat="44.40848" lon="5.715">
        <ele>647</ele>
        <time>2019-06-07T09:35:31Z</time>
      </trkpt>
      <trkpt lat="44.40842" lon="5.71501">
        <ele>647</ele>
        <time>2019-06-07T09:35:32Z</time>
      </trkpt>
      <trkpt lat="44.40837" lon="5.71503">
        <ele>647</ele>
        <time>2019-06-07T09:35:33Z</time>
      </trkpt>
      <trkpt lat="44.40831" lon="5.71504">
        <ele>647</ele>
        <time>2019-06-07T09:35:34Z</time>
      </trkpt>
      <trkpt lat="44.40826" lon="5.71506">
        <ele>647</ele>
        <time>2019-06-07T09:35:35Z</time>
      </trkpt>
      <trkpt lat="44.4082" lon="5.71507">
        <ele>647</ele>
        <time>2019-06-07T09:35:36Z</time>
      </trkpt>
      <trkpt lat="44.40815" lon="5.71508">
        <ele>647</ele>
        <time>2019-06-07T09:35:37Z</time>
      </trkpt>
      <trkpt lat="44.4081" lon="5.7151">
        <ele>647</ele>
        <time>2019-06-07T09:35:38Z</time>
      </trkpt>
      <trkpt lat="44.40805" lon="5.71511">
        <ele>647</ele>
        <time>2019-06-07T09:35:39Z</time>
      </trkpt>
      <trkpt lat="44.40799" lon="5.71513">
        <ele>647</ele>
        <time>2019-06-07T09:35:40Z</time>
      </trkpt>
      <trkpt lat="44.40794" lon="5.71514">
        <ele>647</ele>
        <time>2019-06-07T09:35:41Z</time>
      </trkpt>
      <trkpt lat="44.40789" lon="5.71516">
        <ele>647</ele>
        <time>2019-06-07T09:35:42Z</time>
      </trkpt>
      <trkpt lat="44.40784" lon="5.71517">
        <ele>647</ele>
        <time>2019-06-07T09:35:43Z</time>
      </trkpt>
      <trkpt lat="44.40779" lon="5.71519">
        <ele>647</ele>
        <time>2019-06-07T09:35:44Z</time>
      </trkpt>
      <trkpt lat="44.40774" lon="5.71521">
        <ele>647</ele>
        <time>2019-06-07T09:35:45Z</time>
      </trkpt>
      <trkpt lat="44.40769" lon="5.71523">
        <ele>647</ele>
        <time>2019-06-07T09:35:46Z</time>
      </trkpt>
      <trkpt lat="44.40764" lon="5.71525">
        <ele>647</ele>
        <time>2019-06-07T09:35:47Z</time>
      </trkpt>
      <trkpt lat="44.4076" lon="5.71528">
        <ele>647</ele>
        <time>2019-06-07T09:35:48Z</time>
      </trkpt>
      <trkpt lat="44.40755" lon="5.7153">
        <ele>647</ele>
        <time>2019-06-07T09:35:49Z</time>
      </trkpt>
      <trkpt lat="44.40751" lon="5.71533">
        <ele>647</ele>
        <time>2019-06-07T09:35:50Z</time>
      </trkpt>
      <trkpt lat="44.40747" lon="5.71536">
        <ele>647</ele>
        <time>2019-06-07T09:35:51Z</time>
      </trkpt>
      <trkpt lat="44.40743" lon="5.71539">
        <ele>647</ele>
        <time>2019-06-07T09:35:52Z</time>
      </trkpt>
      <trkpt lat="44.40739" lon="5.71542">
        <ele>647</ele>
        <time>2019-06-07T09:35:53Z</time>
      </trkpt>
      <trkpt lat="44.40735" lon="5.71545">
        <ele>647</ele>
        <time>2019-06-07T09:35:54Z</time>
      </trkpt>
      <trkpt lat="44.40732" lon="5.71547">
        <ele>647</ele>
        <time>2019-06-07T09:35:55Z</time>
      </trkpt>
      <trkpt lat="44.40728" lon="5.7155">
        <ele>647</ele>
        <time>2019-06-07T09:35:56Z</time>
      </trkpt>
      <trkpt lat="44.40725" lon="5.71553">
        <ele>647</ele>
        <time>2019-06-07T09:35:57Z</time>
      </trkpt>
      <trkpt lat="44.40722" lon="5.71556">
        <ele>647</ele>
        <time>2019-06-07T09:35:58Z</time>
      </trkpt>
      <trkpt lat="44.40718" lon="5.71559">
        <ele>647</ele>
        <time>2019-06-07T09:35:59Z</time>
      </trkpt>
      <trkpt lat="44.40715" lon="5.71563">
        <ele>647</ele>
        <time>2019-06-07T09:36:00Z</time>
      </trkpt>
      <trkpt lat="44.40712" lon="5.71567">
        <ele>647</ele>
        <time>2019-06-07T09:36:01Z</time>
      </trkpt>
      <trkpt lat="44.40709" lon="5.7157">
        <ele>647</ele>
        <time>2019-06-07T09:36:02Z</time>
      </trkpt>
      <trkpt lat="44.40706" lon="5.71574">
        <ele>647</ele>
        <time>2019-06-07T09:36:03Z</time>
      </trkpt>
      <trkpt lat="44.40703" lon="5.71577">
        <ele>647</ele>
        <time>2019-06-07T09:36:04Z</time>
      </trkpt>
      <trkpt lat="44.407" lon="5.71581">
        <ele>647</ele>
        <time>2019-06-07T09:36:05Z</time>
      </trkpt>
      <trkpt lat="44.40697" lon="5.71585">
        <ele>647</ele>
        <time>2019-06-07T09:36:06Z</time>
      </trkpt>
      <trkpt lat="44.40694" lon="5.71589">
        <ele>647</ele>
        <time>2019-06-07T09:36:07Z</time>
      </trkpt>
      <trkpt lat="44.4069" lon="5.71593">
        <ele>647</ele>
        <time>2019-06-07T09:36:08Z</time>
      </trkpt>
      <trkpt lat="44.40686" lon="5.71597">
        <ele>647</ele>
        <time>2019-06-07T09:36:09Z</time>
      </trkpt>
      <trkpt lat="44.40683" lon="5.71601">
        <ele>647</ele>
        <time>2019-06-07T09:36:10Z</time>
      </trkpt>
      <trkpt lat="44.40679" lon="5.71605">
        <ele>648</ele>
        <time>2019-06-07T09:36:11Z</time>
      </trkpt>
      <trkpt lat="44.40675" lon="5.71609">
        <ele>648</ele>
        <time>2019-06-07T09:36:12Z</time>
      </trkpt>
      <trkpt lat="44.40671" lon="5.71613">
        <ele>648</ele>
        <time>2019-06-07T09:36:13Z</time>
      </trkpt>
      <trkpt lat="44.40667" lon="5.71618">
        <ele>648</ele>
        <time>2019-06-07T09:36:14Z</time>
      </trkpt>
      <trkpt lat="44.40662" lon="5.71623">
        <ele>648</ele>
        <time>2019-06-07T09:36:15Z</time>
      </trkpt>
      <trkpt lat="44.40658" lon="5.71628">
        <ele>648</ele>
        <time>2019-06-07T09:36:16Z</time>
      </trkpt>
      <trkpt lat="44.40653" lon="5.71633">
        <ele>648</ele>
        <time>2019-06-07T09:36:17Z</time>
      </trkpt>
      <trkpt lat="44.40648" lon="5.71638">
        <ele>648</ele>
        <time>2019-06-07T09:36:18Z</time>
      </trkpt>
      <trkpt lat="44.40643" lon="5.71644">
        <ele>648</ele>
        <time>2019-06-07T09:36:19Z</time>
      </trkpt>
      <trkpt lat="44.40637" lon="5.7165">
        <ele>648</ele>
        <time>2019-06-07T09:36:20Z</time>
      </trkpt>
      <trkpt lat="44.40632" lon="5.71656">
        <ele>648</ele>
        <time>2019-06-07T09:36:21Z</time>
      </trkpt>
      <trkpt lat="44.40627" lon="5.71662">
        <ele>648</ele>
        <time>2019-06-07T09:36:22Z</time>
      </trkpt>
      <trkpt lat="44.40621" lon="5.71668">
        <ele>648</ele>
        <time>2019-06-07T09:36:23Z</time>
      </trkpt>
      <trkpt lat="44.40616" lon="5.71674">
        <ele>648</ele>
        <time>2019-06-07T09:36:24Z</time>
      </trkpt>
      <trkpt lat="44.40611" lon="5.7168">
        <ele>648</ele>
        <time>2019-06-07T09:36:25Z</time>
      </trkpt>
      <trkpt lat="44.40606" lon="5.71686">
        <ele>648</ele>
        <time>2019-06-07T09:36:26Z</time>
      </trkpt>
      <trkpt lat="44.40601" lon="5.71692">
        <ele>648</ele>
        <time>2019-06-07T09:36:27Z</time>
      </trkpt>
      <trkpt lat="44.40597" lon="5.71698">
        <ele>648</ele>
        <time>2019-06-07T09:36:28Z</time>
      </trkpt>
      <trkpt lat="44.40592" lon="5.71704">
        <ele>648</ele>
        <time>2019-06-07T09:36:29Z</time>
      </trkpt>
      <trkpt lat="44.40587" lon="5.7171">
        <ele>648</ele>
        <time>2019-06-07T09:36:30Z</time>
      </trkpt>
      <trkpt lat="44.40583" lon="5.71716">
        <ele>648</ele>
        <time>2019-06-07T09:36:31Z</time>
      </trkpt>
      <trkpt lat="44.40578" lon="5.71722">
        <ele>648</ele>
        <time>2019-06-07T09:36:32Z</time>
      </trkpt>
      <trkpt lat="44.40574" lon="5.71728">
        <ele>648</ele>
        <time>2019-06-07T09:36:33Z</time>
      </trkpt>
      <trkpt lat="44.4057" lon="5.71734">
        <ele>648</ele>
        <time>2019-06-07T09:36:34Z</time>
      </trkpt>
      <trkpt lat="44.40566" lon="5.7174">
        <ele>648</ele>
        <time>2019-06-07T09:36:35Z</time>
      </trkpt>
      <trkpt lat="44.40562" lon="5.71746">
        <ele>648</ele>
        <time>2019-06-07T09:36:36Z</time>
      </trkpt>
      <trkpt lat="44.40558" lon="5.71752">
        <ele>648</ele>
        <time>2019-06-07T09:36:37Z</time>
      </trkpt>
      <trkpt lat="44.40554" lon="5.71758">
        <ele>648</ele>
        <time>2019-06-07T09:36:38Z</time>
      </trkpt>
      <trkpt lat="44.4055" lon="5.71764">
        <ele>648</ele>
        <time>2019-06-07T09:36:39Z</time>
      </trkpt>
      <trkpt lat="44.40546" lon="5.7177">
        <ele>648</ele>
        <time>2019-06-07T09:36:40Z</time>
      </trkpt>
      <trkpt lat="44.40542" lon="5.71776">
        <ele>648</ele>
        <time>2019-06-07T09:36:41Z</time>
      </trkpt>
      <trkpt lat="44.40538" lon="5.71783">
        <ele>648</ele>
        <time>2019-06-07T09:36:42Z</time>
      </trkpt>
      <trkpt lat="44.40534" lon="5.71789">
        <ele>648</ele>
        <time>2019-06-07T09:36:43Z</time>
      </trkpt>
      <trkpt lat="44.40529" lon="5.71795">
        <ele>648</ele>
        <time>2019-06-07T09:36:44Z</time>
      </trkpt>
      <trkpt lat="44.40525" lon="5.71801">
        <ele>648</ele>
        <time>2019-06-07T09:36:45Z</time>
      </trkpt>
      <trkpt lat="44.4052" lon="5.71807">
        <ele>648</ele>
        <time>2019-06-07T09:36:46Z</time>
      </trkpt>
      <trkpt lat="44.40516" lon="5.71813">
        <ele>648</ele>
        <time>2019-06-07T09:36:47Z</time>
      </trkpt>
      <trkpt lat="44.40512" lon="5.71819">
        <ele>648</ele>
        <time>2019-06-07T09:36:48Z</time>
      </trkpt>
      <trkpt lat="44.40508" lon="5.71825">
        <ele>648</ele>
        <time>2019-06-07T09:36:49Z</time>
      </trkpt>
      <trkpt lat="44.40505" lon="5.71831">
        <ele>648</ele>
        <time>2019-06-07T09:36:50Z</time>
      </trkpt>
      <trkpt lat="44.40501" lon="5.71837">
        <ele>648</ele>
        <time>2019-06-07T09:36:51Z</time>
      </trkpt>
      <trkpt lat="44.40497" lon="5.71842">
        <ele>648</ele>
        <time>2019-06-07T09:36:52Z</time>
      </trkpt>
      <trkpt lat="44.40493" lon="5.71847">
        <ele>648</ele>
        <time>2019-06-07T09:36:53Z</time>
      </trkpt>
      <trkpt lat="44.4049" lon="5.71853">
        <ele>648</ele>
        <time>2019-06-07T09:36:54Z</time>
      </trkpt>
      <trkpt lat="44.40486" lon="5.71858">
        <ele>648</ele>
        <time>2019-06-07T09:36:55Z</time>
      </trkpt>
      <trkpt lat="44.40482" lon="5.71863">
        <ele>648</ele>
        <time>2019-06-07T09:36:56Z</time>
      </trkpt>
      <trkpt lat="44.40478" lon="5.71869">
        <ele>648</ele>
        <time>2019-06-07T09:36:57Z</time>
      </trkpt>
      <trkpt lat="44.40474" lon="5.71874">
        <ele>648</ele>
        <time>2019-06-07T09:36:58Z</time>
      </trkpt>
      <trkpt lat="44.4047" lon="5.71879">
        <ele>648</ele>
        <time>2019-06-07T09:36:59Z</time>
      </trkpt>
      <trkpt lat="44.40466" lon="5.71884">
        <ele>648</ele>
        <time>2019-06-07T09:37:00Z</time>
      </trkpt>
      <trkpt lat="44.40461" lon="5.7189">
        <ele>648</ele>
        <time>2019-06-07T09:37:01Z</time>
      </trkpt>
      <trkpt lat="44.40457" lon="5.71895">
        <ele>648</ele>
        <time>2019-06-07T09:37:02Z</time>
      </trkpt>
      <trkpt lat="44.40452" lon="5.719">
        <ele>648</ele>
        <time>2019-06-07T09:37:03Z</time>
      </trkpt>
      <trkpt lat="44.40447" lon="5.71905">
        <ele>648</ele>
        <time>2019-06-07T09:37:04Z</time>
      </trkpt>
      <trkpt lat="44.40443" lon="5.7191">
        <ele>648</ele>
        <time>2019-06-07T09:37:05Z</time>
      </trkpt>
      <trkpt lat="44.40438" lon="5.71915">
        <ele>648</ele>
        <time>2019-06-07T09:37:06Z</time>
      </trkpt>
      <trkpt lat="44.40433" lon="5.7192">
        <ele>648</ele>
        <time>2019-06-07T09:37:07Z</time>
      </trkpt>
      <trkpt lat="44.40429" lon="5.71925">
        <ele>648</ele>
        <time>2019-06-07T09:37:08Z</time>
      </trkpt>
      <trkpt lat="44.40424" lon="5.7193">
        <ele>648</ele>
        <time>2019-06-07T09:37:09Z</time>
      </trkpt>
      <trkpt lat="44.4042" lon="5.71935">
        <ele>648</ele>
        <time>2019-06-07T09:37:10Z</time>
      </trkpt>
      <trkpt lat="44.40415" lon="5.7194">
        <ele>648</ele>
        <time>2019-06-07T09:37:11Z</time>
      </trkpt>
      <trkpt lat="44.4041" lon="5.71944">
        <ele>648</ele>
        <time>2019-06-07T09:37:12Z</time>
      </trkpt>
      <trkpt lat="44.40406" lon="5.71949">
        <ele>648</ele>
        <time>2019-06-07T09:37:13Z</time>
      </trkpt>
      <trkpt lat="44.40401" lon="5.71953">
        <ele>648</ele>
        <time>2019-06-07T09:37:14Z</time>
      </trkpt>
      <trkpt lat="44.40396" lon="5.71958">
        <ele>648</ele>
        <time>2019-06-07T09:37:15Z</time>
      </trkpt>
      <trkpt lat="44.40391" lon="5.71963">
        <ele>648</ele>
        <time>2019-06-07T09:37:16Z</time>
      </trkpt>
      <trkpt lat="44.40387" lon="5.71968">
        <ele>648</ele>
        <time>2019-06-07T09:37:17Z</time>
      </trkpt>
      <trkpt lat="44.40382" lon="5.71973">
        <ele>648</ele>
        <time>2019-06-07T09:37:18Z</time>
      </trkpt>
      <trkpt lat="44.40378" lon="5.71977">
        <ele>648</ele>
        <time>2019-06-07T09:37:19Z</time>
      </trkpt>
      <trkpt lat="44.40374" lon="5.71982">
        <ele>648</ele>
        <time>2019-06-07T09:37:20Z</time>
      </trkpt>
      <trkpt lat="44.4037" lon="5.71986">
        <ele>648</ele>
        <time>2019-06-07T09:37:21Z</time>
      </trkpt>
      <trkpt lat="44.40366" lon="5.71991">
        <ele>648</ele>
        <time>2019-06-07T09:37:22Z</time>
      </trkpt>
      <trkpt lat="44.40361" lon="5.71996">
        <ele>648</ele>
        <time>2019-06-07T09:37:23Z</time>
      </trkpt>
      <trkpt lat="44.40357" lon="5.72001">
        <ele>648</ele>
        <time>2019-06-07T09:37:24Z</time>
      </trkpt>
      <trkpt lat="44.40353" lon="5.72006">
        <ele>648</ele>
        <time>2019-06-07T09:37:25Z</time>
      </trkpt>
      <trkpt lat="44.4035" lon="5.72011">
        <ele>648</ele>
        <time>2019-06-07T09:37:26Z</time>
      </trkpt>
      <trkpt lat="44.40346" lon="5.72015">
        <ele>648</ele>
        <time>2019-06-07T09:37:27Z</time>
      </trkpt>
      <trkpt lat="44.40342" lon="5.7202">
        <ele>648</ele>
        <time>2019-06-07T09:37:28Z</time>
      </trkpt>
      <trkpt lat="44.40338" lon="5.72026">
        <ele>648</ele>
        <time>2019-06-07T09:37:29Z</time>
      </trkpt>
      <trkpt lat="44.40334" lon="5.72031">
        <ele>648</ele>
        <time>2019-06-07T09:37:30Z</time>
      </trkpt>
      <trkpt lat="44.4033" lon="5.72037">
        <ele>648</ele>
        <time>2019-06-07T09:37:31Z</time>
      </trkpt>
      <trkpt lat="44.40327" lon="5.72041">
        <ele>648</ele>
        <time>2019-06-07T09:37:32Z</time>
      </trkpt>
      <trkpt lat="44.40323" lon="5.72046">
        <ele>648</ele>
        <time>2019-06-07T09:37:33Z</time>
      </trkpt>
      <trkpt lat="44.40319" lon="5.72051">
        <ele>648</ele>
        <time>2019-06-07T09:37:34Z</time>
      </trkpt>
      <trkpt lat="44.40315" lon="5.72055">
        <ele>648</ele>
        <time>2019-06-07T09:37:35Z</time>
      </trkpt>
      <trkpt lat="44.40312" lon="5.7206">
        <ele>648</ele>
        <time>2019-06-07T09:37:36Z</time>
      </trkpt>
      <trkpt lat="44.40308" lon="5.72065">
        <ele>648</ele>
        <time>2019-06-07T09:37:37Z</time>
      </trkpt>
      <trkpt lat="44.40304" lon="5.7207">
        <ele>648</ele>
        <time>2019-06-07T09:37:38Z</time>
      </trkpt>
      <trkpt lat="44.403" lon="5.72075">
        <ele>648</ele>
        <time>2019-06-07T09:37:39Z</time>
      </trkpt>
      <trkpt lat="44.40297" lon="5.7208">
        <ele>648</ele>
        <time>2019-06-07T09:37:40Z</time>
      </trkpt>
      <trkpt lat="44.40293" lon="5.72085">
        <ele>648</ele>
        <time>2019-06-07T09:37:41Z</time>
      </trkpt>
      <trkpt lat="44.40289" lon="5.72089">
        <ele>648</ele>
        <time>2019-06-07T09:37:42Z</time>
      </trkpt>
      <trkpt lat="44.40285" lon="5.72094">
        <ele>648</ele>
        <time>2019-06-07T09:37:43Z</time>
      </trkpt>
      <trkpt lat="44.40282" lon="5.72098">
        <ele>648</ele>
        <time>2019-06-07T09:37:44Z</time>
      </trkpt>
      <trkpt lat="44.40279" lon="5.72102">
        <ele>648</ele>
        <time>2019-06-07T09:37:45Z</time>
      </trkpt>
      <trkpt lat="44.40275" lon="5.72107">
        <ele>648</ele>
        <time>2019-06-07T09:37:46Z</time>
      </trkpt>
      <trkpt lat="44.40271" lon="5.72112">
        <ele>648</ele>
        <time>2019-06-07T09:37:47Z</time>
      </trkpt>
      <trkpt lat="44.40268" lon="5.72116">
        <ele>648</ele>
        <time>2019-06-07T09:37:48Z</time>
      </trkpt>
      <trkpt lat="44.40265" lon="5.7212">
        <ele>648</ele>
        <time>2019-06-07T09:37:49Z</time>
      </trkpt>
      <trkpt lat="44.40261" lon="5.72124">
        <ele>648</ele>
        <time>2019-06-07T09:37:50Z</time>
      </trkpt>
      <trkpt lat="44.40257" lon="5.72129">
        <ele>648</ele>
        <time>2019-06-07T09:37:51Z</time>
      </trkpt>
      <trkpt lat="44.40253" lon="5.72134">
        <ele>648</ele>
        <time>2019-06-07T09:37:52Z</time>
      </trkpt>
      <trkpt lat="44.4025" lon="5.72139">
        <ele>648</ele>
        <time>2019-06-07T09:37:53Z</time>
      </trkpt>
      <trkpt lat="44.40246" lon="5.72144">
        <ele>648</ele>
        <time>2019-06-07T09:37:54Z</time>
      </trkpt>
      <trkpt lat="44.40242" lon="5.72148">
        <ele>648</ele>
        <time>2019-06-07T09:37:55Z</time>
      </trkpt>
      <trkpt lat="44.40238" lon="5.72153">
        <ele>648</ele>
        <time>2019-06-07T09:37:56Z</time>
      </trkpt>
      <trkpt lat="44.40235" lon="5.72156">
        <ele>648</ele>
        <time>2019-06-07T09:37:57Z</time>
      </trkpt>
      <trkpt lat="44.40231" lon="5.72161">
        <ele>648</ele>
        <time>2019-06-07T09:37:58Z</time>
      </trkpt>
      <trkpt lat="44.40227" lon="5.72164">
        <ele>648</ele>
        <time>2019-06-07T09:37:59Z</time>
      </trkpt>
      <trkpt lat="44.40223" lon="5.72168">
        <ele>648</ele>
        <time>2019-06-07T09:38:00Z</time>
      </trkpt>
      <trkpt lat="44.4022" lon="5.72171">
        <ele>648</ele>
        <time>2019-06-07T09:38:01Z</time>
      </trkpt>
      <trkpt lat="44.40216" lon="5.72176">
        <ele>648</ele>
        <time>2019-06-07T09:38:02Z</time>
      </trkpt>
      <trkpt lat="44.40212" lon="5.72181">
        <ele>648</ele>
        <time>2019-06-07T09:38:03Z</time>
      </trkpt>
      <trkpt lat="44.40208" lon="5.72185">
        <ele>648</ele>
        <time>2019-06-07T09:38:04Z</time>
      </trkpt>
      <trkpt lat="44.40203" lon="5.7219">
        <ele>648</ele>
        <time>2019-06-07T09:38:05Z</time>
      </trkpt>
      <trkpt lat="44.40199" lon="5.72194">
        <ele>648</ele>
        <time>2019-06-07T09:38:06Z</time>
      </trkpt>
      <trkpt lat="44.40195" lon="5.72198">
        <ele>648</ele>
        <time>2019-06-07T09:38:07Z</time>
      </trkpt>
      <trkpt lat="44.4019" lon="5.72203">
        <ele>648</ele>
        <time>2019-06-07T09:38:08Z</time>
      </trkpt>
      <trkpt lat="44.40186" lon="5.72207">
        <ele>648</ele>
        <time>2019-06-07T09:38:09Z</time>
      </trkpt>
      <trkpt lat="44.40182" lon="5.72211">
        <ele>648</ele>
        <time>2019-06-07T09:38:10Z</time>
      </trkpt>
      <trkpt lat="44.40178" lon="5.72216">
        <ele>648</ele>
        <time>2019-06-07T09:38:11Z</time>
      </trkpt>
      <trkpt lat="44.40174" lon="5.7222">
        <ele>648</ele>
        <time>2019-06-07T09:38:12Z</time>
      </trkpt>
      <trkpt lat="44.4017" lon="5.72224">
        <ele>648</ele>
        <time>2019-06-07T09:38:13Z</time>
      </trkpt>
      <trkpt lat="44.40166" lon="5.72228">
        <ele>648</ele>
        <time>2019-06-07T09:38:14Z</time>
      </trkpt>
      <trkpt lat="44.40162" lon="5.72232">
        <ele>648</ele>
        <time>2019-06-07T09:38:15Z</time>
      </trkpt>
      <trkpt lat="44.40158" lon="5.72235">
        <ele>648</ele>
        <time>2019-06-07T09:38:16Z</time>
      </trkpt>
      <trkpt lat="44.40154" lon="5.72239">
        <ele>648</ele>
        <time>2019-06-07T09:38:17Z</time>
      </trkpt>
      <trkpt lat="44.4015" lon="5.72243">
        <ele>648</ele>
        <time>2019-06-07T09:38:18Z</time>
      </trkpt>
      <trkpt lat="44.40146" lon="5.72247">
        <ele>648</ele>
        <time>2019-06-07T09:38:19Z</time>
      </trkpt>
      <trkpt lat="44.40142" lon="5.72251">
        <ele>648</ele>
        <time>2019-06-07T09:38:20Z</time>
      </trkpt>
      <trkpt lat="44.40139" lon="5.72255">
        <ele>648</ele>
        <time>2019-06-07T09:38:21Z</time>
      </trkpt>
      <trkpt lat="44.40134" lon="5.72259">
        <ele>648</ele>
        <time>2019-06-07T09:38:22Z</time>
      </trkpt>
      <trkpt lat="44.4013" lon="5.72262">
        <ele>648</ele>
        <time>2019-06-07T09:38:23Z</time>
      </trkpt>
      <trkpt lat="44.40126" lon="5.72266">
        <ele>648</ele>
        <time>2019-06-07T09:38:24Z</time>
      </trkpt>
      <trkpt lat="44.40121" lon="5.72271">
        <ele>648</ele>
        <time>2019-06-07T09:38:25Z</time>
      </trkpt>
      <trkpt lat="44.40117" lon="5.72275">
        <ele>648</ele>
        <time>2019-06-07T09:38:26Z</time>
      </trkpt>
      <trkpt lat="44.40112" lon="5.72279">
        <ele>648</ele>
        <time>2019-06-07T09:38:27Z</time>
      </trkpt>
      <trkpt lat="44.40107" lon="5.72284">
        <ele>648</ele>
        <time>2019-06-07T09:38:28Z</time>
      </trkpt>
      <trkpt lat="44.40102" lon="5.72288">
        <ele>648</ele>
        <time>2019-06-07T09:38:29Z</time>
      </trkpt>
      <trkpt lat="44.40097" lon="5.72292">
        <ele>648</ele>
        <time>2019-06-07T09:38:30Z</time>
      </trkpt>
      <trkpt lat="44.40092" lon="5.72296">
        <ele>648</ele>
        <time>2019-06-07T09:38:31Z</time>
      </trkpt>
      <trkpt lat="44.40088" lon="5.723">
        <ele>647</ele>
        <time>2019-06-07T09:38:32Z</time>
      </trkpt>
      <trkpt lat="44.40083" lon="5.72304">
        <ele>646</ele>
        <time>2019-06-07T09:38:33Z</time>
      </trkpt>
      <trkpt lat="44.40078" lon="5.7231">
        <ele>645</ele>
        <time>2019-06-07T09:38:34Z</time>
      </trkpt>
      <trkpt lat="44.40073" lon="5.72314">
        <ele>644</ele>
        <time>2019-06-07T09:38:35Z</time>
      </trkpt>
      <trkpt lat="44.40067" lon="5.72319">
        <ele>644</ele>
        <time>2019-06-07T09:38:36Z</time>
      </trkpt>
      <trkpt lat="44.40062" lon="5.72323">
        <ele>643</ele>
        <time>2019-06-07T09:38:37Z</time>
      </trkpt>
      <trkpt lat="44.40057" lon="5.72328">
        <ele>643</ele>
        <time>2019-06-07T09:38:38Z</time>
      </trkpt>
      <trkpt lat="44.40052" lon="5.72332">
        <ele>642</ele>
        <time>2019-06-07T09:38:39Z</time>
      </trkpt>
      <trkpt lat="44.40047" lon="5.72337">
        <ele>642</ele>
        <time>2019-06-07T09:38:40Z</time>
      </trkpt>
      <trkpt lat="44.40042" lon="5.72341">
        <ele>641</ele>
        <time>2019-06-07T09:38:41Z</time>
      </trkpt>
      <trkpt lat="44.40037" lon="5.72346">
        <ele>641</ele>
        <time>2019-06-07T09:38:42Z</time>
      </trkpt>
      <trkpt lat="44.40032" lon="5.72351">
        <ele>640</ele>
        <time>2019-06-07T09:38:43Z</time>
      </trkpt>
      <trkpt lat="44.40027" lon="5.72355">
        <ele>640</ele>
        <time>2019-06-07T09:38:44Z</time>
      </trkpt>
      <trkpt lat="44.40022" lon="5.72359">
        <ele>640</ele>
        <time>2019-06-07T09:38:45Z</time>
      </trkpt>
      <trkpt lat="44.40017" lon="5.72364">
        <ele>639</ele>
        <time>2019-06-07T09:38:46Z</time>
      </trkpt>
      <trkpt lat="44.40012" lon="5.72368">
        <ele>639</ele>
        <time>2019-06-07T09:38:47Z</time>
      </trkpt>
      <trkpt lat="44.40007" lon="5.72372">
        <ele>638</ele>
        <time>2019-06-07T09:38:48Z</time>
      </trkpt>
      <trkpt lat="44.40003" lon="5.72377">
        <ele>638</ele>
        <time>2019-06-07T09:38:49Z</time>
      </trkpt>
      <trkpt lat="44.39998" lon="5.72382">
        <ele>637</ele>
        <time>2019-06-07T09:38:50Z</time>
      </trkpt>
      <trkpt lat="44.39993" lon="5.72387">
        <ele>636</ele>
        <time>2019-06-07T09:38:51Z</time>
      </trkpt>
      <trkpt lat="44.39988" lon="5.72392">
        <ele>636</ele>
        <time>2019-06-07T09:38:52Z</time>
      </trkpt>
      <trkpt lat="44.39983" lon="5.72398">
        <ele>636</ele>
        <time>2019-06-07T09:38:53Z</time>
      </trkpt>
      <trkpt lat="44.39978" lon="5.72404">
        <ele>636</ele>
        <time>2019-06-07T09:38:54Z</time>
      </trkpt>
      <trkpt lat="44.39974" lon="5.72412">
        <ele>636</ele>
        <time>2019-06-07T09:38:55Z</time>
      </trkpt>
      <trkpt lat="44.3997" lon="5.72419">
        <ele>636</ele>
        <time>2019-06-07T09:38:56Z</time>
      </trkpt>
      <trkpt lat="44.39966" lon="5.72425">
        <ele>636</ele>
        <time>2019-06-07T09:38:57Z</time>
      </trkpt>
      <trkpt lat="44.39962" lon="5.72432">
        <ele>636</ele>
        <time>2019-06-07T09:38:58Z</time>
      </trkpt>
      <trkpt lat="44.39959" lon="5.72438">
        <ele>636</ele>
        <time>2019-06-07T09:38:59Z</time>
      </trkpt>
      <trkpt lat="44.39955" lon="5.72445">
        <ele>636</ele>
        <time>2019-06-07T09:39:00Z</time>
      </trkpt>
      <trkpt lat="44.39951" lon="5.72452">
        <ele>636</ele>
        <time>2019-06-07T09:39:01Z</time>
      </trkpt>
      <trkpt lat="44.39948" lon="5.72458">
        <ele>636</ele>
        <time>2019-06-07T09:39:02Z</time>
      </trkpt>
      <trkpt lat="44.39944" lon="5.72465">
        <ele>636</ele>
        <time>2019-06-07T09:39:03Z</time>
      </trkpt>
      <trkpt lat="44.3994" lon="5.72471">
        <ele>636</ele>
        <time>2019-06-07T09:39:04Z</time>
      </trkpt>
      <trkpt lat="44.39936" lon="5.72478">
        <ele>636</ele>
        <time>2019-06-07T09:39:05Z</time>
      </trkpt>
      <trkpt lat="44.39932" lon="5.72484">
        <ele>636</ele>
        <time>2019-06-07T09:39:06Z</time>
      </trkpt>
      <trkpt lat="44.39928" lon="5.7249">
        <ele>636</ele>
        <time>2019-06-07T09:39:07Z</time>
      </trkpt>
      <trkpt lat="44.39925" lon="5.72497">
        <ele>636</ele>
        <time>2019-06-07T09:39:08Z</time>
      </trkpt>
      <trkpt lat="44.39921" lon="5.72503">
        <ele>636</ele>
        <time>2019-06-07T09:39:09Z</time>
      </trkpt>
      <trkpt lat="44.39917" lon="5.72508">
        <ele>636</ele>
        <time>2019-06-07T09:39:10Z</time>
      </trkpt>
      <trkpt lat="44.39913" lon="5.72514">
        <ele>636</ele>
        <time>2019-06-07T09:39:11Z</time>
      </trkpt>
      <trkpt lat="44.39909" lon="5.7252">
        <ele>636</ele>
        <time>2019-06-07T09:39:12Z</time>
      </trkpt>
      <trkpt lat="44.39904" lon="5.72525">
        <ele>636</ele>
        <time>2019-06-07T09:39:13Z</time>
      </trkpt>
      <trkpt lat="44.399" lon="5.72531">
        <ele>636</ele>
        <time>2019-06-07T09:39:14Z</time>
      </trkpt>
      <trkpt lat="44.39896" lon="5.72536">
        <ele>636</ele>
        <time>2019-06-07T09:39:15Z</time>
      </trkpt>
      <trkpt lat="44.39892" lon="5.72541">
        <ele>636</ele>
        <time>2019-06-07T09:39:16Z</time>
      </trkpt>
      <trkpt lat="44.39888" lon="5.72546">
        <ele>636</ele>
        <time>2019-06-07T09:39:17Z</time>
      </trkpt>
      <trkpt lat="44.39884" lon="5.72551">
        <ele>636</ele>
        <time>2019-06-07T09:39:18Z</time>
      </trkpt>
      <trkpt lat="44.3988" lon="5.72556">
        <ele>636</ele>
        <time>2019-06-07T09:39:19Z</time>
      </trkpt>
      <trkpt lat="44.39876" lon="5.72561">
        <ele>636</ele>
        <time>2019-06-07T09:39:20Z</time>
      </trkpt>
      <trkpt lat="44.39872" lon="5.72566">
        <ele>636</ele>
        <time>2019-06-07T09:39:21Z</time>
      </trkpt>
      <trkpt lat="44.39869" lon="5.72571">
        <ele>636</ele>
        <time>2019-06-07T09:39:22Z</time>
      </trkpt>
      <trkpt lat="44.39865" lon="5.72575">
        <ele>636</ele>
        <time>2019-06-07T09:39:23Z</time>
      </trkpt>
      <trkpt lat="44.39861" lon="5.7258">
        <ele>636</ele>
        <time>2019-06-07T09:39:24Z</time>
      </trkpt>
      <trkpt lat="44.39857" lon="5.72585">
        <ele>636</ele>
        <time>2019-06-07T09:39:25Z</time>
      </trkpt>
      <trkpt lat="44.39853" lon="5.7259">
        <ele>636</ele>
        <time>2019-06-07T09:39:26Z</time>
      </trkpt>
      <trkpt lat="44.3985" lon="5.72596">
        <ele>636</ele>
        <time>2019-06-07T09:39:27Z</time>
      </trkpt>
      <trkpt lat="44.39846" lon="5.72601">
        <ele>636</ele>
        <time>2019-06-07T09:39:28Z</time>
      </trkpt>
      <trkpt lat="44.39843" lon="5.72606">
        <ele>636</ele>
        <time>2019-06-07T09:39:29Z</time>
      </trkpt>
      <trkpt lat="44.39839" lon="5.72611">
        <ele>636</ele>
        <time>2019-06-07T09:39:30Z</time>
      </trkpt>
      <trkpt lat="44.39836" lon="5.72616">
        <ele>636</ele>
        <time>2019-06-07T09:39:31Z</time>
      </trkpt>
      <trkpt lat="44.39832" lon="5.72621">
        <ele>636</ele>
        <time>2019-06-07T09:39:32Z</time>
      </trkpt>
      <trkpt lat="44.39828" lon="5.72627">
        <ele>636</ele>
        <time>2019-06-07T09:39:33Z</time>
      </trkpt>
      <trkpt lat="44.39825" lon="5.72632">
        <ele>636</ele>
        <time>2019-06-07T09:39:34Z</time>
      </trkpt>
      <trkpt lat="44.39821" lon="5.72637">
        <ele>636</ele>
        <time>2019-06-07T09:39:35Z</time>
      </trkpt>
      <trkpt lat="44.39818" lon="5.72642">
        <ele>636</ele>
        <time>2019-06-07T09:39:36Z</time>
      </trkpt>
      <trkpt lat="44.39814" lon="5.72647">
        <ele>636</ele>
        <time>2019-06-07T09:39:37Z</time>
      </trkpt>
      <trkpt lat="44.39811" lon="5.72652">
        <ele>636</ele>
        <time>2019-06-07T09:39:38Z</time>
      </trkpt>
      <trkpt lat="44.39807" lon="5.72657">
        <ele>636</ele>
        <time>2019-06-07T09:39:39Z</time>
      </trkpt>
      <trkpt lat="44.39804" lon="5.72662">
        <ele>636</ele>
        <time>2019-06-07T09:39:40Z</time>
      </trkpt>
      <trkpt lat="44.398" lon="5.72668">
        <ele>636</ele>
        <time>2019-06-07T09:39:41Z</time>
      </trkpt>
      <trkpt lat="44.39797" lon="5.72673">
        <ele>636</ele>
        <time>2019-06-07T09:39:42Z</time>
      </trkpt>
      <trkpt lat="44.39793" lon="5.72678">
        <ele>636</ele>
        <time>2019-06-07T09:39:43Z</time>
      </trkpt>
      <trkpt lat="44.3979" lon="5.72682">
        <ele>636</ele>
        <time>2019-06-07T09:39:44Z</time>
      </trkpt>
      <trkpt lat="44.39787" lon="5.72687">
        <ele>636</ele>
        <time>2019-06-07T09:39:45Z</time>
      </trkpt>
      <trkpt lat="44.39783" lon="5.72691">
        <ele>636</ele>
        <time>2019-06-07T09:39:46Z</time>
      </trkpt>
      <trkpt lat="44.3978" lon="5.72696">
        <ele>636</ele>
        <time>2019-06-07T09:39:47Z</time>
      </trkpt>
      <trkpt lat="44.39777" lon="5.72701">
        <ele>636</ele>
        <time>2019-06-07T09:39:48Z</time>
      </trkpt>
      <trkpt lat="44.39773" lon="5.72706">
        <ele>636</ele>
        <time>2019-06-07T09:39:49Z</time>
      </trkpt>
      <trkpt lat="44.3977" lon="5.7271">
        <ele>636</ele>
        <time>2019-06-07T09:39:50Z</time>
      </trkpt>
      <trkpt lat="44.39766" lon="5.72715">
        <ele>636</ele>
        <time>2019-06-07T09:39:51Z</time>
      </trkpt>
      <trkpt lat="44.39763" lon="5.72719">
        <ele>636</ele>
        <time>2019-06-07T09:39:52Z</time>
      </trkpt>
      <trkpt lat="44.39759" lon="5.72724">
        <ele>636</ele>
        <time>2019-06-07T09:39:53Z</time>
      </trkpt>
      <trkpt lat="44.39756" lon="5.72728">
        <ele>636</ele>
        <time>2019-06-07T09:39:54Z</time>
      </trkpt>
      <trkpt lat="44.39752" lon="5.72732">
        <ele>636</ele>
        <time>2019-06-07T09:39:55Z</time>
      </trkpt>
      <trkpt lat="44.39749" lon="5.72737">
        <ele>636</ele>
        <time>2019-06-07T09:39:56Z</time>
      </trkpt>
      <trkpt lat="44.39745" lon="5.72741">
        <ele>636</ele>
        <time>2019-06-07T09:39:57Z</time>
      </trkpt>
      <trkpt lat="44.39742" lon="5.72745">
        <ele>636</ele>
        <time>2019-06-07T09:39:58Z</time>
      </trkpt>
      <trkpt lat="44.39738" lon="5.72749">
        <ele>636</ele>
        <time>2019-06-07T09:39:59Z</time>
      </trkpt>
      <trkpt lat="44.39735" lon="5.72753">
        <ele>636</ele>
        <time>2019-06-07T09:40:00Z</time>
      </trkpt>
      <trkpt lat="44.39732" lon="5.72757">
        <ele>636</ele>
        <time>2019-06-07T09:40:01Z</time>
      </trkpt>
      <trkpt lat="44.39728" lon="5.72762">
        <ele>636</ele>
        <time>2019-06-07T09:40:02Z</time>
      </trkpt>
      <trkpt lat="44.39724" lon="5.72766">
        <ele>636</ele>
        <time>2019-06-07T09:40:03Z</time>
      </trkpt>
      <trkpt lat="44.39721" lon="5.72771">
        <ele>636</ele>
        <time>2019-06-07T09:40:04Z</time>
      </trkpt>
      <trkpt lat="44.39717" lon="5.72775">
        <ele>636</ele>
        <time>2019-06-07T09:40:05Z</time>
      </trkpt>
      <trkpt lat="44.39714" lon="5.72779">
        <ele>636</ele>
        <time>2019-06-07T09:40:06Z</time>
      </trkpt>
      <trkpt lat="44.3971" lon="5.72784">
        <ele>636</ele>
        <time>2019-06-07T09:40:07Z</time>
      </trkpt>
      <trkpt lat="44.39706" lon="5.72788">
        <ele>636</ele>
        <time>2019-06-07T09:40:08Z</time>
      </trkpt>
      <trkpt lat="44.39703" lon="5.72792">
        <ele>636</ele>
        <time>2019-06-07T09:40:09Z</time>
      </trkpt>
      <trkpt lat="44.39699" lon="5.72797">
        <ele>636</ele>
        <time>2019-06-07T09:40:10Z</time>
      </trkpt>
      <trkpt lat="44.39695" lon="5.72801">
        <ele>636</ele>
        <time>2019-06-07T09:40:11Z</time>
      </trkpt>
      <trkpt lat="44.39692" lon="5.72806">
        <ele>636</ele>
        <time>2019-06-07T09:40:12Z</time>
      </trkpt>
      <trkpt lat="44.39688" lon="5.7281">
        <ele>636</ele>
        <time>2019-06-07T09:40:13Z</time>
      </trkpt>
      <trkpt lat="44.39685" lon="5.72814">
        <ele>636</ele>
        <time>2019-06-07T09:40:14Z</time>
      </trkpt>
      <trkpt lat="44.39681" lon="5.72819">
        <ele>636</ele>
        <time>2019-06-07T09:40:15Z</time>
      </trkpt>
      <trkpt lat="44.39677" lon="5.72823">
        <ele>636</ele>
        <time>2019-06-07T09:40:16Z</time>
      </trkpt>
      <trkpt lat="44.39673" lon="5.72827">
        <ele>636</ele>
        <time>2019-06-07T09:40:17Z</time>
      </trkpt>
      <trkpt lat="44.39669" lon="5.72831">
        <ele>636</ele>
        <time>2019-06-07T09:40:18Z</time>
      </trkpt>
      <trkpt lat="44.39666" lon="5.72836">
        <ele>636</ele>
        <time>2019-06-07T09:40:19Z</time>
      </trkpt>
      <trkpt lat="44.39662" lon="5.7284">
        <ele>636</ele>
        <time>2019-06-07T09:40:20Z</time>
      </trkpt>
      <trkpt lat="44.39658" lon="5.72845">
        <ele>636</ele>
        <time>2019-06-07T09:40:21Z</time>
      </trkpt>
      <trkpt lat="44.39654" lon="5.72849">
        <ele>636</ele>
        <time>2019-06-07T09:40:22Z</time>
      </trkpt>
      <trkpt lat="44.3965" lon="5.72854">
        <ele>636</ele>
        <time>2019-06-07T09:40:23Z</time>
      </trkpt>
      <trkpt lat="44.39647" lon="5.72858">
        <ele>636</ele>
        <time>2019-06-07T09:40:24Z</time>
      </trkpt>
      <trkpt lat="44.39642" lon="5.72862">
        <ele>636</ele>
        <time>2019-06-07T09:40:25Z</time>
      </trkpt>
      <trkpt lat="44.39639" lon="5.72866">
        <ele>636</ele>
        <time>2019-06-07T09:40:26Z</time>
      </trkpt>
      <trkpt lat="44.39635" lon="5.7287">
        <ele>636</ele>
        <time>2019-06-07T09:40:27Z</time>
      </trkpt>
      <trkpt lat="44.39631" lon="5.72875">
        <ele>636</ele>
        <time>2019-06-07T09:40:28Z</time>
      </trkpt>
      <trkpt lat="44.39627" lon="5.7288">
        <ele>636</ele>
        <time>2019-06-07T09:40:29Z</time>
      </trkpt>
      <trkpt lat="44.39623" lon="5.72885">
        <ele>636</ele>
        <time>2019-06-07T09:40:30Z</time>
      </trkpt>
      <trkpt lat="44.3962" lon="5.72889">
        <ele>636</ele>
        <time>2019-06-07T09:40:31Z</time>
      </trkpt>
      <trkpt lat="44.39616" lon="5.72893">
        <ele>636</ele>
        <time>2019-06-07T09:40:32Z</time>
      </trkpt>
      <trkpt lat="44.39612" lon="5.72898">
        <ele>636</ele>
        <time>2019-06-07T09:40:33Z</time>
      </trkpt>
      <trkpt lat="44.39608" lon="5.72902">
        <ele>636</ele>
        <time>2019-06-07T09:40:34Z</time>
      </trkpt>
      <trkpt lat="44.39604" lon="5.72906">
        <ele>636</ele>
        <time>2019-06-07T09:40:35Z</time>
      </trkpt>
      <trkpt lat="44.396" lon="5.7291">
        <ele>636</ele>
        <time>2019-06-07T09:40:36Z</time>
      </trkpt>
      <trkpt lat="44.39597" lon="5.72914">
        <ele>636</ele>
        <time>2019-06-07T09:40:37Z</time>
      </trkpt>
      <trkpt lat="44.39592" lon="5.72918">
        <ele>636</ele>
        <time>2019-06-07T09:40:38Z</time>
      </trkpt>
      <trkpt lat="44.39589" lon="5.72923">
        <ele>636</ele>
        <time>2019-06-07T09:40:39Z</time>
      </trkpt>
      <trkpt lat="44.39584" lon="5.72928">
        <ele>636</ele>
        <time>2019-06-07T09:40:40Z</time>
      </trkpt>
      <trkpt lat="44.3958" lon="5.72932">
        <ele>636</ele>
        <time>2019-06-07T09:40:41Z</time>
      </trkpt>
      <trkpt lat="44.39575" lon="5.72937">
        <ele>636</ele>
        <time>2019-06-07T09:40:42Z</time>
      </trkpt>
      <trkpt lat="44.39571" lon="5.72941">
        <ele>636</ele>
        <time>2019-06-07T09:40:43Z</time>
      </trkpt>
      <trkpt lat="44.39565" lon="5.72946">
        <ele>636</ele>
        <time>2019-06-07T09:40:44Z</time>
      </trkpt>
      <trkpt lat="44.3956" lon="5.72951">
        <ele>635</ele>
        <time>2019-06-07T09:40:45Z</time>
      </trkpt>
      <trkpt lat="44.39554" lon="5.72955">
        <ele>635</ele>
        <time>2019-06-07T09:40:46Z</time>
      </trkpt>
      <trkpt lat="44.39547" lon="5.72959">
        <ele>635</ele>
        <time>2019-06-07T09:40:47Z</time>
      </trkpt>
      <trkpt lat="44.39541" lon="5.72963">
        <ele>634</ele>
        <time>2019-06-07T09:40:48Z</time>
      </trkpt>
      <trkpt lat="44.39534" lon="5.72966">
        <ele>634</ele>
        <time>2019-06-07T09:40:49Z</time>
      </trkpt>
      <trkpt lat="44.39528" lon="5.7297">
        <ele>633</ele>
        <time>2019-06-07T09:40:50Z</time>
      </trkpt>
      <trkpt lat="44.3952" lon="5.72973">
        <ele>633</ele>
        <time>2019-06-07T09:40:51Z</time>
      </trkpt>
      <trkpt lat="44.39513" lon="5.72976">
        <ele>633</ele>
        <time>2019-06-07T09:40:52Z</time>
      </trkpt>
      <trkpt lat="44.39505" lon="5.72979">
        <ele>633</ele>
        <time>2019-06-07T09:40:53Z</time>
      </trkpt>
      <trkpt lat="44.39498" lon="5.72982">
        <ele>633</ele>
        <time>2019-06-07T09:40:54Z</time>
      </trkpt>
      <trkpt lat="44.39491" lon="5.72984">
        <ele>633</ele>
        <time>2019-06-07T09:40:55Z</time>
      </trkpt>
      <trkpt lat="44.39484" lon="5.72988">
        <ele>633</ele>
        <time>2019-06-07T09:40:56Z</time>
      </trkpt>
      <trkpt lat="44.39477" lon="5.72991">
        <ele>633</ele>
        <time>2019-06-07T09:40:57Z</time>
      </trkpt>
      <trkpt lat="44.3947" lon="5.72994">
        <ele>633</ele>
        <time>2019-06-07T09:40:58Z</time>
      </trkpt>
      <trkpt lat="44.39463" lon="5.72998">
        <ele>633</ele>
        <time>2019-06-07T09:40:59Z</time>
      </trkpt>
      <trkpt lat="44.39456" lon="5.73002">
        <ele>633</ele>
        <time>2019-06-07T09:41:00Z</time>
      </trkpt>
      <trkpt lat="44.39449" lon="5.73006">
        <ele>633</ele>
        <time>2019-06-07T09:41:01Z</time>
      </trkpt>
      <trkpt lat="44.39443" lon="5.73011">
        <ele>632</ele>
        <time>2019-06-07T09:41:02Z</time>
      </trkpt>
      <trkpt lat="44.39436" lon="5.73016">
        <ele>632</ele>
        <time>2019-06-07T09:41:03Z</time>
      </trkpt>
      <trkpt lat="44.39429" lon="5.73022">
        <ele>632</ele>
        <time>2019-06-07T09:41:04Z</time>
      </trkpt>
      <trkpt lat="44.39423" lon="5.73026">
        <ele>632</ele>
        <time>2019-06-07T09:41:05Z</time>
      </trkpt>
      <trkpt lat="44.39415" lon="5.73031">
        <ele>631</ele>
        <time>2019-06-07T09:41:06Z</time>
      </trkpt>
      <trkpt lat="44.39408" lon="5.73034">
        <ele>631</ele>
        <time>2019-06-07T09:41:07Z</time>
      </trkpt>
      <trkpt lat="44.39401" lon="5.73037">
        <ele>631</ele>
        <time>2019-06-07T09:41:08Z</time>
      </trkpt>
      <trkpt lat="44.39394" lon="5.7304">
        <ele>630</ele>
        <time>2019-06-07T09:41:09Z</time>
      </trkpt>
      <trkpt lat="44.39388" lon="5.73043">
        <ele>630</ele>
        <time>2019-06-07T09:41:10Z</time>
      </trkpt>
      <trkpt lat="44.39381" lon="5.73047">
        <ele>630</ele>
        <time>2019-06-07T09:41:11Z</time>
      </trkpt>
      <trkpt lat="44.39374" lon="5.73049">
        <ele>630</ele>
        <time>2019-06-07T09:41:12Z</time>
      </trkpt>
      <trkpt lat="44.39368" lon="5.73052">
        <ele>630</ele>
        <time>2019-06-07T09:41:13Z</time>
      </trkpt>
      <trkpt lat="44.39361" lon="5.73054">
        <ele>630</ele>
        <time>2019-06-07T09:41:14Z</time>
      </trkpt>
      <trkpt lat="44.39354" lon="5.73056">
        <ele>630</ele>
        <time>2019-06-07T09:41:15Z</time>
      </trkpt>
      <trkpt lat="44.39348" lon="5.73059">
        <ele>630</ele>
        <time>2019-06-07T09:41:16Z</time>
      </trkpt>
      <trkpt lat="44.39342" lon="5.73061">
        <ele>630</ele>
        <time>2019-06-07T09:41:17Z</time>
      </trkpt>
      <trkpt lat="44.39335" lon="5.73063">
        <ele>630</ele>
        <time>2019-06-07T09:41:18Z</time>
      </trkpt>
      <trkpt lat="44.39329" lon="5.73065">
        <ele>630</ele>
        <time>2019-06-07T09:41:19Z</time>
      </trkpt>
      <trkpt lat="44.39323" lon="5.73067">
        <ele>630</ele>
        <time>2019-06-07T09:41:20Z</time>
      </trkpt>
      <trkpt lat="44.39318" lon="5.73069">
        <ele>630</ele>
        <time>2019-06-07T09:41:21Z</time>
      </trkpt>
      <trkpt lat="44.39312" lon="5.73071">
        <ele>630</ele>
        <time>2019-06-07T09:41:22Z</time>
      </trkpt>
      <trkpt lat="44.39307" lon="5.73073">
        <ele>630</ele>
        <time>2019-06-07T09:41:23Z</time>
      </trkpt>
      <trkpt lat="44.39301" lon="5.73075">
        <ele>630</ele>
        <time>2019-06-07T09:41:24Z</time>
      </trkpt>
      <trkpt lat="44.39296" lon="5.73078">
        <ele>630</ele>
        <time>2019-06-07T09:41:25Z</time>
      </trkpt>
      <trkpt lat="44.39291" lon="5.7308">
        <ele>630</ele>
        <time>2019-06-07T09:41:26Z</time>
      </trkpt>
      <trkpt lat="44.39286" lon="5.73081">
        <ele>630</ele>
        <time>2019-06-07T09:41:27Z</time>
      </trkpt>
      <trkpt lat="44.3928" lon="5.73083">
        <ele>630</ele>
        <time>2019-06-07T09:41:28Z</time>
      </trkpt>
      <trkpt lat="44.39275" lon="5.73085">
        <ele>630</ele>
        <time>2019-06-07T09:41:29Z</time>
      </trkpt>
      <trkpt lat="44.3927" lon="5.73086">
        <ele>630</ele>
        <time>2019-06-07T09:41:30Z</time>
      </trkpt>
      <trkpt lat="44.39265" lon="5.73087">
        <ele>630</ele>
        <time>2019-06-07T09:41:31Z</time>
      </trkpt>
      <trkpt lat="44.3926" lon="5.73089">
        <ele>630</ele>
        <time>2019-06-07T09:41:32Z</time>
      </trkpt>
      <trkpt lat="44.39254" lon="5.7309">
        <ele>630</ele>
        <time>2019-06-07T09:41:33Z</time>
      </trkpt>
      <trkpt lat="44.39249" lon="5.7309">
        <ele>630</ele>
        <time>2019-06-07T09:41:34Z</time>
      </trkpt>
      <trkpt lat="44.39244" lon="5.73091">
        <ele>630</ele>
        <time>2019-06-07T09:41:35Z</time>
      </trkpt>
      <trkpt lat="44.39238" lon="5.73092">
        <ele>630</ele>
        <time>2019-06-07T09:41:36Z</time>
      </trkpt>
      <trkpt lat="44.39234" lon="5.73091">
        <ele>630</ele>
        <time>2019-06-07T09:41:37Z</time>
      </trkpt>
      <trkpt lat="44.39228" lon="5.73091">
        <ele>630</ele>
        <time>2019-06-07T09:41:38Z</time>
      </trkpt>
      <trkpt lat="44.39223" lon="5.7309">
        <ele>630</ele>
        <time>2019-06-07T09:41:39Z</time>
      </trkpt>
      <trkpt lat="44.39218" lon="5.73089">
        <ele>630</ele>
        <time>2019-06-07T09:41:40Z</time>
      </trkpt>
      <trkpt lat="44.39213" lon="5.73088">
        <ele>630</ele>
        <time>2019-06-07T09:41:41Z</time>
      </trkpt>
      <trkpt lat="44.39208" lon="5.73086">
        <ele>630</ele>
        <time>2019-06-07T09:41:42Z</time>
      </trkpt>
      <trkpt lat="44.39203" lon="5.73084">
        <ele>630</ele>
        <time>2019-06-07T09:41:43Z</time>
      </trkpt>
      <trkpt lat="44.39198" lon="5.73082">
        <ele>630</ele>
        <time>2019-06-07T09:41:44Z</time>
      </trkpt>
      <trkpt lat="44.39193" lon="5.7308">
        <ele>630</ele>
        <time>2019-06-07T09:41:45Z</time>
      </trkpt>
      <trkpt lat="44.39189" lon="5.73077">
        <ele>630</ele>
        <time>2019-06-07T09:41:46Z</time>
      </trkpt>
      <trkpt lat="44.39184" lon="5.73074">
        <ele>630</ele>
        <time>2019-06-07T09:41:47Z</time>
      </trkpt>
      <trkpt lat="44.39179" lon="5.7307">
        <ele>630</ele>
        <time>2019-06-07T09:41:48Z</time>
      </trkpt>
      <trkpt lat="44.39174" lon="5.73066">
        <ele>630</ele>
        <time>2019-06-07T09:41:49Z</time>
      </trkpt>
      <trkpt lat="44.39169" lon="5.73062">
        <ele>630</ele>
        <time>2019-06-07T09:41:50Z</time>
      </trkpt>
      <trkpt lat="44.39164" lon="5.73057">
        <ele>630</ele>
        <time>2019-06-07T09:41:51Z</time>
      </trkpt>
      <trkpt lat="44.3916" lon="5.73053">
        <ele>630</ele>
        <time>2019-06-07T09:41:52Z</time>
      </trkpt>
      <trkpt lat="44.39155" lon="5.73048">
        <ele>630</ele>
        <time>2019-06-07T09:41:53Z</time>
      </trkpt>
      <trkpt lat="44.3915" lon="5.73043">
        <ele>629</ele>
        <time>2019-06-07T09:41:54Z</time>
      </trkpt>
      <trkpt lat="44.39145" lon="5.73039">
        <ele>629</ele>
        <time>2019-06-07T09:41:55Z</time>
      </trkpt>
      <trkpt lat="44.3914" lon="5.73034">
        <ele>629</ele>
        <time>2019-06-07T09:41:56Z</time>
      </trkpt>
      <trkpt lat="44.39136" lon="5.7303">
        <ele>629</ele>
        <time>2019-06-07T09:41:57Z</time>
      </trkpt>
      <trkpt lat="44.39131" lon="5.73026">
        <ele>629</ele>
        <time>2019-06-07T09:41:58Z</time>
      </trkpt>
      <trkpt lat="44.39127" lon="5.73021">
        <ele>629</ele>
        <time>2019-06-07T09:41:59Z</time>
      </trkpt>
      <trkpt lat="44.39122" lon="5.73018">
        <ele>629</ele>
        <time>2019-06-07T09:42:00Z</time>
      </trkpt>
      <trkpt lat="44.39118" lon="5.73014">
        <ele>629</ele>
        <time>2019-06-07T09:42:01Z</time>
      </trkpt>
      <trkpt lat="44.39114" lon="5.7301">
        <ele>629</ele>
        <time>2019-06-07T09:42:02Z</time>
      </trkpt>
      <trkpt lat="44.3911" lon="5.73007">
        <ele>629</ele>
        <time>2019-06-07T09:42:03Z</time>
      </trkpt>
      <trkpt lat="44.39106" lon="5.73004">
        <ele>629</ele>
        <time>2019-06-07T09:42:04Z</time>
      </trkpt>
      <trkpt lat="44.39101" lon="5.73001">
        <ele>629</ele>
        <time>2019-06-07T09:42:05Z</time>
      </trkpt>
      <trkpt lat="44.39096" lon="5.72999">
        <ele>629</ele>
        <time>2019-06-07T09:42:06Z</time>
      </trkpt>
      <trkpt lat="44.39091" lon="5.72997">
        <ele>629</ele>
        <time>2019-06-07T09:42:07Z</time>
      </trkpt>
      <trkpt lat="44.39086" lon="5.72995">
        <ele>629</ele>
        <time>2019-06-07T09:42:08Z</time>
      </trkpt>
      <trkpt lat="44.39081" lon="5.72993">
        <ele>629</ele>
        <time>2019-06-07T09:42:09Z</time>
      </trkpt>
      <trkpt lat="44.39076" lon="5.72992">
        <ele>628</ele>
        <time>2019-06-07T09:42:10Z</time>
      </trkpt>
      <trkpt lat="44.39071" lon="5.72992">
        <ele>628</ele>
        <time>2019-06-07T09:42:11Z</time>
      </trkpt>
      <trkpt lat="44.39065" lon="5.72992">
        <ele>628</ele>
        <time>2019-06-07T09:42:12Z</time>
      </trkpt>
      <trkpt lat="44.3906" lon="5.72992">
        <ele>628</ele>
        <time>2019-06-07T09:42:13Z</time>
      </trkpt>
      <trkpt lat="44.39054" lon="5.72993">
        <ele>628</ele>
        <time>2019-06-07T09:42:14Z</time>
      </trkpt>
      <trkpt lat="44.39048" lon="5.72994">
        <ele>628</ele>
        <time>2019-06-07T09:42:15Z</time>
      </trkpt>
      <trkpt lat="44.39042" lon="5.72996">
        <ele>628</ele>
        <time>2019-06-07T09:42:16Z</time>
      </trkpt>
      <trkpt lat="44.39036" lon="5.72997">
        <ele>628</ele>
        <time>2019-06-07T09:42:17Z</time>
      </trkpt>
      <trkpt lat="44.3903" lon="5.72999">
        <ele>628</ele>
        <time>2019-06-07T09:42:18Z</time>
      </trkpt>
      <trkpt lat="44.39024" lon="5.73002">
        <ele>628</ele>
        <time>2019-06-07T09:42:19Z</time>
      </trkpt>
      <trkpt lat="44.39018" lon="5.73005">
        <ele>628</ele>
        <time>2019-06-07T09:42:20Z</time>
      </trkpt>
      <trkpt lat="44.39011" lon="5.73008">
        <ele>628</ele>
        <time>2019-06-07T09:42:21Z</time>
      </trkpt>
      <trkpt lat="44.39005" lon="5.73012">
        <ele>628</ele>
        <time>2019-06-07T09:42:22Z</time>
      </trkpt>
      <trkpt lat="44.38999" lon="5.73016">
        <ele>628</ele>
        <time>2019-06-07T09:42:23Z</time>
      </trkpt>
      <trkpt lat="44.38992" lon="5.73021">
        <ele>628</ele>
        <time>2019-06-07T09:42:24Z</time>
      </trkpt>
      <trkpt lat="44.38986" lon="5.73026">
        <ele>628</ele>
        <time>2019-06-07T09:42:25Z</time>
      </trkpt>
      <trkpt lat="44.3898" lon="5.73031">
        <ele>628</ele>
        <time>2019-06-07T09:42:26Z</time>
      </trkpt>
      <trkpt lat="44.38974" lon="5.73037">
        <ele>627</ele>
        <time>2019-06-07T09:42:27Z</time>
      </trkpt>
      <trkpt lat="44.38968" lon="5.73043">
        <ele>627</ele>
        <time>2019-06-07T09:42:28Z</time>
      </trkpt>
      <trkpt lat="44.38961" lon="5.73049">
        <ele>627</ele>
        <time>2019-06-07T09:42:29Z</time>
      </trkpt>
      <trkpt lat="44.38955" lon="5.73055">
        <ele>627</ele>
        <time>2019-06-07T09:42:30Z</time>
      </trkpt>
      <trkpt lat="44.38949" lon="5.7306">
        <ele>627</ele>
        <time>2019-06-07T09:42:31Z</time>
      </trkpt>
      <trkpt lat="44.38943" lon="5.73065">
        <ele>626</ele>
        <time>2019-06-07T09:42:32Z</time>
      </trkpt>
      <trkpt lat="44.38937" lon="5.7307">
        <ele>626</ele>
        <time>2019-06-07T09:42:33Z</time>
      </trkpt>
      <trkpt lat="44.38932" lon="5.73075">
        <ele>625</ele>
        <time>2019-06-07T09:42:34Z</time>
      </trkpt>
      <trkpt lat="44.38926" lon="5.7308">
        <ele>625</ele>
        <time>2019-06-07T09:42:35Z</time>
      </trkpt>
      <trkpt lat="44.38921" lon="5.73084">
        <ele>624</ele>
        <time>2019-06-07T09:42:36Z</time>
      </trkpt>
      <trkpt lat="44.38915" lon="5.7309">
        <ele>623</ele>
        <time>2019-06-07T09:42:37Z</time>
      </trkpt>
      <trkpt lat="44.3891" lon="5.73094">
        <ele>623</ele>
        <time>2019-06-07T09:42:38Z</time>
      </trkpt>
      <trkpt lat="44.38904" lon="5.73099">
        <ele>623</ele>
        <time>2019-06-07T09:42:39Z</time>
      </trkpt>
      <trkpt lat="44.38899" lon="5.73103">
        <ele>622</ele>
        <time>2019-06-07T09:42:40Z</time>
      </trkpt>
      <trkpt lat="44.38894" lon="5.73107">
        <ele>622</ele>
        <time>2019-06-07T09:42:41Z</time>
      </trkpt>
      <trkpt lat="44.38888" lon="5.73111">
        <ele>622</ele>
        <time>2019-06-07T09:42:42Z</time>
      </trkpt>
      <trkpt lat="44.38883" lon="5.73114">
        <ele>622</ele>
        <time>2019-06-07T09:42:43Z</time>
      </trkpt>
      <trkpt lat="44.38877" lon="5.73119">
        <ele>622</ele>
        <time>2019-06-07T09:42:44Z</time>
      </trkpt>
      <trkpt lat="44.38872" lon="5.73123">
        <ele>622</ele>
        <time>2019-06-07T09:42:45Z</time>
      </trkpt>
      <trkpt lat="44.38866" lon="5.73127">
        <ele>621</ele>
        <time>2019-06-07T09:42:46Z</time>
      </trkpt>
      <trkpt lat="44.3886" lon="5.7313">
        <ele>621</ele>
        <time>2019-06-07T09:42:47Z</time>
      </trkpt>
      <trkpt lat="44.38855" lon="5.73134">
        <ele>621</ele>
        <time>2019-06-07T09:42:48Z</time>
      </trkpt>
      <trkpt lat="44.38849" lon="5.73137">
        <ele>621</ele>
        <time>2019-06-07T09:42:49Z</time>
      </trkpt>
      <trkpt lat="44.38843" lon="5.7314">
        <ele>621</ele>
        <time>2019-06-07T09:42:50Z</time>
      </trkpt>
      <trkpt lat="44.38837" lon="5.73143">
        <ele>621</ele>
        <time>2019-06-07T09:42:51Z</time>
      </trkpt>
      <trkpt lat="44.38831" lon="5.73147">
        <ele>621</ele>
        <time>2019-06-07T09:42:52Z</time>
      </trkpt>
      <trkpt lat="44.38825" lon="5.7315">
        <ele>621</ele>
        <time>2019-06-07T09:42:53Z</time>
      </trkpt>
      <trkpt lat="44.38819" lon="5.73154">
        <ele>621</ele>
        <time>2019-06-07T09:42:54Z</time>
      </trkpt>
      <trkpt lat="44.38813" lon="5.73157">
        <ele>621</ele>
        <time>2019-06-07T09:42:55Z</time>
      </trkpt>
      <trkpt lat="44.38808" lon="5.73161">
        <ele>621</ele>
        <time>2019-06-07T09:42:56Z</time>
      </trkpt>
      <trkpt lat="44.38802" lon="5.73165">
        <ele>621</ele>
        <time>2019-06-07T09:42:57Z</time>
      </trkpt>
      <trkpt lat="44.38796" lon="5.73168">
        <ele>621</ele>
        <time>2019-06-07T09:42:58Z</time>
      </trkpt>
      <trkpt lat="44.3879" lon="5.73172">
        <ele>621</ele>
        <time>2019-06-07T09:42:59Z</time>
      </trkpt>
      <trkpt lat="44.38784" lon="5.73176">
        <ele>620</ele>
        <time>2019-06-07T09:43:00Z</time>
      </trkpt>
      <trkpt lat="44.38779" lon="5.73181">
        <ele>620</ele>
        <time>2019-06-07T09:43:01Z</time>
      </trkpt>
      <trkpt lat="44.38773" lon="5.73186">
        <ele>620</ele>
        <time>2019-06-07T09:43:02Z</time>
      </trkpt>
      <trkpt lat="44.38768" lon="5.73191">
        <ele>620</ele>
        <time>2019-06-07T09:43:03Z</time>
      </trkpt>
      <trkpt lat="44.38762" lon="5.73195">
        <ele>620</ele>
        <time>2019-06-07T09:43:04Z</time>
      </trkpt>
      <trkpt lat="44.38756" lon="5.73199">
        <ele>620</ele>
        <time>2019-06-07T09:43:05Z</time>
      </trkpt>
      <trkpt lat="44.3875" lon="5.73203">
        <ele>620</ele>
        <time>2019-06-07T09:43:06Z</time>
      </trkpt>
      <trkpt lat="44.38745" lon="5.73208">
        <ele>620</ele>
        <time>2019-06-07T09:43:07Z</time>
      </trkpt>
      <trkpt lat="44.38739" lon="5.73212">
        <ele>619</ele>
        <time>2019-06-07T09:43:08Z</time>
      </trkpt>
      <trkpt lat="44.38734" lon="5.73217">
        <ele>619</ele>
        <time>2019-06-07T09:43:09Z</time>
      </trkpt>
      <trkpt lat="44.38728" lon="5.73221">
        <ele>619</ele>
        <time>2019-06-07T09:43:10Z</time>
      </trkpt>
      <trkpt lat="44.38723" lon="5.73226">
        <ele>618</ele>
        <time>2019-06-07T09:43:11Z</time>
      </trkpt>
      <trkpt lat="44.38717" lon="5.7323">
        <ele>618</ele>
        <time>2019-06-07T09:43:12Z</time>
      </trkpt>
      <trkpt lat="44.38711" lon="5.73235">
        <ele>618</ele>
        <time>2019-06-07T09:43:13Z</time>
      </trkpt>
      <trkpt lat="44.38706" lon="5.73239">
        <ele>618</ele>
        <time>2019-06-07T09:43:14Z</time>
      </trkpt>
      <trkpt lat="44.387" lon="5.73243">
        <ele>617</ele>
        <time>2019-06-07T09:43:15Z</time>
      </trkpt>
      <trkpt lat="44.38694" lon="5.73247">
        <ele>617</ele>
        <time>2019-06-07T09:43:16Z</time>
      </trkpt>
      <trkpt lat="44.38689" lon="5.73251">
        <ele>617</ele>
        <time>2019-06-07T09:43:17Z</time>
      </trkpt>
      <trkpt lat="44.38683" lon="5.73256">
        <ele>617</ele>
        <time>2019-06-07T09:43:18Z</time>
      </trkpt>
      <trkpt lat="44.38677" lon="5.7326">
        <ele>616</ele>
        <time>2019-06-07T09:43:19Z</time>
      </trkpt>
      <trkpt lat="44.38671" lon="5.73264">
        <ele>616</ele>
        <time>2019-06-07T09:43:20Z</time>
      </trkpt>
      <trkpt lat="44.38665" lon="5.73268">
        <ele>616</ele>
        <time>2019-06-07T09:43:21Z</time>
      </trkpt>
      <trkpt lat="44.3866" lon="5.73272">
        <ele>616</ele>
        <time>2019-06-07T09:43:22Z</time>
      </trkpt>
      <trkpt lat="44.38654" lon="5.73276">
        <ele>616</ele>
        <time>2019-06-07T09:43:23Z</time>
      </trkpt>
      <trkpt lat="44.38648" lon="5.7328">
        <ele>616</ele>
        <time>2019-06-07T09:43:24Z</time>
      </trkpt>
      <trkpt lat="44.38642" lon="5.73284">
        <ele>616</ele>
        <time>2019-06-07T09:43:25Z</time>
      </trkpt>
      <trkpt lat="44.38636" lon="5.73288">
        <ele>616</ele>
        <time>2019-06-07T09:43:26Z</time>
      </trkpt>
      <trkpt lat="44.3863" lon="5.73293">
        <ele>616</ele>
        <time>2019-06-07T09:43:27Z</time>
      </trkpt>
      <trkpt lat="44.38624" lon="5.73297">
        <ele>616</ele>
        <time>2019-06-07T09:43:28Z</time>
      </trkpt>
      <trkpt lat="44.38617" lon="5.73301">
        <ele>616</ele>
        <time>2019-06-07T09:43:29Z</time>
      </trkpt>
      <trkpt lat="44.38612" lon="5.73304">
        <ele>616</ele>
        <time>2019-06-07T09:43:30Z</time>
      </trkpt>
      <trkpt lat="44.38605" lon="5.7331">
        <ele>616</ele>
        <time>2019-06-07T09:43:31Z</time>
      </trkpt>
      <trkpt lat="44.386" lon="5.73313">
        <ele>616</ele>
        <time>2019-06-07T09:43:32Z</time>
      </trkpt>
      <trkpt lat="44.38594" lon="5.73316">
        <ele>616</ele>
        <time>2019-06-07T09:43:33Z</time>
      </trkpt>
      <trkpt lat="44.38589" lon="5.7332">
        <ele>616</ele>
        <time>2019-06-07T09:43:34Z</time>
      </trkpt>
      <trkpt lat="44.38583" lon="5.73323">
        <ele>616</ele>
        <time>2019-06-07T09:43:35Z</time>
      </trkpt>
      <trkpt lat="44.38578" lon="5.73326">
        <ele>616</ele>
        <time>2019-06-07T09:43:36Z</time>
      </trkpt>
      <trkpt lat="44.38574" lon="5.7333">
        <ele>616</ele>
        <time>2019-06-07T09:43:37Z</time>
      </trkpt>
      <trkpt lat="44.38569" lon="5.73334">
        <ele>616</ele>
        <time>2019-06-07T09:43:38Z</time>
      </trkpt>
      <trkpt lat="44.38564" lon="5.73336">
        <ele>616</ele>
        <time>2019-06-07T09:43:39Z</time>
      </trkpt>
      <trkpt lat="44.3856" lon="5.73339">
        <ele>616</ele>
        <time>2019-06-07T09:43:40Z</time>
      </trkpt>
      <trkpt lat="44.38556" lon="5.73341">
        <ele>616</ele>
        <time>2019-06-07T09:43:41Z</time>
      </trkpt>
      <trkpt lat="44.38552" lon="5.73342">
        <ele>616</ele>
        <time>2019-06-07T09:43:42Z</time>
      </trkpt>
      <trkpt lat="44.38549" lon="5.73343">
        <ele>616</ele>
        <time>2019-06-07T09:43:43Z</time>
      </trkpt>
      <trkpt lat="44.38544" lon="5.73344">
        <ele>616</ele>
        <time>2019-06-07T09:43:44Z</time>
      </trkpt>
      <trkpt lat="44.3854" lon="5.73347">
        <ele>616</ele>
        <time>2019-06-07T09:43:45Z</time>
      </trkpt>
      <trkpt lat="44.38536" lon="5.73348">
        <ele>616</ele>
        <time>2019-06-07T09:43:46Z</time>
      </trkpt>
      <trkpt lat="44.38532" lon="5.73348">
        <ele>616</ele>
        <time>2019-06-07T09:43:47Z</time>
      </trkpt>
      <trkpt lat="44.38528" lon="5.7335">
        <ele>616</ele>
        <time>2019-06-07T09:43:48Z</time>
      </trkpt>
      <trkpt lat="44.38524" lon="5.7335">
        <ele>617</ele>
        <time>2019-06-07T09:43:49Z</time>
      </trkpt>
      <trkpt lat="44.3852" lon="5.73351">
        <ele>618</ele>
        <time>2019-06-07T09:43:50Z</time>
      </trkpt>
      <trkpt lat="44.38516" lon="5.7335">
        <ele>618</ele>
        <time>2019-06-07T09:43:51Z</time>
      </trkpt>
      <trkpt lat="44.38512" lon="5.73349">
        <ele>619</ele>
        <time>2019-06-07T09:43:52Z</time>
      </trkpt>
      <trkpt lat="44.38509" lon="5.73348">
        <ele>620</ele>
        <time>2019-06-07T09:43:53Z</time>
      </trkpt>
      <trkpt lat="44.38505" lon="5.73348">
        <ele>620</ele>
        <time>2019-06-07T09:43:54Z</time>
      </trkpt>
      <trkpt lat="44.38501" lon="5.73348">
        <ele>620</ele>
        <time>2019-06-07T09:43:55Z</time>
      </trkpt>
      <trkpt lat="44.38496" lon="5.7335">
        <ele>620</ele>
        <time>2019-06-07T09:43:56Z</time>
      </trkpt>
      <trkpt lat="44.38493" lon="5.7335">
        <ele>621</ele>
        <time>2019-06-07T09:43:57Z</time>
      </trkpt>
      <trkpt lat="44.38489" lon="5.73352">
        <ele>621</ele>
        <time>2019-06-07T09:43:58Z</time>
      </trkpt>
      <trkpt lat="44.38485" lon="5.73353">
        <ele>622</ele>
        <time>2019-06-07T09:43:59Z</time>
      </trkpt>
      <trkpt lat="44.38481" lon="5.73355">
        <ele>622</ele>
        <time>2019-06-07T09:44:00Z</time>
      </trkpt>
      <trkpt lat="44.38477" lon="5.73357">
        <ele>623</ele>
        <time>2019-06-07T09:44:01Z</time>
      </trkpt>
      <trkpt lat="44.38474" lon="5.73359">
        <ele>623</ele>
        <time>2019-06-07T09:44:02Z</time>
      </trkpt>
      <trkpt lat="44.3847" lon="5.73362">
        <ele>624</ele>
        <time>2019-06-07T09:44:03Z</time>
      </trkpt>
      <trkpt lat="44.38467" lon="5.73365">
        <ele>624</ele>
        <time>2019-06-07T09:44:04Z</time>
      </trkpt>
      <trkpt lat="44.38464" lon="5.73368">
        <ele>625</ele>
        <time>2019-06-07T09:44:05Z</time>
      </trkpt>
      <trkpt lat="44.38461" lon="5.73371">
        <ele>625</ele>
        <time>2019-06-07T09:44:06Z</time>
      </trkpt>
      <trkpt lat="44.38458" lon="5.73375">
        <ele>625</ele>
        <time>2019-06-07T09:44:07Z</time>
      </trkpt>
      <trkpt lat="44.38455" lon="5.73378">
        <ele>626</ele>
        <time>2019-06-07T09:44:08Z</time>
      </trkpt>
      <trkpt lat="44.38452" lon="5.73382">
        <ele>626</ele>
        <time>2019-06-07T09:44:09Z</time>
      </trkpt>
      <trkpt lat="44.3845" lon="5.73385">
        <ele>626</ele>
        <time>2019-06-07T09:44:10Z</time>
      </trkpt>
      <trkpt lat="44.38448" lon="5.73388">
        <ele>627</ele>
        <time>2019-06-07T09:44:11Z</time>
      </trkpt>
      <trkpt lat="44.38446" lon="5.73392">
        <ele>628</ele>
        <time>2019-06-07T09:44:12Z</time>
      </trkpt>
      <trkpt lat="44.38444" lon="5.73396">
        <ele>628</ele>
        <time>2019-06-07T09:44:13Z</time>
      </trkpt>
      <trkpt lat="44.38442" lon="5.734">
        <ele>629</ele>
        <time>2019-06-07T09:44:14Z</time>
      </trkpt>
      <trkpt lat="44.3844" lon="5.73404">
        <ele>630</ele>
        <time>2019-06-07T09:44:15Z</time>
      </trkpt>
      <trkpt lat="44.38437" lon="5.73409">
        <ele>631</ele>
        <time>2019-06-07T09:44:16Z</time>
      </trkpt>
      <trkpt lat="44.38435" lon="5.73412">
        <ele>631</ele>
        <time>2019-06-07T09:44:17Z</time>
      </trkpt>
      <trkpt lat="44.38431" lon="5.73416">
        <ele>632</ele>
        <time>2019-06-07T09:44:18Z</time>
      </trkpt>
      <trkpt lat="44.38428" lon="5.7342">
        <ele>632</ele>
        <time>2019-06-07T09:44:19Z</time>
      </trkpt>
      <trkpt lat="44.38424" lon="5.73423">
        <ele>632</ele>
        <time>2019-06-07T09:44:20Z</time>
      </trkpt>
      <trkpt lat="44.38419" lon="5.73426">
        <ele>632</ele>
        <time>2019-06-07T09:44:21Z</time>
      </trkpt>
      <trkpt lat="44.38415" lon="5.73428">
        <ele>632</ele>
        <time>2019-06-07T09:44:22Z</time>
      </trkpt>
      <trkpt lat="44.3841" lon="5.73429">
        <ele>632</ele>
        <time>2019-06-07T09:44:23Z</time>
      </trkpt>
      <trkpt lat="44.38405" lon="5.73427">
        <ele>632</ele>
        <time>2019-06-07T09:44:24Z</time>
      </trkpt>
      <trkpt lat="44.384" lon="5.73425">
        <ele>632</ele>
        <time>2019-06-07T09:44:25Z</time>
      </trkpt>
      <trkpt lat="44.38395" lon="5.73423">
        <ele>632</ele>
        <time>2019-06-07T09:44:26Z</time>
      </trkpt>
      <trkpt lat="44.3839" lon="5.73421">
        <ele>632</ele>
        <time>2019-06-07T09:44:27Z</time>
      </trkpt>
      <trkpt lat="44.38385" lon="5.73419">
        <ele>632</ele>
        <time>2019-06-07T09:44:28Z</time>
      </trkpt>
      <trkpt lat="44.38379" lon="5.73419">
        <ele>632</ele>
        <time>2019-06-07T09:44:29Z</time>
      </trkpt>
      <trkpt lat="44.38373" lon="5.73418">
        <ele>632</ele>
        <time>2019-06-07T09:44:30Z</time>
      </trkpt>
      <trkpt lat="44.38368" lon="5.73417">
        <ele>632</ele>
        <time>2019-06-07T09:44:31Z</time>
      </trkpt>
      <trkpt lat="44.38362" lon="5.73415">
        <ele>632</ele>
        <time>2019-06-07T09:44:32Z</time>
      </trkpt>
      <trkpt lat="44.38356" lon="5.73414">
        <ele>632</ele>
        <time>2019-06-07T09:44:33Z</time>
      </trkpt>
      <trkpt lat="44.38351" lon="5.73413">
        <ele>632</ele>
        <time>2019-06-07T09:44:34Z</time>
      </trkpt>
      <trkpt lat="44.38344" lon="5.73413">
        <ele>632</ele>
        <time>2019-06-07T09:44:35Z</time>
      </trkpt>
      <trkpt lat="44.38339" lon="5.73411">
        <ele>632</ele>
        <time>2019-06-07T09:44:36Z</time>
      </trkpt>
      <trkpt lat="44.38333" lon="5.7341">
        <ele>632</ele>
        <time>2019-06-07T09:44:37Z</time>
      </trkpt>
      <trkpt lat="44.38327" lon="5.73409">
        <ele>632</ele>
        <time>2019-06-07T09:44:38Z</time>
      </trkpt>
      <trkpt lat="44.38321" lon="5.73408">
        <ele>632</ele>
        <time>2019-06-07T09:44:39Z</time>
      </trkpt>
      <trkpt lat="44.38314" lon="5.73407">
        <ele>632</ele>
        <time>2019-06-07T09:44:40Z</time>
      </trkpt>
      <trkpt lat="44.38308" lon="5.73406">
        <ele>632</ele>
        <time>2019-06-07T09:44:41Z</time>
      </trkpt>
      <trkpt lat="44.38302" lon="5.73405">
        <ele>632</ele>
        <time>2019-06-07T09:44:42Z</time>
      </trkpt>
      <trkpt lat="44.38296" lon="5.73404">
        <ele>632</ele>
        <time>2019-06-07T09:44:43Z</time>
      </trkpt>
      <trkpt lat="44.3829" lon="5.73403">
        <ele>632</ele>
        <time>2019-06-07T09:44:44Z</time>
      </trkpt>
      <trkpt lat="44.38284" lon="5.73403">
        <ele>632</ele>
        <time>2019-06-07T09:44:45Z</time>
      </trkpt>
      <trkpt lat="44.38278" lon="5.73402">
        <ele>632</ele>
        <time>2019-06-07T09:44:46Z</time>
      </trkpt>
      <trkpt lat="44.38272" lon="5.73401">
        <ele>632</ele>
        <time>2019-06-07T09:44:47Z</time>
      </trkpt>
      <trkpt lat="44.38266" lon="5.73401">
        <ele>632</ele>
        <time>2019-06-07T09:44:48Z</time>
      </trkpt>
      <trkpt lat="44.38259" lon="5.734">
        <ele>632</ele>
        <time>2019-06-07T09:44:49Z</time>
      </trkpt>
      <trkpt lat="44.38253" lon="5.73399">
        <ele>632</ele>
        <time>2019-06-07T09:44:50Z</time>
      </trkpt>
      <trkpt lat="44.38246" lon="5.73398">
        <ele>632</ele>
        <time>2019-06-07T09:44:51Z</time>
      </trkpt>
      <trkpt lat="44.3824" lon="5.73397">
        <ele>632</ele>
        <time>2019-06-07T09:44:52Z</time>
      </trkpt>
      <trkpt lat="44.38233" lon="5.73396">
        <ele>632</ele>
        <time>2019-06-07T09:44:53Z</time>
      </trkpt>
      <trkpt lat="44.38227" lon="5.73395">
        <ele>632</ele>
        <time>2019-06-07T09:44:54Z</time>
      </trkpt>
      <trkpt lat="44.3822" lon="5.73395">
        <ele>632</ele>
        <time>2019-06-07T09:44:55Z</time>
      </trkpt>
      <trkpt lat="44.38213" lon="5.73394">
        <ele>632</ele>
        <time>2019-06-07T09:44:56Z</time>
      </trkpt>
      <trkpt lat="44.38207" lon="5.73393">
        <ele>632</ele>
        <time>2019-06-07T09:44:57Z</time>
      </trkpt>
      <trkpt lat="44.38201" lon="5.73391">
        <ele>632</ele>
        <time>2019-06-07T09:44:58Z</time>
      </trkpt>
      <trkpt lat="44.38195" lon="5.7339">
        <ele>632</ele>
        <time>2019-06-07T09:44:59Z</time>
      </trkpt>
      <trkpt lat="44.38189" lon="5.73389">
        <ele>632</ele>
        <time>2019-06-07T09:45:00Z</time>
      </trkpt>
      <trkpt lat="44.38183" lon="5.73388">
        <ele>632</ele>
        <time>2019-06-07T09:45:01Z</time>
      </trkpt>
      <trkpt lat="44.38177" lon="5.73387">
        <ele>632</ele>
        <time>2019-06-07T09:45:02Z</time>
      </trkpt>
      <trkpt lat="44.38171" lon="5.73386">
        <ele>632</ele>
        <time>2019-06-07T09:45:03Z</time>
      </trkpt>
      <trkpt lat="44.38166" lon="5.73385">
        <ele>632</ele>
        <time>2019-06-07T09:45:04Z</time>
      </trkpt>
      <trkpt lat="44.3816" lon="5.73384">
        <ele>632</ele>
        <time>2019-06-07T09:45:05Z</time>
      </trkpt>
      <trkpt lat="44.38155" lon="5.73383">
        <ele>632</ele>
        <time>2019-06-07T09:45:06Z</time>
      </trkpt>
      <trkpt lat="44.38149" lon="5.73382">
        <ele>632</ele>
        <time>2019-06-07T09:45:07Z</time>
      </trkpt>
      <trkpt lat="44.38144" lon="5.73382">
        <ele>632</ele>
        <time>2019-06-07T09:45:08Z</time>
      </trkpt>
      <trkpt lat="44.38138" lon="5.73381">
        <ele>632</ele>
        <time>2019-06-07T09:45:09Z</time>
      </trkpt>
      <trkpt lat="44.38133" lon="5.73381">
        <ele>632</ele>
        <time>2019-06-07T09:45:10Z</time>
      </trkpt>
      <trkpt lat="44.38128" lon="5.7338">
        <ele>632</ele>
        <time>2019-06-07T09:45:11Z</time>
      </trkpt>
      <trkpt lat="44.38122" lon="5.7338">
        <ele>632</ele>
        <time>2019-06-07T09:45:12Z</time>
      </trkpt>
      <trkpt lat="44.38117" lon="5.73379">
        <ele>632</ele>
        <time>2019-06-07T09:45:13Z</time>
      </trkpt>
      <trkpt lat="44.38112" lon="5.73378">
        <ele>632</ele>
        <time>2019-06-07T09:45:14Z</time>
      </trkpt>
      <trkpt lat="44.38107" lon="5.73378">
        <ele>632</ele>
        <time>2019-06-07T09:45:15Z</time>
      </trkpt>
      <trkpt lat="44.38101" lon="5.73377">
        <ele>632</ele>
        <time>2019-06-07T09:45:16Z</time>
      </trkpt>
      <trkpt lat="44.38096" lon="5.73377">
        <ele>632</ele>
        <time>2019-06-07T09:45:17Z</time>
      </trkpt>
      <trkpt lat="44.38091" lon="5.73377">
        <ele>632</ele>
        <time>2019-06-07T09:45:18Z</time>
      </trkpt>
      <trkpt lat="44.38086" lon="5.73376">
        <ele>632</ele>
        <time>2019-06-07T09:45:19Z</time>
      </trkpt>
      <trkpt lat="44.38081" lon="5.73376">
        <ele>632</ele>
        <time>2019-06-07T09:45:20Z</time>
      </trkpt>
      <trkpt lat="44.38075" lon="5.73376">
        <ele>632</ele>
        <time>2019-06-07T09:45:21Z</time>
      </trkpt>
      <trkpt lat="44.3807" lon="5.73375">
        <ele>632</ele>
        <time>2019-06-07T09:45:22Z</time>
      </trkpt>
      <trkpt lat="44.38065" lon="5.73375">
        <ele>632</ele>
        <time>2019-06-07T09:45:23Z</time>
      </trkpt>
      <trkpt lat="44.3806" lon="5.73373">
        <ele>632</ele>
        <time>2019-06-07T09:45:24Z</time>
      </trkpt>
      <trkpt lat="44.38055" lon="5.73372">
        <ele>632</ele>
        <time>2019-06-07T09:45:25Z</time>
      </trkpt>
      <trkpt lat="44.3805" lon="5.73371">
        <ele>632</ele>
        <time>2019-06-07T09:45:26Z</time>
      </trkpt>
      <trkpt lat="44.38045" lon="5.73369">
        <ele>632</ele>
        <time>2019-06-07T09:45:27Z</time>
      </trkpt>
      <trkpt lat="44.3804" lon="5.73368">
        <ele>632</ele>
        <time>2019-06-07T09:45:28Z</time>
      </trkpt>
      <trkpt lat="44.38036" lon="5.73366">
        <ele>632</ele>
        <time>2019-06-07T09:45:29Z</time>
      </trkpt>
      <trkpt lat="44.38031" lon="5.73365">
        <ele>632</ele>
        <time>2019-06-07T09:45:30Z</time>
      </trkpt>
      <trkpt lat="44.38026" lon="5.73364">
        <ele>632</ele>
        <time>2019-06-07T09:45:31Z</time>
      </trkpt>
      <trkpt lat="44.38021" lon="5.73363">
        <ele>632</ele>
        <time>2019-06-07T09:45:32Z</time>
      </trkpt>
      <trkpt lat="44.38016" lon="5.73362">
        <ele>632</ele>
        <time>2019-06-07T09:45:33Z</time>
      </trkpt>
      <trkpt lat="44.38011" lon="5.73361">
        <ele>632</ele>
        <time>2019-06-07T09:45:34Z</time>
      </trkpt>
      <trkpt lat="44.38005" lon="5.73359">
        <ele>632</ele>
        <time>2019-06-07T09:45:35Z</time>
      </trkpt>
      <trkpt lat="44.38" lon="5.73358">
        <ele>632</ele>
        <time>2019-06-07T09:45:36Z</time>
      </trkpt>
      <trkpt lat="44.37994" lon="5.73358">
        <ele>632</ele>
        <time>2019-06-07T09:45:37Z</time>
      </trkpt>
      <trkpt lat="44.37988" lon="5.73357">
        <ele>632</ele>
        <time>2019-06-07T09:45:38Z</time>
      </trkpt>
      <trkpt lat="44.37982" lon="5.73356">
        <ele>632</ele>
        <time>2019-06-07T09:45:39Z</time>
      </trkpt>
      <trkpt lat="44.37976" lon="5.73354">
        <ele>632</ele>
        <time>2019-06-07T09:45:40Z</time>
      </trkpt>
      <trkpt lat="44.3797" lon="5.73353">
        <ele>632</ele>
        <time>2019-06-07T09:45:41Z</time>
      </trkpt>
      <trkpt lat="44.37964" lon="5.73352">
        <ele>632</ele>
        <time>2019-06-07T09:45:42Z</time>
      </trkpt>
      <trkpt lat="44.37958" lon="5.73351">
        <ele>632</ele>
        <time>2019-06-07T09:45:43Z</time>
      </trkpt>
      <trkpt lat="44.37952" lon="5.73353">
        <ele>631</ele>
        <time>2019-06-07T09:45:44Z</time>
      </trkpt>
      <trkpt lat="44.37946" lon="5.73357">
        <ele>631</ele>
        <time>2019-06-07T09:45:45Z</time>
      </trkpt>
      <trkpt lat="44.37941" lon="5.73362">
        <ele>631</ele>
        <time>2019-06-07T09:45:46Z</time>
      </trkpt>
      <trkpt lat="44.37936" lon="5.73368">
        <ele>630</ele>
        <time>2019-06-07T09:45:47Z</time>
      </trkpt>
      <trkpt lat="44.37931" lon="5.73374">
        <ele>630</ele>
        <time>2019-06-07T09:45:48Z</time>
      </trkpt>
      <trkpt lat="44.37925" lon="5.73381">
        <ele>630</ele>
        <time>2019-06-07T09:45:49Z</time>
      </trkpt>
      <trkpt lat="44.3792" lon="5.73387">
        <ele>629</ele>
        <time>2019-06-07T09:45:50Z</time>
      </trkpt>
      <trkpt lat="44.37914" lon="5.73393">
        <ele>629</ele>
        <time>2019-06-07T09:45:51Z</time>
      </trkpt>
      <trkpt lat="44.37909" lon="5.73399">
        <ele>629</ele>
        <time>2019-06-07T09:45:52Z</time>
      </trkpt>
      <trkpt lat="44.37904" lon="5.73405">
        <ele>629</ele>
        <time>2019-06-07T09:45:53Z</time>
      </trkpt>
      <trkpt lat="44.37899" lon="5.73411">
        <ele>628</ele>
        <time>2019-06-07T09:45:54Z</time>
      </trkpt>
      <trkpt lat="44.37894" lon="5.73416">
        <ele>628</ele>
        <time>2019-06-07T09:45:55Z</time>
      </trkpt>
      <trkpt lat="44.37889" lon="5.73421">
        <ele>628</ele>
        <time>2019-06-07T09:45:56Z</time>
      </trkpt>
      <trkpt lat="44.37884" lon="5.73427">
        <ele>628</ele>
        <time>2019-06-07T09:45:57Z</time>
      </trkpt>
      <trkpt lat="44.3788" lon="5.73432">
        <ele>628</ele>
        <time>2019-06-07T09:45:58Z</time>
      </trkpt>
      <trkpt lat="44.37875" lon="5.73438">
        <ele>628</ele>
        <time>2019-06-07T09:45:59Z</time>
      </trkpt>
      <trkpt lat="44.37871" lon="5.73443">
        <ele>628</ele>
        <time>2019-06-07T09:46:00Z</time>
      </trkpt>
      <trkpt lat="44.37867" lon="5.73448">
        <ele>628</ele>
        <time>2019-06-07T09:46:01Z</time>
      </trkpt>
      <trkpt lat="44.37862" lon="5.73453">
        <ele>628</ele>
        <time>2019-06-07T09:46:02Z</time>
      </trkpt>
      <trkpt lat="44.37857" lon="5.73459">
        <ele>628</ele>
        <time>2019-06-07T09:46:03Z</time>
      </trkpt>
      <trkpt lat="44.37852" lon="5.73464">
        <ele>627</ele>
        <time>2019-06-07T09:46:04Z</time>
      </trkpt>
      <trkpt lat="44.37847" lon="5.73471">
        <ele>627</ele>
        <time>2019-06-07T09:46:05Z</time>
      </trkpt>
      <trkpt lat="44.37842" lon="5.73477">
        <ele>627</ele>
        <time>2019-06-07T09:46:06Z</time>
      </trkpt>
      <trkpt lat="44.37838" lon="5.73482">
        <ele>627</ele>
        <time>2019-06-07T09:46:07Z</time>
      </trkpt>
      <trkpt lat="44.37833" lon="5.73488">
        <ele>627</ele>
        <time>2019-06-07T09:46:08Z</time>
      </trkpt>
      <trkpt lat="44.37828" lon="5.73493">
        <ele>627</ele>
        <time>2019-06-07T09:46:09Z</time>
      </trkpt>
      <trkpt lat="44.37824" lon="5.73499">
        <ele>627</ele>
        <time>2019-06-07T09:46:10Z</time>
      </trkpt>
      <trkpt lat="44.3782" lon="5.73504">
        <ele>627</ele>
        <time>2019-06-07T09:46:11Z</time>
      </trkpt>
      <trkpt lat="44.37815" lon="5.73509">
        <ele>627</ele>
        <time>2019-06-07T09:46:12Z</time>
      </trkpt>
      <trkpt lat="44.37811" lon="5.73514">
        <ele>627</ele>
        <time>2019-06-07T09:46:13Z</time>
      </trkpt>
      <trkpt lat="44.37806" lon="5.73519">
        <ele>627</ele>
        <time>2019-06-07T09:46:14Z</time>
      </trkpt>
      <trkpt lat="44.37802" lon="5.73524">
        <ele>627</ele>
        <time>2019-06-07T09:46:15Z</time>
      </trkpt>
      <trkpt lat="44.37798" lon="5.73529">
        <ele>627</ele>
        <time>2019-06-07T09:46:16Z</time>
      </trkpt>
      <trkpt lat="44.37794" lon="5.73534">
        <ele>627</ele>
        <time>2019-06-07T09:46:17Z</time>
      </trkpt>
      <trkpt lat="44.3779" lon="5.73539">
        <ele>627</ele>
        <time>2019-06-07T09:46:18Z</time>
      </trkpt>
      <trkpt lat="44.37786" lon="5.73544">
        <ele>627</ele>
        <time>2019-06-07T09:46:19Z</time>
      </trkpt>
      <trkpt lat="44.37782" lon="5.73549">
        <ele>627</ele>
        <time>2019-06-07T09:46:20Z</time>
      </trkpt>
      <trkpt lat="44.37777" lon="5.73553">
        <ele>627</ele>
        <time>2019-06-07T09:46:21Z</time>
      </trkpt>
      <trkpt lat="44.37774" lon="5.73558">
        <ele>627</ele>
        <time>2019-06-07T09:46:22Z</time>
      </trkpt>
      <trkpt lat="44.3777" lon="5.73563">
        <ele>627</ele>
        <time>2019-06-07T09:46:23Z</time>
      </trkpt>
      <trkpt lat="44.37766" lon="5.73567">
        <ele>627</ele>
        <time>2019-06-07T09:46:24Z</time>
      </trkpt>
      <trkpt lat="44.37762" lon="5.73571">
        <ele>627</ele>
        <time>2019-06-07T09:46:25Z</time>
      </trkpt>
      <trkpt lat="44.37758" lon="5.73575">
        <ele>627</ele>
        <time>2019-06-07T09:46:26Z</time>
      </trkpt>
      <trkpt lat="44.37754" lon="5.7358">
        <ele>627</ele>
        <time>2019-06-07T09:46:27Z</time>
      </trkpt>
      <trkpt lat="44.3775" lon="5.73584">
        <ele>627</ele>
        <time>2019-06-07T09:46:28Z</time>
      </trkpt>
      <trkpt lat="44.37746" lon="5.73589">
        <ele>627</ele>
        <time>2019-06-07T09:46:29Z</time>
      </trkpt>
      <trkpt lat="44.37742" lon="5.73593">
        <ele>627</ele>
        <time>2019-06-07T09:46:30Z</time>
      </trkpt>
      <trkpt lat="44.37738" lon="5.73597">
        <ele>627</ele>
        <time>2019-06-07T09:46:31Z</time>
      </trkpt>
      <trkpt lat="44.37733" lon="5.73601">
        <ele>627</ele>
        <time>2019-06-07T09:46:32Z</time>
      </trkpt>
      <trkpt lat="44.37729" lon="5.73605">
        <ele>627</ele>
        <time>2019-06-07T09:46:33Z</time>
      </trkpt>
      <trkpt lat="44.37724" lon="5.73609">
        <ele>627</ele>
        <time>2019-06-07T09:46:34Z</time>
      </trkpt>
      <trkpt lat="44.37719" lon="5.73612">
        <ele>627</ele>
        <time>2019-06-07T09:46:35Z</time>
      </trkpt>
      <trkpt lat="44.37714" lon="5.73616">
        <ele>627</ele>
        <time>2019-06-07T09:46:36Z</time>
      </trkpt>
      <trkpt lat="44.37709" lon="5.73619">
        <ele>627</ele>
        <time>2019-06-07T09:46:37Z</time>
      </trkpt>
      <trkpt lat="44.37704" lon="5.73622">
        <ele>627</ele>
        <time>2019-06-07T09:46:38Z</time>
      </trkpt>
      <trkpt lat="44.37699" lon="5.73624">
        <ele>627</ele>
        <time>2019-06-07T09:46:39Z</time>
      </trkpt>
      <trkpt lat="44.37694" lon="5.73627">
        <ele>627</ele>
        <time>2019-06-07T09:46:40Z</time>
      </trkpt>
      <trkpt lat="44.37689" lon="5.73629">
        <ele>627</ele>
        <time>2019-06-07T09:46:41Z</time>
      </trkpt>
      <trkpt lat="44.37684" lon="5.73632">
        <ele>627</ele>
        <time>2019-06-07T09:46:42Z</time>
      </trkpt>
      <trkpt lat="44.37679" lon="5.73634">
        <ele>627</ele>
        <time>2019-06-07T09:46:43Z</time>
      </trkpt>
      <trkpt lat="44.37674" lon="5.73637">
        <ele>627</ele>
        <time>2019-06-07T09:46:44Z</time>
      </trkpt>
      <trkpt lat="44.37669" lon="5.7364">
        <ele>627</ele>
        <time>2019-06-07T09:46:45Z</time>
      </trkpt>
      <trkpt lat="44.37664" lon="5.73643">
        <ele>627</ele>
        <time>2019-06-07T09:46:46Z</time>
      </trkpt>
      <trkpt lat="44.37659" lon="5.73645">
        <ele>627</ele>
        <time>2019-06-07T09:46:47Z</time>
      </trkpt>
      <trkpt lat="44.37653" lon="5.73648">
        <ele>627</ele>
        <time>2019-06-07T09:46:48Z</time>
      </trkpt>
      <trkpt lat="44.37648" lon="5.73651">
        <ele>627</ele>
        <time>2019-06-07T09:46:49Z</time>
      </trkpt>
      <trkpt lat="44.37643" lon="5.73654">
        <ele>627</ele>
        <time>2019-06-07T09:46:50Z</time>
      </trkpt>
      <trkpt lat="44.37637" lon="5.73658">
        <ele>627</ele>
        <time>2019-06-07T09:46:51Z</time>
      </trkpt>
      <trkpt lat="44.37632" lon="5.73661">
        <ele>627</ele>
        <time>2019-06-07T09:46:52Z</time>
      </trkpt>
      <trkpt lat="44.37627" lon="5.73664">
        <ele>627</ele>
        <time>2019-06-07T09:46:53Z</time>
      </trkpt>
      <trkpt lat="44.37622" lon="5.73667">
        <ele>627</ele>
        <time>2019-06-07T09:46:54Z</time>
      </trkpt>
      <trkpt lat="44.37616" lon="5.7367">
        <ele>627</ele>
        <time>2019-06-07T09:46:55Z</time>
      </trkpt>
      <trkpt lat="44.37611" lon="5.73673">
        <ele>627</ele>
        <time>2019-06-07T09:46:56Z</time>
      </trkpt>
      <trkpt lat="44.37606" lon="5.73676">
        <ele>627</ele>
        <time>2019-06-07T09:46:57Z</time>
      </trkpt>
      <trkpt lat="44.37601" lon="5.73679">
        <ele>627</ele>
        <time>2019-06-07T09:46:58Z</time>
      </trkpt>
      <trkpt lat="44.37595" lon="5.73682">
        <ele>627</ele>
        <time>2019-06-07T09:46:59Z</time>
      </trkpt>
      <trkpt lat="44.3759" lon="5.73685">
        <ele>627</ele>
        <time>2019-06-07T09:47:00Z</time>
      </trkpt>
      <trkpt lat="44.37585" lon="5.73688">
        <ele>627</ele>
        <time>2019-06-07T09:47:01Z</time>
      </trkpt>
      <trkpt lat="44.37579" lon="5.7369">
        <ele>627</ele>
        <time>2019-06-07T09:47:02Z</time>
      </trkpt>
      <trkpt lat="44.37574" lon="5.73693">
        <ele>627</ele>
        <time>2019-06-07T09:47:03Z</time>
      </trkpt>
      <trkpt lat="44.37568" lon="5.73695">
        <ele>627</ele>
        <time>2019-06-07T09:47:04Z</time>
      </trkpt>
      <trkpt lat="44.37563" lon="5.73698">
        <ele>627</ele>
        <time>2019-06-07T09:47:05Z</time>
      </trkpt>
      <trkpt lat="44.37558" lon="5.73702">
        <ele>627</ele>
        <time>2019-06-07T09:47:06Z</time>
      </trkpt>
      <trkpt lat="44.37553" lon="5.73707">
        <ele>627</ele>
        <time>2019-06-07T09:47:07Z</time>
      </trkpt>
      <trkpt lat="44.37549" lon="5.73712">
        <ele>626</ele>
        <time>2019-06-07T09:47:08Z</time>
      </trkpt>
      <trkpt lat="44.37545" lon="5.73719">
        <ele>626</ele>
        <time>2019-06-07T09:47:09Z</time>
      </trkpt>
      <trkpt lat="44.37542" lon="5.73725">
        <ele>626</ele>
        <time>2019-06-07T09:47:10Z</time>
      </trkpt>
      <trkpt lat="44.37538" lon="5.73732">
        <ele>626</ele>
        <time>2019-06-07T09:47:11Z</time>
      </trkpt>
      <trkpt lat="44.37535" lon="5.73739">
        <ele>625</ele>
        <time>2019-06-07T09:47:12Z</time>
      </trkpt>
      <trkpt lat="44.37531" lon="5.73746">
        <ele>625</ele>
        <time>2019-06-07T09:47:13Z</time>
      </trkpt>
      <trkpt lat="44.37526" lon="5.73751">
        <ele>625</ele>
        <time>2019-06-07T09:47:14Z</time>
      </trkpt>
      <trkpt lat="44.3752" lon="5.73754">
        <ele>625</ele>
        <time>2019-06-07T09:47:15Z</time>
      </trkpt>
      <trkpt lat="44.37513" lon="5.73757">
        <ele>625</ele>
        <time>2019-06-07T09:47:16Z</time>
      </trkpt>
      <trkpt lat="44.37506" lon="5.73757">
        <ele>625</ele>
        <time>2019-06-07T09:47:17Z</time>
      </trkpt>
      <trkpt lat="44.37499" lon="5.73758">
        <ele>624</ele>
        <time>2019-06-07T09:47:18Z</time>
      </trkpt>
      <trkpt lat="44.37493" lon="5.73761">
        <ele>624</ele>
        <time>2019-06-07T09:47:19Z</time>
      </trkpt>
      <trkpt lat="44.37487" lon="5.73766">
        <ele>623</ele>
        <time>2019-06-07T09:47:20Z</time>
      </trkpt>
      <trkpt lat="44.37482" lon="5.73771">
        <ele>623</ele>
        <time>2019-06-07T09:47:21Z</time>
      </trkpt>
      <trkpt lat="44.37478" lon="5.73777">
        <ele>623</ele>
        <time>2019-06-07T09:47:22Z</time>
      </trkpt>
      <trkpt lat="44.37474" lon="5.73783">
        <ele>623</ele>
        <time>2019-06-07T09:47:23Z</time>
      </trkpt>
      <trkpt lat="44.37469" lon="5.73789">
        <ele>623</ele>
        <time>2019-06-07T09:47:24Z</time>
      </trkpt>
      <trkpt lat="44.37465" lon="5.73792">
        <ele>623</ele>
        <time>2019-06-07T09:47:25Z</time>
      </trkpt>
      <trkpt lat="44.3746" lon="5.73796">
        <ele>623</ele>
        <time>2019-06-07T09:47:26Z</time>
      </trkpt>
      <trkpt lat="44.37454" lon="5.73799">
        <ele>623</ele>
        <time>2019-06-07T09:47:27Z</time>
      </trkpt>
      <trkpt lat="44.37449" lon="5.73801">
        <ele>623</ele>
        <time>2019-06-07T09:47:28Z</time>
      </trkpt>
      <trkpt lat="44.37443" lon="5.73803">
        <ele>623</ele>
        <time>2019-06-07T09:47:29Z</time>
      </trkpt>
      <trkpt lat="44.37437" lon="5.73805">
        <ele>623</ele>
        <time>2019-06-07T09:47:30Z</time>
      </trkpt>
      <trkpt lat="44.37432" lon="5.73808">
        <ele>623</ele>
        <time>2019-06-07T09:47:31Z</time>
      </trkpt>
      <trkpt lat="44.37426" lon="5.7381">
        <ele>623</ele>
        <time>2019-06-07T09:47:32Z</time>
      </trkpt>
      <trkpt lat="44.3742" lon="5.73814">
        <ele>623</ele>
        <time>2019-06-07T09:47:33Z</time>
      </trkpt>
      <trkpt lat="44.37414" lon="5.73818">
        <ele>623</ele>
        <time>2019-06-07T09:47:34Z</time>
      </trkpt>
      <trkpt lat="44.37408" lon="5.73821">
        <ele>623</ele>
        <time>2019-06-07T09:47:35Z</time>
      </trkpt>
      <trkpt lat="44.37402" lon="5.73825">
        <ele>623</ele>
        <time>2019-06-07T09:47:36Z</time>
      </trkpt>
      <trkpt lat="44.37397" lon="5.73828">
        <ele>623</ele>
        <time>2019-06-07T09:47:37Z</time>
      </trkpt>
      <trkpt lat="44.37392" lon="5.73832">
        <ele>623</ele>
        <time>2019-06-07T09:47:38Z</time>
      </trkpt>
      <trkpt lat="44.37386" lon="5.73835">
        <ele>623</ele>
        <time>2019-06-07T09:47:39Z</time>
      </trkpt>
      <trkpt lat="44.37381" lon="5.73839">
        <ele>623</ele>
        <time>2019-06-07T09:47:40Z</time>
      </trkpt>
      <trkpt lat="44.37375" lon="5.73842">
        <ele>623</ele>
        <time>2019-06-07T09:47:41Z</time>
      </trkpt>
      <trkpt lat="44.3737" lon="5.73845">
        <ele>623</ele>
        <time>2019-06-07T09:47:42Z</time>
      </trkpt>
      <trkpt lat="44.37364" lon="5.73849">
        <ele>623</ele>
        <time>2019-06-07T09:47:43Z</time>
      </trkpt>
      <trkpt lat="44.37359" lon="5.73852">
        <ele>623</ele>
        <time>2019-06-07T09:47:44Z</time>
      </trkpt>
      <trkpt lat="44.37353" lon="5.73854">
        <ele>623</ele>
        <time>2019-06-07T09:47:45Z</time>
      </trkpt>
      <trkpt lat="44.37347" lon="5.73857">
        <ele>623</ele>
        <time>2019-06-07T09:47:46Z</time>
      </trkpt>
      <trkpt lat="44.37342" lon="5.73859">
        <ele>623</ele>
        <time>2019-06-07T09:47:47Z</time>
      </trkpt>
      <trkpt lat="44.37336" lon="5.73862">
        <ele>623</ele>
        <time>2019-06-07T09:47:48Z</time>
      </trkpt>
      <trkpt lat="44.3733" lon="5.73864">
        <ele>623</ele>
        <time>2019-06-07T09:47:49Z</time>
      </trkpt>
      <trkpt lat="44.37324" lon="5.73866">
        <ele>623</ele>
        <time>2019-06-07T09:47:50Z</time>
      </trkpt>
      <trkpt lat="44.37318" lon="5.73868">
        <ele>623</ele>
        <time>2019-06-07T09:47:51Z</time>
      </trkpt>
      <trkpt lat="44.37311" lon="5.73869">
        <ele>623</ele>
        <time>2019-06-07T09:47:52Z</time>
      </trkpt>
      <trkpt lat="44.37305" lon="5.73871">
        <ele>623</ele>
        <time>2019-06-07T09:47:53Z</time>
      </trkpt>
      <trkpt lat="44.37299" lon="5.73873">
        <ele>623</ele>
        <time>2019-06-07T09:47:54Z</time>
      </trkpt>
      <trkpt lat="44.37292" lon="5.73875">
        <ele>623</ele>
        <time>2019-06-07T09:47:55Z</time>
      </trkpt>
      <trkpt lat="44.37286" lon="5.73876">
        <ele>623</ele>
        <time>2019-06-07T09:47:56Z</time>
      </trkpt>
      <trkpt lat="44.37278" lon="5.73878">
        <ele>623</ele>
        <time>2019-06-07T09:47:57Z</time>
      </trkpt>
      <trkpt lat="44.37272" lon="5.7388">
        <ele>623</ele>
        <time>2019-06-07T09:47:58Z</time>
      </trkpt>
      <trkpt lat="44.37265" lon="5.73882">
        <ele>623</ele>
        <time>2019-06-07T09:47:59Z</time>
      </trkpt>
      <trkpt lat="44.37258" lon="5.73884">
        <ele>623</ele>
        <time>2019-06-07T09:48:00Z</time>
      </trkpt>
      <trkpt lat="44.37251" lon="5.73886">
        <ele>623</ele>
        <time>2019-06-07T09:48:01Z</time>
      </trkpt>
      <trkpt lat="44.37244" lon="5.73889">
        <ele>623</ele>
        <time>2019-06-07T09:48:02Z</time>
      </trkpt>
      <trkpt lat="44.37237" lon="5.73891">
        <ele>623</ele>
        <time>2019-06-07T09:48:03Z</time>
      </trkpt>
      <trkpt lat="44.3723" lon="5.73893">
        <ele>622</ele>
        <time>2019-06-07T09:48:04Z</time>
      </trkpt>
      <trkpt lat="44.37223" lon="5.73895">
        <ele>622</ele>
        <time>2019-06-07T09:48:05Z</time>
      </trkpt>
      <trkpt lat="44.37216" lon="5.73897">
        <ele>621</ele>
        <time>2019-06-07T09:48:06Z</time>
      </trkpt>
      <trkpt lat="44.37209" lon="5.73899">
        <ele>621</ele>
        <time>2019-06-07T09:48:07Z</time>
      </trkpt>
      <trkpt lat="44.37202" lon="5.73901">
        <ele>621</ele>
        <time>2019-06-07T09:48:08Z</time>
      </trkpt>
      <trkpt lat="44.37195" lon="5.73904">
        <ele>620</ele>
        <time>2019-06-07T09:48:09Z</time>
      </trkpt>
      <trkpt lat="44.37188" lon="5.73907">
        <ele>620</ele>
        <time>2019-06-07T09:48:10Z</time>
      </trkpt>
      <trkpt lat="44.37182" lon="5.73911">
        <ele>620</ele>
        <time>2019-06-07T09:48:11Z</time>
      </trkpt>
      <trkpt lat="44.37176" lon="5.73916">
        <ele>620</ele>
        <time>2019-06-07T09:48:12Z</time>
      </trkpt>
      <trkpt lat="44.37171" lon="5.73923">
        <ele>620</ele>
        <time>2019-06-07T09:48:13Z</time>
      </trkpt>
      <trkpt lat="44.37166" lon="5.7393">
        <ele>620</ele>
        <time>2019-06-07T09:48:14Z</time>
      </trkpt>
      <trkpt lat="44.37162" lon="5.73938">
        <ele>620</ele>
        <time>2019-06-07T09:48:15Z</time>
      </trkpt>
      <trkpt lat="44.37158" lon="5.73946">
        <ele>620</ele>
        <time>2019-06-07T09:48:16Z</time>
      </trkpt>
      <trkpt lat="44.37154" lon="5.73954">
        <ele>620</ele>
        <time>2019-06-07T09:48:17Z</time>
      </trkpt>
      <trkpt lat="44.37151" lon="5.73961">
        <ele>620</ele>
        <time>2019-06-07T09:48:18Z</time>
      </trkpt>
      <trkpt lat="44.37148" lon="5.73969">
        <ele>620</ele>
        <time>2019-06-07T09:48:19Z</time>
      </trkpt>
      <trkpt lat="44.37144" lon="5.73976">
        <ele>620</ele>
        <time>2019-06-07T09:48:20Z</time>
      </trkpt>
      <trkpt lat="44.3714" lon="5.73982">
        <ele>620</ele>
        <time>2019-06-07T09:48:21Z</time>
      </trkpt>
      <trkpt lat="44.37137" lon="5.73989">
        <ele>620</ele>
        <time>2019-06-07T09:48:22Z</time>
      </trkpt>
      <trkpt lat="44.37133" lon="5.73996">
        <ele>620</ele>
        <time>2019-06-07T09:48:23Z</time>
      </trkpt>
      <trkpt lat="44.3713" lon="5.74002">
        <ele>620</ele>
        <time>2019-06-07T09:48:24Z</time>
      </trkpt>
      <trkpt lat="44.37127" lon="5.74009">
        <ele>620</ele>
        <time>2019-06-07T09:48:25Z</time>
      </trkpt>
      <trkpt lat="44.37124" lon="5.74015">
        <ele>620</ele>
        <time>2019-06-07T09:48:26Z</time>
      </trkpt>
      <trkpt lat="44.37121" lon="5.74021">
        <ele>620</ele>
        <time>2019-06-07T09:48:27Z</time>
      </trkpt>
      <trkpt lat="44.37118" lon="5.74026">
        <ele>620</ele>
        <time>2019-06-07T09:48:28Z</time>
      </trkpt>
      <trkpt lat="44.37115" lon="5.74032">
        <ele>620</ele>
        <time>2019-06-07T09:48:29Z</time>
      </trkpt>
      <trkpt lat="44.37112" lon="5.74038">
        <ele>620</ele>
        <time>2019-06-07T09:48:30Z</time>
      </trkpt>
      <trkpt lat="44.37109" lon="5.74043">
        <ele>620</ele>
        <time>2019-06-07T09:48:31Z</time>
      </trkpt>
      <trkpt lat="44.37106" lon="5.74049">
        <ele>620</ele>
        <time>2019-06-07T09:48:32Z</time>
      </trkpt>
      <trkpt lat="44.37103" lon="5.74055">
        <ele>620</ele>
        <time>2019-06-07T09:48:33Z</time>
      </trkpt>
      <trkpt lat="44.371" lon="5.74061">
        <ele>620</ele>
        <time>2019-06-07T09:48:34Z</time>
      </trkpt>
      <trkpt lat="44.37097" lon="5.74067">
        <ele>620</ele>
        <time>2019-06-07T09:48:35Z</time>
      </trkpt>
      <trkpt lat="44.37094" lon="5.74072">
        <ele>620</ele>
        <time>2019-06-07T09:48:36Z</time>
      </trkpt>
      <trkpt lat="44.37091" lon="5.74078">
        <ele>620</ele>
        <time>2019-06-07T09:48:37Z</time>
      </trkpt>
      <trkpt lat="44.37089" lon="5.74084">
        <ele>620</ele>
        <time>2019-06-07T09:48:38Z</time>
      </trkpt>
      <trkpt lat="44.37086" lon="5.74089">
        <ele>620</ele>
        <time>2019-06-07T09:48:39Z</time>
      </trkpt>
      <trkpt lat="44.37083" lon="5.74094">
        <ele>620</ele>
        <time>2019-06-07T09:48:40Z</time>
      </trkpt>
      <trkpt lat="44.3708" lon="5.741">
        <ele>620</ele>
        <time>2019-06-07T09:48:41Z</time>
      </trkpt>
      <trkpt lat="44.37077" lon="5.74107">
        <ele>620</ele>
        <time>2019-06-07T09:48:42Z</time>
      </trkpt>
      <trkpt lat="44.37074" lon="5.74113">
        <ele>620</ele>
        <time>2019-06-07T09:48:43Z</time>
      </trkpt>
      <trkpt lat="44.3707" lon="5.74119">
        <ele>620</ele>
        <time>2019-06-07T09:48:44Z</time>
      </trkpt>
      <trkpt lat="44.37067" lon="5.74126">
        <ele>620</ele>
        <time>2019-06-07T09:48:45Z</time>
      </trkpt>
      <trkpt lat="44.37063" lon="5.74132">
        <ele>620</ele>
        <time>2019-06-07T09:48:46Z</time>
      </trkpt>
      <trkpt lat="44.3706" lon="5.74139">
        <ele>620</ele>
        <time>2019-06-07T09:48:47Z</time>
      </trkpt>
      <trkpt lat="44.37056" lon="5.74146">
        <ele>620</ele>
        <time>2019-06-07T09:48:48Z</time>
      </trkpt>
      <trkpt lat="44.37053" lon="5.74153">
        <ele>620</ele>
        <time>2019-06-07T09:48:49Z</time>
      </trkpt>
      <trkpt lat="44.37049" lon="5.74159">
        <ele>620</ele>
        <time>2019-06-07T09:48:50Z</time>
      </trkpt>
      <trkpt lat="44.37046" lon="5.74166">
        <ele>620</ele>
        <time>2019-06-07T09:48:51Z</time>
      </trkpt>
      <trkpt lat="44.37042" lon="5.74172">
        <ele>620</ele>
        <time>2019-06-07T09:48:52Z</time>
      </trkpt>
      <trkpt lat="44.37039" lon="5.74179">
        <ele>620</ele>
        <time>2019-06-07T09:48:53Z</time>
      </trkpt>
      <trkpt lat="44.37035" lon="5.74185">
        <ele>620</ele>
        <time>2019-06-07T09:48:54Z</time>
      </trkpt>
      <trkpt lat="44.37031" lon="5.74191">
        <ele>620</ele>
        <time>2019-06-07T09:48:55Z</time>
      </trkpt>
      <trkpt lat="44.37027" lon="5.74197">
        <ele>620</ele>
        <time>2019-06-07T09:48:56Z</time>
      </trkpt>
      <trkpt lat="44.37024" lon="5.74203">
        <ele>620</ele>
        <time>2019-06-07T09:48:57Z</time>
      </trkpt>
      <trkpt lat="44.3702" lon="5.74209">
        <ele>620</ele>
        <time>2019-06-07T09:48:58Z</time>
      </trkpt>
      <trkpt lat="44.37016" lon="5.74216">
        <ele>620</ele>
        <time>2019-06-07T09:48:59Z</time>
      </trkpt>
      <trkpt lat="44.37012" lon="5.74222">
        <ele>620</ele>
        <time>2019-06-07T09:49:00Z</time>
      </trkpt>
      <trkpt lat="44.37008" lon="5.74227">
        <ele>620</ele>
        <time>2019-06-07T09:49:01Z</time>
      </trkpt>
      <trkpt lat="44.37003" lon="5.74232">
        <ele>620</ele>
        <time>2019-06-07T09:49:02Z</time>
      </trkpt>
      <trkpt lat="44.36998" lon="5.74236">
        <ele>620</ele>
        <time>2019-06-07T09:49:03Z</time>
      </trkpt>
      <trkpt lat="44.36993" lon="5.7424">
        <ele>620</ele>
        <time>2019-06-07T09:49:04Z</time>
      </trkpt>
      <trkpt lat="44.36988" lon="5.74243">
        <ele>620</ele>
        <time>2019-06-07T09:49:05Z</time>
      </trkpt>
      <trkpt lat="44.36982" lon="5.74247">
        <ele>620</ele>
        <time>2019-06-07T09:49:06Z</time>
      </trkpt>
      <trkpt lat="44.36977" lon="5.74249">
        <ele>620</ele>
        <time>2019-06-07T09:49:07Z</time>
      </trkpt>
      <trkpt lat="44.36972" lon="5.74251">
        <ele>620</ele>
        <time>2019-06-07T09:49:08Z</time>
      </trkpt>
      <trkpt lat="44.36966" lon="5.74253">
        <ele>619</ele>
        <time>2019-06-07T09:49:09Z</time>
      </trkpt>
      <trkpt lat="44.3696" lon="5.74255">
        <ele>619</ele>
        <time>2019-06-07T09:49:10Z</time>
      </trkpt>
      <trkpt lat="44.36954" lon="5.74258">
        <ele>619</ele>
        <time>2019-06-07T09:49:11Z</time>
      </trkpt>
      <trkpt lat="44.36948" lon="5.7426">
        <ele>619</ele>
        <time>2019-06-07T09:49:12Z</time>
      </trkpt>
      <trkpt lat="44.36942" lon="5.74262">
        <ele>618</ele>
        <time>2019-06-07T09:49:13Z</time>
      </trkpt>
      <trkpt lat="44.36937" lon="5.74264">
        <ele>618</ele>
        <time>2019-06-07T09:49:14Z</time>
      </trkpt>
      <trkpt lat="44.36931" lon="5.74267">
        <ele>617</ele>
        <time>2019-06-07T09:49:15Z</time>
      </trkpt>
      <trkpt lat="44.36925" lon="5.7427">
        <ele>617</ele>
        <time>2019-06-07T09:49:16Z</time>
      </trkpt>
      <trkpt lat="44.36919" lon="5.74272">
        <ele>617</ele>
        <time>2019-06-07T09:49:17Z</time>
      </trkpt>
      <trkpt lat="44.36914" lon="5.74275">
        <ele>617</ele>
        <time>2019-06-07T09:49:18Z</time>
      </trkpt>
      <trkpt lat="44.36908" lon="5.74278">
        <ele>617</ele>
        <time>2019-06-07T09:49:19Z</time>
      </trkpt>
      <trkpt lat="44.36902" lon="5.7428">
        <ele>617</ele>
        <time>2019-06-07T09:49:20Z</time>
      </trkpt>
      <trkpt lat="44.36897" lon="5.74282">
        <ele>617</ele>
        <time>2019-06-07T09:49:21Z</time>
      </trkpt>
      <trkpt lat="44.36891" lon="5.74283">
        <ele>617</ele>
        <time>2019-06-07T09:49:22Z</time>
      </trkpt>
      <trkpt lat="44.36886" lon="5.74285">
        <ele>617</ele>
        <time>2019-06-07T09:49:23Z</time>
      </trkpt>
      <trkpt lat="44.36881" lon="5.74286">
        <ele>617</ele>
        <time>2019-06-07T09:49:24Z</time>
      </trkpt>
      <trkpt lat="44.36876" lon="5.74288">
        <ele>617</ele>
        <time>2019-06-07T09:49:25Z</time>
      </trkpt>
      <trkpt lat="44.36871" lon="5.74289">
        <ele>617</ele>
        <time>2019-06-07T09:49:26Z</time>
      </trkpt>
      <trkpt lat="44.36866" lon="5.74289">
        <ele>617</ele>
        <time>2019-06-07T09:49:27Z</time>
      </trkpt>
      <trkpt lat="44.3686" lon="5.7429">
        <ele>617</ele>
        <time>2019-06-07T09:49:28Z</time>
      </trkpt>
      <trkpt lat="44.36855" lon="5.74291">
        <ele>617</ele>
        <time>2019-06-07T09:49:29Z</time>
      </trkpt>
      <trkpt lat="44.3685" lon="5.74292">
        <ele>617</ele>
        <time>2019-06-07T09:49:30Z</time>
      </trkpt>
      <trkpt lat="44.36845" lon="5.74293">
        <ele>617</ele>
        <time>2019-06-07T09:49:31Z</time>
      </trkpt>
      <trkpt lat="44.3684" lon="5.74294">
        <ele>617</ele>
        <time>2019-06-07T09:49:32Z</time>
      </trkpt>
      <trkpt lat="44.36835" lon="5.74295">
        <ele>617</ele>
        <time>2019-06-07T09:49:33Z</time>
      </trkpt>
      <trkpt lat="44.3683" lon="5.74297">
        <ele>617</ele>
        <time>2019-06-07T09:49:34Z</time>
      </trkpt>
      <trkpt lat="44.36824" lon="5.74299">
        <ele>617</ele>
        <time>2019-06-07T09:49:35Z</time>
      </trkpt>
      <trkpt lat="44.36819" lon="5.74302">
        <ele>617</ele>
        <time>2019-06-07T09:49:36Z</time>
      </trkpt>
      <trkpt lat="44.36815" lon="5.74305">
        <ele>617</ele>
        <time>2019-06-07T09:49:37Z</time>
      </trkpt>
      <trkpt lat="44.3681" lon="5.7431">
        <ele>617</ele>
        <time>2019-06-07T09:49:38Z</time>
      </trkpt>
      <trkpt lat="44.36806" lon="5.74315">
        <ele>617</ele>
        <time>2019-06-07T09:49:39Z</time>
      </trkpt>
      <trkpt lat="44.36803" lon="5.74321">
        <ele>617</ele>
        <time>2019-06-07T09:49:40Z</time>
      </trkpt>
      <trkpt lat="44.36799" lon="5.74326">
        <ele>617</ele>
        <time>2019-06-07T09:49:41Z</time>
      </trkpt>
      <trkpt lat="44.36795" lon="5.74333">
        <ele>617</ele>
        <time>2019-06-07T09:49:42Z</time>
      </trkpt>
      <trkpt lat="44.36792" lon="5.74339">
        <ele>617</ele>
        <time>2019-06-07T09:49:43Z</time>
      </trkpt>
      <trkpt lat="44.36788" lon="5.74346">
        <ele>617</ele>
        <time>2019-06-07T09:49:44Z</time>
      </trkpt>
      <trkpt lat="44.36785" lon="5.74353">
        <ele>617</ele>
        <time>2019-06-07T09:49:45Z</time>
      </trkpt>
      <trkpt lat="44.36782" lon="5.7436">
        <ele>617</ele>
        <time>2019-06-07T09:49:46Z</time>
      </trkpt>
      <trkpt lat="44.36778" lon="5.74367">
        <ele>617</ele>
        <time>2019-06-07T09:49:47Z</time>
      </trkpt>
      <trkpt lat="44.36775" lon="5.74374">
        <ele>617</ele>
        <time>2019-06-07T09:49:48Z</time>
      </trkpt>
      <trkpt lat="44.36771" lon="5.7438">
        <ele>617</ele>
        <time>2019-06-07T09:49:49Z</time>
      </trkpt>
      <trkpt lat="44.36767" lon="5.74386">
        <ele>617</ele>
        <time>2019-06-07T09:49:50Z</time>
      </trkpt>
      <trkpt lat="44.36763" lon="5.74392">
        <ele>617</ele>
        <time>2019-06-07T09:49:51Z</time>
      </trkpt>
      <trkpt lat="44.36759" lon="5.74398">
        <ele>617</ele>
        <time>2019-06-07T09:49:52Z</time>
      </trkpt>
      <trkpt lat="44.36754" lon="5.74403">
        <ele>617</ele>
        <time>2019-06-07T09:49:53Z</time>
      </trkpt>
      <trkpt lat="44.36749" lon="5.74407">
        <ele>617</ele>
        <time>2019-06-07T09:49:54Z</time>
      </trkpt>
      <trkpt lat="44.36744" lon="5.74411">
        <ele>617</ele>
        <time>2019-06-07T09:49:55Z</time>
      </trkpt>
      <trkpt lat="44.36739" lon="5.74414">
        <ele>617</ele>
        <time>2019-06-07T09:49:56Z</time>
      </trkpt>
      <trkpt lat="44.36734" lon="5.74417">
        <ele>617</ele>
        <time>2019-06-07T09:49:57Z</time>
      </trkpt>
      <trkpt lat="44.36728" lon="5.7442">
        <ele>617</ele>
        <time>2019-06-07T09:49:58Z</time>
      </trkpt>
      <trkpt lat="44.36723" lon="5.74423">
        <ele>617</ele>
        <time>2019-06-07T09:49:59Z</time>
      </trkpt>
      <trkpt lat="44.36717" lon="5.74425">
        <ele>617</ele>
        <time>2019-06-07T09:50:00Z</time>
      </trkpt>
      <trkpt lat="44.36712" lon="5.74428">
        <ele>617</ele>
        <time>2019-06-07T09:50:01Z</time>
      </trkpt>
      <trkpt lat="44.36707" lon="5.74431">
        <ele>617</ele>
        <time>2019-06-07T09:50:02Z</time>
      </trkpt>
      <trkpt lat="44.36702" lon="5.74434">
        <ele>617</ele>
        <time>2019-06-07T09:50:03Z</time>
      </trkpt>
      <trkpt lat="44.36697" lon="5.74437">
        <ele>617</ele>
        <time>2019-06-07T09:50:04Z</time>
      </trkpt>
      <trkpt lat="44.36691" lon="5.74439">
        <ele>617</ele>
        <time>2019-06-07T09:50:05Z</time>
      </trkpt>
      <trkpt lat="44.36686" lon="5.74442">
        <ele>617</ele>
        <time>2019-06-07T09:50:06Z</time>
      </trkpt>
      <trkpt lat="44.36681" lon="5.74445">
        <ele>617</ele>
        <time>2019-06-07T09:50:07Z</time>
      </trkpt>
      <trkpt lat="44.36676" lon="5.74448">
        <ele>617</ele>
        <time>2019-06-07T09:50:08Z</time>
      </trkpt>
      <trkpt lat="44.36671" lon="5.74452">
        <ele>617</ele>
        <time>2019-06-07T09:50:09Z</time>
      </trkpt>
      <trkpt lat="44.36666" lon="5.74455">
        <ele>617</ele>
        <time>2019-06-07T09:50:10Z</time>
      </trkpt>
      <trkpt lat="44.3666" lon="5.74459">
        <ele>617</ele>
        <time>2019-06-07T09:50:11Z</time>
      </trkpt>
      <trkpt lat="44.36656" lon="5.74463">
        <ele>617</ele>
        <time>2019-06-07T09:50:12Z</time>
      </trkpt>
      <trkpt lat="44.36651" lon="5.74468">
        <ele>617</ele>
        <time>2019-06-07T09:50:13Z</time>
      </trkpt>
      <trkpt lat="44.36646" lon="5.74473">
        <ele>617</ele>
        <time>2019-06-07T09:50:14Z</time>
      </trkpt>
      <trkpt lat="44.36641" lon="5.74477">
        <ele>617</ele>
        <time>2019-06-07T09:50:15Z</time>
      </trkpt>
      <trkpt lat="44.36636" lon="5.74483">
        <ele>617</ele>
        <time>2019-06-07T09:50:16Z</time>
      </trkpt>
      <trkpt lat="44.36631" lon="5.74488">
        <ele>617</ele>
        <time>2019-06-07T09:50:17Z</time>
      </trkpt>
      <trkpt lat="44.36626" lon="5.74494">
        <ele>617</ele>
        <time>2019-06-07T09:50:18Z</time>
      </trkpt>
      <trkpt lat="44.36621" lon="5.74499">
        <ele>617</ele>
        <time>2019-06-07T09:50:19Z</time>
      </trkpt>
      <trkpt lat="44.36617" lon="5.74504">
        <ele>617</ele>
        <time>2019-06-07T09:50:20Z</time>
      </trkpt>
      <trkpt lat="44.36612" lon="5.74509">
        <ele>617</ele>
        <time>2019-06-07T09:50:21Z</time>
      </trkpt>
      <trkpt lat="44.36607" lon="5.74514">
        <ele>617</ele>
        <time>2019-06-07T09:50:22Z</time>
      </trkpt>
      <trkpt lat="44.36603" lon="5.74519">
        <ele>617</ele>
        <time>2019-06-07T09:50:23Z</time>
      </trkpt>
      <trkpt lat="44.36598" lon="5.74524">
        <ele>617</ele>
        <time>2019-06-07T09:50:24Z</time>
      </trkpt>
      <trkpt lat="44.36594" lon="5.74529">
        <ele>617</ele>
        <time>2019-06-07T09:50:25Z</time>
      </trkpt>
      <trkpt lat="44.36589" lon="5.74534">
        <ele>617</ele>
        <time>2019-06-07T09:50:26Z</time>
      </trkpt>
      <trkpt lat="44.36584" lon="5.74539">
        <ele>617</ele>
        <time>2019-06-07T09:50:27Z</time>
      </trkpt>
      <trkpt lat="44.3658" lon="5.74543">
        <ele>617</ele>
        <time>2019-06-07T09:50:28Z</time>
      </trkpt>
      <trkpt lat="44.36575" lon="5.74548">
        <ele>617</ele>
        <time>2019-06-07T09:50:29Z</time>
      </trkpt>
      <trkpt lat="44.3657" lon="5.74553">
        <ele>617</ele>
        <time>2019-06-07T09:50:30Z</time>
      </trkpt>
      <trkpt lat="44.36566" lon="5.74558">
        <ele>617</ele>
        <time>2019-06-07T09:50:31Z</time>
      </trkpt>
      <trkpt lat="44.36561" lon="5.74563">
        <ele>617</ele>
        <time>2019-06-07T09:50:32Z</time>
      </trkpt>
      <trkpt lat="44.36556" lon="5.74569">
        <ele>617</ele>
        <time>2019-06-07T09:50:33Z</time>
      </trkpt>
      <trkpt lat="44.36552" lon="5.74574">
        <ele>617</ele>
        <time>2019-06-07T09:50:34Z</time>
      </trkpt>
      <trkpt lat="44.36547" lon="5.74579">
        <ele>617</ele>
        <time>2019-06-07T09:50:35Z</time>
      </trkpt>
      <trkpt lat="44.36542" lon="5.74584">
        <ele>617</ele>
        <time>2019-06-07T09:50:36Z</time>
      </trkpt>
      <trkpt lat="44.36538" lon="5.74589">
        <ele>617</ele>
        <time>2019-06-07T09:50:37Z</time>
      </trkpt>
      <trkpt lat="44.36533" lon="5.74593">
        <ele>617</ele>
        <time>2019-06-07T09:50:38Z</time>
      </trkpt>
      <trkpt lat="44.36528" lon="5.74598">
        <ele>617</ele>
        <time>2019-06-07T09:50:39Z</time>
      </trkpt>
      <trkpt lat="44.36523" lon="5.74603">
        <ele>617</ele>
        <time>2019-06-07T09:50:40Z</time>
      </trkpt>
      <trkpt lat="44.36517" lon="5.74608">
        <ele>617</ele>
        <time>2019-06-07T09:50:41Z</time>
      </trkpt>
      <trkpt lat="44.36512" lon="5.74612">
        <ele>617</ele>
        <time>2019-06-07T09:50:42Z</time>
      </trkpt>
      <trkpt lat="44.36507" lon="5.74617">
        <ele>616</ele>
        <time>2019-06-07T09:50:43Z</time>
      </trkpt>
      <trkpt lat="44.36502" lon="5.74621">
        <ele>616</ele>
        <time>2019-06-07T09:50:44Z</time>
      </trkpt>
      <trkpt lat="44.36497" lon="5.74625">
        <ele>616</ele>
        <time>2019-06-07T09:50:45Z</time>
      </trkpt>
      <trkpt lat="44.36491" lon="5.74629">
        <ele>616</ele>
        <time>2019-06-07T09:50:46Z</time>
      </trkpt>
      <trkpt lat="44.36486" lon="5.74633">
        <ele>615</ele>
        <time>2019-06-07T09:50:47Z</time>
      </trkpt>
      <trkpt lat="44.3648" lon="5.74637">
        <ele>615</ele>
        <time>2019-06-07T09:50:48Z</time>
      </trkpt>
      <trkpt lat="44.36475" lon="5.74641">
        <ele>615</ele>
        <time>2019-06-07T09:50:49Z</time>
      </trkpt>
      <trkpt lat="44.36469" lon="5.74644">
        <ele>614</ele>
        <time>2019-06-07T09:50:50Z</time>
      </trkpt>
      <trkpt lat="44.36464" lon="5.74648">
        <ele>614</ele>
        <time>2019-06-07T09:50:51Z</time>
      </trkpt>
      <trkpt lat="44.36458" lon="5.74651">
        <ele>614</ele>
        <time>2019-06-07T09:50:52Z</time>
      </trkpt>
      <trkpt lat="44.36453" lon="5.74654">
        <ele>614</ele>
        <time>2019-06-07T09:50:53Z</time>
      </trkpt>
      <trkpt lat="44.36447" lon="5.74658">
        <ele>613</ele>
        <time>2019-06-07T09:50:54Z</time>
      </trkpt>
      <trkpt lat="44.36442" lon="5.74662">
        <ele>613</ele>
        <time>2019-06-07T09:50:55Z</time>
      </trkpt>
      <trkpt lat="44.36436" lon="5.74666">
        <ele>613</ele>
        <time>2019-06-07T09:50:56Z</time>
      </trkpt>
      <trkpt lat="44.3643" lon="5.7467">
        <ele>612</ele>
        <time>2019-06-07T09:50:57Z</time>
      </trkpt>
      <trkpt lat="44.36425" lon="5.74674">
        <ele>612</ele>
        <time>2019-06-07T09:50:58Z</time>
      </trkpt>
      <trkpt lat="44.36419" lon="5.74678">
        <ele>612</ele>
        <time>2019-06-07T09:50:59Z</time>
      </trkpt>
      <trkpt lat="44.36414" lon="5.74681">
        <ele>611</ele>
        <time>2019-06-07T09:51:00Z</time>
      </trkpt>
      <trkpt lat="44.36407" lon="5.74686">
        <ele>611</ele>
        <time>2019-06-07T09:51:01Z</time>
      </trkpt>
      <trkpt lat="44.36401" lon="5.7469">
        <ele>611</ele>
        <time>2019-06-07T09:51:02Z</time>
      </trkpt>
      <trkpt lat="44.36396" lon="5.74694">
        <ele>611</ele>
        <time>2019-06-07T09:51:03Z</time>
      </trkpt>
      <trkpt lat="44.3639" lon="5.74698">
        <ele>611</ele>
        <time>2019-06-07T09:51:04Z</time>
      </trkpt>
      <trkpt lat="44.36385" lon="5.74702">
        <ele>611</ele>
        <time>2019-06-07T09:51:05Z</time>
      </trkpt>
      <trkpt lat="44.36379" lon="5.74706">
        <ele>611</ele>
        <time>2019-06-07T09:51:06Z</time>
      </trkpt>
      <trkpt lat="44.36374" lon="5.7471">
        <ele>611</ele>
        <time>2019-06-07T09:51:07Z</time>
      </trkpt>
      <trkpt lat="44.36368" lon="5.74713">
        <ele>611</ele>
        <time>2019-06-07T09:51:08Z</time>
      </trkpt>
      <trkpt lat="44.36363" lon="5.74717">
        <ele>611</ele>
        <time>2019-06-07T09:51:09Z</time>
      </trkpt>
      <trkpt lat="44.36357" lon="5.74721">
        <ele>611</ele>
        <time>2019-06-07T09:51:10Z</time>
      </trkpt>
      <trkpt lat="44.36352" lon="5.74725">
        <ele>611</ele>
        <time>2019-06-07T09:51:11Z</time>
      </trkpt>
      <trkpt lat="44.36347" lon="5.74729">
        <ele>611</ele>
        <time>2019-06-07T09:51:12Z</time>
      </trkpt>
      <trkpt lat="44.36341" lon="5.74733">
        <ele>611</ele>
        <time>2019-06-07T09:51:13Z</time>
      </trkpt>
      <trkpt lat="44.36336" lon="5.74738">
        <ele>611</ele>
        <time>2019-06-07T09:51:14Z</time>
      </trkpt>
      <trkpt lat="44.36331" lon="5.74743">
        <ele>611</ele>
        <time>2019-06-07T09:51:15Z</time>
      </trkpt>
      <trkpt lat="44.36327" lon="5.74747">
        <ele>611</ele>
        <time>2019-06-07T09:51:16Z</time>
      </trkpt>
      <trkpt lat="44.36322" lon="5.74752">
        <ele>611</ele>
        <time>2019-06-07T09:51:17Z</time>
      </trkpt>
      <trkpt lat="44.36317" lon="5.74758">
        <ele>611</ele>
        <time>2019-06-07T09:51:18Z</time>
      </trkpt>
      <trkpt lat="44.36312" lon="5.74763">
        <ele>611</ele>
        <time>2019-06-07T09:51:19Z</time>
      </trkpt>
      <trkpt lat="44.36306" lon="5.74769">
        <ele>611</ele>
        <time>2019-06-07T09:51:20Z</time>
      </trkpt>
      <trkpt lat="44.36301" lon="5.74775">
        <ele>611</ele>
        <time>2019-06-07T09:51:21Z</time>
      </trkpt>
      <trkpt lat="44.36297" lon="5.7478">
        <ele>611</ele>
        <time>2019-06-07T09:51:22Z</time>
      </trkpt>
      <trkpt lat="44.36292" lon="5.74786">
        <ele>611</ele>
        <time>2019-06-07T09:51:23Z</time>
      </trkpt>
      <trkpt lat="44.36287" lon="5.74793">
        <ele>611</ele>
        <time>2019-06-07T09:51:24Z</time>
      </trkpt>
      <trkpt lat="44.36282" lon="5.74799">
        <ele>611</ele>
        <time>2019-06-07T09:51:25Z</time>
      </trkpt>
      <trkpt lat="44.36277" lon="5.74804">
        <ele>611</ele>
        <time>2019-06-07T09:51:26Z</time>
      </trkpt>
      <trkpt lat="44.36271" lon="5.7481">
        <ele>611</ele>
        <time>2019-06-07T09:51:27Z</time>
      </trkpt>
      <trkpt lat="44.36266" lon="5.74815">
        <ele>611</ele>
        <time>2019-06-07T09:51:28Z</time>
      </trkpt>
      <trkpt lat="44.36261" lon="5.74821">
        <ele>611</ele>
        <time>2019-06-07T09:51:29Z</time>
      </trkpt>
      <trkpt lat="44.36256" lon="5.74827">
        <ele>611</ele>
        <time>2019-06-07T09:51:30Z</time>
      </trkpt>
      <trkpt lat="44.36251" lon="5.74832">
        <ele>611</ele>
        <time>2019-06-07T09:51:31Z</time>
      </trkpt>
      <trkpt lat="44.36245" lon="5.74837">
        <ele>611</ele>
        <time>2019-06-07T09:51:32Z</time>
      </trkpt>
      <trkpt lat="44.36239" lon="5.74843">
        <ele>611</ele>
        <time>2019-06-07T09:51:33Z</time>
      </trkpt>
      <trkpt lat="44.36233" lon="5.74848">
        <ele>611</ele>
        <time>2019-06-07T09:51:34Z</time>
      </trkpt>
      <trkpt lat="44.36227" lon="5.74854">
        <ele>611</ele>
        <time>2019-06-07T09:51:35Z</time>
      </trkpt>
      <trkpt lat="44.36221" lon="5.7486">
        <ele>611</ele>
        <time>2019-06-07T09:51:36Z</time>
      </trkpt>
      <trkpt lat="44.36216" lon="5.74865">
        <ele>611</ele>
        <time>2019-06-07T09:51:37Z</time>
      </trkpt>
      <trkpt lat="44.3621" lon="5.74871">
        <ele>611</ele>
        <time>2019-06-07T09:51:38Z</time>
      </trkpt>
      <trkpt lat="44.36205" lon="5.74877">
        <ele>611</ele>
        <time>2019-06-07T09:51:39Z</time>
      </trkpt>
      <trkpt lat="44.36199" lon="5.74883">
        <ele>611</ele>
        <time>2019-06-07T09:51:40Z</time>
      </trkpt>
      <trkpt lat="44.36194" lon="5.74888">
        <ele>611</ele>
        <time>2019-06-07T09:51:41Z</time>
      </trkpt>
      <trkpt lat="44.36189" lon="5.74893">
        <ele>611</ele>
        <time>2019-06-07T09:51:42Z</time>
      </trkpt>
      <trkpt lat="44.36183" lon="5.74898">
        <ele>612</ele>
        <time>2019-06-07T09:51:43Z</time>
      </trkpt>
      <trkpt lat="44.36178" lon="5.74902">
        <ele>612</ele>
        <time>2019-06-07T09:51:44Z</time>
      </trkpt>
      <trkpt lat="44.36172" lon="5.74907">
        <ele>612</ele>
        <time>2019-06-07T09:51:45Z</time>
      </trkpt>
      <trkpt lat="44.36167" lon="5.74911">
        <ele>612</ele>
        <time>2019-06-07T09:51:46Z</time>
      </trkpt>
      <trkpt lat="44.36161" lon="5.74916">
        <ele>612</ele>
        <time>2019-06-07T09:51:47Z</time>
      </trkpt>
      <trkpt lat="44.36156" lon="5.74921">
        <ele>612</ele>
        <time>2019-06-07T09:51:48Z</time>
      </trkpt>
      <trkpt lat="44.3615" lon="5.74926">
        <ele>612</ele>
        <time>2019-06-07T09:51:49Z</time>
      </trkpt>
      <trkpt lat="44.36145" lon="5.7493">
        <ele>612</ele>
        <time>2019-06-07T09:51:50Z</time>
      </trkpt>
      <trkpt lat="44.36139" lon="5.74935">
        <ele>612</ele>
        <time>2019-06-07T09:51:51Z</time>
      </trkpt>
      <trkpt lat="44.36134" lon="5.7494">
        <ele>612</ele>
        <time>2019-06-07T09:51:52Z</time>
      </trkpt>
      <trkpt lat="44.36128" lon="5.74944">
        <ele>612</ele>
        <time>2019-06-07T09:51:53Z</time>
      </trkpt>
      <trkpt lat="44.36123" lon="5.74948">
        <ele>612</ele>
        <time>2019-06-07T09:51:54Z</time>
      </trkpt>
      <trkpt lat="44.36117" lon="5.74953">
        <ele>612</ele>
        <time>2019-06-07T09:51:55Z</time>
      </trkpt>
      <trkpt lat="44.36111" lon="5.74958">
        <ele>612</ele>
        <time>2019-06-07T09:51:56Z</time>
      </trkpt>
      <trkpt lat="44.36105" lon="5.74963">
        <ele>612</ele>
        <time>2019-06-07T09:51:57Z</time>
      </trkpt>
      <trkpt lat="44.36099" lon="5.74968">
        <ele>612</ele>
        <time>2019-06-07T09:51:58Z</time>
      </trkpt>
      <trkpt lat="44.36094" lon="5.74973">
        <ele>612</ele>
        <time>2019-06-07T09:51:59Z</time>
      </trkpt>
      <trkpt lat="44.36088" lon="5.74977">
        <ele>612</ele>
        <time>2019-06-07T09:52:00Z</time>
      </trkpt>
      <trkpt lat="44.36082" lon="5.74981">
        <ele>612</ele>
        <time>2019-06-07T09:52:01Z</time>
      </trkpt>
      <trkpt lat="44.36076" lon="5.74986">
        <ele>612</ele>
        <time>2019-06-07T09:52:02Z</time>
      </trkpt>
      <trkpt lat="44.3607" lon="5.7499">
        <ele>612</ele>
        <time>2019-06-07T09:52:03Z</time>
      </trkpt>
      <trkpt lat="44.36064" lon="5.74993">
        <ele>612</ele>
        <time>2019-06-07T09:52:04Z</time>
      </trkpt>
      <trkpt lat="44.36059" lon="5.74997">
        <ele>612</ele>
        <time>2019-06-07T09:52:05Z</time>
      </trkpt>
      <trkpt lat="44.36053" lon="5.75001">
        <ele>612</ele>
        <time>2019-06-07T09:52:06Z</time>
      </trkpt>
      <trkpt lat="44.36047" lon="5.75005">
        <ele>612</ele>
        <time>2019-06-07T09:52:07Z</time>
      </trkpt>
      <trkpt lat="44.36041" lon="5.75009">
        <ele>612</ele>
        <time>2019-06-07T09:52:08Z</time>
      </trkpt>
      <trkpt lat="44.36035" lon="5.75013">
        <ele>612</ele>
        <time>2019-06-07T09:52:09Z</time>
      </trkpt>
      <trkpt lat="44.36029" lon="5.75017">
        <ele>612</ele>
        <time>2019-06-07T09:52:10Z</time>
      </trkpt>
      <trkpt lat="44.36022" lon="5.75021">
        <ele>612</ele>
        <time>2019-06-07T09:52:11Z</time>
      </trkpt>
      <trkpt lat="44.36016" lon="5.75025">
        <ele>612</ele>
        <time>2019-06-07T09:52:12Z</time>
      </trkpt>
      <trkpt lat="44.36009" lon="5.7503">
        <ele>612</ele>
        <time>2019-06-07T09:52:13Z</time>
      </trkpt>
      <trkpt lat="44.36003" lon="5.75034">
        <ele>612</ele>
        <time>2019-06-07T09:52:14Z</time>
      </trkpt>
      <trkpt lat="44.35997" lon="5.75038">
        <ele>612</ele>
        <time>2019-06-07T09:52:15Z</time>
      </trkpt>
      <trkpt lat="44.3599" lon="5.75042">
        <ele>612</ele>
        <time>2019-06-07T09:52:16Z</time>
      </trkpt>
      <trkpt lat="44.35984" lon="5.75047">
        <ele>612</ele>
        <time>2019-06-07T09:52:17Z</time>
      </trkpt>
      <trkpt lat="44.35978" lon="5.75051">
        <ele>612</ele>
        <time>2019-06-07T09:52:18Z</time>
      </trkpt>
      <trkpt lat="44.35971" lon="5.75055">
        <ele>612</ele>
        <time>2019-06-07T09:52:19Z</time>
      </trkpt>
      <trkpt lat="44.35966" lon="5.7506">
        <ele>612</ele>
        <time>2019-06-07T09:52:20Z</time>
      </trkpt>
      <trkpt lat="44.3596" lon="5.75064">
        <ele>612</ele>
        <time>2019-06-07T09:52:21Z</time>
      </trkpt>
      <trkpt lat="44.35954" lon="5.75069">
        <ele>612</ele>
        <time>2019-06-07T09:52:22Z</time>
      </trkpt>
      <trkpt lat="44.35948" lon="5.75073">
        <ele>612</ele>
        <time>2019-06-07T09:52:23Z</time>
      </trkpt>
      <trkpt lat="44.35943" lon="5.75078">
        <ele>612</ele>
        <time>2019-06-07T09:52:24Z</time>
      </trkpt>
      <trkpt lat="44.35938" lon="5.75082">
        <ele>612</ele>
        <time>2019-06-07T09:52:25Z</time>
      </trkpt>
      <trkpt lat="44.35932" lon="5.75087">
        <ele>612</ele>
        <time>2019-06-07T09:52:26Z</time>
      </trkpt>
      <trkpt lat="44.35927" lon="5.75092">
        <ele>612</ele>
        <time>2019-06-07T09:52:27Z</time>
      </trkpt>
      <trkpt lat="44.35922" lon="5.75097">
        <ele>612</ele>
        <time>2019-06-07T09:52:28Z</time>
      </trkpt>
      <trkpt lat="44.35917" lon="5.75102">
        <ele>612</ele>
        <time>2019-06-07T09:52:29Z</time>
      </trkpt>
      <trkpt lat="44.35912" lon="5.75107">
        <ele>612</ele>
        <time>2019-06-07T09:52:30Z</time>
      </trkpt>
      <trkpt lat="44.35907" lon="5.75111">
        <ele>612</ele>
        <time>2019-06-07T09:52:31Z</time>
      </trkpt>
      <trkpt lat="44.35902" lon="5.75117">
        <ele>612</ele>
        <time>2019-06-07T09:52:32Z</time>
      </trkpt>
      <trkpt lat="44.35896" lon="5.75122">
        <ele>612</ele>
        <time>2019-06-07T09:52:33Z</time>
      </trkpt>
      <trkpt lat="44.3589" lon="5.75127">
        <ele>612</ele>
        <time>2019-06-07T09:52:34Z</time>
      </trkpt>
      <trkpt lat="44.35884" lon="5.75132">
        <ele>612</ele>
        <time>2019-06-07T09:52:35Z</time>
      </trkpt>
      <trkpt lat="44.35878" lon="5.75137">
        <ele>612</ele>
        <time>2019-06-07T09:52:36Z</time>
      </trkpt>
      <trkpt lat="44.35873" lon="5.7514">
        <ele>612</ele>
        <time>2019-06-07T09:52:37Z</time>
      </trkpt>
      <trkpt lat="44.35867" lon="5.75144">
        <ele>612</ele>
        <time>2019-06-07T09:52:38Z</time>
      </trkpt>
      <trkpt lat="44.35861" lon="5.75148">
        <ele>612</ele>
        <time>2019-06-07T09:52:39Z</time>
      </trkpt>
      <trkpt lat="44.35855" lon="5.75153">
        <ele>612</ele>
        <time>2019-06-07T09:52:40Z</time>
      </trkpt>
      <trkpt lat="44.35849" lon="5.75157">
        <ele>612</ele>
        <time>2019-06-07T09:52:41Z</time>
      </trkpt>
      <trkpt lat="44.35844" lon="5.75161">
        <ele>612</ele>
        <time>2019-06-07T09:52:42Z</time>
      </trkpt>
      <trkpt lat="44.35838" lon="5.75164">
        <ele>612</ele>
        <time>2019-06-07T09:52:43Z</time>
      </trkpt>
      <trkpt lat="44.35832" lon="5.75168">
        <ele>612</ele>
        <time>2019-06-07T09:52:44Z</time>
      </trkpt>
      <trkpt lat="44.35826" lon="5.75171">
        <ele>612</ele>
        <time>2019-06-07T09:52:45Z</time>
      </trkpt>
      <trkpt lat="44.3582" lon="5.75174">
        <ele>612</ele>
        <time>2019-06-07T09:52:46Z</time>
      </trkpt>
      <trkpt lat="44.35814" lon="5.75176">
        <ele>612</ele>
        <time>2019-06-07T09:52:47Z</time>
      </trkpt>
      <trkpt lat="44.35808" lon="5.75178">
        <ele>612</ele>
        <time>2019-06-07T09:52:48Z</time>
      </trkpt>
      <trkpt lat="44.35802" lon="5.7518">
        <ele>612</ele>
        <time>2019-06-07T09:52:49Z</time>
      </trkpt>
      <trkpt lat="44.35796" lon="5.75181">
        <ele>612</ele>
        <time>2019-06-07T09:52:50Z</time>
      </trkpt>
      <trkpt lat="44.35789" lon="5.75182">
        <ele>612</ele>
        <time>2019-06-07T09:52:51Z</time>
      </trkpt>
      <trkpt lat="44.35783" lon="5.75183">
        <ele>612</ele>
        <time>2019-06-07T09:52:52Z</time>
      </trkpt>
      <trkpt lat="44.35777" lon="5.75184">
        <ele>612</ele>
        <time>2019-06-07T09:52:53Z</time>
      </trkpt>
      <trkpt lat="44.3577" lon="5.75186">
        <ele>612</ele>
        <time>2019-06-07T09:52:54Z</time>
      </trkpt>
      <trkpt lat="44.35763" lon="5.75188">
        <ele>612</ele>
        <time>2019-06-07T09:52:55Z</time>
      </trkpt>
      <trkpt lat="44.35756" lon="5.75191">
        <ele>612</ele>
        <time>2019-06-07T09:52:56Z</time>
      </trkpt>
      <trkpt lat="44.35749" lon="5.75194">
        <ele>612</ele>
        <time>2019-06-07T09:52:57Z</time>
      </trkpt>
      <trkpt lat="44.35742" lon="5.75198">
        <ele>612</ele>
        <time>2019-06-07T09:52:58Z</time>
      </trkpt>
      <trkpt lat="44.35736" lon="5.75202">
        <ele>612</ele>
        <time>2019-06-07T09:52:59Z</time>
      </trkpt>
      <trkpt lat="44.3573" lon="5.75207">
        <ele>612</ele>
        <time>2019-06-07T09:53:00Z</time>
      </trkpt>
      <trkpt lat="44.35725" lon="5.75212">
        <ele>612</ele>
        <time>2019-06-07T09:53:01Z</time>
      </trkpt>
      <trkpt lat="44.3572" lon="5.75218">
        <ele>612</ele>
        <time>2019-06-07T09:53:02Z</time>
      </trkpt>
      <trkpt lat="44.35716" lon="5.75223">
        <ele>612</ele>
        <time>2019-06-07T09:53:03Z</time>
      </trkpt>
      <trkpt lat="44.35712" lon="5.75228">
        <ele>612</ele>
        <time>2019-06-07T09:53:04Z</time>
      </trkpt>
      <trkpt lat="44.35708" lon="5.75232">
        <ele>611</ele>
        <time>2019-06-07T09:53:05Z</time>
      </trkpt>
      <trkpt lat="44.35703" lon="5.75237">
        <ele>611</ele>
        <time>2019-06-07T09:53:06Z</time>
      </trkpt>
      <trkpt lat="44.35699" lon="5.75241">
        <ele>611</ele>
        <time>2019-06-07T09:53:07Z</time>
      </trkpt>
      <trkpt lat="44.35695" lon="5.75245">
        <ele>611</ele>
        <time>2019-06-07T09:53:08Z</time>
      </trkpt>
      <trkpt lat="44.3569" lon="5.75249">
        <ele>610</ele>
        <time>2019-06-07T09:53:09Z</time>
      </trkpt>
      <trkpt lat="44.35685" lon="5.75255">
        <ele>610</ele>
        <time>2019-06-07T09:53:10Z</time>
      </trkpt>
      <trkpt lat="44.3568" lon="5.7526">
        <ele>610</ele>
        <time>2019-06-07T09:53:11Z</time>
      </trkpt>
      <trkpt lat="44.35675" lon="5.75266">
        <ele>610</ele>
        <time>2019-06-07T09:53:12Z</time>
      </trkpt>
      <trkpt lat="44.35669" lon="5.75271">
        <ele>609</ele>
        <time>2019-06-07T09:53:13Z</time>
      </trkpt>
      <trkpt lat="44.35664" lon="5.75276">
        <ele>609</ele>
        <time>2019-06-07T09:53:14Z</time>
      </trkpt>
      <trkpt lat="44.3566" lon="5.75281">
        <ele>609</ele>
        <time>2019-06-07T09:53:15Z</time>
      </trkpt>
      <trkpt lat="44.35654" lon="5.75286">
        <ele>608</ele>
        <time>2019-06-07T09:53:16Z</time>
      </trkpt>
      <trkpt lat="44.35649" lon="5.75292">
        <ele>608</ele>
        <time>2019-06-07T09:53:17Z</time>
      </trkpt>
      <trkpt lat="44.35645" lon="5.75297">
        <ele>608</ele>
        <time>2019-06-07T09:53:18Z</time>
      </trkpt>
      <trkpt lat="44.3564" lon="5.75303">
        <ele>607</ele>
        <time>2019-06-07T09:53:19Z</time>
      </trkpt>
      <trkpt lat="44.35635" lon="5.75308">
        <ele>607</ele>
        <time>2019-06-07T09:53:20Z</time>
      </trkpt>
      <trkpt lat="44.3563" lon="5.75314">
        <ele>607</ele>
        <time>2019-06-07T09:53:21Z</time>
      </trkpt>
      <trkpt lat="44.35624" lon="5.75319">
        <ele>607</ele>
        <time>2019-06-07T09:53:22Z</time>
      </trkpt>
      <trkpt lat="44.35619" lon="5.75324">
        <ele>607</ele>
        <time>2019-06-07T09:53:23Z</time>
      </trkpt>
      <trkpt lat="44.35613" lon="5.75329">
        <ele>607</ele>
        <time>2019-06-07T09:53:24Z</time>
      </trkpt>
      <trkpt lat="44.35606" lon="5.75334">
        <ele>607</ele>
        <time>2019-06-07T09:53:25Z</time>
      </trkpt>
      <trkpt lat="44.356" lon="5.75338">
        <ele>607</ele>
        <time>2019-06-07T09:53:26Z</time>
      </trkpt>
      <trkpt lat="44.35594" lon="5.75341">
        <ele>607</ele>
        <time>2019-06-07T09:53:27Z</time>
      </trkpt>
      <trkpt lat="44.35587" lon="5.75344">
        <ele>607</ele>
        <time>2019-06-07T09:53:28Z</time>
      </trkpt>
      <trkpt lat="44.3558" lon="5.75347">
        <ele>607</ele>
        <time>2019-06-07T09:53:29Z</time>
      </trkpt>
      <trkpt lat="44.35574" lon="5.75351">
        <ele>607</ele>
        <time>2019-06-07T09:53:30Z</time>
      </trkpt>
      <trkpt lat="44.35566" lon="5.75354">
        <ele>607</ele>
        <time>2019-06-07T09:53:31Z</time>
      </trkpt>
      <trkpt lat="44.3556" lon="5.75358">
        <ele>607</ele>
        <time>2019-06-07T09:53:32Z</time>
      </trkpt>
      <trkpt lat="44.35553" lon="5.75363">
        <ele>607</ele>
        <time>2019-06-07T09:53:33Z</time>
      </trkpt>
      <trkpt lat="44.35546" lon="5.75367">
        <ele>607</ele>
        <time>2019-06-07T09:53:34Z</time>
      </trkpt>
      <trkpt lat="44.35539" lon="5.75372">
        <ele>606</ele>
        <time>2019-06-07T09:53:35Z</time>
      </trkpt>
      <trkpt lat="44.35532" lon="5.75377">
        <ele>606</ele>
        <time>2019-06-07T09:53:36Z</time>
      </trkpt>
      <trkpt lat="44.35526" lon="5.75382">
        <ele>606</ele>
        <time>2019-06-07T09:53:37Z</time>
      </trkpt>
      <trkpt lat="44.3552" lon="5.75387">
        <ele>606</ele>
        <time>2019-06-07T09:53:38Z</time>
      </trkpt>
      <trkpt lat="44.35513" lon="5.75392">
        <ele>605</ele>
        <time>2019-06-07T09:53:39Z</time>
      </trkpt>
      <trkpt lat="44.35506" lon="5.75398">
        <ele>605</ele>
        <time>2019-06-07T09:53:40Z</time>
      </trkpt>
      <trkpt lat="44.35498" lon="5.75404">
        <ele>604</ele>
        <time>2019-06-07T09:53:41Z</time>
      </trkpt>
      <trkpt lat="44.3549" lon="5.75409">
        <ele>604</ele>
        <time>2019-06-07T09:53:42Z</time>
      </trkpt>
      <trkpt lat="44.35483" lon="5.75414">
        <ele>603</ele>
        <time>2019-06-07T09:53:43Z</time>
      </trkpt>
      <trkpt lat="44.35476" lon="5.7542">
        <ele>603</ele>
        <time>2019-06-07T09:53:44Z</time>
      </trkpt>
      <trkpt lat="44.35469" lon="5.75426">
        <ele>602</ele>
        <time>2019-06-07T09:53:45Z</time>
      </trkpt>
      <trkpt lat="44.35462" lon="5.75433">
        <ele>602</ele>
        <time>2019-06-07T09:53:46Z</time>
      </trkpt>
      <trkpt lat="44.35455" lon="5.7544">
        <ele>602</ele>
        <time>2019-06-07T09:53:47Z</time>
      </trkpt>
      <trkpt lat="44.35448" lon="5.75447">
        <ele>602</ele>
        <time>2019-06-07T09:53:48Z</time>
      </trkpt>
      <trkpt lat="44.35442" lon="5.75453">
        <ele>602</ele>
        <time>2019-06-07T09:53:49Z</time>
      </trkpt>
      <trkpt lat="44.35435" lon="5.75459">
        <ele>602</ele>
        <time>2019-06-07T09:53:50Z</time>
      </trkpt>
      <trkpt lat="44.35428" lon="5.75465">
        <ele>602</ele>
        <time>2019-06-07T09:53:51Z</time>
      </trkpt>
      <trkpt lat="44.35421" lon="5.75471">
        <ele>602</ele>
        <time>2019-06-07T09:53:52Z</time>
      </trkpt>
      <trkpt lat="44.35414" lon="5.75476">
        <ele>602</ele>
        <time>2019-06-07T09:53:53Z</time>
      </trkpt>
      <trkpt lat="44.35408" lon="5.7548">
        <ele>602</ele>
        <time>2019-06-07T09:53:54Z</time>
      </trkpt>
      <trkpt lat="44.35401" lon="5.75485">
        <ele>602</ele>
        <time>2019-06-07T09:53:55Z</time>
      </trkpt>
      <trkpt lat="44.35395" lon="5.75489">
        <ele>602</ele>
        <time>2019-06-07T09:53:56Z</time>
      </trkpt>
      <trkpt lat="44.35388" lon="5.75494">
        <ele>602</ele>
        <time>2019-06-07T09:53:57Z</time>
      </trkpt>
      <trkpt lat="44.35382" lon="5.75498">
        <ele>602</ele>
        <time>2019-06-07T09:53:58Z</time>
      </trkpt>
      <trkpt lat="44.35375" lon="5.75503">
        <ele>602</ele>
        <time>2019-06-07T09:53:59Z</time>
      </trkpt>
      <trkpt lat="44.35369" lon="5.75508">
        <ele>602</ele>
        <time>2019-06-07T09:54:00Z</time>
      </trkpt>
      <trkpt lat="44.35362" lon="5.75512">
        <ele>602</ele>
        <time>2019-06-07T09:54:01Z</time>
      </trkpt>
      <trkpt lat="44.35355" lon="5.75517">
        <ele>602</ele>
        <time>2019-06-07T09:54:02Z</time>
      </trkpt>
      <trkpt lat="44.35348" lon="5.75521">
        <ele>602</ele>
        <time>2019-06-07T09:54:03Z</time>
      </trkpt>
      <trkpt lat="44.35341" lon="5.75524">
        <ele>602</ele>
        <time>2019-06-07T09:54:04Z</time>
      </trkpt>
      <trkpt lat="44.35334" lon="5.75528">
        <ele>602</ele>
        <time>2019-06-07T09:54:05Z</time>
      </trkpt>
      <trkpt lat="44.35328" lon="5.75532">
        <ele>602</ele>
        <time>2019-06-07T09:54:06Z</time>
      </trkpt>
      <trkpt lat="44.35321" lon="5.75535">
        <ele>602</ele>
        <time>2019-06-07T09:54:07Z</time>
      </trkpt>
      <trkpt lat="44.35314" lon="5.75539">
        <ele>602</ele>
        <time>2019-06-07T09:54:08Z</time>
      </trkpt>
      <trkpt lat="44.35308" lon="5.75542">
        <ele>602</ele>
        <time>2019-06-07T09:54:09Z</time>
      </trkpt>
      <trkpt lat="44.35301" lon="5.75546">
        <ele>602</ele>
        <time>2019-06-07T09:54:10Z</time>
      </trkpt>
      <trkpt lat="44.35295" lon="5.7555">
        <ele>602</ele>
        <time>2019-06-07T09:54:11Z</time>
      </trkpt>
      <trkpt lat="44.35289" lon="5.75554">
        <ele>602</ele>
        <time>2019-06-07T09:54:12Z</time>
      </trkpt>
      <trkpt lat="44.35282" lon="5.75558">
        <ele>602</ele>
        <time>2019-06-07T09:54:13Z</time>
      </trkpt>
      <trkpt lat="44.35276" lon="5.75563">
        <ele>602</ele>
        <time>2019-06-07T09:54:14Z</time>
      </trkpt>
      <trkpt lat="44.3527" lon="5.75567">
        <ele>602</ele>
        <time>2019-06-07T09:54:15Z</time>
      </trkpt>
      <trkpt lat="44.35264" lon="5.75571">
        <ele>602</ele>
        <time>2019-06-07T09:54:16Z</time>
      </trkpt>
      <trkpt lat="44.35258" lon="5.75575">
        <ele>602</ele>
        <time>2019-06-07T09:54:17Z</time>
      </trkpt>
      <trkpt lat="44.35252" lon="5.75578">
        <ele>602</ele>
        <time>2019-06-07T09:54:18Z</time>
      </trkpt>
      <trkpt lat="44.35246" lon="5.75582">
        <ele>602</ele>
        <time>2019-06-07T09:54:19Z</time>
      </trkpt>
      <trkpt lat="44.3524" lon="5.75586">
        <ele>602</ele>
        <time>2019-06-07T09:54:20Z</time>
      </trkpt>
      <trkpt lat="44.35234" lon="5.75591">
        <ele>602</ele>
        <time>2019-06-07T09:54:21Z</time>
      </trkpt>
      <trkpt lat="44.35228" lon="5.75595">
        <ele>602</ele>
        <time>2019-06-07T09:54:22Z</time>
      </trkpt>
      <trkpt lat="44.35223" lon="5.75598">
        <ele>602</ele>
        <time>2019-06-07T09:54:23Z</time>
      </trkpt>
      <trkpt lat="44.35217" lon="5.75603">
        <ele>602</ele>
        <time>2019-06-07T09:54:24Z</time>
      </trkpt>
      <trkpt lat="44.35212" lon="5.75607">
        <ele>602</ele>
        <time>2019-06-07T09:54:25Z</time>
      </trkpt>
      <trkpt lat="44.35206" lon="5.75611">
        <ele>602</ele>
        <time>2019-06-07T09:54:26Z</time>
      </trkpt>
      <trkpt lat="44.35201" lon="5.75616">
        <ele>602</ele>
        <time>2019-06-07T09:54:27Z</time>
      </trkpt>
      <trkpt lat="44.35195" lon="5.75621">
        <ele>602</ele>
        <time>2019-06-07T09:54:28Z</time>
      </trkpt>
      <trkpt lat="44.3519" lon="5.75625">
        <ele>602</ele>
        <time>2019-06-07T09:54:29Z</time>
      </trkpt>
      <trkpt lat="44.35184" lon="5.7563">
        <ele>602</ele>
        <time>2019-06-07T09:54:30Z</time>
      </trkpt>
      <trkpt lat="44.35179" lon="5.75634">
        <ele>601</ele>
        <time>2019-06-07T09:54:31Z</time>
      </trkpt>
      <trkpt lat="44.35173" lon="5.7564">
        <ele>601</ele>
        <time>2019-06-07T09:54:32Z</time>
      </trkpt>
      <trkpt lat="44.35168" lon="5.75645">
        <ele>601</ele>
        <time>2019-06-07T09:54:33Z</time>
      </trkpt>
      <trkpt lat="44.35163" lon="5.7565">
        <ele>601</ele>
        <time>2019-06-07T09:54:34Z</time>
      </trkpt>
      <trkpt lat="44.35158" lon="5.75655">
        <ele>601</ele>
        <time>2019-06-07T09:54:35Z</time>
      </trkpt>
      <trkpt lat="44.35153" lon="5.75661">
        <ele>601</ele>
        <time>2019-06-07T09:54:36Z</time>
      </trkpt>
      <trkpt lat="44.35148" lon="5.75666">
        <ele>601</ele>
        <time>2019-06-07T09:54:37Z</time>
      </trkpt>
      <trkpt lat="44.35143" lon="5.75671">
        <ele>601</ele>
        <time>2019-06-07T09:54:38Z</time>
      </trkpt>
      <trkpt lat="44.35138" lon="5.75676">
        <ele>601</ele>
        <time>2019-06-07T09:54:39Z</time>
      </trkpt>
      <trkpt lat="44.35133" lon="5.75681">
        <ele>601</ele>
        <time>2019-06-07T09:54:40Z</time>
      </trkpt>
      <trkpt lat="44.35128" lon="5.75687">
        <ele>601</ele>
        <time>2019-06-07T09:54:41Z</time>
      </trkpt>
      <trkpt lat="44.35123" lon="5.75692">
        <ele>601</ele>
        <time>2019-06-07T09:54:42Z</time>
      </trkpt>
      <trkpt lat="44.35118" lon="5.75696">
        <ele>601</ele>
        <time>2019-06-07T09:54:43Z</time>
      </trkpt>
      <trkpt lat="44.35113" lon="5.75701">
        <ele>601</ele>
        <time>2019-06-07T09:54:44Z</time>
      </trkpt>
      <trkpt lat="44.35108" lon="5.75705">
        <ele>601</ele>
        <time>2019-06-07T09:54:45Z</time>
      </trkpt>
      <trkpt lat="44.35103" lon="5.75709">
        <ele>601</ele>
        <time>2019-06-07T09:54:46Z</time>
      </trkpt>
      <trkpt lat="44.35098" lon="5.75714">
        <ele>601</ele>
        <time>2019-06-07T09:54:47Z</time>
      </trkpt>
      <trkpt lat="44.35093" lon="5.75718">
        <ele>601</ele>
        <time>2019-06-07T09:54:48Z</time>
      </trkpt>
      <trkpt lat="44.35088" lon="5.75723">
        <ele>601</ele>
        <time>2019-06-07T09:54:49Z</time>
      </trkpt>
      <trkpt lat="44.35084" lon="5.75728">
        <ele>601</ele>
        <time>2019-06-07T09:54:50Z</time>
      </trkpt>
      <trkpt lat="44.35079" lon="5.75733">
        <ele>601</ele>
        <time>2019-06-07T09:54:51Z</time>
      </trkpt>
      <trkpt lat="44.35075" lon="5.75738">
        <ele>601</ele>
        <time>2019-06-07T09:54:52Z</time>
      </trkpt>
      <trkpt lat="44.3507" lon="5.75743">
        <ele>601</ele>
        <time>2019-06-07T09:54:53Z</time>
      </trkpt>
      <trkpt lat="44.35065" lon="5.75748">
        <ele>601</ele>
        <time>2019-06-07T09:54:54Z</time>
      </trkpt>
      <trkpt lat="44.35061" lon="5.75753">
        <ele>601</ele>
        <time>2019-06-07T09:54:55Z</time>
      </trkpt>
      <trkpt lat="44.35056" lon="5.75758">
        <ele>601</ele>
        <time>2019-06-07T09:54:56Z</time>
      </trkpt>
      <trkpt lat="44.35051" lon="5.75763">
        <ele>601</ele>
        <time>2019-06-07T09:54:57Z</time>
      </trkpt>
      <trkpt lat="44.35046" lon="5.75768">
        <ele>601</ele>
        <time>2019-06-07T09:54:58Z</time>
      </trkpt>
      <trkpt lat="44.35041" lon="5.75772">
        <ele>601</ele>
        <time>2019-06-07T09:54:59Z</time>
      </trkpt>
      <trkpt lat="44.35036" lon="5.75776">
        <ele>601</ele>
        <time>2019-06-07T09:55:00Z</time>
      </trkpt>
      <trkpt lat="44.35031" lon="5.7578">
        <ele>601</ele>
        <time>2019-06-07T09:55:01Z</time>
      </trkpt>
      <trkpt lat="44.35025" lon="5.75784">
        <ele>601</ele>
        <time>2019-06-07T09:55:02Z</time>
      </trkpt>
      <trkpt lat="44.3502" lon="5.75788">
        <ele>601</ele>
        <time>2019-06-07T09:55:03Z</time>
      </trkpt>
      <trkpt lat="44.35015" lon="5.75792">
        <ele>601</ele>
        <time>2019-06-07T09:55:04Z</time>
      </trkpt>
      <trkpt lat="44.3501" lon="5.75795">
        <ele>601</ele>
        <time>2019-06-07T09:55:05Z</time>
      </trkpt>
      <trkpt lat="44.35005" lon="5.75799">
        <ele>601</ele>
        <time>2019-06-07T09:55:06Z</time>
      </trkpt>
      <trkpt lat="44.34999" lon="5.75803">
        <ele>601</ele>
        <time>2019-06-07T09:55:07Z</time>
      </trkpt>
      <trkpt lat="44.34994" lon="5.75807">
        <ele>601</ele>
        <time>2019-06-07T09:55:08Z</time>
      </trkpt>
      <trkpt lat="44.34989" lon="5.75811">
        <ele>601</ele>
        <time>2019-06-07T09:55:09Z</time>
      </trkpt>
      <trkpt lat="44.34984" lon="5.75815">
        <ele>601</ele>
        <time>2019-06-07T09:55:10Z</time>
      </trkpt>
      <trkpt lat="44.34978" lon="5.75819">
        <ele>601</ele>
        <time>2019-06-07T09:55:11Z</time>
      </trkpt>
      <trkpt lat="44.34973" lon="5.75823">
        <ele>601</ele>
        <time>2019-06-07T09:55:12Z</time>
      </trkpt>
      <trkpt lat="44.34968" lon="5.75828">
        <ele>601</ele>
        <time>2019-06-07T09:55:13Z</time>
      </trkpt>
      <trkpt lat="44.34962" lon="5.75833">
        <ele>601</ele>
        <time>2019-06-07T09:55:14Z</time>
      </trkpt>
      <trkpt lat="44.34957" lon="5.75837">
        <ele>601</ele>
        <time>2019-06-07T09:55:15Z</time>
      </trkpt>
      <trkpt lat="44.34952" lon="5.75842">
        <ele>601</ele>
        <time>2019-06-07T09:55:16Z</time>
      </trkpt>
      <trkpt lat="44.34947" lon="5.75847">
        <ele>601</ele>
        <time>2019-06-07T09:55:17Z</time>
      </trkpt>
      <trkpt lat="44.34942" lon="5.75852">
        <ele>601</ele>
        <time>2019-06-07T09:55:18Z</time>
      </trkpt>
      <trkpt lat="44.34937" lon="5.75857">
        <ele>601</ele>
        <time>2019-06-07T09:55:19Z</time>
      </trkpt>
      <trkpt lat="44.34932" lon="5.75861">
        <ele>601</ele>
        <time>2019-06-07T09:55:20Z</time>
      </trkpt>
      <trkpt lat="44.34926" lon="5.75865">
        <ele>601</ele>
        <time>2019-06-07T09:55:21Z</time>
      </trkpt>
      <trkpt lat="44.34921" lon="5.75869">
        <ele>601</ele>
        <time>2019-06-07T09:55:22Z</time>
      </trkpt>
      <trkpt lat="44.34916" lon="5.75873">
        <ele>601</ele>
        <time>2019-06-07T09:55:23Z</time>
      </trkpt>
      <trkpt lat="44.34911" lon="5.75877">
        <ele>601</ele>
        <time>2019-06-07T09:55:24Z</time>
      </trkpt>
      <trkpt lat="44.34905" lon="5.75881">
        <ele>601</ele>
        <time>2019-06-07T09:55:25Z</time>
      </trkpt>
      <trkpt lat="44.349" lon="5.75885">
        <ele>601</ele>
        <time>2019-06-07T09:55:26Z</time>
      </trkpt>
      <trkpt lat="44.34895" lon="5.75888">
        <ele>601</ele>
        <time>2019-06-07T09:55:27Z</time>
      </trkpt>
      <trkpt lat="44.34889" lon="5.75892">
        <ele>601</ele>
        <time>2019-06-07T09:55:28Z</time>
      </trkpt>
      <trkpt lat="44.34884" lon="5.75895">
        <ele>600</ele>
        <time>2019-06-07T09:55:29Z</time>
      </trkpt>
      <trkpt lat="44.34879" lon="5.75899">
        <ele>600</ele>
        <time>2019-06-07T09:55:30Z</time>
      </trkpt>
      <trkpt lat="44.34874" lon="5.75903">
        <ele>600</ele>
        <time>2019-06-07T09:55:31Z</time>
      </trkpt>
      <trkpt lat="44.34869" lon="5.75907">
        <ele>600</ele>
        <time>2019-06-07T09:55:32Z</time>
      </trkpt>
      <trkpt lat="44.34863" lon="5.75911">
        <ele>600</ele>
        <time>2019-06-07T09:55:33Z</time>
      </trkpt>
      <trkpt lat="44.34858" lon="5.75915">
        <ele>600</ele>
        <time>2019-06-07T09:55:34Z</time>
      </trkpt>
      <trkpt lat="44.34853" lon="5.7592">
        <ele>600</ele>
        <time>2019-06-07T09:55:35Z</time>
      </trkpt>
      <trkpt lat="44.34848" lon="5.75924">
        <ele>600</ele>
        <time>2019-06-07T09:55:36Z</time>
      </trkpt>
      <trkpt lat="44.34843" lon="5.75928">
        <ele>600</ele>
        <time>2019-06-07T09:55:37Z</time>
      </trkpt>
      <trkpt lat="44.34838" lon="5.75933">
        <ele>600</ele>
        <time>2019-06-07T09:55:38Z</time>
      </trkpt>
      <trkpt lat="44.34833" lon="5.75937">
        <ele>600</ele>
        <time>2019-06-07T09:55:39Z</time>
      </trkpt>
      <trkpt lat="44.34828" lon="5.75941">
        <ele>600</ele>
        <time>2019-06-07T09:55:40Z</time>
      </trkpt>
      <trkpt lat="44.34823" lon="5.75945">
        <ele>600</ele>
        <time>2019-06-07T09:55:41Z</time>
      </trkpt>
      <trkpt lat="44.34818" lon="5.75949">
        <ele>600</ele>
        <time>2019-06-07T09:55:42Z</time>
      </trkpt>
      <trkpt lat="44.34813" lon="5.75953">
        <ele>600</ele>
        <time>2019-06-07T09:55:43Z</time>
      </trkpt>
      <trkpt lat="44.34808" lon="5.75957">
        <ele>600</ele>
        <time>2019-06-07T09:55:44Z</time>
      </trkpt>
      <trkpt lat="44.34803" lon="5.75961">
        <ele>600</ele>
        <time>2019-06-07T09:55:45Z</time>
      </trkpt>
      <trkpt lat="44.34798" lon="5.75966">
        <ele>600</ele>
        <time>2019-06-07T09:55:46Z</time>
      </trkpt>
      <trkpt lat="44.34792" lon="5.75969">
        <ele>600</ele>
        <time>2019-06-07T09:55:47Z</time>
      </trkpt>
      <trkpt lat="44.34787" lon="5.75972">
        <ele>600</ele>
        <time>2019-06-07T09:55:48Z</time>
      </trkpt>
      <trkpt lat="44.34781" lon="5.75975">
        <ele>599</ele>
        <time>2019-06-07T09:55:49Z</time>
      </trkpt>
      <trkpt lat="44.34776" lon="5.75978">
        <ele>599</ele>
        <time>2019-06-07T09:55:50Z</time>
      </trkpt>
      <trkpt lat="44.3477" lon="5.75981">
        <ele>599</ele>
        <time>2019-06-07T09:55:51Z</time>
      </trkpt>
      <trkpt lat="44.34765" lon="5.75984">
        <ele>599</ele>
        <time>2019-06-07T09:55:52Z</time>
      </trkpt>
      <trkpt lat="44.3476" lon="5.75987">
        <ele>599</ele>
        <time>2019-06-07T09:55:53Z</time>
      </trkpt>
      <trkpt lat="44.34754" lon="5.75992">
        <ele>599</ele>
        <time>2019-06-07T09:55:54Z</time>
      </trkpt>
      <trkpt lat="44.34749" lon="5.75996">
        <ele>599</ele>
        <time>2019-06-07T09:55:55Z</time>
      </trkpt>
      <trkpt lat="44.34744" lon="5.76001">
        <ele>599</ele>
        <time>2019-06-07T09:55:56Z</time>
      </trkpt>
      <trkpt lat="44.34739" lon="5.76006">
        <ele>599</ele>
        <time>2019-06-07T09:55:57Z</time>
      </trkpt>
      <trkpt lat="44.34734" lon="5.7601">
        <ele>599</ele>
        <time>2019-06-07T09:55:58Z</time>
      </trkpt>
      <trkpt lat="44.34729" lon="5.76015">
        <ele>599</ele>
        <time>2019-06-07T09:55:59Z</time>
      </trkpt>
      <trkpt lat="44.34725" lon="5.7602">
        <ele>599</ele>
        <time>2019-06-07T09:56:00Z</time>
      </trkpt>
      <trkpt lat="44.34721" lon="5.76025">
        <ele>599</ele>
        <time>2019-06-07T09:56:01Z</time>
      </trkpt>
      <trkpt lat="44.34716" lon="5.7603">
        <ele>599</ele>
        <time>2019-06-07T09:56:02Z</time>
      </trkpt>
      <trkpt lat="44.34712" lon="5.76035">
        <ele>599</ele>
        <time>2019-06-07T09:56:03Z</time>
      </trkpt>
      <trkpt lat="44.34707" lon="5.7604">
        <ele>599</ele>
        <time>2019-06-07T09:56:04Z</time>
      </trkpt>
      <trkpt lat="44.34702" lon="5.76045">
        <ele>599</ele>
        <time>2019-06-07T09:56:05Z</time>
      </trkpt>
      <trkpt lat="44.34697" lon="5.76049">
        <ele>599</ele>
        <time>2019-06-07T09:56:06Z</time>
      </trkpt>
      <trkpt lat="44.34692" lon="5.76052">
        <ele>599</ele>
        <time>2019-06-07T09:56:07Z</time>
      </trkpt>
      <trkpt lat="44.34687" lon="5.76054">
        <ele>599</ele>
        <time>2019-06-07T09:56:08Z</time>
      </trkpt>
      <trkpt lat="44.34682" lon="5.76056">
        <ele>599</ele>
        <time>2019-06-07T09:56:09Z</time>
      </trkpt>
      <trkpt lat="44.34678" lon="5.76057">
        <ele>599</ele>
        <time>2019-06-07T09:56:10Z</time>
      </trkpt>
      <trkpt lat="44.34673" lon="5.76058">
        <ele>599</ele>
        <time>2019-06-07T09:56:11Z</time>
      </trkpt>
      <trkpt lat="44.34669" lon="5.76059">
        <ele>599</ele>
        <time>2019-06-07T09:56:12Z</time>
      </trkpt>
      <trkpt lat="44.34665" lon="5.76061">
        <ele>599</ele>
        <time>2019-06-07T09:56:13Z</time>
      </trkpt>
      <trkpt lat="44.3466" lon="5.76063">
        <ele>599</ele>
        <time>2019-06-07T09:56:14Z</time>
      </trkpt>
      <trkpt lat="44.34655" lon="5.76066">
        <ele>599</ele>
        <time>2019-06-07T09:56:15Z</time>
      </trkpt>
      <trkpt lat="44.34651" lon="5.76068">
        <ele>599</ele>
        <time>2019-06-07T09:56:16Z</time>
      </trkpt>
      <trkpt lat="44.34647" lon="5.7607">
        <ele>599</ele>
        <time>2019-06-07T09:56:17Z</time>
      </trkpt>
      <trkpt lat="44.34642" lon="5.76073">
        <ele>599</ele>
        <time>2019-06-07T09:56:18Z</time>
      </trkpt>
      <trkpt lat="44.34638" lon="5.76075">
        <ele>599</ele>
        <time>2019-06-07T09:56:19Z</time>
      </trkpt>
      <trkpt lat="44.34634" lon="5.76077">
        <ele>599</ele>
        <time>2019-06-07T09:56:20Z</time>
      </trkpt>
      <trkpt lat="44.3463" lon="5.76079">
        <ele>599</ele>
        <time>2019-06-07T09:56:21Z</time>
      </trkpt>
      <trkpt lat="44.34626" lon="5.76081">
        <ele>599</ele>
        <time>2019-06-07T09:56:22Z</time>
      </trkpt>
      <trkpt lat="44.34622" lon="5.76083">
        <ele>599</ele>
        <time>2019-06-07T09:56:23Z</time>
      </trkpt>
      <trkpt lat="44.34618" lon="5.76086">
        <ele>599</ele>
        <time>2019-06-07T09:56:24Z</time>
      </trkpt>
      <trkpt lat="44.34614" lon="5.76088">
        <ele>599</ele>
        <time>2019-06-07T09:56:25Z</time>
      </trkpt>
      <trkpt lat="44.3461" lon="5.76091">
        <ele>599</ele>
        <time>2019-06-07T09:56:26Z</time>
      </trkpt>
      <trkpt lat="44.34606" lon="5.76093">
        <ele>599</ele>
        <time>2019-06-07T09:56:27Z</time>
      </trkpt>
      <trkpt lat="44.34602" lon="5.76096">
        <ele>599</ele>
        <time>2019-06-07T09:56:28Z</time>
      </trkpt>
      <trkpt lat="44.34599" lon="5.76099">
        <ele>599</ele>
        <time>2019-06-07T09:56:29Z</time>
      </trkpt>
      <trkpt lat="44.34595" lon="5.76102">
        <ele>599</ele>
        <time>2019-06-07T09:56:30Z</time>
      </trkpt>
      <trkpt lat="44.34591" lon="5.76105">
        <ele>599</ele>
        <time>2019-06-07T09:56:31Z</time>
      </trkpt>
      <trkpt lat="44.34588" lon="5.76107">
        <ele>599</ele>
        <time>2019-06-07T09:56:32Z</time>
      </trkpt>
      <trkpt lat="44.34584" lon="5.7611">
        <ele>599</ele>
        <time>2019-06-07T09:56:33Z</time>
      </trkpt>
      <trkpt lat="44.34581" lon="5.76113">
        <ele>599</ele>
        <time>2019-06-07T09:56:34Z</time>
      </trkpt>
      <trkpt lat="44.34577" lon="5.76115">
        <ele>599</ele>
        <time>2019-06-07T09:56:35Z</time>
      </trkpt>
      <trkpt lat="44.34573" lon="5.76118">
        <ele>599</ele>
        <time>2019-06-07T09:56:36Z</time>
      </trkpt>
      <trkpt lat="44.3457" lon="5.76121">
        <ele>599</ele>
        <time>2019-06-07T09:56:37Z</time>
      </trkpt>
      <trkpt lat="44.34566" lon="5.76123">
        <ele>599</ele>
        <time>2019-06-07T09:56:38Z</time>
      </trkpt>
      <trkpt lat="44.34563" lon="5.76126">
        <ele>599</ele>
        <time>2019-06-07T09:56:39Z</time>
      </trkpt>
      <trkpt lat="44.34559" lon="5.76128">
        <ele>599</ele>
        <time>2019-06-07T09:56:40Z</time>
      </trkpt>
      <trkpt lat="44.34555" lon="5.76131">
        <ele>599</ele>
        <time>2019-06-07T09:56:41Z</time>
      </trkpt>
      <trkpt lat="44.34551" lon="5.76133">
        <ele>599</ele>
        <time>2019-06-07T09:56:42Z</time>
      </trkpt>
      <trkpt lat="44.34547" lon="5.76136">
        <ele>599</ele>
        <time>2019-06-07T09:56:43Z</time>
      </trkpt>
      <trkpt lat="44.34544" lon="5.76139">
        <ele>599</ele>
        <time>2019-06-07T09:56:44Z</time>
      </trkpt>
      <trkpt lat="44.3454" lon="5.76142">
        <ele>599</ele>
        <time>2019-06-07T09:56:45Z</time>
      </trkpt>
      <trkpt lat="44.34536" lon="5.76145">
        <ele>599</ele>
        <time>2019-06-07T09:56:46Z</time>
      </trkpt>
      <trkpt lat="44.34531" lon="5.76148">
        <ele>599</ele>
        <time>2019-06-07T09:56:47Z</time>
      </trkpt>
      <trkpt lat="44.34527" lon="5.7615">
        <ele>599</ele>
        <time>2019-06-07T09:56:48Z</time>
      </trkpt>
      <trkpt lat="44.34523" lon="5.76154">
        <ele>599</ele>
        <time>2019-06-07T09:56:49Z</time>
      </trkpt>
      <trkpt lat="44.34519" lon="5.76157">
        <ele>599</ele>
        <time>2019-06-07T09:56:50Z</time>
      </trkpt>
      <trkpt lat="44.34514" lon="5.7616">
        <ele>599</ele>
        <time>2019-06-07T09:56:51Z</time>
      </trkpt>
      <trkpt lat="44.3451" lon="5.76163">
        <ele>600</ele>
        <time>2019-06-07T09:56:52Z</time>
      </trkpt>
      <trkpt lat="44.34507" lon="5.76167">
        <ele>600</ele>
        <time>2019-06-07T09:56:53Z</time>
      </trkpt>
      <trkpt lat="44.34503" lon="5.7617">
        <ele>600</ele>
        <time>2019-06-07T09:56:54Z</time>
      </trkpt>
      <trkpt lat="44.34499" lon="5.76174">
        <ele>600</ele>
        <time>2019-06-07T09:56:55Z</time>
      </trkpt>
      <trkpt lat="44.34495" lon="5.76177">
        <ele>600</ele>
        <time>2019-06-07T09:56:56Z</time>
      </trkpt>
      <trkpt lat="44.34492" lon="5.76181">
        <ele>600</ele>
        <time>2019-06-07T09:56:57Z</time>
      </trkpt>
      <trkpt lat="44.34489" lon="5.76185">
        <ele>600</ele>
        <time>2019-06-07T09:56:58Z</time>
      </trkpt>
      <trkpt lat="44.34485" lon="5.76189">
        <ele>600</ele>
        <time>2019-06-07T09:56:59Z</time>
      </trkpt>
      <trkpt lat="44.34481" lon="5.76192">
        <ele>601</ele>
        <time>2019-06-07T09:57:00Z</time>
      </trkpt>
      <trkpt lat="44.34477" lon="5.76195">
        <ele>601</ele>
        <time>2019-06-07T09:57:01Z</time>
      </trkpt>
      <trkpt lat="44.34472" lon="5.76198">
        <ele>601</ele>
        <time>2019-06-07T09:57:02Z</time>
      </trkpt>
      <trkpt lat="44.34467" lon="5.76201">
        <ele>601</ele>
        <time>2019-06-07T09:57:03Z</time>
      </trkpt>
      <trkpt lat="44.34462" lon="5.76203">
        <ele>601</ele>
        <time>2019-06-07T09:57:04Z</time>
      </trkpt>
      <trkpt lat="44.34456" lon="5.76205">
        <ele>601</ele>
        <time>2019-06-07T09:57:05Z</time>
      </trkpt>
      <trkpt lat="44.3445" lon="5.76208">
        <ele>601</ele>
        <time>2019-06-07T09:57:06Z</time>
      </trkpt>
      <trkpt lat="44.34444" lon="5.7621">
        <ele>601</ele>
        <time>2019-06-07T09:57:07Z</time>
      </trkpt>
      <trkpt lat="44.34437" lon="5.76212">
        <ele>601</ele>
        <time>2019-06-07T09:57:08Z</time>
      </trkpt>
      <trkpt lat="44.34431" lon="5.76214">
        <ele>601</ele>
        <time>2019-06-07T09:57:09Z</time>
      </trkpt>
      <trkpt lat="44.34424" lon="5.76215">
        <ele>601</ele>
        <time>2019-06-07T09:57:10Z</time>
      </trkpt>
      <trkpt lat="44.34418" lon="5.76215">
        <ele>601</ele>
        <time>2019-06-07T09:57:11Z</time>
      </trkpt>
      <trkpt lat="44.34411" lon="5.76214">
        <ele>601</ele>
        <time>2019-06-07T09:57:12Z</time>
      </trkpt>
      <trkpt lat="44.34405" lon="5.76212">
        <ele>601</ele>
        <time>2019-06-07T09:57:13Z</time>
      </trkpt>
      <trkpt lat="44.34398" lon="5.76209">
        <ele>601</ele>
        <time>2019-06-07T09:57:14Z</time>
      </trkpt>
      <trkpt lat="44.34392" lon="5.76206">
        <ele>601</ele>
        <time>2019-06-07T09:57:15Z</time>
      </trkpt>
      <trkpt lat="44.34386" lon="5.76202">
        <ele>601</ele>
        <time>2019-06-07T09:57:16Z</time>
      </trkpt>
      <trkpt lat="44.3438" lon="5.76199">
        <ele>601</ele>
        <time>2019-06-07T09:57:17Z</time>
      </trkpt>
      <trkpt lat="44.34373" lon="5.76196">
        <ele>601</ele>
        <time>2019-06-07T09:57:18Z</time>
      </trkpt>
      <trkpt lat="44.34366" lon="5.76193">
        <ele>601</ele>
        <time>2019-06-07T09:57:19Z</time>
      </trkpt>
      <trkpt lat="44.34359" lon="5.7619">
        <ele>601</ele>
        <time>2019-06-07T09:57:20Z</time>
      </trkpt>
      <trkpt lat="44.34352" lon="5.76186">
        <ele>601</ele>
        <time>2019-06-07T09:57:21Z</time>
      </trkpt>
      <trkpt lat="44.34346" lon="5.76182">
        <ele>601</ele>
        <time>2019-06-07T09:57:22Z</time>
      </trkpt>
      <trkpt lat="44.34339" lon="5.76179">
        <ele>601</ele>
        <time>2019-06-07T09:57:23Z</time>
      </trkpt>
      <trkpt lat="44.34332" lon="5.76175">
        <ele>601</ele>
        <time>2019-06-07T09:57:24Z</time>
      </trkpt>
      <trkpt lat="44.34326" lon="5.76171">
        <ele>601</ele>
        <time>2019-06-07T09:57:25Z</time>
      </trkpt>
      <trkpt lat="44.3432" lon="5.76167">
        <ele>601</ele>
        <time>2019-06-07T09:57:26Z</time>
      </trkpt>
      <trkpt lat="44.34313" lon="5.76164">
        <ele>601</ele>
        <time>2019-06-07T09:57:27Z</time>
      </trkpt>
      <trkpt lat="44.34307" lon="5.7616">
        <ele>601</ele>
        <time>2019-06-07T09:57:28Z</time>
      </trkpt>
      <trkpt lat="44.34301" lon="5.76157">
        <ele>601</ele>
        <time>2019-06-07T09:57:29Z</time>
      </trkpt>
      <trkpt lat="44.34295" lon="5.76154">
        <ele>600</ele>
        <time>2019-06-07T09:57:30Z</time>
      </trkpt>
      <trkpt lat="44.34289" lon="5.76151">
        <ele>600</ele>
        <time>2019-06-07T09:57:31Z</time>
      </trkpt>
      <trkpt lat="44.34283" lon="5.76149">
        <ele>600</ele>
        <time>2019-06-07T09:57:32Z</time>
      </trkpt>
      <trkpt lat="44.34278" lon="5.76147">
        <ele>600</ele>
        <time>2019-06-07T09:57:33Z</time>
      </trkpt>
      <trkpt lat="44.34272" lon="5.76146">
        <ele>600</ele>
        <time>2019-06-07T09:57:34Z</time>
      </trkpt>
      <trkpt lat="44.34268" lon="5.76145">
        <ele>600</ele>
        <time>2019-06-07T09:57:35Z</time>
      </trkpt>
      <trkpt lat="44.34263" lon="5.76144">
        <ele>600</ele>
        <time>2019-06-07T09:57:36Z</time>
      </trkpt>
      <trkpt lat="44.34259" lon="5.76143">
        <ele>600</ele>
        <time>2019-06-07T09:57:37Z</time>
      </trkpt>
      <trkpt lat="44.34254" lon="5.76142">
        <ele>600</ele>
        <time>2019-06-07T09:57:38Z</time>
      </trkpt>
      <trkpt lat="44.34251" lon="5.7614">
        <ele>600</ele>
        <time>2019-06-07T09:57:39Z</time>
      </trkpt>
      <trkpt lat="44.34247" lon="5.7614">
        <ele>600</ele>
        <time>2019-06-07T09:57:40Z</time>
      </trkpt>
      <trkpt lat="44.34243" lon="5.76142">
        <ele>600</ele>
        <time>2019-06-07T09:57:41Z</time>
      </trkpt>
      <trkpt lat="44.34238" lon="5.76143">
        <ele>599</ele>
        <time>2019-06-07T09:57:42Z</time>
      </trkpt>
      <trkpt lat="44.34235" lon="5.76146">
        <ele>599</ele>
        <time>2019-06-07T09:57:43Z</time>
      </trkpt>
      <trkpt lat="44.34231" lon="5.76148">
        <ele>599</ele>
        <time>2019-06-07T09:57:44Z</time>
      </trkpt>
      <trkpt lat="44.34227" lon="5.76152">
        <ele>599</ele>
        <time>2019-06-07T09:57:45Z</time>
      </trkpt>
      <trkpt lat="44.34224" lon="5.76156">
        <ele>599</ele>
        <time>2019-06-07T09:57:46Z</time>
      </trkpt>
      <trkpt lat="44.34219" lon="5.7616">
        <ele>599</ele>
        <time>2019-06-07T09:57:47Z</time>
      </trkpt>
      <trkpt lat="44.34215" lon="5.76165">
        <ele>599</ele>
        <time>2019-06-07T09:57:48Z</time>
      </trkpt>
      <trkpt lat="44.34211" lon="5.76168">
        <ele>599</ele>
        <time>2019-06-07T09:57:49Z</time>
      </trkpt>
      <trkpt lat="44.34206" lon="5.76172">
        <ele>599</ele>
        <time>2019-06-07T09:57:50Z</time>
      </trkpt>
      <trkpt lat="44.34201" lon="5.76177">
        <ele>599</ele>
        <time>2019-06-07T09:57:51Z</time>
      </trkpt>
      <trkpt lat="44.34197" lon="5.76182">
        <ele>599</ele>
        <time>2019-06-07T09:57:52Z</time>
      </trkpt>
      <trkpt lat="44.34192" lon="5.76187">
        <ele>599</ele>
        <time>2019-06-07T09:57:53Z</time>
      </trkpt>
      <trkpt lat="44.34188" lon="5.76192">
        <ele>599</ele>
        <time>2019-06-07T09:57:54Z</time>
      </trkpt>
      <trkpt lat="44.34184" lon="5.76199">
        <ele>599</ele>
        <time>2019-06-07T09:57:55Z</time>
      </trkpt>
      <trkpt lat="44.3418" lon="5.76206">
        <ele>599</ele>
        <time>2019-06-07T09:57:56Z</time>
      </trkpt>
      <trkpt lat="44.34178" lon="5.76214">
        <ele>599</ele>
        <time>2019-06-07T09:57:57Z</time>
      </trkpt>
      <trkpt lat="44.34175" lon="5.76222">
        <ele>599</ele>
        <time>2019-06-07T09:57:58Z</time>
      </trkpt>
      <trkpt lat="44.34173" lon="5.7623">
        <ele>599</ele>
        <time>2019-06-07T09:57:59Z</time>
      </trkpt>
      <trkpt lat="44.34171" lon="5.76239">
        <ele>599</ele>
        <time>2019-06-07T09:58:00Z</time>
      </trkpt>
      <trkpt lat="44.34168" lon="5.76249">
        <ele>599</ele>
        <time>2019-06-07T09:58:01Z</time>
      </trkpt>
      <trkpt lat="44.34166" lon="5.76258">
        <ele>599</ele>
        <time>2019-06-07T09:58:02Z</time>
      </trkpt>
      <trkpt lat="44.34163" lon="5.76267">
        <ele>598</ele>
        <time>2019-06-07T09:58:03Z</time>
      </trkpt>
      <trkpt lat="44.34161" lon="5.76276">
        <ele>597</ele>
        <time>2019-06-07T09:58:04Z</time>
      </trkpt>
      <trkpt lat="44.34158" lon="5.76285">
        <ele>597</ele>
        <time>2019-06-07T09:58:05Z</time>
      </trkpt>
      <trkpt lat="44.34155" lon="5.76294">
        <ele>596</ele>
        <time>2019-06-07T09:58:06Z</time>
      </trkpt>
      <trkpt lat="44.34152" lon="5.76303">
        <ele>595</ele>
        <time>2019-06-07T09:58:07Z</time>
      </trkpt>
      <trkpt lat="44.3415" lon="5.76312">
        <ele>594</ele>
        <time>2019-06-07T09:58:08Z</time>
      </trkpt>
      <trkpt lat="44.34148" lon="5.7632">
        <ele>594</ele>
        <time>2019-06-07T09:58:09Z</time>
      </trkpt>
      <trkpt lat="44.34145" lon="5.76328">
        <ele>594</ele>
        <time>2019-06-07T09:58:10Z</time>
      </trkpt>
      <trkpt lat="44.34143" lon="5.76336">
        <ele>594</ele>
        <time>2019-06-07T09:58:11Z</time>
      </trkpt>
      <trkpt lat="44.34139" lon="5.76342">
        <ele>594</ele>
        <time>2019-06-07T09:58:12Z</time>
      </trkpt>
      <trkpt lat="44.34133" lon="5.76347">
        <ele>594</ele>
        <time>2019-06-07T09:58:13Z</time>
      </trkpt>
      <trkpt lat="44.34128" lon="5.7635">
        <ele>594</ele>
        <time>2019-06-07T09:58:14Z</time>
      </trkpt>
      <trkpt lat="44.34124" lon="5.76354">
        <ele>594</ele>
        <time>2019-06-07T09:58:15Z</time>
      </trkpt>
      <trkpt lat="44.3412" lon="5.76359">
        <ele>594</ele>
        <time>2019-06-07T09:58:16Z</time>
      </trkpt>
      <trkpt lat="44.34117" lon="5.76366">
        <ele>594</ele>
        <time>2019-06-07T09:58:17Z</time>
      </trkpt>
      <trkpt lat="44.34115" lon="5.76374">
        <ele>594</ele>
        <time>2019-06-07T09:58:18Z</time>
      </trkpt>
      <trkpt lat="44.34113" lon="5.76383">
        <ele>594</ele>
        <time>2019-06-07T09:58:19Z</time>
      </trkpt>
      <trkpt lat="44.34112" lon="5.76392">
        <ele>594</ele>
        <time>2019-06-07T09:58:20Z</time>
      </trkpt>
      <trkpt lat="44.34111" lon="5.76401">
        <ele>594</ele>
        <time>2019-06-07T09:58:21Z</time>
      </trkpt>
      <trkpt lat="44.34109" lon="5.76409">
        <ele>594</ele>
        <time>2019-06-07T09:58:22Z</time>
      </trkpt>
      <trkpt lat="44.34106" lon="5.76417">
        <ele>594</ele>
        <time>2019-06-07T09:58:23Z</time>
      </trkpt>
      <trkpt lat="44.34103" lon="5.76425">
        <ele>594</ele>
        <time>2019-06-07T09:58:24Z</time>
      </trkpt>
      <trkpt lat="44.34099" lon="5.76432">
        <ele>594</ele>
        <time>2019-06-07T09:58:25Z</time>
      </trkpt>
      <trkpt lat="44.34095" lon="5.76438">
        <ele>594</ele>
        <time>2019-06-07T09:58:26Z</time>
      </trkpt>
      <trkpt lat="44.34092" lon="5.76445">
        <ele>594</ele>
        <time>2019-06-07T09:58:27Z</time>
      </trkpt>
      <trkpt lat="44.34088" lon="5.76452">
        <ele>594</ele>
        <time>2019-06-07T09:58:28Z</time>
      </trkpt>
      <trkpt lat="44.34084" lon="5.76459">
        <ele>594</ele>
        <time>2019-06-07T09:58:29Z</time>
      </trkpt>
      <trkpt lat="44.34081" lon="5.76466">
        <ele>594</ele>
        <time>2019-06-07T09:58:30Z</time>
      </trkpt>
      <trkpt lat="44.34077" lon="5.76473">
        <ele>594</ele>
        <time>2019-06-07T09:58:31Z</time>
      </trkpt>
      <trkpt lat="44.34074" lon="5.76479">
        <ele>594</ele>
        <time>2019-06-07T09:58:32Z</time>
      </trkpt>
      <trkpt lat="44.3407" lon="5.76486">
        <ele>594</ele>
        <time>2019-06-07T09:58:33Z</time>
      </trkpt>
      <trkpt lat="44.34067" lon="5.76493">
        <ele>594</ele>
        <time>2019-06-07T09:58:34Z</time>
      </trkpt>
      <trkpt lat="44.34063" lon="5.76501">
        <ele>594</ele>
        <time>2019-06-07T09:58:35Z</time>
      </trkpt>
      <trkpt lat="44.3406" lon="5.76508">
        <ele>594</ele>
        <time>2019-06-07T09:58:36Z</time>
      </trkpt>
      <trkpt lat="44.34056" lon="5.76515">
        <ele>594</ele>
        <time>2019-06-07T09:58:37Z</time>
      </trkpt>
      <trkpt lat="44.34053" lon="5.76522">
        <ele>594</ele>
        <time>2019-06-07T09:58:38Z</time>
      </trkpt>
      <trkpt lat="44.3405" lon="5.76528">
        <ele>594</ele>
        <time>2019-06-07T09:58:39Z</time>
      </trkpt>
      <trkpt lat="44.34047" lon="5.76535">
        <ele>594</ele>
        <time>2019-06-07T09:58:40Z</time>
      </trkpt>
      <trkpt lat="44.34044" lon="5.76541">
        <ele>594</ele>
        <time>2019-06-07T09:58:41Z</time>
      </trkpt>
      <trkpt lat="44.3404" lon="5.76547">
        <ele>594</ele>
        <time>2019-06-07T09:58:42Z</time>
      </trkpt>
      <trkpt lat="44.34037" lon="5.76553">
        <ele>594</ele>
        <time>2019-06-07T09:58:43Z</time>
      </trkpt>
      <trkpt lat="44.34035" lon="5.7656">
        <ele>594</ele>
        <time>2019-06-07T09:58:44Z</time>
      </trkpt>
      <trkpt lat="44.34034" lon="5.76567">
        <ele>594</ele>
        <time>2019-06-07T09:58:45Z</time>
      </trkpt>
      <trkpt lat="44.34034" lon="5.76575">
        <ele>593</ele>
        <time>2019-06-07T09:58:46Z</time>
      </trkpt>
      <trkpt lat="44.34036" lon="5.76583">
        <ele>593</ele>
        <time>2019-06-07T09:58:47Z</time>
      </trkpt>
      <trkpt lat="44.34038" lon="5.7659">
        <ele>593</ele>
        <time>2019-06-07T09:58:48Z</time>
      </trkpt>
      <trkpt lat="44.3404" lon="5.76599">
        <ele>593</ele>
        <time>2019-06-07T09:58:49Z</time>
      </trkpt>
      <trkpt lat="44.34042" lon="5.76607">
        <ele>593</ele>
        <time>2019-06-07T09:58:50Z</time>
      </trkpt>
      <trkpt lat="44.34045" lon="5.76615">
        <ele>593</ele>
        <time>2019-06-07T09:58:51Z</time>
      </trkpt>
      <trkpt lat="44.34048" lon="5.76622">
        <ele>593</ele>
        <time>2019-06-07T09:58:52Z</time>
      </trkpt>
      <trkpt lat="44.34052" lon="5.76629">
        <ele>593</ele>
        <time>2019-06-07T09:58:53Z</time>
      </trkpt>
      <trkpt lat="44.34056" lon="5.76636">
        <ele>593</ele>
        <time>2019-06-07T09:58:54Z</time>
      </trkpt>
      <trkpt lat="44.3406" lon="5.76643">
        <ele>593</ele>
        <time>2019-06-07T09:58:55Z</time>
      </trkpt>
      <trkpt lat="44.34062" lon="5.76651">
        <ele>593</ele>
        <time>2019-06-07T09:58:56Z</time>
      </trkpt>
      <trkpt lat="44.34063" lon="5.76659">
        <ele>593</ele>
        <time>2019-06-07T09:58:57Z</time>
      </trkpt>
      <trkpt lat="44.34061" lon="5.76668">
        <ele>593</ele>
        <time>2019-06-07T09:58:58Z</time>
      </trkpt>
      <trkpt lat="44.34057" lon="5.76675">
        <ele>593</ele>
        <time>2019-06-07T09:58:59Z</time>
      </trkpt>
      <trkpt lat="44.3405" lon="5.76679">
        <ele>592</ele>
        <time>2019-06-07T09:59:00Z</time>
      </trkpt>
      <trkpt lat="44.34043" lon="5.76683">
        <ele>592</ele>
        <time>2019-06-07T09:59:01Z</time>
      </trkpt>
      <trkpt lat="44.34036" lon="5.76687">
        <ele>592</ele>
        <time>2019-06-07T09:59:02Z</time>
      </trkpt>
      <trkpt lat="44.3403" lon="5.7669">
        <ele>592</ele>
        <time>2019-06-07T09:59:03Z</time>
      </trkpt>
      <trkpt lat="44.34024" lon="5.76694">
        <ele>592</ele>
        <time>2019-06-07T09:59:04Z</time>
      </trkpt>
      <trkpt lat="44.34019" lon="5.76701">
        <ele>592</ele>
        <time>2019-06-07T09:59:05Z</time>
      </trkpt>
      <trkpt lat="44.34016" lon="5.76708">
        <ele>592</ele>
        <time>2019-06-07T09:59:06Z</time>
      </trkpt>
      <trkpt lat="44.34014" lon="5.76716">
        <ele>592</ele>
        <time>2019-06-07T09:59:07Z</time>
      </trkpt>
      <trkpt lat="44.34013" lon="5.76723">
        <ele>592</ele>
        <time>2019-06-07T09:59:08Z</time>
      </trkpt>
      <trkpt lat="44.34013" lon="5.76731">
        <ele>592</ele>
        <time>2019-06-07T09:59:09Z</time>
      </trkpt>
      <trkpt lat="44.34014" lon="5.76738">
        <ele>592</ele>
        <time>2019-06-07T09:59:10Z</time>
      </trkpt>
      <trkpt lat="44.34015" lon="5.76745">
        <ele>592</ele>
        <time>2019-06-07T09:59:11Z</time>
      </trkpt>
      <trkpt lat="44.34016" lon="5.76752">
        <ele>592</ele>
        <time>2019-06-07T09:59:12Z</time>
      </trkpt>
      <trkpt lat="44.34017" lon="5.76758">
        <ele>592</ele>
        <time>2019-06-07T09:59:13Z</time>
      </trkpt>
      <trkpt lat="44.34018" lon="5.76765">
        <ele>592</ele>
        <time>2019-06-07T09:59:14Z</time>
      </trkpt>
      <trkpt lat="44.34018" lon="5.76771">
        <ele>592</ele>
        <time>2019-06-07T09:59:15Z</time>
      </trkpt>
      <trkpt lat="44.34019" lon="5.76778">
        <ele>592</ele>
        <time>2019-06-07T09:59:16Z</time>
      </trkpt>
      <trkpt lat="44.34019" lon="5.76785">
        <ele>592</ele>
        <time>2019-06-07T09:59:17Z</time>
      </trkpt>
      <trkpt lat="44.3402" lon="5.76791">
        <ele>592</ele>
        <time>2019-06-07T09:59:18Z</time>
      </trkpt>
      <trkpt lat="44.3402" lon="5.76798">
        <ele>592</ele>
        <time>2019-06-07T09:59:19Z</time>
      </trkpt>
      <trkpt lat="44.34021" lon="5.76804">
        <ele>592</ele>
        <time>2019-06-07T09:59:20Z</time>
      </trkpt>
      <trkpt lat="44.3402" lon="5.76811">
        <ele>592</ele>
        <time>2019-06-07T09:59:21Z</time>
      </trkpt>
      <trkpt lat="44.3402" lon="5.76817">
        <ele>592</ele>
        <time>2019-06-07T09:59:22Z</time>
      </trkpt>
      <trkpt lat="44.34019" lon="5.76824">
        <ele>592</ele>
        <time>2019-06-07T09:59:23Z</time>
      </trkpt>
      <trkpt lat="44.34018" lon="5.7683">
        <ele>592</ele>
        <time>2019-06-07T09:59:24Z</time>
      </trkpt>
      <trkpt lat="44.34017" lon="5.76837">
        <ele>592</ele>
        <time>2019-06-07T09:59:25Z</time>
      </trkpt>
      <trkpt lat="44.34016" lon="5.76843">
        <ele>592</ele>
        <time>2019-06-07T09:59:26Z</time>
      </trkpt>
      <trkpt lat="44.34015" lon="5.76849">
        <ele>592</ele>
        <time>2019-06-07T09:59:27Z</time>
      </trkpt>
      <trkpt lat="44.34013" lon="5.76856">
        <ele>592</ele>
        <time>2019-06-07T09:59:28Z</time>
      </trkpt>
      <trkpt lat="44.34012" lon="5.76862">
        <ele>592</ele>
        <time>2019-06-07T09:59:29Z</time>
      </trkpt>
      <trkpt lat="44.34011" lon="5.76868">
        <ele>592</ele>
        <time>2019-06-07T09:59:30Z</time>
      </trkpt>
      <trkpt lat="44.34009" lon="5.76874">
        <ele>592</ele>
        <time>2019-06-07T09:59:31Z</time>
      </trkpt>
      <trkpt lat="44.34008" lon="5.7688">
        <ele>592</ele>
        <time>2019-06-07T09:59:32Z</time>
      </trkpt>
      <trkpt lat="44.34007" lon="5.76887">
        <ele>592</ele>
        <time>2019-06-07T09:59:33Z</time>
      </trkpt>
      <trkpt lat="44.34005" lon="5.76894">
        <ele>592</ele>
        <time>2019-06-07T09:59:34Z</time>
      </trkpt>
      <trkpt lat="44.34004" lon="5.769">
        <ele>592</ele>
        <time>2019-06-07T09:59:35Z</time>
      </trkpt>
      <trkpt lat="44.34003" lon="5.76908">
        <ele>592</ele>
        <time>2019-06-07T09:59:36Z</time>
      </trkpt>
      <trkpt lat="44.34002" lon="5.76914">
        <ele>592</ele>
        <time>2019-06-07T09:59:37Z</time>
      </trkpt>
      <trkpt lat="44.34001" lon="5.7692">
        <ele>592</ele>
        <time>2019-06-07T09:59:38Z</time>
      </trkpt>
      <trkpt lat="44.33999" lon="5.76927">
        <ele>592</ele>
        <time>2019-06-07T09:59:39Z</time>
      </trkpt>
      <trkpt lat="44.33998" lon="5.76934">
        <ele>592</ele>
        <time>2019-06-07T09:59:40Z</time>
      </trkpt>
      <trkpt lat="44.33997" lon="5.76941">
        <ele>592</ele>
        <time>2019-06-07T09:59:41Z</time>
      </trkpt>
      <trkpt lat="44.33997" lon="5.76948">
        <ele>592</ele>
        <time>2019-06-07T09:59:42Z</time>
      </trkpt>
      <trkpt lat="44.33997" lon="5.76955">
        <ele>592</ele>
        <time>2019-06-07T09:59:43Z</time>
      </trkpt>
      <trkpt lat="44.33996" lon="5.76962">
        <ele>592</ele>
        <time>2019-06-07T09:59:44Z</time>
      </trkpt>
      <trkpt lat="44.33995" lon="5.76969">
        <ele>592</ele>
        <time>2019-06-07T09:59:45Z</time>
      </trkpt>
      <trkpt lat="44.33995" lon="5.76976">
        <ele>592</ele>
        <time>2019-06-07T09:59:46Z</time>
      </trkpt>
      <trkpt lat="44.33994" lon="5.76982">
        <ele>592</ele>
        <time>2019-06-07T09:59:47Z</time>
      </trkpt>
      <trkpt lat="44.33992" lon="5.76989">
        <ele>593</ele>
        <time>2019-06-07T09:59:48Z</time>
      </trkpt>
      <trkpt lat="44.33991" lon="5.76996">
        <ele>594</ele>
        <time>2019-06-07T09:59:49Z</time>
      </trkpt>
      <trkpt lat="44.3399" lon="5.77003">
        <ele>595</ele>
        <time>2019-06-07T09:59:50Z</time>
      </trkpt>
      <trkpt lat="44.33989" lon="5.77009">
        <ele>596</ele>
        <time>2019-06-07T09:59:51Z</time>
      </trkpt>
      <trkpt lat="44.33989" lon="5.77015">
        <ele>597</ele>
        <time>2019-06-07T09:59:52Z</time>
      </trkpt>
      <trkpt lat="44.33987" lon="5.77021">
        <ele>598</ele>
        <time>2019-06-07T09:59:53Z</time>
      </trkpt>
      <trkpt lat="44.33986" lon="5.77027">
        <ele>598</ele>
        <time>2019-06-07T09:59:54Z</time>
      </trkpt>
      <trkpt lat="44.33985" lon="5.77032">
        <ele>599</ele>
        <time>2019-06-07T09:59:55Z</time>
      </trkpt>
      <trkpt lat="44.33983" lon="5.77037">
        <ele>599</ele>
        <time>2019-06-07T09:59:56Z</time>
      </trkpt>
      <trkpt lat="44.33981" lon="5.77042">
        <ele>599</ele>
        <time>2019-06-07T09:59:57Z</time>
      </trkpt>
      <trkpt lat="44.3398" lon="5.77047">
        <ele>599</ele>
        <time>2019-06-07T09:59:58Z</time>
      </trkpt>
      <trkpt lat="44.33978" lon="5.77052">
        <ele>600</ele>
        <time>2019-06-07T09:59:59Z</time>
      </trkpt>
      <trkpt lat="44.33978" lon="5.77057">
        <ele>600</ele>
        <time>2019-06-07T10:00:00Z</time>
      </trkpt>
      <trkpt lat="44.33978" lon="5.77062">
        <ele>600</ele>
        <time>2019-06-07T10:00:01Z</time>
      </trkpt>
      <trkpt lat="44.33978" lon="5.77066">
        <ele>600</ele>
        <time>2019-06-07T10:00:02Z</time>
      </trkpt>
      <trkpt lat="44.33977" lon="5.77071">
        <ele>600</ele>
        <time>2019-06-07T10:00:03Z</time>
      </trkpt>
      <trkpt lat="44.33976" lon="5.77076">
        <ele>600</ele>
        <time>2019-06-07T10:00:04Z</time>
      </trkpt>
      <trkpt lat="44.33975" lon="5.77081">
        <ele>600</ele>
        <time>2019-06-07T10:00:05Z</time>
      </trkpt>
      <trkpt lat="44.33974" lon="5.77086">
        <ele>600</ele>
        <time>2019-06-07T10:00:06Z</time>
      </trkpt>
      <trkpt lat="44.33973" lon="5.77091">
        <ele>600</ele>
        <time>2019-06-07T10:00:07Z</time>
      </trkpt>
      <trkpt lat="44.33973" lon="5.77096">
        <ele>600</ele>
        <time>2019-06-07T10:00:08Z</time>
      </trkpt>
      <trkpt lat="44.33974" lon="5.77101">
        <ele>600</ele>
        <time>2019-06-07T10:00:09Z</time>
      </trkpt>
      <trkpt lat="44.33973" lon="5.77106">
        <ele>600</ele>
        <time>2019-06-07T10:00:10Z</time>
      </trkpt>
      <trkpt lat="44.33973" lon="5.77112">
        <ele>600</ele>
        <time>2019-06-07T10:00:11Z</time>
      </trkpt>
      <trkpt lat="44.33972" lon="5.77117">
        <ele>600</ele>
        <time>2019-06-07T10:00:12Z</time>
      </trkpt>
      <trkpt lat="44.33972" lon="5.77122">
        <ele>600</ele>
        <time>2019-06-07T10:00:13Z</time>
      </trkpt>
      <trkpt lat="44.33971" lon="5.77127">
        <ele>600</ele>
        <time>2019-06-07T10:00:14Z</time>
      </trkpt>
      <trkpt lat="44.33971" lon="5.77132">
        <ele>600</ele>
        <time>2019-06-07T10:00:15Z</time>
      </trkpt>
      <trkpt lat="44.33972" lon="5.77136">
        <ele>600</ele>
        <time>2019-06-07T10:00:16Z</time>
      </trkpt>
      <trkpt lat="44.33972" lon="5.77142">
        <ele>600</ele>
        <time>2019-06-07T10:00:17Z</time>
      </trkpt>
      <trkpt lat="44.33973" lon="5.77146">
        <ele>600</ele>
        <time>2019-06-07T10:00:18Z</time>
      </trkpt>
      <trkpt lat="44.33973" lon="5.77151">
        <ele>600</ele>
        <time>2019-06-07T10:00:19Z</time>
      </trkpt>
      <trkpt lat="44.33973" lon="5.77155">
        <ele>600</ele>
        <time>2019-06-07T10:00:20Z</time>
      </trkpt>
      <trkpt lat="44.33974" lon="5.7716">
        <ele>601</ele>
        <time>2019-06-07T10:00:21Z</time>
      </trkpt>
      <trkpt lat="44.33975" lon="5.77165">
        <ele>601</ele>
        <time>2019-06-07T10:00:22Z</time>
      </trkpt>
      <trkpt lat="44.33975" lon="5.77169">
        <ele>601</ele>
        <time>2019-06-07T10:00:23Z</time>
      </trkpt>
      <trkpt lat="44.33974" lon="5.77174">
        <ele>601</ele>
        <time>2019-06-07T10:00:24Z</time>
      </trkpt>
      <trkpt lat="44.33974" lon="5.77178">
        <ele>602</ele>
        <time>2019-06-07T10:00:25Z</time>
      </trkpt>
      <trkpt lat="44.33975" lon="5.77182">
        <ele>602</ele>
        <time>2019-06-07T10:00:26Z</time>
      </trkpt>
      <trkpt lat="44.33976" lon="5.77187">
        <ele>602</ele>
        <time>2019-06-07T10:00:27Z</time>
      </trkpt>
      <trkpt lat="44.33976" lon="5.77191">
        <ele>602</ele>
        <time>2019-06-07T10:00:28Z</time>
      </trkpt>
      <trkpt lat="44.33976" lon="5.77195">
        <ele>603</ele>
        <time>2019-06-07T10:00:29Z</time>
      </trkpt>
      <trkpt lat="44.33976" lon="5.77199">
        <ele>603</ele>
        <time>2019-06-07T10:00:30Z</time>
      </trkpt>
      <trkpt lat="44.33977" lon="5.77204">
        <ele>604</ele>
        <time>2019-06-07T10:00:31Z</time>
      </trkpt>
      <trkpt lat="44.33977" lon="5.77207">
        <ele>604</ele>
        <time>2019-06-07T10:00:32Z</time>
      </trkpt>
      <trkpt lat="44.33977" lon="5.77211">
        <ele>605</ele>
        <time>2019-06-07T10:00:33Z</time>
      </trkpt>
      <trkpt lat="44.33977" lon="5.77215">
        <ele>605</ele>
        <time>2019-06-07T10:00:34Z</time>
      </trkpt>
      <trkpt lat="44.33977" lon="5.77219">
        <ele>606</ele>
        <time>2019-06-07T10:00:35Z</time>
      </trkpt>
      <trkpt lat="44.33977" lon="5.77222">
        <ele>606</ele>
        <time>2019-06-07T10:00:36Z</time>
      </trkpt>
      <trkpt lat="44.33977" lon="5.77226">
        <ele>606</ele>
        <time>2019-06-07T10:00:37Z</time>
      </trkpt>
      <trkpt lat="44.33977" lon="5.7723">
        <ele>607</ele>
        <time>2019-06-07T10:00:38Z</time>
      </trkpt>
      <trkpt lat="44.33977" lon="5.77233">
        <ele>607</ele>
        <time>2019-06-07T10:00:39Z</time>
      </trkpt>
      <trkpt lat="44.33977" lon="5.77237">
        <ele>607</ele>
        <time>2019-06-07T10:00:40Z</time>
      </trkpt>
      <trkpt lat="44.33977" lon="5.77241">
        <ele>608</ele>
        <time>2019-06-07T10:00:41Z</time>
      </trkpt>
      <trkpt lat="44.33977" lon="5.77245">
        <ele>608</ele>
        <time>2019-06-07T10:00:42Z</time>
      </trkpt>
      <trkpt lat="44.33977" lon="5.77248">
        <ele>608</ele>
        <time>2019-06-07T10:00:43Z</time>
      </trkpt>
      <trkpt lat="44.33977" lon="5.77252">
        <ele>609</ele>
        <time>2019-06-07T10:00:44Z</time>
      </trkpt>
      <trkpt lat="44.33976" lon="5.77256">
        <ele>609</ele>
        <time>2019-06-07T10:00:45Z</time>
      </trkpt>
      <trkpt lat="44.33976" lon="5.7726">
        <ele>609</ele>
        <time>2019-06-07T10:00:46Z</time>
      </trkpt>
      <trkpt lat="44.33976" lon="5.77264">
        <ele>610</ele>
        <time>2019-06-07T10:00:47Z</time>
      </trkpt>
      <trkpt lat="44.33976" lon="5.77267">
        <ele>610</ele>
        <time>2019-06-07T10:00:48Z</time>
      </trkpt>
      <trkpt lat="44.33976" lon="5.77271">
        <ele>610</ele>
        <time>2019-06-07T10:00:49Z</time>
      </trkpt>
      <trkpt lat="44.33977" lon="5.77274">
        <ele>610</ele>
        <time>2019-06-07T10:00:50Z</time>
      </trkpt>
      <trkpt lat="44.33977" lon="5.77278">
        <ele>611</ele>
        <time>2019-06-07T10:00:51Z</time>
      </trkpt>
      <trkpt lat="44.33979" lon="5.77282">
        <ele>611</ele>
        <time>2019-06-07T10:00:52Z</time>
      </trkpt>
      <trkpt lat="44.3398" lon="5.77286">
        <ele>611</ele>
        <time>2019-06-07T10:00:53Z</time>
      </trkpt>
      <trkpt lat="44.33981" lon="5.77289">
        <ele>612</ele>
        <time>2019-06-07T10:00:54Z</time>
      </trkpt>
      <trkpt lat="44.33981" lon="5.77293">
        <ele>612</ele>
        <time>2019-06-07T10:00:55Z</time>
      </trkpt>
      <trkpt lat="44.33982" lon="5.77297">
        <ele>613</ele>
        <time>2019-06-07T10:00:56Z</time>
      </trkpt>
      <trkpt lat="44.33984" lon="5.77301">
        <ele>613</ele>
        <time>2019-06-07T10:00:57Z</time>
      </trkpt>
      <trkpt lat="44.33984" lon="5.77304">
        <ele>613</ele>
        <time>2019-06-07T10:00:58Z</time>
      </trkpt>
      <trkpt lat="44.33985" lon="5.77308">
        <ele>614</ele>
        <time>2019-06-07T10:00:59Z</time>
      </trkpt>
      <trkpt lat="44.33986" lon="5.77312">
        <ele>614</ele>
        <time>2019-06-07T10:01:00Z</time>
      </trkpt>
      <trkpt lat="44.33986" lon="5.77316">
        <ele>614</ele>
        <time>2019-06-07T10:01:01Z</time>
      </trkpt>
      <trkpt lat="44.33987" lon="5.77319">
        <ele>614</ele>
        <time>2019-06-07T10:01:02Z</time>
      </trkpt>
      <trkpt lat="44.33987" lon="5.77323">
        <ele>614</ele>
        <time>2019-06-07T10:01:03Z</time>
      </trkpt>
      <trkpt lat="44.33987" lon="5.77327">
        <ele>615</ele>
        <time>2019-06-07T10:01:04Z</time>
      </trkpt>
      <trkpt lat="44.33987" lon="5.77331">
        <ele>615</ele>
        <time>2019-06-07T10:01:05Z</time>
      </trkpt>
      <trkpt lat="44.33986" lon="5.77335">
        <ele>615</ele>
        <time>2019-06-07T10:01:06Z</time>
      </trkpt>
      <trkpt lat="44.33986" lon="5.77339">
        <ele>615</ele>
        <time>2019-06-07T10:01:07Z</time>
      </trkpt>
      <trkpt lat="44.33986" lon="5.77342">
        <ele>615</ele>
        <time>2019-06-07T10:01:08Z</time>
      </trkpt>
      <trkpt lat="44.33986" lon="5.77346">
        <ele>615</ele>
        <time>2019-06-07T10:01:09Z</time>
      </trkpt>
      <trkpt lat="44.33986" lon="5.7735">
        <ele>615</ele>
        <time>2019-06-07T10:01:10Z</time>
      </trkpt>
      <trkpt lat="44.33986" lon="5.77353">
        <ele>615</ele>
        <time>2019-06-07T10:01:11Z</time>
      </trkpt>
      <trkpt lat="44.33984" lon="5.77357">
        <ele>615</ele>
        <time>2019-06-07T10:01:12Z</time>
      </trkpt>
      <trkpt lat="44.33984" lon="5.7736">
        <ele>615</ele>
        <time>2019-06-07T10:01:13Z</time>
      </trkpt>
      <trkpt lat="44.33982" lon="5.77364">
        <ele>615</ele>
        <time>2019-06-07T10:01:14Z</time>
      </trkpt>
      <trkpt lat="44.33981" lon="5.77369">
        <ele>615</ele>
        <time>2019-06-07T10:01:15Z</time>
      </trkpt>
      <trkpt lat="44.3398" lon="5.77372">
        <ele>615</ele>
        <time>2019-06-07T10:01:16Z</time>
      </trkpt>
      <trkpt lat="44.3398" lon="5.77376">
        <ele>615</ele>
        <time>2019-06-07T10:01:17Z</time>
      </trkpt>
      <trkpt lat="44.33979" lon="5.77379">
        <ele>615</ele>
        <time>2019-06-07T10:01:18Z</time>
      </trkpt>
      <trkpt lat="44.33979" lon="5.77383">
        <ele>615</ele>
        <time>2019-06-07T10:01:19Z</time>
      </trkpt>
      <trkpt lat="44.33979" lon="5.77388">
        <ele>615</ele>
        <time>2019-06-07T10:01:20Z</time>
      </trkpt>
      <trkpt lat="44.33978" lon="5.77392">
        <ele>615</ele>
        <time>2019-06-07T10:01:21Z</time>
      </trkpt>
      <trkpt lat="44.33979" lon="5.77397">
        <ele>615</ele>
        <time>2019-06-07T10:01:22Z</time>
      </trkpt>
      <trkpt lat="44.33979" lon="5.77401">
        <ele>615</ele>
        <time>2019-06-07T10:01:23Z</time>
      </trkpt>
      <trkpt lat="44.33979" lon="5.77406">
        <ele>616</ele>
        <time>2019-06-07T10:01:24Z</time>
      </trkpt>
      <trkpt lat="44.33979" lon="5.7741">
        <ele>616</ele>
        <time>2019-06-07T10:01:25Z</time>
      </trkpt>
      <trkpt lat="44.3398" lon="5.77415">
        <ele>617</ele>
        <time>2019-06-07T10:01:26Z</time>
      </trkpt>
      <trkpt lat="44.33981" lon="5.77419">
        <ele>617</ele>
        <time>2019-06-07T10:01:27Z</time>
      </trkpt>
      <trkpt lat="44.33982" lon="5.77423">
        <ele>617</ele>
        <time>2019-06-07T10:01:28Z</time>
      </trkpt>
      <trkpt lat="44.33984" lon="5.77427">
        <ele>618</ele>
        <time>2019-06-07T10:01:29Z</time>
      </trkpt>
      <trkpt lat="44.33986" lon="5.77431">
        <ele>618</ele>
        <time>2019-06-07T10:01:30Z</time>
      </trkpt>
      <trkpt lat="44.33987" lon="5.77435">
        <ele>618</ele>
        <time>2019-06-07T10:01:31Z</time>
      </trkpt>
      <trkpt lat="44.33988" lon="5.77439">
        <ele>619</ele>
        <time>2019-06-07T10:01:32Z</time>
      </trkpt>
      <trkpt lat="44.33989" lon="5.77443">
        <ele>619</ele>
        <time>2019-06-07T10:01:33Z</time>
      </trkpt>
      <trkpt lat="44.33991" lon="5.77446">
        <ele>619</ele>
        <time>2019-06-07T10:01:34Z</time>
      </trkpt>
      <trkpt lat="44.33993" lon="5.7745">
        <ele>620</ele>
        <time>2019-06-07T10:01:35Z</time>
      </trkpt>
      <trkpt lat="44.33994" lon="5.77453">
        <ele>620</ele>
        <time>2019-06-07T10:01:36Z</time>
      </trkpt>
      <trkpt lat="44.33996" lon="5.77457">
        <ele>621</ele>
        <time>2019-06-07T10:01:37Z</time>
      </trkpt>
      <trkpt lat="44.33997" lon="5.7746">
        <ele>621</ele>
        <time>2019-06-07T10:01:38Z</time>
      </trkpt>
      <trkpt lat="44.33997" lon="5.77463">
        <ele>622</ele>
        <time>2019-06-07T10:01:39Z</time>
      </trkpt>
      <trkpt lat="44.33999" lon="5.77466">
        <ele>622</ele>
        <time>2019-06-07T10:01:40Z</time>
      </trkpt>
      <trkpt lat="44.34" lon="5.7747">
        <ele>623</ele>
        <time>2019-06-07T10:01:41Z</time>
      </trkpt>
      <trkpt lat="44.34001" lon="5.77474">
        <ele>623</ele>
        <time>2019-06-07T10:01:42Z</time>
      </trkpt>
      <trkpt lat="44.34003" lon="5.77477">
        <ele>623</ele>
        <time>2019-06-07T10:01:43Z</time>
      </trkpt>
      <trkpt lat="44.34004" lon="5.77481">
        <ele>624</ele>
        <time>2019-06-07T10:01:44Z</time>
      </trkpt>
      <trkpt lat="44.34006" lon="5.77484">
        <ele>624</ele>
        <time>2019-06-07T10:01:45Z</time>
      </trkpt>
      <trkpt lat="44.34007" lon="5.77488">
        <ele>624</ele>
        <time>2019-06-07T10:01:46Z</time>
      </trkpt>
      <trkpt lat="44.34008" lon="5.77492">
        <ele>624</ele>
        <time>2019-06-07T10:01:47Z</time>
      </trkpt>
      <trkpt lat="44.34009" lon="5.77495">
        <ele>624</ele>
        <time>2019-06-07T10:01:48Z</time>
      </trkpt>
      <trkpt lat="44.3401" lon="5.77499">
        <ele>624</ele>
        <time>2019-06-07T10:01:49Z</time>
      </trkpt>
      <trkpt lat="44.34011" lon="5.77503">
        <ele>624</ele>
        <time>2019-06-07T10:01:50Z</time>
      </trkpt>
      <trkpt lat="44.34011" lon="5.77508">
        <ele>624</ele>
        <time>2019-06-07T10:01:51Z</time>
      </trkpt>
      <trkpt lat="44.3401" lon="5.77514">
        <ele>624</ele>
        <time>2019-06-07T10:01:52Z</time>
      </trkpt>
      <trkpt lat="44.34009" lon="5.77519">
        <ele>624</ele>
        <time>2019-06-07T10:01:53Z</time>
      </trkpt>
      <trkpt lat="44.34008" lon="5.77525">
        <ele>624</ele>
        <time>2019-06-07T10:01:54Z</time>
      </trkpt>
      <trkpt lat="44.34006" lon="5.7753">
        <ele>624</ele>
        <time>2019-06-07T10:01:55Z</time>
      </trkpt>
      <trkpt lat="44.34004" lon="5.77535">
        <ele>624</ele>
        <time>2019-06-07T10:01:56Z</time>
      </trkpt>
      <trkpt lat="44.34002" lon="5.77541">
        <ele>624</ele>
        <time>2019-06-07T10:01:57Z</time>
      </trkpt>
      <trkpt lat="44.34" lon="5.77546">
        <ele>624</ele>
        <time>2019-06-07T10:01:58Z</time>
      </trkpt>
      <trkpt lat="44.33997" lon="5.77552">
        <ele>624</ele>
        <time>2019-06-07T10:01:59Z</time>
      </trkpt>
      <trkpt lat="44.33995" lon="5.77558">
        <ele>624</ele>
        <time>2019-06-07T10:02:00Z</time>
      </trkpt>
      <trkpt lat="44.33992" lon="5.77564">
        <ele>624</ele>
        <time>2019-06-07T10:02:01Z</time>
      </trkpt>
      <trkpt lat="44.3399" lon="5.7757">
        <ele>624</ele>
        <time>2019-06-07T10:02:02Z</time>
      </trkpt>
      <trkpt lat="44.33987" lon="5.77577">
        <ele>624</ele>
        <time>2019-06-07T10:02:03Z</time>
      </trkpt>
      <trkpt lat="44.33985" lon="5.77585">
        <ele>624</ele>
        <time>2019-06-07T10:02:04Z</time>
      </trkpt>
      <trkpt lat="44.33982" lon="5.77593">
        <ele>624</ele>
        <time>2019-06-07T10:02:05Z</time>
      </trkpt>
      <trkpt lat="44.33979" lon="5.776">
        <ele>624</ele>
        <time>2019-06-07T10:02:06Z</time>
      </trkpt>
      <trkpt lat="44.33975" lon="5.77606">
        <ele>624</ele>
        <time>2019-06-07T10:02:07Z</time>
      </trkpt>
      <trkpt lat="44.3397" lon="5.77612">
        <ele>624</ele>
        <time>2019-06-07T10:02:08Z</time>
      </trkpt>
      <trkpt lat="44.33965" lon="5.77619">
        <ele>624</ele>
        <time>2019-06-07T10:02:09Z</time>
      </trkpt>
      <trkpt lat="44.3396" lon="5.77625">
        <ele>624</ele>
        <time>2019-06-07T10:02:10Z</time>
      </trkpt>
      <trkpt lat="44.33953" lon="5.77631">
        <ele>624</ele>
        <time>2019-06-07T10:02:11Z</time>
      </trkpt>
      <trkpt lat="44.33946" lon="5.77637">
        <ele>624</ele>
        <time>2019-06-07T10:02:12Z</time>
      </trkpt>
      <trkpt lat="44.33939" lon="5.77643">
        <ele>624</ele>
        <time>2019-06-07T10:02:13Z</time>
      </trkpt>
      <trkpt lat="44.33932" lon="5.77648">
        <ele>624</ele>
        <time>2019-06-07T10:02:14Z</time>
      </trkpt>
      <trkpt lat="44.33924" lon="5.77652">
        <ele>624</ele>
        <time>2019-06-07T10:02:15Z</time>
      </trkpt>
      <trkpt lat="44.33918" lon="5.77655">
        <ele>624</ele>
        <time>2019-06-07T10:02:16Z</time>
      </trkpt>
      <trkpt lat="44.33911" lon="5.77657">
        <ele>624</ele>
        <time>2019-06-07T10:02:17Z</time>
      </trkpt>
      <trkpt lat="44.33903" lon="5.77658">
        <ele>623</ele>
        <time>2019-06-07T10:02:18Z</time>
      </trkpt>
      <trkpt lat="44.33895" lon="5.77659">
        <ele>622</ele>
        <time>2019-06-07T10:02:19Z</time>
      </trkpt>
      <trkpt lat="44.33887" lon="5.77659">
        <ele>622</ele>
        <time>2019-06-07T10:02:20Z</time>
      </trkpt>
      <trkpt lat="44.3388" lon="5.77658">
        <ele>622</ele>
        <time>2019-06-07T10:02:21Z</time>
      </trkpt>
      <trkpt lat="44.33873" lon="5.77655">
        <ele>622</ele>
        <time>2019-06-07T10:02:22Z</time>
      </trkpt>
      <trkpt lat="44.33867" lon="5.7765">
        <ele>622</ele>
        <time>2019-06-07T10:02:23Z</time>
      </trkpt>
      <trkpt lat="44.3386" lon="5.77646">
        <ele>622</ele>
        <time>2019-06-07T10:02:24Z</time>
      </trkpt>
      <trkpt lat="44.33854" lon="5.77641">
        <ele>622</ele>
        <time>2019-06-07T10:02:25Z</time>
      </trkpt>
      <trkpt lat="44.33848" lon="5.77636">
        <ele>622</ele>
        <time>2019-06-07T10:02:26Z</time>
      </trkpt>
      <trkpt lat="44.33842" lon="5.7763">
        <ele>622</ele>
        <time>2019-06-07T10:02:27Z</time>
      </trkpt>
      <trkpt lat="44.33837" lon="5.77623">
        <ele>621</ele>
        <time>2019-06-07T10:02:28Z</time>
      </trkpt>
      <trkpt lat="44.33832" lon="5.77616">
        <ele>621</ele>
        <time>2019-06-07T10:02:29Z</time>
      </trkpt>
      <trkpt lat="44.33826" lon="5.7761">
        <ele>621</ele>
        <time>2019-06-07T10:02:30Z</time>
      </trkpt>
      <trkpt lat="44.33821" lon="5.77603">
        <ele>621</ele>
        <time>2019-06-07T10:02:31Z</time>
      </trkpt>
      <trkpt lat="44.33816" lon="5.77597">
        <ele>620</ele>
        <time>2019-06-07T10:02:32Z</time>
      </trkpt>
      <trkpt lat="44.3381" lon="5.77592">
        <ele>620</ele>
        <time>2019-06-07T10:02:33Z</time>
      </trkpt>
      <trkpt lat="44.33803" lon="5.77587">
        <ele>619</ele>
        <time>2019-06-07T10:02:34Z</time>
      </trkpt>
      <trkpt lat="44.33796" lon="5.77582">
        <ele>619</ele>
        <time>2019-06-07T10:02:35Z</time>
      </trkpt>
      <trkpt lat="44.33789" lon="5.77578">
        <ele>619</ele>
        <time>2019-06-07T10:02:36Z</time>
      </trkpt>
      <trkpt lat="44.33783" lon="5.77574">
        <ele>618</ele>
        <time>2019-06-07T10:02:37Z</time>
      </trkpt>
      <trkpt lat="44.33775" lon="5.7757">
        <ele>618</ele>
        <time>2019-06-07T10:02:38Z</time>
      </trkpt>
      <trkpt lat="44.33768" lon="5.77565">
        <ele>618</ele>
        <time>2019-06-07T10:02:39Z</time>
      </trkpt>
      <trkpt lat="44.33761" lon="5.7756">
        <ele>617</ele>
        <time>2019-06-07T10:02:40Z</time>
      </trkpt>
      <trkpt lat="44.33753" lon="5.77555">
        <ele>617</ele>
        <time>2019-06-07T10:02:41Z</time>
      </trkpt>
      <trkpt lat="44.33745" lon="5.77549">
        <ele>616</ele>
        <time>2019-06-07T10:02:42Z</time>
      </trkpt>
      <trkpt lat="44.33736" lon="5.77544">
        <ele>615</ele>
        <time>2019-06-07T10:02:43Z</time>
      </trkpt>
      <trkpt lat="44.33728" lon="5.77539">
        <ele>614</ele>
        <time>2019-06-07T10:02:44Z</time>
      </trkpt>
      <trkpt lat="44.33718" lon="5.77535">
        <ele>614</ele>
        <time>2019-06-07T10:02:45Z</time>
      </trkpt>
      <trkpt lat="44.3371" lon="5.77531">
        <ele>613</ele>
        <time>2019-06-07T10:02:46Z</time>
      </trkpt>
      <trkpt lat="44.33701" lon="5.77528">
        <ele>612</ele>
        <time>2019-06-07T10:02:47Z</time>
      </trkpt>
      <trkpt lat="44.33693" lon="5.77526">
        <ele>611</ele>
        <time>2019-06-07T10:02:48Z</time>
      </trkpt>
      <trkpt lat="44.33685" lon="5.77523">
        <ele>610</ele>
        <time>2019-06-07T10:02:49Z</time>
      </trkpt>
      <trkpt lat="44.33676" lon="5.7752">
        <ele>610</ele>
        <time>2019-06-07T10:02:50Z</time>
      </trkpt>
      <trkpt lat="44.33668" lon="5.77516">
        <ele>609</ele>
        <time>2019-06-07T10:02:51Z</time>
      </trkpt>
      <trkpt lat="44.3366" lon="5.77513">
        <ele>608</ele>
        <time>2019-06-07T10:02:52Z</time>
      </trkpt>
      <trkpt lat="44.33651" lon="5.77509">
        <ele>607</ele>
        <time>2019-06-07T10:02:53Z</time>
      </trkpt>
      <trkpt lat="44.33644" lon="5.77506">
        <ele>606</ele>
        <time>2019-06-07T10:02:54Z</time>
      </trkpt>
      <trkpt lat="44.33637" lon="5.77504">
        <ele>605</ele>
        <time>2019-06-07T10:02:55Z</time>
      </trkpt>
      <trkpt lat="44.3363" lon="5.77502">
        <ele>604</ele>
        <time>2019-06-07T10:02:56Z</time>
      </trkpt>
      <trkpt lat="44.33622" lon="5.77501">
        <ele>604</ele>
        <time>2019-06-07T10:02:57Z</time>
      </trkpt>
      <trkpt lat="44.33615" lon="5.775">
        <ele>604</ele>
        <time>2019-06-07T10:02:58Z</time>
      </trkpt>
      <trkpt lat="44.33608" lon="5.77502">
        <ele>603</ele>
        <time>2019-06-07T10:02:59Z</time>
      </trkpt>
      <trkpt lat="44.33602" lon="5.77507">
        <ele>603</ele>
        <time>2019-06-07T10:03:00Z</time>
      </trkpt>
      <trkpt lat="44.33597" lon="5.77514">
        <ele>602</ele>
        <time>2019-06-07T10:03:01Z</time>
      </trkpt>
      <trkpt lat="44.33591" lon="5.77522">
        <ele>602</ele>
        <time>2019-06-07T10:03:02Z</time>
      </trkpt>
      <trkpt lat="44.33585" lon="5.77529">
        <ele>601</ele>
        <time>2019-06-07T10:03:03Z</time>
      </trkpt>
      <trkpt lat="44.33579" lon="5.77533">
        <ele>600</ele>
        <time>2019-06-07T10:03:04Z</time>
      </trkpt>
      <trkpt lat="44.33571" lon="5.77536">
        <ele>599</ele>
        <time>2019-06-07T10:03:05Z</time>
      </trkpt>
      <trkpt lat="44.33563" lon="5.77536">
        <ele>598</ele>
        <time>2019-06-07T10:03:06Z</time>
      </trkpt>
      <trkpt lat="44.33555" lon="5.77535">
        <ele>598</ele>
        <time>2019-06-07T10:03:07Z</time>
      </trkpt>
      <trkpt lat="44.33547" lon="5.77533">
        <ele>597</ele>
        <time>2019-06-07T10:03:08Z</time>
      </trkpt>
      <trkpt lat="44.33538" lon="5.77531">
        <ele>596</ele>
        <time>2019-06-07T10:03:09Z</time>
      </trkpt>
      <trkpt lat="44.33529" lon="5.77528">
        <ele>595</ele>
        <time>2019-06-07T10:03:10Z</time>
      </trkpt>
      <trkpt lat="44.3352" lon="5.77526">
        <ele>594</ele>
        <time>2019-06-07T10:03:11Z</time>
      </trkpt>
      <trkpt lat="44.3351" lon="5.77524">
        <ele>593</ele>
        <time>2019-06-07T10:03:12Z</time>
      </trkpt>
      <trkpt lat="44.335" lon="5.77522">
        <ele>592</ele>
        <time>2019-06-07T10:03:13Z</time>
      </trkpt>
      <trkpt lat="44.33491" lon="5.7752">
        <ele>592</ele>
        <time>2019-06-07T10:03:14Z</time>
      </trkpt>
      <trkpt lat="44.33481" lon="5.77518">
        <ele>592</ele>
        <time>2019-06-07T10:03:15Z</time>
      </trkpt>
      <trkpt lat="44.33472" lon="5.77516">
        <ele>592</ele>
        <time>2019-06-07T10:03:16Z</time>
      </trkpt>
      <trkpt lat="44.33463" lon="5.77514">
        <ele>592</ele>
        <time>2019-06-07T10:03:17Z</time>
      </trkpt>
      <trkpt lat="44.33455" lon="5.77512">
        <ele>592</ele>
        <time>2019-06-07T10:03:18Z</time>
      </trkpt>
      <trkpt lat="44.33447" lon="5.77511">
        <ele>592</ele>
        <time>2019-06-07T10:03:19Z</time>
      </trkpt>
      <trkpt lat="44.33439" lon="5.77509">
        <ele>592</ele>
        <time>2019-06-07T10:03:20Z</time>
      </trkpt>
      <trkpt lat="44.33431" lon="5.77507">
        <ele>592</ele>
        <time>2019-06-07T10:03:21Z</time>
      </trkpt>
      <trkpt lat="44.33424" lon="5.77506">
        <ele>592</ele>
        <time>2019-06-07T10:03:22Z</time>
      </trkpt>
      <trkpt lat="44.33417" lon="5.77504">
        <ele>592</ele>
        <time>2019-06-07T10:03:23Z</time>
      </trkpt>
      <trkpt lat="44.3341" lon="5.77502">
        <ele>592</ele>
        <time>2019-06-07T10:03:24Z</time>
      </trkpt>
      <trkpt lat="44.33403" lon="5.77501">
        <ele>592</ele>
        <time>2019-06-07T10:03:25Z</time>
      </trkpt>
      <trkpt lat="44.33396" lon="5.77501">
        <ele>592</ele>
        <time>2019-06-07T10:03:26Z</time>
      </trkpt>
      <trkpt lat="44.3339" lon="5.77501">
        <ele>592</ele>
        <time>2019-06-07T10:03:27Z</time>
      </trkpt>
      <trkpt lat="44.33383" lon="5.775">
        <ele>592</ele>
        <time>2019-06-07T10:03:28Z</time>
      </trkpt>
      <trkpt lat="44.33377" lon="5.775">
        <ele>592</ele>
        <time>2019-06-07T10:03:29Z</time>
      </trkpt>
      <trkpt lat="44.33371" lon="5.775">
        <ele>592</ele>
        <time>2019-06-07T10:03:30Z</time>
      </trkpt>
      <trkpt lat="44.33365" lon="5.77499">
        <ele>592</ele>
        <time>2019-06-07T10:03:31Z</time>
      </trkpt>
      <trkpt lat="44.33358" lon="5.77497">
        <ele>592</ele>
        <time>2019-06-07T10:03:32Z</time>
      </trkpt>
      <trkpt lat="44.33351" lon="5.77496">
        <ele>592</ele>
        <time>2019-06-07T10:03:33Z</time>
      </trkpt>
      <trkpt lat="44.33342" lon="5.77496">
        <ele>592</ele>
        <time>2019-06-07T10:03:34Z</time>
      </trkpt>
      <trkpt lat="44.33334" lon="5.77497">
        <ele>592</ele>
        <time>2019-06-07T10:03:35Z</time>
      </trkpt>
      <trkpt lat="44.33326" lon="5.77497">
        <ele>592</ele>
        <time>2019-06-07T10:03:36Z</time>
      </trkpt>
      <trkpt lat="44.33317" lon="5.77497">
        <ele>592</ele>
        <time>2019-06-07T10:03:37Z</time>
      </trkpt>
      <trkpt lat="44.33308" lon="5.77497">
        <ele>592</ele>
        <time>2019-06-07T10:03:38Z</time>
      </trkpt>
      <trkpt lat="44.333" lon="5.77498">
        <ele>592</ele>
        <time>2019-06-07T10:03:39Z</time>
      </trkpt>
      <trkpt lat="44.33291" lon="5.77498">
        <ele>592</ele>
        <time>2019-06-07T10:03:40Z</time>
      </trkpt>
      <trkpt lat="44.33282" lon="5.77498">
        <ele>592</ele>
        <time>2019-06-07T10:03:41Z</time>
      </trkpt>
      <trkpt lat="44.33274" lon="5.77498">
        <ele>592</ele>
        <time>2019-06-07T10:03:42Z</time>
      </trkpt>
      <trkpt lat="44.33266" lon="5.77499">
        <ele>592</ele>
        <time>2019-06-07T10:03:43Z</time>
      </trkpt>
      <trkpt lat="44.33258" lon="5.77501">
        <ele>592</ele>
        <time>2019-06-07T10:03:44Z</time>
      </trkpt>
      <trkpt lat="44.3325" lon="5.77502">
        <ele>592</ele>
        <time>2019-06-07T10:03:45Z</time>
      </trkpt>
      <trkpt lat="44.33243" lon="5.77504">
        <ele>592</ele>
        <time>2019-06-07T10:03:46Z</time>
      </trkpt>
      <trkpt lat="44.33236" lon="5.77506">
        <ele>592</ele>
        <time>2019-06-07T10:03:47Z</time>
      </trkpt>
      <trkpt lat="44.33229" lon="5.77508">
        <ele>592</ele>
        <time>2019-06-07T10:03:48Z</time>
      </trkpt>
      <trkpt lat="44.33223" lon="5.77512">
        <ele>592</ele>
        <time>2019-06-07T10:03:49Z</time>
      </trkpt>
      <trkpt lat="44.33218" lon="5.77516">
        <ele>592</ele>
        <time>2019-06-07T10:03:50Z</time>
      </trkpt>
      <trkpt lat="44.33212" lon="5.77521">
        <ele>592</ele>
        <time>2019-06-07T10:03:51Z</time>
      </trkpt>
      <trkpt lat="44.33207" lon="5.77526">
        <ele>592</ele>
        <time>2019-06-07T10:03:52Z</time>
      </trkpt>
      <trkpt lat="44.33202" lon="5.77531">
        <ele>592</ele>
        <time>2019-06-07T10:03:53Z</time>
      </trkpt>
      <trkpt lat="44.33197" lon="5.77536">
        <ele>592</ele>
        <time>2019-06-07T10:03:54Z</time>
      </trkpt>
      <trkpt lat="44.33193" lon="5.77541">
        <ele>592</ele>
        <time>2019-06-07T10:03:55Z</time>
      </trkpt>
      <trkpt lat="44.33189" lon="5.77546">
        <ele>592</ele>
        <time>2019-06-07T10:03:56Z</time>
      </trkpt>
      <trkpt lat="44.33184" lon="5.77551">
        <ele>592</ele>
        <time>2019-06-07T10:03:57Z</time>
      </trkpt>
      <trkpt lat="44.33179" lon="5.77555">
        <ele>592</ele>
        <time>2019-06-07T10:03:58Z</time>
      </trkpt>
      <trkpt lat="44.33174" lon="5.77559">
        <ele>592</ele>
        <time>2019-06-07T10:03:59Z</time>
      </trkpt>
      <trkpt lat="44.33169" lon="5.77563">
        <ele>592</ele>
        <time>2019-06-07T10:04:00Z</time>
      </trkpt>
      <trkpt lat="44.33165" lon="5.77566">
        <ele>592</ele>
        <time>2019-06-07T10:04:01Z</time>
      </trkpt>
      <trkpt lat="44.33158" lon="5.7757">
        <ele>592</ele>
        <time>2019-06-07T10:04:02Z</time>
      </trkpt>
      <trkpt lat="44.33153" lon="5.77573">
        <ele>592</ele>
        <time>2019-06-07T10:04:03Z</time>
      </trkpt>
      <trkpt lat="44.33148" lon="5.77577">
        <ele>592</ele>
        <time>2019-06-07T10:04:04Z</time>
      </trkpt>
      <trkpt lat="44.33143" lon="5.7758">
        <ele>592</ele>
        <time>2019-06-07T10:04:05Z</time>
      </trkpt>
      <trkpt lat="44.33137" lon="5.77583">
        <ele>592</ele>
        <time>2019-06-07T10:04:06Z</time>
      </trkpt>
      <trkpt lat="44.33131" lon="5.77587">
        <ele>592</ele>
        <time>2019-06-07T10:04:07Z</time>
      </trkpt>
      <trkpt lat="44.33125" lon="5.7759">
        <ele>592</ele>
        <time>2019-06-07T10:04:08Z</time>
      </trkpt>
      <trkpt lat="44.3312" lon="5.77592">
        <ele>592</ele>
        <time>2019-06-07T10:04:09Z</time>
      </trkpt>
      <trkpt lat="44.33113" lon="5.77594">
        <ele>592</ele>
        <time>2019-06-07T10:04:10Z</time>
      </trkpt>
      <trkpt lat="44.33107" lon="5.77595">
        <ele>592</ele>
        <time>2019-06-07T10:04:11Z</time>
      </trkpt>
      <trkpt lat="44.33101" lon="5.77596">
        <ele>592</ele>
        <time>2019-06-07T10:04:12Z</time>
      </trkpt>
      <trkpt lat="44.33094" lon="5.77596">
        <ele>592</ele>
        <time>2019-06-07T10:04:13Z</time>
      </trkpt>
      <trkpt lat="44.33088" lon="5.77596">
        <ele>592</ele>
        <time>2019-06-07T10:04:14Z</time>
      </trkpt>
      <trkpt lat="44.33082" lon="5.77596">
        <ele>592</ele>
        <time>2019-06-07T10:04:15Z</time>
      </trkpt>
      <trkpt lat="44.33076" lon="5.77596">
        <ele>592</ele>
        <time>2019-06-07T10:04:16Z</time>
      </trkpt>
      <trkpt lat="44.3307" lon="5.77595">
        <ele>592</ele>
        <time>2019-06-07T10:04:17Z</time>
      </trkpt>
      <trkpt lat="44.33064" lon="5.77595">
        <ele>592</ele>
        <time>2019-06-07T10:04:18Z</time>
      </trkpt>
      <trkpt lat="44.33058" lon="5.77594">
        <ele>592</ele>
        <time>2019-06-07T10:04:19Z</time>
      </trkpt>
      <trkpt lat="44.33052" lon="5.77594">
        <ele>592</ele>
        <time>2019-06-07T10:04:20Z</time>
      </trkpt>
      <trkpt lat="44.33047" lon="5.77595">
        <ele>592</ele>
        <time>2019-06-07T10:04:21Z</time>
      </trkpt>
      <trkpt lat="44.33041" lon="5.77595">
        <ele>592</ele>
        <time>2019-06-07T10:04:22Z</time>
      </trkpt>
      <trkpt lat="44.33036" lon="5.77595">
        <ele>592</ele>
        <time>2019-06-07T10:04:23Z</time>
      </trkpt>
      <trkpt lat="44.33031" lon="5.77595">
        <ele>592</ele>
        <time>2019-06-07T10:04:24Z</time>
      </trkpt>
      <trkpt lat="44.33026" lon="5.77596">
        <ele>592</ele>
        <time>2019-06-07T10:04:25Z</time>
      </trkpt>
      <trkpt lat="44.33021" lon="5.77596">
        <ele>592</ele>
        <time>2019-06-07T10:04:26Z</time>
      </trkpt>
      <trkpt lat="44.33017" lon="5.77596">
        <ele>592</ele>
        <time>2019-06-07T10:04:27Z</time>
      </trkpt>
      <trkpt lat="44.33012" lon="5.77597">
        <ele>592</ele>
        <time>2019-06-07T10:04:28Z</time>
      </trkpt>
      <trkpt lat="44.33008" lon="5.77597">
        <ele>592</ele>
        <time>2019-06-07T10:04:29Z</time>
      </trkpt>
      <trkpt lat="44.33004" lon="5.77598">
        <ele>592</ele>
        <time>2019-06-07T10:04:30Z</time>
      </trkpt>
      <trkpt lat="44.33" lon="5.77598">
        <ele>592</ele>
        <time>2019-06-07T10:04:31Z</time>
      </trkpt>
      <trkpt lat="44.32996" lon="5.77598">
        <ele>592</ele>
        <time>2019-06-07T10:04:32Z</time>
      </trkpt>
      <trkpt lat="44.32992" lon="5.77598">
        <ele>592</ele>
        <time>2019-06-07T10:04:33Z</time>
      </trkpt>
      <trkpt lat="44.32988" lon="5.77598">
        <ele>592</ele>
        <time>2019-06-07T10:04:34Z</time>
      </trkpt>
      <trkpt lat="44.32983" lon="5.77598">
        <ele>592</ele>
        <time>2019-06-07T10:04:35Z</time>
      </trkpt>
      <trkpt lat="44.32979" lon="5.77598">
        <ele>592</ele>
        <time>2019-06-07T10:04:36Z</time>
      </trkpt>
      <trkpt lat="44.32973" lon="5.77598">
        <ele>592</ele>
        <time>2019-06-07T10:04:37Z</time>
      </trkpt>
      <trkpt lat="44.32969" lon="5.77598">
        <ele>592</ele>
        <time>2019-06-07T10:04:38Z</time>
      </trkpt>
      <trkpt lat="44.32964" lon="5.77597">
        <ele>592</ele>
        <time>2019-06-07T10:04:39Z</time>
      </trkpt>
      <trkpt lat="44.32959" lon="5.77597">
        <ele>592</ele>
        <time>2019-06-07T10:04:40Z</time>
      </trkpt>
      <trkpt lat="44.32954" lon="5.77597">
        <ele>592</ele>
        <time>2019-06-07T10:04:41Z</time>
      </trkpt>
      <trkpt lat="44.3295" lon="5.77597">
        <ele>592</ele>
        <time>2019-06-07T10:04:42Z</time>
      </trkpt>
      <trkpt lat="44.32945" lon="5.77596">
        <ele>593</ele>
        <time>2019-06-07T10:04:43Z</time>
      </trkpt>
      <trkpt lat="44.3294" lon="5.77596">
        <ele>593</ele>
        <time>2019-06-07T10:04:44Z</time>
      </trkpt>
      <trkpt lat="44.32935" lon="5.77596">
        <ele>593</ele>
        <time>2019-06-07T10:04:45Z</time>
      </trkpt>
      <trkpt lat="44.3293" lon="5.77596">
        <ele>593</ele>
        <time>2019-06-07T10:04:46Z</time>
      </trkpt>
      <trkpt lat="44.32925" lon="5.77596">
        <ele>593</ele>
        <time>2019-06-07T10:04:47Z</time>
      </trkpt>
      <trkpt lat="44.3292" lon="5.77595">
        <ele>593</ele>
        <time>2019-06-07T10:04:48Z</time>
      </trkpt>
      <trkpt lat="44.32915" lon="5.77595">
        <ele>593</ele>
        <time>2019-06-07T10:04:49Z</time>
      </trkpt>
      <trkpt lat="44.32911" lon="5.77595">
        <ele>594</ele>
        <time>2019-06-07T10:04:50Z</time>
      </trkpt>
      <trkpt lat="44.32906" lon="5.77595">
        <ele>594</ele>
        <time>2019-06-07T10:04:51Z</time>
      </trkpt>
      <trkpt lat="44.32901" lon="5.77594">
        <ele>594</ele>
        <time>2019-06-07T10:04:52Z</time>
      </trkpt>
      <trkpt lat="44.32896" lon="5.77594">
        <ele>594</ele>
        <time>2019-06-07T10:04:53Z</time>
      </trkpt>
      <trkpt lat="44.32891" lon="5.77593">
        <ele>594</ele>
        <time>2019-06-07T10:04:54Z</time>
      </trkpt>
      <trkpt lat="44.32886" lon="5.77593">
        <ele>594</ele>
        <time>2019-06-07T10:04:55Z</time>
      </trkpt>
      <trkpt lat="44.32881" lon="5.77593">
        <ele>594</ele>
        <time>2019-06-07T10:04:56Z</time>
      </trkpt>
      <trkpt lat="44.32877" lon="5.77592">
        <ele>594</ele>
        <time>2019-06-07T10:04:57Z</time>
      </trkpt>
      <trkpt lat="44.32872" lon="5.77592">
        <ele>594</ele>
        <time>2019-06-07T10:04:58Z</time>
      </trkpt>
      <trkpt lat="44.32867" lon="5.77592">
        <ele>594</ele>
        <time>2019-06-07T10:04:59Z</time>
      </trkpt>
      <trkpt lat="44.32862" lon="5.77592">
        <ele>594</ele>
        <time>2019-06-07T10:05:00Z</time>
      </trkpt>
      <trkpt lat="44.32857" lon="5.77592">
        <ele>594</ele>
        <time>2019-06-07T10:05:01Z</time>
      </trkpt>
      <trkpt lat="44.32852" lon="5.77591">
        <ele>594</ele>
        <time>2019-06-07T10:05:02Z</time>
      </trkpt>
      <trkpt lat="44.32848" lon="5.77591">
        <ele>595</ele>
        <time>2019-06-07T10:05:03Z</time>
      </trkpt>
      <trkpt lat="44.32843" lon="5.7759">
        <ele>595</ele>
        <time>2019-06-07T10:05:04Z</time>
      </trkpt>
      <trkpt lat="44.32838" lon="5.7759">
        <ele>595</ele>
        <time>2019-06-07T10:05:05Z</time>
      </trkpt>
      <trkpt lat="44.32833" lon="5.77589">
        <ele>595</ele>
        <time>2019-06-07T10:05:06Z</time>
      </trkpt>
      <trkpt lat="44.32828" lon="5.77588">
        <ele>595</ele>
        <time>2019-06-07T10:05:07Z</time>
      </trkpt>
      <trkpt lat="44.32824" lon="5.77587">
        <ele>595</ele>
        <time>2019-06-07T10:05:08Z</time>
      </trkpt>
      <trkpt lat="44.32819" lon="5.77585">
        <ele>595</ele>
        <time>2019-06-07T10:05:09Z</time>
      </trkpt>
      <trkpt lat="44.32815" lon="5.77584">
        <ele>595</ele>
        <time>2019-06-07T10:05:10Z</time>
      </trkpt>
      <trkpt lat="44.3281" lon="5.77582">
        <ele>595</ele>
        <time>2019-06-07T10:05:11Z</time>
      </trkpt>
      <trkpt lat="44.32806" lon="5.77579">
        <ele>595</ele>
        <time>2019-06-07T10:05:12Z</time>
      </trkpt>
      <trkpt lat="44.32802" lon="5.77578">
        <ele>595</ele>
        <time>2019-06-07T10:05:13Z</time>
      </trkpt>
      <trkpt lat="44.32798" lon="5.77576">
        <ele>595</ele>
        <time>2019-06-07T10:05:14Z</time>
      </trkpt>
      <trkpt lat="44.32794" lon="5.77575">
        <ele>595</ele>
        <time>2019-06-07T10:05:15Z</time>
      </trkpt>
      <trkpt lat="44.3279" lon="5.77574">
        <ele>595</ele>
        <time>2019-06-07T10:05:16Z</time>
      </trkpt>
      <trkpt lat="44.32786" lon="5.77574">
        <ele>595</ele>
        <time>2019-06-07T10:05:17Z</time>
      </trkpt>
      <trkpt lat="44.32782" lon="5.77573">
        <ele>595</ele>
        <time>2019-06-07T10:05:18Z</time>
      </trkpt>
      <trkpt lat="44.32778" lon="5.77574">
        <ele>596</ele>
        <time>2019-06-07T10:05:19Z</time>
      </trkpt>
      <trkpt lat="44.32774" lon="5.77575">
        <ele>596</ele>
        <time>2019-06-07T10:05:20Z</time>
      </trkpt>
      <trkpt lat="44.3277" lon="5.77576">
        <ele>596</ele>
        <time>2019-06-07T10:05:21Z</time>
      </trkpt>
      <trkpt lat="44.32766" lon="5.77577">
        <ele>596</ele>
        <time>2019-06-07T10:05:22Z</time>
      </trkpt>
      <trkpt lat="44.32762" lon="5.77578">
        <ele>596</ele>
        <time>2019-06-07T10:05:23Z</time>
      </trkpt>
      <trkpt lat="44.32758" lon="5.77579">
        <ele>597</ele>
        <time>2019-06-07T10:05:24Z</time>
      </trkpt>
      <trkpt lat="44.32754" lon="5.77581">
        <ele>597</ele>
        <time>2019-06-07T10:05:25Z</time>
      </trkpt>
      <trkpt lat="44.3275" lon="5.77582">
        <ele>597</ele>
        <time>2019-06-07T10:05:26Z</time>
      </trkpt>
      <trkpt lat="44.32745" lon="5.77584">
        <ele>597</ele>
        <time>2019-06-07T10:05:27Z</time>
      </trkpt>
      <trkpt lat="44.3274" lon="5.77586">
        <ele>598</ele>
        <time>2019-06-07T10:05:28Z</time>
      </trkpt>
      <trkpt lat="44.32735" lon="5.77588">
        <ele>598</ele>
        <time>2019-06-07T10:05:29Z</time>
      </trkpt>
      <trkpt lat="44.3273" lon="5.7759">
        <ele>598</ele>
        <time>2019-06-07T10:05:30Z</time>
      </trkpt>
      <trkpt lat="44.32725" lon="5.77592">
        <ele>598</ele>
        <time>2019-06-07T10:05:31Z</time>
      </trkpt>
      <trkpt lat="44.3272" lon="5.77593">
        <ele>598</ele>
        <time>2019-06-07T10:05:32Z</time>
      </trkpt>
      <trkpt lat="44.32715" lon="5.77595">
        <ele>598</ele>
        <time>2019-06-07T10:05:33Z</time>
      </trkpt>
      <trkpt lat="44.3271" lon="5.77597">
        <ele>599</ele>
        <time>2019-06-07T10:05:34Z</time>
      </trkpt>
      <trkpt lat="44.32705" lon="5.776">
        <ele>599</ele>
        <time>2019-06-07T10:05:35Z</time>
      </trkpt>
      <trkpt lat="44.327" lon="5.77602">
        <ele>599</ele>
        <time>2019-06-07T10:05:36Z</time>
      </trkpt>
      <trkpt lat="44.32696" lon="5.77606">
        <ele>599</ele>
        <time>2019-06-07T10:05:37Z</time>
      </trkpt>
      <trkpt lat="44.3269" lon="5.7761">
        <ele>599</ele>
        <time>2019-06-07T10:05:38Z</time>
      </trkpt>
      <trkpt lat="44.32687" lon="5.77616">
        <ele>599</ele>
        <time>2019-06-07T10:05:39Z</time>
      </trkpt>
      <trkpt lat="44.32684" lon="5.77622">
        <ele>599</ele>
        <time>2019-06-07T10:05:40Z</time>
      </trkpt>
      <trkpt lat="44.32681" lon="5.77629">
        <ele>599</ele>
        <time>2019-06-07T10:05:41Z</time>
      </trkpt>
      <trkpt lat="44.32678" lon="5.77636">
        <ele>599</ele>
        <time>2019-06-07T10:05:42Z</time>
      </trkpt>
      <trkpt lat="44.32676" lon="5.77643">
        <ele>599</ele>
        <time>2019-06-07T10:05:43Z</time>
      </trkpt>
      <trkpt lat="44.32674" lon="5.7765">
        <ele>599</ele>
        <time>2019-06-07T10:05:44Z</time>
      </trkpt>
      <trkpt lat="44.32672" lon="5.77656">
        <ele>599</ele>
        <time>2019-06-07T10:05:45Z</time>
      </trkpt>
      <trkpt lat="44.3267" lon="5.77663">
        <ele>599</ele>
        <time>2019-06-07T10:05:46Z</time>
      </trkpt>
      <trkpt lat="44.32668" lon="5.7767">
        <ele>599</ele>
        <time>2019-06-07T10:05:47Z</time>
      </trkpt>
      <trkpt lat="44.32666" lon="5.77677">
        <ele>599</ele>
        <time>2019-06-07T10:05:48Z</time>
      </trkpt>
      <trkpt lat="44.32664" lon="5.77684">
        <ele>599</ele>
        <time>2019-06-07T10:05:49Z</time>
      </trkpt>
      <trkpt lat="44.32662" lon="5.77692">
        <ele>599</ele>
        <time>2019-06-07T10:05:50Z</time>
      </trkpt>
      <trkpt lat="44.3266" lon="5.77699">
        <ele>599</ele>
        <time>2019-06-07T10:05:51Z</time>
      </trkpt>
      <trkpt lat="44.32657" lon="5.77706">
        <ele>599</ele>
        <time>2019-06-07T10:05:52Z</time>
      </trkpt>
      <trkpt lat="44.32655" lon="5.77712">
        <ele>599</ele>
        <time>2019-06-07T10:05:53Z</time>
      </trkpt>
      <trkpt lat="44.32652" lon="5.77719">
        <ele>599</ele>
        <time>2019-06-07T10:05:54Z</time>
      </trkpt>
      <trkpt lat="44.32649" lon="5.77725">
        <ele>599</ele>
        <time>2019-06-07T10:05:55Z</time>
      </trkpt>
      <trkpt lat="44.32645" lon="5.77731">
        <ele>599</ele>
        <time>2019-06-07T10:05:56Z</time>
      </trkpt>
      <trkpt lat="44.32642" lon="5.77737">
        <ele>599</ele>
        <time>2019-06-07T10:05:57Z</time>
      </trkpt>
      <trkpt lat="44.32638" lon="5.77743">
        <ele>599</ele>
        <time>2019-06-07T10:05:58Z</time>
      </trkpt>
      <trkpt lat="44.32635" lon="5.77749">
        <ele>599</ele>
        <time>2019-06-07T10:05:59Z</time>
      </trkpt>
      <trkpt lat="44.32632" lon="5.77755">
        <ele>599</ele>
        <time>2019-06-07T10:06:00Z</time>
      </trkpt>
      <trkpt lat="44.32628" lon="5.77761">
        <ele>599</ele>
        <time>2019-06-07T10:06:01Z</time>
      </trkpt>
      <trkpt lat="44.32624" lon="5.77766">
        <ele>599</ele>
        <time>2019-06-07T10:06:02Z</time>
      </trkpt>
      <trkpt lat="44.32621" lon="5.77771">
        <ele>599</ele>
        <time>2019-06-07T10:06:03Z</time>
      </trkpt>
      <trkpt lat="44.32617" lon="5.77776">
        <ele>599</ele>
        <time>2019-06-07T10:06:04Z</time>
      </trkpt>
      <trkpt lat="44.32613" lon="5.7778">
        <ele>599</ele>
        <time>2019-06-07T10:06:05Z</time>
      </trkpt>
      <trkpt lat="44.32609" lon="5.77785">
        <ele>599</ele>
        <time>2019-06-07T10:06:06Z</time>
      </trkpt>
      <trkpt lat="44.32605" lon="5.77788">
        <ele>599</ele>
        <time>2019-06-07T10:06:07Z</time>
      </trkpt>
      <trkpt lat="44.326" lon="5.77793">
        <ele>599</ele>
        <time>2019-06-07T10:06:08Z</time>
      </trkpt>
      <trkpt lat="44.32596" lon="5.77796">
        <ele>599</ele>
        <time>2019-06-07T10:06:09Z</time>
      </trkpt>
      <trkpt lat="44.32591" lon="5.778">
        <ele>599</ele>
        <time>2019-06-07T10:06:10Z</time>
      </trkpt>
      <trkpt lat="44.32587" lon="5.77803">
        <ele>599</ele>
        <time>2019-06-07T10:06:11Z</time>
      </trkpt>
      <trkpt lat="44.32582" lon="5.77807">
        <ele>599</ele>
        <time>2019-06-07T10:06:12Z</time>
      </trkpt>
      <trkpt lat="44.32578" lon="5.7781">
        <ele>599</ele>
        <time>2019-06-07T10:06:13Z</time>
      </trkpt>
      <trkpt lat="44.32573" lon="5.77814">
        <ele>599</ele>
        <time>2019-06-07T10:06:14Z</time>
      </trkpt>
      <trkpt lat="44.32569" lon="5.77817">
        <ele>599</ele>
        <time>2019-06-07T10:06:15Z</time>
      </trkpt>
      <trkpt lat="44.32565" lon="5.77821">
        <ele>599</ele>
        <time>2019-06-07T10:06:16Z</time>
      </trkpt>
      <trkpt lat="44.3256" lon="5.77825">
        <ele>599</ele>
        <time>2019-06-07T10:06:17Z</time>
      </trkpt>
      <trkpt lat="44.32556" lon="5.77828">
        <ele>599</ele>
        <time>2019-06-07T10:06:18Z</time>
      </trkpt>
      <trkpt lat="44.32552" lon="5.77831">
        <ele>599</ele>
        <time>2019-06-07T10:06:19Z</time>
      </trkpt>
      <trkpt lat="44.32548" lon="5.77834">
        <ele>599</ele>
        <time>2019-06-07T10:06:20Z</time>
      </trkpt>
      <trkpt lat="44.32544" lon="5.77838">
        <ele>599</ele>
        <time>2019-06-07T10:06:21Z</time>
      </trkpt>
      <trkpt lat="44.32541" lon="5.77841">
        <ele>599</ele>
        <time>2019-06-07T10:06:22Z</time>
      </trkpt>
      <trkpt lat="44.32537" lon="5.77845">
        <ele>599</ele>
        <time>2019-06-07T10:06:23Z</time>
      </trkpt>
      <trkpt lat="44.32533" lon="5.77849">
        <ele>599</ele>
        <time>2019-06-07T10:06:24Z</time>
      </trkpt>
      <trkpt lat="44.32529" lon="5.77852">
        <ele>599</ele>
        <time>2019-06-07T10:06:25Z</time>
      </trkpt>
      <trkpt lat="44.32525" lon="5.77856">
        <ele>599</ele>
        <time>2019-06-07T10:06:26Z</time>
      </trkpt>
      <trkpt lat="44.32521" lon="5.7786">
        <ele>599</ele>
        <time>2019-06-07T10:06:27Z</time>
      </trkpt>
      <trkpt lat="44.32518" lon="5.77864">
        <ele>599</ele>
        <time>2019-06-07T10:06:28Z</time>
      </trkpt>
      <trkpt lat="44.32514" lon="5.77867">
        <ele>599</ele>
        <time>2019-06-07T10:06:29Z</time>
      </trkpt>
      <trkpt lat="44.3251" lon="5.77871">
        <ele>599</ele>
        <time>2019-06-07T10:06:30Z</time>
      </trkpt>
      <trkpt lat="44.32506" lon="5.77874">
        <ele>599</ele>
        <time>2019-06-07T10:06:31Z</time>
      </trkpt>
      <trkpt lat="44.32502" lon="5.77878">
        <ele>599</ele>
        <time>2019-06-07T10:06:32Z</time>
      </trkpt>
      <trkpt lat="44.32498" lon="5.77882">
        <ele>599</ele>
        <time>2019-06-07T10:06:33Z</time>
      </trkpt>
      <trkpt lat="44.32494" lon="5.77885">
        <ele>600</ele>
        <time>2019-06-07T10:06:34Z</time>
      </trkpt>
      <trkpt lat="44.3249" lon="5.77888">
        <ele>600</ele>
        <time>2019-06-07T10:06:35Z</time>
      </trkpt>
      <trkpt lat="44.32486" lon="5.77892">
        <ele>600</ele>
        <time>2019-06-07T10:06:36Z</time>
      </trkpt>
      <trkpt lat="44.32482" lon="5.77895">
        <ele>600</ele>
        <time>2019-06-07T10:06:37Z</time>
      </trkpt>
      <trkpt lat="44.32478" lon="5.77899">
        <ele>600</ele>
        <time>2019-06-07T10:06:38Z</time>
      </trkpt>
      <trkpt lat="44.32474" lon="5.77903">
        <ele>600</ele>
        <time>2019-06-07T10:06:39Z</time>
      </trkpt>
      <trkpt lat="44.3247" lon="5.77907">
        <ele>600</ele>
        <time>2019-06-07T10:06:40Z</time>
      </trkpt>
      <trkpt lat="44.32466" lon="5.7791">
        <ele>600</ele>
        <time>2019-06-07T10:06:41Z</time>
      </trkpt>
      <trkpt lat="44.32462" lon="5.77914">
        <ele>600</ele>
        <time>2019-06-07T10:06:42Z</time>
      </trkpt>
      <trkpt lat="44.32457" lon="5.77917">
        <ele>600</ele>
        <time>2019-06-07T10:06:43Z</time>
      </trkpt>
      <trkpt lat="44.32452" lon="5.7792">
        <ele>600</ele>
        <time>2019-06-07T10:06:44Z</time>
      </trkpt>
      <trkpt lat="44.32448" lon="5.77923">
        <ele>601</ele>
        <time>2019-06-07T10:06:45Z</time>
      </trkpt>
      <trkpt lat="44.32443" lon="5.77927">
        <ele>601</ele>
        <time>2019-06-07T10:06:46Z</time>
      </trkpt>
      <trkpt lat="44.32438" lon="5.7793">
        <ele>601</ele>
        <time>2019-06-07T10:06:47Z</time>
      </trkpt>
      <trkpt lat="44.32434" lon="5.77933">
        <ele>601</ele>
        <time>2019-06-07T10:06:48Z</time>
      </trkpt>
      <trkpt lat="44.32429" lon="5.77936">
        <ele>601</ele>
        <time>2019-06-07T10:06:49Z</time>
      </trkpt>
      <trkpt lat="44.32424" lon="5.77939">
        <ele>601</ele>
        <time>2019-06-07T10:06:50Z</time>
      </trkpt>
      <trkpt lat="44.3242" lon="5.77942">
        <ele>601</ele>
        <time>2019-06-07T10:06:51Z</time>
      </trkpt>
      <trkpt lat="44.32415" lon="5.77944">
        <ele>601</ele>
        <time>2019-06-07T10:06:52Z</time>
      </trkpt>
      <trkpt lat="44.3241" lon="5.77947">
        <ele>601</ele>
        <time>2019-06-07T10:06:53Z</time>
      </trkpt>
      <trkpt lat="44.32405" lon="5.7795">
        <ele>601</ele>
        <time>2019-06-07T10:06:54Z</time>
      </trkpt>
      <trkpt lat="44.32401" lon="5.77953">
        <ele>601</ele>
        <time>2019-06-07T10:06:55Z</time>
      </trkpt>
      <trkpt lat="44.32396" lon="5.77956">
        <ele>601</ele>
        <time>2019-06-07T10:06:56Z</time>
      </trkpt>
      <trkpt lat="44.32391" lon="5.77959">
        <ele>601</ele>
        <time>2019-06-07T10:06:57Z</time>
      </trkpt>
      <trkpt lat="44.32386" lon="5.77962">
        <ele>601</ele>
        <time>2019-06-07T10:06:58Z</time>
      </trkpt>
      <trkpt lat="44.32381" lon="5.77964">
        <ele>601</ele>
        <time>2019-06-07T10:06:59Z</time>
      </trkpt>
      <trkpt lat="44.32376" lon="5.77967">
        <ele>601</ele>
        <time>2019-06-07T10:07:00Z</time>
      </trkpt>
      <trkpt lat="44.32372" lon="5.7797">
        <ele>601</ele>
        <time>2019-06-07T10:07:01Z</time>
      </trkpt>
      <trkpt lat="44.32367" lon="5.77972">
        <ele>602</ele>
        <time>2019-06-07T10:07:02Z</time>
      </trkpt>
      <trkpt lat="44.32362" lon="5.77975">
        <ele>602</ele>
        <time>2019-06-07T10:07:03Z</time>
      </trkpt>
      <trkpt lat="44.32357" lon="5.77977">
        <ele>602</ele>
        <time>2019-06-07T10:07:04Z</time>
      </trkpt>
      <trkpt lat="44.32353" lon="5.7798">
        <ele>602</ele>
        <time>2019-06-07T10:07:05Z</time>
      </trkpt>
      <trkpt lat="44.32348" lon="5.77983">
        <ele>602</ele>
        <time>2019-06-07T10:07:06Z</time>
      </trkpt>
      <trkpt lat="44.32344" lon="5.77986">
        <ele>602</ele>
        <time>2019-06-07T10:07:07Z</time>
      </trkpt>
      <trkpt lat="44.32339" lon="5.77989">
        <ele>602</ele>
        <time>2019-06-07T10:07:08Z</time>
      </trkpt>
      <trkpt lat="44.32335" lon="5.77992">
        <ele>602</ele>
        <time>2019-06-07T10:07:09Z</time>
      </trkpt>
      <trkpt lat="44.3233" lon="5.77995">
        <ele>602</ele>
        <time>2019-06-07T10:07:10Z</time>
      </trkpt>
      <trkpt lat="44.32326" lon="5.77997">
        <ele>602</ele>
        <time>2019-06-07T10:07:11Z</time>
      </trkpt>
      <trkpt lat="44.32321" lon="5.78">
        <ele>602</ele>
        <time>2019-06-07T10:07:12Z</time>
      </trkpt>
      <trkpt lat="44.32317" lon="5.78002">
        <ele>602</ele>
        <time>2019-06-07T10:07:13Z</time>
      </trkpt>
      <trkpt lat="44.32313" lon="5.78005">
        <ele>602</ele>
        <time>2019-06-07T10:07:14Z</time>
      </trkpt>
      <trkpt lat="44.32309" lon="5.78008">
        <ele>602</ele>
        <time>2019-06-07T10:07:15Z</time>
      </trkpt>
      <trkpt lat="44.32305" lon="5.78011">
        <ele>602</ele>
        <time>2019-06-07T10:07:16Z</time>
      </trkpt>
      <trkpt lat="44.32301" lon="5.78013">
        <ele>602</ele>
        <time>2019-06-07T10:07:17Z</time>
      </trkpt>
      <trkpt lat="44.32297" lon="5.78015">
        <ele>602</ele>
        <time>2019-06-07T10:07:18Z</time>
      </trkpt>
      <trkpt lat="44.32293" lon="5.78018">
        <ele>603</ele>
        <time>2019-06-07T10:07:19Z</time>
      </trkpt>
      <trkpt lat="44.32289" lon="5.7802">
        <ele>603</ele>
        <time>2019-06-07T10:07:20Z</time>
      </trkpt>
      <trkpt lat="44.32285" lon="5.78023">
        <ele>603</ele>
        <time>2019-06-07T10:07:21Z</time>
      </trkpt>
      <trkpt lat="44.32281" lon="5.78025">
        <ele>603</ele>
        <time>2019-06-07T10:07:22Z</time>
      </trkpt>
      <trkpt lat="44.32277" lon="5.78028">
        <ele>603</ele>
        <time>2019-06-07T10:07:23Z</time>
      </trkpt>
      <trkpt lat="44.32273" lon="5.7803">
        <ele>603</ele>
        <time>2019-06-07T10:07:24Z</time>
      </trkpt>
      <trkpt lat="44.32269" lon="5.78033">
        <ele>603</ele>
        <time>2019-06-07T10:07:25Z</time>
      </trkpt>
      <trkpt lat="44.32265" lon="5.78035">
        <ele>603</ele>
        <time>2019-06-07T10:07:26Z</time>
      </trkpt>
      <trkpt lat="44.32261" lon="5.78038">
        <ele>603</ele>
        <time>2019-06-07T10:07:27Z</time>
      </trkpt>
      <trkpt lat="44.32257" lon="5.7804">
        <ele>603</ele>
        <time>2019-06-07T10:07:28Z</time>
      </trkpt>
      <trkpt lat="44.32253" lon="5.78042">
        <ele>603</ele>
        <time>2019-06-07T10:07:29Z</time>
      </trkpt>
      <trkpt lat="44.32249" lon="5.78045">
        <ele>603</ele>
        <time>2019-06-07T10:07:30Z</time>
      </trkpt>
      <trkpt lat="44.32246" lon="5.78047">
        <ele>603</ele>
        <time>2019-06-07T10:07:31Z</time>
      </trkpt>
      <trkpt lat="44.32241" lon="5.78049">
        <ele>603</ele>
        <time>2019-06-07T10:07:32Z</time>
      </trkpt>
      <trkpt lat="44.32237" lon="5.78052">
        <ele>603</ele>
        <time>2019-06-07T10:07:33Z</time>
      </trkpt>
      <trkpt lat="44.32233" lon="5.78055">
        <ele>603</ele>
        <time>2019-06-07T10:07:34Z</time>
      </trkpt>
      <trkpt lat="44.32229" lon="5.78057">
        <ele>603</ele>
        <time>2019-06-07T10:07:35Z</time>
      </trkpt>
      <trkpt lat="44.32225" lon="5.78059">
        <ele>603</ele>
        <time>2019-06-07T10:07:36Z</time>
      </trkpt>
      <trkpt lat="44.32221" lon="5.78062">
        <ele>603</ele>
        <time>2019-06-07T10:07:37Z</time>
      </trkpt>
      <trkpt lat="44.32217" lon="5.78065">
        <ele>603</ele>
        <time>2019-06-07T10:07:38Z</time>
      </trkpt>
      <trkpt lat="44.32212" lon="5.78067">
        <ele>603</ele>
        <time>2019-06-07T10:07:39Z</time>
      </trkpt>
      <trkpt lat="44.32208" lon="5.7807">
        <ele>603</ele>
        <time>2019-06-07T10:07:40Z</time>
      </trkpt>
      <trkpt lat="44.32204" lon="5.78073">
        <ele>603</ele>
        <time>2019-06-07T10:07:41Z</time>
      </trkpt>
      <trkpt lat="44.32199" lon="5.78076">
        <ele>603</ele>
        <time>2019-06-07T10:07:42Z</time>
      </trkpt>
      <trkpt lat="44.32195" lon="5.78078">
        <ele>603</ele>
        <time>2019-06-07T10:07:43Z</time>
      </trkpt>
      <trkpt lat="44.32191" lon="5.78081">
        <ele>603</ele>
        <time>2019-06-07T10:07:44Z</time>
      </trkpt>
      <trkpt lat="44.32187" lon="5.78084">
        <ele>603</ele>
        <time>2019-06-07T10:07:45Z</time>
      </trkpt>
      <trkpt lat="44.32182" lon="5.78087">
        <ele>603</ele>
        <time>2019-06-07T10:07:46Z</time>
      </trkpt>
      <trkpt lat="44.32178" lon="5.78091">
        <ele>603</ele>
        <time>2019-06-07T10:07:47Z</time>
      </trkpt>
      <trkpt lat="44.32174" lon="5.78095">
        <ele>603</ele>
        <time>2019-06-07T10:07:48Z</time>
      </trkpt>
      <trkpt lat="44.32169" lon="5.78099">
        <ele>603</ele>
        <time>2019-06-07T10:07:49Z</time>
      </trkpt>
      <trkpt lat="44.32164" lon="5.78103">
        <ele>603</ele>
        <time>2019-06-07T10:07:50Z</time>
      </trkpt>
      <trkpt lat="44.3216" lon="5.78107">
        <ele>603</ele>
        <time>2019-06-07T10:07:51Z</time>
      </trkpt>
      <trkpt lat="44.32156" lon="5.78112">
        <ele>603</ele>
        <time>2019-06-07T10:07:52Z</time>
      </trkpt>
      <trkpt lat="44.32151" lon="5.78116">
        <ele>603</ele>
        <time>2019-06-07T10:07:53Z</time>
      </trkpt>
      <trkpt lat="44.32146" lon="5.78121">
        <ele>603</ele>
        <time>2019-06-07T10:07:54Z</time>
      </trkpt>
      <trkpt lat="44.32141" lon="5.78125">
        <ele>603</ele>
        <time>2019-06-07T10:07:55Z</time>
      </trkpt>
      <trkpt lat="44.32137" lon="5.78129">
        <ele>603</ele>
        <time>2019-06-07T10:07:56Z</time>
      </trkpt>
      <trkpt lat="44.32132" lon="5.78133">
        <ele>603</ele>
        <time>2019-06-07T10:07:57Z</time>
      </trkpt>
      <trkpt lat="44.32128" lon="5.78138">
        <ele>603</ele>
        <time>2019-06-07T10:07:58Z</time>
      </trkpt>
      <trkpt lat="44.32123" lon="5.78143">
        <ele>603</ele>
        <time>2019-06-07T10:07:59Z</time>
      </trkpt>
      <trkpt lat="44.32118" lon="5.78148">
        <ele>603</ele>
        <time>2019-06-07T10:08:00Z</time>
      </trkpt>
      <trkpt lat="44.32114" lon="5.78153">
        <ele>603</ele>
        <time>2019-06-07T10:08:01Z</time>
      </trkpt>
      <trkpt lat="44.32109" lon="5.78157">
        <ele>603</ele>
        <time>2019-06-07T10:08:02Z</time>
      </trkpt>
      <trkpt lat="44.32104" lon="5.78162">
        <ele>603</ele>
        <time>2019-06-07T10:08:03Z</time>
      </trkpt>
      <trkpt lat="44.32099" lon="5.78167">
        <ele>603</ele>
        <time>2019-06-07T10:08:04Z</time>
      </trkpt>
      <trkpt lat="44.32094" lon="5.78172">
        <ele>603</ele>
        <time>2019-06-07T10:08:05Z</time>
      </trkpt>
      <trkpt lat="44.32089" lon="5.78177">
        <ele>603</ele>
        <time>2019-06-07T10:08:06Z</time>
      </trkpt>
      <trkpt lat="44.32084" lon="5.78182">
        <ele>603</ele>
        <time>2019-06-07T10:08:07Z</time>
      </trkpt>
      <trkpt lat="44.32079" lon="5.78187">
        <ele>603</ele>
        <time>2019-06-07T10:08:08Z</time>
      </trkpt>
      <trkpt lat="44.32074" lon="5.78193">
        <ele>603</ele>
        <time>2019-06-07T10:08:09Z</time>
      </trkpt>
      <trkpt lat="44.32069" lon="5.78198">
        <ele>603</ele>
        <time>2019-06-07T10:08:10Z</time>
      </trkpt>
      <trkpt lat="44.32064" lon="5.78204">
        <ele>603</ele>
        <time>2019-06-07T10:08:11Z</time>
      </trkpt>
      <trkpt lat="44.32059" lon="5.78209">
        <ele>603</ele>
        <time>2019-06-07T10:08:12Z</time>
      </trkpt>
      <trkpt lat="44.32054" lon="5.78214">
        <ele>603</ele>
        <time>2019-06-07T10:08:13Z</time>
      </trkpt>
      <trkpt lat="44.32049" lon="5.78219">
        <ele>603</ele>
        <time>2019-06-07T10:08:14Z</time>
      </trkpt>
      <trkpt lat="44.32044" lon="5.78225">
        <ele>603</ele>
        <time>2019-06-07T10:08:15Z</time>
      </trkpt>
      <trkpt lat="44.32039" lon="5.7823">
        <ele>603</ele>
        <time>2019-06-07T10:08:16Z</time>
      </trkpt>
      <trkpt lat="44.32034" lon="5.78236">
        <ele>603</ele>
        <time>2019-06-07T10:08:17Z</time>
      </trkpt>
      <trkpt lat="44.32028" lon="5.78241">
        <ele>603</ele>
        <time>2019-06-07T10:08:18Z</time>
      </trkpt>
      <trkpt lat="44.32023" lon="5.78245">
        <ele>603</ele>
        <time>2019-06-07T10:08:19Z</time>
      </trkpt>
      <trkpt lat="44.32018" lon="5.7825">
        <ele>603</ele>
        <time>2019-06-07T10:08:20Z</time>
      </trkpt>
      <trkpt lat="44.32013" lon="5.78255">
        <ele>603</ele>
        <time>2019-06-07T10:08:21Z</time>
      </trkpt>
      <trkpt lat="44.32008" lon="5.78259">
        <ele>603</ele>
        <time>2019-06-07T10:08:22Z</time>
      </trkpt>
      <trkpt lat="44.32003" lon="5.78264">
        <ele>603</ele>
        <time>2019-06-07T10:08:23Z</time>
      </trkpt>
      <trkpt lat="44.31998" lon="5.78268">
        <ele>603</ele>
        <time>2019-06-07T10:08:24Z</time>
      </trkpt>
      <trkpt lat="44.31993" lon="5.78272">
        <ele>603</ele>
        <time>2019-06-07T10:08:25Z</time>
      </trkpt>
      <trkpt lat="44.31988" lon="5.78277">
        <ele>603</ele>
        <time>2019-06-07T10:08:26Z</time>
      </trkpt>
      <trkpt lat="44.31983" lon="5.78281">
        <ele>603</ele>
        <time>2019-06-07T10:08:27Z</time>
      </trkpt>
      <trkpt lat="44.31979" lon="5.78285">
        <ele>603</ele>
        <time>2019-06-07T10:08:28Z</time>
      </trkpt>
      <trkpt lat="44.31974" lon="5.78288">
        <ele>603</ele>
        <time>2019-06-07T10:08:29Z</time>
      </trkpt>
      <trkpt lat="44.31969" lon="5.78292">
        <ele>603</ele>
        <time>2019-06-07T10:08:30Z</time>
      </trkpt>
      <trkpt lat="44.31965" lon="5.78296">
        <ele>603</ele>
        <time>2019-06-07T10:08:31Z</time>
      </trkpt>
      <trkpt lat="44.31961" lon="5.78299">
        <ele>603</ele>
        <time>2019-06-07T10:08:32Z</time>
      </trkpt>
      <trkpt lat="44.31956" lon="5.78302">
        <ele>603</ele>
        <time>2019-06-07T10:08:33Z</time>
      </trkpt>
      <trkpt lat="44.31951" lon="5.78305">
        <ele>603</ele>
        <time>2019-06-07T10:08:34Z</time>
      </trkpt>
      <trkpt lat="44.31946" lon="5.78307">
        <ele>603</ele>
        <time>2019-06-07T10:08:35Z</time>
      </trkpt>
      <trkpt lat="44.3194" lon="5.78309">
        <ele>603</ele>
        <time>2019-06-07T10:08:36Z</time>
      </trkpt>
      <trkpt lat="44.31934" lon="5.7831">
        <ele>603</ele>
        <time>2019-06-07T10:08:37Z</time>
      </trkpt>
      <trkpt lat="44.31927" lon="5.7831">
        <ele>603</ele>
        <time>2019-06-07T10:08:38Z</time>
      </trkpt>
      <trkpt lat="44.3192" lon="5.78309">
        <ele>603</ele>
        <time>2019-06-07T10:08:39Z</time>
      </trkpt>
      <trkpt lat="44.31913" lon="5.78307">
        <ele>603</ele>
        <time>2019-06-07T10:08:40Z</time>
      </trkpt>
      <trkpt lat="44.31907" lon="5.78304">
        <ele>603</ele>
        <time>2019-06-07T10:08:41Z</time>
      </trkpt>
      <trkpt lat="44.31899" lon="5.783">
        <ele>603</ele>
        <time>2019-06-07T10:08:42Z</time>
      </trkpt>
      <trkpt lat="44.31892" lon="5.78295">
        <ele>603</ele>
        <time>2019-06-07T10:08:43Z</time>
      </trkpt>
      <trkpt lat="44.31884" lon="5.78291">
        <ele>602</ele>
        <time>2019-06-07T10:08:44Z</time>
      </trkpt>
      <trkpt lat="44.31876" lon="5.78287">
        <ele>601</ele>
        <time>2019-06-07T10:08:45Z</time>
      </trkpt>
      <trkpt lat="44.31868" lon="5.78284">
        <ele>601</ele>
        <time>2019-06-07T10:08:46Z</time>
      </trkpt>
      <trkpt lat="44.31861" lon="5.78279">
        <ele>600</ele>
        <time>2019-06-07T10:08:47Z</time>
      </trkpt>
      <trkpt lat="44.31855" lon="5.78273">
        <ele>599</ele>
        <time>2019-06-07T10:08:48Z</time>
      </trkpt>
      <trkpt lat="44.31847" lon="5.78267">
        <ele>598</ele>
        <time>2019-06-07T10:08:49Z</time>
      </trkpt>
      <trkpt lat="44.31841" lon="5.78262">
        <ele>597</ele>
        <time>2019-06-07T10:08:50Z</time>
      </trkpt>
      <trkpt lat="44.31834" lon="5.78263">
        <ele>596</ele>
        <time>2019-06-07T10:08:51Z</time>
      </trkpt>
      <trkpt lat="44.31826" lon="5.78271">
        <ele>595</ele>
        <time>2019-06-07T10:08:52Z</time>
      </trkpt>
      <trkpt lat="44.31821" lon="5.7828">
        <ele>594</ele>
        <time>2019-06-07T10:08:53Z</time>
      </trkpt>
      <trkpt lat="44.31818" lon="5.78291">
        <ele>594</ele>
        <time>2019-06-07T10:08:54Z</time>
      </trkpt>
      <trkpt lat="44.31817" lon="5.78301">
        <ele>594</ele>
        <time>2019-06-07T10:08:55Z</time>
      </trkpt>
      <trkpt lat="44.31818" lon="5.78309">
        <ele>594</ele>
        <time>2019-06-07T10:08:56Z</time>
      </trkpt>
      <trkpt lat="44.31818" lon="5.78317">
        <ele>594</ele>
        <time>2019-06-07T10:08:57Z</time>
      </trkpt>
      <trkpt lat="44.31819" lon="5.78324">
        <ele>594</ele>
        <time>2019-06-07T10:08:58Z</time>
      </trkpt>
      <trkpt lat="44.3182" lon="5.7833">
        <ele>594</ele>
        <time>2019-06-07T10:08:59Z</time>
      </trkpt>
      <trkpt lat="44.3182" lon="5.78336">
        <ele>594</ele>
        <time>2019-06-07T10:09:00Z</time>
      </trkpt>
      <trkpt lat="44.3182" lon="5.7834">
        <ele>594</ele>
        <time>2019-06-07T10:09:01Z</time>
      </trkpt>
      <trkpt lat="44.3182" lon="5.78345">
        <ele>594</ele>
        <time>2019-06-07T10:09:02Z</time>
      </trkpt>
      <trkpt lat="44.31818" lon="5.78351">
        <ele>594</ele>
        <time>2019-06-07T10:09:03Z</time>
      </trkpt>
      <trkpt lat="44.31817" lon="5.78356">
        <ele>594</ele>
        <time>2019-06-07T10:09:04Z</time>
      </trkpt>
      <trkpt lat="44.31815" lon="5.7836">
        <ele>594</ele>
        <time>2019-06-07T10:09:05Z</time>
      </trkpt>
      <trkpt lat="44.31813" lon="5.78364">
        <ele>594</ele>
        <time>2019-06-07T10:09:06Z</time>
      </trkpt>
      <trkpt lat="44.3181" lon="5.78368">
        <ele>594</ele>
        <time>2019-06-07T10:09:07Z</time>
      </trkpt>
      <trkpt lat="44.31807" lon="5.78373">
        <ele>594</ele>
        <time>2019-06-07T10:09:08Z</time>
      </trkpt>
      <trkpt lat="44.31805" lon="5.78377">
        <ele>594</ele>
        <time>2019-06-07T10:09:09Z</time>
      </trkpt>
      <trkpt lat="44.31802" lon="5.78382">
        <ele>594</ele>
        <time>2019-06-07T10:09:10Z</time>
      </trkpt>
      <trkpt lat="44.318" lon="5.78387">
        <ele>594</ele>
        <time>2019-06-07T10:09:11Z</time>
      </trkpt>
      <trkpt lat="44.31797" lon="5.78391">
        <ele>594</ele>
        <time>2019-06-07T10:09:12Z</time>
      </trkpt>
      <trkpt lat="44.31794" lon="5.78396">
        <ele>594</ele>
        <time>2019-06-07T10:09:13Z</time>
      </trkpt>
      <trkpt lat="44.31792" lon="5.78401">
        <ele>594</ele>
        <time>2019-06-07T10:09:14Z</time>
      </trkpt>
      <trkpt lat="44.31788" lon="5.78406">
        <ele>594</ele>
        <time>2019-06-07T10:09:15Z</time>
      </trkpt>
      <trkpt lat="44.31785" lon="5.78411">
        <ele>594</ele>
        <time>2019-06-07T10:09:16Z</time>
      </trkpt>
      <trkpt lat="44.31783" lon="5.78415">
        <ele>594</ele>
        <time>2019-06-07T10:09:17Z</time>
      </trkpt>
      <trkpt lat="44.31781" lon="5.7842">
        <ele>594</ele>
        <time>2019-06-07T10:09:18Z</time>
      </trkpt>
      <trkpt lat="44.31778" lon="5.78425">
        <ele>594</ele>
        <time>2019-06-07T10:09:19Z</time>
      </trkpt>
      <trkpt lat="44.31775" lon="5.7843">
        <ele>594</ele>
        <time>2019-06-07T10:09:20Z</time>
      </trkpt>
      <trkpt lat="44.31772" lon="5.78436">
        <ele>594</ele>
        <time>2019-06-07T10:09:21Z</time>
      </trkpt>
      <trkpt lat="44.3177" lon="5.78442">
        <ele>594</ele>
        <time>2019-06-07T10:09:22Z</time>
      </trkpt>
      <trkpt lat="44.31767" lon="5.78448">
        <ele>594</ele>
        <time>2019-06-07T10:09:23Z</time>
      </trkpt>
      <trkpt lat="44.31763" lon="5.78454">
        <ele>594</ele>
        <time>2019-06-07T10:09:24Z</time>
      </trkpt>
      <trkpt lat="44.3176" lon="5.78461">
        <ele>594</ele>
        <time>2019-06-07T10:09:25Z</time>
      </trkpt>
      <trkpt lat="44.31756" lon="5.78468">
        <ele>594</ele>
        <time>2019-06-07T10:09:26Z</time>
      </trkpt>
      <trkpt lat="44.31752" lon="5.78474">
        <ele>594</ele>
        <time>2019-06-07T10:09:27Z</time>
      </trkpt>
      <trkpt lat="44.31748" lon="5.7848">
        <ele>594</ele>
        <time>2019-06-07T10:09:28Z</time>
      </trkpt>
      <trkpt lat="44.31744" lon="5.78486">
        <ele>594</ele>
        <time>2019-06-07T10:09:29Z</time>
      </trkpt>
      <trkpt lat="44.31739" lon="5.78492">
        <ele>594</ele>
        <time>2019-06-07T10:09:30Z</time>
      </trkpt>
      <trkpt lat="44.31734" lon="5.78497">
        <ele>594</ele>
        <time>2019-06-07T10:09:31Z</time>
      </trkpt>
      <trkpt lat="44.31728" lon="5.78501">
        <ele>594</ele>
        <time>2019-06-07T10:09:32Z</time>
      </trkpt>
      <trkpt lat="44.31723" lon="5.78504">
        <ele>594</ele>
        <time>2019-06-07T10:09:33Z</time>
      </trkpt>
      <trkpt lat="44.31717" lon="5.78507">
        <ele>594</ele>
        <time>2019-06-07T10:09:34Z</time>
      </trkpt>
      <trkpt lat="44.31711" lon="5.7851">
        <ele>594</ele>
        <time>2019-06-07T10:09:35Z</time>
      </trkpt>
      <trkpt lat="44.31705" lon="5.78512">
        <ele>594</ele>
        <time>2019-06-07T10:09:36Z</time>
      </trkpt>
      <trkpt lat="44.317" lon="5.78514">
        <ele>594</ele>
        <time>2019-06-07T10:09:37Z</time>
      </trkpt>
      <trkpt lat="44.31695" lon="5.78516">
        <ele>594</ele>
        <time>2019-06-07T10:09:38Z</time>
      </trkpt>
      <trkpt lat="44.31691" lon="5.78519">
        <ele>594</ele>
        <time>2019-06-07T10:09:39Z</time>
      </trkpt>
      <trkpt lat="44.31686" lon="5.78521">
        <ele>594</ele>
        <time>2019-06-07T10:09:40Z</time>
      </trkpt>
      <trkpt lat="44.31681" lon="5.78523">
        <ele>594</ele>
        <time>2019-06-07T10:09:41Z</time>
      </trkpt>
      <trkpt lat="44.31676" lon="5.78525">
        <ele>594</ele>
        <time>2019-06-07T10:09:42Z</time>
      </trkpt>
      <trkpt lat="44.31672" lon="5.78527">
        <ele>595</ele>
        <time>2019-06-07T10:09:43Z</time>
      </trkpt>
      <trkpt lat="44.31667" lon="5.78529">
        <ele>595</ele>
        <time>2019-06-07T10:09:44Z</time>
      </trkpt>
      <trkpt lat="44.31663" lon="5.78531">
        <ele>595</ele>
        <time>2019-06-07T10:09:45Z</time>
      </trkpt>
      <trkpt lat="44.31659" lon="5.78534">
        <ele>596</ele>
        <time>2019-06-07T10:09:46Z</time>
      </trkpt>
      <trkpt lat="44.31655" lon="5.78535">
        <ele>596</ele>
        <time>2019-06-07T10:09:47Z</time>
      </trkpt>
      <trkpt lat="44.31651" lon="5.78537">
        <ele>596</ele>
        <time>2019-06-07T10:09:48Z</time>
      </trkpt>
      <trkpt lat="44.31647" lon="5.78539">
        <ele>596</ele>
        <time>2019-06-07T10:09:49Z</time>
      </trkpt>
      <trkpt lat="44.31644" lon="5.7854">
        <ele>597</ele>
        <time>2019-06-07T10:09:50Z</time>
      </trkpt>
      <trkpt lat="44.3164" lon="5.78542">
        <ele>597</ele>
        <time>2019-06-07T10:09:51Z</time>
      </trkpt>
      <trkpt lat="44.31636" lon="5.78543">
        <ele>597</ele>
        <time>2019-06-07T10:09:52Z</time>
      </trkpt>
      <trkpt lat="44.31632" lon="5.78544">
        <ele>598</ele>
        <time>2019-06-07T10:09:53Z</time>
      </trkpt>
      <trkpt lat="44.31629" lon="5.78546">
        <ele>598</ele>
        <time>2019-06-07T10:09:54Z</time>
      </trkpt>
      <trkpt lat="44.31626" lon="5.78547">
        <ele>598</ele>
        <time>2019-06-07T10:09:55Z</time>
      </trkpt>
      <trkpt lat="44.31623" lon="5.78549">
        <ele>598</ele>
        <time>2019-06-07T10:09:56Z</time>
      </trkpt>
      <trkpt lat="44.3162" lon="5.78551">
        <ele>599</ele>
        <time>2019-06-07T10:09:57Z</time>
      </trkpt>
      <trkpt lat="44.31617" lon="5.78554">
        <ele>599</ele>
        <time>2019-06-07T10:09:58Z</time>
      </trkpt>
      <trkpt lat="44.31614" lon="5.78557">
        <ele>599</ele>
        <time>2019-06-07T10:09:59Z</time>
      </trkpt>
      <trkpt lat="44.31612" lon="5.7856">
        <ele>600</ele>
        <time>2019-06-07T10:10:00Z</time>
      </trkpt>
      <trkpt lat="44.3161" lon="5.78563">
        <ele>600</ele>
        <time>2019-06-07T10:10:01Z</time>
      </trkpt>
      <trkpt lat="44.31608" lon="5.78568">
        <ele>600</ele>
        <time>2019-06-07T10:10:02Z</time>
      </trkpt>
      <trkpt lat="44.31606" lon="5.78572">
        <ele>600</ele>
        <time>2019-06-07T10:10:03Z</time>
      </trkpt>
      <trkpt lat="44.31605" lon="5.78576">
        <ele>601</ele>
        <time>2019-06-07T10:10:04Z</time>
      </trkpt>
      <trkpt lat="44.31603" lon="5.7858">
        <ele>601</ele>
        <time>2019-06-07T10:10:05Z</time>
      </trkpt>
      <trkpt lat="44.31602" lon="5.78584">
        <ele>601</ele>
        <time>2019-06-07T10:10:06Z</time>
      </trkpt>
      <trkpt lat="44.31602" lon="5.78589">
        <ele>601</ele>
        <time>2019-06-07T10:10:07Z</time>
      </trkpt>
      <trkpt lat="44.31602" lon="5.78594">
        <ele>601</ele>
        <time>2019-06-07T10:10:08Z</time>
      </trkpt>
      <trkpt lat="44.31602" lon="5.78599">
        <ele>601</ele>
        <time>2019-06-07T10:10:09Z</time>
      </trkpt>
      <trkpt lat="44.31602" lon="5.78605">
        <ele>601</ele>
        <time>2019-06-07T10:10:10Z</time>
      </trkpt>
      <trkpt lat="44.31601" lon="5.78611">
        <ele>601</ele>
        <time>2019-06-07T10:10:11Z</time>
      </trkpt>
      <trkpt lat="44.316" lon="5.78618">
        <ele>601</ele>
        <time>2019-06-07T10:10:12Z</time>
      </trkpt>
      <trkpt lat="44.316" lon="5.78626">
        <ele>601</ele>
        <time>2019-06-07T10:10:13Z</time>
      </trkpt>
      <trkpt lat="44.31601" lon="5.78634">
        <ele>601</ele>
        <time>2019-06-07T10:10:14Z</time>
      </trkpt>
      <trkpt lat="44.31601" lon="5.78642">
        <ele>601</ele>
        <time>2019-06-07T10:10:15Z</time>
      </trkpt>
      <trkpt lat="44.31601" lon="5.78651">
        <ele>601</ele>
        <time>2019-06-07T10:10:16Z</time>
      </trkpt>
      <trkpt lat="44.31601" lon="5.7866">
        <ele>601</ele>
        <time>2019-06-07T10:10:17Z</time>
      </trkpt>
      <trkpt lat="44.31601" lon="5.7867">
        <ele>601</ele>
        <time>2019-06-07T10:10:18Z</time>
      </trkpt>
      <trkpt lat="44.31601" lon="5.7868">
        <ele>601</ele>
        <time>2019-06-07T10:10:19Z</time>
      </trkpt>
      <trkpt lat="44.31601" lon="5.7869">
        <ele>601</ele>
        <time>2019-06-07T10:10:20Z</time>
      </trkpt>
      <trkpt lat="44.31601" lon="5.787">
        <ele>601</ele>
        <time>2019-06-07T10:10:21Z</time>
      </trkpt>
      <trkpt lat="44.31601" lon="5.78711">
        <ele>601</ele>
        <time>2019-06-07T10:10:22Z</time>
      </trkpt>
      <trkpt lat="44.316" lon="5.78722">
        <ele>601</ele>
        <time>2019-06-07T10:10:23Z</time>
      </trkpt>
      <trkpt lat="44.31599" lon="5.78733">
        <ele>601</ele>
        <time>2019-06-07T10:10:24Z</time>
      </trkpt>
      <trkpt lat="44.31598" lon="5.78744">
        <ele>601</ele>
        <time>2019-06-07T10:10:25Z</time>
      </trkpt>
      <trkpt lat="44.31598" lon="5.78756">
        <ele>600</ele>
        <time>2019-06-07T10:10:26Z</time>
      </trkpt>
      <trkpt lat="44.31596" lon="5.78768">
        <ele>599</ele>
        <time>2019-06-07T10:10:27Z</time>
      </trkpt>
      <trkpt lat="44.31596" lon="5.78781">
        <ele>599</ele>
        <time>2019-06-07T10:10:28Z</time>
      </trkpt>
      <trkpt lat="44.31595" lon="5.78793">
        <ele>598</ele>
        <time>2019-06-07T10:10:29Z</time>
      </trkpt>
      <trkpt lat="44.31593" lon="5.78807">
        <ele>597</ele>
        <time>2019-06-07T10:10:30Z</time>
      </trkpt>
      <trkpt lat="44.31592" lon="5.7882">
        <ele>596</ele>
        <time>2019-06-07T10:10:31Z</time>
      </trkpt>
      <trkpt lat="44.3159" lon="5.78833">
        <ele>595</ele>
        <time>2019-06-07T10:10:32Z</time>
      </trkpt>
      <trkpt lat="44.31588" lon="5.78847">
        <ele>594</ele>
        <time>2019-06-07T10:10:33Z</time>
      </trkpt>
      <trkpt lat="44.31586" lon="5.78861">
        <ele>593</ele>
        <time>2019-06-07T10:10:34Z</time>
      </trkpt>
      <trkpt lat="44.31584" lon="5.78875">
        <ele>592</ele>
        <time>2019-06-07T10:10:35Z</time>
      </trkpt>
      <trkpt lat="44.31582" lon="5.78889">
        <ele>592</ele>
        <time>2019-06-07T10:10:36Z</time>
      </trkpt>
      <trkpt lat="44.3158" lon="5.78902">
        <ele>591</ele>
        <time>2019-06-07T10:10:37Z</time>
      </trkpt>
      <trkpt lat="44.31579" lon="5.78916">
        <ele>590</ele>
        <time>2019-06-07T10:10:38Z</time>
      </trkpt>
      <trkpt lat="44.31577" lon="5.78929">
        <ele>590</ele>
        <time>2019-06-07T10:10:39Z</time>
      </trkpt>
      <trkpt lat="44.31576" lon="5.78941">
        <ele>590</ele>
        <time>2019-06-07T10:10:40Z</time>
      </trkpt>
      <trkpt lat="44.31574" lon="5.78953">
        <ele>589</ele>
        <time>2019-06-07T10:10:41Z</time>
      </trkpt>
      <trkpt lat="44.31573" lon="5.78965">
        <ele>589</ele>
        <time>2019-06-07T10:10:42Z</time>
      </trkpt>
      <trkpt lat="44.31571" lon="5.78975">
        <ele>589</ele>
        <time>2019-06-07T10:10:43Z</time>
      </trkpt>
      <trkpt lat="44.31569" lon="5.78986">
        <ele>588</ele>
        <time>2019-06-07T10:10:44Z</time>
      </trkpt>
      <trkpt lat="44.31567" lon="5.78997">
        <ele>588</ele>
        <time>2019-06-07T10:10:45Z</time>
      </trkpt>
      <trkpt lat="44.31564" lon="5.79006">
        <ele>588</ele>
        <time>2019-06-07T10:10:46Z</time>
      </trkpt>
      <trkpt lat="44.31561" lon="5.79015">
        <ele>588</ele>
        <time>2019-06-07T10:10:47Z</time>
      </trkpt>
      <trkpt lat="44.31558" lon="5.79025">
        <ele>588</ele>
        <time>2019-06-07T10:10:48Z</time>
      </trkpt>
      <trkpt lat="44.31554" lon="5.79033">
        <ele>588</ele>
        <time>2019-06-07T10:10:49Z</time>
      </trkpt>
      <trkpt lat="44.31551" lon="5.79042">
        <ele>587</ele>
        <time>2019-06-07T10:10:50Z</time>
      </trkpt>
      <trkpt lat="44.31547" lon="5.79051">
        <ele>587</ele>
        <time>2019-06-07T10:10:51Z</time>
      </trkpt>
      <trkpt lat="44.31544" lon="5.7906">
        <ele>587</ele>
        <time>2019-06-07T10:10:52Z</time>
      </trkpt>
      <trkpt lat="44.3154" lon="5.79068">
        <ele>587</ele>
        <time>2019-06-07T10:10:53Z</time>
      </trkpt>
      <trkpt lat="44.31537" lon="5.79077">
        <ele>587</ele>
        <time>2019-06-07T10:10:54Z</time>
      </trkpt>
      <trkpt lat="44.31534" lon="5.79085">
        <ele>587</ele>
        <time>2019-06-07T10:10:55Z</time>
      </trkpt>
      <trkpt lat="44.31531" lon="5.79095">
        <ele>587</ele>
        <time>2019-06-07T10:10:56Z</time>
      </trkpt>
      <trkpt lat="44.31528" lon="5.79104">
        <ele>587</ele>
        <time>2019-06-07T10:10:57Z</time>
      </trkpt>
      <trkpt lat="44.31525" lon="5.79113">
        <ele>587</ele>
        <time>2019-06-07T10:10:58Z</time>
      </trkpt>
      <trkpt lat="44.31523" lon="5.79122">
        <ele>587</ele>
        <time>2019-06-07T10:10:59Z</time>
      </trkpt>
      <trkpt lat="44.31521" lon="5.7913">
        <ele>587</ele>
        <time>2019-06-07T10:11:00Z</time>
      </trkpt>
      <trkpt lat="44.31518" lon="5.79139">
        <ele>587</ele>
        <time>2019-06-07T10:11:01Z</time>
      </trkpt>
      <trkpt lat="44.31516" lon="5.79148">
        <ele>587</ele>
        <time>2019-06-07T10:11:02Z</time>
      </trkpt>
      <trkpt lat="44.31513" lon="5.79156">
        <ele>587</ele>
        <time>2019-06-07T10:11:03Z</time>
      </trkpt>
      <trkpt lat="44.31511" lon="5.79163">
        <ele>587</ele>
        <time>2019-06-07T10:11:04Z</time>
      </trkpt>
      <trkpt lat="44.31509" lon="5.7917">
        <ele>587</ele>
        <time>2019-06-07T10:11:05Z</time>
      </trkpt>
      <trkpt lat="44.31507" lon="5.79176">
        <ele>587</ele>
        <time>2019-06-07T10:11:06Z</time>
      </trkpt>
      <trkpt lat="44.31504" lon="5.79182">
        <ele>587</ele>
        <time>2019-06-07T10:11:07Z</time>
      </trkpt>
      <trkpt lat="44.31501" lon="5.79187">
        <ele>587</ele>
        <time>2019-06-07T10:11:08Z</time>
      </trkpt>
      <trkpt lat="44.31498" lon="5.79192">
        <ele>587</ele>
        <time>2019-06-07T10:11:09Z</time>
      </trkpt>
      <trkpt lat="44.31496" lon="5.79197">
        <ele>587</ele>
        <time>2019-06-07T10:11:10Z</time>
      </trkpt>
      <trkpt lat="44.31493" lon="5.79201">
        <ele>587</ele>
        <time>2019-06-07T10:11:11Z</time>
      </trkpt>
      <trkpt lat="44.31491" lon="5.79205">
        <ele>587</ele>
        <time>2019-06-07T10:11:12Z</time>
      </trkpt>
      <trkpt lat="44.31488" lon="5.7921">
        <ele>587</ele>
        <time>2019-06-07T10:11:13Z</time>
      </trkpt>
      <trkpt lat="44.31485" lon="5.79214">
        <ele>587</ele>
        <time>2019-06-07T10:11:14Z</time>
      </trkpt>
      <trkpt lat="44.31483" lon="5.79219">
        <ele>587</ele>
        <time>2019-06-07T10:11:15Z</time>
      </trkpt>
      <trkpt lat="44.31481" lon="5.79224">
        <ele>587</ele>
        <time>2019-06-07T10:11:16Z</time>
      </trkpt>
      <trkpt lat="44.31479" lon="5.79229">
        <ele>587</ele>
        <time>2019-06-07T10:11:17Z</time>
      </trkpt>
      <trkpt lat="44.31477" lon="5.79234">
        <ele>587</ele>
        <time>2019-06-07T10:11:18Z</time>
      </trkpt>
      <trkpt lat="44.31475" lon="5.7924">
        <ele>587</ele>
        <time>2019-06-07T10:11:19Z</time>
      </trkpt>
      <trkpt lat="44.31473" lon="5.79245">
        <ele>587</ele>
        <time>2019-06-07T10:11:20Z</time>
      </trkpt>
      <trkpt lat="44.31471" lon="5.79251">
        <ele>587</ele>
        <time>2019-06-07T10:11:21Z</time>
      </trkpt>
      <trkpt lat="44.31469" lon="5.79256">
        <ele>587</ele>
        <time>2019-06-07T10:11:22Z</time>
      </trkpt>
      <trkpt lat="44.31468" lon="5.79261">
        <ele>587</ele>
        <time>2019-06-07T10:11:23Z</time>
      </trkpt>
      <trkpt lat="44.31468" lon="5.79266">
        <ele>587</ele>
        <time>2019-06-07T10:11:24Z</time>
      </trkpt>
      <trkpt lat="44.31467" lon="5.79271">
        <ele>587</ele>
        <time>2019-06-07T10:11:25Z</time>
      </trkpt>
      <trkpt lat="44.31467" lon="5.79276">
        <ele>587</ele>
        <time>2019-06-07T10:11:26Z</time>
      </trkpt>
      <trkpt lat="44.31466" lon="5.79281">
        <ele>587</ele>
        <time>2019-06-07T10:11:27Z</time>
      </trkpt>
      <trkpt lat="44.31465" lon="5.79286">
        <ele>587</ele>
        <time>2019-06-07T10:11:28Z</time>
      </trkpt>
      <trkpt lat="44.31464" lon="5.79291">
        <ele>587</ele>
        <time>2019-06-07T10:11:29Z</time>
      </trkpt>
      <trkpt lat="44.31463" lon="5.79296">
        <ele>587</ele>
        <time>2019-06-07T10:11:30Z</time>
      </trkpt>
      <trkpt lat="44.31462" lon="5.79301">
        <ele>587</ele>
        <time>2019-06-07T10:11:31Z</time>
      </trkpt>
      <trkpt lat="44.31461" lon="5.79306">
        <ele>587</ele>
        <time>2019-06-07T10:11:32Z</time>
      </trkpt>
      <trkpt lat="44.31461" lon="5.79311">
        <ele>587</ele>
        <time>2019-06-07T10:11:33Z</time>
      </trkpt>
      <trkpt lat="44.3146" lon="5.79316">
        <ele>587</ele>
        <time>2019-06-07T10:11:34Z</time>
      </trkpt>
      <trkpt lat="44.3146" lon="5.79321">
        <ele>587</ele>
        <time>2019-06-07T10:11:35Z</time>
      </trkpt>
      <trkpt lat="44.31459" lon="5.79326">
        <ele>588</ele>
        <time>2019-06-07T10:11:36Z</time>
      </trkpt>
      <trkpt lat="44.31459" lon="5.7933">
        <ele>588</ele>
        <time>2019-06-07T10:11:37Z</time>
      </trkpt>
      <trkpt lat="44.31459" lon="5.79335">
        <ele>588</ele>
        <time>2019-06-07T10:11:38Z</time>
      </trkpt>
      <trkpt lat="44.31459" lon="5.79339">
        <ele>588</ele>
        <time>2019-06-07T10:11:39Z</time>
      </trkpt>
      <trkpt lat="44.31459" lon="5.79344">
        <ele>588</ele>
        <time>2019-06-07T10:11:40Z</time>
      </trkpt>
      <trkpt lat="44.31459" lon="5.79348">
        <ele>588</ele>
        <time>2019-06-07T10:11:41Z</time>
      </trkpt>
      <trkpt lat="44.31459" lon="5.79353">
        <ele>588</ele>
        <time>2019-06-07T10:11:42Z</time>
      </trkpt>
      <trkpt lat="44.31459" lon="5.79357">
        <ele>589</ele>
        <time>2019-06-07T10:11:43Z</time>
      </trkpt>
      <trkpt lat="44.31459" lon="5.79361">
        <ele>589</ele>
        <time>2019-06-07T10:11:44Z</time>
      </trkpt>
      <trkpt lat="44.31459" lon="5.79365">
        <ele>589</ele>
        <time>2019-06-07T10:11:45Z</time>
      </trkpt>
      <trkpt lat="44.3146" lon="5.79369">
        <ele>589</ele>
        <time>2019-06-07T10:11:46Z</time>
      </trkpt>
      <trkpt lat="44.3146" lon="5.79374">
        <ele>589</ele>
        <time>2019-06-07T10:11:47Z</time>
      </trkpt>
      <trkpt lat="44.3146" lon="5.79378">
        <ele>589</ele>
        <time>2019-06-07T10:11:48Z</time>
      </trkpt>
      <trkpt lat="44.31461" lon="5.79382">
        <ele>589</ele>
        <time>2019-06-07T10:11:49Z</time>
      </trkpt>
      <trkpt lat="44.31461" lon="5.79387">
        <ele>589</ele>
        <time>2019-06-07T10:11:50Z</time>
      </trkpt>
      <trkpt lat="44.31461" lon="5.79391">
        <ele>590</ele>
        <time>2019-06-07T10:11:51Z</time>
      </trkpt>
      <trkpt lat="44.31462" lon="5.79395">
        <ele>590</ele>
        <time>2019-06-07T10:11:52Z</time>
      </trkpt>
      <trkpt lat="44.31462" lon="5.79399">
        <ele>590</ele>
        <time>2019-06-07T10:11:53Z</time>
      </trkpt>
      <trkpt lat="44.31463" lon="5.79403">
        <ele>591</ele>
        <time>2019-06-07T10:11:54Z</time>
      </trkpt>
      <trkpt lat="44.31463" lon="5.79407">
        <ele>591</ele>
        <time>2019-06-07T10:11:55Z</time>
      </trkpt>
      <trkpt lat="44.31463" lon="5.79411">
        <ele>591</ele>
        <time>2019-06-07T10:11:56Z</time>
      </trkpt>
      <trkpt lat="44.31464" lon="5.79415">
        <ele>591</ele>
        <time>2019-06-07T10:11:57Z</time>
      </trkpt>
      <trkpt lat="44.31464" lon="5.79418">
        <ele>592</ele>
        <time>2019-06-07T10:11:58Z</time>
      </trkpt>
      <trkpt lat="44.31464" lon="5.79422">
        <ele>592</ele>
        <time>2019-06-07T10:11:59Z</time>
      </trkpt>
      <trkpt lat="44.31464" lon="5.79426">
        <ele>592</ele>
        <time>2019-06-07T10:12:00Z</time>
      </trkpt>
      <trkpt lat="44.31464" lon="5.79429">
        <ele>592</ele>
        <time>2019-06-07T10:12:01Z</time>
      </trkpt>
      <trkpt lat="44.31463" lon="5.79433">
        <ele>592</ele>
        <time>2019-06-07T10:12:02Z</time>
      </trkpt>
      <trkpt lat="44.31463" lon="5.79437">
        <ele>593</ele>
        <time>2019-06-07T10:12:03Z</time>
      </trkpt>
      <trkpt lat="44.31463" lon="5.7944">
        <ele>593</ele>
        <time>2019-06-07T10:12:04Z</time>
      </trkpt>
      <trkpt lat="44.31462" lon="5.79444">
        <ele>593</ele>
        <time>2019-06-07T10:12:05Z</time>
      </trkpt>
      <trkpt lat="44.31462" lon="5.79448">
        <ele>593</ele>
        <time>2019-06-07T10:12:06Z</time>
      </trkpt>
      <trkpt lat="44.31462" lon="5.79452">
        <ele>593</ele>
        <time>2019-06-07T10:12:07Z</time>
      </trkpt>
      <trkpt lat="44.31462" lon="5.79456">
        <ele>593</ele>
        <time>2019-06-07T10:12:08Z</time>
      </trkpt>
      <trkpt lat="44.31461" lon="5.79459">
        <ele>594</ele>
        <time>2019-06-07T10:12:09Z</time>
      </trkpt>
      <trkpt lat="44.31461" lon="5.79463">
        <ele>594</ele>
        <time>2019-06-07T10:12:10Z</time>
      </trkpt>
      <trkpt lat="44.3146" lon="5.79467">
        <ele>594</ele>
        <time>2019-06-07T10:12:11Z</time>
      </trkpt>
      <trkpt lat="44.31459" lon="5.79471">
        <ele>594</ele>
        <time>2019-06-07T10:12:12Z</time>
      </trkpt>
      <trkpt lat="44.31458" lon="5.79475">
        <ele>594</ele>
        <time>2019-06-07T10:12:13Z</time>
      </trkpt>
      <trkpt lat="44.31457" lon="5.79479">
        <ele>595</ele>
        <time>2019-06-07T10:12:14Z</time>
      </trkpt>
      <trkpt lat="44.31456" lon="5.79482">
        <ele>595</ele>
        <time>2019-06-07T10:12:15Z</time>
      </trkpt>
      <trkpt lat="44.31456" lon="5.79486">
        <ele>595</ele>
        <time>2019-06-07T10:12:16Z</time>
      </trkpt>
      <trkpt lat="44.31455" lon="5.79489">
        <ele>595</ele>
        <time>2019-06-07T10:12:17Z</time>
      </trkpt>
      <trkpt lat="44.31454" lon="5.79493">
        <ele>595</ele>
        <time>2019-06-07T10:12:18Z</time>
      </trkpt>
      <trkpt lat="44.31453" lon="5.79496">
        <ele>595</ele>
        <time>2019-06-07T10:12:19Z</time>
      </trkpt>
      <trkpt lat="44.31452" lon="5.79499">
        <ele>596</ele>
        <time>2019-06-07T10:12:20Z</time>
      </trkpt>
      <trkpt lat="44.31452" lon="5.79502">
        <ele>596</ele>
        <time>2019-06-07T10:12:21Z</time>
      </trkpt>
      <trkpt lat="44.31451" lon="5.79505">
        <ele>597</ele>
        <time>2019-06-07T10:12:22Z</time>
      </trkpt>
      <trkpt lat="44.3145" lon="5.79508">
        <ele>597</ele>
        <time>2019-06-07T10:12:23Z</time>
      </trkpt>
      <trkpt lat="44.31449" lon="5.79511">
        <ele>597</ele>
        <time>2019-06-07T10:12:24Z</time>
      </trkpt>
      <trkpt lat="44.31448" lon="5.79514">
        <ele>597</ele>
        <time>2019-06-07T10:12:25Z</time>
      </trkpt>
      <trkpt lat="44.31448" lon="5.79517">
        <ele>598</ele>
        <time>2019-06-07T10:12:26Z</time>
      </trkpt>
      <trkpt lat="44.31447" lon="5.7952">
        <ele>598</ele>
        <time>2019-06-07T10:12:27Z</time>
      </trkpt>
      <trkpt lat="44.31447" lon="5.79523">
        <ele>598</ele>
        <time>2019-06-07T10:12:28Z</time>
      </trkpt>
      <trkpt lat="44.31446" lon="5.79526">
        <ele>598</ele>
        <time>2019-06-07T10:12:29Z</time>
      </trkpt>
      <trkpt lat="44.31445" lon="5.79529">
        <ele>598</ele>
        <time>2019-06-07T10:12:30Z</time>
      </trkpt>
      <trkpt lat="44.31444" lon="5.79532">
        <ele>599</ele>
        <time>2019-06-07T10:12:31Z</time>
      </trkpt>
      <trkpt lat="44.31443" lon="5.79536">
        <ele>599</ele>
        <time>2019-06-07T10:12:32Z</time>
      </trkpt>
      <trkpt lat="44.31442" lon="5.79539">
        <ele>599</ele>
        <time>2019-06-07T10:12:33Z</time>
      </trkpt>
      <trkpt lat="44.31441" lon="5.79542">
        <ele>599</ele>
        <time>2019-06-07T10:12:34Z</time>
      </trkpt>
      <trkpt lat="44.3144" lon="5.79545">
        <ele>599</ele>
        <time>2019-06-07T10:12:35Z</time>
      </trkpt>
      <trkpt lat="44.31439" lon="5.79549">
        <ele>599</ele>
        <time>2019-06-07T10:12:36Z</time>
      </trkpt>
      <trkpt lat="44.31438" lon="5.79553">
        <ele>599</ele>
        <time>2019-06-07T10:12:37Z</time>
      </trkpt>
      <trkpt lat="44.31437" lon="5.79556">
        <ele>600</ele>
        <time>2019-06-07T10:12:38Z</time>
      </trkpt>
      <trkpt lat="44.31435" lon="5.79559">
        <ele>600</ele>
        <time>2019-06-07T10:12:39Z</time>
      </trkpt>
      <trkpt lat="44.31434" lon="5.79562">
        <ele>600</ele>
        <time>2019-06-07T10:12:40Z</time>
      </trkpt>
      <trkpt lat="44.31433" lon="5.79566">
        <ele>600</ele>
        <time>2019-06-07T10:12:41Z</time>
      </trkpt>
      <trkpt lat="44.31433" lon="5.79569">
        <ele>600</ele>
        <time>2019-06-07T10:12:42Z</time>
      </trkpt>
      <trkpt lat="44.31432" lon="5.79572">
        <ele>600</ele>
        <time>2019-06-07T10:12:43Z</time>
      </trkpt>
      <trkpt lat="44.31431" lon="5.79575">
        <ele>600</ele>
        <time>2019-06-07T10:12:44Z</time>
      </trkpt>
      <trkpt lat="44.3143" lon="5.79578">
        <ele>600</ele>
        <time>2019-06-07T10:12:45Z</time>
      </trkpt>
      <trkpt lat="44.31429" lon="5.79581">
        <ele>600</ele>
        <time>2019-06-07T10:12:46Z</time>
      </trkpt>
      <trkpt lat="44.31429" lon="5.79584">
        <ele>600</ele>
        <time>2019-06-07T10:12:47Z</time>
      </trkpt>
      <trkpt lat="44.31429" lon="5.79587">
        <ele>601</ele>
        <time>2019-06-07T10:12:48Z</time>
      </trkpt>
      <trkpt lat="44.31428" lon="5.7959">
        <ele>601</ele>
        <time>2019-06-07T10:12:49Z</time>
      </trkpt>
      <trkpt lat="44.31428" lon="5.79593">
        <ele>601</ele>
        <time>2019-06-07T10:12:50Z</time>
      </trkpt>
      <trkpt lat="44.31427" lon="5.79596">
        <ele>602</ele>
        <time>2019-06-07T10:12:51Z</time>
      </trkpt>
      <trkpt lat="44.31427" lon="5.79598">
        <ele>602</ele>
        <time>2019-06-07T10:12:52Z</time>
      </trkpt>
      <trkpt lat="44.31426" lon="5.79601">
        <ele>602</ele>
        <time>2019-06-07T10:12:53Z</time>
      </trkpt>
      <trkpt lat="44.31426" lon="5.79605">
        <ele>603</ele>
        <time>2019-06-07T10:12:54Z</time>
      </trkpt>
      <trkpt lat="44.31425" lon="5.79608">
        <ele>603</ele>
        <time>2019-06-07T10:12:55Z</time>
      </trkpt>
      <trkpt lat="44.31424" lon="5.79611">
        <ele>603</ele>
        <time>2019-06-07T10:12:56Z</time>
      </trkpt>
      <trkpt lat="44.31424" lon="5.79613">
        <ele>603</ele>
        <time>2019-06-07T10:12:57Z</time>
      </trkpt>
      <trkpt lat="44.31423" lon="5.79616">
        <ele>604</ele>
        <time>2019-06-07T10:12:58Z</time>
      </trkpt>
      <trkpt lat="44.31422" lon="5.7962">
        <ele>604</ele>
        <time>2019-06-07T10:12:59Z</time>
      </trkpt>
      <trkpt lat="44.31421" lon="5.79623">
        <ele>604</ele>
        <time>2019-06-07T10:13:00Z</time>
      </trkpt>
      <trkpt lat="44.3142" lon="5.79626">
        <ele>604</ele>
        <time>2019-06-07T10:13:01Z</time>
      </trkpt>
      <trkpt lat="44.31419" lon="5.79629">
        <ele>604</ele>
        <time>2019-06-07T10:13:02Z</time>
      </trkpt>
      <trkpt lat="44.31418" lon="5.79633">
        <ele>604</ele>
        <time>2019-06-07T10:13:03Z</time>
      </trkpt>
      <trkpt lat="44.31417" lon="5.79636">
        <ele>604</ele>
        <time>2019-06-07T10:13:04Z</time>
      </trkpt>
      <trkpt lat="44.31416" lon="5.7964">
        <ele>604</ele>
        <time>2019-06-07T10:13:05Z</time>
      </trkpt>
      <trkpt lat="44.31415" lon="5.79643">
        <ele>604</ele>
        <time>2019-06-07T10:13:06Z</time>
      </trkpt>
      <trkpt lat="44.31414" lon="5.79646">
        <ele>604</ele>
        <time>2019-06-07T10:13:07Z</time>
      </trkpt>
      <trkpt lat="44.31413" lon="5.79649">
        <ele>604</ele>
        <time>2019-06-07T10:13:08Z</time>
      </trkpt>
      <trkpt lat="44.31412" lon="5.79653">
        <ele>605</ele>
        <time>2019-06-07T10:13:09Z</time>
      </trkpt>
      <trkpt lat="44.31411" lon="5.79656">
        <ele>605</ele>
        <time>2019-06-07T10:13:10Z</time>
      </trkpt>
      <trkpt lat="44.3141" lon="5.7966">
        <ele>605</ele>
        <time>2019-06-07T10:13:11Z</time>
      </trkpt>
      <trkpt lat="44.31409" lon="5.79663">
        <ele>605</ele>
        <time>2019-06-07T10:13:12Z</time>
      </trkpt>
      <trkpt lat="44.31408" lon="5.79666">
        <ele>605</ele>
        <time>2019-06-07T10:13:13Z</time>
      </trkpt>
      <trkpt lat="44.31407" lon="5.7967">
        <ele>605</ele>
        <time>2019-06-07T10:13:14Z</time>
      </trkpt>
      <trkpt lat="44.31406" lon="5.79673">
        <ele>606</ele>
        <time>2019-06-07T10:13:15Z</time>
      </trkpt>
      <trkpt lat="44.31406" lon="5.79676">
        <ele>606</ele>
        <time>2019-06-07T10:13:16Z</time>
      </trkpt>
      <trkpt lat="44.31405" lon="5.79679">
        <ele>606</ele>
        <time>2019-06-07T10:13:17Z</time>
      </trkpt>
      <trkpt lat="44.31404" lon="5.79682">
        <ele>607</ele>
        <time>2019-06-07T10:13:18Z</time>
      </trkpt>
      <trkpt lat="44.31403" lon="5.79685">
        <ele>607</ele>
        <time>2019-06-07T10:13:19Z</time>
      </trkpt>
      <trkpt lat="44.31403" lon="5.79689">
        <ele>607</ele>
        <time>2019-06-07T10:13:20Z</time>
      </trkpt>
      <trkpt lat="44.31402" lon="5.79692">
        <ele>608</ele>
        <time>2019-06-07T10:13:21Z</time>
      </trkpt>
      <trkpt lat="44.31401" lon="5.79696">
        <ele>608</ele>
        <time>2019-06-07T10:13:22Z</time>
      </trkpt>
      <trkpt lat="44.314" lon="5.79699">
        <ele>608</ele>
        <time>2019-06-07T10:13:23Z</time>
      </trkpt>
      <trkpt lat="44.31398" lon="5.79703">
        <ele>608</ele>
        <time>2019-06-07T10:13:24Z</time>
      </trkpt>
      <trkpt lat="44.31397" lon="5.79706">
        <ele>609</ele>
        <time>2019-06-07T10:13:25Z</time>
      </trkpt>
      <trkpt lat="44.31396" lon="5.7971">
        <ele>609</ele>
        <time>2019-06-07T10:13:26Z</time>
      </trkpt>
      <trkpt lat="44.31395" lon="5.79714">
        <ele>609</ele>
        <time>2019-06-07T10:13:27Z</time>
      </trkpt>
      <trkpt lat="44.31393" lon="5.79718">
        <ele>609</ele>
        <time>2019-06-07T10:13:28Z</time>
      </trkpt>
      <trkpt lat="44.31392" lon="5.79721">
        <ele>609</ele>
        <time>2019-06-07T10:13:29Z</time>
      </trkpt>
      <trkpt lat="44.3139" lon="5.79725">
        <ele>609</ele>
        <time>2019-06-07T10:13:30Z</time>
      </trkpt>
      <trkpt lat="44.31388" lon="5.79729">
        <ele>610</ele>
        <time>2019-06-07T10:13:31Z</time>
      </trkpt>
      <trkpt lat="44.31386" lon="5.79733">
        <ele>610</ele>
        <time>2019-06-07T10:13:32Z</time>
      </trkpt>
      <trkpt lat="44.31383" lon="5.79738">
        <ele>610</ele>
        <time>2019-06-07T10:13:33Z</time>
      </trkpt>
      <trkpt lat="44.3138" lon="5.79742">
        <ele>610</ele>
        <time>2019-06-07T10:13:34Z</time>
      </trkpt>
      <trkpt lat="44.31378" lon="5.79747">
        <ele>610</ele>
        <time>2019-06-07T10:13:35Z</time>
      </trkpt>
      <trkpt lat="44.31375" lon="5.79752">
        <ele>610</ele>
        <time>2019-06-07T10:13:36Z</time>
      </trkpt>
      <trkpt lat="44.31372" lon="5.79757">
        <ele>610</ele>
        <time>2019-06-07T10:13:37Z</time>
      </trkpt>
      <trkpt lat="44.31369" lon="5.79762">
        <ele>610</ele>
        <time>2019-06-07T10:13:38Z</time>
      </trkpt>
      <trkpt lat="44.31366" lon="5.79767">
        <ele>610</ele>
        <time>2019-06-07T10:13:39Z</time>
      </trkpt>
      <trkpt lat="44.31363" lon="5.79772">
        <ele>610</ele>
        <time>2019-06-07T10:13:40Z</time>
      </trkpt>
      <trkpt lat="44.3136" lon="5.79777">
        <ele>610</ele>
        <time>2019-06-07T10:13:41Z</time>
      </trkpt>
      <trkpt lat="44.31357" lon="5.79782">
        <ele>610</ele>
        <time>2019-06-07T10:13:42Z</time>
      </trkpt>
      <trkpt lat="44.31354" lon="5.79787">
        <ele>610</ele>
        <time>2019-06-07T10:13:43Z</time>
      </trkpt>
      <trkpt lat="44.3135" lon="5.79792">
        <ele>610</ele>
        <time>2019-06-07T10:13:44Z</time>
      </trkpt>
      <trkpt lat="44.31348" lon="5.79798">
        <ele>610</ele>
        <time>2019-06-07T10:13:45Z</time>
      </trkpt>
      <trkpt lat="44.31344" lon="5.79803">
        <ele>610</ele>
        <time>2019-06-07T10:13:46Z</time>
      </trkpt>
      <trkpt lat="44.31341" lon="5.79808">
        <ele>610</ele>
        <time>2019-06-07T10:13:47Z</time>
      </trkpt>
      <trkpt lat="44.31338" lon="5.79813">
        <ele>610</ele>
        <time>2019-06-07T10:13:48Z</time>
      </trkpt>
      <trkpt lat="44.31335" lon="5.79819">
        <ele>610</ele>
        <time>2019-06-07T10:13:49Z</time>
      </trkpt>
      <trkpt lat="44.31331" lon="5.79824">
        <ele>610</ele>
        <time>2019-06-07T10:13:50Z</time>
      </trkpt>
      <trkpt lat="44.31328" lon="5.7983">
        <ele>610</ele>
        <time>2019-06-07T10:13:51Z</time>
      </trkpt>
      <trkpt lat="44.31324" lon="5.79835">
        <ele>610</ele>
        <time>2019-06-07T10:13:52Z</time>
      </trkpt>
      <trkpt lat="44.31321" lon="5.7984">
        <ele>610</ele>
        <time>2019-06-07T10:13:53Z</time>
      </trkpt>
      <trkpt lat="44.31317" lon="5.79845">
        <ele>610</ele>
        <time>2019-06-07T10:13:54Z</time>
      </trkpt>
      <trkpt lat="44.31314" lon="5.7985">
        <ele>610</ele>
        <time>2019-06-07T10:13:55Z</time>
      </trkpt>
      <trkpt lat="44.3131" lon="5.79855">
        <ele>610</ele>
        <time>2019-06-07T10:13:56Z</time>
      </trkpt>
      <trkpt lat="44.31307" lon="5.7986">
        <ele>610</ele>
        <time>2019-06-07T10:13:57Z</time>
      </trkpt>
      <trkpt lat="44.31304" lon="5.79865">
        <ele>610</ele>
        <time>2019-06-07T10:13:58Z</time>
      </trkpt>
      <trkpt lat="44.31301" lon="5.79869">
        <ele>610</ele>
        <time>2019-06-07T10:13:59Z</time>
      </trkpt>
      <trkpt lat="44.31298" lon="5.79874">
        <ele>610</ele>
        <time>2019-06-07T10:14:00Z</time>
      </trkpt>
      <trkpt lat="44.31295" lon="5.79879">
        <ele>610</ele>
        <time>2019-06-07T10:14:01Z</time>
      </trkpt>
      <trkpt lat="44.31291" lon="5.79884">
        <ele>611</ele>
        <time>2019-06-07T10:14:02Z</time>
      </trkpt>
      <trkpt lat="44.31288" lon="5.79888">
        <ele>611</ele>
        <time>2019-06-07T10:14:03Z</time>
      </trkpt>
      <trkpt lat="44.31285" lon="5.79893">
        <ele>611</ele>
        <time>2019-06-07T10:14:04Z</time>
      </trkpt>
      <trkpt lat="44.31282" lon="5.79897">
        <ele>611</ele>
        <time>2019-06-07T10:14:05Z</time>
      </trkpt>
      <trkpt lat="44.31278" lon="5.79901">
        <ele>611</ele>
        <time>2019-06-07T10:14:06Z</time>
      </trkpt>
      <trkpt lat="44.31275" lon="5.79905">
        <ele>611</ele>
        <time>2019-06-07T10:14:07Z</time>
      </trkpt>
      <trkpt lat="44.31271" lon="5.79909">
        <ele>612</ele>
        <time>2019-06-07T10:14:08Z</time>
      </trkpt>
      <trkpt lat="44.31268" lon="5.79913">
        <ele>612</ele>
        <time>2019-06-07T10:14:09Z</time>
      </trkpt>
      <trkpt lat="44.31265" lon="5.79917">
        <ele>612</ele>
        <time>2019-06-07T10:14:10Z</time>
      </trkpt>
      <trkpt lat="44.31262" lon="5.79921">
        <ele>612</ele>
        <time>2019-06-07T10:14:11Z</time>
      </trkpt>
      <trkpt lat="44.31258" lon="5.79925">
        <ele>612</ele>
        <time>2019-06-07T10:14:12Z</time>
      </trkpt>
      <trkpt lat="44.31255" lon="5.79928">
        <ele>612</ele>
        <time>2019-06-07T10:14:13Z</time>
      </trkpt>
      <trkpt lat="44.31252" lon="5.79932">
        <ele>612</ele>
        <time>2019-06-07T10:14:14Z</time>
      </trkpt>
      <trkpt lat="44.31249" lon="5.79937">
        <ele>612</ele>
        <time>2019-06-07T10:14:15Z</time>
      </trkpt>
      <trkpt lat="44.31246" lon="5.79941">
        <ele>612</ele>
        <time>2019-06-07T10:14:16Z</time>
      </trkpt>
      <trkpt lat="44.31243" lon="5.79946">
        <ele>612</ele>
        <time>2019-06-07T10:14:17Z</time>
      </trkpt>
      <trkpt lat="44.3124" lon="5.79951">
        <ele>612</ele>
        <time>2019-06-07T10:14:18Z</time>
      </trkpt>
      <trkpt lat="44.31237" lon="5.79956">
        <ele>612</ele>
        <time>2019-06-07T10:14:19Z</time>
      </trkpt>
      <trkpt lat="44.31234" lon="5.79963">
        <ele>612</ele>
        <time>2019-06-07T10:14:20Z</time>
      </trkpt>
      <trkpt lat="44.31232" lon="5.79971">
        <ele>612</ele>
        <time>2019-06-07T10:14:21Z</time>
      </trkpt>
      <trkpt lat="44.3123" lon="5.79979">
        <ele>612</ele>
        <time>2019-06-07T10:14:22Z</time>
      </trkpt>
      <trkpt lat="44.31229" lon="5.79986">
        <ele>612</ele>
        <time>2019-06-07T10:14:23Z</time>
      </trkpt>
      <trkpt lat="44.31229" lon="5.79993">
        <ele>612</ele>
        <time>2019-06-07T10:14:24Z</time>
      </trkpt>
      <trkpt lat="44.31228" lon="5.8">
        <ele>612</ele>
        <time>2019-06-07T10:14:25Z</time>
      </trkpt>
      <trkpt lat="44.31228" lon="5.80008">
        <ele>612</ele>
        <time>2019-06-07T10:14:26Z</time>
      </trkpt>
      <trkpt lat="44.31228" lon="5.80014">
        <ele>612</ele>
        <time>2019-06-07T10:14:27Z</time>
      </trkpt>
      <trkpt lat="44.31228" lon="5.80021">
        <ele>612</ele>
        <time>2019-06-07T10:14:28Z</time>
      </trkpt>
      <trkpt lat="44.31227" lon="5.80027">
        <ele>612</ele>
        <time>2019-06-07T10:14:29Z</time>
      </trkpt>
      <trkpt lat="44.31226" lon="5.80033">
        <ele>612</ele>
        <time>2019-06-07T10:14:30Z</time>
      </trkpt>
      <trkpt lat="44.31225" lon="5.8004">
        <ele>612</ele>
        <time>2019-06-07T10:14:31Z</time>
      </trkpt>
      <trkpt lat="44.31224" lon="5.80046">
        <ele>612</ele>
        <time>2019-06-07T10:14:32Z</time>
      </trkpt>
      <trkpt lat="44.31223" lon="5.80052">
        <ele>612</ele>
        <time>2019-06-07T10:14:33Z</time>
      </trkpt>
      <trkpt lat="44.31221" lon="5.80058">
        <ele>612</ele>
        <time>2019-06-07T10:14:34Z</time>
      </trkpt>
      <trkpt lat="44.31218" lon="5.80064">
        <ele>612</ele>
        <time>2019-06-07T10:14:35Z</time>
      </trkpt>
      <trkpt lat="44.31215" lon="5.8007">
        <ele>612</ele>
        <time>2019-06-07T10:14:36Z</time>
      </trkpt>
      <trkpt lat="44.31212" lon="5.80076">
        <ele>612</ele>
        <time>2019-06-07T10:14:37Z</time>
      </trkpt>
      <trkpt lat="44.31208" lon="5.80081">
        <ele>612</ele>
        <time>2019-06-07T10:14:38Z</time>
      </trkpt>
      <trkpt lat="44.31205" lon="5.80086">
        <ele>612</ele>
        <time>2019-06-07T10:14:39Z</time>
      </trkpt>
      <trkpt lat="44.31201" lon="5.80091">
        <ele>612</ele>
        <time>2019-06-07T10:14:40Z</time>
      </trkpt>
      <trkpt lat="44.31198" lon="5.80096">
        <ele>612</ele>
        <time>2019-06-07T10:14:41Z</time>
      </trkpt>
      <trkpt lat="44.31195" lon="5.80102">
        <ele>612</ele>
        <time>2019-06-07T10:14:42Z</time>
      </trkpt>
      <trkpt lat="44.31192" lon="5.80108">
        <ele>612</ele>
        <time>2019-06-07T10:14:43Z</time>
      </trkpt>
      <trkpt lat="44.31189" lon="5.80115">
        <ele>612</ele>
        <time>2019-06-07T10:14:44Z</time>
      </trkpt>
      <trkpt lat="44.31186" lon="5.80122">
        <ele>612</ele>
        <time>2019-06-07T10:14:45Z</time>
      </trkpt>
      <trkpt lat="44.31184" lon="5.80128">
        <ele>612</ele>
        <time>2019-06-07T10:14:46Z</time>
      </trkpt>
      <trkpt lat="44.31182" lon="5.80135">
        <ele>612</ele>
        <time>2019-06-07T10:14:47Z</time>
      </trkpt>
      <trkpt lat="44.3118" lon="5.80141">
        <ele>612</ele>
        <time>2019-06-07T10:14:48Z</time>
      </trkpt>
      <trkpt lat="44.31179" lon="5.80149">
        <ele>612</ele>
        <time>2019-06-07T10:14:49Z</time>
      </trkpt>
      <trkpt lat="44.31178" lon="5.80155">
        <ele>612</ele>
        <time>2019-06-07T10:14:50Z</time>
      </trkpt>
      <trkpt lat="44.31176" lon="5.80161">
        <ele>613</ele>
        <time>2019-06-07T10:14:51Z</time>
      </trkpt>
      <trkpt lat="44.31174" lon="5.80167">
        <ele>613</ele>
        <time>2019-06-07T10:14:52Z</time>
      </trkpt>
      <trkpt lat="44.31172" lon="5.80173">
        <ele>614</ele>
        <time>2019-06-07T10:14:53Z</time>
      </trkpt>
      <trkpt lat="44.31171" lon="5.80179">
        <ele>614</ele>
        <time>2019-06-07T10:14:54Z</time>
      </trkpt>
      <trkpt lat="44.31169" lon="5.80184">
        <ele>615</ele>
        <time>2019-06-07T10:14:55Z</time>
      </trkpt>
      <trkpt lat="44.31167" lon="5.80189">
        <ele>615</ele>
        <time>2019-06-07T10:14:56Z</time>
      </trkpt>
      <trkpt lat="44.31165" lon="5.80194">
        <ele>615</ele>
        <time>2019-06-07T10:14:57Z</time>
      </trkpt>
      <trkpt lat="44.31163" lon="5.80199">
        <ele>616</ele>
        <time>2019-06-07T10:14:58Z</time>
      </trkpt>
      <trkpt lat="44.31162" lon="5.80203">
        <ele>616</ele>
        <time>2019-06-07T10:14:59Z</time>
      </trkpt>
      <trkpt lat="44.3116" lon="5.80208">
        <ele>616</ele>
        <time>2019-06-07T10:15:00Z</time>
      </trkpt>
      <trkpt lat="44.31158" lon="5.80212">
        <ele>617</ele>
        <time>2019-06-07T10:15:01Z</time>
      </trkpt>
      <trkpt lat="44.31156" lon="5.80216">
        <ele>617</ele>
        <time>2019-06-07T10:15:02Z</time>
      </trkpt>
      <trkpt lat="44.31154" lon="5.8022">
        <ele>617</ele>
        <time>2019-06-07T10:15:03Z</time>
      </trkpt>
      <trkpt lat="44.31152" lon="5.80224">
        <ele>617</ele>
        <time>2019-06-07T10:15:04Z</time>
      </trkpt>
      <trkpt lat="44.3115" lon="5.80228">
        <ele>617</ele>
        <time>2019-06-07T10:15:05Z</time>
      </trkpt>
      <trkpt lat="44.31148" lon="5.80231">
        <ele>617</ele>
        <time>2019-06-07T10:15:06Z</time>
      </trkpt>
      <trkpt lat="44.31147" lon="5.80235">
        <ele>617</ele>
        <time>2019-06-07T10:15:07Z</time>
      </trkpt>
      <trkpt lat="44.31145" lon="5.80238">
        <ele>618</ele>
        <time>2019-06-07T10:15:08Z</time>
      </trkpt>
      <trkpt lat="44.31143" lon="5.80242">
        <ele>618</ele>
        <time>2019-06-07T10:15:09Z</time>
      </trkpt>
      <trkpt lat="44.31141" lon="5.80246">
        <ele>618</ele>
        <time>2019-06-07T10:15:10Z</time>
      </trkpt>
      <trkpt lat="44.3114" lon="5.80251">
        <ele>619</ele>
        <time>2019-06-07T10:15:11Z</time>
      </trkpt>
      <trkpt lat="44.31138" lon="5.80255">
        <ele>619</ele>
        <time>2019-06-07T10:15:12Z</time>
      </trkpt>
      <trkpt lat="44.31136" lon="5.80259">
        <ele>619</ele>
        <time>2019-06-07T10:15:13Z</time>
      </trkpt>
      <trkpt lat="44.31134" lon="5.80264">
        <ele>620</ele>
        <time>2019-06-07T10:15:14Z</time>
      </trkpt>
      <trkpt lat="44.31132" lon="5.80269">
        <ele>620</ele>
        <time>2019-06-07T10:15:15Z</time>
      </trkpt>
      <trkpt lat="44.3113" lon="5.80274">
        <ele>620</ele>
        <time>2019-06-07T10:15:16Z</time>
      </trkpt>
      <trkpt lat="44.31128" lon="5.80279">
        <ele>620</ele>
        <time>2019-06-07T10:15:17Z</time>
      </trkpt>
      <trkpt lat="44.31126" lon="5.80284">
        <ele>621</ele>
        <time>2019-06-07T10:15:18Z</time>
      </trkpt>
      <trkpt lat="44.31124" lon="5.80289">
        <ele>621</ele>
        <time>2019-06-07T10:15:19Z</time>
      </trkpt>
      <trkpt lat="44.31122" lon="5.80295">
        <ele>621</ele>
        <time>2019-06-07T10:15:20Z</time>
      </trkpt>
      <trkpt lat="44.31121" lon="5.803">
        <ele>621</ele>
        <time>2019-06-07T10:15:21Z</time>
      </trkpt>
      <trkpt lat="44.3112" lon="5.80305">
        <ele>621</ele>
        <time>2019-06-07T10:15:22Z</time>
      </trkpt>
      <trkpt lat="44.31119" lon="5.80311">
        <ele>621</ele>
        <time>2019-06-07T10:15:23Z</time>
      </trkpt>
      <trkpt lat="44.31118" lon="5.80316">
        <ele>621</ele>
        <time>2019-06-07T10:15:24Z</time>
      </trkpt>
      <trkpt lat="44.31117" lon="5.80322">
        <ele>621</ele>
        <time>2019-06-07T10:15:25Z</time>
      </trkpt>
      <trkpt lat="44.31117" lon="5.80327">
        <ele>621</ele>
        <time>2019-06-07T10:15:26Z</time>
      </trkpt>
      <trkpt lat="44.31117" lon="5.80333">
        <ele>621</ele>
        <time>2019-06-07T10:15:27Z</time>
      </trkpt>
      <trkpt lat="44.31117" lon="5.80339">
        <ele>621</ele>
        <time>2019-06-07T10:15:28Z</time>
      </trkpt>
      <trkpt lat="44.31118" lon="5.80345">
        <ele>621</ele>
        <time>2019-06-07T10:15:29Z</time>
      </trkpt>
      <trkpt lat="44.31118" lon="5.8035">
        <ele>621</ele>
        <time>2019-06-07T10:15:30Z</time>
      </trkpt>
      <trkpt lat="44.31118" lon="5.80356">
        <ele>621</ele>
        <time>2019-06-07T10:15:31Z</time>
      </trkpt>
      <trkpt lat="44.31118" lon="5.80362">
        <ele>621</ele>
        <time>2019-06-07T10:15:32Z</time>
      </trkpt>
      <trkpt lat="44.31118" lon="5.80368">
        <ele>621</ele>
        <time>2019-06-07T10:15:33Z</time>
      </trkpt>
      <trkpt lat="44.31119" lon="5.80373">
        <ele>621</ele>
        <time>2019-06-07T10:15:34Z</time>
      </trkpt>
      <trkpt lat="44.31119" lon="5.80379">
        <ele>621</ele>
        <time>2019-06-07T10:15:35Z</time>
      </trkpt>
      <trkpt lat="44.31118" lon="5.80385">
        <ele>621</ele>
        <time>2019-06-07T10:15:36Z</time>
      </trkpt>
      <trkpt lat="44.31118" lon="5.8039">
        <ele>621</ele>
        <time>2019-06-07T10:15:37Z</time>
      </trkpt>
      <trkpt lat="44.31119" lon="5.80396">
        <ele>621</ele>
        <time>2019-06-07T10:15:38Z</time>
      </trkpt>
      <trkpt lat="44.31119" lon="5.80402">
        <ele>621</ele>
        <time>2019-06-07T10:15:39Z</time>
      </trkpt>
      <trkpt lat="44.31119" lon="5.80408">
        <ele>621</ele>
        <time>2019-06-07T10:15:40Z</time>
      </trkpt>
      <trkpt lat="44.3112" lon="5.80414">
        <ele>621</ele>
        <time>2019-06-07T10:15:41Z</time>
      </trkpt>
      <trkpt lat="44.3112" lon="5.8042">
        <ele>621</ele>
        <time>2019-06-07T10:15:42Z</time>
      </trkpt>
      <trkpt lat="44.3112" lon="5.80426">
        <ele>621</ele>
        <time>2019-06-07T10:15:43Z</time>
      </trkpt>
      <trkpt lat="44.31121" lon="5.80432">
        <ele>621</ele>
        <time>2019-06-07T10:15:44Z</time>
      </trkpt>
      <trkpt lat="44.31122" lon="5.80438">
        <ele>621</ele>
        <time>2019-06-07T10:15:45Z</time>
      </trkpt>
      <trkpt lat="44.31122" lon="5.80444">
        <ele>621</ele>
        <time>2019-06-07T10:15:46Z</time>
      </trkpt>
      <trkpt lat="44.31123" lon="5.8045">
        <ele>621</ele>
        <time>2019-06-07T10:15:47Z</time>
      </trkpt>
      <trkpt lat="44.31122" lon="5.80456">
        <ele>621</ele>
        <time>2019-06-07T10:15:48Z</time>
      </trkpt>
      <trkpt lat="44.31122" lon="5.80462">
        <ele>621</ele>
        <time>2019-06-07T10:15:49Z</time>
      </trkpt>
      <trkpt lat="44.31121" lon="5.80468">
        <ele>621</ele>
        <time>2019-06-07T10:15:50Z</time>
      </trkpt>
      <trkpt lat="44.3112" lon="5.80474">
        <ele>621</ele>
        <time>2019-06-07T10:15:51Z</time>
      </trkpt>
      <trkpt lat="44.31118" lon="5.8048">
        <ele>621</ele>
        <time>2019-06-07T10:15:52Z</time>
      </trkpt>
      <trkpt lat="44.31116" lon="5.80486">
        <ele>621</ele>
        <time>2019-06-07T10:15:53Z</time>
      </trkpt>
      <trkpt lat="44.31115" lon="5.80492">
        <ele>621</ele>
        <time>2019-06-07T10:15:54Z</time>
      </trkpt>
      <trkpt lat="44.31113" lon="5.80499">
        <ele>621</ele>
        <time>2019-06-07T10:15:55Z</time>
      </trkpt>
      <trkpt lat="44.3111" lon="5.80506">
        <ele>621</ele>
        <time>2019-06-07T10:15:56Z</time>
      </trkpt>
      <trkpt lat="44.31108" lon="5.80513">
        <ele>621</ele>
        <time>2019-06-07T10:15:57Z</time>
      </trkpt>
      <trkpt lat="44.31106" lon="5.8052">
        <ele>621</ele>
        <time>2019-06-07T10:15:58Z</time>
      </trkpt>
      <trkpt lat="44.31104" lon="5.80528">
        <ele>621</ele>
        <time>2019-06-07T10:15:59Z</time>
      </trkpt>
      <trkpt lat="44.31101" lon="5.80535">
        <ele>621</ele>
        <time>2019-06-07T10:16:00Z</time>
      </trkpt>
      <trkpt lat="44.31099" lon="5.80542">
        <ele>621</ele>
        <time>2019-06-07T10:16:01Z</time>
      </trkpt>
      <trkpt lat="44.31098" lon="5.80549">
        <ele>621</ele>
        <time>2019-06-07T10:16:02Z</time>
      </trkpt>
      <trkpt lat="44.31097" lon="5.80555">
        <ele>621</ele>
        <time>2019-06-07T10:16:03Z</time>
      </trkpt>
      <trkpt lat="44.31096" lon="5.80562">
        <ele>621</ele>
        <time>2019-06-07T10:16:04Z</time>
      </trkpt>
      <trkpt lat="44.31094" lon="5.80569">
        <ele>621</ele>
        <time>2019-06-07T10:16:05Z</time>
      </trkpt>
      <trkpt lat="44.31093" lon="5.80575">
        <ele>621</ele>
        <time>2019-06-07T10:16:06Z</time>
      </trkpt>
      <trkpt lat="44.31092" lon="5.80581">
        <ele>621</ele>
        <time>2019-06-07T10:16:07Z</time>
      </trkpt>
      <trkpt lat="44.3109" lon="5.80586">
        <ele>621</ele>
        <time>2019-06-07T10:16:08Z</time>
      </trkpt>
      <trkpt lat="44.31089" lon="5.80592">
        <ele>621</ele>
        <time>2019-06-07T10:16:09Z</time>
      </trkpt>
      <trkpt lat="44.31088" lon="5.80598">
        <ele>621</ele>
        <time>2019-06-07T10:16:10Z</time>
      </trkpt>
      <trkpt lat="44.31087" lon="5.80603">
        <ele>621</ele>
        <time>2019-06-07T10:16:11Z</time>
      </trkpt>
      <trkpt lat="44.31085" lon="5.80609">
        <ele>621</ele>
        <time>2019-06-07T10:16:12Z</time>
      </trkpt>
      <trkpt lat="44.31084" lon="5.80614">
        <ele>621</ele>
        <time>2019-06-07T10:16:13Z</time>
      </trkpt>
      <trkpt lat="44.31083" lon="5.80619">
        <ele>621</ele>
        <time>2019-06-07T10:16:14Z</time>
      </trkpt>
      <trkpt lat="44.31081" lon="5.80625">
        <ele>621</ele>
        <time>2019-06-07T10:16:15Z</time>
      </trkpt>
      <trkpt lat="44.3108" lon="5.8063">
        <ele>621</ele>
        <time>2019-06-07T10:16:16Z</time>
      </trkpt>
      <trkpt lat="44.31078" lon="5.80636">
        <ele>621</ele>
        <time>2019-06-07T10:16:17Z</time>
      </trkpt>
      <trkpt lat="44.31076" lon="5.80642">
        <ele>621</ele>
        <time>2019-06-07T10:16:18Z</time>
      </trkpt>
      <trkpt lat="44.31075" lon="5.80648">
        <ele>621</ele>
        <time>2019-06-07T10:16:19Z</time>
      </trkpt>
      <trkpt lat="44.31073" lon="5.80654">
        <ele>621</ele>
        <time>2019-06-07T10:16:20Z</time>
      </trkpt>
      <trkpt lat="44.31071" lon="5.8066">
        <ele>621</ele>
        <time>2019-06-07T10:16:21Z</time>
      </trkpt>
      <trkpt lat="44.3107" lon="5.80665">
        <ele>621</ele>
        <time>2019-06-07T10:16:22Z</time>
      </trkpt>
      <trkpt lat="44.31068" lon="5.80672">
        <ele>621</ele>
        <time>2019-06-07T10:16:23Z</time>
      </trkpt>
      <trkpt lat="44.31067" lon="5.80678">
        <ele>621</ele>
        <time>2019-06-07T10:16:24Z</time>
      </trkpt>
      <trkpt lat="44.31065" lon="5.80684">
        <ele>621</ele>
        <time>2019-06-07T10:16:25Z</time>
      </trkpt>
      <trkpt lat="44.31063" lon="5.8069">
        <ele>621</ele>
        <time>2019-06-07T10:16:26Z</time>
      </trkpt>
      <trkpt lat="44.31061" lon="5.80696">
        <ele>621</ele>
        <time>2019-06-07T10:16:27Z</time>
      </trkpt>
      <trkpt lat="44.31059" lon="5.80702">
        <ele>621</ele>
        <time>2019-06-07T10:16:28Z</time>
      </trkpt>
      <trkpt lat="44.31057" lon="5.8071">
        <ele>621</ele>
        <time>2019-06-07T10:16:29Z</time>
      </trkpt>
      <trkpt lat="44.31055" lon="5.80717">
        <ele>621</ele>
        <time>2019-06-07T10:16:30Z</time>
      </trkpt>
      <trkpt lat="44.31053" lon="5.80725">
        <ele>621</ele>
        <time>2019-06-07T10:16:31Z</time>
      </trkpt>
      <trkpt lat="44.3105" lon="5.80734">
        <ele>621</ele>
        <time>2019-06-07T10:16:32Z</time>
      </trkpt>
      <trkpt lat="44.31047" lon="5.80744">
        <ele>621</ele>
        <time>2019-06-07T10:16:33Z</time>
      </trkpt>
      <trkpt lat="44.31044" lon="5.80753">
        <ele>621</ele>
        <time>2019-06-07T10:16:34Z</time>
      </trkpt>
      <trkpt lat="44.31041" lon="5.80762">
        <ele>621</ele>
        <time>2019-06-07T10:16:35Z</time>
      </trkpt>
      <trkpt lat="44.31037" lon="5.80771">
        <ele>621</ele>
        <time>2019-06-07T10:16:36Z</time>
      </trkpt>
      <trkpt lat="44.31032" lon="5.8078">
        <ele>621</ele>
        <time>2019-06-07T10:16:37Z</time>
      </trkpt>
      <trkpt lat="44.31028" lon="5.80789">
        <ele>621</ele>
        <time>2019-06-07T10:16:38Z</time>
      </trkpt>
      <trkpt lat="44.31024" lon="5.80798">
        <ele>621</ele>
        <time>2019-06-07T10:16:39Z</time>
      </trkpt>
      <trkpt lat="44.31019" lon="5.80807">
        <ele>621</ele>
        <time>2019-06-07T10:16:40Z</time>
      </trkpt>
      <trkpt lat="44.31015" lon="5.80818">
        <ele>621</ele>
        <time>2019-06-07T10:16:41Z</time>
      </trkpt>
      <trkpt lat="44.3101" lon="5.80828">
        <ele>621</ele>
        <time>2019-06-07T10:16:42Z</time>
      </trkpt>
      <trkpt lat="44.31007" lon="5.80839">
        <ele>621</ele>
        <time>2019-06-07T10:16:43Z</time>
      </trkpt>
      <trkpt lat="44.31005" lon="5.80849">
        <ele>621</ele>
        <time>2019-06-07T10:16:44Z</time>
      </trkpt>
      <trkpt lat="44.31004" lon="5.8086">
        <ele>621</ele>
        <time>2019-06-07T10:16:45Z</time>
      </trkpt>
      <trkpt lat="44.31003" lon="5.8087">
        <ele>621</ele>
        <time>2019-06-07T10:16:46Z</time>
      </trkpt>
      <trkpt lat="44.31002" lon="5.8088">
        <ele>621</ele>
        <time>2019-06-07T10:16:47Z</time>
      </trkpt>
      <trkpt lat="44.31" lon="5.8089">
        <ele>621</ele>
        <time>2019-06-07T10:16:48Z</time>
      </trkpt>
      <trkpt lat="44.30998" lon="5.80899">
        <ele>621</ele>
        <time>2019-06-07T10:16:49Z</time>
      </trkpt>
      <trkpt lat="44.30996" lon="5.80908">
        <ele>621</ele>
        <time>2019-06-07T10:16:50Z</time>
      </trkpt>
      <trkpt lat="44.30993" lon="5.80918">
        <ele>621</ele>
        <time>2019-06-07T10:16:51Z</time>
      </trkpt>
      <trkpt lat="44.3099" lon="5.80928">
        <ele>621</ele>
        <time>2019-06-07T10:16:52Z</time>
      </trkpt>
      <trkpt lat="44.30986" lon="5.80938">
        <ele>620</ele>
        <time>2019-06-07T10:16:53Z</time>
      </trkpt>
      <trkpt lat="44.30982" lon="5.80947">
        <ele>619</ele>
        <time>2019-06-07T10:16:54Z</time>
      </trkpt>
      <trkpt lat="44.30978" lon="5.80957">
        <ele>619</ele>
        <time>2019-06-07T10:16:55Z</time>
      </trkpt>
      <trkpt lat="44.30973" lon="5.80967">
        <ele>618</ele>
        <time>2019-06-07T10:16:56Z</time>
      </trkpt>
      <trkpt lat="44.30968" lon="5.80976">
        <ele>618</ele>
        <time>2019-06-07T10:16:57Z</time>
      </trkpt>
      <trkpt lat="44.30962" lon="5.80985">
        <ele>618</ele>
        <time>2019-06-07T10:16:58Z</time>
      </trkpt>
      <trkpt lat="44.30957" lon="5.80995">
        <ele>618</ele>
        <time>2019-06-07T10:16:59Z</time>
      </trkpt>
      <trkpt lat="44.30952" lon="5.81004">
        <ele>617</ele>
        <time>2019-06-07T10:17:00Z</time>
      </trkpt>
      <trkpt lat="44.30946" lon="5.81013">
        <ele>617</ele>
        <time>2019-06-07T10:17:01Z</time>
      </trkpt>
      <trkpt lat="44.30941" lon="5.81023">
        <ele>616</ele>
        <time>2019-06-07T10:17:02Z</time>
      </trkpt>
      <trkpt lat="44.30937" lon="5.81032">
        <ele>616</ele>
        <time>2019-06-07T10:17:03Z</time>
      </trkpt>
      <trkpt lat="44.30933" lon="5.81042">
        <ele>615</ele>
        <time>2019-06-07T10:17:04Z</time>
      </trkpt>
      <trkpt lat="44.30929" lon="5.81053">
        <ele>614</ele>
        <time>2019-06-07T10:17:05Z</time>
      </trkpt>
      <trkpt lat="44.30925" lon="5.81063">
        <ele>614</ele>
        <time>2019-06-07T10:17:06Z</time>
      </trkpt>
      <trkpt lat="44.30921" lon="5.81073">
        <ele>613</ele>
        <time>2019-06-07T10:17:07Z</time>
      </trkpt>
      <trkpt lat="44.30918" lon="5.81084">
        <ele>612</ele>
        <time>2019-06-07T10:17:08Z</time>
      </trkpt>
      <trkpt lat="44.30916" lon="5.81095">
        <ele>612</ele>
        <time>2019-06-07T10:17:09Z</time>
      </trkpt>
      <trkpt lat="44.30913" lon="5.81106">
        <ele>611</ele>
        <time>2019-06-07T10:17:10Z</time>
      </trkpt>
      <trkpt lat="44.3091" lon="5.81116">
        <ele>611</ele>
        <time>2019-06-07T10:17:11Z</time>
      </trkpt>
      <trkpt lat="44.30908" lon="5.81127">
        <ele>611</ele>
        <time>2019-06-07T10:17:12Z</time>
      </trkpt>
      <trkpt lat="44.30906" lon="5.81138">
        <ele>611</ele>
        <time>2019-06-07T10:17:13Z</time>
      </trkpt>
      <trkpt lat="44.30903" lon="5.81148">
        <ele>611</ele>
        <time>2019-06-07T10:17:14Z</time>
      </trkpt>
      <trkpt lat="44.30899" lon="5.81158">
        <ele>611</ele>
        <time>2019-06-07T10:17:15Z</time>
      </trkpt>
      <trkpt lat="44.30896" lon="5.81168">
        <ele>611</ele>
        <time>2019-06-07T10:17:16Z</time>
      </trkpt>
      <trkpt lat="44.30893" lon="5.81178">
        <ele>611</ele>
        <time>2019-06-07T10:17:17Z</time>
      </trkpt>
      <trkpt lat="44.3089" lon="5.81188">
        <ele>611</ele>
        <time>2019-06-07T10:17:18Z</time>
      </trkpt>
      <trkpt lat="44.30888" lon="5.81199">
        <ele>611</ele>
        <time>2019-06-07T10:17:19Z</time>
      </trkpt>
      <trkpt lat="44.30885" lon="5.8121">
        <ele>611</ele>
        <time>2019-06-07T10:17:20Z</time>
      </trkpt>
      <trkpt lat="44.30883" lon="5.8122">
        <ele>611</ele>
        <time>2019-06-07T10:17:21Z</time>
      </trkpt>
      <trkpt lat="44.3088" lon="5.8123">
        <ele>611</ele>
        <time>2019-06-07T10:17:22Z</time>
      </trkpt>
      <trkpt lat="44.30878" lon="5.8124">
        <ele>611</ele>
        <time>2019-06-07T10:17:23Z</time>
      </trkpt>
      <trkpt lat="44.30875" lon="5.81249">
        <ele>611</ele>
        <time>2019-06-07T10:17:24Z</time>
      </trkpt>
      <trkpt lat="44.30871" lon="5.81259">
        <ele>611</ele>
        <time>2019-06-07T10:17:25Z</time>
      </trkpt>
      <trkpt lat="44.30869" lon="5.81269">
        <ele>611</ele>
        <time>2019-06-07T10:17:26Z</time>
      </trkpt>
      <trkpt lat="44.30865" lon="5.81278">
        <ele>611</ele>
        <time>2019-06-07T10:17:27Z</time>
      </trkpt>
      <trkpt lat="44.30863" lon="5.81287">
        <ele>611</ele>
        <time>2019-06-07T10:17:28Z</time>
      </trkpt>
      <trkpt lat="44.3086" lon="5.81297">
        <ele>611</ele>
        <time>2019-06-07T10:17:29Z</time>
      </trkpt>
      <trkpt lat="44.30857" lon="5.81307">
        <ele>611</ele>
        <time>2019-06-07T10:17:30Z</time>
      </trkpt>
      <trkpt lat="44.30855" lon="5.81316">
        <ele>611</ele>
        <time>2019-06-07T10:17:31Z</time>
      </trkpt>
      <trkpt lat="44.30851" lon="5.81325">
        <ele>611</ele>
        <time>2019-06-07T10:17:32Z</time>
      </trkpt>
      <trkpt lat="44.30848" lon="5.81335">
        <ele>610</ele>
        <time>2019-06-07T10:17:33Z</time>
      </trkpt>
      <trkpt lat="44.30844" lon="5.81345">
        <ele>610</ele>
        <time>2019-06-07T10:17:34Z</time>
      </trkpt>
      <trkpt lat="44.30841" lon="5.81356">
        <ele>609</ele>
        <time>2019-06-07T10:17:35Z</time>
      </trkpt>
      <trkpt lat="44.30839" lon="5.81368">
        <ele>609</ele>
        <time>2019-06-07T10:17:36Z</time>
      </trkpt>
      <trkpt lat="44.30838" lon="5.8138">
        <ele>608</ele>
        <time>2019-06-07T10:17:37Z</time>
      </trkpt>
      <trkpt lat="44.30837" lon="5.81393">
        <ele>608</ele>
        <time>2019-06-07T10:17:38Z</time>
      </trkpt>
      <trkpt lat="44.30836" lon="5.81406">
        <ele>608</ele>
        <time>2019-06-07T10:17:39Z</time>
      </trkpt>
      <trkpt lat="44.30835" lon="5.8142">
        <ele>607</ele>
        <time>2019-06-07T10:17:40Z</time>
      </trkpt>
      <trkpt lat="44.30834" lon="5.81434">
        <ele>607</ele>
        <time>2019-06-07T10:17:41Z</time>
      </trkpt>
      <trkpt lat="44.30831" lon="5.81449">
        <ele>607</ele>
        <time>2019-06-07T10:17:42Z</time>
      </trkpt>
      <trkpt lat="44.30828" lon="5.81464">
        <ele>607</ele>
        <time>2019-06-07T10:17:43Z</time>
      </trkpt>
      <trkpt lat="44.30825" lon="5.8148">
        <ele>607</ele>
        <time>2019-06-07T10:17:44Z</time>
      </trkpt>
      <trkpt lat="44.30822" lon="5.81495">
        <ele>606</ele>
        <time>2019-06-07T10:17:45Z</time>
      </trkpt>
      <trkpt lat="44.30819" lon="5.8151">
        <ele>606</ele>
        <time>2019-06-07T10:17:46Z</time>
      </trkpt>
      <trkpt lat="44.30816" lon="5.81526">
        <ele>605</ele>
        <time>2019-06-07T10:17:47Z</time>
      </trkpt>
      <trkpt lat="44.30813" lon="5.81542">
        <ele>604</ele>
        <time>2019-06-07T10:17:48Z</time>
      </trkpt>
      <trkpt lat="44.30811" lon="5.81558">
        <ele>603</ele>
        <time>2019-06-07T10:17:49Z</time>
      </trkpt>
      <trkpt lat="44.30808" lon="5.81573">
        <ele>603</ele>
        <time>2019-06-07T10:17:50Z</time>
      </trkpt>
      <trkpt lat="44.30806" lon="5.81588">
        <ele>602</ele>
        <time>2019-06-07T10:17:51Z</time>
      </trkpt>
      <trkpt lat="44.30805" lon="5.81602">
        <ele>601</ele>
        <time>2019-06-07T10:17:52Z</time>
      </trkpt>
      <trkpt lat="44.30803" lon="5.81616">
        <ele>600</ele>
        <time>2019-06-07T10:17:53Z</time>
      </trkpt>
      <trkpt lat="44.30801" lon="5.81629">
        <ele>599</ele>
        <time>2019-06-07T10:17:54Z</time>
      </trkpt>
      <trkpt lat="44.30799" lon="5.81641">
        <ele>598</ele>
        <time>2019-06-07T10:17:55Z</time>
      </trkpt>
      <trkpt lat="44.30796" lon="5.81655">
        <ele>598</ele>
        <time>2019-06-07T10:17:56Z</time>
      </trkpt>
      <trkpt lat="44.30794" lon="5.81668">
        <ele>597</ele>
        <time>2019-06-07T10:17:57Z</time>
      </trkpt>
      <trkpt lat="44.3079" lon="5.81681">
        <ele>596</ele>
        <time>2019-06-07T10:17:58Z</time>
      </trkpt>
      <trkpt lat="44.30787" lon="5.81694">
        <ele>595</ele>
        <time>2019-06-07T10:17:59Z</time>
      </trkpt>
      <trkpt lat="44.30783" lon="5.81706">
        <ele>594</ele>
        <time>2019-06-07T10:18:00Z</time>
      </trkpt>
      <trkpt lat="44.30779" lon="5.81719">
        <ele>593</ele>
        <time>2019-06-07T10:18:01Z</time>
      </trkpt>
      <trkpt lat="44.30774" lon="5.81731">
        <ele>592</ele>
        <time>2019-06-07T10:18:02Z</time>
      </trkpt>
      <trkpt lat="44.3077" lon="5.81742">
        <ele>592</ele>
        <time>2019-06-07T10:18:03Z</time>
      </trkpt>
      <trkpt lat="44.30766" lon="5.81753">
        <ele>591</ele>
        <time>2019-06-07T10:18:04Z</time>
      </trkpt>
      <trkpt lat="44.30762" lon="5.81765">
        <ele>590</ele>
        <time>2019-06-07T10:18:05Z</time>
      </trkpt>
      <trkpt lat="44.30759" lon="5.81776">
        <ele>590</ele>
        <time>2019-06-07T10:18:06Z</time>
      </trkpt>
      <trkpt lat="44.30756" lon="5.81788">
        <ele>589</ele>
        <time>2019-06-07T10:18:07Z</time>
      </trkpt>
      <trkpt lat="44.30752" lon="5.818">
        <ele>588</ele>
        <time>2019-06-07T10:18:08Z</time>
      </trkpt>
      <trkpt lat="44.30748" lon="5.81812">
        <ele>587</ele>
        <time>2019-06-07T10:18:09Z</time>
      </trkpt>
      <trkpt lat="44.30745" lon="5.81824">
        <ele>587</ele>
        <time>2019-06-07T10:18:10Z</time>
      </trkpt>
      <trkpt lat="44.30741" lon="5.81836">
        <ele>586</ele>
        <time>2019-06-07T10:18:11Z</time>
      </trkpt>
      <trkpt lat="44.30738" lon="5.81847">
        <ele>585</ele>
        <time>2019-06-07T10:18:12Z</time>
      </trkpt>
      <trkpt lat="44.30735" lon="5.81858">
        <ele>585</ele>
        <time>2019-06-07T10:18:13Z</time>
      </trkpt>
      <trkpt lat="44.30733" lon="5.81869">
        <ele>584</ele>
        <time>2019-06-07T10:18:14Z</time>
      </trkpt>
      <trkpt lat="44.3073" lon="5.8188">
        <ele>584</ele>
        <time>2019-06-07T10:18:15Z</time>
      </trkpt>
      <trkpt lat="44.30729" lon="5.81891">
        <ele>583</ele>
        <time>2019-06-07T10:18:16Z</time>
      </trkpt>
      <trkpt lat="44.30726" lon="5.81902">
        <ele>582</ele>
        <time>2019-06-07T10:18:17Z</time>
      </trkpt>
      <trkpt lat="44.30724" lon="5.81913">
        <ele>582</ele>
        <time>2019-06-07T10:18:18Z</time>
      </trkpt>
      <trkpt lat="44.30722" lon="5.81924">
        <ele>581</ele>
        <time>2019-06-07T10:18:19Z</time>
      </trkpt>
      <trkpt lat="44.30719" lon="5.81935">
        <ele>581</ele>
        <time>2019-06-07T10:18:20Z</time>
      </trkpt>
      <trkpt lat="44.30717" lon="5.81946">
        <ele>580</ele>
        <time>2019-06-07T10:18:21Z</time>
      </trkpt>
      <trkpt lat="44.30716" lon="5.81956">
        <ele>579</ele>
        <time>2019-06-07T10:18:22Z</time>
      </trkpt>
      <trkpt lat="44.30713" lon="5.81966">
        <ele>578</ele>
        <time>2019-06-07T10:18:23Z</time>
      </trkpt>
      <trkpt lat="44.30711" lon="5.81977">
        <ele>578</ele>
        <time>2019-06-07T10:18:24Z</time>
      </trkpt>
      <trkpt lat="44.30709" lon="5.81988">
        <ele>577</ele>
        <time>2019-06-07T10:18:25Z</time>
      </trkpt>
      <trkpt lat="44.30708" lon="5.81999">
        <ele>576</ele>
        <time>2019-06-07T10:18:26Z</time>
      </trkpt>
      <trkpt lat="44.30706" lon="5.82011">
        <ele>575</ele>
        <time>2019-06-07T10:18:27Z</time>
      </trkpt>
      <trkpt lat="44.30706" lon="5.82024">
        <ele>574</ele>
        <time>2019-06-07T10:18:28Z</time>
      </trkpt>
      <trkpt lat="44.30706" lon="5.82036">
        <ele>573</ele>
        <time>2019-06-07T10:18:29Z</time>
      </trkpt>
      <trkpt lat="44.30707" lon="5.82049">
        <ele>572</ele>
        <time>2019-06-07T10:18:30Z</time>
      </trkpt>
      <trkpt lat="44.30708" lon="5.8206">
        <ele>572</ele>
        <time>2019-06-07T10:18:31Z</time>
      </trkpt>
      <trkpt lat="44.3071" lon="5.82072">
        <ele>571</ele>
        <time>2019-06-07T10:18:32Z</time>
      </trkpt>
      <trkpt lat="44.30712" lon="5.82083">
        <ele>571</ele>
        <time>2019-06-07T10:18:33Z</time>
      </trkpt>
      <trkpt lat="44.30714" lon="5.82093">
        <ele>571</ele>
        <time>2019-06-07T10:18:34Z</time>
      </trkpt>
      <trkpt lat="44.30716" lon="5.82104">
        <ele>570</ele>
        <time>2019-06-07T10:18:35Z</time>
      </trkpt>
      <trkpt lat="44.30718" lon="5.82115">
        <ele>570</ele>
        <time>2019-06-07T10:18:36Z</time>
      </trkpt>
      <trkpt lat="44.30719" lon="5.82126">
        <ele>570</ele>
        <time>2019-06-07T10:18:37Z</time>
      </trkpt>
      <trkpt lat="44.30718" lon="5.82137">
        <ele>569</ele>
        <time>2019-06-07T10:18:38Z</time>
      </trkpt>
      <trkpt lat="44.30717" lon="5.82148">
        <ele>569</ele>
        <time>2019-06-07T10:18:39Z</time>
      </trkpt>
      <trkpt lat="44.30714" lon="5.82158">
        <ele>569</ele>
        <time>2019-06-07T10:18:40Z</time>
      </trkpt>
      <trkpt lat="44.30712" lon="5.82167">
        <ele>568</ele>
        <time>2019-06-07T10:18:41Z</time>
      </trkpt>
      <trkpt lat="44.30709" lon="5.82176">
        <ele>567</ele>
        <time>2019-06-07T10:18:42Z</time>
      </trkpt>
      <trkpt lat="44.30705" lon="5.82184">
        <ele>567</ele>
        <time>2019-06-07T10:18:43Z</time>
      </trkpt>
      <trkpt lat="44.30702" lon="5.82192">
        <ele>566</ele>
        <time>2019-06-07T10:18:44Z</time>
      </trkpt>
      <trkpt lat="44.30698" lon="5.82198">
        <ele>565</ele>
        <time>2019-06-07T10:18:45Z</time>
      </trkpt>
      <trkpt lat="44.30693" lon="5.82204">
        <ele>564</ele>
        <time>2019-06-07T10:18:46Z</time>
      </trkpt>
      <trkpt lat="44.30689" lon="5.82209">
        <ele>564</ele>
        <time>2019-06-07T10:18:47Z</time>
      </trkpt>
      <trkpt lat="44.30686" lon="5.82213">
        <ele>563</ele>
        <time>2019-06-07T10:18:48Z</time>
      </trkpt>
      <trkpt lat="44.30684" lon="5.82219">
        <ele>563</ele>
        <time>2019-06-07T10:18:49Z</time>
      </trkpt>
      <trkpt lat="44.30683" lon="5.82223">
        <ele>562</ele>
        <time>2019-06-07T10:18:50Z</time>
      </trkpt>
      <trkpt lat="44.30684" lon="5.82227">
        <ele>561</ele>
        <time>2019-06-07T10:18:51Z</time>
      </trkpt>
      <trkpt lat="44.30686" lon="5.82229">
        <ele>561</ele>
        <time>2019-06-07T10:18:52Z</time>
      </trkpt>
      <trkpt lat="44.30689" lon="5.82231">
        <ele>560</ele>
        <time>2019-06-07T10:18:53Z</time>
      </trkpt>
      <trkpt lat="44.30693" lon="5.82231">
        <ele>559</ele>
        <time>2019-06-07T10:18:54Z</time>
      </trkpt>
      <trkpt lat="44.30698" lon="5.8223">
        <ele>559</ele>
        <time>2019-06-07T10:18:55Z</time>
      </trkpt>
      <trkpt lat="44.30702" lon="5.82227">
        <ele>559</ele>
        <time>2019-06-07T10:18:56Z</time>
      </trkpt>
      <trkpt lat="44.30706" lon="5.82222">
        <ele>559</ele>
        <time>2019-06-07T10:18:57Z</time>
      </trkpt>
      <trkpt lat="44.3071" lon="5.82217">
        <ele>559</ele>
        <time>2019-06-07T10:18:58Z</time>
      </trkpt>
      <trkpt lat="44.30714" lon="5.8221">
        <ele>559</ele>
        <time>2019-06-07T10:18:59Z</time>
      </trkpt>
      <trkpt lat="44.30717" lon="5.82204">
        <ele>559</ele>
        <time>2019-06-07T10:19:00Z</time>
      </trkpt>
      <trkpt lat="44.3072" lon="5.82197">
        <ele>559</ele>
        <time>2019-06-07T10:19:01Z</time>
      </trkpt>
      <trkpt lat="44.30723" lon="5.82189">
        <ele>559</ele>
        <time>2019-06-07T10:19:02Z</time>
      </trkpt>
      <trkpt lat="44.30726" lon="5.82182">
        <ele>559</ele>
        <time>2019-06-07T10:19:03Z</time>
      </trkpt>
      <trkpt lat="44.30728" lon="5.82174">
        <ele>559</ele>
        <time>2019-06-07T10:19:04Z</time>
      </trkpt>
      <trkpt lat="44.30731" lon="5.82166">
        <ele>559</ele>
        <time>2019-06-07T10:19:05Z</time>
      </trkpt>
      <trkpt lat="44.30733" lon="5.82158">
        <ele>559</ele>
        <time>2019-06-07T10:19:06Z</time>
      </trkpt>
      <trkpt lat="44.30736" lon="5.82149">
        <ele>559</ele>
        <time>2019-06-07T10:19:07Z</time>
      </trkpt>
      <trkpt lat="44.30738" lon="5.8214">
        <ele>559</ele>
        <time>2019-06-07T10:19:08Z</time>
      </trkpt>
      <trkpt lat="44.30741" lon="5.82132">
        <ele>559</ele>
        <time>2019-06-07T10:19:09Z</time>
      </trkpt>
      <trkpt lat="44.30744" lon="5.82123">
        <ele>559</ele>
        <time>2019-06-07T10:19:10Z</time>
      </trkpt>
      <trkpt lat="44.30747" lon="5.82115">
        <ele>559</ele>
        <time>2019-06-07T10:19:11Z</time>
      </trkpt>
      <trkpt lat="44.30751" lon="5.82107">
        <ele>559</ele>
        <time>2019-06-07T10:19:12Z</time>
      </trkpt>
      <trkpt lat="44.30756" lon="5.82101">
        <ele>559</ele>
        <time>2019-06-07T10:19:13Z</time>
      </trkpt>
      <trkpt lat="44.30762" lon="5.82095">
        <ele>559</ele>
        <time>2019-06-07T10:19:14Z</time>
      </trkpt>
      <trkpt lat="44.30767" lon="5.8209">
        <ele>558</ele>
        <time>2019-06-07T10:19:15Z</time>
      </trkpt>
      <trkpt lat="44.30773" lon="5.82085">
        <ele>558</ele>
        <time>2019-06-07T10:19:16Z</time>
      </trkpt>
      <trkpt lat="44.30779" lon="5.82082">
        <ele>558</ele>
        <time>2019-06-07T10:19:17Z</time>
      </trkpt>
      <trkpt lat="44.30785" lon="5.82079">
        <ele>558</ele>
        <time>2019-06-07T10:19:18Z</time>
      </trkpt>
      <trkpt lat="44.30791" lon="5.82077">
        <ele>558</ele>
        <time>2019-06-07T10:19:19Z</time>
      </trkpt>
      <trkpt lat="44.30797" lon="5.82075">
        <ele>558</ele>
        <time>2019-06-07T10:19:20Z</time>
      </trkpt>
      <trkpt lat="44.30803" lon="5.82074">
        <ele>558</ele>
        <time>2019-06-07T10:19:21Z</time>
      </trkpt>
      <trkpt lat="44.30808" lon="5.82072">
        <ele>558</ele>
        <time>2019-06-07T10:19:22Z</time>
      </trkpt>
      <trkpt lat="44.30814" lon="5.82071">
        <ele>558</ele>
        <time>2019-06-07T10:19:23Z</time>
      </trkpt>
      <trkpt lat="44.30819" lon="5.82069">
        <ele>558</ele>
        <time>2019-06-07T10:19:24Z</time>
      </trkpt>
      <trkpt lat="44.30825" lon="5.82068">
        <ele>558</ele>
        <time>2019-06-07T10:19:25Z</time>
      </trkpt>
      <trkpt lat="44.3083" lon="5.82067">
        <ele>558</ele>
        <time>2019-06-07T10:19:26Z</time>
      </trkpt>
      <trkpt lat="44.30836" lon="5.82066">
        <ele>558</ele>
        <time>2019-06-07T10:19:27Z</time>
      </trkpt>
      <trkpt lat="44.30841" lon="5.82064">
        <ele>558</ele>
        <time>2019-06-07T10:19:28Z</time>
      </trkpt>
      <trkpt lat="44.30847" lon="5.82062">
        <ele>558</ele>
        <time>2019-06-07T10:19:29Z</time>
      </trkpt>
      <trkpt lat="44.30853" lon="5.8206">
        <ele>558</ele>
        <time>2019-06-07T10:19:30Z</time>
      </trkpt>
      <trkpt lat="44.30858" lon="5.82058">
        <ele>558</ele>
        <time>2019-06-07T10:19:31Z</time>
      </trkpt>
      <trkpt lat="44.30864" lon="5.82056">
        <ele>558</ele>
        <time>2019-06-07T10:19:32Z</time>
      </trkpt>
      <trkpt lat="44.30869" lon="5.82054">
        <ele>558</ele>
        <time>2019-06-07T10:19:33Z</time>
      </trkpt>
      <trkpt lat="44.30874" lon="5.82053">
        <ele>558</ele>
        <time>2019-06-07T10:19:34Z</time>
      </trkpt>
      <trkpt lat="44.30878" lon="5.82051">
        <ele>558</ele>
        <time>2019-06-07T10:19:35Z</time>
      </trkpt>
      <trkpt lat="44.30883" lon="5.8205">
        <ele>558</ele>
        <time>2019-06-07T10:19:36Z</time>
      </trkpt>
      <trkpt lat="44.30887" lon="5.82048">
        <ele>557</ele>
        <time>2019-06-07T10:19:37Z</time>
      </trkpt>
      <trkpt lat="44.3089" lon="5.82047">
        <ele>557</ele>
        <time>2019-06-07T10:19:38Z</time>
      </trkpt>
      <trkpt lat="44.30893" lon="5.82046">
        <ele>557</ele>
        <time>2019-06-07T10:19:39Z</time>
      </trkpt>
      <trkpt lat="44.30897" lon="5.82045">
        <ele>556</ele>
        <time>2019-06-07T10:19:40Z</time>
      </trkpt>
      <trkpt lat="44.309" lon="5.82044">
        <ele>556</ele>
        <time>2019-06-07T10:19:41Z</time>
      </trkpt>
      <trkpt lat="44.30902" lon="5.82044">
        <ele>556</ele>
        <time>2019-06-07T10:19:42Z</time>
      </trkpt>
      <trkpt lat="44.30904" lon="5.82043">
        <ele>555</ele>
        <time>2019-06-07T10:19:43Z</time>
      </trkpt>
      <trkpt lat="44.30907" lon="5.82042">
        <ele>555</ele>
        <time>2019-06-07T10:19:44Z</time>
      </trkpt>
      <trkpt lat="44.30908" lon="5.82042">
        <ele>555</ele>
        <time>2019-06-07T10:19:45Z</time>
      </trkpt>
      <trkpt lat="44.3091" lon="5.82041">
        <ele>555</ele>
        <time>2019-06-07T10:19:46Z</time>
      </trkpt>
      <trkpt lat="44.30911" lon="5.82041">
        <ele>555</ele>
        <time>2019-06-07T10:19:47Z</time>
      </trkpt>
      <trkpt lat="44.30913" lon="5.82041">
        <ele>555</ele>
        <time>2019-06-07T10:19:49Z</time>
      </trkpt>
      <trkpt lat="44.30912" lon="5.8204">
        <ele>555</ele>
        <time>2019-06-07T10:20:06Z</time>
      </trkpt>
      <trkpt lat="44.3091" lon="5.8204">
        <ele>555</ele>
        <time>2019-06-07T10:20:16Z</time>
      </trkpt>
      <trkpt lat="44.30912" lon="5.82041">
        <ele>555</ele>
        <time>2019-06-07T10:20:25Z</time>
      </trkpt>
      <trkpt lat="44.30914" lon="5.82041">
        <ele>555</ele>
        <time>2019-06-07T10:20:28Z</time>
      </trkpt>
      <trkpt lat="44.30915" lon="5.8204">
        <ele>555</ele>
        <time>2019-06-07T10:21:04Z</time>
      </trkpt>
      <trkpt lat="44.30917" lon="5.8204">
        <ele>555</ele>
        <time>2019-06-07T10:21:10Z</time>
      </trkpt>
      <trkpt lat="44.30919" lon="5.8204">
        <ele>555</ele>
        <time>2019-06-07T10:21:11Z</time>
      </trkpt>
      <trkpt lat="44.30922" lon="5.82039">
        <ele>555</ele>
        <time>2019-06-07T10:21:12Z</time>
      </trkpt>
      <trkpt lat="44.30925" lon="5.82039">
        <ele>555</ele>
        <time>2019-06-07T10:21:13Z</time>
      </trkpt>
      <trkpt lat="44.30928" lon="5.82038">
        <ele>555</ele>
        <time>2019-06-07T10:21:14Z</time>
      </trkpt>
      <trkpt lat="44.30932" lon="5.82037">
        <ele>555</ele>
        <time>2019-06-07T10:21:15Z</time>
      </trkpt>
      <trkpt lat="44.30937" lon="5.82038">
        <ele>555</ele>
        <time>2019-06-07T10:21:16Z</time>
      </trkpt>
      <trkpt lat="44.30943" lon="5.82039">
        <ele>555</ele>
        <time>2019-06-07T10:21:17Z</time>
      </trkpt>
      <trkpt lat="44.30949" lon="5.82042">
        <ele>555</ele>
        <time>2019-06-07T10:21:18Z</time>
      </trkpt>
      <trkpt lat="44.30954" lon="5.82045">
        <ele>555</ele>
        <time>2019-06-07T10:21:19Z</time>
      </trkpt>
      <trkpt lat="44.3096" lon="5.82048">
        <ele>555</ele>
        <time>2019-06-07T10:21:20Z</time>
      </trkpt>
      <trkpt lat="44.30965" lon="5.82052">
        <ele>555</ele>
        <time>2019-06-07T10:21:21Z</time>
      </trkpt>
      <trkpt lat="44.30972" lon="5.82055">
        <ele>555</ele>
        <time>2019-06-07T10:21:22Z</time>
      </trkpt>
      <trkpt lat="44.30977" lon="5.8206">
        <ele>555</ele>
        <time>2019-06-07T10:21:23Z</time>
      </trkpt>
      <trkpt lat="44.30983" lon="5.82064">
        <ele>555</ele>
        <time>2019-06-07T10:21:24Z</time>
      </trkpt>
      <trkpt lat="44.30989" lon="5.82069">
        <ele>555</ele>
        <time>2019-06-07T10:21:25Z</time>
      </trkpt>
      <trkpt lat="44.30994" lon="5.82074">
        <ele>555</ele>
        <time>2019-06-07T10:21:26Z</time>
      </trkpt>
      <trkpt lat="44.31" lon="5.8208">
        <ele>555</ele>
        <time>2019-06-07T10:21:27Z</time>
      </trkpt>
      <trkpt lat="44.31005" lon="5.82086">
        <ele>555</ele>
        <time>2019-06-07T10:21:28Z</time>
      </trkpt>
      <trkpt lat="44.3101" lon="5.82093">
        <ele>555</ele>
        <time>2019-06-07T10:21:29Z</time>
      </trkpt>
      <trkpt lat="44.31015" lon="5.82099">
        <ele>555</ele>
        <time>2019-06-07T10:21:30Z</time>
      </trkpt>
      <trkpt lat="44.3102" lon="5.82106">
        <ele>555</ele>
        <time>2019-06-07T10:21:31Z</time>
      </trkpt>
      <trkpt lat="44.31025" lon="5.82112">
        <ele>555</ele>
        <time>2019-06-07T10:21:32Z</time>
      </trkpt>
      <trkpt lat="44.31031" lon="5.82119">
        <ele>555</ele>
        <time>2019-06-07T10:21:33Z</time>
      </trkpt>
      <trkpt lat="44.31036" lon="5.82125">
        <ele>555</ele>
        <time>2019-06-07T10:21:34Z</time>
      </trkpt>
      <trkpt lat="44.3104" lon="5.82131">
        <ele>555</ele>
        <time>2019-06-07T10:21:35Z</time>
      </trkpt>
      <trkpt lat="44.31045" lon="5.82137">
        <ele>555</ele>
        <time>2019-06-07T10:21:36Z</time>
      </trkpt>
      <trkpt lat="44.3105" lon="5.82144">
        <ele>555</ele>
        <time>2019-06-07T10:21:37Z</time>
      </trkpt>
      <trkpt lat="44.31055" lon="5.8215">
        <ele>555</ele>
        <time>2019-06-07T10:21:38Z</time>
      </trkpt>
      <trkpt lat="44.31061" lon="5.82156">
        <ele>555</ele>
        <time>2019-06-07T10:21:39Z</time>
      </trkpt>
      <trkpt lat="44.31066" lon="5.82162">
        <ele>555</ele>
        <time>2019-06-07T10:21:40Z</time>
      </trkpt>
      <trkpt lat="44.31071" lon="5.82168">
        <ele>555</ele>
        <time>2019-06-07T10:21:41Z</time>
      </trkpt>
      <trkpt lat="44.31076" lon="5.82175">
        <ele>555</ele>
        <time>2019-06-07T10:21:42Z</time>
      </trkpt>
      <trkpt lat="44.3108" lon="5.82182">
        <ele>555</ele>
        <time>2019-06-07T10:21:43Z</time>
      </trkpt>
      <trkpt lat="44.31084" lon="5.82189">
        <ele>555</ele>
        <time>2019-06-07T10:21:44Z</time>
      </trkpt>
      <trkpt lat="44.31089" lon="5.82195">
        <ele>555</ele>
        <time>2019-06-07T10:21:45Z</time>
      </trkpt>
      <trkpt lat="44.31094" lon="5.82202">
        <ele>555</ele>
        <time>2019-06-07T10:21:46Z</time>
      </trkpt>
      <trkpt lat="44.31098" lon="5.82208">
        <ele>555</ele>
        <time>2019-06-07T10:21:47Z</time>
      </trkpt>
      <trkpt lat="44.31103" lon="5.82215">
        <ele>555</ele>
        <time>2019-06-07T10:21:48Z</time>
      </trkpt>
      <trkpt lat="44.31107" lon="5.82221">
        <ele>555</ele>
        <time>2019-06-07T10:21:49Z</time>
      </trkpt>
      <trkpt lat="44.31112" lon="5.82227">
        <ele>555</ele>
        <time>2019-06-07T10:21:50Z</time>
      </trkpt>
      <trkpt lat="44.31116" lon="5.82233">
        <ele>555</ele>
        <time>2019-06-07T10:21:51Z</time>
      </trkpt>
      <trkpt lat="44.3112" lon="5.82239">
        <ele>555</ele>
        <time>2019-06-07T10:21:52Z</time>
      </trkpt>
      <trkpt lat="44.31125" lon="5.82244">
        <ele>555</ele>
        <time>2019-06-07T10:21:53Z</time>
      </trkpt>
      <trkpt lat="44.31129" lon="5.82249">
        <ele>555</ele>
        <time>2019-06-07T10:21:54Z</time>
      </trkpt>
      <trkpt lat="44.31133" lon="5.82254">
        <ele>555</ele>
        <time>2019-06-07T10:21:55Z</time>
      </trkpt>
      <trkpt lat="44.31137" lon="5.82259">
        <ele>555</ele>
        <time>2019-06-07T10:21:56Z</time>
      </trkpt>
      <trkpt lat="44.31142" lon="5.82264">
        <ele>555</ele>
        <time>2019-06-07T10:21:57Z</time>
      </trkpt>
      <trkpt lat="44.31145" lon="5.82269">
        <ele>555</ele>
        <time>2019-06-07T10:21:58Z</time>
      </trkpt>
      <trkpt lat="44.31149" lon="5.82274">
        <ele>555</ele>
        <time>2019-06-07T10:21:59Z</time>
      </trkpt>
      <trkpt lat="44.31151" lon="5.82281">
        <ele>555</ele>
        <time>2019-06-07T10:22:00Z</time>
      </trkpt>
      <trkpt lat="44.31152" lon="5.82289">
        <ele>555</ele>
        <time>2019-06-07T10:22:01Z</time>
      </trkpt>
      <trkpt lat="44.31151" lon="5.82296">
        <ele>555</ele>
        <time>2019-06-07T10:22:02Z</time>
      </trkpt>
      <trkpt lat="44.31148" lon="5.82303">
        <ele>555</ele>
        <time>2019-06-07T10:22:03Z</time>
      </trkpt>
      <trkpt lat="44.31144" lon="5.82309">
        <ele>555</ele>
        <time>2019-06-07T10:22:04Z</time>
      </trkpt>
      <trkpt lat="44.3114" lon="5.82315">
        <ele>555</ele>
        <time>2019-06-07T10:22:05Z</time>
      </trkpt>
      <trkpt lat="44.31136" lon="5.82321">
        <ele>555</ele>
        <time>2019-06-07T10:22:06Z</time>
      </trkpt>
      <trkpt lat="44.31131" lon="5.82327">
        <ele>555</ele>
        <time>2019-06-07T10:22:07Z</time>
      </trkpt>
      <trkpt lat="44.31127" lon="5.82333">
        <ele>555</ele>
        <time>2019-06-07T10:22:08Z</time>
      </trkpt>
      <trkpt lat="44.31122" lon="5.82339">
        <ele>555</ele>
        <time>2019-06-07T10:22:09Z</time>
      </trkpt>
      <trkpt lat="44.31118" lon="5.82346">
        <ele>555</ele>
        <time>2019-06-07T10:22:10Z</time>
      </trkpt>
      <trkpt lat="44.31115" lon="5.82353">
        <ele>555</ele>
        <time>2019-06-07T10:22:11Z</time>
      </trkpt>
      <trkpt lat="44.31111" lon="5.82361">
        <ele>555</ele>
        <time>2019-06-07T10:22:12Z</time>
      </trkpt>
      <trkpt lat="44.31109" lon="5.82369">
        <ele>555</ele>
        <time>2019-06-07T10:22:13Z</time>
      </trkpt>
      <trkpt lat="44.31108" lon="5.82377">
        <ele>555</ele>
        <time>2019-06-07T10:22:14Z</time>
      </trkpt>
      <trkpt lat="44.31107" lon="5.82386">
        <ele>555</ele>
        <time>2019-06-07T10:22:15Z</time>
      </trkpt>
      <trkpt lat="44.31107" lon="5.82394">
        <ele>555</ele>
        <time>2019-06-07T10:22:16Z</time>
      </trkpt>
      <trkpt lat="44.31107" lon="5.82402">
        <ele>555</ele>
        <time>2019-06-07T10:22:17Z</time>
      </trkpt>
      <trkpt lat="44.31105" lon="5.82409">
        <ele>555</ele>
        <time>2019-06-07T10:22:18Z</time>
      </trkpt>
      <trkpt lat="44.31103" lon="5.82416">
        <ele>555</ele>
        <time>2019-06-07T10:22:19Z</time>
      </trkpt>
      <trkpt lat="44.311" lon="5.82422">
        <ele>555</ele>
        <time>2019-06-07T10:22:20Z</time>
      </trkpt>
      <trkpt lat="44.31097" lon="5.82428">
        <ele>555</ele>
        <time>2019-06-07T10:22:21Z</time>
      </trkpt>
      <trkpt lat="44.31094" lon="5.82433">
        <ele>555</ele>
        <time>2019-06-07T10:22:22Z</time>
      </trkpt>
      <trkpt lat="44.31091" lon="5.82437">
        <ele>555</ele>
        <time>2019-06-07T10:22:23Z</time>
      </trkpt>
      <trkpt lat="44.31089" lon="5.82443">
        <ele>555</ele>
        <time>2019-06-07T10:22:24Z</time>
      </trkpt>
      <trkpt lat="44.31086" lon="5.82449">
        <ele>555</ele>
        <time>2019-06-07T10:22:25Z</time>
      </trkpt>
      <trkpt lat="44.31083" lon="5.82456">
        <ele>555</ele>
        <time>2019-06-07T10:22:26Z</time>
      </trkpt>
      <trkpt lat="44.3108" lon="5.82463">
        <ele>555</ele>
        <time>2019-06-07T10:22:27Z</time>
      </trkpt>
      <trkpt lat="44.31077" lon="5.82471">
        <ele>555</ele>
        <time>2019-06-07T10:22:28Z</time>
      </trkpt>
      <trkpt lat="44.31075" lon="5.82478">
        <ele>555</ele>
        <time>2019-06-07T10:22:29Z</time>
      </trkpt>
      <trkpt lat="44.31073" lon="5.82487">
        <ele>555</ele>
        <time>2019-06-07T10:22:30Z</time>
      </trkpt>
      <trkpt lat="44.31073" lon="5.82496">
        <ele>555</ele>
        <time>2019-06-07T10:22:31Z</time>
      </trkpt>
      <trkpt lat="44.31074" lon="5.82504">
        <ele>555</ele>
        <time>2019-06-07T10:22:32Z</time>
      </trkpt>
      <trkpt lat="44.31076" lon="5.82512">
        <ele>555</ele>
        <time>2019-06-07T10:22:33Z</time>
      </trkpt>
      <trkpt lat="44.31079" lon="5.82518">
        <ele>555</ele>
        <time>2019-06-07T10:22:34Z</time>
      </trkpt>
      <trkpt lat="44.31084" lon="5.82524">
        <ele>555</ele>
        <time>2019-06-07T10:22:35Z</time>
      </trkpt>
      <trkpt lat="44.31089" lon="5.82529">
        <ele>555</ele>
        <time>2019-06-07T10:22:36Z</time>
      </trkpt>
      <trkpt lat="44.31094" lon="5.82533">
        <ele>555</ele>
        <time>2019-06-07T10:22:37Z</time>
      </trkpt>
      <trkpt lat="44.311" lon="5.82537">
        <ele>555</ele>
        <time>2019-06-07T10:22:38Z</time>
      </trkpt>
      <trkpt lat="44.31105" lon="5.82541">
        <ele>555</ele>
        <time>2019-06-07T10:22:39Z</time>
      </trkpt>
      <trkpt lat="44.31112" lon="5.82545">
        <ele>555</ele>
        <time>2019-06-07T10:22:40Z</time>
      </trkpt>
      <trkpt lat="44.31118" lon="5.82548">
        <ele>555</ele>
        <time>2019-06-07T10:22:41Z</time>
      </trkpt>
      <trkpt lat="44.31123" lon="5.82552">
        <ele>555</ele>
        <time>2019-06-07T10:22:42Z</time>
      </trkpt>
      <trkpt lat="44.31129" lon="5.82556">
        <ele>555</ele>
        <time>2019-06-07T10:22:43Z</time>
      </trkpt>
      <trkpt lat="44.31135" lon="5.82559">
        <ele>555</ele>
        <time>2019-06-07T10:22:44Z</time>
      </trkpt>
      <trkpt lat="44.31141" lon="5.82563">
        <ele>555</ele>
        <time>2019-06-07T10:22:45Z</time>
      </trkpt>
      <trkpt lat="44.31147" lon="5.82566">
        <ele>555</ele>
        <time>2019-06-07T10:22:46Z</time>
      </trkpt>
      <trkpt lat="44.31153" lon="5.82569">
        <ele>555</ele>
        <time>2019-06-07T10:22:47Z</time>
      </trkpt>
      <trkpt lat="44.31158" lon="5.82572">
        <ele>555</ele>
        <time>2019-06-07T10:22:48Z</time>
      </trkpt>
      <trkpt lat="44.31164" lon="5.82575">
        <ele>555</ele>
        <time>2019-06-07T10:22:49Z</time>
      </trkpt>
      <trkpt lat="44.3117" lon="5.82578">
        <ele>555</ele>
        <time>2019-06-07T10:22:50Z</time>
      </trkpt>
      <trkpt lat="44.31176" lon="5.82581">
        <ele>555</ele>
        <time>2019-06-07T10:22:51Z</time>
      </trkpt>
      <trkpt lat="44.31182" lon="5.82584">
        <ele>555</ele>
        <time>2019-06-07T10:22:52Z</time>
      </trkpt>
      <trkpt lat="44.31188" lon="5.82588">
        <ele>555</ele>
        <time>2019-06-07T10:22:53Z</time>
      </trkpt>
      <trkpt lat="44.31194" lon="5.82591">
        <ele>555</ele>
        <time>2019-06-07T10:22:54Z</time>
      </trkpt>
      <trkpt lat="44.31199" lon="5.82594">
        <ele>555</ele>
        <time>2019-06-07T10:22:55Z</time>
      </trkpt>
      <trkpt lat="44.31205" lon="5.82597">
        <ele>555</ele>
        <time>2019-06-07T10:22:56Z</time>
      </trkpt>
      <trkpt lat="44.31211" lon="5.82599">
        <ele>555</ele>
        <time>2019-06-07T10:22:57Z</time>
      </trkpt>
      <trkpt lat="44.31216" lon="5.82602">
        <ele>555</ele>
        <time>2019-06-07T10:22:58Z</time>
      </trkpt>
      <trkpt lat="44.31222" lon="5.82605">
        <ele>555</ele>
        <time>2019-06-07T10:22:59Z</time>
      </trkpt>
      <trkpt lat="44.31228" lon="5.82608">
        <ele>555</ele>
        <time>2019-06-07T10:23:00Z</time>
      </trkpt>
      <trkpt lat="44.31234" lon="5.82611">
        <ele>555</ele>
        <time>2019-06-07T10:23:01Z</time>
      </trkpt>
      <trkpt lat="44.31239" lon="5.82614">
        <ele>555</ele>
        <time>2019-06-07T10:23:02Z</time>
      </trkpt>
      <trkpt lat="44.31244" lon="5.82617">
        <ele>555</ele>
        <time>2019-06-07T10:23:03Z</time>
      </trkpt>
      <trkpt lat="44.3125" lon="5.8262">
        <ele>555</ele>
        <time>2019-06-07T10:23:04Z</time>
      </trkpt>
      <trkpt lat="44.31255" lon="5.82623">
        <ele>555</ele>
        <time>2019-06-07T10:23:05Z</time>
      </trkpt>
      <trkpt lat="44.3126" lon="5.82626">
        <ele>555</ele>
        <time>2019-06-07T10:23:06Z</time>
      </trkpt>
      <trkpt lat="44.31265" lon="5.8263">
        <ele>555</ele>
        <time>2019-06-07T10:23:07Z</time>
      </trkpt>
      <trkpt lat="44.3127" lon="5.82632">
        <ele>555</ele>
        <time>2019-06-07T10:23:08Z</time>
      </trkpt>
      <trkpt lat="44.31275" lon="5.82635">
        <ele>555</ele>
        <time>2019-06-07T10:23:09Z</time>
      </trkpt>
      <trkpt lat="44.3128" lon="5.82638">
        <ele>555</ele>
        <time>2019-06-07T10:23:10Z</time>
      </trkpt>
      <trkpt lat="44.31284" lon="5.82641">
        <ele>556</ele>
        <time>2019-06-07T10:23:11Z</time>
      </trkpt>
      <trkpt lat="44.31289" lon="5.82644">
        <ele>556</ele>
        <time>2019-06-07T10:23:12Z</time>
      </trkpt>
      <trkpt lat="44.31293" lon="5.82647">
        <ele>556</ele>
        <time>2019-06-07T10:23:13Z</time>
      </trkpt>
      <trkpt lat="44.31297" lon="5.8265">
        <ele>556</ele>
        <time>2019-06-07T10:23:14Z</time>
      </trkpt>
      <trkpt lat="44.31301" lon="5.82653">
        <ele>556</ele>
        <time>2019-06-07T10:23:15Z</time>
      </trkpt>
      <trkpt lat="44.31305" lon="5.82655">
        <ele>557</ele>
        <time>2019-06-07T10:23:16Z</time>
      </trkpt>
      <trkpt lat="44.31309" lon="5.82658">
        <ele>557</ele>
        <time>2019-06-07T10:23:17Z</time>
      </trkpt>
      <trkpt lat="44.31313" lon="5.8266">
        <ele>558</ele>
        <time>2019-06-07T10:23:18Z</time>
      </trkpt>
      <trkpt lat="44.31316" lon="5.82662">
        <ele>558</ele>
        <time>2019-06-07T10:23:19Z</time>
      </trkpt>
      <trkpt lat="44.31319" lon="5.82665">
        <ele>559</ele>
        <time>2019-06-07T10:23:20Z</time>
      </trkpt>
      <trkpt lat="44.31323" lon="5.82667">
        <ele>559</ele>
        <time>2019-06-07T10:23:21Z</time>
      </trkpt>
      <trkpt lat="44.31325" lon="5.82669">
        <ele>559</ele>
        <time>2019-06-07T10:23:22Z</time>
      </trkpt>
      <trkpt lat="44.31328" lon="5.8267">
        <ele>560</ele>
        <time>2019-06-07T10:23:23Z</time>
      </trkpt>
      <trkpt lat="44.3133" lon="5.82671">
        <ele>560</ele>
        <time>2019-06-07T10:23:24Z</time>
      </trkpt>
      <trkpt lat="44.31334" lon="5.82673">
        <ele>560</ele>
        <time>2019-06-07T10:23:25Z</time>
      </trkpt>
      <trkpt lat="44.31337" lon="5.82673">
        <ele>560</ele>
        <time>2019-06-07T10:23:26Z</time>
      </trkpt>
      <trkpt lat="44.3134" lon="5.82675">
        <ele>560</ele>
        <time>2019-06-07T10:23:27Z</time>
      </trkpt>
      <trkpt lat="44.31343" lon="5.82676">
        <ele>561</ele>
        <time>2019-06-07T10:23:28Z</time>
      </trkpt>
      <trkpt lat="44.31347" lon="5.82678">
        <ele>561</ele>
        <time>2019-06-07T10:23:29Z</time>
      </trkpt>
      <trkpt lat="44.3135" lon="5.8268">
        <ele>561</ele>
        <time>2019-06-07T10:23:30Z</time>
      </trkpt>
      <trkpt lat="44.31353" lon="5.82683">
        <ele>561</ele>
        <time>2019-06-07T10:23:31Z</time>
      </trkpt>
      <trkpt lat="44.31356" lon="5.82687">
        <ele>562</ele>
        <time>2019-06-07T10:23:32Z</time>
      </trkpt>
      <trkpt lat="44.31358" lon="5.82691">
        <ele>562</ele>
        <time>2019-06-07T10:23:33Z</time>
      </trkpt>
      <trkpt lat="44.3136" lon="5.82695">
        <ele>562</ele>
        <time>2019-06-07T10:23:34Z</time>
      </trkpt>
      <trkpt lat="44.31363" lon="5.82699">
        <ele>562</ele>
        <time>2019-06-07T10:23:35Z</time>
      </trkpt>
      <trkpt lat="44.31366" lon="5.82703">
        <ele>562</ele>
        <time>2019-06-07T10:23:36Z</time>
      </trkpt>
      <trkpt lat="44.31369" lon="5.82708">
        <ele>562</ele>
        <time>2019-06-07T10:23:37Z</time>
      </trkpt>
      <trkpt lat="44.31372" lon="5.82712">
        <ele>562</ele>
        <time>2019-06-07T10:23:38Z</time>
      </trkpt>
      <trkpt lat="44.31374" lon="5.82718">
        <ele>562</ele>
        <time>2019-06-07T10:23:39Z</time>
      </trkpt>
      <trkpt lat="44.31376" lon="5.82724">
        <ele>562</ele>
        <time>2019-06-07T10:23:40Z</time>
      </trkpt>
      <trkpt lat="44.31378" lon="5.8273">
        <ele>562</ele>
        <time>2019-06-07T10:23:41Z</time>
      </trkpt>
      <trkpt lat="44.31379" lon="5.82736">
        <ele>562</ele>
        <time>2019-06-07T10:23:42Z</time>
      </trkpt>
      <trkpt lat="44.31379" lon="5.82742">
        <ele>562</ele>
        <time>2019-06-07T10:23:43Z</time>
      </trkpt>
      <trkpt lat="44.31379" lon="5.82749">
        <ele>562</ele>
        <time>2019-06-07T10:23:44Z</time>
      </trkpt>
      <trkpt lat="44.31379" lon="5.82756">
        <ele>562</ele>
        <time>2019-06-07T10:23:45Z</time>
      </trkpt>
      <trkpt lat="44.31379" lon="5.82762">
        <ele>563</ele>
        <time>2019-06-07T10:23:46Z</time>
      </trkpt>
      <trkpt lat="44.31379" lon="5.82769">
        <ele>563</ele>
        <time>2019-06-07T10:23:47Z</time>
      </trkpt>
      <trkpt lat="44.31379" lon="5.82775">
        <ele>563</ele>
        <time>2019-06-07T10:23:48Z</time>
      </trkpt>
      <trkpt lat="44.31379" lon="5.82782">
        <ele>563</ele>
        <time>2019-06-07T10:23:49Z</time>
      </trkpt>
      <trkpt lat="44.31379" lon="5.82788">
        <ele>563</ele>
        <time>2019-06-07T10:23:50Z</time>
      </trkpt>
      <trkpt lat="44.31378" lon="5.82795">
        <ele>563</ele>
        <time>2019-06-07T10:23:51Z</time>
      </trkpt>
      <trkpt lat="44.31378" lon="5.82802">
        <ele>563</ele>
        <time>2019-06-07T10:23:52Z</time>
      </trkpt>
      <trkpt lat="44.31377" lon="5.82808">
        <ele>563</ele>
        <time>2019-06-07T10:23:53Z</time>
      </trkpt>
      <trkpt lat="44.31377" lon="5.82815">
        <ele>563</ele>
        <time>2019-06-07T10:23:54Z</time>
      </trkpt>
      <trkpt lat="44.31376" lon="5.82822">
        <ele>563</ele>
        <time>2019-06-07T10:23:55Z</time>
      </trkpt>
      <trkpt lat="44.31376" lon="5.82829">
        <ele>563</ele>
        <time>2019-06-07T10:23:56Z</time>
      </trkpt>
      <trkpt lat="44.31375" lon="5.82835">
        <ele>563</ele>
        <time>2019-06-07T10:23:57Z</time>
      </trkpt>
      <trkpt lat="44.31374" lon="5.82842">
        <ele>563</ele>
        <time>2019-06-07T10:23:58Z</time>
      </trkpt>
      <trkpt lat="44.31374" lon="5.82849">
        <ele>563</ele>
        <time>2019-06-07T10:23:59Z</time>
      </trkpt>
      <trkpt lat="44.31374" lon="5.82856">
        <ele>563</ele>
        <time>2019-06-07T10:24:00Z</time>
      </trkpt>
      <trkpt lat="44.31373" lon="5.82863">
        <ele>563</ele>
        <time>2019-06-07T10:24:01Z</time>
      </trkpt>
      <trkpt lat="44.31372" lon="5.82869">
        <ele>563</ele>
        <time>2019-06-07T10:24:02Z</time>
      </trkpt>
      <trkpt lat="44.31371" lon="5.82876">
        <ele>563</ele>
        <time>2019-06-07T10:24:03Z</time>
      </trkpt>
      <trkpt lat="44.3137" lon="5.82883">
        <ele>563</ele>
        <time>2019-06-07T10:24:04Z</time>
      </trkpt>
      <trkpt lat="44.31369" lon="5.8289">
        <ele>563</ele>
        <time>2019-06-07T10:24:05Z</time>
      </trkpt>
      <trkpt lat="44.31368" lon="5.82897">
        <ele>563</ele>
        <time>2019-06-07T10:24:06Z</time>
      </trkpt>
      <trkpt lat="44.31367" lon="5.82904">
        <ele>563</ele>
        <time>2019-06-07T10:24:07Z</time>
      </trkpt>
      <trkpt lat="44.31366" lon="5.82911">
        <ele>563</ele>
        <time>2019-06-07T10:24:08Z</time>
      </trkpt>
      <trkpt lat="44.31365" lon="5.82918">
        <ele>563</ele>
        <time>2019-06-07T10:24:09Z</time>
      </trkpt>
      <trkpt lat="44.31365" lon="5.82926">
        <ele>563</ele>
        <time>2019-06-07T10:24:10Z</time>
      </trkpt>
      <trkpt lat="44.31364" lon="5.82933">
        <ele>563</ele>
        <time>2019-06-07T10:24:11Z</time>
      </trkpt>
      <trkpt lat="44.31363" lon="5.8294">
        <ele>563</ele>
        <time>2019-06-07T10:24:12Z</time>
      </trkpt>
      <trkpt lat="44.31363" lon="5.82947">
        <ele>563</ele>
        <time>2019-06-07T10:24:13Z</time>
      </trkpt>
      <trkpt lat="44.31362" lon="5.82954">
        <ele>563</ele>
        <time>2019-06-07T10:24:14Z</time>
      </trkpt>
      <trkpt lat="44.31361" lon="5.82962">
        <ele>563</ele>
        <time>2019-06-07T10:24:15Z</time>
      </trkpt>
      <trkpt lat="44.3136" lon="5.82969">
        <ele>563</ele>
        <time>2019-06-07T10:24:16Z</time>
      </trkpt>
      <trkpt lat="44.31359" lon="5.82976">
        <ele>563</ele>
        <time>2019-06-07T10:24:17Z</time>
      </trkpt>
      <trkpt lat="44.31358" lon="5.82984">
        <ele>563</ele>
        <time>2019-06-07T10:24:18Z</time>
      </trkpt>
      <trkpt lat="44.31357" lon="5.82991">
        <ele>563</ele>
        <time>2019-06-07T10:24:19Z</time>
      </trkpt>
      <trkpt lat="44.31356" lon="5.82998">
        <ele>563</ele>
        <time>2019-06-07T10:24:20Z</time>
      </trkpt>
      <trkpt lat="44.31356" lon="5.83005">
        <ele>563</ele>
        <time>2019-06-07T10:24:21Z</time>
      </trkpt>
      <trkpt lat="44.31355" lon="5.83012">
        <ele>563</ele>
        <time>2019-06-07T10:24:22Z</time>
      </trkpt>
      <trkpt lat="44.31354" lon="5.83019">
        <ele>563</ele>
        <time>2019-06-07T10:24:23Z</time>
      </trkpt>
      <trkpt lat="44.31353" lon="5.83026">
        <ele>563</ele>
        <time>2019-06-07T10:24:24Z</time>
      </trkpt>
      <trkpt lat="44.31352" lon="5.83033">
        <ele>563</ele>
        <time>2019-06-07T10:24:25Z</time>
      </trkpt>
      <trkpt lat="44.31351" lon="5.8304">
        <ele>563</ele>
        <time>2019-06-07T10:24:26Z</time>
      </trkpt>
      <trkpt lat="44.3135" lon="5.83046">
        <ele>564</ele>
        <time>2019-06-07T10:24:27Z</time>
      </trkpt>
      <trkpt lat="44.31349" lon="5.83052">
        <ele>564</ele>
        <time>2019-06-07T10:24:28Z</time>
      </trkpt>
      <trkpt lat="44.31348" lon="5.83059">
        <ele>564</ele>
        <time>2019-06-07T10:24:29Z</time>
      </trkpt>
      <trkpt lat="44.31347" lon="5.83065">
        <ele>564</ele>
        <time>2019-06-07T10:24:30Z</time>
      </trkpt>
      <trkpt lat="44.31347" lon="5.83072">
        <ele>564</ele>
        <time>2019-06-07T10:24:31Z</time>
      </trkpt>
      <trkpt lat="44.31346" lon="5.83078">
        <ele>564</ele>
        <time>2019-06-07T10:24:32Z</time>
      </trkpt>
      <trkpt lat="44.31346" lon="5.83084">
        <ele>564</ele>
        <time>2019-06-07T10:24:33Z</time>
      </trkpt>
      <trkpt lat="44.31346" lon="5.8309">
        <ele>564</ele>
        <time>2019-06-07T10:24:34Z</time>
      </trkpt>
      <trkpt lat="44.31346" lon="5.83096">
        <ele>564</ele>
        <time>2019-06-07T10:24:35Z</time>
      </trkpt>
      <trkpt lat="44.31348" lon="5.831">
        <ele>564</ele>
        <time>2019-06-07T10:24:36Z</time>
      </trkpt>
      <trkpt lat="44.3135" lon="5.83103">
        <ele>564</ele>
        <time>2019-06-07T10:24:37Z</time>
      </trkpt>
      <trkpt lat="44.31352" lon="5.83104">
        <ele>564</ele>
        <time>2019-06-07T10:24:38Z</time>
      </trkpt>
      <trkpt lat="44.31356" lon="5.83104">
        <ele>564</ele>
        <time>2019-06-07T10:24:39Z</time>
      </trkpt>
      <trkpt lat="44.31362" lon="5.831">
        <ele>564</ele>
        <time>2019-06-07T10:24:40Z</time>
      </trkpt>
      <trkpt lat="44.31365" lon="5.83095">
        <ele>564</ele>
        <time>2019-06-07T10:24:41Z</time>
      </trkpt>
      <trkpt lat="44.31366" lon="5.83088">
        <ele>564</ele>
        <time>2019-06-07T10:24:42Z</time>
      </trkpt>
      <trkpt lat="44.31367" lon="5.83081">
        <ele>564</ele>
        <time>2019-06-07T10:24:43Z</time>
      </trkpt>
      <trkpt lat="44.31369" lon="5.83076">
        <ele>564</ele>
        <time>2019-06-07T10:24:44Z</time>
      </trkpt>
      <trkpt lat="44.31372" lon="5.8307">
        <ele>564</ele>
        <time>2019-06-07T10:24:45Z</time>
      </trkpt>
      <trkpt lat="44.31375" lon="5.83065">
        <ele>564</ele>
        <time>2019-06-07T10:24:46Z</time>
      </trkpt>
      <trkpt lat="44.31377" lon="5.8306">
        <ele>564</ele>
        <time>2019-06-07T10:24:47Z</time>
      </trkpt>
      <trkpt lat="44.3138" lon="5.83055">
        <ele>564</ele>
        <time>2019-06-07T10:24:48Z</time>
      </trkpt>
      <trkpt lat="44.31383" lon="5.8305">
        <ele>564</ele>
        <time>2019-06-07T10:24:49Z</time>
      </trkpt>
      <trkpt lat="44.31387" lon="5.83045">
        <ele>564</ele>
        <time>2019-06-07T10:24:50Z</time>
      </trkpt>
      <trkpt lat="44.31391" lon="5.83039">
        <ele>564</ele>
        <time>2019-06-07T10:24:51Z</time>
      </trkpt>
      <trkpt lat="44.31394" lon="5.83033">
        <ele>564</ele>
        <time>2019-06-07T10:24:52Z</time>
      </trkpt>
      <trkpt lat="44.31398" lon="5.83028">
        <ele>564</ele>
        <time>2019-06-07T10:24:53Z</time>
      </trkpt>
      <trkpt lat="44.31403" lon="5.83023">
        <ele>564</ele>
        <time>2019-06-07T10:24:54Z</time>
      </trkpt>
      <trkpt lat="44.31407" lon="5.83016">
        <ele>564</ele>
        <time>2019-06-07T10:24:55Z</time>
      </trkpt>
      <trkpt lat="44.31411" lon="5.83008">
        <ele>564</ele>
        <time>2019-06-07T10:24:56Z</time>
      </trkpt>
      <trkpt lat="44.31416" lon="5.83002">
        <ele>564</ele>
        <time>2019-06-07T10:24:57Z</time>
      </trkpt>
      <trkpt lat="44.31421" lon="5.82996">
        <ele>564</ele>
        <time>2019-06-07T10:24:58Z</time>
      </trkpt>
      <trkpt lat="44.31424" lon="5.82989">
        <ele>564</ele>
        <time>2019-06-07T10:24:59Z</time>
      </trkpt>
      <trkpt lat="44.31429" lon="5.82983">
        <ele>564</ele>
        <time>2019-06-07T10:25:00Z</time>
      </trkpt>
      <trkpt lat="44.31433" lon="5.82977">
        <ele>564</ele>
        <time>2019-06-07T10:25:01Z</time>
      </trkpt>
      <trkpt lat="44.31438" lon="5.82971">
        <ele>564</ele>
        <time>2019-06-07T10:25:02Z</time>
      </trkpt>
      <trkpt lat="44.31442" lon="5.82965">
        <ele>564</ele>
        <time>2019-06-07T10:25:03Z</time>
      </trkpt>
      <trkpt lat="44.31446" lon="5.82959">
        <ele>564</ele>
        <time>2019-06-07T10:25:04Z</time>
      </trkpt>
      <trkpt lat="44.3145" lon="5.82952">
        <ele>564</ele>
        <time>2019-06-07T10:25:05Z</time>
      </trkpt>
      <trkpt lat="44.31454" lon="5.82947">
        <ele>564</ele>
        <time>2019-06-07T10:25:06Z</time>
      </trkpt>
      <trkpt lat="44.31459" lon="5.82941">
        <ele>564</ele>
        <time>2019-06-07T10:25:07Z</time>
      </trkpt>
      <trkpt lat="44.31463" lon="5.82935">
        <ele>564</ele>
        <time>2019-06-07T10:25:08Z</time>
      </trkpt>
      <trkpt lat="44.31467" lon="5.82929">
        <ele>564</ele>
        <time>2019-06-07T10:25:09Z</time>
      </trkpt>
      <trkpt lat="44.31471" lon="5.82923">
        <ele>564</ele>
        <time>2019-06-07T10:25:10Z</time>
      </trkpt>
      <trkpt lat="44.31475" lon="5.82918">
        <ele>564</ele>
        <time>2019-06-07T10:25:11Z</time>
      </trkpt>
      <trkpt lat="44.31478" lon="5.82913">
        <ele>564</ele>
        <time>2019-06-07T10:25:12Z</time>
      </trkpt>
      <trkpt lat="44.31482" lon="5.82908">
        <ele>564</ele>
        <time>2019-06-07T10:25:13Z</time>
      </trkpt>
      <trkpt lat="44.31486" lon="5.82902">
        <ele>564</ele>
        <time>2019-06-07T10:25:14Z</time>
      </trkpt>
      <trkpt lat="44.3149" lon="5.82897">
        <ele>564</ele>
        <time>2019-06-07T10:25:15Z</time>
      </trkpt>
      <trkpt lat="44.31493" lon="5.82891">
        <ele>564</ele>
        <time>2019-06-07T10:25:16Z</time>
      </trkpt>
      <trkpt lat="44.31496" lon="5.82886">
        <ele>564</ele>
        <time>2019-06-07T10:25:17Z</time>
      </trkpt>
      <trkpt lat="44.31499" lon="5.8288">
        <ele>563</ele>
        <time>2019-06-07T10:25:18Z</time>
      </trkpt>
      <trkpt lat="44.31503" lon="5.82875">
        <ele>563</ele>
        <time>2019-06-07T10:25:19Z</time>
      </trkpt>
      <trkpt lat="44.31507" lon="5.82872">
        <ele>563</ele>
        <time>2019-06-07T10:25:20Z</time>
      </trkpt>
      <trkpt lat="44.31512" lon="5.8287">
        <ele>563</ele>
        <time>2019-06-07T10:25:21Z</time>
      </trkpt>
      <trkpt lat="44.31517" lon="5.82871">
        <ele>563</ele>
        <time>2019-06-07T10:25:22Z</time>
      </trkpt>
      <trkpt lat="44.31521" lon="5.82874">
        <ele>563</ele>
        <time>2019-06-07T10:25:23Z</time>
      </trkpt>
      <trkpt lat="44.31525" lon="5.82878">
        <ele>563</ele>
        <time>2019-06-07T10:25:24Z</time>
      </trkpt>
      <trkpt lat="44.31528" lon="5.82881">
        <ele>563</ele>
        <time>2019-06-07T10:25:25Z</time>
      </trkpt>
      <trkpt lat="44.31532" lon="5.82885">
        <ele>563</ele>
        <time>2019-06-07T10:25:26Z</time>
      </trkpt>
      <trkpt lat="44.31536" lon="5.82888">
        <ele>563</ele>
        <time>2019-06-07T10:25:27Z</time>
      </trkpt>
      <trkpt lat="44.31538" lon="5.82892">
        <ele>563</ele>
        <time>2019-06-07T10:25:28Z</time>
      </trkpt>
      <trkpt lat="44.31542" lon="5.82895">
        <ele>563</ele>
        <time>2019-06-07T10:25:29Z</time>
      </trkpt>
      <trkpt lat="44.31544" lon="5.82899">
        <ele>563</ele>
        <time>2019-06-07T10:25:30Z</time>
      </trkpt>
      <trkpt lat="44.31547" lon="5.82903">
        <ele>563</ele>
        <time>2019-06-07T10:25:31Z</time>
      </trkpt>
      <trkpt lat="44.31551" lon="5.82907">
        <ele>563</ele>
        <time>2019-06-07T10:25:32Z</time>
      </trkpt>
      <trkpt lat="44.31554" lon="5.8291">
        <ele>563</ele>
        <time>2019-06-07T10:25:33Z</time>
      </trkpt>
      <trkpt lat="44.31557" lon="5.82913">
        <ele>563</ele>
        <time>2019-06-07T10:25:34Z</time>
      </trkpt>
      <trkpt lat="44.3156" lon="5.82915">
        <ele>563</ele>
        <time>2019-06-07T10:25:35Z</time>
      </trkpt>
      <trkpt lat="44.31563" lon="5.82917">
        <ele>563</ele>
        <time>2019-06-07T10:25:36Z</time>
      </trkpt>
      <trkpt lat="44.31565" lon="5.82919">
        <ele>563</ele>
        <time>2019-06-07T10:25:37Z</time>
      </trkpt>
      <trkpt lat="44.31568" lon="5.82922">
        <ele>563</ele>
        <time>2019-06-07T10:25:38Z</time>
      </trkpt>
      <trkpt lat="44.31571" lon="5.82924">
        <ele>563</ele>
        <time>2019-06-07T10:25:39Z</time>
      </trkpt>
      <trkpt lat="44.31575" lon="5.82927">
        <ele>563</ele>
        <time>2019-06-07T10:25:40Z</time>
      </trkpt>
      <trkpt lat="44.31579" lon="5.82929">
        <ele>563</ele>
        <time>2019-06-07T10:25:41Z</time>
      </trkpt>
      <trkpt lat="44.31582" lon="5.82932">
        <ele>563</ele>
        <time>2019-06-07T10:25:42Z</time>
      </trkpt>
      <trkpt lat="44.31585" lon="5.82935">
        <ele>563</ele>
        <time>2019-06-07T10:25:43Z</time>
      </trkpt>
      <trkpt lat="44.31588" lon="5.82937">
        <ele>563</ele>
        <time>2019-06-07T10:25:44Z</time>
      </trkpt>
      <trkpt lat="44.31591" lon="5.8294">
        <ele>563</ele>
        <time>2019-06-07T10:25:45Z</time>
      </trkpt>
      <trkpt lat="44.31593" lon="5.82942">
        <ele>563</ele>
        <time>2019-06-07T10:25:46Z</time>
      </trkpt>
      <trkpt lat="44.31596" lon="5.82944">
        <ele>563</ele>
        <time>2019-06-07T10:25:47Z</time>
      </trkpt>
      <trkpt lat="44.31598" lon="5.82946">
        <ele>563</ele>
        <time>2019-06-07T10:25:48Z</time>
      </trkpt>
      <trkpt lat="44.31599" lon="5.82949">
        <ele>563</ele>
        <time>2019-06-07T10:25:49Z</time>
      </trkpt>
      <trkpt lat="44.316" lon="5.82952">
        <ele>563</ele>
        <time>2019-06-07T10:25:50Z</time>
      </trkpt>
      <trkpt lat="44.31601" lon="5.82956">
        <ele>563</ele>
        <time>2019-06-07T10:25:51Z</time>
      </trkpt>
      <trkpt lat="44.31602" lon="5.82959">
        <ele>563</ele>
        <time>2019-06-07T10:25:52Z</time>
      </trkpt>
      <trkpt lat="44.31602" lon="5.82961">
        <ele>563</ele>
        <time>2019-06-07T10:25:53Z</time>
      </trkpt>
      <trkpt lat="44.31602" lon="5.82964">
        <ele>563</ele>
        <time>2019-06-07T10:25:54Z</time>
      </trkpt>
      <trkpt lat="44.31602" lon="5.82966">
        <ele>563</ele>
        <time>2019-06-07T10:25:56Z</time>
      </trkpt>
      <trkpt lat="44.31601" lon="5.82968">
        <ele>563</ele>
        <time>2019-06-07T10:25:59Z</time>
      </trkpt>
      <trkpt lat="44.316" lon="5.82968">
        <ele>564</ele>
        <time>2019-06-07T10:26:01Z</time>
      </trkpt>
      <trkpt lat="44.31599" lon="5.82968">
        <ele>565</ele>
        <time>2019-06-07T10:26:03Z</time>
      </trkpt>
      <trkpt lat="44.31597" lon="5.8297">
        <ele>566</ele>
        <time>2019-06-07T10:26:06Z</time>
      </trkpt>
      <trkpt lat="44.31597" lon="5.82969">
        <ele>566</ele>
        <time>2019-06-07T10:26:09Z</time>
      </trkpt>
    </trkseg>
  </trk>
</gpx>